<?xml version="1.0" encoding="UTF-8" standalone="no" ?>
<gpx xmlns="http://www.topografix.com/GPX/1/1" xmlns:xsi="http://www.w3.org/2001/XMLSchema-instance" xsi:schemaLocation="http://www.topografix.com/GPX/1/1 http://www.topografix.com/GPX/1/1/gpx.xsd" version="1.1" creator="VisuGPX - https://www.visugpx.com">
  <metadata>
    <name>Vtt ZunGroupe </name>
  </metadata>
  <trk>
    <name><![CDATA[Vtt ZunGroupe _1]]></name>
    <trkseg>
      <trkpt lat="43.95345" lon="1.86915">
        <ele>278.6</ele>
        <time>2023-07-23T04:43:54Z</time>
      </trkpt>
      <trkpt lat="43.95342" lon="1.8692">
        <ele>272.6</ele>
        <time>2023-07-23T04:43:57Z</time>
      </trkpt>
      <trkpt lat="43.95341" lon="1.86922">
        <ele>272.8</ele>
        <time>2023-07-23T04:43:58Z</time>
      </trkpt>
      <trkpt lat="43.9534" lon="1.86923">
        <ele>272.8</ele>
        <time>2023-07-23T04:43:59Z</time>
      </trkpt>
      <trkpt lat="43.95339" lon="1.86925">
        <ele>273</ele>
        <time>2023-07-23T04:44:00Z</time>
      </trkpt>
      <trkpt lat="43.95335" lon="1.86931">
        <ele>272.8</ele>
        <time>2023-07-23T04:44:04Z</time>
      </trkpt>
      <trkpt lat="43.95334" lon="1.86935">
        <ele>273</ele>
        <time>2023-07-23T04:44:06Z</time>
      </trkpt>
      <trkpt lat="43.95334" lon="1.86936">
        <ele>273</ele>
        <time>2023-07-23T04:44:07Z</time>
      </trkpt>
      <trkpt lat="43.95335" lon="1.86938">
        <ele>272.8</ele>
        <time>2023-07-23T04:44:08Z</time>
      </trkpt>
      <trkpt lat="43.95335" lon="1.8694">
        <ele>273</ele>
        <time>2023-07-23T04:44:09Z</time>
      </trkpt>
      <trkpt lat="43.95336" lon="1.86941">
        <ele>273</ele>
        <time>2023-07-23T04:44:10Z</time>
      </trkpt>
      <trkpt lat="43.95337" lon="1.86942">
        <ele>273</ele>
        <time>2023-07-23T04:44:11Z</time>
      </trkpt>
      <trkpt lat="43.95338" lon="1.86943">
        <ele>273</ele>
        <time>2023-07-23T04:44:12Z</time>
      </trkpt>
      <trkpt lat="43.95339" lon="1.86944">
        <ele>273.2</ele>
        <time>2023-07-23T04:44:13Z</time>
      </trkpt>
      <trkpt lat="43.95341" lon="1.86945">
        <ele>273.2</ele>
        <time>2023-07-23T04:44:15Z</time>
      </trkpt>
      <trkpt lat="43.95342" lon="1.86946">
        <ele>273.4</ele>
        <time>2023-07-23T04:44:16Z</time>
      </trkpt>
      <trkpt lat="43.95343" lon="1.86947">
        <ele>273.4</ele>
        <time>2023-07-23T04:44:17Z</time>
      </trkpt>
      <trkpt lat="43.95344" lon="1.86947">
        <ele>273.4</ele>
        <time>2023-07-23T04:44:18Z</time>
      </trkpt>
      <trkpt lat="43.95345" lon="1.86947">
        <ele>273.4</ele>
        <time>2023-07-23T04:44:19Z</time>
      </trkpt>
      <trkpt lat="43.95345" lon="1.86948">
        <ele>273.6</ele>
        <time>2023-07-23T04:44:20Z</time>
      </trkpt>
      <trkpt lat="43.95345" lon="1.86948">
        <ele>273.6</ele>
        <time>2023-07-23T04:44:21Z</time>
      </trkpt>
      <trkpt lat="43.95345" lon="1.86948">
        <ele>273.8</ele>
        <time>2023-07-23T04:44:22Z</time>
      </trkpt>
      <trkpt lat="43.95345" lon="1.86947">
        <ele>273.8</ele>
        <time>2023-07-23T04:44:23Z</time>
      </trkpt>
      <trkpt lat="43.95345" lon="1.86947">
        <ele>274</ele>
        <time>2023-07-23T04:44:24Z</time>
      </trkpt>
      <trkpt lat="43.95348" lon="1.86941">
        <ele>274</ele>
        <time>2023-07-23T04:45:09Z</time>
      </trkpt>
      <trkpt lat="43.95346" lon="1.86939">
        <ele>274</ele>
        <time>2023-07-23T04:45:10Z</time>
      </trkpt>
      <trkpt lat="43.95338" lon="1.86932">
        <ele>274</ele>
        <time>2023-07-23T04:45:14Z</time>
      </trkpt>
      <trkpt lat="43.95334" lon="1.86926">
        <ele>273.8</ele>
        <time>2023-07-23T04:45:16Z</time>
      </trkpt>
      <trkpt lat="43.95334" lon="1.86922">
        <ele>273.8</ele>
        <time>2023-07-23T04:45:17Z</time>
      </trkpt>
      <trkpt lat="43.95334" lon="1.86919">
        <ele>273.8</ele>
        <time>2023-07-23T04:45:18Z</time>
      </trkpt>
      <trkpt lat="43.95336" lon="1.86912">
        <ele>273.6</ele>
        <time>2023-07-23T04:45:20Z</time>
      </trkpt>
      <trkpt lat="43.9534" lon="1.86905">
        <ele>273.4</ele>
        <time>2023-07-23T04:45:22Z</time>
      </trkpt>
      <trkpt lat="43.95341" lon="1.86902">
        <ele>273.4</ele>
        <time>2023-07-23T04:45:23Z</time>
      </trkpt>
      <trkpt lat="43.95348" lon="1.86889">
        <ele>273.2</ele>
        <time>2023-07-23T04:45:27Z</time>
      </trkpt>
      <trkpt lat="43.95353" lon="1.8688">
        <ele>273</ele>
        <time>2023-07-23T04:45:31Z</time>
      </trkpt>
      <trkpt lat="43.95353" lon="1.8688">
        <ele>273</ele>
        <time>2023-07-23T04:45:32Z</time>
      </trkpt>
      <trkpt lat="43.95354" lon="1.86881">
        <ele>272.8</ele>
        <time>2023-07-23T04:45:33Z</time>
      </trkpt>
      <trkpt lat="43.95354" lon="1.86881">
        <ele>272.8</ele>
        <time>2023-07-23T04:45:34Z</time>
      </trkpt>
      <trkpt lat="43.95355" lon="1.86881">
        <ele>272.8</ele>
        <time>2023-07-23T04:45:35Z</time>
      </trkpt>
      <trkpt lat="43.95355" lon="1.86881">
        <ele>272.8</ele>
        <time>2023-07-23T04:45:36Z</time>
      </trkpt>
      <trkpt lat="43.95354" lon="1.86892">
        <ele>272.2</ele>
        <time>2023-07-23T04:46:47Z</time>
      </trkpt>
      <trkpt lat="43.95352" lon="1.86894">
        <ele>272.4</ele>
        <time>2023-07-23T04:46:48Z</time>
      </trkpt>
      <trkpt lat="43.95343" lon="1.86907">
        <ele>272.6</ele>
        <time>2023-07-23T04:46:53Z</time>
      </trkpt>
      <trkpt lat="43.95341" lon="1.8691">
        <ele>272.8</ele>
        <time>2023-07-23T04:46:54Z</time>
      </trkpt>
      <trkpt lat="43.95338" lon="1.86923">
        <ele>273.2</ele>
        <time>2023-07-23T04:46:58Z</time>
      </trkpt>
      <trkpt lat="43.95339" lon="1.86926">
        <ele>273.2</ele>
        <time>2023-07-23T04:46:59Z</time>
      </trkpt>
      <trkpt lat="43.95344" lon="1.86933">
        <ele>273.4</ele>
        <time>2023-07-23T04:47:02Z</time>
      </trkpt>
      <trkpt lat="43.95345" lon="1.86934">
        <ele>273.4</ele>
        <time>2023-07-23T04:47:03Z</time>
      </trkpt>
      <trkpt lat="43.95347" lon="1.86936">
        <ele>273.6</ele>
        <time>2023-07-23T04:47:04Z</time>
      </trkpt>
      <trkpt lat="43.95348" lon="1.86937">
        <ele>273.6</ele>
        <time>2023-07-23T04:47:05Z</time>
      </trkpt>
      <trkpt lat="43.95349" lon="1.86937">
        <ele>273.6</ele>
        <time>2023-07-23T04:47:06Z</time>
      </trkpt>
      <trkpt lat="43.9535" lon="1.86939">
        <ele>273.6</ele>
        <time>2023-07-23T04:47:07Z</time>
      </trkpt>
      <trkpt lat="43.9535" lon="1.8694">
        <ele>273.6</ele>
        <time>2023-07-23T04:47:08Z</time>
      </trkpt>
      <trkpt lat="43.95351" lon="1.86942">
        <ele>273.6</ele>
        <time>2023-07-23T04:47:09Z</time>
      </trkpt>
      <trkpt lat="43.95351" lon="1.86942">
        <ele>273.6</ele>
        <time>2023-07-23T04:47:10Z</time>
      </trkpt>
      <trkpt lat="43.95351" lon="1.86942">
        <ele>273.6</ele>
        <time>2023-07-23T04:47:11Z</time>
      </trkpt>
      <trkpt lat="43.9535" lon="1.86942">
        <ele>273.6</ele>
        <time>2023-07-23T04:47:12Z</time>
      </trkpt>
      <trkpt lat="43.95345" lon="1.86934">
        <ele>272</ele>
        <time>2023-07-23T05:01:30Z</time>
      </trkpt>
      <trkpt lat="43.95341" lon="1.86936">
        <ele>272</ele>
        <time>2023-07-23T05:01:32Z</time>
      </trkpt>
      <trkpt lat="43.95339" lon="1.8694">
        <ele>272</ele>
        <time>2023-07-23T05:01:34Z</time>
      </trkpt>
      <trkpt lat="43.95338" lon="1.86943">
        <ele>272</ele>
        <time>2023-07-23T05:01:35Z</time>
      </trkpt>
      <trkpt lat="43.95338" lon="1.86945">
        <ele>271.8</ele>
        <time>2023-07-23T05:01:36Z</time>
      </trkpt>
      <trkpt lat="43.95339" lon="1.86948">
        <ele>271.8</ele>
        <time>2023-07-23T05:01:37Z</time>
      </trkpt>
      <trkpt lat="43.95339" lon="1.8695">
        <ele>271.8</ele>
        <time>2023-07-23T05:01:38Z</time>
      </trkpt>
      <trkpt lat="43.95341" lon="1.86952">
        <ele>271.8</ele>
        <time>2023-07-23T05:01:39Z</time>
      </trkpt>
      <trkpt lat="43.95346" lon="1.86957">
        <ele>271.6</ele>
        <time>2023-07-23T05:01:42Z</time>
      </trkpt>
      <trkpt lat="43.95348" lon="1.86959">
        <ele>271.6</ele>
        <time>2023-07-23T05:01:43Z</time>
      </trkpt>
      <trkpt lat="43.95354" lon="1.86965">
        <ele>271.4</ele>
        <time>2023-07-23T05:01:47Z</time>
      </trkpt>
      <trkpt lat="43.95374" lon="1.86983">
        <ele>271.6</ele>
        <time>2023-07-23T05:01:56Z</time>
      </trkpt>
      <trkpt lat="43.95398" lon="1.87006">
        <ele>272.2</ele>
        <time>2023-07-23T05:02:07Z</time>
      </trkpt>
      <trkpt lat="43.954" lon="1.87008">
        <ele>272.4</ele>
        <time>2023-07-23T05:02:08Z</time>
      </trkpt>
      <trkpt lat="43.95415" lon="1.87028">
        <ele>272.4</ele>
        <time>2023-07-23T05:02:15Z</time>
      </trkpt>
      <trkpt lat="43.95417" lon="1.8704">
        <ele>272.6</ele>
        <time>2023-07-23T05:02:18Z</time>
      </trkpt>
      <trkpt lat="43.95418" lon="1.87044">
        <ele>272.6</ele>
        <time>2023-07-23T05:02:19Z</time>
      </trkpt>
      <trkpt lat="43.95417" lon="1.87047">
        <ele>272.6</ele>
        <time>2023-07-23T05:02:20Z</time>
      </trkpt>
      <trkpt lat="43.95417" lon="1.87051">
        <ele>272.6</ele>
        <time>2023-07-23T05:02:21Z</time>
      </trkpt>
      <trkpt lat="43.95414" lon="1.87063">
        <ele>272.8</ele>
        <time>2023-07-23T05:02:24Z</time>
      </trkpt>
      <trkpt lat="43.95411" lon="1.8708">
        <ele>273.4</ele>
        <time>2023-07-23T05:02:28Z</time>
      </trkpt>
      <trkpt lat="43.95407" lon="1.87097">
        <ele>274</ele>
        <time>2023-07-23T05:02:32Z</time>
      </trkpt>
      <trkpt lat="43.95402" lon="1.87123">
        <ele>274.4</ele>
        <time>2023-07-23T05:02:38Z</time>
      </trkpt>
      <trkpt lat="43.95396" lon="1.87155">
        <ele>275</ele>
        <time>2023-07-23T05:02:46Z</time>
      </trkpt>
      <trkpt lat="43.95395" lon="1.8716">
        <ele>275.4</ele>
        <time>2023-07-23T05:02:47Z</time>
      </trkpt>
      <trkpt lat="43.95394" lon="1.87164">
        <ele>275.6</ele>
        <time>2023-07-23T05:02:48Z</time>
      </trkpt>
      <trkpt lat="43.95388" lon="1.8719">
        <ele>276.2</ele>
        <time>2023-07-23T05:02:54Z</time>
      </trkpt>
      <trkpt lat="43.95386" lon="1.87199">
        <ele>276.2</ele>
        <time>2023-07-23T05:02:56Z</time>
      </trkpt>
      <trkpt lat="43.95385" lon="1.87203">
        <ele>276.4</ele>
        <time>2023-07-23T05:02:57Z</time>
      </trkpt>
      <trkpt lat="43.95384" lon="1.87208">
        <ele>276.6</ele>
        <time>2023-07-23T05:02:58Z</time>
      </trkpt>
      <trkpt lat="43.95384" lon="1.87211">
        <ele>276.6</ele>
        <time>2023-07-23T05:02:59Z</time>
      </trkpt>
      <trkpt lat="43.95383" lon="1.87215">
        <ele>276.8</ele>
        <time>2023-07-23T05:03:00Z</time>
      </trkpt>
      <trkpt lat="43.95382" lon="1.87219">
        <ele>276.8</ele>
        <time>2023-07-23T05:03:01Z</time>
      </trkpt>
      <trkpt lat="43.95381" lon="1.87223">
        <ele>277</ele>
        <time>2023-07-23T05:03:02Z</time>
      </trkpt>
      <trkpt lat="43.9538" lon="1.87227">
        <ele>277</ele>
        <time>2023-07-23T05:03:03Z</time>
      </trkpt>
      <trkpt lat="43.95379" lon="1.87231">
        <ele>277.4</ele>
        <time>2023-07-23T05:03:04Z</time>
      </trkpt>
      <trkpt lat="43.95378" lon="1.87235">
        <ele>277.4</ele>
        <time>2023-07-23T05:03:05Z</time>
      </trkpt>
      <trkpt lat="43.95377" lon="1.87239">
        <ele>277.6</ele>
        <time>2023-07-23T05:03:06Z</time>
      </trkpt>
      <trkpt lat="43.95377" lon="1.87243">
        <ele>277.6</ele>
        <time>2023-07-23T05:03:07Z</time>
      </trkpt>
      <trkpt lat="43.95376" lon="1.87247">
        <ele>278</ele>
        <time>2023-07-23T05:03:08Z</time>
      </trkpt>
      <trkpt lat="43.95375" lon="1.87251">
        <ele>278</ele>
        <time>2023-07-23T05:03:09Z</time>
      </trkpt>
      <trkpt lat="43.95374" lon="1.87255">
        <ele>277.8</ele>
        <time>2023-07-23T05:03:10Z</time>
      </trkpt>
      <trkpt lat="43.95373" lon="1.87259">
        <ele>278</ele>
        <time>2023-07-23T05:03:11Z</time>
      </trkpt>
      <trkpt lat="43.95372" lon="1.87263">
        <ele>278</ele>
        <time>2023-07-23T05:03:12Z</time>
      </trkpt>
      <trkpt lat="43.95371" lon="1.87267">
        <ele>278</ele>
        <time>2023-07-23T05:03:13Z</time>
      </trkpt>
      <trkpt lat="43.95371" lon="1.87271">
        <ele>278</ele>
        <time>2023-07-23T05:03:14Z</time>
      </trkpt>
      <trkpt lat="43.9537" lon="1.87276">
        <ele>278.2</ele>
        <time>2023-07-23T05:03:15Z</time>
      </trkpt>
      <trkpt lat="43.9537" lon="1.87281">
        <ele>278.2</ele>
        <time>2023-07-23T05:03:16Z</time>
      </trkpt>
      <trkpt lat="43.9537" lon="1.87286">
        <ele>278.4</ele>
        <time>2023-07-23T05:03:17Z</time>
      </trkpt>
      <trkpt lat="43.95371" lon="1.8729">
        <ele>278.6</ele>
        <time>2023-07-23T05:03:18Z</time>
      </trkpt>
      <trkpt lat="43.95371" lon="1.87294">
        <ele>278.6</ele>
        <time>2023-07-23T05:03:19Z</time>
      </trkpt>
      <trkpt lat="43.95372" lon="1.87298">
        <ele>278.8</ele>
        <time>2023-07-23T05:03:20Z</time>
      </trkpt>
      <trkpt lat="43.95373" lon="1.87302">
        <ele>278.8</ele>
        <time>2023-07-23T05:03:21Z</time>
      </trkpt>
      <trkpt lat="43.95374" lon="1.87306">
        <ele>279</ele>
        <time>2023-07-23T05:03:22Z</time>
      </trkpt>
      <trkpt lat="43.95375" lon="1.8731">
        <ele>279</ele>
        <time>2023-07-23T05:03:23Z</time>
      </trkpt>
      <trkpt lat="43.95377" lon="1.87313">
        <ele>279</ele>
        <time>2023-07-23T05:03:24Z</time>
      </trkpt>
      <trkpt lat="43.95379" lon="1.87317">
        <ele>279.2</ele>
        <time>2023-07-23T05:03:25Z</time>
      </trkpt>
      <trkpt lat="43.95381" lon="1.8732">
        <ele>279.2</ele>
        <time>2023-07-23T05:03:26Z</time>
      </trkpt>
      <trkpt lat="43.95384" lon="1.87324">
        <ele>279.2</ele>
        <time>2023-07-23T05:03:27Z</time>
      </trkpt>
      <trkpt lat="43.95386" lon="1.87327">
        <ele>279.4</ele>
        <time>2023-07-23T05:03:28Z</time>
      </trkpt>
      <trkpt lat="43.95388" lon="1.87331">
        <ele>279.4</ele>
        <time>2023-07-23T05:03:29Z</time>
      </trkpt>
      <trkpt lat="43.95392" lon="1.87337">
        <ele>279.6</ele>
        <time>2023-07-23T05:03:31Z</time>
      </trkpt>
      <trkpt lat="43.95405" lon="1.87357">
        <ele>280.2</ele>
        <time>2023-07-23T05:03:37Z</time>
      </trkpt>
      <trkpt lat="43.95406" lon="1.8736">
        <ele>280.6</ele>
        <time>2023-07-23T05:03:38Z</time>
      </trkpt>
      <trkpt lat="43.95408" lon="1.87363">
        <ele>280.6</ele>
        <time>2023-07-23T05:03:39Z</time>
      </trkpt>
      <trkpt lat="43.9541" lon="1.87366">
        <ele>280.8</ele>
        <time>2023-07-23T05:03:40Z</time>
      </trkpt>
      <trkpt lat="43.95412" lon="1.87369">
        <ele>280.8</ele>
        <time>2023-07-23T05:03:41Z</time>
      </trkpt>
      <trkpt lat="43.95414" lon="1.87372">
        <ele>281</ele>
        <time>2023-07-23T05:03:42Z</time>
      </trkpt>
      <trkpt lat="43.95417" lon="1.87378">
        <ele>281.2</ele>
        <time>2023-07-23T05:03:44Z</time>
      </trkpt>
      <trkpt lat="43.95419" lon="1.87381">
        <ele>281.4</ele>
        <time>2023-07-23T05:03:45Z</time>
      </trkpt>
      <trkpt lat="43.9542" lon="1.87385">
        <ele>281.4</ele>
        <time>2023-07-23T05:03:46Z</time>
      </trkpt>
      <trkpt lat="43.95421" lon="1.87388">
        <ele>281.8</ele>
        <time>2023-07-23T05:03:47Z</time>
      </trkpt>
      <trkpt lat="43.95421" lon="1.87392">
        <ele>281.8</ele>
        <time>2023-07-23T05:03:48Z</time>
      </trkpt>
      <trkpt lat="43.9542" lon="1.87394">
        <ele>282</ele>
        <time>2023-07-23T05:03:49Z</time>
      </trkpt>
      <trkpt lat="43.95418" lon="1.87397">
        <ele>282</ele>
        <time>2023-07-23T05:03:50Z</time>
      </trkpt>
      <trkpt lat="43.95417" lon="1.874">
        <ele>282.2</ele>
        <time>2023-07-23T05:03:51Z</time>
      </trkpt>
      <trkpt lat="43.95415" lon="1.87404">
        <ele>282.4</ele>
        <time>2023-07-23T05:03:52Z</time>
      </trkpt>
      <trkpt lat="43.95413" lon="1.87407">
        <ele>282.4</ele>
        <time>2023-07-23T05:03:53Z</time>
      </trkpt>
      <trkpt lat="43.95411" lon="1.8741">
        <ele>282.6</ele>
        <time>2023-07-23T05:03:54Z</time>
      </trkpt>
      <trkpt lat="43.95409" lon="1.87414">
        <ele>282.8</ele>
        <time>2023-07-23T05:03:55Z</time>
      </trkpt>
      <trkpt lat="43.95406" lon="1.87417">
        <ele>282.8</ele>
        <time>2023-07-23T05:03:56Z</time>
      </trkpt>
      <trkpt lat="43.95403" lon="1.87421">
        <ele>282.8</ele>
        <time>2023-07-23T05:03:57Z</time>
      </trkpt>
      <trkpt lat="43.954" lon="1.87425">
        <ele>282.8</ele>
        <time>2023-07-23T05:03:58Z</time>
      </trkpt>
      <trkpt lat="43.95398" lon="1.87429">
        <ele>282.8</ele>
        <time>2023-07-23T05:03:59Z</time>
      </trkpt>
      <trkpt lat="43.95395" lon="1.87432">
        <ele>282.8</ele>
        <time>2023-07-23T05:04:00Z</time>
      </trkpt>
      <trkpt lat="43.95392" lon="1.87436">
        <ele>282.8</ele>
        <time>2023-07-23T05:04:01Z</time>
      </trkpt>
      <trkpt lat="43.9539" lon="1.87439">
        <ele>282.8</ele>
        <time>2023-07-23T05:04:02Z</time>
      </trkpt>
      <trkpt lat="43.95387" lon="1.87442">
        <ele>282.8</ele>
        <time>2023-07-23T05:04:03Z</time>
      </trkpt>
      <trkpt lat="43.95385" lon="1.87445">
        <ele>282.8</ele>
        <time>2023-07-23T05:04:04Z</time>
      </trkpt>
      <trkpt lat="43.95383" lon="1.87449">
        <ele>282.6</ele>
        <time>2023-07-23T05:04:05Z</time>
      </trkpt>
      <trkpt lat="43.9538" lon="1.87452">
        <ele>282.6</ele>
        <time>2023-07-23T05:04:06Z</time>
      </trkpt>
      <trkpt lat="43.9537" lon="1.87467">
        <ele>282.2</ele>
        <time>2023-07-23T05:04:10Z</time>
      </trkpt>
      <trkpt lat="43.95356" lon="1.87488">
        <ele>281.8</ele>
        <time>2023-07-23T05:04:15Z</time>
      </trkpt>
      <trkpt lat="43.95347" lon="1.87502">
        <ele>281.4</ele>
        <time>2023-07-23T05:04:18Z</time>
      </trkpt>
      <trkpt lat="43.95344" lon="1.87506">
        <ele>281.4</ele>
        <time>2023-07-23T05:04:19Z</time>
      </trkpt>
      <trkpt lat="43.9533" lon="1.87521">
        <ele>281</ele>
        <time>2023-07-23T05:04:23Z</time>
      </trkpt>
      <trkpt lat="43.95327" lon="1.87525">
        <ele>280.6</ele>
        <time>2023-07-23T05:04:24Z</time>
      </trkpt>
      <trkpt lat="43.95306" lon="1.87552">
        <ele>279.4</ele>
        <time>2023-07-23T05:04:31Z</time>
      </trkpt>
      <trkpt lat="43.95303" lon="1.87556">
        <ele>279.4</ele>
        <time>2023-07-23T05:04:32Z</time>
      </trkpt>
      <trkpt lat="43.95301" lon="1.87559">
        <ele>279.2</ele>
        <time>2023-07-23T05:04:33Z</time>
      </trkpt>
      <trkpt lat="43.95299" lon="1.87563">
        <ele>279.2</ele>
        <time>2023-07-23T05:04:34Z</time>
      </trkpt>
      <trkpt lat="43.95297" lon="1.87566">
        <ele>279</ele>
        <time>2023-07-23T05:04:35Z</time>
      </trkpt>
      <trkpt lat="43.95295" lon="1.87569">
        <ele>279</ele>
        <time>2023-07-23T05:04:36Z</time>
      </trkpt>
      <trkpt lat="43.95294" lon="1.87571">
        <ele>278.8</ele>
        <time>2023-07-23T05:04:37Z</time>
      </trkpt>
      <trkpt lat="43.95293" lon="1.87575">
        <ele>278.8</ele>
        <time>2023-07-23T05:04:38Z</time>
      </trkpt>
      <trkpt lat="43.95294" lon="1.87577">
        <ele>278.8</ele>
        <time>2023-07-23T05:04:39Z</time>
      </trkpt>
      <trkpt lat="43.95296" lon="1.87579">
        <ele>278.8</ele>
        <time>2023-07-23T05:04:40Z</time>
      </trkpt>
      <trkpt lat="43.95297" lon="1.87581">
        <ele>278.8</ele>
        <time>2023-07-23T05:04:41Z</time>
      </trkpt>
      <trkpt lat="43.95298" lon="1.87584">
        <ele>278.8</ele>
        <time>2023-07-23T05:04:42Z</time>
      </trkpt>
      <trkpt lat="43.95298" lon="1.87588">
        <ele>278.8</ele>
        <time>2023-07-23T05:04:43Z</time>
      </trkpt>
      <trkpt lat="43.95296" lon="1.87596">
        <ele>278.6</ele>
        <time>2023-07-23T05:04:45Z</time>
      </trkpt>
      <trkpt lat="43.95293" lon="1.87599">
        <ele>278.6</ele>
        <time>2023-07-23T05:04:46Z</time>
      </trkpt>
      <trkpt lat="43.95288" lon="1.87603">
        <ele>278.4</ele>
        <time>2023-07-23T05:04:48Z</time>
      </trkpt>
      <trkpt lat="43.95286" lon="1.87606">
        <ele>278.2</ele>
        <time>2023-07-23T05:04:49Z</time>
      </trkpt>
      <trkpt lat="43.95284" lon="1.87608">
        <ele>278.2</ele>
        <time>2023-07-23T05:04:50Z</time>
      </trkpt>
      <trkpt lat="43.95282" lon="1.87611">
        <ele>278</ele>
        <time>2023-07-23T05:04:51Z</time>
      </trkpt>
      <trkpt lat="43.95281" lon="1.87614">
        <ele>278</ele>
        <time>2023-07-23T05:04:52Z</time>
      </trkpt>
      <trkpt lat="43.95274" lon="1.87622">
        <ele>277.6</ele>
        <time>2023-07-23T05:04:55Z</time>
      </trkpt>
      <trkpt lat="43.95272" lon="1.87624">
        <ele>277.4</ele>
        <time>2023-07-23T05:04:56Z</time>
      </trkpt>
      <trkpt lat="43.9527" lon="1.87627">
        <ele>277.4</ele>
        <time>2023-07-23T05:04:57Z</time>
      </trkpt>
      <trkpt lat="43.95259" lon="1.87644">
        <ele>277.4</ele>
        <time>2023-07-23T05:05:03Z</time>
      </trkpt>
      <trkpt lat="43.95259" lon="1.87647">
        <ele>277.4</ele>
        <time>2023-07-23T05:05:04Z</time>
      </trkpt>
      <trkpt lat="43.95259" lon="1.8765">
        <ele>277.6</ele>
        <time>2023-07-23T05:05:05Z</time>
      </trkpt>
      <trkpt lat="43.95262" lon="1.87656">
        <ele>277.6</ele>
        <time>2023-07-23T05:05:07Z</time>
      </trkpt>
      <trkpt lat="43.95264" lon="1.8766">
        <ele>277.6</ele>
        <time>2023-07-23T05:05:08Z</time>
      </trkpt>
      <trkpt lat="43.95266" lon="1.87664">
        <ele>277.6</ele>
        <time>2023-07-23T05:05:09Z</time>
      </trkpt>
      <trkpt lat="43.9527" lon="1.87672">
        <ele>277.2</ele>
        <time>2023-07-23T05:05:11Z</time>
      </trkpt>
      <trkpt lat="43.95273" lon="1.87676">
        <ele>277</ele>
        <time>2023-07-23T05:05:12Z</time>
      </trkpt>
      <trkpt lat="43.95282" lon="1.87693">
        <ele>276.2</ele>
        <time>2023-07-23T05:05:15Z</time>
      </trkpt>
      <trkpt lat="43.95289" lon="1.87705">
        <ele>275.2</ele>
        <time>2023-07-23T05:05:17Z</time>
      </trkpt>
      <trkpt lat="43.95293" lon="1.87711">
        <ele>274</ele>
        <time>2023-07-23T05:05:18Z</time>
      </trkpt>
      <trkpt lat="43.95296" lon="1.87717">
        <ele>273</ele>
        <time>2023-07-23T05:05:19Z</time>
      </trkpt>
      <trkpt lat="43.95299" lon="1.87722">
        <ele>272.6</ele>
        <time>2023-07-23T05:05:20Z</time>
      </trkpt>
      <trkpt lat="43.95302" lon="1.87728">
        <ele>271.8</ele>
        <time>2023-07-23T05:05:21Z</time>
      </trkpt>
      <trkpt lat="43.95305" lon="1.87733">
        <ele>271.6</ele>
        <time>2023-07-23T05:05:22Z</time>
      </trkpt>
      <trkpt lat="43.95308" lon="1.87738">
        <ele>270.2</ele>
        <time>2023-07-23T05:05:23Z</time>
      </trkpt>
      <trkpt lat="43.95315" lon="1.87749">
        <ele>268.4</ele>
        <time>2023-07-23T05:05:25Z</time>
      </trkpt>
      <trkpt lat="43.95325" lon="1.87767">
        <ele>267</ele>
        <time>2023-07-23T05:05:28Z</time>
      </trkpt>
      <trkpt lat="43.95329" lon="1.87773">
        <ele>266.8</ele>
        <time>2023-07-23T05:05:29Z</time>
      </trkpt>
      <trkpt lat="43.95333" lon="1.87779">
        <ele>266.4</ele>
        <time>2023-07-23T05:05:30Z</time>
      </trkpt>
      <trkpt lat="43.95342" lon="1.87793">
        <ele>265.6</ele>
        <time>2023-07-23T05:05:32Z</time>
      </trkpt>
      <trkpt lat="43.95351" lon="1.87808">
        <ele>264.4</ele>
        <time>2023-07-23T05:05:34Z</time>
      </trkpt>
      <trkpt lat="43.95363" lon="1.87831">
        <ele>262.8</ele>
        <time>2023-07-23T05:05:37Z</time>
      </trkpt>
      <trkpt lat="43.95368" lon="1.87839">
        <ele>262.4</ele>
        <time>2023-07-23T05:05:38Z</time>
      </trkpt>
      <trkpt lat="43.95371" lon="1.87847">
        <ele>261.4</ele>
        <time>2023-07-23T05:05:39Z</time>
      </trkpt>
      <trkpt lat="43.9538" lon="1.87862">
        <ele>260.2</ele>
        <time>2023-07-23T05:05:41Z</time>
      </trkpt>
      <trkpt lat="43.95388" lon="1.87876">
        <ele>258.8</ele>
        <time>2023-07-23T05:05:43Z</time>
      </trkpt>
      <trkpt lat="43.95397" lon="1.87889">
        <ele>257.4</ele>
        <time>2023-07-23T05:05:45Z</time>
      </trkpt>
      <trkpt lat="43.95409" lon="1.87909">
        <ele>255.6</ele>
        <time>2023-07-23T05:05:48Z</time>
      </trkpt>
      <trkpt lat="43.95413" lon="1.87915">
        <ele>255.4</ele>
        <time>2023-07-23T05:05:49Z</time>
      </trkpt>
      <trkpt lat="43.95417" lon="1.87921">
        <ele>254.6</ele>
        <time>2023-07-23T05:05:50Z</time>
      </trkpt>
      <trkpt lat="43.9542" lon="1.87926">
        <ele>254</ele>
        <time>2023-07-23T05:05:51Z</time>
      </trkpt>
      <trkpt lat="43.95424" lon="1.87932">
        <ele>254</ele>
        <time>2023-07-23T05:05:52Z</time>
      </trkpt>
      <trkpt lat="43.95427" lon="1.87937">
        <ele>253.6</ele>
        <time>2023-07-23T05:05:53Z</time>
      </trkpt>
      <trkpt lat="43.95434" lon="1.87949">
        <ele>252.8</ele>
        <time>2023-07-23T05:05:55Z</time>
      </trkpt>
      <trkpt lat="43.95441" lon="1.87962">
        <ele>252</ele>
        <time>2023-07-23T05:05:57Z</time>
      </trkpt>
      <trkpt lat="43.95448" lon="1.87973">
        <ele>250.8</ele>
        <time>2023-07-23T05:05:59Z</time>
      </trkpt>
      <trkpt lat="43.95455" lon="1.87984">
        <ele>249.8</ele>
        <time>2023-07-23T05:06:01Z</time>
      </trkpt>
      <trkpt lat="43.95458" lon="1.8799">
        <ele>249</ele>
        <time>2023-07-23T05:06:02Z</time>
      </trkpt>
      <trkpt lat="43.95462" lon="1.87996">
        <ele>248.6</ele>
        <time>2023-07-23T05:06:03Z</time>
      </trkpt>
      <trkpt lat="43.95466" lon="1.88002">
        <ele>247.6</ele>
        <time>2023-07-23T05:06:04Z</time>
      </trkpt>
      <trkpt lat="43.95475" lon="1.88016">
        <ele>245.6</ele>
        <time>2023-07-23T05:06:06Z</time>
      </trkpt>
      <trkpt lat="43.9548" lon="1.88024">
        <ele>244.4</ele>
        <time>2023-07-23T05:06:07Z</time>
      </trkpt>
      <trkpt lat="43.95489" lon="1.88039">
        <ele>242.6</ele>
        <time>2023-07-23T05:06:09Z</time>
      </trkpt>
      <trkpt lat="43.95493" lon="1.88045">
        <ele>242.2</ele>
        <time>2023-07-23T05:06:10Z</time>
      </trkpt>
      <trkpt lat="43.95497" lon="1.88051">
        <ele>240.8</ele>
        <time>2023-07-23T05:06:11Z</time>
      </trkpt>
      <trkpt lat="43.955" lon="1.88056">
        <ele>240.2</ele>
        <time>2023-07-23T05:06:12Z</time>
      </trkpt>
      <trkpt lat="43.95504" lon="1.88062">
        <ele>238.8</ele>
        <time>2023-07-23T05:06:13Z</time>
      </trkpt>
      <trkpt lat="43.95507" lon="1.88068">
        <ele>237.8</ele>
        <time>2023-07-23T05:06:14Z</time>
      </trkpt>
      <trkpt lat="43.9551" lon="1.88073">
        <ele>237.4</ele>
        <time>2023-07-23T05:06:15Z</time>
      </trkpt>
      <trkpt lat="43.95512" lon="1.88076">
        <ele>236.4</ele>
        <time>2023-07-23T05:06:16Z</time>
      </trkpt>
      <trkpt lat="43.95514" lon="1.88078">
        <ele>236</ele>
        <time>2023-07-23T05:06:17Z</time>
      </trkpt>
      <trkpt lat="43.95516" lon="1.88077">
        <ele>234.2</ele>
        <time>2023-07-23T05:06:18Z</time>
      </trkpt>
      <trkpt lat="43.95518" lon="1.88076">
        <ele>233.6</ele>
        <time>2023-07-23T05:06:19Z</time>
      </trkpt>
      <trkpt lat="43.9552" lon="1.88074">
        <ele>232.4</ele>
        <time>2023-07-23T05:06:20Z</time>
      </trkpt>
      <trkpt lat="43.95521" lon="1.88072">
        <ele>232.2</ele>
        <time>2023-07-23T05:06:21Z</time>
      </trkpt>
      <trkpt lat="43.95521" lon="1.88071">
        <ele>231.6</ele>
        <time>2023-07-23T05:06:22Z</time>
      </trkpt>
      <trkpt lat="43.95522" lon="1.88069">
        <ele>231.2</ele>
        <time>2023-07-23T05:06:23Z</time>
      </trkpt>
      <trkpt lat="43.95523" lon="1.88067">
        <ele>231</ele>
        <time>2023-07-23T05:06:24Z</time>
      </trkpt>
      <trkpt lat="43.95525" lon="1.88064">
        <ele>230.6</ele>
        <time>2023-07-23T05:06:25Z</time>
      </trkpt>
      <trkpt lat="43.95527" lon="1.88059">
        <ele>230</ele>
        <time>2023-07-23T05:06:27Z</time>
      </trkpt>
      <trkpt lat="43.95534" lon="1.88039">
        <ele>228.8</ele>
        <time>2023-07-23T05:06:32Z</time>
      </trkpt>
      <trkpt lat="43.95536" lon="1.88035">
        <ele>228.6</ele>
        <time>2023-07-23T05:06:33Z</time>
      </trkpt>
      <trkpt lat="43.95542" lon="1.88023">
        <ele>227.8</ele>
        <time>2023-07-23T05:06:36Z</time>
      </trkpt>
      <trkpt lat="43.95545" lon="1.88021">
        <ele>227.2</ele>
        <time>2023-07-23T05:06:37Z</time>
      </trkpt>
      <trkpt lat="43.95547" lon="1.88021">
        <ele>226.6</ele>
        <time>2023-07-23T05:06:38Z</time>
      </trkpt>
      <trkpt lat="43.95549" lon="1.88023">
        <ele>226</ele>
        <time>2023-07-23T05:06:39Z</time>
      </trkpt>
      <trkpt lat="43.9555" lon="1.88025">
        <ele>225.6</ele>
        <time>2023-07-23T05:06:40Z</time>
      </trkpt>
      <trkpt lat="43.9555" lon="1.88029">
        <ele>224.8</ele>
        <time>2023-07-23T05:06:41Z</time>
      </trkpt>
      <trkpt lat="43.9555" lon="1.88033">
        <ele>224.6</ele>
        <time>2023-07-23T05:06:42Z</time>
      </trkpt>
      <trkpt lat="43.95549" lon="1.88038">
        <ele>223.8</ele>
        <time>2023-07-23T05:06:43Z</time>
      </trkpt>
      <trkpt lat="43.95549" lon="1.88043">
        <ele>223.6</ele>
        <time>2023-07-23T05:06:44Z</time>
      </trkpt>
      <trkpt lat="43.95548" lon="1.88048">
        <ele>223</ele>
        <time>2023-07-23T05:06:45Z</time>
      </trkpt>
      <trkpt lat="43.95546" lon="1.88052">
        <ele>222.6</ele>
        <time>2023-07-23T05:06:46Z</time>
      </trkpt>
      <trkpt lat="43.95546" lon="1.88057">
        <ele>222.6</ele>
        <time>2023-07-23T05:06:47Z</time>
      </trkpt>
      <trkpt lat="43.95546" lon="1.88061">
        <ele>221.8</ele>
        <time>2023-07-23T05:06:48Z</time>
      </trkpt>
      <trkpt lat="43.95546" lon="1.88066">
        <ele>221.4</ele>
        <time>2023-07-23T05:06:49Z</time>
      </trkpt>
      <trkpt lat="43.95544" lon="1.88081">
        <ele>220</ele>
        <time>2023-07-23T05:06:52Z</time>
      </trkpt>
      <trkpt lat="43.95543" lon="1.88087">
        <ele>220</ele>
        <time>2023-07-23T05:06:53Z</time>
      </trkpt>
      <trkpt lat="43.95543" lon="1.88093">
        <ele>219.6</ele>
        <time>2023-07-23T05:06:54Z</time>
      </trkpt>
      <trkpt lat="43.9554" lon="1.88106">
        <ele>219.2</ele>
        <time>2023-07-23T05:06:56Z</time>
      </trkpt>
      <trkpt lat="43.9554" lon="1.88113">
        <ele>218.4</ele>
        <time>2023-07-23T05:06:57Z</time>
      </trkpt>
      <trkpt lat="43.95538" lon="1.88121">
        <ele>218.2</ele>
        <time>2023-07-23T05:06:58Z</time>
      </trkpt>
      <trkpt lat="43.95537" lon="1.88129">
        <ele>217.6</ele>
        <time>2023-07-23T05:06:59Z</time>
      </trkpt>
      <trkpt lat="43.95533" lon="1.88145">
        <ele>217.2</ele>
        <time>2023-07-23T05:07:01Z</time>
      </trkpt>
      <trkpt lat="43.95531" lon="1.88153">
        <ele>216.8</ele>
        <time>2023-07-23T05:07:02Z</time>
      </trkpt>
      <trkpt lat="43.9553" lon="1.8816">
        <ele>216.6</ele>
        <time>2023-07-23T05:07:03Z</time>
      </trkpt>
      <trkpt lat="43.95531" lon="1.88166">
        <ele>216.2</ele>
        <time>2023-07-23T05:07:04Z</time>
      </trkpt>
      <trkpt lat="43.95532" lon="1.88173">
        <ele>216</ele>
        <time>2023-07-23T05:07:05Z</time>
      </trkpt>
      <trkpt lat="43.95534" lon="1.8818">
        <ele>215.6</ele>
        <time>2023-07-23T05:07:06Z</time>
      </trkpt>
      <trkpt lat="43.95535" lon="1.88186">
        <ele>215.4</ele>
        <time>2023-07-23T05:07:07Z</time>
      </trkpt>
      <trkpt lat="43.95535" lon="1.88193">
        <ele>215.2</ele>
        <time>2023-07-23T05:07:08Z</time>
      </trkpt>
      <trkpt lat="43.95535" lon="1.882">
        <ele>215</ele>
        <time>2023-07-23T05:07:09Z</time>
      </trkpt>
      <trkpt lat="43.95535" lon="1.88205">
        <ele>214.6</ele>
        <time>2023-07-23T05:07:10Z</time>
      </trkpt>
      <trkpt lat="43.95535" lon="1.8821">
        <ele>214.4</ele>
        <time>2023-07-23T05:07:11Z</time>
      </trkpt>
      <trkpt lat="43.95535" lon="1.88214">
        <ele>214.4</ele>
        <time>2023-07-23T05:07:12Z</time>
      </trkpt>
      <trkpt lat="43.95535" lon="1.88218">
        <ele>214.2</ele>
        <time>2023-07-23T05:07:13Z</time>
      </trkpt>
      <trkpt lat="43.95534" lon="1.88222">
        <ele>214.2</ele>
        <time>2023-07-23T05:07:14Z</time>
      </trkpt>
      <trkpt lat="43.95533" lon="1.88229">
        <ele>214</ele>
        <time>2023-07-23T05:07:15Z</time>
      </trkpt>
      <trkpt lat="43.95532" lon="1.88234">
        <ele>214</ele>
        <time>2023-07-23T05:07:16Z</time>
      </trkpt>
      <trkpt lat="43.95532" lon="1.88237">
        <ele>213.8</ele>
        <time>2023-07-23T05:07:17Z</time>
      </trkpt>
      <trkpt lat="43.95533" lon="1.8824">
        <ele>213.8</ele>
        <time>2023-07-23T05:07:18Z</time>
      </trkpt>
      <trkpt lat="43.95534" lon="1.88243">
        <ele>213.8</ele>
        <time>2023-07-23T05:07:19Z</time>
      </trkpt>
      <trkpt lat="43.95535" lon="1.88247">
        <ele>213.8</ele>
        <time>2023-07-23T05:07:20Z</time>
      </trkpt>
      <trkpt lat="43.95537" lon="1.88251">
        <ele>213.8</ele>
        <time>2023-07-23T05:07:21Z</time>
      </trkpt>
      <trkpt lat="43.95541" lon="1.88266">
        <ele>214</ele>
        <time>2023-07-23T05:07:26Z</time>
      </trkpt>
      <trkpt lat="43.95542" lon="1.88268">
        <ele>214</ele>
        <time>2023-07-23T05:07:28Z</time>
      </trkpt>
      <trkpt lat="43.95543" lon="1.88269">
        <ele>214.2</ele>
        <time>2023-07-23T05:07:29Z</time>
      </trkpt>
      <trkpt lat="43.95544" lon="1.88269">
        <ele>214.2</ele>
        <time>2023-07-23T05:07:30Z</time>
      </trkpt>
      <trkpt lat="43.95545" lon="1.88268">
        <ele>214.4</ele>
        <time>2023-07-23T05:07:31Z</time>
      </trkpt>
      <trkpt lat="43.95548" lon="1.88264">
        <ele>214.8</ele>
        <time>2023-07-23T05:07:34Z</time>
      </trkpt>
      <trkpt lat="43.9555" lon="1.88263">
        <ele>215</ele>
        <time>2023-07-23T05:07:35Z</time>
      </trkpt>
      <trkpt lat="43.95551" lon="1.88262">
        <ele>215</ele>
        <time>2023-07-23T05:07:36Z</time>
      </trkpt>
      <trkpt lat="43.95553" lon="1.88261">
        <ele>215.2</ele>
        <time>2023-07-23T05:07:37Z</time>
      </trkpt>
      <trkpt lat="43.95556" lon="1.88261">
        <ele>215.6</ele>
        <time>2023-07-23T05:07:39Z</time>
      </trkpt>
      <trkpt lat="43.95557" lon="1.88261">
        <ele>215.6</ele>
        <time>2023-07-23T05:07:40Z</time>
      </trkpt>
      <trkpt lat="43.95558" lon="1.88261">
        <ele>215.6</ele>
        <time>2023-07-23T05:07:41Z</time>
      </trkpt>
      <trkpt lat="43.95559" lon="1.88261">
        <ele>216</ele>
        <time>2023-07-23T05:07:42Z</time>
      </trkpt>
      <trkpt lat="43.95561" lon="1.88261">
        <ele>216.2</ele>
        <time>2023-07-23T05:07:44Z</time>
      </trkpt>
      <trkpt lat="43.95563" lon="1.88262">
        <ele>216.4</ele>
        <time>2023-07-23T05:07:45Z</time>
      </trkpt>
      <trkpt lat="43.95564" lon="1.88263">
        <ele>216.4</ele>
        <time>2023-07-23T05:07:46Z</time>
      </trkpt>
      <trkpt lat="43.95565" lon="1.88263">
        <ele>216.6</ele>
        <time>2023-07-23T05:07:47Z</time>
      </trkpt>
      <trkpt lat="43.95566" lon="1.88263">
        <ele>216.6</ele>
        <time>2023-07-23T05:07:48Z</time>
      </trkpt>
      <trkpt lat="43.95568" lon="1.88264">
        <ele>217</ele>
        <time>2023-07-23T05:07:49Z</time>
      </trkpt>
      <trkpt lat="43.95568" lon="1.88265">
        <ele>217.2</ele>
        <time>2023-07-23T05:07:50Z</time>
      </trkpt>
      <trkpt lat="43.95569" lon="1.88266">
        <ele>217.4</ele>
        <time>2023-07-23T05:07:51Z</time>
      </trkpt>
      <trkpt lat="43.95571" lon="1.88267">
        <ele>217.6</ele>
        <time>2023-07-23T05:07:52Z</time>
      </trkpt>
      <trkpt lat="43.95572" lon="1.88268">
        <ele>217.8</ele>
        <time>2023-07-23T05:07:53Z</time>
      </trkpt>
      <trkpt lat="43.95573" lon="1.88269">
        <ele>217.8</ele>
        <time>2023-07-23T05:07:54Z</time>
      </trkpt>
      <trkpt lat="43.95574" lon="1.8827">
        <ele>217.8</ele>
        <time>2023-07-23T05:07:55Z</time>
      </trkpt>
      <trkpt lat="43.95575" lon="1.88272">
        <ele>218</ele>
        <time>2023-07-23T05:07:56Z</time>
      </trkpt>
      <trkpt lat="43.95576" lon="1.88272">
        <ele>218.2</ele>
        <time>2023-07-23T05:07:57Z</time>
      </trkpt>
      <trkpt lat="43.95578" lon="1.88273">
        <ele>218.2</ele>
        <time>2023-07-23T05:07:58Z</time>
      </trkpt>
      <trkpt lat="43.95579" lon="1.88275">
        <ele>218.2</ele>
        <time>2023-07-23T05:07:59Z</time>
      </trkpt>
      <trkpt lat="43.9558" lon="1.88276">
        <ele>218.4</ele>
        <time>2023-07-23T05:08:00Z</time>
      </trkpt>
      <trkpt lat="43.9558" lon="1.88277">
        <ele>218.6</ele>
        <time>2023-07-23T05:08:01Z</time>
      </trkpt>
      <trkpt lat="43.95582" lon="1.88278">
        <ele>218.8</ele>
        <time>2023-07-23T05:08:02Z</time>
      </trkpt>
      <trkpt lat="43.95583" lon="1.88279">
        <ele>219.2</ele>
        <time>2023-07-23T05:08:03Z</time>
      </trkpt>
      <trkpt lat="43.95584" lon="1.8828">
        <ele>219.2</ele>
        <time>2023-07-23T05:08:04Z</time>
      </trkpt>
      <trkpt lat="43.95585" lon="1.88281">
        <ele>219.4</ele>
        <time>2023-07-23T05:08:05Z</time>
      </trkpt>
      <trkpt lat="43.95586" lon="1.88282">
        <ele>219.6</ele>
        <time>2023-07-23T05:08:06Z</time>
      </trkpt>
      <trkpt lat="43.95587" lon="1.88283">
        <ele>219.8</ele>
        <time>2023-07-23T05:08:07Z</time>
      </trkpt>
      <trkpt lat="43.95588" lon="1.88285">
        <ele>220.2</ele>
        <time>2023-07-23T05:08:08Z</time>
      </trkpt>
      <trkpt lat="43.95589" lon="1.88286">
        <ele>220.2</ele>
        <time>2023-07-23T05:08:09Z</time>
      </trkpt>
      <trkpt lat="43.9559" lon="1.88288">
        <ele>220.4</ele>
        <time>2023-07-23T05:08:10Z</time>
      </trkpt>
      <trkpt lat="43.95591" lon="1.88289">
        <ele>220.6</ele>
        <time>2023-07-23T05:08:11Z</time>
      </trkpt>
      <trkpt lat="43.95592" lon="1.8829">
        <ele>221</ele>
        <time>2023-07-23T05:08:12Z</time>
      </trkpt>
      <trkpt lat="43.95593" lon="1.88292">
        <ele>221.2</ele>
        <time>2023-07-23T05:08:13Z</time>
      </trkpt>
      <trkpt lat="43.95594" lon="1.88293">
        <ele>221.2</ele>
        <time>2023-07-23T05:08:14Z</time>
      </trkpt>
      <trkpt lat="43.95595" lon="1.88295">
        <ele>221.4</ele>
        <time>2023-07-23T05:08:15Z</time>
      </trkpt>
      <trkpt lat="43.95596" lon="1.88297">
        <ele>221.4</ele>
        <time>2023-07-23T05:08:16Z</time>
      </trkpt>
      <trkpt lat="43.95597" lon="1.88298">
        <ele>221.6</ele>
        <time>2023-07-23T05:08:17Z</time>
      </trkpt>
      <trkpt lat="43.95598" lon="1.883">
        <ele>221.8</ele>
        <time>2023-07-23T05:08:18Z</time>
      </trkpt>
      <trkpt lat="43.95599" lon="1.88301">
        <ele>221.8</ele>
        <time>2023-07-23T05:08:19Z</time>
      </trkpt>
      <trkpt lat="43.95601" lon="1.88303">
        <ele>222</ele>
        <time>2023-07-23T05:08:20Z</time>
      </trkpt>
      <trkpt lat="43.95602" lon="1.88305">
        <ele>222.2</ele>
        <time>2023-07-23T05:08:21Z</time>
      </trkpt>
      <trkpt lat="43.95603" lon="1.88306">
        <ele>222.2</ele>
        <time>2023-07-23T05:08:22Z</time>
      </trkpt>
      <trkpt lat="43.95604" lon="1.88307">
        <ele>222.4</ele>
        <time>2023-07-23T05:08:23Z</time>
      </trkpt>
      <trkpt lat="43.95605" lon="1.88309">
        <ele>222.6</ele>
        <time>2023-07-23T05:08:24Z</time>
      </trkpt>
      <trkpt lat="43.95606" lon="1.8831">
        <ele>222.6</ele>
        <time>2023-07-23T05:08:25Z</time>
      </trkpt>
      <trkpt lat="43.95607" lon="1.88312">
        <ele>222.8</ele>
        <time>2023-07-23T05:08:26Z</time>
      </trkpt>
      <trkpt lat="43.95608" lon="1.88314">
        <ele>222.8</ele>
        <time>2023-07-23T05:08:27Z</time>
      </trkpt>
      <trkpt lat="43.95609" lon="1.88315">
        <ele>223</ele>
        <time>2023-07-23T05:08:28Z</time>
      </trkpt>
      <trkpt lat="43.9561" lon="1.88317">
        <ele>223.2</ele>
        <time>2023-07-23T05:08:29Z</time>
      </trkpt>
      <trkpt lat="43.95612" lon="1.88319">
        <ele>223.2</ele>
        <time>2023-07-23T05:08:30Z</time>
      </trkpt>
      <trkpt lat="43.95613" lon="1.8832">
        <ele>223.4</ele>
        <time>2023-07-23T05:08:31Z</time>
      </trkpt>
      <trkpt lat="43.95614" lon="1.88322">
        <ele>223.4</ele>
        <time>2023-07-23T05:08:32Z</time>
      </trkpt>
      <trkpt lat="43.95615" lon="1.88324">
        <ele>223.4</ele>
        <time>2023-07-23T05:08:33Z</time>
      </trkpt>
      <trkpt lat="43.95616" lon="1.88326">
        <ele>223.6</ele>
        <time>2023-07-23T05:08:34Z</time>
      </trkpt>
      <trkpt lat="43.95617" lon="1.88328">
        <ele>223.8</ele>
        <time>2023-07-23T05:08:35Z</time>
      </trkpt>
      <trkpt lat="43.95618" lon="1.8833">
        <ele>223.8</ele>
        <time>2023-07-23T05:08:36Z</time>
      </trkpt>
      <trkpt lat="43.95619" lon="1.88332">
        <ele>224</ele>
        <time>2023-07-23T05:08:37Z</time>
      </trkpt>
      <trkpt lat="43.9562" lon="1.88334">
        <ele>224</ele>
        <time>2023-07-23T05:08:38Z</time>
      </trkpt>
      <trkpt lat="43.95621" lon="1.88336">
        <ele>224</ele>
        <time>2023-07-23T05:08:39Z</time>
      </trkpt>
      <trkpt lat="43.95621" lon="1.88337">
        <ele>224.2</ele>
        <time>2023-07-23T05:08:40Z</time>
      </trkpt>
      <trkpt lat="43.95622" lon="1.88339">
        <ele>224.2</ele>
        <time>2023-07-23T05:08:41Z</time>
      </trkpt>
      <trkpt lat="43.95624" lon="1.8834">
        <ele>224.4</ele>
        <time>2023-07-23T05:08:42Z</time>
      </trkpt>
      <trkpt lat="43.95624" lon="1.88342">
        <ele>224.4</ele>
        <time>2023-07-23T05:08:43Z</time>
      </trkpt>
      <trkpt lat="43.95626" lon="1.88343">
        <ele>224.6</ele>
        <time>2023-07-23T05:08:44Z</time>
      </trkpt>
      <trkpt lat="43.95627" lon="1.88345">
        <ele>224.8</ele>
        <time>2023-07-23T05:08:45Z</time>
      </trkpt>
      <trkpt lat="43.95628" lon="1.88347">
        <ele>224.8</ele>
        <time>2023-07-23T05:08:46Z</time>
      </trkpt>
      <trkpt lat="43.95629" lon="1.88349">
        <ele>225</ele>
        <time>2023-07-23T05:08:47Z</time>
      </trkpt>
      <trkpt lat="43.9563" lon="1.8835">
        <ele>225.2</ele>
        <time>2023-07-23T05:08:48Z</time>
      </trkpt>
      <trkpt lat="43.95631" lon="1.88352">
        <ele>225.2</ele>
        <time>2023-07-23T05:08:49Z</time>
      </trkpt>
      <trkpt lat="43.95633" lon="1.88354">
        <ele>225.2</ele>
        <time>2023-07-23T05:08:50Z</time>
      </trkpt>
      <trkpt lat="43.95633" lon="1.88355">
        <ele>225.4</ele>
        <time>2023-07-23T05:08:51Z</time>
      </trkpt>
      <trkpt lat="43.95634" lon="1.88357">
        <ele>225.4</ele>
        <time>2023-07-23T05:08:52Z</time>
      </trkpt>
      <trkpt lat="43.95636" lon="1.88359">
        <ele>225.6</ele>
        <time>2023-07-23T05:08:53Z</time>
      </trkpt>
      <trkpt lat="43.95637" lon="1.88361">
        <ele>225.6</ele>
        <time>2023-07-23T05:08:54Z</time>
      </trkpt>
      <trkpt lat="43.95638" lon="1.88363">
        <ele>225.8</ele>
        <time>2023-07-23T05:08:55Z</time>
      </trkpt>
      <trkpt lat="43.95639" lon="1.88365">
        <ele>225.8</ele>
        <time>2023-07-23T05:08:56Z</time>
      </trkpt>
      <trkpt lat="43.95641" lon="1.88367">
        <ele>226</ele>
        <time>2023-07-23T05:08:57Z</time>
      </trkpt>
      <trkpt lat="43.95642" lon="1.88369">
        <ele>226</ele>
        <time>2023-07-23T05:08:58Z</time>
      </trkpt>
      <trkpt lat="43.95643" lon="1.88371">
        <ele>226.2</ele>
        <time>2023-07-23T05:08:59Z</time>
      </trkpt>
      <trkpt lat="43.95644" lon="1.88373">
        <ele>226.2</ele>
        <time>2023-07-23T05:09:00Z</time>
      </trkpt>
      <trkpt lat="43.95645" lon="1.88375">
        <ele>226.4</ele>
        <time>2023-07-23T05:09:01Z</time>
      </trkpt>
      <trkpt lat="43.95646" lon="1.88377">
        <ele>226.4</ele>
        <time>2023-07-23T05:09:02Z</time>
      </trkpt>
      <trkpt lat="43.95647" lon="1.88379">
        <ele>226.6</ele>
        <time>2023-07-23T05:09:03Z</time>
      </trkpt>
      <trkpt lat="43.95648" lon="1.88381">
        <ele>226.6</ele>
        <time>2023-07-23T05:09:04Z</time>
      </trkpt>
      <trkpt lat="43.95649" lon="1.88383">
        <ele>226.8</ele>
        <time>2023-07-23T05:09:05Z</time>
      </trkpt>
      <trkpt lat="43.95651" lon="1.88385">
        <ele>226.8</ele>
        <time>2023-07-23T05:09:06Z</time>
      </trkpt>
      <trkpt lat="43.95652" lon="1.88386">
        <ele>227</ele>
        <time>2023-07-23T05:09:07Z</time>
      </trkpt>
      <trkpt lat="43.95653" lon="1.88388">
        <ele>227</ele>
        <time>2023-07-23T05:09:08Z</time>
      </trkpt>
      <trkpt lat="43.95655" lon="1.88389">
        <ele>227</ele>
        <time>2023-07-23T05:09:09Z</time>
      </trkpt>
      <trkpt lat="43.95656" lon="1.88391">
        <ele>227</ele>
        <time>2023-07-23T05:09:10Z</time>
      </trkpt>
      <trkpt lat="43.95658" lon="1.88392">
        <ele>227</ele>
        <time>2023-07-23T05:09:11Z</time>
      </trkpt>
      <trkpt lat="43.95659" lon="1.88394">
        <ele>227</ele>
        <time>2023-07-23T05:09:12Z</time>
      </trkpt>
      <trkpt lat="43.9566" lon="1.88396">
        <ele>227</ele>
        <time>2023-07-23T05:09:13Z</time>
      </trkpt>
      <trkpt lat="43.95662" lon="1.88399">
        <ele>227.2</ele>
        <time>2023-07-23T05:09:15Z</time>
      </trkpt>
      <trkpt lat="43.95664" lon="1.88401">
        <ele>227.6</ele>
        <time>2023-07-23T05:09:16Z</time>
      </trkpt>
      <trkpt lat="43.95676" lon="1.88409">
        <ele>228</ele>
        <time>2023-07-23T05:09:23Z</time>
      </trkpt>
      <trkpt lat="43.95687" lon="1.88415">
        <ele>228.6</ele>
        <time>2023-07-23T05:09:30Z</time>
      </trkpt>
      <trkpt lat="43.95694" lon="1.88418">
        <ele>228.6</ele>
        <time>2023-07-23T05:09:34Z</time>
      </trkpt>
      <trkpt lat="43.95708" lon="1.88421">
        <ele>229.4</ele>
        <time>2023-07-23T05:09:42Z</time>
      </trkpt>
      <trkpt lat="43.95714" lon="1.88422">
        <ele>229.8</ele>
        <time>2023-07-23T05:09:45Z</time>
      </trkpt>
      <trkpt lat="43.95728" lon="1.88422">
        <ele>230.4</ele>
        <time>2023-07-23T05:09:53Z</time>
      </trkpt>
      <trkpt lat="43.95729" lon="1.88422">
        <ele>230.4</ele>
        <time>2023-07-23T05:09:54Z</time>
      </trkpt>
      <trkpt lat="43.95731" lon="1.88422">
        <ele>230.6</ele>
        <time>2023-07-23T05:09:55Z</time>
      </trkpt>
      <trkpt lat="43.95737" lon="1.88422">
        <ele>231</ele>
        <time>2023-07-23T05:09:59Z</time>
      </trkpt>
      <trkpt lat="43.95739" lon="1.88422">
        <ele>231.2</ele>
        <time>2023-07-23T05:10:00Z</time>
      </trkpt>
      <trkpt lat="43.95743" lon="1.88422">
        <ele>231.4</ele>
        <time>2023-07-23T05:10:02Z</time>
      </trkpt>
      <trkpt lat="43.95746" lon="1.88422">
        <ele>231.8</ele>
        <time>2023-07-23T05:10:04Z</time>
      </trkpt>
      <trkpt lat="43.95747" lon="1.88421">
        <ele>232</ele>
        <time>2023-07-23T05:10:05Z</time>
      </trkpt>
      <trkpt lat="43.95751" lon="1.8842">
        <ele>232.4</ele>
        <time>2023-07-23T05:10:07Z</time>
      </trkpt>
      <trkpt lat="43.95752" lon="1.88419">
        <ele>232.4</ele>
        <time>2023-07-23T05:10:08Z</time>
      </trkpt>
      <trkpt lat="43.95754" lon="1.88419">
        <ele>232.8</ele>
        <time>2023-07-23T05:10:09Z</time>
      </trkpt>
      <trkpt lat="43.95756" lon="1.88418">
        <ele>232.8</ele>
        <time>2023-07-23T05:10:10Z</time>
      </trkpt>
      <trkpt lat="43.95757" lon="1.88417">
        <ele>233</ele>
        <time>2023-07-23T05:10:11Z</time>
      </trkpt>
      <trkpt lat="43.95759" lon="1.88417">
        <ele>233.2</ele>
        <time>2023-07-23T05:10:12Z</time>
      </trkpt>
      <trkpt lat="43.95761" lon="1.88416">
        <ele>233.2</ele>
        <time>2023-07-23T05:10:13Z</time>
      </trkpt>
      <trkpt lat="43.95763" lon="1.88415">
        <ele>233.4</ele>
        <time>2023-07-23T05:10:14Z</time>
      </trkpt>
      <trkpt lat="43.95765" lon="1.88415">
        <ele>233.4</ele>
        <time>2023-07-23T05:10:15Z</time>
      </trkpt>
      <trkpt lat="43.95767" lon="1.88414">
        <ele>233.6</ele>
        <time>2023-07-23T05:10:16Z</time>
      </trkpt>
      <trkpt lat="43.95768" lon="1.88414">
        <ele>233.8</ele>
        <time>2023-07-23T05:10:17Z</time>
      </trkpt>
      <trkpt lat="43.9577" lon="1.88413">
        <ele>234</ele>
        <time>2023-07-23T05:10:18Z</time>
      </trkpt>
      <trkpt lat="43.95772" lon="1.88413">
        <ele>234</ele>
        <time>2023-07-23T05:10:19Z</time>
      </trkpt>
      <trkpt lat="43.95773" lon="1.88412">
        <ele>234.2</ele>
        <time>2023-07-23T05:10:20Z</time>
      </trkpt>
      <trkpt lat="43.95775" lon="1.88412">
        <ele>234.6</ele>
        <time>2023-07-23T05:10:21Z</time>
      </trkpt>
      <trkpt lat="43.95777" lon="1.88411">
        <ele>234.6</ele>
        <time>2023-07-23T05:10:22Z</time>
      </trkpt>
      <trkpt lat="43.95779" lon="1.8841">
        <ele>234.6</ele>
        <time>2023-07-23T05:10:23Z</time>
      </trkpt>
      <trkpt lat="43.9578" lon="1.88409">
        <ele>234.8</ele>
        <time>2023-07-23T05:10:24Z</time>
      </trkpt>
      <trkpt lat="43.95782" lon="1.88409">
        <ele>234.8</ele>
        <time>2023-07-23T05:10:25Z</time>
      </trkpt>
      <trkpt lat="43.95784" lon="1.88408">
        <ele>234.8</ele>
        <time>2023-07-23T05:10:26Z</time>
      </trkpt>
      <trkpt lat="43.95785" lon="1.88407">
        <ele>235</ele>
        <time>2023-07-23T05:10:27Z</time>
      </trkpt>
      <trkpt lat="43.95787" lon="1.88406">
        <ele>235</ele>
        <time>2023-07-23T05:10:28Z</time>
      </trkpt>
      <trkpt lat="43.95789" lon="1.88405">
        <ele>235</ele>
        <time>2023-07-23T05:10:29Z</time>
      </trkpt>
      <trkpt lat="43.95791" lon="1.88404">
        <ele>235.2</ele>
        <time>2023-07-23T05:10:30Z</time>
      </trkpt>
      <trkpt lat="43.95792" lon="1.88404">
        <ele>235.2</ele>
        <time>2023-07-23T05:10:31Z</time>
      </trkpt>
      <trkpt lat="43.95794" lon="1.88403">
        <ele>235.4</ele>
        <time>2023-07-23T05:10:32Z</time>
      </trkpt>
      <trkpt lat="43.95795" lon="1.88403">
        <ele>235.4</ele>
        <time>2023-07-23T05:10:33Z</time>
      </trkpt>
      <trkpt lat="43.95797" lon="1.88402">
        <ele>235.6</ele>
        <time>2023-07-23T05:10:34Z</time>
      </trkpt>
      <trkpt lat="43.95799" lon="1.88401">
        <ele>235.6</ele>
        <time>2023-07-23T05:10:35Z</time>
      </trkpt>
      <trkpt lat="43.958" lon="1.884">
        <ele>235.6</ele>
        <time>2023-07-23T05:10:36Z</time>
      </trkpt>
      <trkpt lat="43.95802" lon="1.88399">
        <ele>235.8</ele>
        <time>2023-07-23T05:10:37Z</time>
      </trkpt>
      <trkpt lat="43.95804" lon="1.88398">
        <ele>235.8</ele>
        <time>2023-07-23T05:10:38Z</time>
      </trkpt>
      <trkpt lat="43.95805" lon="1.88397">
        <ele>236.2</ele>
        <time>2023-07-23T05:10:39Z</time>
      </trkpt>
      <trkpt lat="43.95807" lon="1.88397">
        <ele>236.2</ele>
        <time>2023-07-23T05:10:40Z</time>
      </trkpt>
      <trkpt lat="43.95809" lon="1.88396">
        <ele>236.4</ele>
        <time>2023-07-23T05:10:41Z</time>
      </trkpt>
      <trkpt lat="43.9581" lon="1.88395">
        <ele>236.6</ele>
        <time>2023-07-23T05:10:42Z</time>
      </trkpt>
      <trkpt lat="43.95812" lon="1.88394">
        <ele>236.8</ele>
        <time>2023-07-23T05:10:43Z</time>
      </trkpt>
      <trkpt lat="43.95813" lon="1.88394">
        <ele>236.6</ele>
        <time>2023-07-23T05:10:44Z</time>
      </trkpt>
      <trkpt lat="43.95814" lon="1.88393">
        <ele>236.8</ele>
        <time>2023-07-23T05:10:45Z</time>
      </trkpt>
      <trkpt lat="43.95815" lon="1.88392">
        <ele>237</ele>
        <time>2023-07-23T05:10:46Z</time>
      </trkpt>
      <trkpt lat="43.95817" lon="1.88392">
        <ele>237</ele>
        <time>2023-07-23T05:10:47Z</time>
      </trkpt>
      <trkpt lat="43.95818" lon="1.88392">
        <ele>237</ele>
        <time>2023-07-23T05:10:48Z</time>
      </trkpt>
      <trkpt lat="43.9582" lon="1.88391">
        <ele>237.2</ele>
        <time>2023-07-23T05:10:49Z</time>
      </trkpt>
      <trkpt lat="43.95821" lon="1.88391">
        <ele>237.2</ele>
        <time>2023-07-23T05:10:50Z</time>
      </trkpt>
      <trkpt lat="43.95822" lon="1.8839">
        <ele>237.4</ele>
        <time>2023-07-23T05:10:51Z</time>
      </trkpt>
      <trkpt lat="43.95824" lon="1.8839">
        <ele>237.6</ele>
        <time>2023-07-23T05:10:52Z</time>
      </trkpt>
      <trkpt lat="43.95825" lon="1.88391">
        <ele>237.8</ele>
        <time>2023-07-23T05:10:53Z</time>
      </trkpt>
      <trkpt lat="43.95827" lon="1.88391">
        <ele>237.8</ele>
        <time>2023-07-23T05:10:54Z</time>
      </trkpt>
      <trkpt lat="43.95829" lon="1.88391">
        <ele>238</ele>
        <time>2023-07-23T05:10:55Z</time>
      </trkpt>
      <trkpt lat="43.9583" lon="1.88391">
        <ele>238.2</ele>
        <time>2023-07-23T05:10:56Z</time>
      </trkpt>
      <trkpt lat="43.95832" lon="1.88391">
        <ele>238.4</ele>
        <time>2023-07-23T05:10:57Z</time>
      </trkpt>
      <trkpt lat="43.95833" lon="1.88391">
        <ele>238.6</ele>
        <time>2023-07-23T05:10:58Z</time>
      </trkpt>
      <trkpt lat="43.95835" lon="1.88391">
        <ele>238.6</ele>
        <time>2023-07-23T05:10:59Z</time>
      </trkpt>
      <trkpt lat="43.95836" lon="1.88391">
        <ele>238.8</ele>
        <time>2023-07-23T05:11:00Z</time>
      </trkpt>
      <trkpt lat="43.95837" lon="1.8839">
        <ele>239</ele>
        <time>2023-07-23T05:11:01Z</time>
      </trkpt>
      <trkpt lat="43.95838" lon="1.88388">
        <ele>239.2</ele>
        <time>2023-07-23T05:11:02Z</time>
      </trkpt>
      <trkpt lat="43.95839" lon="1.88386">
        <ele>239.2</ele>
        <time>2023-07-23T05:11:03Z</time>
      </trkpt>
      <trkpt lat="43.95839" lon="1.88384">
        <ele>239.2</ele>
        <time>2023-07-23T05:11:04Z</time>
      </trkpt>
      <trkpt lat="43.9584" lon="1.88382">
        <ele>239.4</ele>
        <time>2023-07-23T05:11:05Z</time>
      </trkpt>
      <trkpt lat="43.9584" lon="1.8838">
        <ele>239.4</ele>
        <time>2023-07-23T05:11:06Z</time>
      </trkpt>
      <trkpt lat="43.95841" lon="1.88379">
        <ele>239.4</ele>
        <time>2023-07-23T05:11:07Z</time>
      </trkpt>
      <trkpt lat="43.95842" lon="1.88377">
        <ele>239.6</ele>
        <time>2023-07-23T05:11:08Z</time>
      </trkpt>
      <trkpt lat="43.95843" lon="1.88375">
        <ele>239.8</ele>
        <time>2023-07-23T05:11:09Z</time>
      </trkpt>
      <trkpt lat="43.95843" lon="1.88373">
        <ele>240</ele>
        <time>2023-07-23T05:11:10Z</time>
      </trkpt>
      <trkpt lat="43.95844" lon="1.88371">
        <ele>240</ele>
        <time>2023-07-23T05:11:11Z</time>
      </trkpt>
      <trkpt lat="43.95845" lon="1.88369">
        <ele>240</ele>
        <time>2023-07-23T05:11:12Z</time>
      </trkpt>
      <trkpt lat="43.95845" lon="1.88367">
        <ele>240.2</ele>
        <time>2023-07-23T05:11:13Z</time>
      </trkpt>
      <trkpt lat="43.95846" lon="1.88365">
        <ele>240.2</ele>
        <time>2023-07-23T05:11:14Z</time>
      </trkpt>
      <trkpt lat="43.95846" lon="1.88364">
        <ele>240.2</ele>
        <time>2023-07-23T05:11:15Z</time>
      </trkpt>
      <trkpt lat="43.95847" lon="1.88362">
        <ele>240.4</ele>
        <time>2023-07-23T05:11:16Z</time>
      </trkpt>
      <trkpt lat="43.95847" lon="1.8836">
        <ele>240.4</ele>
        <time>2023-07-23T05:11:17Z</time>
      </trkpt>
      <trkpt lat="43.95848" lon="1.88358">
        <ele>240.2</ele>
        <time>2023-07-23T05:11:18Z</time>
      </trkpt>
      <trkpt lat="43.95848" lon="1.88355">
        <ele>240.4</ele>
        <time>2023-07-23T05:11:19Z</time>
      </trkpt>
      <trkpt lat="43.95848" lon="1.88353">
        <ele>240.4</ele>
        <time>2023-07-23T05:11:20Z</time>
      </trkpt>
      <trkpt lat="43.95849" lon="1.88351">
        <ele>240.4</ele>
        <time>2023-07-23T05:11:21Z</time>
      </trkpt>
      <trkpt lat="43.95849" lon="1.88349">
        <ele>240.6</ele>
        <time>2023-07-23T05:11:22Z</time>
      </trkpt>
      <trkpt lat="43.9585" lon="1.88347">
        <ele>240.6</ele>
        <time>2023-07-23T05:11:23Z</time>
      </trkpt>
      <trkpt lat="43.9585" lon="1.88345">
        <ele>240.8</ele>
        <time>2023-07-23T05:11:24Z</time>
      </trkpt>
      <trkpt lat="43.95851" lon="1.88343">
        <ele>241</ele>
        <time>2023-07-23T05:11:25Z</time>
      </trkpt>
      <trkpt lat="43.95852" lon="1.88342">
        <ele>241</ele>
        <time>2023-07-23T05:11:26Z</time>
      </trkpt>
      <trkpt lat="43.95853" lon="1.88341">
        <ele>241.4</ele>
        <time>2023-07-23T05:11:27Z</time>
      </trkpt>
      <trkpt lat="43.95855" lon="1.88341">
        <ele>241.6</ele>
        <time>2023-07-23T05:11:28Z</time>
      </trkpt>
      <trkpt lat="43.9586" lon="1.88342">
        <ele>241.8</ele>
        <time>2023-07-23T05:11:31Z</time>
      </trkpt>
      <trkpt lat="43.95862" lon="1.88342">
        <ele>242</ele>
        <time>2023-07-23T05:11:32Z</time>
      </trkpt>
      <trkpt lat="43.95864" lon="1.88342">
        <ele>242</ele>
        <time>2023-07-23T05:11:33Z</time>
      </trkpt>
      <trkpt lat="43.95865" lon="1.88342">
        <ele>242</ele>
        <time>2023-07-23T05:11:34Z</time>
      </trkpt>
      <trkpt lat="43.95867" lon="1.88343">
        <ele>242</ele>
        <time>2023-07-23T05:11:35Z</time>
      </trkpt>
      <trkpt lat="43.95869" lon="1.88343">
        <ele>242</ele>
        <time>2023-07-23T05:11:36Z</time>
      </trkpt>
      <trkpt lat="43.95871" lon="1.88343">
        <ele>242</ele>
        <time>2023-07-23T05:11:37Z</time>
      </trkpt>
      <trkpt lat="43.95872" lon="1.88343">
        <ele>242.2</ele>
        <time>2023-07-23T05:11:38Z</time>
      </trkpt>
      <trkpt lat="43.95874" lon="1.88344">
        <ele>242.2</ele>
        <time>2023-07-23T05:11:39Z</time>
      </trkpt>
      <trkpt lat="43.95876" lon="1.88344">
        <ele>242.2</ele>
        <time>2023-07-23T05:11:40Z</time>
      </trkpt>
      <trkpt lat="43.95878" lon="1.88345">
        <ele>242</ele>
        <time>2023-07-23T05:11:41Z</time>
      </trkpt>
      <trkpt lat="43.95885" lon="1.88346">
        <ele>242.2</ele>
        <time>2023-07-23T05:11:45Z</time>
      </trkpt>
      <trkpt lat="43.95891" lon="1.88347">
        <ele>242.2</ele>
        <time>2023-07-23T05:11:48Z</time>
      </trkpt>
      <trkpt lat="43.95911" lon="1.88352">
        <ele>242.6</ele>
        <time>2023-07-23T05:11:58Z</time>
      </trkpt>
      <trkpt lat="43.95913" lon="1.88353">
        <ele>242.6</ele>
        <time>2023-07-23T05:11:59Z</time>
      </trkpt>
      <trkpt lat="43.95913" lon="1.88355">
        <ele>242.6</ele>
        <time>2023-07-23T05:12:00Z</time>
      </trkpt>
      <trkpt lat="43.95913" lon="1.88357">
        <ele>242.8</ele>
        <time>2023-07-23T05:12:01Z</time>
      </trkpt>
      <trkpt lat="43.95912" lon="1.88359">
        <ele>242.8</ele>
        <time>2023-07-23T05:12:02Z</time>
      </trkpt>
      <trkpt lat="43.95911" lon="1.88362">
        <ele>243</ele>
        <time>2023-07-23T05:12:03Z</time>
      </trkpt>
      <trkpt lat="43.95911" lon="1.88364">
        <ele>243</ele>
        <time>2023-07-23T05:12:04Z</time>
      </trkpt>
      <trkpt lat="43.9591" lon="1.88367">
        <ele>243</ele>
        <time>2023-07-23T05:12:05Z</time>
      </trkpt>
      <trkpt lat="43.95909" lon="1.8837">
        <ele>243.2</ele>
        <time>2023-07-23T05:12:06Z</time>
      </trkpt>
      <trkpt lat="43.95909" lon="1.88373">
        <ele>243.2</ele>
        <time>2023-07-23T05:12:07Z</time>
      </trkpt>
      <trkpt lat="43.95906" lon="1.88385">
        <ele>243.2</ele>
        <time>2023-07-23T05:12:11Z</time>
      </trkpt>
      <trkpt lat="43.95895" lon="1.88414">
        <ele>243</ele>
        <time>2023-07-23T05:12:21Z</time>
      </trkpt>
      <trkpt lat="43.95874" lon="1.88437">
        <ele>243.2</ele>
        <time>2023-07-23T05:12:31Z</time>
      </trkpt>
      <trkpt lat="43.9586" lon="1.8845">
        <ele>243.6</ele>
        <time>2023-07-23T05:12:37Z</time>
      </trkpt>
      <trkpt lat="43.95856" lon="1.88454">
        <ele>243.6</ele>
        <time>2023-07-23T05:12:39Z</time>
      </trkpt>
      <trkpt lat="43.95846" lon="1.88464">
        <ele>244.2</ele>
        <time>2023-07-23T05:12:44Z</time>
      </trkpt>
      <trkpt lat="43.95844" lon="1.88466">
        <ele>244.2</ele>
        <time>2023-07-23T05:12:45Z</time>
      </trkpt>
      <trkpt lat="43.95842" lon="1.88468">
        <ele>244.2</ele>
        <time>2023-07-23T05:12:46Z</time>
      </trkpt>
      <trkpt lat="43.9584" lon="1.88471">
        <ele>244.6</ele>
        <time>2023-07-23T05:12:47Z</time>
      </trkpt>
      <trkpt lat="43.95823" lon="1.88495">
        <ele>245.6</ele>
        <time>2023-07-23T05:12:55Z</time>
      </trkpt>
      <trkpt lat="43.95821" lon="1.88498">
        <ele>245.8</ele>
        <time>2023-07-23T05:12:56Z</time>
      </trkpt>
      <trkpt lat="43.95799" lon="1.88541">
        <ele>245.8</ele>
        <time>2023-07-23T05:13:07Z</time>
      </trkpt>
      <trkpt lat="43.95786" lon="1.8856">
        <ele>245.2</ele>
        <time>2023-07-23T05:13:11Z</time>
      </trkpt>
      <trkpt lat="43.95777" lon="1.88569">
        <ele>244.8</ele>
        <time>2023-07-23T05:13:13Z</time>
      </trkpt>
      <trkpt lat="43.95771" lon="1.88573">
        <ele>244.8</ele>
        <time>2023-07-23T05:13:14Z</time>
      </trkpt>
      <trkpt lat="43.95749" lon="1.88586">
        <ele>244.4</ele>
        <time>2023-07-23T05:13:18Z</time>
      </trkpt>
      <trkpt lat="43.95743" lon="1.88589">
        <ele>244</ele>
        <time>2023-07-23T05:13:19Z</time>
      </trkpt>
      <trkpt lat="43.95732" lon="1.88597">
        <ele>243.4</ele>
        <time>2023-07-23T05:13:21Z</time>
      </trkpt>
      <trkpt lat="43.95728" lon="1.88602">
        <ele>243.4</ele>
        <time>2023-07-23T05:13:22Z</time>
      </trkpt>
      <trkpt lat="43.95723" lon="1.88607">
        <ele>243.2</ele>
        <time>2023-07-23T05:13:23Z</time>
      </trkpt>
      <trkpt lat="43.95719" lon="1.88612">
        <ele>242.6</ele>
        <time>2023-07-23T05:13:24Z</time>
      </trkpt>
      <trkpt lat="43.95715" lon="1.88617">
        <ele>242.4</ele>
        <time>2023-07-23T05:13:25Z</time>
      </trkpt>
      <trkpt lat="43.95712" lon="1.88624">
        <ele>242</ele>
        <time>2023-07-23T05:13:26Z</time>
      </trkpt>
      <trkpt lat="43.9571" lon="1.88631">
        <ele>242</ele>
        <time>2023-07-23T05:13:27Z</time>
      </trkpt>
      <trkpt lat="43.95709" lon="1.88639">
        <ele>241.8</ele>
        <time>2023-07-23T05:13:28Z</time>
      </trkpt>
      <trkpt lat="43.9571" lon="1.88648">
        <ele>241.6</ele>
        <time>2023-07-23T05:13:29Z</time>
      </trkpt>
      <trkpt lat="43.95711" lon="1.88652">
        <ele>241.6</ele>
        <time>2023-07-23T05:13:30Z</time>
      </trkpt>
      <trkpt lat="43.95714" lon="1.88657">
        <ele>241.2</ele>
        <time>2023-07-23T05:13:31Z</time>
      </trkpt>
      <trkpt lat="43.95718" lon="1.88662">
        <ele>241.2</ele>
        <time>2023-07-23T05:13:32Z</time>
      </trkpt>
      <trkpt lat="43.95722" lon="1.88665">
        <ele>240.8</ele>
        <time>2023-07-23T05:13:33Z</time>
      </trkpt>
      <trkpt lat="43.95726" lon="1.88669">
        <ele>240.6</ele>
        <time>2023-07-23T05:13:34Z</time>
      </trkpt>
      <trkpt lat="43.9573" lon="1.88672">
        <ele>240.2</ele>
        <time>2023-07-23T05:13:35Z</time>
      </trkpt>
      <trkpt lat="43.95745" lon="1.88683">
        <ele>239.8</ele>
        <time>2023-07-23T05:13:38Z</time>
      </trkpt>
      <trkpt lat="43.9576" lon="1.88695">
        <ele>238.6</ele>
        <time>2023-07-23T05:13:41Z</time>
      </trkpt>
      <trkpt lat="43.95774" lon="1.88707">
        <ele>237.4</ele>
        <time>2023-07-23T05:13:44Z</time>
      </trkpt>
      <trkpt lat="43.95778" lon="1.88714">
        <ele>237</ele>
        <time>2023-07-23T05:13:45Z</time>
      </trkpt>
      <trkpt lat="43.95783" lon="1.88722">
        <ele>236.4</ele>
        <time>2023-07-23T05:13:46Z</time>
      </trkpt>
      <trkpt lat="43.95787" lon="1.88733">
        <ele>236</ele>
        <time>2023-07-23T05:13:47Z</time>
      </trkpt>
      <trkpt lat="43.95789" lon="1.88742">
        <ele>236</ele>
        <time>2023-07-23T05:13:48Z</time>
      </trkpt>
      <trkpt lat="43.95791" lon="1.88752">
        <ele>235.2</ele>
        <time>2023-07-23T05:13:49Z</time>
      </trkpt>
      <trkpt lat="43.9579" lon="1.88763">
        <ele>234.6</ele>
        <time>2023-07-23T05:13:50Z</time>
      </trkpt>
      <trkpt lat="43.95789" lon="1.88773">
        <ele>234</ele>
        <time>2023-07-23T05:13:51Z</time>
      </trkpt>
      <trkpt lat="43.95786" lon="1.88781">
        <ele>233.6</ele>
        <time>2023-07-23T05:13:52Z</time>
      </trkpt>
      <trkpt lat="43.95783" lon="1.8879">
        <ele>233</ele>
        <time>2023-07-23T05:13:53Z</time>
      </trkpt>
      <trkpt lat="43.95779" lon="1.88798">
        <ele>232.8</ele>
        <time>2023-07-23T05:13:54Z</time>
      </trkpt>
      <trkpt lat="43.95776" lon="1.88806">
        <ele>232.2</ele>
        <time>2023-07-23T05:13:55Z</time>
      </trkpt>
      <trkpt lat="43.9577" lon="1.88824">
        <ele>231.4</ele>
        <time>2023-07-23T05:13:57Z</time>
      </trkpt>
      <trkpt lat="43.95767" lon="1.88834">
        <ele>230.4</ele>
        <time>2023-07-23T05:13:58Z</time>
      </trkpt>
      <trkpt lat="43.95762" lon="1.88868">
        <ele>229</ele>
        <time>2023-07-23T05:14:01Z</time>
      </trkpt>
      <trkpt lat="43.9576" lon="1.88878">
        <ele>228.4</ele>
        <time>2023-07-23T05:14:02Z</time>
      </trkpt>
      <trkpt lat="43.95758" lon="1.88888">
        <ele>227.2</ele>
        <time>2023-07-23T05:14:03Z</time>
      </trkpt>
      <trkpt lat="43.95756" lon="1.88897">
        <ele>226.6</ele>
        <time>2023-07-23T05:14:04Z</time>
      </trkpt>
      <trkpt lat="43.95753" lon="1.88906">
        <ele>226</ele>
        <time>2023-07-23T05:14:05Z</time>
      </trkpt>
      <trkpt lat="43.95751" lon="1.88914">
        <ele>225.8</ele>
        <time>2023-07-23T05:14:06Z</time>
      </trkpt>
      <trkpt lat="43.9575" lon="1.88923">
        <ele>224.8</ele>
        <time>2023-07-23T05:14:07Z</time>
      </trkpt>
      <trkpt lat="43.9575" lon="1.88931">
        <ele>224</ele>
        <time>2023-07-23T05:14:08Z</time>
      </trkpt>
      <trkpt lat="43.95749" lon="1.8894">
        <ele>223</ele>
        <time>2023-07-23T05:14:09Z</time>
      </trkpt>
      <trkpt lat="43.95751" lon="1.88951">
        <ele>222.2</ele>
        <time>2023-07-23T05:14:10Z</time>
      </trkpt>
      <trkpt lat="43.95752" lon="1.88958">
        <ele>221.4</ele>
        <time>2023-07-23T05:14:11Z</time>
      </trkpt>
      <trkpt lat="43.95755" lon="1.88968">
        <ele>220.2</ele>
        <time>2023-07-23T05:14:12Z</time>
      </trkpt>
      <trkpt lat="43.95758" lon="1.88977">
        <ele>219.6</ele>
        <time>2023-07-23T05:14:13Z</time>
      </trkpt>
      <trkpt lat="43.95761" lon="1.88987">
        <ele>218.2</ele>
        <time>2023-07-23T05:14:14Z</time>
      </trkpt>
      <trkpt lat="43.95766" lon="1.89004">
        <ele>217</ele>
        <time>2023-07-23T05:14:16Z</time>
      </trkpt>
      <trkpt lat="43.95768" lon="1.89013">
        <ele>216.6</ele>
        <time>2023-07-23T05:14:17Z</time>
      </trkpt>
      <trkpt lat="43.9577" lon="1.8902">
        <ele>216</ele>
        <time>2023-07-23T05:14:18Z</time>
      </trkpt>
      <trkpt lat="43.95773" lon="1.89026">
        <ele>215.8</ele>
        <time>2023-07-23T05:14:19Z</time>
      </trkpt>
      <trkpt lat="43.95777" lon="1.8903">
        <ele>215.8</ele>
        <time>2023-07-23T05:14:20Z</time>
      </trkpt>
      <trkpt lat="43.95782" lon="1.89031">
        <ele>215.6</ele>
        <time>2023-07-23T05:14:21Z</time>
      </trkpt>
      <trkpt lat="43.95786" lon="1.8903">
        <ele>215.6</ele>
        <time>2023-07-23T05:14:22Z</time>
      </trkpt>
      <trkpt lat="43.95789" lon="1.89029">
        <ele>215.6</ele>
        <time>2023-07-23T05:14:23Z</time>
      </trkpt>
      <trkpt lat="43.95792" lon="1.89028">
        <ele>215.6</ele>
        <time>2023-07-23T05:14:24Z</time>
      </trkpt>
      <trkpt lat="43.95794" lon="1.89027">
        <ele>215.4</ele>
        <time>2023-07-23T05:14:25Z</time>
      </trkpt>
      <trkpt lat="43.95796" lon="1.89026">
        <ele>215.6</ele>
        <time>2023-07-23T05:14:26Z</time>
      </trkpt>
      <trkpt lat="43.95799" lon="1.89025">
        <ele>215.6</ele>
        <time>2023-07-23T05:14:27Z</time>
      </trkpt>
      <trkpt lat="43.95801" lon="1.89023">
        <ele>215.8</ele>
        <time>2023-07-23T05:14:28Z</time>
      </trkpt>
      <trkpt lat="43.95803" lon="1.89023">
        <ele>215.8</ele>
        <time>2023-07-23T05:14:29Z</time>
      </trkpt>
      <trkpt lat="43.95805" lon="1.89022">
        <ele>216</ele>
        <time>2023-07-23T05:14:30Z</time>
      </trkpt>
      <trkpt lat="43.95811" lon="1.89021">
        <ele>216.2</ele>
        <time>2023-07-23T05:14:32Z</time>
      </trkpt>
      <trkpt lat="43.95838" lon="1.89017">
        <ele>216.6</ele>
        <time>2023-07-23T05:14:41Z</time>
      </trkpt>
      <trkpt lat="43.9585" lon="1.89012">
        <ele>216.8</ele>
        <time>2023-07-23T05:14:45Z</time>
      </trkpt>
      <trkpt lat="43.95853" lon="1.8901">
        <ele>217</ele>
        <time>2023-07-23T05:14:46Z</time>
      </trkpt>
      <trkpt lat="43.95855" lon="1.89007">
        <ele>217</ele>
        <time>2023-07-23T05:14:47Z</time>
      </trkpt>
      <trkpt lat="43.95858" lon="1.89004">
        <ele>217.2</ele>
        <time>2023-07-23T05:14:48Z</time>
      </trkpt>
      <trkpt lat="43.95868" lon="1.88994">
        <ele>217.6</ele>
        <time>2023-07-23T05:14:52Z</time>
      </trkpt>
      <trkpt lat="43.9587" lon="1.88992">
        <ele>217.8</ele>
        <time>2023-07-23T05:14:53Z</time>
      </trkpt>
      <trkpt lat="43.95872" lon="1.8899">
        <ele>217.8</ele>
        <time>2023-07-23T05:14:54Z</time>
      </trkpt>
      <trkpt lat="43.95875" lon="1.88987">
        <ele>218</ele>
        <time>2023-07-23T05:14:55Z</time>
      </trkpt>
      <trkpt lat="43.9588" lon="1.88983">
        <ele>218.2</ele>
        <time>2023-07-23T05:14:57Z</time>
      </trkpt>
      <trkpt lat="43.95883" lon="1.88981">
        <ele>218.4</ele>
        <time>2023-07-23T05:14:58Z</time>
      </trkpt>
      <trkpt lat="43.95885" lon="1.88978">
        <ele>218.4</ele>
        <time>2023-07-23T05:14:59Z</time>
      </trkpt>
      <trkpt lat="43.95892" lon="1.88971">
        <ele>218.6</ele>
        <time>2023-07-23T05:15:02Z</time>
      </trkpt>
      <trkpt lat="43.95898" lon="1.88965">
        <ele>218.8</ele>
        <time>2023-07-23T05:15:05Z</time>
      </trkpt>
      <trkpt lat="43.959" lon="1.88964">
        <ele>218.8</ele>
        <time>2023-07-23T05:15:06Z</time>
      </trkpt>
      <trkpt lat="43.95902" lon="1.88962">
        <ele>219</ele>
        <time>2023-07-23T05:15:07Z</time>
      </trkpt>
      <trkpt lat="43.95904" lon="1.8896">
        <ele>219.2</ele>
        <time>2023-07-23T05:15:08Z</time>
      </trkpt>
      <trkpt lat="43.95906" lon="1.88957">
        <ele>219.2</ele>
        <time>2023-07-23T05:15:09Z</time>
      </trkpt>
      <trkpt lat="43.95909" lon="1.88955">
        <ele>219.4</ele>
        <time>2023-07-23T05:15:10Z</time>
      </trkpt>
      <trkpt lat="43.95911" lon="1.88953">
        <ele>219.6</ele>
        <time>2023-07-23T05:15:11Z</time>
      </trkpt>
      <trkpt lat="43.95913" lon="1.8895">
        <ele>219.6</ele>
        <time>2023-07-23T05:15:12Z</time>
      </trkpt>
      <trkpt lat="43.95915" lon="1.88948">
        <ele>219.8</ele>
        <time>2023-07-23T05:15:13Z</time>
      </trkpt>
      <trkpt lat="43.95917" lon="1.88946">
        <ele>219.8</ele>
        <time>2023-07-23T05:15:14Z</time>
      </trkpt>
      <trkpt lat="43.95919" lon="1.88943">
        <ele>220</ele>
        <time>2023-07-23T05:15:15Z</time>
      </trkpt>
      <trkpt lat="43.95922" lon="1.88939">
        <ele>220.2</ele>
        <time>2023-07-23T05:15:17Z</time>
      </trkpt>
      <trkpt lat="43.95924" lon="1.88937">
        <ele>220.4</ele>
        <time>2023-07-23T05:15:18Z</time>
      </trkpt>
      <trkpt lat="43.95926" lon="1.88935">
        <ele>220.4</ele>
        <time>2023-07-23T05:15:19Z</time>
      </trkpt>
      <trkpt lat="43.95928" lon="1.88932">
        <ele>220.6</ele>
        <time>2023-07-23T05:15:20Z</time>
      </trkpt>
      <trkpt lat="43.9593" lon="1.88929">
        <ele>220.6</ele>
        <time>2023-07-23T05:15:21Z</time>
      </trkpt>
      <trkpt lat="43.95931" lon="1.88927">
        <ele>220.8</ele>
        <time>2023-07-23T05:15:22Z</time>
      </trkpt>
      <trkpt lat="43.95933" lon="1.88925">
        <ele>221</ele>
        <time>2023-07-23T05:15:23Z</time>
      </trkpt>
      <trkpt lat="43.95935" lon="1.88922">
        <ele>221</ele>
        <time>2023-07-23T05:15:24Z</time>
      </trkpt>
      <trkpt lat="43.95937" lon="1.8892">
        <ele>221</ele>
        <time>2023-07-23T05:15:25Z</time>
      </trkpt>
      <trkpt lat="43.95939" lon="1.88918">
        <ele>221</ele>
        <time>2023-07-23T05:15:26Z</time>
      </trkpt>
      <trkpt lat="43.95941" lon="1.88915">
        <ele>221.2</ele>
        <time>2023-07-23T05:15:27Z</time>
      </trkpt>
      <trkpt lat="43.95943" lon="1.88913">
        <ele>221.2</ele>
        <time>2023-07-23T05:15:28Z</time>
      </trkpt>
      <trkpt lat="43.95944" lon="1.8891">
        <ele>221.4</ele>
        <time>2023-07-23T05:15:29Z</time>
      </trkpt>
      <trkpt lat="43.95946" lon="1.88907">
        <ele>221.4</ele>
        <time>2023-07-23T05:15:30Z</time>
      </trkpt>
      <trkpt lat="43.95948" lon="1.88905">
        <ele>221.4</ele>
        <time>2023-07-23T05:15:31Z</time>
      </trkpt>
      <trkpt lat="43.9595" lon="1.88902">
        <ele>221.4</ele>
        <time>2023-07-23T05:15:32Z</time>
      </trkpt>
      <trkpt lat="43.95952" lon="1.88899">
        <ele>221.6</ele>
        <time>2023-07-23T05:15:33Z</time>
      </trkpt>
      <trkpt lat="43.95954" lon="1.88897">
        <ele>221.6</ele>
        <time>2023-07-23T05:15:34Z</time>
      </trkpt>
      <trkpt lat="43.95956" lon="1.88894">
        <ele>221.6</ele>
        <time>2023-07-23T05:15:35Z</time>
      </trkpt>
      <trkpt lat="43.95964" lon="1.88884">
        <ele>222</ele>
        <time>2023-07-23T05:15:39Z</time>
      </trkpt>
      <trkpt lat="43.95975" lon="1.88869">
        <ele>222.4</ele>
        <time>2023-07-23T05:15:45Z</time>
      </trkpt>
      <trkpt lat="43.95982" lon="1.88861">
        <ele>223</ele>
        <time>2023-07-23T05:15:49Z</time>
      </trkpt>
      <trkpt lat="43.95983" lon="1.88859">
        <ele>223.2</ele>
        <time>2023-07-23T05:15:50Z</time>
      </trkpt>
      <trkpt lat="43.95985" lon="1.88857">
        <ele>223.2</ele>
        <time>2023-07-23T05:15:51Z</time>
      </trkpt>
      <trkpt lat="43.95987" lon="1.88856">
        <ele>223.4</ele>
        <time>2023-07-23T05:15:52Z</time>
      </trkpt>
      <trkpt lat="43.95988" lon="1.88854">
        <ele>223.4</ele>
        <time>2023-07-23T05:15:53Z</time>
      </trkpt>
      <trkpt lat="43.9599" lon="1.88853">
        <ele>223.6</ele>
        <time>2023-07-23T05:15:54Z</time>
      </trkpt>
      <trkpt lat="43.95992" lon="1.88851">
        <ele>223.8</ele>
        <time>2023-07-23T05:15:55Z</time>
      </trkpt>
      <trkpt lat="43.95994" lon="1.8885">
        <ele>223.8</ele>
        <time>2023-07-23T05:15:56Z</time>
      </trkpt>
      <trkpt lat="43.95995" lon="1.88849">
        <ele>224</ele>
        <time>2023-07-23T05:15:57Z</time>
      </trkpt>
      <trkpt lat="43.95997" lon="1.88848">
        <ele>224</ele>
        <time>2023-07-23T05:15:58Z</time>
      </trkpt>
      <trkpt lat="43.95998" lon="1.88848">
        <ele>224.2</ele>
        <time>2023-07-23T05:15:59Z</time>
      </trkpt>
      <trkpt lat="43.96" lon="1.88847">
        <ele>224.4</ele>
        <time>2023-07-23T05:16:00Z</time>
      </trkpt>
      <trkpt lat="43.96002" lon="1.88847">
        <ele>224.6</ele>
        <time>2023-07-23T05:16:01Z</time>
      </trkpt>
      <trkpt lat="43.96004" lon="1.88846">
        <ele>224.6</ele>
        <time>2023-07-23T05:16:02Z</time>
      </trkpt>
      <trkpt lat="43.96006" lon="1.88846">
        <ele>224.6</ele>
        <time>2023-07-23T05:16:03Z</time>
      </trkpt>
      <trkpt lat="43.96007" lon="1.88845">
        <ele>224.8</ele>
        <time>2023-07-23T05:16:04Z</time>
      </trkpt>
      <trkpt lat="43.96009" lon="1.88844">
        <ele>225</ele>
        <time>2023-07-23T05:16:05Z</time>
      </trkpt>
      <trkpt lat="43.9601" lon="1.88844">
        <ele>225.4</ele>
        <time>2023-07-23T05:16:06Z</time>
      </trkpt>
      <trkpt lat="43.96012" lon="1.88843">
        <ele>225.4</ele>
        <time>2023-07-23T05:16:07Z</time>
      </trkpt>
      <trkpt lat="43.96014" lon="1.88842">
        <ele>225.6</ele>
        <time>2023-07-23T05:16:08Z</time>
      </trkpt>
      <trkpt lat="43.96016" lon="1.88841">
        <ele>225.8</ele>
        <time>2023-07-23T05:16:09Z</time>
      </trkpt>
      <trkpt lat="43.96017" lon="1.8884">
        <ele>226</ele>
        <time>2023-07-23T05:16:10Z</time>
      </trkpt>
      <trkpt lat="43.96019" lon="1.88839">
        <ele>226.2</ele>
        <time>2023-07-23T05:16:11Z</time>
      </trkpt>
      <trkpt lat="43.96021" lon="1.88839">
        <ele>226.4</ele>
        <time>2023-07-23T05:16:12Z</time>
      </trkpt>
      <trkpt lat="43.96023" lon="1.88838">
        <ele>226.6</ele>
        <time>2023-07-23T05:16:13Z</time>
      </trkpt>
      <trkpt lat="43.96024" lon="1.88836">
        <ele>226.6</ele>
        <time>2023-07-23T05:16:14Z</time>
      </trkpt>
      <trkpt lat="43.96026" lon="1.88836">
        <ele>226.8</ele>
        <time>2023-07-23T05:16:15Z</time>
      </trkpt>
      <trkpt lat="43.96028" lon="1.88834">
        <ele>227</ele>
        <time>2023-07-23T05:16:16Z</time>
      </trkpt>
      <trkpt lat="43.96029" lon="1.88833">
        <ele>227</ele>
        <time>2023-07-23T05:16:17Z</time>
      </trkpt>
      <trkpt lat="43.96031" lon="1.88833">
        <ele>227.4</ele>
        <time>2023-07-23T05:16:18Z</time>
      </trkpt>
      <trkpt lat="43.96033" lon="1.88832">
        <ele>227.6</ele>
        <time>2023-07-23T05:16:19Z</time>
      </trkpt>
      <trkpt lat="43.96034" lon="1.88831">
        <ele>228</ele>
        <time>2023-07-23T05:16:20Z</time>
      </trkpt>
      <trkpt lat="43.96036" lon="1.8883">
        <ele>228.2</ele>
        <time>2023-07-23T05:16:21Z</time>
      </trkpt>
      <trkpt lat="43.96038" lon="1.88829">
        <ele>228.4</ele>
        <time>2023-07-23T05:16:22Z</time>
      </trkpt>
      <trkpt lat="43.96039" lon="1.88828">
        <ele>228.6</ele>
        <time>2023-07-23T05:16:23Z</time>
      </trkpt>
      <trkpt lat="43.96041" lon="1.88827">
        <ele>229</ele>
        <time>2023-07-23T05:16:24Z</time>
      </trkpt>
      <trkpt lat="43.96043" lon="1.88826">
        <ele>229.4</ele>
        <time>2023-07-23T05:16:25Z</time>
      </trkpt>
      <trkpt lat="43.96045" lon="1.88825">
        <ele>229.4</ele>
        <time>2023-07-23T05:16:26Z</time>
      </trkpt>
      <trkpt lat="43.96046" lon="1.88823">
        <ele>229.6</ele>
        <time>2023-07-23T05:16:27Z</time>
      </trkpt>
      <trkpt lat="43.96048" lon="1.88822">
        <ele>229.6</ele>
        <time>2023-07-23T05:16:28Z</time>
      </trkpt>
      <trkpt lat="43.9605" lon="1.88821">
        <ele>229.8</ele>
        <time>2023-07-23T05:16:29Z</time>
      </trkpt>
      <trkpt lat="43.96052" lon="1.88821">
        <ele>229.8</ele>
        <time>2023-07-23T05:16:30Z</time>
      </trkpt>
      <trkpt lat="43.96053" lon="1.8882">
        <ele>230</ele>
        <time>2023-07-23T05:16:31Z</time>
      </trkpt>
      <trkpt lat="43.96055" lon="1.88819">
        <ele>230</ele>
        <time>2023-07-23T05:16:32Z</time>
      </trkpt>
      <trkpt lat="43.96056" lon="1.88818">
        <ele>230.2</ele>
        <time>2023-07-23T05:16:33Z</time>
      </trkpt>
      <trkpt lat="43.96058" lon="1.88817">
        <ele>230.4</ele>
        <time>2023-07-23T05:16:34Z</time>
      </trkpt>
      <trkpt lat="43.9606" lon="1.88816">
        <ele>230.6</ele>
        <time>2023-07-23T05:16:35Z</time>
      </trkpt>
      <trkpt lat="43.96062" lon="1.88815">
        <ele>230.8</ele>
        <time>2023-07-23T05:16:36Z</time>
      </trkpt>
      <trkpt lat="43.96064" lon="1.88814">
        <ele>230.8</ele>
        <time>2023-07-23T05:16:37Z</time>
      </trkpt>
      <trkpt lat="43.96065" lon="1.88813">
        <ele>231</ele>
        <time>2023-07-23T05:16:38Z</time>
      </trkpt>
      <trkpt lat="43.96067" lon="1.88812">
        <ele>231</ele>
        <time>2023-07-23T05:16:39Z</time>
      </trkpt>
      <trkpt lat="43.96068" lon="1.88811">
        <ele>231.2</ele>
        <time>2023-07-23T05:16:40Z</time>
      </trkpt>
      <trkpt lat="43.9607" lon="1.8881">
        <ele>231.2</ele>
        <time>2023-07-23T05:16:41Z</time>
      </trkpt>
      <trkpt lat="43.96072" lon="1.88809">
        <ele>231.4</ele>
        <time>2023-07-23T05:16:42Z</time>
      </trkpt>
      <trkpt lat="43.96074" lon="1.88808">
        <ele>231.6</ele>
        <time>2023-07-23T05:16:43Z</time>
      </trkpt>
      <trkpt lat="43.96075" lon="1.88807">
        <ele>231.6</ele>
        <time>2023-07-23T05:16:44Z</time>
      </trkpt>
      <trkpt lat="43.96077" lon="1.88806">
        <ele>231.8</ele>
        <time>2023-07-23T05:16:45Z</time>
      </trkpt>
      <trkpt lat="43.96079" lon="1.88805">
        <ele>232</ele>
        <time>2023-07-23T05:16:46Z</time>
      </trkpt>
      <trkpt lat="43.9608" lon="1.88804">
        <ele>232</ele>
        <time>2023-07-23T05:16:47Z</time>
      </trkpt>
      <trkpt lat="43.96082" lon="1.88803">
        <ele>232</ele>
        <time>2023-07-23T05:16:48Z</time>
      </trkpt>
      <trkpt lat="43.96084" lon="1.88801">
        <ele>232</ele>
        <time>2023-07-23T05:16:49Z</time>
      </trkpt>
      <trkpt lat="43.96085" lon="1.888">
        <ele>232.2</ele>
        <time>2023-07-23T05:16:50Z</time>
      </trkpt>
      <trkpt lat="43.96087" lon="1.88799">
        <ele>232.2</ele>
        <time>2023-07-23T05:16:51Z</time>
      </trkpt>
      <trkpt lat="43.96088" lon="1.88798">
        <ele>232.4</ele>
        <time>2023-07-23T05:16:52Z</time>
      </trkpt>
      <trkpt lat="43.9609" lon="1.88797">
        <ele>232.6</ele>
        <time>2023-07-23T05:16:53Z</time>
      </trkpt>
      <trkpt lat="43.96092" lon="1.88796">
        <ele>232.8</ele>
        <time>2023-07-23T05:16:54Z</time>
      </trkpt>
      <trkpt lat="43.96093" lon="1.88795">
        <ele>232.8</ele>
        <time>2023-07-23T05:16:55Z</time>
      </trkpt>
      <trkpt lat="43.96096" lon="1.88793">
        <ele>233</ele>
        <time>2023-07-23T05:16:56Z</time>
      </trkpt>
      <trkpt lat="43.96097" lon="1.88793">
        <ele>233.2</ele>
        <time>2023-07-23T05:16:57Z</time>
      </trkpt>
      <trkpt lat="43.96098" lon="1.88791">
        <ele>233.4</ele>
        <time>2023-07-23T05:16:58Z</time>
      </trkpt>
      <trkpt lat="43.961" lon="1.8879">
        <ele>233.6</ele>
        <time>2023-07-23T05:16:59Z</time>
      </trkpt>
      <trkpt lat="43.96101" lon="1.8879">
        <ele>233.8</ele>
        <time>2023-07-23T05:17:00Z</time>
      </trkpt>
      <trkpt lat="43.96102" lon="1.88789">
        <ele>234</ele>
        <time>2023-07-23T05:17:01Z</time>
      </trkpt>
      <trkpt lat="43.96103" lon="1.88788">
        <ele>234</ele>
        <time>2023-07-23T05:17:02Z</time>
      </trkpt>
      <trkpt lat="43.96105" lon="1.88787">
        <ele>234.2</ele>
        <time>2023-07-23T05:17:03Z</time>
      </trkpt>
      <trkpt lat="43.96106" lon="1.88785">
        <ele>234.2</ele>
        <time>2023-07-23T05:17:04Z</time>
      </trkpt>
      <trkpt lat="43.96108" lon="1.88784">
        <ele>234.2</ele>
        <time>2023-07-23T05:17:05Z</time>
      </trkpt>
      <trkpt lat="43.96109" lon="1.88783">
        <ele>234.2</ele>
        <time>2023-07-23T05:17:06Z</time>
      </trkpt>
      <trkpt lat="43.9611" lon="1.88782">
        <ele>234.4</ele>
        <time>2023-07-23T05:17:07Z</time>
      </trkpt>
      <trkpt lat="43.96112" lon="1.88781">
        <ele>234.4</ele>
        <time>2023-07-23T05:17:08Z</time>
      </trkpt>
      <trkpt lat="43.96113" lon="1.88779">
        <ele>234.6</ele>
        <time>2023-07-23T05:17:09Z</time>
      </trkpt>
      <trkpt lat="43.96114" lon="1.88778">
        <ele>234.6</ele>
        <time>2023-07-23T05:17:10Z</time>
      </trkpt>
      <trkpt lat="43.96115" lon="1.88776">
        <ele>234.8</ele>
        <time>2023-07-23T05:17:11Z</time>
      </trkpt>
      <trkpt lat="43.96117" lon="1.88775">
        <ele>235</ele>
        <time>2023-07-23T05:17:12Z</time>
      </trkpt>
      <trkpt lat="43.96118" lon="1.88773">
        <ele>235.2</ele>
        <time>2023-07-23T05:17:13Z</time>
      </trkpt>
      <trkpt lat="43.96119" lon="1.88772">
        <ele>235.2</ele>
        <time>2023-07-23T05:17:14Z</time>
      </trkpt>
      <trkpt lat="43.9612" lon="1.8877">
        <ele>235.4</ele>
        <time>2023-07-23T05:17:15Z</time>
      </trkpt>
      <trkpt lat="43.9612" lon="1.88769">
        <ele>235.4</ele>
        <time>2023-07-23T05:17:16Z</time>
      </trkpt>
      <trkpt lat="43.9612" lon="1.88769">
        <ele>235.6</ele>
        <time>2023-07-23T05:17:17Z</time>
      </trkpt>
      <trkpt lat="43.9612" lon="1.88768">
        <ele>235.8</ele>
        <time>2023-07-23T05:17:18Z</time>
      </trkpt>
      <trkpt lat="43.9612" lon="1.88768">
        <ele>235.8</ele>
        <time>2023-07-23T05:17:19Z</time>
      </trkpt>
      <trkpt lat="43.9612" lon="1.88768">
        <ele>236</ele>
        <time>2023-07-23T05:17:20Z</time>
      </trkpt>
      <trkpt lat="43.9612" lon="1.88768">
        <ele>236</ele>
        <time>2023-07-23T05:17:21Z</time>
      </trkpt>
      <trkpt lat="43.96132" lon="1.88756">
        <ele>236.4</ele>
        <time>2023-07-23T05:17:40Z</time>
      </trkpt>
      <trkpt lat="43.96135" lon="1.88753">
        <ele>236.6</ele>
        <time>2023-07-23T05:17:42Z</time>
      </trkpt>
      <trkpt lat="43.9614" lon="1.88746">
        <ele>237.4</ele>
        <time>2023-07-23T05:17:47Z</time>
      </trkpt>
      <trkpt lat="43.96141" lon="1.88745">
        <ele>237.4</ele>
        <time>2023-07-23T05:17:48Z</time>
      </trkpt>
      <trkpt lat="43.96144" lon="1.8874">
        <ele>237.8</ele>
        <time>2023-07-23T05:17:51Z</time>
      </trkpt>
      <trkpt lat="43.96149" lon="1.88732">
        <ele>238.4</ele>
        <time>2023-07-23T05:17:56Z</time>
      </trkpt>
      <trkpt lat="43.96151" lon="1.88729">
        <ele>238.8</ele>
        <time>2023-07-23T05:17:58Z</time>
      </trkpt>
      <trkpt lat="43.96153" lon="1.88726">
        <ele>239.4</ele>
        <time>2023-07-23T05:18:00Z</time>
      </trkpt>
      <trkpt lat="43.96153" lon="1.88725">
        <ele>239.8</ele>
        <time>2023-07-23T05:18:01Z</time>
      </trkpt>
      <trkpt lat="43.96154" lon="1.88724">
        <ele>240</ele>
        <time>2023-07-23T05:18:02Z</time>
      </trkpt>
      <trkpt lat="43.96155" lon="1.88723">
        <ele>240.2</ele>
        <time>2023-07-23T05:18:03Z</time>
      </trkpt>
      <trkpt lat="43.96156" lon="1.88721">
        <ele>240.4</ele>
        <time>2023-07-23T05:18:04Z</time>
      </trkpt>
      <trkpt lat="43.96156" lon="1.88721">
        <ele>240.6</ele>
        <time>2023-07-23T05:18:05Z</time>
      </trkpt>
      <trkpt lat="43.96157" lon="1.88719">
        <ele>240.6</ele>
        <time>2023-07-23T05:18:06Z</time>
      </trkpt>
      <trkpt lat="43.96158" lon="1.88717">
        <ele>241</ele>
        <time>2023-07-23T05:18:07Z</time>
      </trkpt>
      <trkpt lat="43.96159" lon="1.88715">
        <ele>241.2</ele>
        <time>2023-07-23T05:18:08Z</time>
      </trkpt>
      <trkpt lat="43.9616" lon="1.88714">
        <ele>241.2</ele>
        <time>2023-07-23T05:18:09Z</time>
      </trkpt>
      <trkpt lat="43.96162" lon="1.88711">
        <ele>241.2</ele>
        <time>2023-07-23T05:18:10Z</time>
      </trkpt>
      <trkpt lat="43.96163" lon="1.8871">
        <ele>241.2</ele>
        <time>2023-07-23T05:18:11Z</time>
      </trkpt>
      <trkpt lat="43.96164" lon="1.88708">
        <ele>241.4</ele>
        <time>2023-07-23T05:18:12Z</time>
      </trkpt>
      <trkpt lat="43.96165" lon="1.88706">
        <ele>241.6</ele>
        <time>2023-07-23T05:18:13Z</time>
      </trkpt>
      <trkpt lat="43.96166" lon="1.88704">
        <ele>241.8</ele>
        <time>2023-07-23T05:18:14Z</time>
      </trkpt>
      <trkpt lat="43.96167" lon="1.88703">
        <ele>242.2</ele>
        <time>2023-07-23T05:18:15Z</time>
      </trkpt>
      <trkpt lat="43.96168" lon="1.88701">
        <ele>242.2</ele>
        <time>2023-07-23T05:18:16Z</time>
      </trkpt>
      <trkpt lat="43.9617" lon="1.88699">
        <ele>242.4</ele>
        <time>2023-07-23T05:18:17Z</time>
      </trkpt>
      <trkpt lat="43.96171" lon="1.88698">
        <ele>242.4</ele>
        <time>2023-07-23T05:18:18Z</time>
      </trkpt>
      <trkpt lat="43.96172" lon="1.88696">
        <ele>242.8</ele>
        <time>2023-07-23T05:18:19Z</time>
      </trkpt>
      <trkpt lat="43.96173" lon="1.88694">
        <ele>242.8</ele>
        <time>2023-07-23T05:18:20Z</time>
      </trkpt>
      <trkpt lat="43.96174" lon="1.88692">
        <ele>243.2</ele>
        <time>2023-07-23T05:18:21Z</time>
      </trkpt>
      <trkpt lat="43.96176" lon="1.8869">
        <ele>243.2</ele>
        <time>2023-07-23T05:18:22Z</time>
      </trkpt>
      <trkpt lat="43.96177" lon="1.88689">
        <ele>243.4</ele>
        <time>2023-07-23T05:18:23Z</time>
      </trkpt>
      <trkpt lat="43.96178" lon="1.88687">
        <ele>243.6</ele>
        <time>2023-07-23T05:18:24Z</time>
      </trkpt>
      <trkpt lat="43.96179" lon="1.88686">
        <ele>243.8</ele>
        <time>2023-07-23T05:18:25Z</time>
      </trkpt>
      <trkpt lat="43.9618" lon="1.88684">
        <ele>244</ele>
        <time>2023-07-23T05:18:26Z</time>
      </trkpt>
      <trkpt lat="43.96182" lon="1.88682">
        <ele>244</ele>
        <time>2023-07-23T05:18:27Z</time>
      </trkpt>
      <trkpt lat="43.96184" lon="1.8868">
        <ele>244.4</ele>
        <time>2023-07-23T05:18:28Z</time>
      </trkpt>
      <trkpt lat="43.96185" lon="1.88679">
        <ele>244.6</ele>
        <time>2023-07-23T05:18:29Z</time>
      </trkpt>
      <trkpt lat="43.96186" lon="1.88677">
        <ele>244.8</ele>
        <time>2023-07-23T05:18:30Z</time>
      </trkpt>
      <trkpt lat="43.96187" lon="1.88676">
        <ele>245</ele>
        <time>2023-07-23T05:18:31Z</time>
      </trkpt>
      <trkpt lat="43.96188" lon="1.88674">
        <ele>245.2</ele>
        <time>2023-07-23T05:18:32Z</time>
      </trkpt>
      <trkpt lat="43.96189" lon="1.88673">
        <ele>245.2</ele>
        <time>2023-07-23T05:18:33Z</time>
      </trkpt>
      <trkpt lat="43.96191" lon="1.88672">
        <ele>245.2</ele>
        <time>2023-07-23T05:18:34Z</time>
      </trkpt>
      <trkpt lat="43.96192" lon="1.8867">
        <ele>245.4</ele>
        <time>2023-07-23T05:18:35Z</time>
      </trkpt>
      <trkpt lat="43.96193" lon="1.88669">
        <ele>245.6</ele>
        <time>2023-07-23T05:18:36Z</time>
      </trkpt>
      <trkpt lat="43.96194" lon="1.88667">
        <ele>245.8</ele>
        <time>2023-07-23T05:18:37Z</time>
      </trkpt>
      <trkpt lat="43.96196" lon="1.88666">
        <ele>246.2</ele>
        <time>2023-07-23T05:18:38Z</time>
      </trkpt>
      <trkpt lat="43.96197" lon="1.88665">
        <ele>246.4</ele>
        <time>2023-07-23T05:18:39Z</time>
      </trkpt>
      <trkpt lat="43.96198" lon="1.88663">
        <ele>246.6</ele>
        <time>2023-07-23T05:18:40Z</time>
      </trkpt>
      <trkpt lat="43.962" lon="1.88661">
        <ele>246.6</ele>
        <time>2023-07-23T05:18:41Z</time>
      </trkpt>
      <trkpt lat="43.96201" lon="1.8866">
        <ele>246.8</ele>
        <time>2023-07-23T05:18:42Z</time>
      </trkpt>
      <trkpt lat="43.96202" lon="1.88659">
        <ele>246.8</ele>
        <time>2023-07-23T05:18:43Z</time>
      </trkpt>
      <trkpt lat="43.96203" lon="1.88658">
        <ele>247</ele>
        <time>2023-07-23T05:18:44Z</time>
      </trkpt>
      <trkpt lat="43.96204" lon="1.88657">
        <ele>247</ele>
        <time>2023-07-23T05:18:45Z</time>
      </trkpt>
      <trkpt lat="43.96205" lon="1.88655">
        <ele>247.2</ele>
        <time>2023-07-23T05:18:46Z</time>
      </trkpt>
      <trkpt lat="43.96206" lon="1.88653">
        <ele>247.4</ele>
        <time>2023-07-23T05:18:47Z</time>
      </trkpt>
      <trkpt lat="43.96207" lon="1.88651">
        <ele>247.4</ele>
        <time>2023-07-23T05:18:48Z</time>
      </trkpt>
      <trkpt lat="43.96209" lon="1.8865">
        <ele>247.6</ele>
        <time>2023-07-23T05:18:49Z</time>
      </trkpt>
      <trkpt lat="43.9621" lon="1.88648">
        <ele>247.8</ele>
        <time>2023-07-23T05:18:50Z</time>
      </trkpt>
      <trkpt lat="43.96211" lon="1.88646">
        <ele>248</ele>
        <time>2023-07-23T05:18:51Z</time>
      </trkpt>
      <trkpt lat="43.96213" lon="1.88644">
        <ele>248.2</ele>
        <time>2023-07-23T05:18:52Z</time>
      </trkpt>
      <trkpt lat="43.96214" lon="1.88643">
        <ele>248.4</ele>
        <time>2023-07-23T05:18:53Z</time>
      </trkpt>
      <trkpt lat="43.96215" lon="1.88641">
        <ele>248.6</ele>
        <time>2023-07-23T05:18:54Z</time>
      </trkpt>
      <trkpt lat="43.96216" lon="1.88639">
        <ele>248.6</ele>
        <time>2023-07-23T05:18:55Z</time>
      </trkpt>
      <trkpt lat="43.96217" lon="1.88637">
        <ele>249</ele>
        <time>2023-07-23T05:18:56Z</time>
      </trkpt>
      <trkpt lat="43.96218" lon="1.88636">
        <ele>249</ele>
        <time>2023-07-23T05:18:57Z</time>
      </trkpt>
      <trkpt lat="43.96219" lon="1.88634">
        <ele>249.2</ele>
        <time>2023-07-23T05:18:58Z</time>
      </trkpt>
      <trkpt lat="43.9622" lon="1.88633">
        <ele>249.4</ele>
        <time>2023-07-23T05:18:59Z</time>
      </trkpt>
      <trkpt lat="43.96221" lon="1.88631">
        <ele>249.6</ele>
        <time>2023-07-23T05:19:00Z</time>
      </trkpt>
      <trkpt lat="43.96222" lon="1.8863">
        <ele>249.8</ele>
        <time>2023-07-23T05:19:01Z</time>
      </trkpt>
      <trkpt lat="43.96223" lon="1.88628">
        <ele>250</ele>
        <time>2023-07-23T05:19:02Z</time>
      </trkpt>
      <trkpt lat="43.96224" lon="1.88626">
        <ele>250.4</ele>
        <time>2023-07-23T05:19:03Z</time>
      </trkpt>
      <trkpt lat="43.96225" lon="1.88624">
        <ele>250.4</ele>
        <time>2023-07-23T05:19:04Z</time>
      </trkpt>
      <trkpt lat="43.96226" lon="1.88623">
        <ele>250.6</ele>
        <time>2023-07-23T05:19:05Z</time>
      </trkpt>
      <trkpt lat="43.96227" lon="1.88621">
        <ele>250.8</ele>
        <time>2023-07-23T05:19:06Z</time>
      </trkpt>
      <trkpt lat="43.96227" lon="1.88619">
        <ele>251</ele>
        <time>2023-07-23T05:19:07Z</time>
      </trkpt>
      <trkpt lat="43.96228" lon="1.88617">
        <ele>251</ele>
        <time>2023-07-23T05:19:08Z</time>
      </trkpt>
      <trkpt lat="43.96228" lon="1.88616">
        <ele>251.4</ele>
        <time>2023-07-23T05:19:09Z</time>
      </trkpt>
      <trkpt lat="43.96228" lon="1.88613">
        <ele>251.6</ele>
        <time>2023-07-23T05:19:10Z</time>
      </trkpt>
      <trkpt lat="43.96228" lon="1.88612">
        <ele>251.8</ele>
        <time>2023-07-23T05:19:11Z</time>
      </trkpt>
      <trkpt lat="43.96229" lon="1.8861">
        <ele>252</ele>
        <time>2023-07-23T05:19:12Z</time>
      </trkpt>
      <trkpt lat="43.96229" lon="1.88608">
        <ele>252.2</ele>
        <time>2023-07-23T05:19:13Z</time>
      </trkpt>
      <trkpt lat="43.96229" lon="1.88606">
        <ele>252.4</ele>
        <time>2023-07-23T05:19:14Z</time>
      </trkpt>
      <trkpt lat="43.96229" lon="1.88605">
        <ele>252.6</ele>
        <time>2023-07-23T05:19:15Z</time>
      </trkpt>
      <trkpt lat="43.96228" lon="1.88603">
        <ele>253</ele>
        <time>2023-07-23T05:19:16Z</time>
      </trkpt>
      <trkpt lat="43.96228" lon="1.88601">
        <ele>253.2</ele>
        <time>2023-07-23T05:19:17Z</time>
      </trkpt>
      <trkpt lat="43.96227" lon="1.88599">
        <ele>253.4</ele>
        <time>2023-07-23T05:19:18Z</time>
      </trkpt>
      <trkpt lat="43.96226" lon="1.88597">
        <ele>253.6</ele>
        <time>2023-07-23T05:19:19Z</time>
      </trkpt>
      <trkpt lat="43.96226" lon="1.88596">
        <ele>253.6</ele>
        <time>2023-07-23T05:19:20Z</time>
      </trkpt>
      <trkpt lat="43.96224" lon="1.88595">
        <ele>253.8</ele>
        <time>2023-07-23T05:19:21Z</time>
      </trkpt>
      <trkpt lat="43.96223" lon="1.88594">
        <ele>253.8</ele>
        <time>2023-07-23T05:19:22Z</time>
      </trkpt>
      <trkpt lat="43.96221" lon="1.88593">
        <ele>254.2</ele>
        <time>2023-07-23T05:19:23Z</time>
      </trkpt>
      <trkpt lat="43.9622" lon="1.88592">
        <ele>254.4</ele>
        <time>2023-07-23T05:19:24Z</time>
      </trkpt>
      <trkpt lat="43.96218" lon="1.88591">
        <ele>254.8</ele>
        <time>2023-07-23T05:19:25Z</time>
      </trkpt>
      <trkpt lat="43.96217" lon="1.8859">
        <ele>255</ele>
        <time>2023-07-23T05:19:26Z</time>
      </trkpt>
      <trkpt lat="43.96216" lon="1.88589">
        <ele>255</ele>
        <time>2023-07-23T05:19:27Z</time>
      </trkpt>
      <trkpt lat="43.96215" lon="1.88588">
        <ele>255.4</ele>
        <time>2023-07-23T05:19:28Z</time>
      </trkpt>
      <trkpt lat="43.96213" lon="1.88586">
        <ele>255.6</ele>
        <time>2023-07-23T05:19:29Z</time>
      </trkpt>
      <trkpt lat="43.96213" lon="1.88585">
        <ele>255.8</ele>
        <time>2023-07-23T05:19:30Z</time>
      </trkpt>
      <trkpt lat="43.96212" lon="1.88584">
        <ele>255.8</ele>
        <time>2023-07-23T05:19:31Z</time>
      </trkpt>
      <trkpt lat="43.96211" lon="1.88582">
        <ele>256.2</ele>
        <time>2023-07-23T05:19:32Z</time>
      </trkpt>
      <trkpt lat="43.96212" lon="1.88579">
        <ele>256.4</ele>
        <time>2023-07-23T05:19:33Z</time>
      </trkpt>
      <trkpt lat="43.96213" lon="1.88578">
        <ele>256.6</ele>
        <time>2023-07-23T05:19:34Z</time>
      </trkpt>
      <trkpt lat="43.96214" lon="1.88578">
        <ele>256.8</ele>
        <time>2023-07-23T05:19:35Z</time>
      </trkpt>
      <trkpt lat="43.96216" lon="1.88578">
        <ele>256.8</ele>
        <time>2023-07-23T05:19:36Z</time>
      </trkpt>
      <trkpt lat="43.96218" lon="1.88579">
        <ele>257.2</ele>
        <time>2023-07-23T05:19:37Z</time>
      </trkpt>
      <trkpt lat="43.9622" lon="1.8858">
        <ele>257.4</ele>
        <time>2023-07-23T05:19:38Z</time>
      </trkpt>
      <trkpt lat="43.96222" lon="1.88582">
        <ele>257.8</ele>
        <time>2023-07-23T05:19:39Z</time>
      </trkpt>
      <trkpt lat="43.96224" lon="1.88583">
        <ele>258</ele>
        <time>2023-07-23T05:19:40Z</time>
      </trkpt>
      <trkpt lat="43.96226" lon="1.88584">
        <ele>258.2</ele>
        <time>2023-07-23T05:19:41Z</time>
      </trkpt>
      <trkpt lat="43.96228" lon="1.88585">
        <ele>258.4</ele>
        <time>2023-07-23T05:19:42Z</time>
      </trkpt>
      <trkpt lat="43.9623" lon="1.88587">
        <ele>258.4</ele>
        <time>2023-07-23T05:19:43Z</time>
      </trkpt>
      <trkpt lat="43.96232" lon="1.88588">
        <ele>258.6</ele>
        <time>2023-07-23T05:19:44Z</time>
      </trkpt>
      <trkpt lat="43.96235" lon="1.88589">
        <ele>258.6</ele>
        <time>2023-07-23T05:19:45Z</time>
      </trkpt>
      <trkpt lat="43.96237" lon="1.8859">
        <ele>258.6</ele>
        <time>2023-07-23T05:19:46Z</time>
      </trkpt>
      <trkpt lat="43.96239" lon="1.88592">
        <ele>258.6</ele>
        <time>2023-07-23T05:19:47Z</time>
      </trkpt>
      <trkpt lat="43.96241" lon="1.88593">
        <ele>258.8</ele>
        <time>2023-07-23T05:19:48Z</time>
      </trkpt>
      <trkpt lat="43.96244" lon="1.88594">
        <ele>258.6</ele>
        <time>2023-07-23T05:19:49Z</time>
      </trkpt>
      <trkpt lat="43.96246" lon="1.88596">
        <ele>258.6</ele>
        <time>2023-07-23T05:19:50Z</time>
      </trkpt>
      <trkpt lat="43.96248" lon="1.88598">
        <ele>258.8</ele>
        <time>2023-07-23T05:19:51Z</time>
      </trkpt>
      <trkpt lat="43.9625" lon="1.88599">
        <ele>258.8</ele>
        <time>2023-07-23T05:19:52Z</time>
      </trkpt>
      <trkpt lat="43.96253" lon="1.88601">
        <ele>259</ele>
        <time>2023-07-23T05:19:53Z</time>
      </trkpt>
      <trkpt lat="43.96255" lon="1.88602">
        <ele>258.8</ele>
        <time>2023-07-23T05:19:54Z</time>
      </trkpt>
      <trkpt lat="43.96258" lon="1.88604">
        <ele>258.8</ele>
        <time>2023-07-23T05:19:55Z</time>
      </trkpt>
      <trkpt lat="43.96261" lon="1.88606">
        <ele>258.8</ele>
        <time>2023-07-23T05:19:56Z</time>
      </trkpt>
      <trkpt lat="43.96263" lon="1.88607">
        <ele>258.8</ele>
        <time>2023-07-23T05:19:57Z</time>
      </trkpt>
      <trkpt lat="43.96266" lon="1.88609">
        <ele>259</ele>
        <time>2023-07-23T05:19:58Z</time>
      </trkpt>
      <trkpt lat="43.96268" lon="1.8861">
        <ele>259</ele>
        <time>2023-07-23T05:19:59Z</time>
      </trkpt>
      <trkpt lat="43.96271" lon="1.88612">
        <ele>259</ele>
        <time>2023-07-23T05:20:00Z</time>
      </trkpt>
      <trkpt lat="43.96274" lon="1.88614">
        <ele>259</ele>
        <time>2023-07-23T05:20:01Z</time>
      </trkpt>
      <trkpt lat="43.96277" lon="1.88615">
        <ele>259</ele>
        <time>2023-07-23T05:20:02Z</time>
      </trkpt>
      <trkpt lat="43.9628" lon="1.88617">
        <ele>259</ele>
        <time>2023-07-23T05:20:03Z</time>
      </trkpt>
      <trkpt lat="43.96282" lon="1.88618">
        <ele>259</ele>
        <time>2023-07-23T05:20:04Z</time>
      </trkpt>
      <trkpt lat="43.96285" lon="1.88618">
        <ele>259.2</ele>
        <time>2023-07-23T05:20:05Z</time>
      </trkpt>
      <trkpt lat="43.963" lon="1.88614">
        <ele>259.2</ele>
        <time>2023-07-23T05:20:10Z</time>
      </trkpt>
      <trkpt lat="43.96308" lon="1.8861">
        <ele>259.4</ele>
        <time>2023-07-23T05:20:13Z</time>
      </trkpt>
      <trkpt lat="43.96311" lon="1.88609">
        <ele>259.4</ele>
        <time>2023-07-23T05:20:14Z</time>
      </trkpt>
      <trkpt lat="43.96314" lon="1.88608">
        <ele>259.4</ele>
        <time>2023-07-23T05:20:15Z</time>
      </trkpt>
      <trkpt lat="43.96319" lon="1.88606">
        <ele>259.4</ele>
        <time>2023-07-23T05:20:17Z</time>
      </trkpt>
      <trkpt lat="43.96329" lon="1.88602">
        <ele>259.4</ele>
        <time>2023-07-23T05:20:20Z</time>
      </trkpt>
      <trkpt lat="43.96355" lon="1.88589">
        <ele>259</ele>
        <time>2023-07-23T05:20:26Z</time>
      </trkpt>
      <trkpt lat="43.96393" lon="1.88574">
        <ele>257.6</ele>
        <time>2023-07-23T05:20:32Z</time>
      </trkpt>
      <trkpt lat="43.96421" lon="1.88568">
        <ele>256.4</ele>
        <time>2023-07-23T05:20:36Z</time>
      </trkpt>
      <trkpt lat="43.96438" lon="1.88568">
        <ele>255.6</ele>
        <time>2023-07-23T05:20:38Z</time>
      </trkpt>
      <trkpt lat="43.96445" lon="1.88569">
        <ele>255.2</ele>
        <time>2023-07-23T05:20:39Z</time>
      </trkpt>
      <trkpt lat="43.9647" lon="1.88571">
        <ele>254.2</ele>
        <time>2023-07-23T05:20:42Z</time>
      </trkpt>
      <trkpt lat="43.96479" lon="1.88572">
        <ele>253.4</ele>
        <time>2023-07-23T05:20:43Z</time>
      </trkpt>
      <trkpt lat="43.96496" lon="1.88574">
        <ele>252.6</ele>
        <time>2023-07-23T05:20:45Z</time>
      </trkpt>
      <trkpt lat="43.96504" lon="1.88575">
        <ele>252</ele>
        <time>2023-07-23T05:20:46Z</time>
      </trkpt>
      <trkpt lat="43.96534" lon="1.88579">
        <ele>250.8</ele>
        <time>2023-07-23T05:20:50Z</time>
      </trkpt>
      <trkpt lat="43.96539" lon="1.88579">
        <ele>250.4</ele>
        <time>2023-07-23T05:20:51Z</time>
      </trkpt>
      <trkpt lat="43.96544" lon="1.88579">
        <ele>250.2</ele>
        <time>2023-07-23T05:20:52Z</time>
      </trkpt>
      <trkpt lat="43.96547" lon="1.8858">
        <ele>249.8</ele>
        <time>2023-07-23T05:20:53Z</time>
      </trkpt>
      <trkpt lat="43.9655" lon="1.88579">
        <ele>249.8</ele>
        <time>2023-07-23T05:20:54Z</time>
      </trkpt>
      <trkpt lat="43.96554" lon="1.88579">
        <ele>249.6</ele>
        <time>2023-07-23T05:20:55Z</time>
      </trkpt>
      <trkpt lat="43.96557" lon="1.88579">
        <ele>249.4</ele>
        <time>2023-07-23T05:20:56Z</time>
      </trkpt>
      <trkpt lat="43.96561" lon="1.88579">
        <ele>249.2</ele>
        <time>2023-07-23T05:20:57Z</time>
      </trkpt>
      <trkpt lat="43.96564" lon="1.88578">
        <ele>249.2</ele>
        <time>2023-07-23T05:20:58Z</time>
      </trkpt>
      <trkpt lat="43.96568" lon="1.88578">
        <ele>248.8</ele>
        <time>2023-07-23T05:20:59Z</time>
      </trkpt>
      <trkpt lat="43.96572" lon="1.88578">
        <ele>248.6</ele>
        <time>2023-07-23T05:21:00Z</time>
      </trkpt>
      <trkpt lat="43.96586" lon="1.88578">
        <ele>248.2</ele>
        <time>2023-07-23T05:21:03Z</time>
      </trkpt>
      <trkpt lat="43.96615" lon="1.88578">
        <ele>247.6</ele>
        <time>2023-07-23T05:21:07Z</time>
      </trkpt>
      <trkpt lat="43.9665" lon="1.88579">
        <ele>246.2</ele>
        <time>2023-07-23T05:21:11Z</time>
      </trkpt>
      <trkpt lat="43.9666" lon="1.88579">
        <ele>245.8</ele>
        <time>2023-07-23T05:21:12Z</time>
      </trkpt>
      <trkpt lat="43.96671" lon="1.88578">
        <ele>244.8</ele>
        <time>2023-07-23T05:21:13Z</time>
      </trkpt>
      <trkpt lat="43.9669" lon="1.88577">
        <ele>243.8</ele>
        <time>2023-07-23T05:21:15Z</time>
      </trkpt>
      <trkpt lat="43.96699" lon="1.88575">
        <ele>243</ele>
        <time>2023-07-23T05:21:16Z</time>
      </trkpt>
      <trkpt lat="43.96708" lon="1.88574">
        <ele>242.4</ele>
        <time>2023-07-23T05:21:17Z</time>
      </trkpt>
      <trkpt lat="43.96718" lon="1.88572">
        <ele>241.4</ele>
        <time>2023-07-23T05:21:18Z</time>
      </trkpt>
      <trkpt lat="43.96726" lon="1.88569">
        <ele>240.8</ele>
        <time>2023-07-23T05:21:19Z</time>
      </trkpt>
      <trkpt lat="43.96733" lon="1.88567">
        <ele>240.2</ele>
        <time>2023-07-23T05:21:20Z</time>
      </trkpt>
      <trkpt lat="43.9674" lon="1.88564">
        <ele>239.8</ele>
        <time>2023-07-23T05:21:21Z</time>
      </trkpt>
      <trkpt lat="43.96748" lon="1.8856">
        <ele>239</ele>
        <time>2023-07-23T05:21:22Z</time>
      </trkpt>
      <trkpt lat="43.96754" lon="1.88557">
        <ele>238.2</ele>
        <time>2023-07-23T05:21:23Z</time>
      </trkpt>
      <trkpt lat="43.96761" lon="1.88553">
        <ele>238</ele>
        <time>2023-07-23T05:21:24Z</time>
      </trkpt>
      <trkpt lat="43.96766" lon="1.88551">
        <ele>237.6</ele>
        <time>2023-07-23T05:21:25Z</time>
      </trkpt>
      <trkpt lat="43.96772" lon="1.88548">
        <ele>237.4</ele>
        <time>2023-07-23T05:21:26Z</time>
      </trkpt>
      <trkpt lat="43.96777" lon="1.88546">
        <ele>237</ele>
        <time>2023-07-23T05:21:27Z</time>
      </trkpt>
      <trkpt lat="43.96782" lon="1.88543">
        <ele>236.6</ele>
        <time>2023-07-23T05:21:28Z</time>
      </trkpt>
      <trkpt lat="43.96787" lon="1.8854">
        <ele>236</ele>
        <time>2023-07-23T05:21:29Z</time>
      </trkpt>
      <trkpt lat="43.96793" lon="1.88537">
        <ele>235.4</ele>
        <time>2023-07-23T05:21:30Z</time>
      </trkpt>
      <trkpt lat="43.96803" lon="1.88532">
        <ele>234.4</ele>
        <time>2023-07-23T05:21:32Z</time>
      </trkpt>
      <trkpt lat="43.96808" lon="1.88529">
        <ele>234.2</ele>
        <time>2023-07-23T05:21:33Z</time>
      </trkpt>
      <trkpt lat="43.96812" lon="1.88527">
        <ele>233.8</ele>
        <time>2023-07-23T05:21:34Z</time>
      </trkpt>
      <trkpt lat="43.96817" lon="1.88525">
        <ele>233.6</ele>
        <time>2023-07-23T05:21:35Z</time>
      </trkpt>
      <trkpt lat="43.96823" lon="1.88523">
        <ele>233.4</ele>
        <time>2023-07-23T05:21:36Z</time>
      </trkpt>
      <trkpt lat="43.96826" lon="1.88521">
        <ele>233.4</ele>
        <time>2023-07-23T05:21:37Z</time>
      </trkpt>
      <trkpt lat="43.96831" lon="1.88519">
        <ele>233.2</ele>
        <time>2023-07-23T05:21:38Z</time>
      </trkpt>
      <trkpt lat="43.96835" lon="1.88518">
        <ele>232.8</ele>
        <time>2023-07-23T05:21:39Z</time>
      </trkpt>
      <trkpt lat="43.9684" lon="1.88516">
        <ele>232.6</ele>
        <time>2023-07-23T05:21:40Z</time>
      </trkpt>
      <trkpt lat="43.96845" lon="1.88515">
        <ele>232.2</ele>
        <time>2023-07-23T05:21:41Z</time>
      </trkpt>
      <trkpt lat="43.96852" lon="1.88515">
        <ele>232</ele>
        <time>2023-07-23T05:21:42Z</time>
      </trkpt>
      <trkpt lat="43.96866" lon="1.88516">
        <ele>231.2</ele>
        <time>2023-07-23T05:21:45Z</time>
      </trkpt>
      <trkpt lat="43.96871" lon="1.88517">
        <ele>230.8</ele>
        <time>2023-07-23T05:21:46Z</time>
      </trkpt>
      <trkpt lat="43.96875" lon="1.88517">
        <ele>230.6</ele>
        <time>2023-07-23T05:21:47Z</time>
      </trkpt>
      <trkpt lat="43.9688" lon="1.88517">
        <ele>230.6</ele>
        <time>2023-07-23T05:21:48Z</time>
      </trkpt>
      <trkpt lat="43.96884" lon="1.88517">
        <ele>230.4</ele>
        <time>2023-07-23T05:21:49Z</time>
      </trkpt>
      <trkpt lat="43.96892" lon="1.88516">
        <ele>230.2</ele>
        <time>2023-07-23T05:21:51Z</time>
      </trkpt>
      <trkpt lat="43.96896" lon="1.88515">
        <ele>230</ele>
        <time>2023-07-23T05:21:52Z</time>
      </trkpt>
      <trkpt lat="43.969" lon="1.88514">
        <ele>229.8</ele>
        <time>2023-07-23T05:21:53Z</time>
      </trkpt>
      <trkpt lat="43.96934" lon="1.88502">
        <ele>228.6</ele>
        <time>2023-07-23T05:22:01Z</time>
      </trkpt>
      <trkpt lat="43.96937" lon="1.885">
        <ele>228.4</ele>
        <time>2023-07-23T05:22:02Z</time>
      </trkpt>
      <trkpt lat="43.96956" lon="1.88494">
        <ele>227.6</ele>
        <time>2023-07-23T05:22:07Z</time>
      </trkpt>
      <trkpt lat="43.9696" lon="1.88493">
        <ele>227.4</ele>
        <time>2023-07-23T05:22:08Z</time>
      </trkpt>
      <trkpt lat="43.96964" lon="1.88492">
        <ele>227.2</ele>
        <time>2023-07-23T05:22:09Z</time>
      </trkpt>
      <trkpt lat="43.96967" lon="1.88491">
        <ele>227.2</ele>
        <time>2023-07-23T05:22:10Z</time>
      </trkpt>
      <trkpt lat="43.96971" lon="1.8849">
        <ele>227</ele>
        <time>2023-07-23T05:22:11Z</time>
      </trkpt>
      <trkpt lat="43.96975" lon="1.88489">
        <ele>227</ele>
        <time>2023-07-23T05:22:12Z</time>
      </trkpt>
      <trkpt lat="43.96996" lon="1.88485">
        <ele>226.4</ele>
        <time>2023-07-23T05:22:17Z</time>
      </trkpt>
      <trkpt lat="43.97028" lon="1.88476">
        <ele>225.8</ele>
        <time>2023-07-23T05:22:24Z</time>
      </trkpt>
      <trkpt lat="43.97043" lon="1.88473">
        <ele>225.4</ele>
        <time>2023-07-23T05:22:27Z</time>
      </trkpt>
      <trkpt lat="43.97082" lon="1.88462">
        <ele>224.4</ele>
        <time>2023-07-23T05:22:35Z</time>
      </trkpt>
      <trkpt lat="43.97125" lon="1.88447">
        <ele>223.8</ele>
        <time>2023-07-23T05:22:44Z</time>
      </trkpt>
      <trkpt lat="43.97129" lon="1.88445">
        <ele>223.6</ele>
        <time>2023-07-23T05:22:45Z</time>
      </trkpt>
      <trkpt lat="43.97134" lon="1.88443">
        <ele>223.6</ele>
        <time>2023-07-23T05:22:46Z</time>
      </trkpt>
      <trkpt lat="43.97138" lon="1.88441">
        <ele>223.6</ele>
        <time>2023-07-23T05:22:47Z</time>
      </trkpt>
      <trkpt lat="43.97142" lon="1.88439">
        <ele>223.6</ele>
        <time>2023-07-23T05:22:48Z</time>
      </trkpt>
      <trkpt lat="43.97146" lon="1.88436">
        <ele>223.6</ele>
        <time>2023-07-23T05:22:49Z</time>
      </trkpt>
      <trkpt lat="43.9715" lon="1.88434">
        <ele>223.6</ele>
        <time>2023-07-23T05:22:50Z</time>
      </trkpt>
      <trkpt lat="43.97152" lon="1.88432">
        <ele>223.6</ele>
        <time>2023-07-23T05:22:51Z</time>
      </trkpt>
      <trkpt lat="43.97155" lon="1.8843">
        <ele>223.4</ele>
        <time>2023-07-23T05:22:52Z</time>
      </trkpt>
      <trkpt lat="43.97157" lon="1.88429">
        <ele>223.4</ele>
        <time>2023-07-23T05:22:53Z</time>
      </trkpt>
      <trkpt lat="43.97159" lon="1.88429">
        <ele>223.2</ele>
        <time>2023-07-23T05:22:54Z</time>
      </trkpt>
      <trkpt lat="43.97161" lon="1.88431">
        <ele>223.2</ele>
        <time>2023-07-23T05:22:55Z</time>
      </trkpt>
      <trkpt lat="43.97163" lon="1.88434">
        <ele>223.2</ele>
        <time>2023-07-23T05:22:56Z</time>
      </trkpt>
      <trkpt lat="43.97163" lon="1.88441">
        <ele>222.8</ele>
        <time>2023-07-23T05:22:58Z</time>
      </trkpt>
      <trkpt lat="43.97163" lon="1.88444">
        <ele>222.8</ele>
        <time>2023-07-23T05:22:59Z</time>
      </trkpt>
      <trkpt lat="43.97163" lon="1.88447">
        <ele>222.6</ele>
        <time>2023-07-23T05:23:00Z</time>
      </trkpt>
      <trkpt lat="43.97163" lon="1.8845">
        <ele>222.6</ele>
        <time>2023-07-23T05:23:01Z</time>
      </trkpt>
      <trkpt lat="43.97163" lon="1.88452">
        <ele>222.6</ele>
        <time>2023-07-23T05:23:02Z</time>
      </trkpt>
      <trkpt lat="43.97164" lon="1.88455">
        <ele>222.6</ele>
        <time>2023-07-23T05:23:03Z</time>
      </trkpt>
      <trkpt lat="43.97164" lon="1.88458">
        <ele>222.6</ele>
        <time>2023-07-23T05:23:04Z</time>
      </trkpt>
      <trkpt lat="43.97164" lon="1.88462">
        <ele>222.4</ele>
        <time>2023-07-23T05:23:05Z</time>
      </trkpt>
      <trkpt lat="43.97165" lon="1.88465">
        <ele>222.2</ele>
        <time>2023-07-23T05:23:06Z</time>
      </trkpt>
      <trkpt lat="43.97167" lon="1.88476">
        <ele>222.4</ele>
        <time>2023-07-23T05:23:09Z</time>
      </trkpt>
      <trkpt lat="43.9717" lon="1.88493">
        <ele>222</ele>
        <time>2023-07-23T05:23:13Z</time>
      </trkpt>
      <trkpt lat="43.97173" lon="1.88532">
        <ele>221.8</ele>
        <time>2023-07-23T05:23:22Z</time>
      </trkpt>
      <trkpt lat="43.97172" lon="1.88581">
        <ele>221.6</ele>
        <time>2023-07-23T05:23:32Z</time>
      </trkpt>
      <trkpt lat="43.97172" lon="1.88587">
        <ele>221.6</ele>
        <time>2023-07-23T05:23:33Z</time>
      </trkpt>
      <trkpt lat="43.9717" lon="1.88617">
        <ele>221.2</ele>
        <time>2023-07-23T05:23:39Z</time>
      </trkpt>
      <trkpt lat="43.9717" lon="1.88623">
        <ele>221.2</ele>
        <time>2023-07-23T05:23:40Z</time>
      </trkpt>
      <trkpt lat="43.9717" lon="1.88628">
        <ele>221.2</ele>
        <time>2023-07-23T05:23:41Z</time>
      </trkpt>
      <trkpt lat="43.97172" lon="1.88674">
        <ele>221.2</ele>
        <time>2023-07-23T05:23:50Z</time>
      </trkpt>
      <trkpt lat="43.97179" lon="1.88691">
        <ele>221.2</ele>
        <time>2023-07-23T05:23:54Z</time>
      </trkpt>
      <trkpt lat="43.97181" lon="1.88695">
        <ele>221.2</ele>
        <time>2023-07-23T05:23:55Z</time>
      </trkpt>
      <trkpt lat="43.97183" lon="1.88698">
        <ele>221.2</ele>
        <time>2023-07-23T05:23:56Z</time>
      </trkpt>
      <trkpt lat="43.97185" lon="1.88701">
        <ele>221.2</ele>
        <time>2023-07-23T05:23:57Z</time>
      </trkpt>
      <trkpt lat="43.97186" lon="1.88704">
        <ele>221.2</ele>
        <time>2023-07-23T05:23:58Z</time>
      </trkpt>
      <trkpt lat="43.97188" lon="1.88707">
        <ele>221.4</ele>
        <time>2023-07-23T05:23:59Z</time>
      </trkpt>
      <trkpt lat="43.9719" lon="1.8871">
        <ele>221.4</ele>
        <time>2023-07-23T05:24:00Z</time>
      </trkpt>
      <trkpt lat="43.97192" lon="1.88714">
        <ele>221.6</ele>
        <time>2023-07-23T05:24:01Z</time>
      </trkpt>
      <trkpt lat="43.97193" lon="1.88716">
        <ele>221.6</ele>
        <time>2023-07-23T05:24:02Z</time>
      </trkpt>
      <trkpt lat="43.97194" lon="1.88719">
        <ele>221.8</ele>
        <time>2023-07-23T05:24:03Z</time>
      </trkpt>
      <trkpt lat="43.97196" lon="1.88722">
        <ele>221.8</ele>
        <time>2023-07-23T05:24:04Z</time>
      </trkpt>
      <trkpt lat="43.97197" lon="1.88725">
        <ele>222</ele>
        <time>2023-07-23T05:24:05Z</time>
      </trkpt>
      <trkpt lat="43.97199" lon="1.88728">
        <ele>222</ele>
        <time>2023-07-23T05:24:06Z</time>
      </trkpt>
      <trkpt lat="43.972" lon="1.88731">
        <ele>222</ele>
        <time>2023-07-23T05:24:07Z</time>
      </trkpt>
      <trkpt lat="43.97201" lon="1.88733">
        <ele>222.2</ele>
        <time>2023-07-23T05:24:08Z</time>
      </trkpt>
      <trkpt lat="43.97201" lon="1.88736">
        <ele>222.2</ele>
        <time>2023-07-23T05:24:09Z</time>
      </trkpt>
      <trkpt lat="43.97202" lon="1.88738">
        <ele>222.2</ele>
        <time>2023-07-23T05:24:10Z</time>
      </trkpt>
      <trkpt lat="43.97203" lon="1.88741">
        <ele>222.4</ele>
        <time>2023-07-23T05:24:11Z</time>
      </trkpt>
      <trkpt lat="43.97204" lon="1.88744">
        <ele>222.4</ele>
        <time>2023-07-23T05:24:12Z</time>
      </trkpt>
      <trkpt lat="43.97205" lon="1.88747">
        <ele>222.6</ele>
        <time>2023-07-23T05:24:13Z</time>
      </trkpt>
      <trkpt lat="43.97206" lon="1.8875">
        <ele>222.6</ele>
        <time>2023-07-23T05:24:14Z</time>
      </trkpt>
      <trkpt lat="43.97207" lon="1.88753">
        <ele>222.8</ele>
        <time>2023-07-23T05:24:15Z</time>
      </trkpt>
      <trkpt lat="43.97208" lon="1.88757">
        <ele>222.8</ele>
        <time>2023-07-23T05:24:16Z</time>
      </trkpt>
      <trkpt lat="43.97211" lon="1.88772">
        <ele>223.2</ele>
        <time>2023-07-23T05:24:21Z</time>
      </trkpt>
      <trkpt lat="43.97214" lon="1.88781">
        <ele>223.4</ele>
        <time>2023-07-23T05:24:24Z</time>
      </trkpt>
      <trkpt lat="43.97215" lon="1.88784">
        <ele>223.6</ele>
        <time>2023-07-23T05:24:25Z</time>
      </trkpt>
      <trkpt lat="43.97215" lon="1.88787">
        <ele>223.6</ele>
        <time>2023-07-23T05:24:26Z</time>
      </trkpt>
      <trkpt lat="43.97217" lon="1.88795">
        <ele>224</ele>
        <time>2023-07-23T05:24:29Z</time>
      </trkpt>
      <trkpt lat="43.97218" lon="1.88796">
        <ele>224</ele>
        <time>2023-07-23T05:24:30Z</time>
      </trkpt>
      <trkpt lat="43.97218" lon="1.88798">
        <ele>224.2</ele>
        <time>2023-07-23T05:24:31Z</time>
      </trkpt>
      <trkpt lat="43.97218" lon="1.888">
        <ele>224.2</ele>
        <time>2023-07-23T05:24:32Z</time>
      </trkpt>
      <trkpt lat="43.97219" lon="1.88802">
        <ele>224.4</ele>
        <time>2023-07-23T05:24:33Z</time>
      </trkpt>
      <trkpt lat="43.9722" lon="1.88804">
        <ele>224.4</ele>
        <time>2023-07-23T05:24:34Z</time>
      </trkpt>
      <trkpt lat="43.9722" lon="1.88806">
        <ele>224.6</ele>
        <time>2023-07-23T05:24:35Z</time>
      </trkpt>
      <trkpt lat="43.9722" lon="1.88808">
        <ele>224.8</ele>
        <time>2023-07-23T05:24:36Z</time>
      </trkpt>
      <trkpt lat="43.97221" lon="1.8881">
        <ele>225</ele>
        <time>2023-07-23T05:24:37Z</time>
      </trkpt>
      <trkpt lat="43.97221" lon="1.88813">
        <ele>225</ele>
        <time>2023-07-23T05:24:38Z</time>
      </trkpt>
      <trkpt lat="43.97222" lon="1.88814">
        <ele>225.2</ele>
        <time>2023-07-23T05:24:39Z</time>
      </trkpt>
      <trkpt lat="43.97222" lon="1.88817">
        <ele>225.4</ele>
        <time>2023-07-23T05:24:40Z</time>
      </trkpt>
      <trkpt lat="43.97224" lon="1.88823">
        <ele>225.8</ele>
        <time>2023-07-23T05:24:43Z</time>
      </trkpt>
      <trkpt lat="43.97224" lon="1.88825">
        <ele>225.8</ele>
        <time>2023-07-23T05:24:44Z</time>
      </trkpt>
      <trkpt lat="43.97225" lon="1.88827">
        <ele>226</ele>
        <time>2023-07-23T05:24:45Z</time>
      </trkpt>
      <trkpt lat="43.97225" lon="1.88829">
        <ele>226.2</ele>
        <time>2023-07-23T05:24:46Z</time>
      </trkpt>
      <trkpt lat="43.97226" lon="1.88831">
        <ele>226.4</ele>
        <time>2023-07-23T05:24:47Z</time>
      </trkpt>
      <trkpt lat="43.97226" lon="1.88833">
        <ele>226.4</ele>
        <time>2023-07-23T05:24:48Z</time>
      </trkpt>
      <trkpt lat="43.97227" lon="1.88835">
        <ele>226.6</ele>
        <time>2023-07-23T05:24:49Z</time>
      </trkpt>
      <trkpt lat="43.97227" lon="1.88837">
        <ele>226.8</ele>
        <time>2023-07-23T05:24:50Z</time>
      </trkpt>
      <trkpt lat="43.97227" lon="1.88839">
        <ele>227</ele>
        <time>2023-07-23T05:24:51Z</time>
      </trkpt>
      <trkpt lat="43.97228" lon="1.88842">
        <ele>227</ele>
        <time>2023-07-23T05:24:52Z</time>
      </trkpt>
      <trkpt lat="43.97229" lon="1.88843">
        <ele>227.2</ele>
        <time>2023-07-23T05:24:53Z</time>
      </trkpt>
      <trkpt lat="43.97229" lon="1.88846">
        <ele>227.4</ele>
        <time>2023-07-23T05:24:54Z</time>
      </trkpt>
      <trkpt lat="43.97229" lon="1.88848">
        <ele>227.4</ele>
        <time>2023-07-23T05:24:55Z</time>
      </trkpt>
      <trkpt lat="43.9723" lon="1.88849">
        <ele>227.6</ele>
        <time>2023-07-23T05:24:56Z</time>
      </trkpt>
      <trkpt lat="43.9723" lon="1.88852">
        <ele>227.6</ele>
        <time>2023-07-23T05:24:57Z</time>
      </trkpt>
      <trkpt lat="43.97231" lon="1.88853">
        <ele>227.8</ele>
        <time>2023-07-23T05:24:58Z</time>
      </trkpt>
      <trkpt lat="43.97231" lon="1.88855">
        <ele>228</ele>
        <time>2023-07-23T05:24:59Z</time>
      </trkpt>
      <trkpt lat="43.97232" lon="1.88857">
        <ele>228.2</ele>
        <time>2023-07-23T05:25:00Z</time>
      </trkpt>
      <trkpt lat="43.97232" lon="1.88859">
        <ele>228.2</ele>
        <time>2023-07-23T05:25:01Z</time>
      </trkpt>
      <trkpt lat="43.97233" lon="1.88861">
        <ele>228.2</ele>
        <time>2023-07-23T05:25:02Z</time>
      </trkpt>
      <trkpt lat="43.97233" lon="1.88863">
        <ele>228.6</ele>
        <time>2023-07-23T05:25:03Z</time>
      </trkpt>
      <trkpt lat="43.97234" lon="1.88865">
        <ele>228.6</ele>
        <time>2023-07-23T05:25:04Z</time>
      </trkpt>
      <trkpt lat="43.97234" lon="1.88867">
        <ele>228.8</ele>
        <time>2023-07-23T05:25:05Z</time>
      </trkpt>
      <trkpt lat="43.97235" lon="1.88869">
        <ele>229</ele>
        <time>2023-07-23T05:25:06Z</time>
      </trkpt>
      <trkpt lat="43.97235" lon="1.88871">
        <ele>229.2</ele>
        <time>2023-07-23T05:25:07Z</time>
      </trkpt>
      <trkpt lat="43.97236" lon="1.88873">
        <ele>229.4</ele>
        <time>2023-07-23T05:25:08Z</time>
      </trkpt>
      <trkpt lat="43.97236" lon="1.88875">
        <ele>229.4</ele>
        <time>2023-07-23T05:25:09Z</time>
      </trkpt>
      <trkpt lat="43.97237" lon="1.88877">
        <ele>229.6</ele>
        <time>2023-07-23T05:25:10Z</time>
      </trkpt>
      <trkpt lat="43.97237" lon="1.88879">
        <ele>229.6</ele>
        <time>2023-07-23T05:25:11Z</time>
      </trkpt>
      <trkpt lat="43.97237" lon="1.88881">
        <ele>229.8</ele>
        <time>2023-07-23T05:25:12Z</time>
      </trkpt>
      <trkpt lat="43.97238" lon="1.88883">
        <ele>230</ele>
        <time>2023-07-23T05:25:13Z</time>
      </trkpt>
      <trkpt lat="43.97238" lon="1.88885">
        <ele>230.2</ele>
        <time>2023-07-23T05:25:14Z</time>
      </trkpt>
      <trkpt lat="43.97239" lon="1.88887">
        <ele>230.4</ele>
        <time>2023-07-23T05:25:15Z</time>
      </trkpt>
      <trkpt lat="43.97239" lon="1.88889">
        <ele>230.4</ele>
        <time>2023-07-23T05:25:16Z</time>
      </trkpt>
      <trkpt lat="43.9724" lon="1.88891">
        <ele>230.8</ele>
        <time>2023-07-23T05:25:17Z</time>
      </trkpt>
      <trkpt lat="43.9724" lon="1.88893">
        <ele>231</ele>
        <time>2023-07-23T05:25:18Z</time>
      </trkpt>
      <trkpt lat="43.97241" lon="1.88895">
        <ele>231</ele>
        <time>2023-07-23T05:25:19Z</time>
      </trkpt>
      <trkpt lat="43.97241" lon="1.88897">
        <ele>231.2</ele>
        <time>2023-07-23T05:25:20Z</time>
      </trkpt>
      <trkpt lat="43.97241" lon="1.88899">
        <ele>231.4</ele>
        <time>2023-07-23T05:25:21Z</time>
      </trkpt>
      <trkpt lat="43.97242" lon="1.88901">
        <ele>231.6</ele>
        <time>2023-07-23T05:25:22Z</time>
      </trkpt>
      <trkpt lat="43.97242" lon="1.88904">
        <ele>231.6</ele>
        <time>2023-07-23T05:25:23Z</time>
      </trkpt>
      <trkpt lat="43.97242" lon="1.88906">
        <ele>231.8</ele>
        <time>2023-07-23T05:25:24Z</time>
      </trkpt>
      <trkpt lat="43.97243" lon="1.88907">
        <ele>232</ele>
        <time>2023-07-23T05:25:25Z</time>
      </trkpt>
      <trkpt lat="43.97243" lon="1.8891">
        <ele>232.2</ele>
        <time>2023-07-23T05:25:26Z</time>
      </trkpt>
      <trkpt lat="43.97244" lon="1.88912">
        <ele>232.2</ele>
        <time>2023-07-23T05:25:27Z</time>
      </trkpt>
      <trkpt lat="43.97244" lon="1.88914">
        <ele>232.4</ele>
        <time>2023-07-23T05:25:28Z</time>
      </trkpt>
      <trkpt lat="43.97244" lon="1.88916">
        <ele>232.4</ele>
        <time>2023-07-23T05:25:29Z</time>
      </trkpt>
      <trkpt lat="43.97245" lon="1.88919">
        <ele>232.6</ele>
        <time>2023-07-23T05:25:30Z</time>
      </trkpt>
      <trkpt lat="43.97245" lon="1.88921">
        <ele>232.8</ele>
        <time>2023-07-23T05:25:31Z</time>
      </trkpt>
      <trkpt lat="43.97245" lon="1.88923">
        <ele>233</ele>
        <time>2023-07-23T05:25:32Z</time>
      </trkpt>
      <trkpt lat="43.97246" lon="1.88925">
        <ele>233.2</ele>
        <time>2023-07-23T05:25:33Z</time>
      </trkpt>
      <trkpt lat="43.97246" lon="1.88927">
        <ele>233.2</ele>
        <time>2023-07-23T05:25:34Z</time>
      </trkpt>
      <trkpt lat="43.97247" lon="1.88929">
        <ele>233.4</ele>
        <time>2023-07-23T05:25:35Z</time>
      </trkpt>
      <trkpt lat="43.97247" lon="1.88932">
        <ele>233.8</ele>
        <time>2023-07-23T05:25:36Z</time>
      </trkpt>
      <trkpt lat="43.97247" lon="1.88934">
        <ele>234</ele>
        <time>2023-07-23T05:25:37Z</time>
      </trkpt>
      <trkpt lat="43.97248" lon="1.88936">
        <ele>234.2</ele>
        <time>2023-07-23T05:25:38Z</time>
      </trkpt>
      <trkpt lat="43.97248" lon="1.88939">
        <ele>234.2</ele>
        <time>2023-07-23T05:25:39Z</time>
      </trkpt>
      <trkpt lat="43.97248" lon="1.8894">
        <ele>234.2</ele>
        <time>2023-07-23T05:25:40Z</time>
      </trkpt>
      <trkpt lat="43.97248" lon="1.88943">
        <ele>234.4</ele>
        <time>2023-07-23T05:25:41Z</time>
      </trkpt>
      <trkpt lat="43.97249" lon="1.88945">
        <ele>234.4</ele>
        <time>2023-07-23T05:25:42Z</time>
      </trkpt>
      <trkpt lat="43.97249" lon="1.88947">
        <ele>234.4</ele>
        <time>2023-07-23T05:25:43Z</time>
      </trkpt>
      <trkpt lat="43.9725" lon="1.88949">
        <ele>234.6</ele>
        <time>2023-07-23T05:25:44Z</time>
      </trkpt>
      <trkpt lat="43.9725" lon="1.88951">
        <ele>234.8</ele>
        <time>2023-07-23T05:25:45Z</time>
      </trkpt>
      <trkpt lat="43.9725" lon="1.88954">
        <ele>235</ele>
        <time>2023-07-23T05:25:46Z</time>
      </trkpt>
      <trkpt lat="43.97251" lon="1.88956">
        <ele>235</ele>
        <time>2023-07-23T05:25:47Z</time>
      </trkpt>
      <trkpt lat="43.97251" lon="1.88958">
        <ele>235.2</ele>
        <time>2023-07-23T05:25:48Z</time>
      </trkpt>
      <trkpt lat="43.97252" lon="1.8896">
        <ele>235.2</ele>
        <time>2023-07-23T05:25:49Z</time>
      </trkpt>
      <trkpt lat="43.97252" lon="1.88963">
        <ele>235.2</ele>
        <time>2023-07-23T05:25:50Z</time>
      </trkpt>
      <trkpt lat="43.97252" lon="1.88965">
        <ele>235.4</ele>
        <time>2023-07-23T05:25:51Z</time>
      </trkpt>
      <trkpt lat="43.97253" lon="1.88967">
        <ele>235.4</ele>
        <time>2023-07-23T05:25:52Z</time>
      </trkpt>
      <trkpt lat="43.97253" lon="1.8897">
        <ele>235.6</ele>
        <time>2023-07-23T05:25:53Z</time>
      </trkpt>
      <trkpt lat="43.97254" lon="1.88972">
        <ele>235.6</ele>
        <time>2023-07-23T05:25:54Z</time>
      </trkpt>
      <trkpt lat="43.97254" lon="1.88974">
        <ele>235.6</ele>
        <time>2023-07-23T05:25:55Z</time>
      </trkpt>
      <trkpt lat="43.97255" lon="1.88977">
        <ele>235.8</ele>
        <time>2023-07-23T05:25:56Z</time>
      </trkpt>
      <trkpt lat="43.97255" lon="1.88979">
        <ele>235.8</ele>
        <time>2023-07-23T05:25:57Z</time>
      </trkpt>
      <trkpt lat="43.97256" lon="1.88981">
        <ele>235.8</ele>
        <time>2023-07-23T05:25:58Z</time>
      </trkpt>
      <trkpt lat="43.97256" lon="1.88984">
        <ele>235.8</ele>
        <time>2023-07-23T05:25:59Z</time>
      </trkpt>
      <trkpt lat="43.97257" lon="1.88986">
        <ele>236</ele>
        <time>2023-07-23T05:26:00Z</time>
      </trkpt>
      <trkpt lat="43.97257" lon="1.88988">
        <ele>236</ele>
        <time>2023-07-23T05:26:01Z</time>
      </trkpt>
      <trkpt lat="43.97257" lon="1.88991">
        <ele>236.2</ele>
        <time>2023-07-23T05:26:02Z</time>
      </trkpt>
      <trkpt lat="43.97258" lon="1.88993">
        <ele>236.2</ele>
        <time>2023-07-23T05:26:03Z</time>
      </trkpt>
      <trkpt lat="43.97258" lon="1.88995">
        <ele>236.4</ele>
        <time>2023-07-23T05:26:04Z</time>
      </trkpt>
      <trkpt lat="43.97259" lon="1.88998">
        <ele>236.4</ele>
        <time>2023-07-23T05:26:05Z</time>
      </trkpt>
      <trkpt lat="43.9726" lon="1.89005">
        <ele>236.6</ele>
        <time>2023-07-23T05:26:08Z</time>
      </trkpt>
      <trkpt lat="43.97262" lon="1.89011">
        <ele>237</ele>
        <time>2023-07-23T05:26:11Z</time>
      </trkpt>
      <trkpt lat="43.97263" lon="1.89018">
        <ele>237.2</ele>
        <time>2023-07-23T05:26:14Z</time>
      </trkpt>
      <trkpt lat="43.97267" lon="1.89032">
        <ele>237.6</ele>
        <time>2023-07-23T05:26:20Z</time>
      </trkpt>
      <trkpt lat="43.9727" lon="1.89042">
        <ele>238.2</ele>
        <time>2023-07-23T05:26:25Z</time>
      </trkpt>
      <trkpt lat="43.9727" lon="1.89044">
        <ele>238.2</ele>
        <time>2023-07-23T05:26:26Z</time>
      </trkpt>
      <trkpt lat="43.97271" lon="1.89047">
        <ele>238.4</ele>
        <time>2023-07-23T05:26:27Z</time>
      </trkpt>
      <trkpt lat="43.97271" lon="1.89049">
        <ele>238.4</ele>
        <time>2023-07-23T05:26:28Z</time>
      </trkpt>
      <trkpt lat="43.97272" lon="1.89051">
        <ele>238.6</ele>
        <time>2023-07-23T05:26:29Z</time>
      </trkpt>
      <trkpt lat="43.97274" lon="1.89059">
        <ele>239.4</ele>
        <time>2023-07-23T05:26:33Z</time>
      </trkpt>
      <trkpt lat="43.97276" lon="1.89068">
        <ele>239.8</ele>
        <time>2023-07-23T05:26:37Z</time>
      </trkpt>
      <trkpt lat="43.97277" lon="1.8907">
        <ele>240</ele>
        <time>2023-07-23T05:26:38Z</time>
      </trkpt>
      <trkpt lat="43.97277" lon="1.89073">
        <ele>240.2</ele>
        <time>2023-07-23T05:26:39Z</time>
      </trkpt>
      <trkpt lat="43.97278" lon="1.89075">
        <ele>240.4</ele>
        <time>2023-07-23T05:26:40Z</time>
      </trkpt>
      <trkpt lat="43.97278" lon="1.89077">
        <ele>240.4</ele>
        <time>2023-07-23T05:26:41Z</time>
      </trkpt>
      <trkpt lat="43.97279" lon="1.89079">
        <ele>240.6</ele>
        <time>2023-07-23T05:26:42Z</time>
      </trkpt>
      <trkpt lat="43.9728" lon="1.89081">
        <ele>240.6</ele>
        <time>2023-07-23T05:26:43Z</time>
      </trkpt>
      <trkpt lat="43.97281" lon="1.89083">
        <ele>240.8</ele>
        <time>2023-07-23T05:26:44Z</time>
      </trkpt>
      <trkpt lat="43.97281" lon="1.89085">
        <ele>240.8</ele>
        <time>2023-07-23T05:26:45Z</time>
      </trkpt>
      <trkpt lat="43.97282" lon="1.89087">
        <ele>241</ele>
        <time>2023-07-23T05:26:46Z</time>
      </trkpt>
      <trkpt lat="43.97282" lon="1.89089">
        <ele>241.2</ele>
        <time>2023-07-23T05:26:47Z</time>
      </trkpt>
      <trkpt lat="43.97283" lon="1.89091">
        <ele>241.2</ele>
        <time>2023-07-23T05:26:48Z</time>
      </trkpt>
      <trkpt lat="43.97284" lon="1.89094">
        <ele>241.4</ele>
        <time>2023-07-23T05:26:49Z</time>
      </trkpt>
      <trkpt lat="43.97285" lon="1.89096">
        <ele>241.4</ele>
        <time>2023-07-23T05:26:50Z</time>
      </trkpt>
      <trkpt lat="43.97285" lon="1.89098">
        <ele>241.6</ele>
        <time>2023-07-23T05:26:51Z</time>
      </trkpt>
      <trkpt lat="43.97286" lon="1.891">
        <ele>241.8</ele>
        <time>2023-07-23T05:26:52Z</time>
      </trkpt>
      <trkpt lat="43.97287" lon="1.89102">
        <ele>241.8</ele>
        <time>2023-07-23T05:26:53Z</time>
      </trkpt>
      <trkpt lat="43.97287" lon="1.89104">
        <ele>242</ele>
        <time>2023-07-23T05:26:54Z</time>
      </trkpt>
      <trkpt lat="43.97288" lon="1.89106">
        <ele>242.2</ele>
        <time>2023-07-23T05:26:55Z</time>
      </trkpt>
      <trkpt lat="43.97289" lon="1.89109">
        <ele>242.4</ele>
        <time>2023-07-23T05:26:56Z</time>
      </trkpt>
      <trkpt lat="43.9729" lon="1.89111">
        <ele>242.4</ele>
        <time>2023-07-23T05:26:57Z</time>
      </trkpt>
      <trkpt lat="43.97291" lon="1.89113">
        <ele>242.6</ele>
        <time>2023-07-23T05:26:58Z</time>
      </trkpt>
      <trkpt lat="43.97291" lon="1.89115">
        <ele>242.8</ele>
        <time>2023-07-23T05:26:59Z</time>
      </trkpt>
      <trkpt lat="43.97292" lon="1.89117">
        <ele>243</ele>
        <time>2023-07-23T05:27:00Z</time>
      </trkpt>
      <trkpt lat="43.97293" lon="1.8912">
        <ele>243.2</ele>
        <time>2023-07-23T05:27:01Z</time>
      </trkpt>
      <trkpt lat="43.97294" lon="1.89122">
        <ele>243.2</ele>
        <time>2023-07-23T05:27:02Z</time>
      </trkpt>
      <trkpt lat="43.97295" lon="1.89124">
        <ele>243.2</ele>
        <time>2023-07-23T05:27:03Z</time>
      </trkpt>
      <trkpt lat="43.97295" lon="1.89126">
        <ele>243.4</ele>
        <time>2023-07-23T05:27:04Z</time>
      </trkpt>
      <trkpt lat="43.97296" lon="1.89128">
        <ele>243.6</ele>
        <time>2023-07-23T05:27:05Z</time>
      </trkpt>
      <trkpt lat="43.97297" lon="1.8913">
        <ele>243.6</ele>
        <time>2023-07-23T05:27:06Z</time>
      </trkpt>
      <trkpt lat="43.97298" lon="1.89132">
        <ele>243.8</ele>
        <time>2023-07-23T05:27:07Z</time>
      </trkpt>
      <trkpt lat="43.97299" lon="1.89135">
        <ele>244</ele>
        <time>2023-07-23T05:27:08Z</time>
      </trkpt>
      <trkpt lat="43.97299" lon="1.89137">
        <ele>244</ele>
        <time>2023-07-23T05:27:09Z</time>
      </trkpt>
      <trkpt lat="43.973" lon="1.89139">
        <ele>244</ele>
        <time>2023-07-23T05:27:10Z</time>
      </trkpt>
      <trkpt lat="43.97301" lon="1.89142">
        <ele>244.2</ele>
        <time>2023-07-23T05:27:11Z</time>
      </trkpt>
      <trkpt lat="43.97301" lon="1.89144">
        <ele>244.2</ele>
        <time>2023-07-23T05:27:12Z</time>
      </trkpt>
      <trkpt lat="43.97302" lon="1.89146">
        <ele>244.2</ele>
        <time>2023-07-23T05:27:13Z</time>
      </trkpt>
      <trkpt lat="43.97303" lon="1.89149">
        <ele>244.4</ele>
        <time>2023-07-23T05:27:14Z</time>
      </trkpt>
      <trkpt lat="43.97303" lon="1.89152">
        <ele>244.6</ele>
        <time>2023-07-23T05:27:15Z</time>
      </trkpt>
      <trkpt lat="43.97304" lon="1.89154">
        <ele>244.6</ele>
        <time>2023-07-23T05:27:16Z</time>
      </trkpt>
      <trkpt lat="43.97304" lon="1.89157">
        <ele>244.6</ele>
        <time>2023-07-23T05:27:17Z</time>
      </trkpt>
      <trkpt lat="43.97305" lon="1.8916">
        <ele>244.8</ele>
        <time>2023-07-23T05:27:18Z</time>
      </trkpt>
      <trkpt lat="43.97305" lon="1.89162">
        <ele>245</ele>
        <time>2023-07-23T05:27:19Z</time>
      </trkpt>
      <trkpt lat="43.97305" lon="1.89165">
        <ele>245</ele>
        <time>2023-07-23T05:27:20Z</time>
      </trkpt>
      <trkpt lat="43.97306" lon="1.89168">
        <ele>245.2</ele>
        <time>2023-07-23T05:27:21Z</time>
      </trkpt>
      <trkpt lat="43.97306" lon="1.89171">
        <ele>245.2</ele>
        <time>2023-07-23T05:27:22Z</time>
      </trkpt>
      <trkpt lat="43.97306" lon="1.89175">
        <ele>245.2</ele>
        <time>2023-07-23T05:27:23Z</time>
      </trkpt>
      <trkpt lat="43.97307" lon="1.89178">
        <ele>245.4</ele>
        <time>2023-07-23T05:27:24Z</time>
      </trkpt>
      <trkpt lat="43.97307" lon="1.8918">
        <ele>245.4</ele>
        <time>2023-07-23T05:27:25Z</time>
      </trkpt>
      <trkpt lat="43.97308" lon="1.89183">
        <ele>245.4</ele>
        <time>2023-07-23T05:27:26Z</time>
      </trkpt>
      <trkpt lat="43.97308" lon="1.89187">
        <ele>245.6</ele>
        <time>2023-07-23T05:27:27Z</time>
      </trkpt>
      <trkpt lat="43.97308" lon="1.8919">
        <ele>245.6</ele>
        <time>2023-07-23T05:27:28Z</time>
      </trkpt>
      <trkpt lat="43.97308" lon="1.89193">
        <ele>245.6</ele>
        <time>2023-07-23T05:27:29Z</time>
      </trkpt>
      <trkpt lat="43.97309" lon="1.89196">
        <ele>245.6</ele>
        <time>2023-07-23T05:27:30Z</time>
      </trkpt>
      <trkpt lat="43.97309" lon="1.89199">
        <ele>245.6</ele>
        <time>2023-07-23T05:27:31Z</time>
      </trkpt>
      <trkpt lat="43.9731" lon="1.89217">
        <ele>246</ele>
        <time>2023-07-23T05:27:37Z</time>
      </trkpt>
      <trkpt lat="43.97311" lon="1.89221">
        <ele>246.2</ele>
        <time>2023-07-23T05:27:38Z</time>
      </trkpt>
      <trkpt lat="43.97312" lon="1.89243">
        <ele>247</ele>
        <time>2023-07-23T05:27:45Z</time>
      </trkpt>
      <trkpt lat="43.97313" lon="1.89258">
        <ele>247.8</ele>
        <time>2023-07-23T05:27:50Z</time>
      </trkpt>
      <trkpt lat="43.97313" lon="1.89261">
        <ele>248.2</ele>
        <time>2023-07-23T05:27:51Z</time>
      </trkpt>
      <trkpt lat="43.97313" lon="1.89264">
        <ele>248.2</ele>
        <time>2023-07-23T05:27:52Z</time>
      </trkpt>
      <trkpt lat="43.97313" lon="1.89267">
        <ele>248.4</ele>
        <time>2023-07-23T05:27:53Z</time>
      </trkpt>
      <trkpt lat="43.97314" lon="1.8927">
        <ele>248.6</ele>
        <time>2023-07-23T05:27:54Z</time>
      </trkpt>
      <trkpt lat="43.97314" lon="1.89272">
        <ele>248.6</ele>
        <time>2023-07-23T05:27:55Z</time>
      </trkpt>
      <trkpt lat="43.97314" lon="1.89275">
        <ele>248.8</ele>
        <time>2023-07-23T05:27:56Z</time>
      </trkpt>
      <trkpt lat="43.97314" lon="1.89278">
        <ele>249</ele>
        <time>2023-07-23T05:27:57Z</time>
      </trkpt>
      <trkpt lat="43.97314" lon="1.89281">
        <ele>249.2</ele>
        <time>2023-07-23T05:27:58Z</time>
      </trkpt>
      <trkpt lat="43.97314" lon="1.89284">
        <ele>249.4</ele>
        <time>2023-07-23T05:27:59Z</time>
      </trkpt>
      <trkpt lat="43.97314" lon="1.89287">
        <ele>249.6</ele>
        <time>2023-07-23T05:28:00Z</time>
      </trkpt>
      <trkpt lat="43.97314" lon="1.89291">
        <ele>249.8</ele>
        <time>2023-07-23T05:28:01Z</time>
      </trkpt>
      <trkpt lat="43.97314" lon="1.89294">
        <ele>249.8</ele>
        <time>2023-07-23T05:28:02Z</time>
      </trkpt>
      <trkpt lat="43.97314" lon="1.89297">
        <ele>250</ele>
        <time>2023-07-23T05:28:03Z</time>
      </trkpt>
      <trkpt lat="43.97314" lon="1.89299">
        <ele>250.2</ele>
        <time>2023-07-23T05:28:04Z</time>
      </trkpt>
      <trkpt lat="43.97314" lon="1.89302">
        <ele>250.4</ele>
        <time>2023-07-23T05:28:05Z</time>
      </trkpt>
      <trkpt lat="43.97314" lon="1.89305">
        <ele>250.4</ele>
        <time>2023-07-23T05:28:06Z</time>
      </trkpt>
      <trkpt lat="43.97314" lon="1.89308">
        <ele>250.6</ele>
        <time>2023-07-23T05:28:07Z</time>
      </trkpt>
      <trkpt lat="43.97315" lon="1.89311">
        <ele>250.6</ele>
        <time>2023-07-23T05:28:08Z</time>
      </trkpt>
      <trkpt lat="43.97315" lon="1.89314">
        <ele>250.8</ele>
        <time>2023-07-23T05:28:09Z</time>
      </trkpt>
      <trkpt lat="43.97316" lon="1.89318">
        <ele>251</ele>
        <time>2023-07-23T05:28:10Z</time>
      </trkpt>
      <trkpt lat="43.97316" lon="1.89321">
        <ele>251</ele>
        <time>2023-07-23T05:28:11Z</time>
      </trkpt>
      <trkpt lat="43.97317" lon="1.89325">
        <ele>251.2</ele>
        <time>2023-07-23T05:28:12Z</time>
      </trkpt>
      <trkpt lat="43.97318" lon="1.89328">
        <ele>251.2</ele>
        <time>2023-07-23T05:28:13Z</time>
      </trkpt>
      <trkpt lat="43.9732" lon="1.89332">
        <ele>251.2</ele>
        <time>2023-07-23T05:28:14Z</time>
      </trkpt>
      <trkpt lat="43.97321" lon="1.89335">
        <ele>251.2</ele>
        <time>2023-07-23T05:28:15Z</time>
      </trkpt>
      <trkpt lat="43.97322" lon="1.89339">
        <ele>251.4</ele>
        <time>2023-07-23T05:28:16Z</time>
      </trkpt>
      <trkpt lat="43.97323" lon="1.89342">
        <ele>251.4</ele>
        <time>2023-07-23T05:28:17Z</time>
      </trkpt>
      <trkpt lat="43.97325" lon="1.89345">
        <ele>251.4</ele>
        <time>2023-07-23T05:28:18Z</time>
      </trkpt>
      <trkpt lat="43.97326" lon="1.89348">
        <ele>251.4</ele>
        <time>2023-07-23T05:28:19Z</time>
      </trkpt>
      <trkpt lat="43.97328" lon="1.89352">
        <ele>251.4</ele>
        <time>2023-07-23T05:28:20Z</time>
      </trkpt>
      <trkpt lat="43.9733" lon="1.89355">
        <ele>251.4</ele>
        <time>2023-07-23T05:28:21Z</time>
      </trkpt>
      <trkpt lat="43.97332" lon="1.89358">
        <ele>251.4</ele>
        <time>2023-07-23T05:28:22Z</time>
      </trkpt>
      <trkpt lat="43.97335" lon="1.89362">
        <ele>251.4</ele>
        <time>2023-07-23T05:28:23Z</time>
      </trkpt>
      <trkpt lat="43.97337" lon="1.89366">
        <ele>251.4</ele>
        <time>2023-07-23T05:28:24Z</time>
      </trkpt>
      <trkpt lat="43.9734" lon="1.89371">
        <ele>251.4</ele>
        <time>2023-07-23T05:28:25Z</time>
      </trkpt>
      <trkpt lat="43.97342" lon="1.89374">
        <ele>251.4</ele>
        <time>2023-07-23T05:28:26Z</time>
      </trkpt>
      <trkpt lat="43.97345" lon="1.89378">
        <ele>251.4</ele>
        <time>2023-07-23T05:28:27Z</time>
      </trkpt>
      <trkpt lat="43.97353" lon="1.89387">
        <ele>251.2</ele>
        <time>2023-07-23T05:28:30Z</time>
      </trkpt>
      <trkpt lat="43.97355" lon="1.8939">
        <ele>251</ele>
        <time>2023-07-23T05:28:31Z</time>
      </trkpt>
      <trkpt lat="43.97358" lon="1.89391">
        <ele>250.8</ele>
        <time>2023-07-23T05:28:32Z</time>
      </trkpt>
      <trkpt lat="43.9736" lon="1.89392">
        <ele>250.8</ele>
        <time>2023-07-23T05:28:33Z</time>
      </trkpt>
      <trkpt lat="43.97363" lon="1.89392">
        <ele>251</ele>
        <time>2023-07-23T05:28:34Z</time>
      </trkpt>
      <trkpt lat="43.97365" lon="1.89394">
        <ele>250.8</ele>
        <time>2023-07-23T05:28:35Z</time>
      </trkpt>
      <trkpt lat="43.97367" lon="1.89396">
        <ele>250.8</ele>
        <time>2023-07-23T05:28:36Z</time>
      </trkpt>
      <trkpt lat="43.97369" lon="1.89398">
        <ele>250.6</ele>
        <time>2023-07-23T05:28:37Z</time>
      </trkpt>
      <trkpt lat="43.97372" lon="1.894">
        <ele>250.6</ele>
        <time>2023-07-23T05:28:38Z</time>
      </trkpt>
      <trkpt lat="43.97385" lon="1.89414">
        <ele>249.4</ele>
        <time>2023-07-23T05:28:42Z</time>
      </trkpt>
      <trkpt lat="43.97393" lon="1.89421">
        <ele>248.8</ele>
        <time>2023-07-23T05:28:44Z</time>
      </trkpt>
      <trkpt lat="43.97401" lon="1.89429">
        <ele>248</ele>
        <time>2023-07-23T05:28:46Z</time>
      </trkpt>
      <trkpt lat="43.97409" lon="1.89436">
        <ele>247</ele>
        <time>2023-07-23T05:28:48Z</time>
      </trkpt>
      <trkpt lat="43.97413" lon="1.89439">
        <ele>246.4</ele>
        <time>2023-07-23T05:28:49Z</time>
      </trkpt>
      <trkpt lat="43.97421" lon="1.89447">
        <ele>245.4</ele>
        <time>2023-07-23T05:28:51Z</time>
      </trkpt>
      <trkpt lat="43.97425" lon="1.8945">
        <ele>245.2</ele>
        <time>2023-07-23T05:28:52Z</time>
      </trkpt>
      <trkpt lat="43.97432" lon="1.89457">
        <ele>244</ele>
        <time>2023-07-23T05:28:54Z</time>
      </trkpt>
      <trkpt lat="43.97435" lon="1.8946">
        <ele>243.2</ele>
        <time>2023-07-23T05:28:55Z</time>
      </trkpt>
      <trkpt lat="43.97439" lon="1.89463">
        <ele>242.6</ele>
        <time>2023-07-23T05:28:56Z</time>
      </trkpt>
      <trkpt lat="43.97442" lon="1.89466">
        <ele>242.2</ele>
        <time>2023-07-23T05:28:57Z</time>
      </trkpt>
      <trkpt lat="43.97446" lon="1.8947">
        <ele>241.4</ele>
        <time>2023-07-23T05:28:58Z</time>
      </trkpt>
      <trkpt lat="43.9745" lon="1.89473">
        <ele>241.2</ele>
        <time>2023-07-23T05:28:59Z</time>
      </trkpt>
      <trkpt lat="43.97453" lon="1.89476">
        <ele>240.6</ele>
        <time>2023-07-23T05:29:00Z</time>
      </trkpt>
      <trkpt lat="43.97461" lon="1.89483">
        <ele>240.2</ele>
        <time>2023-07-23T05:29:02Z</time>
      </trkpt>
      <trkpt lat="43.97473" lon="1.89493">
        <ele>238.6</ele>
        <time>2023-07-23T05:29:05Z</time>
      </trkpt>
      <trkpt lat="43.97485" lon="1.89504">
        <ele>237.2</ele>
        <time>2023-07-23T05:29:08Z</time>
      </trkpt>
      <trkpt lat="43.97488" lon="1.89508">
        <ele>236.6</ele>
        <time>2023-07-23T05:29:09Z</time>
      </trkpt>
      <trkpt lat="43.97496" lon="1.89516">
        <ele>236.2</ele>
        <time>2023-07-23T05:29:11Z</time>
      </trkpt>
      <trkpt lat="43.97508" lon="1.89527">
        <ele>235</ele>
        <time>2023-07-23T05:29:14Z</time>
      </trkpt>
      <trkpt lat="43.97518" lon="1.89537">
        <ele>233.8</ele>
        <time>2023-07-23T05:29:17Z</time>
      </trkpt>
      <trkpt lat="43.97521" lon="1.89541">
        <ele>233.2</ele>
        <time>2023-07-23T05:29:18Z</time>
      </trkpt>
      <trkpt lat="43.97524" lon="1.89544">
        <ele>232.8</ele>
        <time>2023-07-23T05:29:19Z</time>
      </trkpt>
      <trkpt lat="43.97527" lon="1.89548">
        <ele>232.6</ele>
        <time>2023-07-23T05:29:20Z</time>
      </trkpt>
      <trkpt lat="43.9753" lon="1.89552">
        <ele>232.4</ele>
        <time>2023-07-23T05:29:21Z</time>
      </trkpt>
      <trkpt lat="43.97533" lon="1.89555">
        <ele>232</ele>
        <time>2023-07-23T05:29:22Z</time>
      </trkpt>
      <trkpt lat="43.97535" lon="1.89559">
        <ele>231.6</ele>
        <time>2023-07-23T05:29:23Z</time>
      </trkpt>
      <trkpt lat="43.97537" lon="1.89561">
        <ele>231.4</ele>
        <time>2023-07-23T05:29:24Z</time>
      </trkpt>
      <trkpt lat="43.97538" lon="1.89563">
        <ele>231.2</ele>
        <time>2023-07-23T05:29:25Z</time>
      </trkpt>
      <trkpt lat="43.97539" lon="1.89564">
        <ele>231.2</ele>
        <time>2023-07-23T05:29:26Z</time>
      </trkpt>
      <trkpt lat="43.9754" lon="1.89566">
        <ele>231</ele>
        <time>2023-07-23T05:29:27Z</time>
      </trkpt>
      <trkpt lat="43.97541" lon="1.89568">
        <ele>231</ele>
        <time>2023-07-23T05:29:28Z</time>
      </trkpt>
      <trkpt lat="43.97542" lon="1.8957">
        <ele>230.8</ele>
        <time>2023-07-23T05:29:29Z</time>
      </trkpt>
      <trkpt lat="43.97549" lon="1.89583">
        <ele>230.4</ele>
        <time>2023-07-23T05:29:34Z</time>
      </trkpt>
      <trkpt lat="43.97555" lon="1.89593">
        <ele>230</ele>
        <time>2023-07-23T05:29:38Z</time>
      </trkpt>
      <trkpt lat="43.97566" lon="1.89614">
        <ele>229.4</ele>
        <time>2023-07-23T05:29:44Z</time>
      </trkpt>
      <trkpt lat="43.97574" lon="1.89629">
        <ele>229</ele>
        <time>2023-07-23T05:29:48Z</time>
      </trkpt>
      <trkpt lat="43.97584" lon="1.89656">
        <ele>228.4</ele>
        <time>2023-07-23T05:29:54Z</time>
      </trkpt>
      <trkpt lat="43.9759" lon="1.89672">
        <ele>227.6</ele>
        <time>2023-07-23T05:29:57Z</time>
      </trkpt>
      <trkpt lat="43.97592" lon="1.89678">
        <ele>227</ele>
        <time>2023-07-23T05:29:58Z</time>
      </trkpt>
      <trkpt lat="43.97601" lon="1.897">
        <ele>226.4</ele>
        <time>2023-07-23T05:30:02Z</time>
      </trkpt>
      <trkpt lat="43.97606" lon="1.8971">
        <ele>226</ele>
        <time>2023-07-23T05:30:04Z</time>
      </trkpt>
      <trkpt lat="43.9761" lon="1.89716">
        <ele>225.8</ele>
        <time>2023-07-23T05:30:05Z</time>
      </trkpt>
      <trkpt lat="43.97617" lon="1.89727">
        <ele>224.8</ele>
        <time>2023-07-23T05:30:07Z</time>
      </trkpt>
      <trkpt lat="43.97633" lon="1.89747">
        <ele>223.8</ele>
        <time>2023-07-23T05:30:11Z</time>
      </trkpt>
      <trkpt lat="43.97637" lon="1.89752">
        <ele>223.4</ele>
        <time>2023-07-23T05:30:12Z</time>
      </trkpt>
      <trkpt lat="43.97644" lon="1.89763">
        <ele>222.4</ele>
        <time>2023-07-23T05:30:14Z</time>
      </trkpt>
      <trkpt lat="43.97656" lon="1.89777">
        <ele>221.2</ele>
        <time>2023-07-23T05:30:17Z</time>
      </trkpt>
      <trkpt lat="43.97669" lon="1.89791">
        <ele>220</ele>
        <time>2023-07-23T05:30:20Z</time>
      </trkpt>
      <trkpt lat="43.97678" lon="1.89803">
        <ele>218.8</ele>
        <time>2023-07-23T05:30:22Z</time>
      </trkpt>
      <trkpt lat="43.97687" lon="1.89812">
        <ele>217.8</ele>
        <time>2023-07-23T05:30:24Z</time>
      </trkpt>
      <trkpt lat="43.97699" lon="1.89828">
        <ele>216.6</ele>
        <time>2023-07-23T05:30:27Z</time>
      </trkpt>
      <trkpt lat="43.97702" lon="1.89834">
        <ele>215.4</ele>
        <time>2023-07-23T05:30:28Z</time>
      </trkpt>
      <trkpt lat="43.97706" lon="1.89839">
        <ele>215.2</ele>
        <time>2023-07-23T05:30:29Z</time>
      </trkpt>
      <trkpt lat="43.97711" lon="1.89851">
        <ele>214.4</ele>
        <time>2023-07-23T05:30:31Z</time>
      </trkpt>
      <trkpt lat="43.97714" lon="1.89857">
        <ele>214.2</ele>
        <time>2023-07-23T05:30:32Z</time>
      </trkpt>
      <trkpt lat="43.97716" lon="1.89862">
        <ele>214</ele>
        <time>2023-07-23T05:30:33Z</time>
      </trkpt>
      <trkpt lat="43.97719" lon="1.89868">
        <ele>213.8</ele>
        <time>2023-07-23T05:30:34Z</time>
      </trkpt>
      <trkpt lat="43.97721" lon="1.89874">
        <ele>213.6</ele>
        <time>2023-07-23T05:30:35Z</time>
      </trkpt>
      <trkpt lat="43.97724" lon="1.8988">
        <ele>213.4</ele>
        <time>2023-07-23T05:30:36Z</time>
      </trkpt>
      <trkpt lat="43.97727" lon="1.89885">
        <ele>213.2</ele>
        <time>2023-07-23T05:30:37Z</time>
      </trkpt>
      <trkpt lat="43.97729" lon="1.89891">
        <ele>213</ele>
        <time>2023-07-23T05:30:38Z</time>
      </trkpt>
      <trkpt lat="43.97732" lon="1.89898">
        <ele>212.8</ele>
        <time>2023-07-23T05:30:39Z</time>
      </trkpt>
      <trkpt lat="43.97742" lon="1.89925">
        <ele>212</ele>
        <time>2023-07-23T05:30:43Z</time>
      </trkpt>
      <trkpt lat="43.97748" lon="1.89939">
        <ele>211.4</ele>
        <time>2023-07-23T05:30:45Z</time>
      </trkpt>
      <trkpt lat="43.97752" lon="1.89946">
        <ele>211</ele>
        <time>2023-07-23T05:30:46Z</time>
      </trkpt>
      <trkpt lat="43.97771" lon="1.89976">
        <ele>209.8</ele>
        <time>2023-07-23T05:30:51Z</time>
      </trkpt>
      <trkpt lat="43.97781" lon="1.89992">
        <ele>209.4</ele>
        <time>2023-07-23T05:30:54Z</time>
      </trkpt>
      <trkpt lat="43.97784" lon="1.89997">
        <ele>209.2</ele>
        <time>2023-07-23T05:30:55Z</time>
      </trkpt>
      <trkpt lat="43.97787" lon="1.90003">
        <ele>209.2</ele>
        <time>2023-07-23T05:30:56Z</time>
      </trkpt>
      <trkpt lat="43.9779" lon="1.90009">
        <ele>208.8</ele>
        <time>2023-07-23T05:30:57Z</time>
      </trkpt>
      <trkpt lat="43.97792" lon="1.90016">
        <ele>208.6</ele>
        <time>2023-07-23T05:30:58Z</time>
      </trkpt>
      <trkpt lat="43.97794" lon="1.90023">
        <ele>208.4</ele>
        <time>2023-07-23T05:30:59Z</time>
      </trkpt>
      <trkpt lat="43.97796" lon="1.9003">
        <ele>208.4</ele>
        <time>2023-07-23T05:31:00Z</time>
      </trkpt>
      <trkpt lat="43.97798" lon="1.90041">
        <ele>208</ele>
        <time>2023-07-23T05:31:02Z</time>
      </trkpt>
      <trkpt lat="43.97797" lon="1.90048">
        <ele>208</ele>
        <time>2023-07-23T05:31:03Z</time>
      </trkpt>
      <trkpt lat="43.97796" lon="1.90051">
        <ele>207.8</ele>
        <time>2023-07-23T05:31:04Z</time>
      </trkpt>
      <trkpt lat="43.97794" lon="1.90055">
        <ele>207.8</ele>
        <time>2023-07-23T05:31:05Z</time>
      </trkpt>
      <trkpt lat="43.97792" lon="1.90059">
        <ele>207.4</ele>
        <time>2023-07-23T05:31:06Z</time>
      </trkpt>
      <trkpt lat="43.97791" lon="1.90063">
        <ele>207.2</ele>
        <time>2023-07-23T05:31:07Z</time>
      </trkpt>
      <trkpt lat="43.97789" lon="1.90068">
        <ele>207</ele>
        <time>2023-07-23T05:31:08Z</time>
      </trkpt>
      <trkpt lat="43.97787" lon="1.90081">
        <ele>206.8</ele>
        <time>2023-07-23T05:31:11Z</time>
      </trkpt>
      <trkpt lat="43.97786" lon="1.90084">
        <ele>206.8</ele>
        <time>2023-07-23T05:31:12Z</time>
      </trkpt>
      <trkpt lat="43.97785" lon="1.90086">
        <ele>206.8</ele>
        <time>2023-07-23T05:31:13Z</time>
      </trkpt>
      <trkpt lat="43.97785" lon="1.90088">
        <ele>206.6</ele>
        <time>2023-07-23T05:31:14Z</time>
      </trkpt>
      <trkpt lat="43.97784" lon="1.9009">
        <ele>206.4</ele>
        <time>2023-07-23T05:31:15Z</time>
      </trkpt>
      <trkpt lat="43.97784" lon="1.90092">
        <ele>206.4</ele>
        <time>2023-07-23T05:31:16Z</time>
      </trkpt>
      <trkpt lat="43.97784" lon="1.90095">
        <ele>206.4</ele>
        <time>2023-07-23T05:31:17Z</time>
      </trkpt>
      <trkpt lat="43.97785" lon="1.90097">
        <ele>206.2</ele>
        <time>2023-07-23T05:31:18Z</time>
      </trkpt>
      <trkpt lat="43.97785" lon="1.901">
        <ele>206.4</ele>
        <time>2023-07-23T05:31:19Z</time>
      </trkpt>
      <trkpt lat="43.97786" lon="1.90102">
        <ele>206.2</ele>
        <time>2023-07-23T05:31:20Z</time>
      </trkpt>
      <trkpt lat="43.97792" lon="1.9012">
        <ele>206</ele>
        <time>2023-07-23T05:31:25Z</time>
      </trkpt>
      <trkpt lat="43.97796" lon="1.90126">
        <ele>206</ele>
        <time>2023-07-23T05:31:27Z</time>
      </trkpt>
      <trkpt lat="43.97799" lon="1.90129">
        <ele>206</ele>
        <time>2023-07-23T05:31:28Z</time>
      </trkpt>
      <trkpt lat="43.97803" lon="1.90131">
        <ele>206</ele>
        <time>2023-07-23T05:31:29Z</time>
      </trkpt>
      <trkpt lat="43.97806" lon="1.90132">
        <ele>206</ele>
        <time>2023-07-23T05:31:30Z</time>
      </trkpt>
      <trkpt lat="43.97809" lon="1.90133">
        <ele>206</ele>
        <time>2023-07-23T05:31:31Z</time>
      </trkpt>
      <trkpt lat="43.97826" lon="1.90138">
        <ele>206.4</ele>
        <time>2023-07-23T05:31:37Z</time>
      </trkpt>
      <trkpt lat="43.97829" lon="1.90139">
        <ele>206.6</ele>
        <time>2023-07-23T05:31:38Z</time>
      </trkpt>
      <trkpt lat="43.9783" lon="1.90139">
        <ele>206.8</ele>
        <time>2023-07-23T05:31:39Z</time>
      </trkpt>
      <trkpt lat="43.97832" lon="1.9014">
        <ele>207</ele>
        <time>2023-07-23T05:31:40Z</time>
      </trkpt>
      <trkpt lat="43.97834" lon="1.90141">
        <ele>207.4</ele>
        <time>2023-07-23T05:31:41Z</time>
      </trkpt>
      <trkpt lat="43.97836" lon="1.90142">
        <ele>207.6</ele>
        <time>2023-07-23T05:31:42Z</time>
      </trkpt>
      <trkpt lat="43.9784" lon="1.90142">
        <ele>208.4</ele>
        <time>2023-07-23T05:31:44Z</time>
      </trkpt>
      <trkpt lat="43.97842" lon="1.90143">
        <ele>208.6</ele>
        <time>2023-07-23T05:31:45Z</time>
      </trkpt>
      <trkpt lat="43.97843" lon="1.90143">
        <ele>208.8</ele>
        <time>2023-07-23T05:31:46Z</time>
      </trkpt>
      <trkpt lat="43.97845" lon="1.90145">
        <ele>209</ele>
        <time>2023-07-23T05:31:47Z</time>
      </trkpt>
      <trkpt lat="43.97847" lon="1.90146">
        <ele>209.4</ele>
        <time>2023-07-23T05:31:48Z</time>
      </trkpt>
      <trkpt lat="43.97848" lon="1.90147">
        <ele>209.6</ele>
        <time>2023-07-23T05:31:49Z</time>
      </trkpt>
      <trkpt lat="43.9785" lon="1.90147">
        <ele>210</ele>
        <time>2023-07-23T05:31:50Z</time>
      </trkpt>
      <trkpt lat="43.97852" lon="1.90147">
        <ele>210.2</ele>
        <time>2023-07-23T05:31:51Z</time>
      </trkpt>
      <trkpt lat="43.97853" lon="1.90147">
        <ele>210.6</ele>
        <time>2023-07-23T05:31:52Z</time>
      </trkpt>
      <trkpt lat="43.97855" lon="1.90148">
        <ele>211</ele>
        <time>2023-07-23T05:31:53Z</time>
      </trkpt>
      <trkpt lat="43.97857" lon="1.90149">
        <ele>211</ele>
        <time>2023-07-23T05:31:54Z</time>
      </trkpt>
      <trkpt lat="43.97858" lon="1.9015">
        <ele>211.4</ele>
        <time>2023-07-23T05:31:55Z</time>
      </trkpt>
      <trkpt lat="43.9786" lon="1.9015">
        <ele>211.4</ele>
        <time>2023-07-23T05:31:56Z</time>
      </trkpt>
      <trkpt lat="43.97861" lon="1.90151">
        <ele>212</ele>
        <time>2023-07-23T05:31:57Z</time>
      </trkpt>
      <trkpt lat="43.97863" lon="1.90152">
        <ele>212.2</ele>
        <time>2023-07-23T05:31:58Z</time>
      </trkpt>
      <trkpt lat="43.97864" lon="1.90152">
        <ele>212.4</ele>
        <time>2023-07-23T05:31:59Z</time>
      </trkpt>
      <trkpt lat="43.97866" lon="1.90153">
        <ele>212.6</ele>
        <time>2023-07-23T05:32:00Z</time>
      </trkpt>
      <trkpt lat="43.97868" lon="1.90153">
        <ele>212.8</ele>
        <time>2023-07-23T05:32:01Z</time>
      </trkpt>
      <trkpt lat="43.97869" lon="1.90153">
        <ele>213</ele>
        <time>2023-07-23T05:32:02Z</time>
      </trkpt>
      <trkpt lat="43.97871" lon="1.90155">
        <ele>213.2</ele>
        <time>2023-07-23T05:32:03Z</time>
      </trkpt>
      <trkpt lat="43.97872" lon="1.90155">
        <ele>213.6</ele>
        <time>2023-07-23T05:32:04Z</time>
      </trkpt>
      <trkpt lat="43.97874" lon="1.90155">
        <ele>213.8</ele>
        <time>2023-07-23T05:32:05Z</time>
      </trkpt>
      <trkpt lat="43.97876" lon="1.90155">
        <ele>214</ele>
        <time>2023-07-23T05:32:06Z</time>
      </trkpt>
      <trkpt lat="43.97878" lon="1.90155">
        <ele>214.4</ele>
        <time>2023-07-23T05:32:07Z</time>
      </trkpt>
      <trkpt lat="43.9788" lon="1.90156">
        <ele>214.4</ele>
        <time>2023-07-23T05:32:08Z</time>
      </trkpt>
      <trkpt lat="43.97882" lon="1.90157">
        <ele>214.8</ele>
        <time>2023-07-23T05:32:09Z</time>
      </trkpt>
      <trkpt lat="43.97884" lon="1.90158">
        <ele>215</ele>
        <time>2023-07-23T05:32:10Z</time>
      </trkpt>
      <trkpt lat="43.97886" lon="1.90159">
        <ele>215.2</ele>
        <time>2023-07-23T05:32:11Z</time>
      </trkpt>
      <trkpt lat="43.97888" lon="1.90161">
        <ele>215.2</ele>
        <time>2023-07-23T05:32:12Z</time>
      </trkpt>
      <trkpt lat="43.9789" lon="1.90162">
        <ele>215.6</ele>
        <time>2023-07-23T05:32:13Z</time>
      </trkpt>
      <trkpt lat="43.97892" lon="1.90162">
        <ele>215.8</ele>
        <time>2023-07-23T05:32:14Z</time>
      </trkpt>
      <trkpt lat="43.97894" lon="1.90163">
        <ele>216</ele>
        <time>2023-07-23T05:32:15Z</time>
      </trkpt>
      <trkpt lat="43.97896" lon="1.90163">
        <ele>216.2</ele>
        <time>2023-07-23T05:32:16Z</time>
      </trkpt>
      <trkpt lat="43.97898" lon="1.90165">
        <ele>216.2</ele>
        <time>2023-07-23T05:32:17Z</time>
      </trkpt>
      <trkpt lat="43.979" lon="1.90167">
        <ele>216.6</ele>
        <time>2023-07-23T05:32:18Z</time>
      </trkpt>
      <trkpt lat="43.97902" lon="1.90169">
        <ele>216.8</ele>
        <time>2023-07-23T05:32:19Z</time>
      </trkpt>
      <trkpt lat="43.97904" lon="1.90171">
        <ele>217.2</ele>
        <time>2023-07-23T05:32:20Z</time>
      </trkpt>
      <trkpt lat="43.97906" lon="1.90172">
        <ele>217.2</ele>
        <time>2023-07-23T05:32:21Z</time>
      </trkpt>
      <trkpt lat="43.97907" lon="1.90173">
        <ele>217.4</ele>
        <time>2023-07-23T05:32:22Z</time>
      </trkpt>
      <trkpt lat="43.97909" lon="1.90175">
        <ele>217.6</ele>
        <time>2023-07-23T05:32:23Z</time>
      </trkpt>
      <trkpt lat="43.97911" lon="1.90177">
        <ele>217.6</ele>
        <time>2023-07-23T05:32:24Z</time>
      </trkpt>
      <trkpt lat="43.97913" lon="1.90179">
        <ele>217.8</ele>
        <time>2023-07-23T05:32:25Z</time>
      </trkpt>
      <trkpt lat="43.97915" lon="1.90181">
        <ele>218</ele>
        <time>2023-07-23T05:32:26Z</time>
      </trkpt>
      <trkpt lat="43.97917" lon="1.90183">
        <ele>218</ele>
        <time>2023-07-23T05:32:27Z</time>
      </trkpt>
      <trkpt lat="43.97919" lon="1.90185">
        <ele>218.2</ele>
        <time>2023-07-23T05:32:28Z</time>
      </trkpt>
      <trkpt lat="43.97921" lon="1.90187">
        <ele>218.2</ele>
        <time>2023-07-23T05:32:29Z</time>
      </trkpt>
      <trkpt lat="43.97924" lon="1.90189">
        <ele>218.2</ele>
        <time>2023-07-23T05:32:30Z</time>
      </trkpt>
      <trkpt lat="43.97927" lon="1.90191">
        <ele>218.2</ele>
        <time>2023-07-23T05:32:31Z</time>
      </trkpt>
      <trkpt lat="43.97929" lon="1.90194">
        <ele>218.2</ele>
        <time>2023-07-23T05:32:32Z</time>
      </trkpt>
      <trkpt lat="43.97932" lon="1.90197">
        <ele>218.2</ele>
        <time>2023-07-23T05:32:33Z</time>
      </trkpt>
      <trkpt lat="43.97935" lon="1.902">
        <ele>218.2</ele>
        <time>2023-07-23T05:32:34Z</time>
      </trkpt>
      <trkpt lat="43.97938" lon="1.90203">
        <ele>218.4</ele>
        <time>2023-07-23T05:32:35Z</time>
      </trkpt>
      <trkpt lat="43.97941" lon="1.90205">
        <ele>218.4</ele>
        <time>2023-07-23T05:32:36Z</time>
      </trkpt>
      <trkpt lat="43.97944" lon="1.90208">
        <ele>218.4</ele>
        <time>2023-07-23T05:32:37Z</time>
      </trkpt>
      <trkpt lat="43.97948" lon="1.9021">
        <ele>218.4</ele>
        <time>2023-07-23T05:32:38Z</time>
      </trkpt>
      <trkpt lat="43.97951" lon="1.90213">
        <ele>218.4</ele>
        <time>2023-07-23T05:32:39Z</time>
      </trkpt>
      <trkpt lat="43.97955" lon="1.90215">
        <ele>218.4</ele>
        <time>2023-07-23T05:32:40Z</time>
      </trkpt>
      <trkpt lat="43.97959" lon="1.90218">
        <ele>218.4</ele>
        <time>2023-07-23T05:32:41Z</time>
      </trkpt>
      <trkpt lat="43.97962" lon="1.9022">
        <ele>218.4</ele>
        <time>2023-07-23T05:32:42Z</time>
      </trkpt>
      <trkpt lat="43.97966" lon="1.90222">
        <ele>218.4</ele>
        <time>2023-07-23T05:32:43Z</time>
      </trkpt>
      <trkpt lat="43.9797" lon="1.90224">
        <ele>218.6</ele>
        <time>2023-07-23T05:32:44Z</time>
      </trkpt>
      <trkpt lat="43.97974" lon="1.90227">
        <ele>218.6</ele>
        <time>2023-07-23T05:32:45Z</time>
      </trkpt>
      <trkpt lat="43.97981" lon="1.90232">
        <ele>218.6</ele>
        <time>2023-07-23T05:32:47Z</time>
      </trkpt>
      <trkpt lat="43.97998" lon="1.90245">
        <ele>218.8</ele>
        <time>2023-07-23T05:32:52Z</time>
      </trkpt>
      <trkpt lat="43.98011" lon="1.90255">
        <ele>219</ele>
        <time>2023-07-23T05:32:56Z</time>
      </trkpt>
      <trkpt lat="43.98015" lon="1.90258">
        <ele>219</ele>
        <time>2023-07-23T05:32:57Z</time>
      </trkpt>
      <trkpt lat="43.98018" lon="1.90261">
        <ele>219</ele>
        <time>2023-07-23T05:32:58Z</time>
      </trkpt>
      <trkpt lat="43.98054" lon="1.90288">
        <ele>219.8</ele>
        <time>2023-07-23T05:33:08Z</time>
      </trkpt>
      <trkpt lat="43.98072" lon="1.903">
        <ele>220.2</ele>
        <time>2023-07-23T05:33:13Z</time>
      </trkpt>
      <trkpt lat="43.98078" lon="1.90307">
        <ele>220.2</ele>
        <time>2023-07-23T05:33:15Z</time>
      </trkpt>
      <trkpt lat="43.98083" lon="1.90315">
        <ele>220.4</ele>
        <time>2023-07-23T05:33:17Z</time>
      </trkpt>
      <trkpt lat="43.98085" lon="1.9032">
        <ele>220.4</ele>
        <time>2023-07-23T05:33:18Z</time>
      </trkpt>
      <trkpt lat="43.9809" lon="1.90337">
        <ele>220.4</ele>
        <time>2023-07-23T05:33:21Z</time>
      </trkpt>
      <trkpt lat="43.98105" lon="1.90393">
        <ele>220.2</ele>
        <time>2023-07-23T05:33:30Z</time>
      </trkpt>
      <trkpt lat="43.98119" lon="1.90444">
        <ele>219.4</ele>
        <time>2023-07-23T05:33:38Z</time>
      </trkpt>
      <trkpt lat="43.98121" lon="1.9045">
        <ele>219.2</ele>
        <time>2023-07-23T05:33:39Z</time>
      </trkpt>
      <trkpt lat="43.98122" lon="1.90455">
        <ele>219.2</ele>
        <time>2023-07-23T05:33:40Z</time>
      </trkpt>
      <trkpt lat="43.98124" lon="1.90461">
        <ele>219.2</ele>
        <time>2023-07-23T05:33:41Z</time>
      </trkpt>
      <trkpt lat="43.98126" lon="1.90466">
        <ele>219</ele>
        <time>2023-07-23T05:33:42Z</time>
      </trkpt>
      <trkpt lat="43.98128" lon="1.90471">
        <ele>219</ele>
        <time>2023-07-23T05:33:43Z</time>
      </trkpt>
      <trkpt lat="43.98129" lon="1.90477">
        <ele>219</ele>
        <time>2023-07-23T05:33:44Z</time>
      </trkpt>
      <trkpt lat="43.98131" lon="1.90483">
        <ele>218.8</ele>
        <time>2023-07-23T05:33:45Z</time>
      </trkpt>
      <trkpt lat="43.98133" lon="1.90489">
        <ele>218.8</ele>
        <time>2023-07-23T05:33:46Z</time>
      </trkpt>
      <trkpt lat="43.98155" lon="1.90541">
        <ele>218.2</ele>
        <time>2023-07-23T05:33:55Z</time>
      </trkpt>
      <trkpt lat="43.98164" lon="1.90574">
        <ele>217.8</ele>
        <time>2023-07-23T05:34:00Z</time>
      </trkpt>
      <trkpt lat="43.98167" lon="1.90587">
        <ele>217.6</ele>
        <time>2023-07-23T05:34:02Z</time>
      </trkpt>
      <trkpt lat="43.98177" lon="1.90632">
        <ele>216.8</ele>
        <time>2023-07-23T05:34:09Z</time>
      </trkpt>
      <trkpt lat="43.98181" lon="1.90644">
        <ele>216.4</ele>
        <time>2023-07-23T05:34:11Z</time>
      </trkpt>
      <trkpt lat="43.98183" lon="1.9065">
        <ele>216.4</ele>
        <time>2023-07-23T05:34:12Z</time>
      </trkpt>
      <trkpt lat="43.98185" lon="1.90656">
        <ele>216</ele>
        <time>2023-07-23T05:34:13Z</time>
      </trkpt>
      <trkpt lat="43.98187" lon="1.90662">
        <ele>216</ele>
        <time>2023-07-23T05:34:14Z</time>
      </trkpt>
      <trkpt lat="43.98189" lon="1.90668">
        <ele>215.8</ele>
        <time>2023-07-23T05:34:15Z</time>
      </trkpt>
      <trkpt lat="43.98191" lon="1.90674">
        <ele>215.8</ele>
        <time>2023-07-23T05:34:16Z</time>
      </trkpt>
      <trkpt lat="43.98197" lon="1.90685">
        <ele>215.6</ele>
        <time>2023-07-23T05:34:18Z</time>
      </trkpt>
      <trkpt lat="43.9822" lon="1.90721">
        <ele>215</ele>
        <time>2023-07-23T05:34:25Z</time>
      </trkpt>
      <trkpt lat="43.9823" lon="1.9074">
        <ele>214.6</ele>
        <time>2023-07-23T05:34:28Z</time>
      </trkpt>
      <trkpt lat="43.98244" lon="1.9077">
        <ele>213.6</ele>
        <time>2023-07-23T05:34:33Z</time>
      </trkpt>
      <trkpt lat="43.98247" lon="1.90776">
        <ele>213.4</ele>
        <time>2023-07-23T05:34:34Z</time>
      </trkpt>
      <trkpt lat="43.98259" lon="1.90798">
        <ele>213.2</ele>
        <time>2023-07-23T05:34:38Z</time>
      </trkpt>
      <trkpt lat="43.98264" lon="1.90809">
        <ele>213</ele>
        <time>2023-07-23T05:34:40Z</time>
      </trkpt>
      <trkpt lat="43.98267" lon="1.90815">
        <ele>213</ele>
        <time>2023-07-23T05:34:41Z</time>
      </trkpt>
      <trkpt lat="43.98269" lon="1.9082">
        <ele>212.8</ele>
        <time>2023-07-23T05:34:42Z</time>
      </trkpt>
      <trkpt lat="43.98271" lon="1.90825">
        <ele>212.8</ele>
        <time>2023-07-23T05:34:43Z</time>
      </trkpt>
      <trkpt lat="43.98274" lon="1.90831">
        <ele>212.6</ele>
        <time>2023-07-23T05:34:44Z</time>
      </trkpt>
      <trkpt lat="43.98276" lon="1.90836">
        <ele>212.6</ele>
        <time>2023-07-23T05:34:45Z</time>
      </trkpt>
      <trkpt lat="43.98278" lon="1.90841">
        <ele>212.6</ele>
        <time>2023-07-23T05:34:46Z</time>
      </trkpt>
      <trkpt lat="43.9828" lon="1.90846">
        <ele>212.6</ele>
        <time>2023-07-23T05:34:47Z</time>
      </trkpt>
      <trkpt lat="43.98282" lon="1.90852">
        <ele>212.4</ele>
        <time>2023-07-23T05:34:48Z</time>
      </trkpt>
      <trkpt lat="43.98284" lon="1.90857">
        <ele>212.4</ele>
        <time>2023-07-23T05:34:49Z</time>
      </trkpt>
      <trkpt lat="43.98288" lon="1.90864">
        <ele>212.4</ele>
        <time>2023-07-23T05:34:50Z</time>
      </trkpt>
      <trkpt lat="43.98291" lon="1.90868">
        <ele>212.4</ele>
        <time>2023-07-23T05:34:51Z</time>
      </trkpt>
      <trkpt lat="43.98306" lon="1.9089">
        <ele>212</ele>
        <time>2023-07-23T05:34:55Z</time>
      </trkpt>
      <trkpt lat="43.98309" lon="1.90895">
        <ele>211.6</ele>
        <time>2023-07-23T05:34:56Z</time>
      </trkpt>
      <trkpt lat="43.98312" lon="1.909">
        <ele>211.2</ele>
        <time>2023-07-23T05:34:57Z</time>
      </trkpt>
      <trkpt lat="43.98314" lon="1.90905">
        <ele>211.2</ele>
        <time>2023-07-23T05:34:58Z</time>
      </trkpt>
      <trkpt lat="43.98316" lon="1.9091">
        <ele>211</ele>
        <time>2023-07-23T05:34:59Z</time>
      </trkpt>
      <trkpt lat="43.98318" lon="1.90915">
        <ele>211</ele>
        <time>2023-07-23T05:35:00Z</time>
      </trkpt>
      <trkpt lat="43.98321" lon="1.90919">
        <ele>210.6</ele>
        <time>2023-07-23T05:35:01Z</time>
      </trkpt>
      <trkpt lat="43.98323" lon="1.90924">
        <ele>210.4</ele>
        <time>2023-07-23T05:35:02Z</time>
      </trkpt>
      <trkpt lat="43.98324" lon="1.90929">
        <ele>210</ele>
        <time>2023-07-23T05:35:03Z</time>
      </trkpt>
      <trkpt lat="43.98327" lon="1.90934">
        <ele>209.6</ele>
        <time>2023-07-23T05:35:04Z</time>
      </trkpt>
      <trkpt lat="43.98329" lon="1.90941">
        <ele>209.6</ele>
        <time>2023-07-23T05:35:05Z</time>
      </trkpt>
      <trkpt lat="43.98332" lon="1.90954">
        <ele>208.6</ele>
        <time>2023-07-23T05:35:07Z</time>
      </trkpt>
      <trkpt lat="43.98332" lon="1.9096">
        <ele>207.6</ele>
        <time>2023-07-23T05:35:08Z</time>
      </trkpt>
      <trkpt lat="43.98332" lon="1.90966">
        <ele>207</ele>
        <time>2023-07-23T05:35:09Z</time>
      </trkpt>
      <trkpt lat="43.98331" lon="1.90971">
        <ele>206.6</ele>
        <time>2023-07-23T05:35:10Z</time>
      </trkpt>
      <trkpt lat="43.98328" lon="1.90975">
        <ele>206.2</ele>
        <time>2023-07-23T05:35:11Z</time>
      </trkpt>
      <trkpt lat="43.98325" lon="1.90977">
        <ele>206</ele>
        <time>2023-07-23T05:35:12Z</time>
      </trkpt>
      <trkpt lat="43.98319" lon="1.90981">
        <ele>205.4</ele>
        <time>2023-07-23T05:35:14Z</time>
      </trkpt>
      <trkpt lat="43.98316" lon="1.90984">
        <ele>205</ele>
        <time>2023-07-23T05:35:15Z</time>
      </trkpt>
      <trkpt lat="43.98312" lon="1.90987">
        <ele>204.8</ele>
        <time>2023-07-23T05:35:16Z</time>
      </trkpt>
      <trkpt lat="43.98296" lon="1.90997">
        <ele>203.8</ele>
        <time>2023-07-23T05:35:20Z</time>
      </trkpt>
      <trkpt lat="43.98286" lon="1.91002">
        <ele>203.4</ele>
        <time>2023-07-23T05:35:23Z</time>
      </trkpt>
      <trkpt lat="43.98285" lon="1.91006">
        <ele>203.2</ele>
        <time>2023-07-23T05:35:24Z</time>
      </trkpt>
      <trkpt lat="43.98285" lon="1.9101">
        <ele>203.2</ele>
        <time>2023-07-23T05:35:25Z</time>
      </trkpt>
      <trkpt lat="43.98285" lon="1.91014">
        <ele>203</ele>
        <time>2023-07-23T05:35:26Z</time>
      </trkpt>
      <trkpt lat="43.98287" lon="1.91018">
        <ele>203</ele>
        <time>2023-07-23T05:35:27Z</time>
      </trkpt>
      <trkpt lat="43.98287" lon="1.91022">
        <ele>203.2</ele>
        <time>2023-07-23T05:35:28Z</time>
      </trkpt>
      <trkpt lat="43.98287" lon="1.91027">
        <ele>203.2</ele>
        <time>2023-07-23T05:35:29Z</time>
      </trkpt>
      <trkpt lat="43.9829" lon="1.9104">
        <ele>203</ele>
        <time>2023-07-23T05:35:32Z</time>
      </trkpt>
      <trkpt lat="43.98299" lon="1.91066">
        <ele>203</ele>
        <time>2023-07-23T05:35:37Z</time>
      </trkpt>
      <trkpt lat="43.983" lon="1.91073">
        <ele>202.8</ele>
        <time>2023-07-23T05:35:38Z</time>
      </trkpt>
      <trkpt lat="43.98303" lon="1.91086">
        <ele>202.6</ele>
        <time>2023-07-23T05:35:40Z</time>
      </trkpt>
      <trkpt lat="43.98305" lon="1.91093">
        <ele>202.4</ele>
        <time>2023-07-23T05:35:41Z</time>
      </trkpt>
      <trkpt lat="43.98305" lon="1.91101">
        <ele>202.2</ele>
        <time>2023-07-23T05:35:42Z</time>
      </trkpt>
      <trkpt lat="43.98303" lon="1.91114">
        <ele>201.8</ele>
        <time>2023-07-23T05:35:44Z</time>
      </trkpt>
      <trkpt lat="43.98302" lon="1.9112">
        <ele>201.6</ele>
        <time>2023-07-23T05:35:45Z</time>
      </trkpt>
      <trkpt lat="43.98301" lon="1.91124">
        <ele>201.4</ele>
        <time>2023-07-23T05:35:46Z</time>
      </trkpt>
      <trkpt lat="43.98298" lon="1.91128">
        <ele>201</ele>
        <time>2023-07-23T05:35:47Z</time>
      </trkpt>
      <trkpt lat="43.98295" lon="1.91131">
        <ele>200.4</ele>
        <time>2023-07-23T05:35:48Z</time>
      </trkpt>
      <trkpt lat="43.98287" lon="1.91137">
        <ele>199.8</ele>
        <time>2023-07-23T05:35:50Z</time>
      </trkpt>
      <trkpt lat="43.98283" lon="1.91139">
        <ele>199.8</ele>
        <time>2023-07-23T05:35:51Z</time>
      </trkpt>
      <trkpt lat="43.98279" lon="1.91141">
        <ele>199.4</ele>
        <time>2023-07-23T05:35:52Z</time>
      </trkpt>
      <trkpt lat="43.98275" lon="1.91144">
        <ele>199.2</ele>
        <time>2023-07-23T05:35:53Z</time>
      </trkpt>
      <trkpt lat="43.98272" lon="1.91146">
        <ele>199</ele>
        <time>2023-07-23T05:35:54Z</time>
      </trkpt>
      <trkpt lat="43.98268" lon="1.91148">
        <ele>198.6</ele>
        <time>2023-07-23T05:35:55Z</time>
      </trkpt>
      <trkpt lat="43.9826" lon="1.91152">
        <ele>198.4</ele>
        <time>2023-07-23T05:35:57Z</time>
      </trkpt>
      <trkpt lat="43.9825" lon="1.91158">
        <ele>198</ele>
        <time>2023-07-23T05:35:59Z</time>
      </trkpt>
      <trkpt lat="43.98246" lon="1.91162">
        <ele>198</ele>
        <time>2023-07-23T05:36:00Z</time>
      </trkpt>
      <trkpt lat="43.98237" lon="1.91171">
        <ele>197.8</ele>
        <time>2023-07-23T05:36:02Z</time>
      </trkpt>
      <trkpt lat="43.98221" lon="1.91184">
        <ele>197</ele>
        <time>2023-07-23T05:36:05Z</time>
      </trkpt>
      <trkpt lat="43.98203" lon="1.91194">
        <ele>196.4</ele>
        <time>2023-07-23T05:36:08Z</time>
      </trkpt>
      <trkpt lat="43.98196" lon="1.91198">
        <ele>196.2</ele>
        <time>2023-07-23T05:36:09Z</time>
      </trkpt>
      <trkpt lat="43.98192" lon="1.91201">
        <ele>195.8</ele>
        <time>2023-07-23T05:36:10Z</time>
      </trkpt>
      <trkpt lat="43.98183" lon="1.91209">
        <ele>195.4</ele>
        <time>2023-07-23T05:36:12Z</time>
      </trkpt>
      <trkpt lat="43.98179" lon="1.91214">
        <ele>195.2</ele>
        <time>2023-07-23T05:36:13Z</time>
      </trkpt>
      <trkpt lat="43.98172" lon="1.91222">
        <ele>194.8</ele>
        <time>2023-07-23T05:36:15Z</time>
      </trkpt>
      <trkpt lat="43.98168" lon="1.91226">
        <ele>194.8</ele>
        <time>2023-07-23T05:36:16Z</time>
      </trkpt>
      <trkpt lat="43.98165" lon="1.9123">
        <ele>194.8</ele>
        <time>2023-07-23T05:36:17Z</time>
      </trkpt>
      <trkpt lat="43.98162" lon="1.91234">
        <ele>194.6</ele>
        <time>2023-07-23T05:36:18Z</time>
      </trkpt>
      <trkpt lat="43.98159" lon="1.91238">
        <ele>194.6</ele>
        <time>2023-07-23T05:36:19Z</time>
      </trkpt>
      <trkpt lat="43.98156" lon="1.91242">
        <ele>194.6</ele>
        <time>2023-07-23T05:36:20Z</time>
      </trkpt>
      <trkpt lat="43.98153" lon="1.91247">
        <ele>194.6</ele>
        <time>2023-07-23T05:36:21Z</time>
      </trkpt>
      <trkpt lat="43.98147" lon="1.91259">
        <ele>194.6</ele>
        <time>2023-07-23T05:36:23Z</time>
      </trkpt>
      <trkpt lat="43.98144" lon="1.91272">
        <ele>194.6</ele>
        <time>2023-07-23T05:36:25Z</time>
      </trkpt>
      <trkpt lat="43.98143" lon="1.91289">
        <ele>194.4</ele>
        <time>2023-07-23T05:36:27Z</time>
      </trkpt>
      <trkpt lat="43.9814" lon="1.91332">
        <ele>193.6</ele>
        <time>2023-07-23T05:36:31Z</time>
      </trkpt>
      <trkpt lat="43.98139" lon="1.91362">
        <ele>192.8</ele>
        <time>2023-07-23T05:36:34Z</time>
      </trkpt>
      <trkpt lat="43.98138" lon="1.91371">
        <ele>192.6</ele>
        <time>2023-07-23T05:36:35Z</time>
      </trkpt>
      <trkpt lat="43.98137" lon="1.91381">
        <ele>192.2</ele>
        <time>2023-07-23T05:36:36Z</time>
      </trkpt>
      <trkpt lat="43.98136" lon="1.9139">
        <ele>192.2</ele>
        <time>2023-07-23T05:36:37Z</time>
      </trkpt>
      <trkpt lat="43.98133" lon="1.91407">
        <ele>191.8</ele>
        <time>2023-07-23T05:36:39Z</time>
      </trkpt>
      <trkpt lat="43.98128" lon="1.91424">
        <ele>191.4</ele>
        <time>2023-07-23T05:36:41Z</time>
      </trkpt>
      <trkpt lat="43.98127" lon="1.91432">
        <ele>191.4</ele>
        <time>2023-07-23T05:36:42Z</time>
      </trkpt>
      <trkpt lat="43.98125" lon="1.91439">
        <ele>191.4</ele>
        <time>2023-07-23T05:36:43Z</time>
      </trkpt>
      <trkpt lat="43.98122" lon="1.91447">
        <ele>191.4</ele>
        <time>2023-07-23T05:36:44Z</time>
      </trkpt>
      <trkpt lat="43.98119" lon="1.91456">
        <ele>191.2</ele>
        <time>2023-07-23T05:36:45Z</time>
      </trkpt>
      <trkpt lat="43.98116" lon="1.91463">
        <ele>191.2</ele>
        <time>2023-07-23T05:36:46Z</time>
      </trkpt>
      <trkpt lat="43.98114" lon="1.9147">
        <ele>191.2</ele>
        <time>2023-07-23T05:36:47Z</time>
      </trkpt>
      <trkpt lat="43.98112" lon="1.91477">
        <ele>191.2</ele>
        <time>2023-07-23T05:36:48Z</time>
      </trkpt>
      <trkpt lat="43.9811" lon="1.91484">
        <ele>191.2</ele>
        <time>2023-07-23T05:36:49Z</time>
      </trkpt>
      <trkpt lat="43.98109" lon="1.9149">
        <ele>191.2</ele>
        <time>2023-07-23T05:36:50Z</time>
      </trkpt>
      <trkpt lat="43.98108" lon="1.91497">
        <ele>191.4</ele>
        <time>2023-07-23T05:36:51Z</time>
      </trkpt>
      <trkpt lat="43.98107" lon="1.91503">
        <ele>191.6</ele>
        <time>2023-07-23T05:36:52Z</time>
      </trkpt>
      <trkpt lat="43.98106" lon="1.91509">
        <ele>191.6</ele>
        <time>2023-07-23T05:36:53Z</time>
      </trkpt>
      <trkpt lat="43.98106" lon="1.91516">
        <ele>191.8</ele>
        <time>2023-07-23T05:36:54Z</time>
      </trkpt>
      <trkpt lat="43.98105" lon="1.91523">
        <ele>191.8</ele>
        <time>2023-07-23T05:36:55Z</time>
      </trkpt>
      <trkpt lat="43.98103" lon="1.91565">
        <ele>192.6</ele>
        <time>2023-07-23T05:37:01Z</time>
      </trkpt>
      <trkpt lat="43.98102" lon="1.91572">
        <ele>192.8</ele>
        <time>2023-07-23T05:37:02Z</time>
      </trkpt>
      <trkpt lat="43.98102" lon="1.91578">
        <ele>192.8</ele>
        <time>2023-07-23T05:37:03Z</time>
      </trkpt>
      <trkpt lat="43.98096" lon="1.91608">
        <ele>193.2</ele>
        <time>2023-07-23T05:37:08Z</time>
      </trkpt>
      <trkpt lat="43.98094" lon="1.91613">
        <ele>193.4</ele>
        <time>2023-07-23T05:37:09Z</time>
      </trkpt>
      <trkpt lat="43.98093" lon="1.91618">
        <ele>193.4</ele>
        <time>2023-07-23T05:37:10Z</time>
      </trkpt>
      <trkpt lat="43.98092" lon="1.91624">
        <ele>193.6</ele>
        <time>2023-07-23T05:37:11Z</time>
      </trkpt>
      <trkpt lat="43.9809" lon="1.91628">
        <ele>193.8</ele>
        <time>2023-07-23T05:37:12Z</time>
      </trkpt>
      <trkpt lat="43.98089" lon="1.91632">
        <ele>194</ele>
        <time>2023-07-23T05:37:13Z</time>
      </trkpt>
      <trkpt lat="43.98087" lon="1.91637">
        <ele>194.2</ele>
        <time>2023-07-23T05:37:14Z</time>
      </trkpt>
      <trkpt lat="43.98084" lon="1.91649">
        <ele>194.6</ele>
        <time>2023-07-23T05:37:17Z</time>
      </trkpt>
      <trkpt lat="43.98083" lon="1.91652">
        <ele>194.8</ele>
        <time>2023-07-23T05:37:18Z</time>
      </trkpt>
      <trkpt lat="43.98082" lon="1.91655">
        <ele>194.8</ele>
        <time>2023-07-23T05:37:19Z</time>
      </trkpt>
      <trkpt lat="43.98081" lon="1.91658">
        <ele>195</ele>
        <time>2023-07-23T05:37:20Z</time>
      </trkpt>
      <trkpt lat="43.9808" lon="1.91662">
        <ele>195.2</ele>
        <time>2023-07-23T05:37:21Z</time>
      </trkpt>
      <trkpt lat="43.98079" lon="1.91665">
        <ele>195.4</ele>
        <time>2023-07-23T05:37:22Z</time>
      </trkpt>
      <trkpt lat="43.98078" lon="1.91669">
        <ele>195.4</ele>
        <time>2023-07-23T05:37:23Z</time>
      </trkpt>
      <trkpt lat="43.98077" lon="1.91672">
        <ele>195.6</ele>
        <time>2023-07-23T05:37:24Z</time>
      </trkpt>
      <trkpt lat="43.98076" lon="1.91675">
        <ele>195.8</ele>
        <time>2023-07-23T05:37:25Z</time>
      </trkpt>
      <trkpt lat="43.98075" lon="1.91678">
        <ele>196</ele>
        <time>2023-07-23T05:37:26Z</time>
      </trkpt>
      <trkpt lat="43.98074" lon="1.91681">
        <ele>196.2</ele>
        <time>2023-07-23T05:37:27Z</time>
      </trkpt>
      <trkpt lat="43.98072" lon="1.91684">
        <ele>196.4</ele>
        <time>2023-07-23T05:37:28Z</time>
      </trkpt>
      <trkpt lat="43.98071" lon="1.91687">
        <ele>196.8</ele>
        <time>2023-07-23T05:37:29Z</time>
      </trkpt>
      <trkpt lat="43.9807" lon="1.91689">
        <ele>197</ele>
        <time>2023-07-23T05:37:30Z</time>
      </trkpt>
      <trkpt lat="43.98069" lon="1.91692">
        <ele>197.2</ele>
        <time>2023-07-23T05:37:31Z</time>
      </trkpt>
      <trkpt lat="43.98068" lon="1.91695">
        <ele>197.4</ele>
        <time>2023-07-23T05:37:32Z</time>
      </trkpt>
      <trkpt lat="43.98067" lon="1.91698">
        <ele>197.6</ele>
        <time>2023-07-23T05:37:33Z</time>
      </trkpt>
      <trkpt lat="43.98067" lon="1.91701">
        <ele>198</ele>
        <time>2023-07-23T05:37:34Z</time>
      </trkpt>
      <trkpt lat="43.98067" lon="1.91703">
        <ele>198.2</ele>
        <time>2023-07-23T05:37:35Z</time>
      </trkpt>
      <trkpt lat="43.98067" lon="1.91706">
        <ele>198.6</ele>
        <time>2023-07-23T05:37:36Z</time>
      </trkpt>
      <trkpt lat="43.98068" lon="1.91708">
        <ele>199</ele>
        <time>2023-07-23T05:37:37Z</time>
      </trkpt>
      <trkpt lat="43.9807" lon="1.9171">
        <ele>199.2</ele>
        <time>2023-07-23T05:37:38Z</time>
      </trkpt>
      <trkpt lat="43.98071" lon="1.91712">
        <ele>199.4</ele>
        <time>2023-07-23T05:37:39Z</time>
      </trkpt>
      <trkpt lat="43.98072" lon="1.91714">
        <ele>199.8</ele>
        <time>2023-07-23T05:37:40Z</time>
      </trkpt>
      <trkpt lat="43.98073" lon="1.91716">
        <ele>200.2</ele>
        <time>2023-07-23T05:37:41Z</time>
      </trkpt>
      <trkpt lat="43.98074" lon="1.91719">
        <ele>200.6</ele>
        <time>2023-07-23T05:37:42Z</time>
      </trkpt>
      <trkpt lat="43.98075" lon="1.91721">
        <ele>201</ele>
        <time>2023-07-23T05:37:43Z</time>
      </trkpt>
      <trkpt lat="43.98076" lon="1.91723">
        <ele>201.2</ele>
        <time>2023-07-23T05:37:44Z</time>
      </trkpt>
      <trkpt lat="43.98077" lon="1.91725">
        <ele>201.6</ele>
        <time>2023-07-23T05:37:45Z</time>
      </trkpt>
      <trkpt lat="43.98078" lon="1.91727">
        <ele>201.6</ele>
        <time>2023-07-23T05:37:46Z</time>
      </trkpt>
      <trkpt lat="43.98079" lon="1.91728">
        <ele>201.8</ele>
        <time>2023-07-23T05:37:47Z</time>
      </trkpt>
      <trkpt lat="43.9808" lon="1.9173">
        <ele>201.8</ele>
        <time>2023-07-23T05:37:48Z</time>
      </trkpt>
      <trkpt lat="43.98082" lon="1.91732">
        <ele>202</ele>
        <time>2023-07-23T05:37:49Z</time>
      </trkpt>
      <trkpt lat="43.98083" lon="1.91734">
        <ele>202.4</ele>
        <time>2023-07-23T05:37:50Z</time>
      </trkpt>
      <trkpt lat="43.98084" lon="1.91736">
        <ele>202.4</ele>
        <time>2023-07-23T05:37:51Z</time>
      </trkpt>
      <trkpt lat="43.98085" lon="1.91738">
        <ele>202.4</ele>
        <time>2023-07-23T05:37:52Z</time>
      </trkpt>
      <trkpt lat="43.98087" lon="1.91741">
        <ele>202.6</ele>
        <time>2023-07-23T05:37:53Z</time>
      </trkpt>
      <trkpt lat="43.98088" lon="1.91744">
        <ele>202.6</ele>
        <time>2023-07-23T05:37:54Z</time>
      </trkpt>
      <trkpt lat="43.98089" lon="1.91749">
        <ele>202.6</ele>
        <time>2023-07-23T05:37:55Z</time>
      </trkpt>
      <trkpt lat="43.9809" lon="1.91752">
        <ele>202.8</ele>
        <time>2023-07-23T05:37:56Z</time>
      </trkpt>
      <trkpt lat="43.98092" lon="1.91756">
        <ele>202.8</ele>
        <time>2023-07-23T05:37:57Z</time>
      </trkpt>
      <trkpt lat="43.98093" lon="1.9176">
        <ele>202.8</ele>
        <time>2023-07-23T05:37:58Z</time>
      </trkpt>
      <trkpt lat="43.98094" lon="1.91765">
        <ele>202.8</ele>
        <time>2023-07-23T05:37:59Z</time>
      </trkpt>
      <trkpt lat="43.98095" lon="1.91769">
        <ele>202.6</ele>
        <time>2023-07-23T05:38:00Z</time>
      </trkpt>
      <trkpt lat="43.98096" lon="1.91774">
        <ele>202.6</ele>
        <time>2023-07-23T05:38:01Z</time>
      </trkpt>
      <trkpt lat="43.98096" lon="1.91778">
        <ele>202.6</ele>
        <time>2023-07-23T05:38:02Z</time>
      </trkpt>
      <trkpt lat="43.98096" lon="1.91782">
        <ele>202.6</ele>
        <time>2023-07-23T05:38:03Z</time>
      </trkpt>
      <trkpt lat="43.98096" lon="1.91787">
        <ele>202.4</ele>
        <time>2023-07-23T05:38:04Z</time>
      </trkpt>
      <trkpt lat="43.98097" lon="1.91792">
        <ele>202.4</ele>
        <time>2023-07-23T05:38:05Z</time>
      </trkpt>
      <trkpt lat="43.98097" lon="1.91797">
        <ele>202.4</ele>
        <time>2023-07-23T05:38:06Z</time>
      </trkpt>
      <trkpt lat="43.98098" lon="1.91801">
        <ele>202.4</ele>
        <time>2023-07-23T05:38:07Z</time>
      </trkpt>
      <trkpt lat="43.98098" lon="1.91807">
        <ele>202.4</ele>
        <time>2023-07-23T05:38:08Z</time>
      </trkpt>
      <trkpt lat="43.98098" lon="1.91813">
        <ele>202.4</ele>
        <time>2023-07-23T05:38:09Z</time>
      </trkpt>
      <trkpt lat="43.98099" lon="1.91818">
        <ele>202.2</ele>
        <time>2023-07-23T05:38:10Z</time>
      </trkpt>
      <trkpt lat="43.98099" lon="1.91824">
        <ele>202.2</ele>
        <time>2023-07-23T05:38:11Z</time>
      </trkpt>
      <trkpt lat="43.98102" lon="1.91842">
        <ele>202</ele>
        <time>2023-07-23T05:38:15Z</time>
      </trkpt>
      <trkpt lat="43.98102" lon="1.91845">
        <ele>202</ele>
        <time>2023-07-23T05:38:16Z</time>
      </trkpt>
      <trkpt lat="43.98102" lon="1.91847">
        <ele>202</ele>
        <time>2023-07-23T05:38:17Z</time>
      </trkpt>
      <trkpt lat="43.98102" lon="1.9185">
        <ele>202</ele>
        <time>2023-07-23T05:38:18Z</time>
      </trkpt>
      <trkpt lat="43.98103" lon="1.91852">
        <ele>202</ele>
        <time>2023-07-23T05:38:19Z</time>
      </trkpt>
      <trkpt lat="43.98103" lon="1.91855">
        <ele>202</ele>
        <time>2023-07-23T05:38:20Z</time>
      </trkpt>
      <trkpt lat="43.98103" lon="1.91858">
        <ele>202</ele>
        <time>2023-07-23T05:38:21Z</time>
      </trkpt>
      <trkpt lat="43.98103" lon="1.91858">
        <ele>202</ele>
        <time>2023-07-23T05:38:22Z</time>
      </trkpt>
      <trkpt lat="43.98103" lon="1.91858">
        <ele>202</ele>
        <time>2023-07-23T05:38:23Z</time>
      </trkpt>
      <trkpt lat="43.98104" lon="1.91848">
        <ele>202</ele>
        <time>2023-07-23T05:38:34Z</time>
      </trkpt>
      <trkpt lat="43.98104" lon="1.91845">
        <ele>202</ele>
        <time>2023-07-23T05:38:35Z</time>
      </trkpt>
      <trkpt lat="43.98104" lon="1.91842">
        <ele>202</ele>
        <time>2023-07-23T05:38:36Z</time>
      </trkpt>
      <trkpt lat="43.98104" lon="1.91835">
        <ele>201.8</ele>
        <time>2023-07-23T05:38:38Z</time>
      </trkpt>
      <trkpt lat="43.98105" lon="1.9183">
        <ele>201.6</ele>
        <time>2023-07-23T05:38:39Z</time>
      </trkpt>
      <trkpt lat="43.98106" lon="1.91825">
        <ele>201.6</ele>
        <time>2023-07-23T05:38:40Z</time>
      </trkpt>
      <trkpt lat="43.98107" lon="1.91809">
        <ele>201.4</ele>
        <time>2023-07-23T05:38:43Z</time>
      </trkpt>
      <trkpt lat="43.98106" lon="1.918">
        <ele>201.6</ele>
        <time>2023-07-23T05:38:45Z</time>
      </trkpt>
      <trkpt lat="43.98106" lon="1.91795">
        <ele>201.6</ele>
        <time>2023-07-23T05:38:46Z</time>
      </trkpt>
      <trkpt lat="43.98106" lon="1.9179">
        <ele>201.8</ele>
        <time>2023-07-23T05:38:47Z</time>
      </trkpt>
      <trkpt lat="43.98104" lon="1.9178">
        <ele>201.8</ele>
        <time>2023-07-23T05:38:49Z</time>
      </trkpt>
      <trkpt lat="43.98099" lon="1.91765">
        <ele>202.2</ele>
        <time>2023-07-23T05:38:52Z</time>
      </trkpt>
      <trkpt lat="43.98098" lon="1.91762">
        <ele>202.2</ele>
        <time>2023-07-23T05:38:53Z</time>
      </trkpt>
      <trkpt lat="43.98098" lon="1.91758">
        <ele>202.2</ele>
        <time>2023-07-23T05:38:54Z</time>
      </trkpt>
      <trkpt lat="43.98097" lon="1.91755">
        <ele>202.2</ele>
        <time>2023-07-23T05:38:55Z</time>
      </trkpt>
      <trkpt lat="43.98096" lon="1.91752">
        <ele>202.2</ele>
        <time>2023-07-23T05:38:56Z</time>
      </trkpt>
      <trkpt lat="43.98095" lon="1.91752">
        <ele>202.2</ele>
        <time>2023-07-23T05:38:57Z</time>
      </trkpt>
      <trkpt lat="43.98095" lon="1.91752">
        <ele>202.4</ele>
        <time>2023-07-23T05:38:58Z</time>
      </trkpt>
      <trkpt lat="43.98095" lon="1.91752">
        <ele>202.4</ele>
        <time>2023-07-23T05:38:59Z</time>
      </trkpt>
      <trkpt lat="43.98095" lon="1.91753">
        <ele>202.4</ele>
        <time>2023-07-23T05:39:00Z</time>
      </trkpt>
      <trkpt lat="43.98095" lon="1.91754">
        <ele>202.4</ele>
        <time>2023-07-23T05:39:01Z</time>
      </trkpt>
      <trkpt lat="43.98096" lon="1.91756">
        <ele>202.4</ele>
        <time>2023-07-23T05:39:03Z</time>
      </trkpt>
      <trkpt lat="43.98101" lon="1.91774">
        <ele>202.4</ele>
        <time>2023-07-23T05:39:09Z</time>
      </trkpt>
      <trkpt lat="43.98101" lon="1.91777">
        <ele>202.4</ele>
        <time>2023-07-23T05:39:10Z</time>
      </trkpt>
      <trkpt lat="43.98102" lon="1.91784">
        <ele>202.4</ele>
        <time>2023-07-23T05:39:12Z</time>
      </trkpt>
      <trkpt lat="43.98102" lon="1.91789">
        <ele>202.4</ele>
        <time>2023-07-23T05:39:13Z</time>
      </trkpt>
      <trkpt lat="43.98103" lon="1.91796">
        <ele>202.2</ele>
        <time>2023-07-23T05:39:15Z</time>
      </trkpt>
      <trkpt lat="43.98103" lon="1.91825">
        <ele>202</ele>
        <time>2023-07-23T05:39:22Z</time>
      </trkpt>
      <trkpt lat="43.98103" lon="1.91861">
        <ele>201.6</ele>
        <time>2023-07-23T05:39:30Z</time>
      </trkpt>
      <trkpt lat="43.98103" lon="1.91869">
        <ele>201.8</ele>
        <time>2023-07-23T05:39:32Z</time>
      </trkpt>
      <trkpt lat="43.98103" lon="1.91873">
        <ele>201.8</ele>
        <time>2023-07-23T05:39:33Z</time>
      </trkpt>
      <trkpt lat="43.98103" lon="1.91878">
        <ele>202</ele>
        <time>2023-07-23T05:39:34Z</time>
      </trkpt>
      <trkpt lat="43.98103" lon="1.91888">
        <ele>202.2</ele>
        <time>2023-07-23T05:39:36Z</time>
      </trkpt>
      <trkpt lat="43.98103" lon="1.91893">
        <ele>202.2</ele>
        <time>2023-07-23T05:39:37Z</time>
      </trkpt>
      <trkpt lat="43.98103" lon="1.91898">
        <ele>202.2</ele>
        <time>2023-07-23T05:39:38Z</time>
      </trkpt>
      <trkpt lat="43.98102" lon="1.91902">
        <ele>202.2</ele>
        <time>2023-07-23T05:39:39Z</time>
      </trkpt>
      <trkpt lat="43.981" lon="1.91912">
        <ele>202.4</ele>
        <time>2023-07-23T05:39:41Z</time>
      </trkpt>
      <trkpt lat="43.98094" lon="1.91942">
        <ele>202.8</ele>
        <time>2023-07-23T05:39:46Z</time>
      </trkpt>
      <trkpt lat="43.98086" lon="1.91979">
        <ele>202.8</ele>
        <time>2023-07-23T05:39:53Z</time>
      </trkpt>
      <trkpt lat="43.98084" lon="1.91985">
        <ele>202.8</ele>
        <time>2023-07-23T05:39:54Z</time>
      </trkpt>
      <trkpt lat="43.98074" lon="1.92014">
        <ele>202.6</ele>
        <time>2023-07-23T05:39:59Z</time>
      </trkpt>
      <trkpt lat="43.98071" lon="1.92019">
        <ele>202.6</ele>
        <time>2023-07-23T05:40:00Z</time>
      </trkpt>
      <trkpt lat="43.98068" lon="1.92024">
        <ele>202.6</ele>
        <time>2023-07-23T05:40:01Z</time>
      </trkpt>
      <trkpt lat="43.98066" lon="1.92029">
        <ele>202.6</ele>
        <time>2023-07-23T05:40:02Z</time>
      </trkpt>
      <trkpt lat="43.98062" lon="1.9204">
        <ele>202.6</ele>
        <time>2023-07-23T05:40:04Z</time>
      </trkpt>
      <trkpt lat="43.98061" lon="1.92043">
        <ele>202.6</ele>
        <time>2023-07-23T05:40:05Z</time>
      </trkpt>
      <trkpt lat="43.98052" lon="1.92066">
        <ele>202.6</ele>
        <time>2023-07-23T05:40:10Z</time>
      </trkpt>
      <trkpt lat="43.98049" lon="1.92076">
        <ele>202.4</ele>
        <time>2023-07-23T05:40:12Z</time>
      </trkpt>
      <trkpt lat="43.98047" lon="1.92081">
        <ele>202.4</ele>
        <time>2023-07-23T05:40:13Z</time>
      </trkpt>
      <trkpt lat="43.98045" lon="1.92086">
        <ele>202.4</ele>
        <time>2023-07-23T05:40:14Z</time>
      </trkpt>
      <trkpt lat="43.98039" lon="1.92109">
        <ele>202</ele>
        <time>2023-07-23T05:40:18Z</time>
      </trkpt>
      <trkpt lat="43.98028" lon="1.92145">
        <ele>201.2</ele>
        <time>2023-07-23T05:40:23Z</time>
      </trkpt>
      <trkpt lat="43.98025" lon="1.92152">
        <ele>201</ele>
        <time>2023-07-23T05:40:24Z</time>
      </trkpt>
      <trkpt lat="43.98022" lon="1.9216">
        <ele>200.8</ele>
        <time>2023-07-23T05:40:25Z</time>
      </trkpt>
      <trkpt lat="43.98013" lon="1.92173">
        <ele>200.2</ele>
        <time>2023-07-23T05:40:27Z</time>
      </trkpt>
      <trkpt lat="43.98008" lon="1.92181">
        <ele>199.8</ele>
        <time>2023-07-23T05:40:28Z</time>
      </trkpt>
      <trkpt lat="43.97998" lon="1.92199">
        <ele>198.4</ele>
        <time>2023-07-23T05:40:30Z</time>
      </trkpt>
      <trkpt lat="43.97984" lon="1.92227">
        <ele>196.8</ele>
        <time>2023-07-23T05:40:33Z</time>
      </trkpt>
      <trkpt lat="43.97979" lon="1.92235">
        <ele>196</ele>
        <time>2023-07-23T05:40:34Z</time>
      </trkpt>
      <trkpt lat="43.97974" lon="1.92243">
        <ele>195.2</ele>
        <time>2023-07-23T05:40:35Z</time>
      </trkpt>
      <trkpt lat="43.97969" lon="1.92249">
        <ele>194.8</ele>
        <time>2023-07-23T05:40:36Z</time>
      </trkpt>
      <trkpt lat="43.97963" lon="1.92255">
        <ele>194.4</ele>
        <time>2023-07-23T05:40:37Z</time>
      </trkpt>
      <trkpt lat="43.97958" lon="1.9226">
        <ele>194</ele>
        <time>2023-07-23T05:40:38Z</time>
      </trkpt>
      <trkpt lat="43.97953" lon="1.92265">
        <ele>193.8</ele>
        <time>2023-07-23T05:40:39Z</time>
      </trkpt>
      <trkpt lat="43.97948" lon="1.9227">
        <ele>193.8</ele>
        <time>2023-07-23T05:40:40Z</time>
      </trkpt>
      <trkpt lat="43.97943" lon="1.92274">
        <ele>193.6</ele>
        <time>2023-07-23T05:40:41Z</time>
      </trkpt>
      <trkpt lat="43.97939" lon="1.92278">
        <ele>193.2</ele>
        <time>2023-07-23T05:40:42Z</time>
      </trkpt>
      <trkpt lat="43.97935" lon="1.92281">
        <ele>192.8</ele>
        <time>2023-07-23T05:40:43Z</time>
      </trkpt>
      <trkpt lat="43.97932" lon="1.92283">
        <ele>192.6</ele>
        <time>2023-07-23T05:40:44Z</time>
      </trkpt>
      <trkpt lat="43.97929" lon="1.92285">
        <ele>192.4</ele>
        <time>2023-07-23T05:40:45Z</time>
      </trkpt>
      <trkpt lat="43.97925" lon="1.92288">
        <ele>192.4</ele>
        <time>2023-07-23T05:40:46Z</time>
      </trkpt>
      <trkpt lat="43.97922" lon="1.9229">
        <ele>192.4</ele>
        <time>2023-07-23T05:40:47Z</time>
      </trkpt>
      <trkpt lat="43.97918" lon="1.92292">
        <ele>192.4</ele>
        <time>2023-07-23T05:40:48Z</time>
      </trkpt>
      <trkpt lat="43.97915" lon="1.92294">
        <ele>192.2</ele>
        <time>2023-07-23T05:40:49Z</time>
      </trkpt>
      <trkpt lat="43.97911" lon="1.92296">
        <ele>192.2</ele>
        <time>2023-07-23T05:40:50Z</time>
      </trkpt>
      <trkpt lat="43.97908" lon="1.92299">
        <ele>192.4</ele>
        <time>2023-07-23T05:40:51Z</time>
      </trkpt>
      <trkpt lat="43.97898" lon="1.92308">
        <ele>192.6</ele>
        <time>2023-07-23T05:40:54Z</time>
      </trkpt>
      <trkpt lat="43.97896" lon="1.92311">
        <ele>192.6</ele>
        <time>2023-07-23T05:40:55Z</time>
      </trkpt>
      <trkpt lat="43.97894" lon="1.92314">
        <ele>192.6</ele>
        <time>2023-07-23T05:40:56Z</time>
      </trkpt>
      <trkpt lat="43.97891" lon="1.92317">
        <ele>192.6</ele>
        <time>2023-07-23T05:40:57Z</time>
      </trkpt>
      <trkpt lat="43.97889" lon="1.92319">
        <ele>192.6</ele>
        <time>2023-07-23T05:40:58Z</time>
      </trkpt>
      <trkpt lat="43.97886" lon="1.92322">
        <ele>192.8</ele>
        <time>2023-07-23T05:40:59Z</time>
      </trkpt>
      <trkpt lat="43.97883" lon="1.92325">
        <ele>192.8</ele>
        <time>2023-07-23T05:41:00Z</time>
      </trkpt>
      <trkpt lat="43.9788" lon="1.92328">
        <ele>193</ele>
        <time>2023-07-23T05:41:01Z</time>
      </trkpt>
      <trkpt lat="43.97851" lon="1.92364">
        <ele>192.8</ele>
        <time>2023-07-23T05:41:10Z</time>
      </trkpt>
      <trkpt lat="43.97826" lon="1.924">
        <ele>192.8</ele>
        <time>2023-07-23T05:41:19Z</time>
      </trkpt>
      <trkpt lat="43.97823" lon="1.92404">
        <ele>192.8</ele>
        <time>2023-07-23T05:41:20Z</time>
      </trkpt>
      <trkpt lat="43.97821" lon="1.92409">
        <ele>192.8</ele>
        <time>2023-07-23T05:41:21Z</time>
      </trkpt>
      <trkpt lat="43.97819" lon="1.92413">
        <ele>192.8</ele>
        <time>2023-07-23T05:41:22Z</time>
      </trkpt>
      <trkpt lat="43.97815" lon="1.92426">
        <ele>193</ele>
        <time>2023-07-23T05:41:25Z</time>
      </trkpt>
      <trkpt lat="43.97813" lon="1.92431">
        <ele>193</ele>
        <time>2023-07-23T05:41:26Z</time>
      </trkpt>
      <trkpt lat="43.97812" lon="1.92435">
        <ele>193.2</ele>
        <time>2023-07-23T05:41:27Z</time>
      </trkpt>
      <trkpt lat="43.97811" lon="1.92439">
        <ele>193.4</ele>
        <time>2023-07-23T05:41:28Z</time>
      </trkpt>
      <trkpt lat="43.9781" lon="1.92443">
        <ele>193.4</ele>
        <time>2023-07-23T05:41:29Z</time>
      </trkpt>
      <trkpt lat="43.97809" lon="1.92446">
        <ele>193.6</ele>
        <time>2023-07-23T05:41:30Z</time>
      </trkpt>
      <trkpt lat="43.97809" lon="1.9245">
        <ele>193.8</ele>
        <time>2023-07-23T05:41:31Z</time>
      </trkpt>
      <trkpt lat="43.97808" lon="1.92453">
        <ele>193.8</ele>
        <time>2023-07-23T05:41:32Z</time>
      </trkpt>
      <trkpt lat="43.97808" lon="1.92457">
        <ele>194</ele>
        <time>2023-07-23T05:41:33Z</time>
      </trkpt>
      <trkpt lat="43.97806" lon="1.92464">
        <ele>194.2</ele>
        <time>2023-07-23T05:41:35Z</time>
      </trkpt>
      <trkpt lat="43.97805" lon="1.92467">
        <ele>194.2</ele>
        <time>2023-07-23T05:41:36Z</time>
      </trkpt>
      <trkpt lat="43.97805" lon="1.9247">
        <ele>194.4</ele>
        <time>2023-07-23T05:41:37Z</time>
      </trkpt>
      <trkpt lat="43.97805" lon="1.92472">
        <ele>194.6</ele>
        <time>2023-07-23T05:41:38Z</time>
      </trkpt>
      <trkpt lat="43.97804" lon="1.92475">
        <ele>194.8</ele>
        <time>2023-07-23T05:41:39Z</time>
      </trkpt>
      <trkpt lat="43.97804" lon="1.92478">
        <ele>195</ele>
        <time>2023-07-23T05:41:40Z</time>
      </trkpt>
      <trkpt lat="43.97803" lon="1.92482">
        <ele>195</ele>
        <time>2023-07-23T05:41:41Z</time>
      </trkpt>
      <trkpt lat="43.97803" lon="1.92485">
        <ele>195.4</ele>
        <time>2023-07-23T05:41:42Z</time>
      </trkpt>
      <trkpt lat="43.97802" lon="1.92488">
        <ele>195.6</ele>
        <time>2023-07-23T05:41:43Z</time>
      </trkpt>
      <trkpt lat="43.97802" lon="1.92491">
        <ele>195.8</ele>
        <time>2023-07-23T05:41:44Z</time>
      </trkpt>
      <trkpt lat="43.97801" lon="1.92494">
        <ele>196.2</ele>
        <time>2023-07-23T05:41:45Z</time>
      </trkpt>
      <trkpt lat="43.978" lon="1.92502">
        <ele>196.6</ele>
        <time>2023-07-23T05:41:47Z</time>
      </trkpt>
      <trkpt lat="43.97799" lon="1.92506">
        <ele>196.6</ele>
        <time>2023-07-23T05:41:48Z</time>
      </trkpt>
      <trkpt lat="43.97799" lon="1.9251">
        <ele>196.8</ele>
        <time>2023-07-23T05:41:49Z</time>
      </trkpt>
      <trkpt lat="43.97798" lon="1.92514">
        <ele>196.8</ele>
        <time>2023-07-23T05:41:50Z</time>
      </trkpt>
      <trkpt lat="43.97798" lon="1.92519">
        <ele>197</ele>
        <time>2023-07-23T05:41:51Z</time>
      </trkpt>
      <trkpt lat="43.97797" lon="1.92522">
        <ele>197.2</ele>
        <time>2023-07-23T05:41:52Z</time>
      </trkpt>
      <trkpt lat="43.97797" lon="1.92527">
        <ele>197.4</ele>
        <time>2023-07-23T05:41:53Z</time>
      </trkpt>
      <trkpt lat="43.97796" lon="1.92532">
        <ele>197.6</ele>
        <time>2023-07-23T05:41:54Z</time>
      </trkpt>
      <trkpt lat="43.97795" lon="1.92536">
        <ele>197.6</ele>
        <time>2023-07-23T05:41:55Z</time>
      </trkpt>
      <trkpt lat="43.97795" lon="1.92541">
        <ele>197.6</ele>
        <time>2023-07-23T05:41:56Z</time>
      </trkpt>
      <trkpt lat="43.97794" lon="1.92545">
        <ele>197.6</ele>
        <time>2023-07-23T05:41:57Z</time>
      </trkpt>
      <trkpt lat="43.97794" lon="1.92549">
        <ele>197.8</ele>
        <time>2023-07-23T05:41:58Z</time>
      </trkpt>
      <trkpt lat="43.97793" lon="1.92553">
        <ele>197.8</ele>
        <time>2023-07-23T05:41:59Z</time>
      </trkpt>
      <trkpt lat="43.97793" lon="1.92557">
        <ele>198</ele>
        <time>2023-07-23T05:42:00Z</time>
      </trkpt>
      <trkpt lat="43.97792" lon="1.92561">
        <ele>198</ele>
        <time>2023-07-23T05:42:01Z</time>
      </trkpt>
      <trkpt lat="43.97791" lon="1.92565">
        <ele>198</ele>
        <time>2023-07-23T05:42:02Z</time>
      </trkpt>
      <trkpt lat="43.9779" lon="1.92569">
        <ele>198.2</ele>
        <time>2023-07-23T05:42:03Z</time>
      </trkpt>
      <trkpt lat="43.97789" lon="1.92573">
        <ele>198.4</ele>
        <time>2023-07-23T05:42:04Z</time>
      </trkpt>
      <trkpt lat="43.97789" lon="1.92577">
        <ele>198.6</ele>
        <time>2023-07-23T05:42:05Z</time>
      </trkpt>
      <trkpt lat="43.97788" lon="1.9258">
        <ele>198.6</ele>
        <time>2023-07-23T05:42:06Z</time>
      </trkpt>
      <trkpt lat="43.97788" lon="1.92584">
        <ele>198.8</ele>
        <time>2023-07-23T05:42:07Z</time>
      </trkpt>
      <trkpt lat="43.97787" lon="1.92588">
        <ele>198.8</ele>
        <time>2023-07-23T05:42:08Z</time>
      </trkpt>
      <trkpt lat="43.97786" lon="1.92592">
        <ele>199</ele>
        <time>2023-07-23T05:42:09Z</time>
      </trkpt>
      <trkpt lat="43.97786" lon="1.92596">
        <ele>199</ele>
        <time>2023-07-23T05:42:10Z</time>
      </trkpt>
      <trkpt lat="43.97785" lon="1.92599">
        <ele>199.2</ele>
        <time>2023-07-23T05:42:11Z</time>
      </trkpt>
      <trkpt lat="43.97785" lon="1.92603">
        <ele>199.2</ele>
        <time>2023-07-23T05:42:12Z</time>
      </trkpt>
      <trkpt lat="43.97785" lon="1.92607">
        <ele>199.2</ele>
        <time>2023-07-23T05:42:13Z</time>
      </trkpt>
      <trkpt lat="43.97785" lon="1.92611">
        <ele>199.4</ele>
        <time>2023-07-23T05:42:14Z</time>
      </trkpt>
      <trkpt lat="43.97784" lon="1.92615">
        <ele>199.4</ele>
        <time>2023-07-23T05:42:15Z</time>
      </trkpt>
      <trkpt lat="43.97784" lon="1.92619">
        <ele>199.4</ele>
        <time>2023-07-23T05:42:16Z</time>
      </trkpt>
      <trkpt lat="43.97783" lon="1.92623">
        <ele>199.6</ele>
        <time>2023-07-23T05:42:17Z</time>
      </trkpt>
      <trkpt lat="43.97783" lon="1.92627">
        <ele>199.6</ele>
        <time>2023-07-23T05:42:18Z</time>
      </trkpt>
      <trkpt lat="43.97783" lon="1.92629">
        <ele>199.6</ele>
        <time>2023-07-23T05:42:19Z</time>
      </trkpt>
      <trkpt lat="43.97783" lon="1.92632">
        <ele>199.6</ele>
        <time>2023-07-23T05:42:20Z</time>
      </trkpt>
      <trkpt lat="43.97782" lon="1.92635">
        <ele>199.8</ele>
        <time>2023-07-23T05:42:21Z</time>
      </trkpt>
      <trkpt lat="43.97782" lon="1.92638">
        <ele>199.8</ele>
        <time>2023-07-23T05:42:22Z</time>
      </trkpt>
      <trkpt lat="43.97782" lon="1.92641">
        <ele>200</ele>
        <time>2023-07-23T05:42:23Z</time>
      </trkpt>
      <trkpt lat="43.97782" lon="1.92646">
        <ele>200.4</ele>
        <time>2023-07-23T05:42:24Z</time>
      </trkpt>
      <trkpt lat="43.97783" lon="1.92651">
        <ele>200.4</ele>
        <time>2023-07-23T05:42:25Z</time>
      </trkpt>
      <trkpt lat="43.97785" lon="1.92668">
        <ele>200.8</ele>
        <time>2023-07-23T05:42:28Z</time>
      </trkpt>
      <trkpt lat="43.97786" lon="1.92678">
        <ele>201.2</ele>
        <time>2023-07-23T05:42:30Z</time>
      </trkpt>
      <trkpt lat="43.97787" lon="1.92683">
        <ele>201.4</ele>
        <time>2023-07-23T05:42:31Z</time>
      </trkpt>
      <trkpt lat="43.97787" lon="1.92687">
        <ele>201.6</ele>
        <time>2023-07-23T05:42:32Z</time>
      </trkpt>
      <trkpt lat="43.97787" lon="1.92691">
        <ele>201.8</ele>
        <time>2023-07-23T05:42:33Z</time>
      </trkpt>
      <trkpt lat="43.97786" lon="1.92696">
        <ele>201.8</ele>
        <time>2023-07-23T05:42:34Z</time>
      </trkpt>
      <trkpt lat="43.97786" lon="1.927">
        <ele>202</ele>
        <time>2023-07-23T05:42:35Z</time>
      </trkpt>
      <trkpt lat="43.97786" lon="1.92704">
        <ele>202</ele>
        <time>2023-07-23T05:42:36Z</time>
      </trkpt>
      <trkpt lat="43.97785" lon="1.92709">
        <ele>202.2</ele>
        <time>2023-07-23T05:42:37Z</time>
      </trkpt>
      <trkpt lat="43.97784" lon="1.92713">
        <ele>202.2</ele>
        <time>2023-07-23T05:42:38Z</time>
      </trkpt>
      <trkpt lat="43.97783" lon="1.92717">
        <ele>202.4</ele>
        <time>2023-07-23T05:42:39Z</time>
      </trkpt>
      <trkpt lat="43.97783" lon="1.9272">
        <ele>202.6</ele>
        <time>2023-07-23T05:42:40Z</time>
      </trkpt>
      <trkpt lat="43.97782" lon="1.92724">
        <ele>202.8</ele>
        <time>2023-07-23T05:42:41Z</time>
      </trkpt>
      <trkpt lat="43.97782" lon="1.92727">
        <ele>203.2</ele>
        <time>2023-07-23T05:42:42Z</time>
      </trkpt>
      <trkpt lat="43.9778" lon="1.92731">
        <ele>203.2</ele>
        <time>2023-07-23T05:42:43Z</time>
      </trkpt>
      <trkpt lat="43.9778" lon="1.92734">
        <ele>203.4</ele>
        <time>2023-07-23T05:42:44Z</time>
      </trkpt>
      <trkpt lat="43.9778" lon="1.92738">
        <ele>203.6</ele>
        <time>2023-07-23T05:42:45Z</time>
      </trkpt>
      <trkpt lat="43.97779" lon="1.92741">
        <ele>203.8</ele>
        <time>2023-07-23T05:42:46Z</time>
      </trkpt>
      <trkpt lat="43.97778" lon="1.92745">
        <ele>203.8</ele>
        <time>2023-07-23T05:42:47Z</time>
      </trkpt>
      <trkpt lat="43.97777" lon="1.92749">
        <ele>204</ele>
        <time>2023-07-23T05:42:48Z</time>
      </trkpt>
      <trkpt lat="43.97776" lon="1.92753">
        <ele>204.4</ele>
        <time>2023-07-23T05:42:49Z</time>
      </trkpt>
      <trkpt lat="43.97775" lon="1.92756">
        <ele>204.4</ele>
        <time>2023-07-23T05:42:50Z</time>
      </trkpt>
      <trkpt lat="43.97773" lon="1.92759">
        <ele>204.8</ele>
        <time>2023-07-23T05:42:51Z</time>
      </trkpt>
      <trkpt lat="43.97772" lon="1.92763">
        <ele>204.8</ele>
        <time>2023-07-23T05:42:52Z</time>
      </trkpt>
      <trkpt lat="43.97772" lon="1.92767">
        <ele>205</ele>
        <time>2023-07-23T05:42:53Z</time>
      </trkpt>
      <trkpt lat="43.97772" lon="1.9277">
        <ele>205</ele>
        <time>2023-07-23T05:42:54Z</time>
      </trkpt>
      <trkpt lat="43.97771" lon="1.92774">
        <ele>205.2</ele>
        <time>2023-07-23T05:42:55Z</time>
      </trkpt>
      <trkpt lat="43.97771" lon="1.92779">
        <ele>205.2</ele>
        <time>2023-07-23T05:42:56Z</time>
      </trkpt>
      <trkpt lat="43.9777" lon="1.92782">
        <ele>205.2</ele>
        <time>2023-07-23T05:42:57Z</time>
      </trkpt>
      <trkpt lat="43.97769" lon="1.92787">
        <ele>205.2</ele>
        <time>2023-07-23T05:42:58Z</time>
      </trkpt>
      <trkpt lat="43.97769" lon="1.92792">
        <ele>205.2</ele>
        <time>2023-07-23T05:42:59Z</time>
      </trkpt>
      <trkpt lat="43.97768" lon="1.92797">
        <ele>205.4</ele>
        <time>2023-07-23T05:43:00Z</time>
      </trkpt>
      <trkpt lat="43.97768" lon="1.92802">
        <ele>205.4</ele>
        <time>2023-07-23T05:43:01Z</time>
      </trkpt>
      <trkpt lat="43.97768" lon="1.92807">
        <ele>205.4</ele>
        <time>2023-07-23T05:43:02Z</time>
      </trkpt>
      <trkpt lat="43.97768" lon="1.92812">
        <ele>205.4</ele>
        <time>2023-07-23T05:43:03Z</time>
      </trkpt>
      <trkpt lat="43.97769" lon="1.92818">
        <ele>205.4</ele>
        <time>2023-07-23T05:43:04Z</time>
      </trkpt>
      <trkpt lat="43.97768" lon="1.92823">
        <ele>205.4</ele>
        <time>2023-07-23T05:43:05Z</time>
      </trkpt>
      <trkpt lat="43.97768" lon="1.92829">
        <ele>205.4</ele>
        <time>2023-07-23T05:43:06Z</time>
      </trkpt>
      <trkpt lat="43.97768" lon="1.92834">
        <ele>205.4</ele>
        <time>2023-07-23T05:43:07Z</time>
      </trkpt>
      <trkpt lat="43.97767" lon="1.92839">
        <ele>205.4</ele>
        <time>2023-07-23T05:43:08Z</time>
      </trkpt>
      <trkpt lat="43.97767" lon="1.92844">
        <ele>205.4</ele>
        <time>2023-07-23T05:43:09Z</time>
      </trkpt>
      <trkpt lat="43.97768" lon="1.9285">
        <ele>205.4</ele>
        <time>2023-07-23T05:43:10Z</time>
      </trkpt>
      <trkpt lat="43.9777" lon="1.92872">
        <ele>205.4</ele>
        <time>2023-07-23T05:43:14Z</time>
      </trkpt>
      <trkpt lat="43.97769" lon="1.92875">
        <ele>205.4</ele>
        <time>2023-07-23T05:43:15Z</time>
      </trkpt>
      <trkpt lat="43.97769" lon="1.92877">
        <ele>205.6</ele>
        <time>2023-07-23T05:43:16Z</time>
      </trkpt>
      <trkpt lat="43.9777" lon="1.9288">
        <ele>205.6</ele>
        <time>2023-07-23T05:43:17Z</time>
      </trkpt>
      <trkpt lat="43.9777" lon="1.92882">
        <ele>205.8</ele>
        <time>2023-07-23T05:43:18Z</time>
      </trkpt>
      <trkpt lat="43.9777" lon="1.92885">
        <ele>205.8</ele>
        <time>2023-07-23T05:43:19Z</time>
      </trkpt>
      <trkpt lat="43.97771" lon="1.92889">
        <ele>206</ele>
        <time>2023-07-23T05:43:21Z</time>
      </trkpt>
      <trkpt lat="43.97771" lon="1.92891">
        <ele>206</ele>
        <time>2023-07-23T05:43:22Z</time>
      </trkpt>
      <trkpt lat="43.97771" lon="1.92894">
        <ele>206.2</ele>
        <time>2023-07-23T05:43:23Z</time>
      </trkpt>
      <trkpt lat="43.9777" lon="1.92897">
        <ele>206.4</ele>
        <time>2023-07-23T05:43:24Z</time>
      </trkpt>
      <trkpt lat="43.9777" lon="1.92899">
        <ele>206.6</ele>
        <time>2023-07-23T05:43:25Z</time>
      </trkpt>
      <trkpt lat="43.97769" lon="1.929">
        <ele>206.8</ele>
        <time>2023-07-23T05:43:26Z</time>
      </trkpt>
      <trkpt lat="43.97769" lon="1.92902">
        <ele>206.8</ele>
        <time>2023-07-23T05:43:27Z</time>
      </trkpt>
      <trkpt lat="43.97768" lon="1.92903">
        <ele>207</ele>
        <time>2023-07-23T05:43:28Z</time>
      </trkpt>
      <trkpt lat="43.97768" lon="1.92905">
        <ele>207</ele>
        <time>2023-07-23T05:43:29Z</time>
      </trkpt>
      <trkpt lat="43.97767" lon="1.92906">
        <ele>207.2</ele>
        <time>2023-07-23T05:43:30Z</time>
      </trkpt>
      <trkpt lat="43.97766" lon="1.92908">
        <ele>207.2</ele>
        <time>2023-07-23T05:43:31Z</time>
      </trkpt>
      <trkpt lat="43.97765" lon="1.9291">
        <ele>207.4</ele>
        <time>2023-07-23T05:43:32Z</time>
      </trkpt>
      <trkpt lat="43.97764" lon="1.92913">
        <ele>208</ele>
        <time>2023-07-23T05:43:33Z</time>
      </trkpt>
      <trkpt lat="43.97764" lon="1.92913">
        <ele>208.2</ele>
        <time>2023-07-23T05:43:34Z</time>
      </trkpt>
      <trkpt lat="43.97763" lon="1.92913">
        <ele>208.4</ele>
        <time>2023-07-23T05:43:35Z</time>
      </trkpt>
      <trkpt lat="43.97763" lon="1.92914">
        <ele>208.6</ele>
        <time>2023-07-23T05:43:36Z</time>
      </trkpt>
      <trkpt lat="43.97761" lon="1.92915">
        <ele>208.8</ele>
        <time>2023-07-23T05:43:37Z</time>
      </trkpt>
      <trkpt lat="43.9776" lon="1.92916">
        <ele>208.8</ele>
        <time>2023-07-23T05:43:38Z</time>
      </trkpt>
      <trkpt lat="43.97759" lon="1.92917">
        <ele>209</ele>
        <time>2023-07-23T05:43:39Z</time>
      </trkpt>
      <trkpt lat="43.97758" lon="1.92919">
        <ele>209.4</ele>
        <time>2023-07-23T05:43:40Z</time>
      </trkpt>
      <trkpt lat="43.97756" lon="1.92921">
        <ele>209.6</ele>
        <time>2023-07-23T05:43:41Z</time>
      </trkpt>
      <trkpt lat="43.97755" lon="1.92922">
        <ele>209.8</ele>
        <time>2023-07-23T05:43:42Z</time>
      </trkpt>
      <trkpt lat="43.97754" lon="1.92923">
        <ele>209.8</ele>
        <time>2023-07-23T05:43:43Z</time>
      </trkpt>
      <trkpt lat="43.97753" lon="1.92924">
        <ele>210</ele>
        <time>2023-07-23T05:43:44Z</time>
      </trkpt>
      <trkpt lat="43.97752" lon="1.92926">
        <ele>210.2</ele>
        <time>2023-07-23T05:43:45Z</time>
      </trkpt>
      <trkpt lat="43.97751" lon="1.92927">
        <ele>210.4</ele>
        <time>2023-07-23T05:43:46Z</time>
      </trkpt>
      <trkpt lat="43.9775" lon="1.92928">
        <ele>210.6</ele>
        <time>2023-07-23T05:43:47Z</time>
      </trkpt>
      <trkpt lat="43.97747" lon="1.92931">
        <ele>210.8</ele>
        <time>2023-07-23T05:43:48Z</time>
      </trkpt>
      <trkpt lat="43.97747" lon="1.92931">
        <ele>211.2</ele>
        <time>2023-07-23T05:43:49Z</time>
      </trkpt>
      <trkpt lat="43.97747" lon="1.92932">
        <ele>211.4</ele>
        <time>2023-07-23T05:43:50Z</time>
      </trkpt>
      <trkpt lat="43.97746" lon="1.92934">
        <ele>211.8</ele>
        <time>2023-07-23T05:43:51Z</time>
      </trkpt>
      <trkpt lat="43.97746" lon="1.92934">
        <ele>212</ele>
        <time>2023-07-23T05:43:52Z</time>
      </trkpt>
      <trkpt lat="43.97745" lon="1.92936">
        <ele>212.2</ele>
        <time>2023-07-23T05:43:53Z</time>
      </trkpt>
      <trkpt lat="43.97744" lon="1.92938">
        <ele>212.4</ele>
        <time>2023-07-23T05:43:54Z</time>
      </trkpt>
      <trkpt lat="43.97741" lon="1.92941">
        <ele>212.8</ele>
        <time>2023-07-23T05:43:55Z</time>
      </trkpt>
      <trkpt lat="43.97739" lon="1.92944">
        <ele>213.2</ele>
        <time>2023-07-23T05:43:56Z</time>
      </trkpt>
      <trkpt lat="43.97739" lon="1.92944">
        <ele>213.4</ele>
        <time>2023-07-23T05:43:57Z</time>
      </trkpt>
      <trkpt lat="43.97738" lon="1.92945">
        <ele>214</ele>
        <time>2023-07-23T05:43:58Z</time>
      </trkpt>
      <trkpt lat="43.97737" lon="1.92946">
        <ele>214.2</ele>
        <time>2023-07-23T05:43:59Z</time>
      </trkpt>
      <trkpt lat="43.97736" lon="1.9295">
        <ele>214.4</ele>
        <time>2023-07-23T05:44:00Z</time>
      </trkpt>
      <trkpt lat="43.97735" lon="1.92953">
        <ele>214.4</ele>
        <time>2023-07-23T05:44:01Z</time>
      </trkpt>
      <trkpt lat="43.97735" lon="1.92956">
        <ele>214.8</ele>
        <time>2023-07-23T05:44:02Z</time>
      </trkpt>
      <trkpt lat="43.97735" lon="1.92956">
        <ele>215.2</ele>
        <time>2023-07-23T05:44:03Z</time>
      </trkpt>
      <trkpt lat="43.97734" lon="1.92958">
        <ele>215.6</ele>
        <time>2023-07-23T05:44:04Z</time>
      </trkpt>
      <trkpt lat="43.97732" lon="1.92962">
        <ele>216.2</ele>
        <time>2023-07-23T05:44:05Z</time>
      </trkpt>
      <trkpt lat="43.97732" lon="1.92962">
        <ele>216.6</ele>
        <time>2023-07-23T05:44:06Z</time>
      </trkpt>
      <trkpt lat="43.97732" lon="1.92964">
        <ele>216.8</ele>
        <time>2023-07-23T05:44:07Z</time>
      </trkpt>
      <trkpt lat="43.97732" lon="1.92966">
        <ele>217</ele>
        <time>2023-07-23T05:44:08Z</time>
      </trkpt>
      <trkpt lat="43.97733" lon="1.92967">
        <ele>217.2</ele>
        <time>2023-07-23T05:44:09Z</time>
      </trkpt>
      <trkpt lat="43.97733" lon="1.92969">
        <ele>217.6</ele>
        <time>2023-07-23T05:44:10Z</time>
      </trkpt>
      <trkpt lat="43.97733" lon="1.92972">
        <ele>217.8</ele>
        <time>2023-07-23T05:44:11Z</time>
      </trkpt>
      <trkpt lat="43.97733" lon="1.92974">
        <ele>218.4</ele>
        <time>2023-07-23T05:44:12Z</time>
      </trkpt>
      <trkpt lat="43.97733" lon="1.92974">
        <ele>218.6</ele>
        <time>2023-07-23T05:44:13Z</time>
      </trkpt>
      <trkpt lat="43.97733" lon="1.92977">
        <ele>219</ele>
        <time>2023-07-23T05:44:14Z</time>
      </trkpt>
      <trkpt lat="43.97733" lon="1.92978">
        <ele>219</ele>
        <time>2023-07-23T05:44:15Z</time>
      </trkpt>
      <trkpt lat="43.97733" lon="1.92982">
        <ele>219.4</ele>
        <time>2023-07-23T05:44:16Z</time>
      </trkpt>
      <trkpt lat="43.97733" lon="1.92985">
        <ele>219.6</ele>
        <time>2023-07-23T05:44:17Z</time>
      </trkpt>
      <trkpt lat="43.97733" lon="1.92988">
        <ele>219.8</ele>
        <time>2023-07-23T05:44:18Z</time>
      </trkpt>
      <trkpt lat="43.97733" lon="1.92988">
        <ele>220</ele>
        <time>2023-07-23T05:44:19Z</time>
      </trkpt>
      <trkpt lat="43.97734" lon="1.92991">
        <ele>220.2</ele>
        <time>2023-07-23T05:44:20Z</time>
      </trkpt>
      <trkpt lat="43.97734" lon="1.92993">
        <ele>220.6</ele>
        <time>2023-07-23T05:44:21Z</time>
      </trkpt>
      <trkpt lat="43.97734" lon="1.92995">
        <ele>220.8</ele>
        <time>2023-07-23T05:44:22Z</time>
      </trkpt>
      <trkpt lat="43.97734" lon="1.92998">
        <ele>221.2</ele>
        <time>2023-07-23T05:44:23Z</time>
      </trkpt>
      <trkpt lat="43.97734" lon="1.92998">
        <ele>221.2</ele>
        <time>2023-07-23T05:44:24Z</time>
      </trkpt>
      <trkpt lat="43.97735" lon="1.93003">
        <ele>221.4</ele>
        <time>2023-07-23T05:44:25Z</time>
      </trkpt>
      <trkpt lat="43.97735" lon="1.93003">
        <ele>221.6</ele>
        <time>2023-07-23T05:44:26Z</time>
      </trkpt>
      <trkpt lat="43.97736" lon="1.93006">
        <ele>221.6</ele>
        <time>2023-07-23T05:44:27Z</time>
      </trkpt>
      <trkpt lat="43.97736" lon="1.93008">
        <ele>221.8</ele>
        <time>2023-07-23T05:44:28Z</time>
      </trkpt>
      <trkpt lat="43.97737" lon="1.9301">
        <ele>222</ele>
        <time>2023-07-23T05:44:29Z</time>
      </trkpt>
      <trkpt lat="43.97738" lon="1.93012">
        <ele>222</ele>
        <time>2023-07-23T05:44:30Z</time>
      </trkpt>
      <trkpt lat="43.97739" lon="1.93014">
        <ele>222.2</ele>
        <time>2023-07-23T05:44:31Z</time>
      </trkpt>
      <trkpt lat="43.97741" lon="1.93016">
        <ele>222.2</ele>
        <time>2023-07-23T05:44:32Z</time>
      </trkpt>
      <trkpt lat="43.97741" lon="1.93016">
        <ele>222.4</ele>
        <time>2023-07-23T05:44:33Z</time>
      </trkpt>
      <trkpt lat="43.97742" lon="1.93016">
        <ele>222.6</ele>
        <time>2023-07-23T05:44:34Z</time>
      </trkpt>
      <trkpt lat="43.97743" lon="1.93017">
        <ele>222.6</ele>
        <time>2023-07-23T05:44:35Z</time>
      </trkpt>
      <trkpt lat="43.97746" lon="1.93018">
        <ele>222.8</ele>
        <time>2023-07-23T05:44:36Z</time>
      </trkpt>
      <trkpt lat="43.97746" lon="1.93018">
        <ele>222.8</ele>
        <time>2023-07-23T05:44:37Z</time>
      </trkpt>
      <trkpt lat="43.97748" lon="1.9302">
        <ele>222.8</ele>
        <time>2023-07-23T05:44:38Z</time>
      </trkpt>
      <trkpt lat="43.97749" lon="1.93021">
        <ele>223</ele>
        <time>2023-07-23T05:44:39Z</time>
      </trkpt>
      <trkpt lat="43.97752" lon="1.93022">
        <ele>223</ele>
        <time>2023-07-23T05:44:40Z</time>
      </trkpt>
      <trkpt lat="43.97753" lon="1.93023">
        <ele>223</ele>
        <time>2023-07-23T05:44:41Z</time>
      </trkpt>
      <trkpt lat="43.97753" lon="1.93023">
        <ele>223.2</ele>
        <time>2023-07-23T05:44:42Z</time>
      </trkpt>
      <trkpt lat="43.97756" lon="1.93024">
        <ele>223.2</ele>
        <time>2023-07-23T05:44:43Z</time>
      </trkpt>
      <trkpt lat="43.97756" lon="1.93024">
        <ele>223.2</ele>
        <time>2023-07-23T05:44:44Z</time>
      </trkpt>
      <trkpt lat="43.97759" lon="1.93025">
        <ele>223.2</ele>
        <time>2023-07-23T05:44:45Z</time>
      </trkpt>
      <trkpt lat="43.97761" lon="1.93026">
        <ele>223.2</ele>
        <time>2023-07-23T05:44:46Z</time>
      </trkpt>
      <trkpt lat="43.97761" lon="1.93026">
        <ele>223.4</ele>
        <time>2023-07-23T05:44:47Z</time>
      </trkpt>
      <trkpt lat="43.97764" lon="1.93029">
        <ele>223.4</ele>
        <time>2023-07-23T05:44:48Z</time>
      </trkpt>
      <trkpt lat="43.97764" lon="1.93029">
        <ele>223.4</ele>
        <time>2023-07-23T05:44:49Z</time>
      </trkpt>
      <trkpt lat="43.97767" lon="1.93032">
        <ele>223.6</ele>
        <time>2023-07-23T05:44:50Z</time>
      </trkpt>
      <trkpt lat="43.97768" lon="1.93033">
        <ele>223.6</ele>
        <time>2023-07-23T05:44:51Z</time>
      </trkpt>
      <trkpt lat="43.97769" lon="1.93035">
        <ele>223.6</ele>
        <time>2023-07-23T05:44:52Z</time>
      </trkpt>
      <trkpt lat="43.97769" lon="1.93035">
        <ele>223.4</ele>
        <time>2023-07-23T05:44:53Z</time>
      </trkpt>
      <trkpt lat="43.9777" lon="1.93036">
        <ele>223.4</ele>
        <time>2023-07-23T05:44:54Z</time>
      </trkpt>
      <trkpt lat="43.97784" lon="1.93052">
        <ele>223.2</ele>
        <time>2023-07-23T05:45:01Z</time>
      </trkpt>
      <trkpt lat="43.97791" lon="1.93063">
        <ele>223</ele>
        <time>2023-07-23T05:45:05Z</time>
      </trkpt>
      <trkpt lat="43.97792" lon="1.93068">
        <ele>222.8</ele>
        <time>2023-07-23T05:45:07Z</time>
      </trkpt>
      <trkpt lat="43.97793" lon="1.9307">
        <ele>222.8</ele>
        <time>2023-07-23T05:45:08Z</time>
      </trkpt>
      <trkpt lat="43.97793" lon="1.9307">
        <ele>222.6</ele>
        <time>2023-07-23T05:45:09Z</time>
      </trkpt>
      <trkpt lat="43.97794" lon="1.93077">
        <ele>222.4</ele>
        <time>2023-07-23T05:45:11Z</time>
      </trkpt>
      <trkpt lat="43.97794" lon="1.9308">
        <ele>222.2</ele>
        <time>2023-07-23T05:45:12Z</time>
      </trkpt>
      <trkpt lat="43.97794" lon="1.93083">
        <ele>222.2</ele>
        <time>2023-07-23T05:45:13Z</time>
      </trkpt>
      <trkpt lat="43.97795" lon="1.93086">
        <ele>222.2</ele>
        <time>2023-07-23T05:45:14Z</time>
      </trkpt>
      <trkpt lat="43.97795" lon="1.93088">
        <ele>222.2</ele>
        <time>2023-07-23T05:45:15Z</time>
      </trkpt>
      <trkpt lat="43.97795" lon="1.93091">
        <ele>222</ele>
        <time>2023-07-23T05:45:16Z</time>
      </trkpt>
      <trkpt lat="43.97795" lon="1.93095">
        <ele>222</ele>
        <time>2023-07-23T05:45:17Z</time>
      </trkpt>
      <trkpt lat="43.97797" lon="1.93119">
        <ele>222</ele>
        <time>2023-07-23T05:45:24Z</time>
      </trkpt>
      <trkpt lat="43.97799" lon="1.93152">
        <ele>221.2</ele>
        <time>2023-07-23T05:45:32Z</time>
      </trkpt>
      <trkpt lat="43.97801" lon="1.93162">
        <ele>221</ele>
        <time>2023-07-23T05:45:34Z</time>
      </trkpt>
      <trkpt lat="43.97802" lon="1.93183">
        <ele>220.2</ele>
        <time>2023-07-23T05:45:39Z</time>
      </trkpt>
      <trkpt lat="43.97801" lon="1.93194">
        <ele>220.2</ele>
        <time>2023-07-23T05:45:40Z</time>
      </trkpt>
      <trkpt lat="43.97799" lon="1.932">
        <ele>219.8</ele>
        <time>2023-07-23T05:45:41Z</time>
      </trkpt>
      <trkpt lat="43.97799" lon="1.932">
        <ele>219.6</ele>
        <time>2023-07-23T05:45:42Z</time>
      </trkpt>
      <trkpt lat="43.97795" lon="1.93213">
        <ele>219.6</ele>
        <time>2023-07-23T05:45:43Z</time>
      </trkpt>
      <trkpt lat="43.97794" lon="1.93227">
        <ele>219.2</ele>
        <time>2023-07-23T05:45:45Z</time>
      </trkpt>
      <trkpt lat="43.97795" lon="1.93234">
        <ele>218.4</ele>
        <time>2023-07-23T05:45:46Z</time>
      </trkpt>
      <trkpt lat="43.97795" lon="1.93234">
        <ele>218</ele>
        <time>2023-07-23T05:45:47Z</time>
      </trkpt>
      <trkpt lat="43.978" lon="1.93244">
        <ele>217.2</ele>
        <time>2023-07-23T05:45:48Z</time>
      </trkpt>
      <trkpt lat="43.97803" lon="1.93247">
        <ele>216.6</ele>
        <time>2023-07-23T05:45:49Z</time>
      </trkpt>
      <trkpt lat="43.97807" lon="1.93249">
        <ele>216.2</ele>
        <time>2023-07-23T05:45:50Z</time>
      </trkpt>
      <trkpt lat="43.97811" lon="1.93252">
        <ele>215</ele>
        <time>2023-07-23T05:45:52Z</time>
      </trkpt>
      <trkpt lat="43.9782" lon="1.9326">
        <ele>214.4</ele>
        <time>2023-07-23T05:45:53Z</time>
      </trkpt>
      <trkpt lat="43.97823" lon="1.93267">
        <ele>213.8</ele>
        <time>2023-07-23T05:45:54Z</time>
      </trkpt>
      <trkpt lat="43.97829" lon="1.93281">
        <ele>212.6</ele>
        <time>2023-07-23T05:45:56Z</time>
      </trkpt>
      <trkpt lat="43.97832" lon="1.93288">
        <ele>211.8</ele>
        <time>2023-07-23T05:45:57Z</time>
      </trkpt>
      <trkpt lat="43.97836" lon="1.93292">
        <ele>211.2</ele>
        <time>2023-07-23T05:45:58Z</time>
      </trkpt>
      <trkpt lat="43.97841" lon="1.93294">
        <ele>210.8</ele>
        <time>2023-07-23T05:45:59Z</time>
      </trkpt>
      <trkpt lat="43.97845" lon="1.93294">
        <ele>210</ele>
        <time>2023-07-23T05:46:00Z</time>
      </trkpt>
      <trkpt lat="43.97848" lon="1.93292">
        <ele>209.8</ele>
        <time>2023-07-23T05:46:01Z</time>
      </trkpt>
      <trkpt lat="43.97851" lon="1.93291">
        <ele>209.2</ele>
        <time>2023-07-23T05:46:02Z</time>
      </trkpt>
      <trkpt lat="43.97854" lon="1.93289">
        <ele>208.8</ele>
        <time>2023-07-23T05:46:03Z</time>
      </trkpt>
      <trkpt lat="43.97857" lon="1.93288">
        <ele>208.2</ele>
        <time>2023-07-23T05:46:04Z</time>
      </trkpt>
      <trkpt lat="43.97859" lon="1.93287">
        <ele>207.8</ele>
        <time>2023-07-23T05:46:05Z</time>
      </trkpt>
      <trkpt lat="43.97861" lon="1.93285">
        <ele>207.6</ele>
        <time>2023-07-23T05:46:06Z</time>
      </trkpt>
      <trkpt lat="43.97863" lon="1.93285">
        <ele>207.2</ele>
        <time>2023-07-23T05:46:07Z</time>
      </trkpt>
      <trkpt lat="43.97864" lon="1.93285">
        <ele>207.2</ele>
        <time>2023-07-23T05:46:08Z</time>
      </trkpt>
      <trkpt lat="43.97865" lon="1.93284">
        <ele>206.6</ele>
        <time>2023-07-23T05:46:09Z</time>
      </trkpt>
      <trkpt lat="43.97867" lon="1.93283">
        <ele>206.2</ele>
        <time>2023-07-23T05:46:10Z</time>
      </trkpt>
      <trkpt lat="43.97869" lon="1.93282">
        <ele>206</ele>
        <time>2023-07-23T05:46:11Z</time>
      </trkpt>
      <trkpt lat="43.97871" lon="1.93281">
        <ele>205.4</ele>
        <time>2023-07-23T05:46:13Z</time>
      </trkpt>
      <trkpt lat="43.97871" lon="1.93281">
        <ele>205.2</ele>
        <time>2023-07-23T05:46:14Z</time>
      </trkpt>
      <trkpt lat="43.97871" lon="1.93281">
        <ele>205</ele>
        <time>2023-07-23T05:46:15Z</time>
      </trkpt>
      <trkpt lat="43.97871" lon="1.93281">
        <ele>205</ele>
        <time>2023-07-23T05:46:16Z</time>
      </trkpt>
      <trkpt lat="43.97877" lon="1.9328">
        <ele>204</ele>
        <time>2023-07-23T05:46:27Z</time>
      </trkpt>
      <trkpt lat="43.97883" lon="1.93278">
        <ele>204</ele>
        <time>2023-07-23T05:46:29Z</time>
      </trkpt>
      <trkpt lat="43.97904" lon="1.93273">
        <ele>203.6</ele>
        <time>2023-07-23T05:46:35Z</time>
      </trkpt>
      <trkpt lat="43.97923" lon="1.93263">
        <ele>203.6</ele>
        <time>2023-07-23T05:46:37Z</time>
      </trkpt>
      <trkpt lat="43.97933" lon="1.93256">
        <ele>203.4</ele>
        <time>2023-07-23T05:46:39Z</time>
      </trkpt>
      <trkpt lat="43.97949" lon="1.93242">
        <ele>203</ele>
        <time>2023-07-23T05:46:42Z</time>
      </trkpt>
      <trkpt lat="43.97964" lon="1.93229">
        <ele>202.4</ele>
        <time>2023-07-23T05:46:45Z</time>
      </trkpt>
      <trkpt lat="43.97975" lon="1.93216">
        <ele>202.2</ele>
        <time>2023-07-23T05:46:47Z</time>
      </trkpt>
      <trkpt lat="43.97978" lon="1.9321">
        <ele>202</ele>
        <time>2023-07-23T05:46:48Z</time>
      </trkpt>
      <trkpt lat="43.97982" lon="1.93204">
        <ele>202</ele>
        <time>2023-07-23T05:46:49Z</time>
      </trkpt>
      <trkpt lat="43.97993" lon="1.93185">
        <ele>201.6</ele>
        <time>2023-07-23T05:46:52Z</time>
      </trkpt>
      <trkpt lat="43.97999" lon="1.93174">
        <ele>201.4</ele>
        <time>2023-07-23T05:46:54Z</time>
      </trkpt>
      <trkpt lat="43.98008" lon="1.93154">
        <ele>201</ele>
        <time>2023-07-23T05:46:57Z</time>
      </trkpt>
      <trkpt lat="43.9801" lon="1.9315">
        <ele>200.8</ele>
        <time>2023-07-23T05:46:58Z</time>
      </trkpt>
      <trkpt lat="43.98013" lon="1.93145">
        <ele>200.8</ele>
        <time>2023-07-23T05:46:59Z</time>
      </trkpt>
      <trkpt lat="43.98015" lon="1.93141">
        <ele>200.6</ele>
        <time>2023-07-23T05:47:00Z</time>
      </trkpt>
      <trkpt lat="43.98017" lon="1.93139">
        <ele>200.6</ele>
        <time>2023-07-23T05:47:01Z</time>
      </trkpt>
      <trkpt lat="43.98019" lon="1.9314">
        <ele>200.4</ele>
        <time>2023-07-23T05:47:02Z</time>
      </trkpt>
      <trkpt lat="43.9802" lon="1.93142">
        <ele>200.4</ele>
        <time>2023-07-23T05:47:03Z</time>
      </trkpt>
      <trkpt lat="43.9802" lon="1.93142">
        <ele>200</ele>
        <time>2023-07-23T05:47:04Z</time>
      </trkpt>
      <trkpt lat="43.98021" lon="1.93147">
        <ele>200.2</ele>
        <time>2023-07-23T05:47:05Z</time>
      </trkpt>
      <trkpt lat="43.98022" lon="1.9315">
        <ele>200.2</ele>
        <time>2023-07-23T05:47:06Z</time>
      </trkpt>
      <trkpt lat="43.98022" lon="1.93152">
        <ele>200</ele>
        <time>2023-07-23T05:47:07Z</time>
      </trkpt>
      <trkpt lat="43.98031" lon="1.93175">
        <ele>200.4</ele>
        <time>2023-07-23T05:47:15Z</time>
      </trkpt>
      <trkpt lat="43.98034" lon="1.93182">
        <ele>201</ele>
        <time>2023-07-23T05:47:18Z</time>
      </trkpt>
      <trkpt lat="43.98036" lon="1.93186">
        <ele>201.2</ele>
        <time>2023-07-23T05:47:20Z</time>
      </trkpt>
      <trkpt lat="43.98036" lon="1.93187">
        <ele>201.6</ele>
        <time>2023-07-23T05:47:21Z</time>
      </trkpt>
      <trkpt lat="43.98037" lon="1.93189">
        <ele>202.4</ele>
        <time>2023-07-23T05:47:23Z</time>
      </trkpt>
      <trkpt lat="43.98038" lon="1.93192">
        <ele>202.6</ele>
        <time>2023-07-23T05:47:24Z</time>
      </trkpt>
      <trkpt lat="43.98039" lon="1.93193">
        <ele>203</ele>
        <time>2023-07-23T05:47:25Z</time>
      </trkpt>
      <trkpt lat="43.9804" lon="1.93194">
        <ele>203.2</ele>
        <time>2023-07-23T05:47:26Z</time>
      </trkpt>
      <trkpt lat="43.98042" lon="1.93196">
        <ele>203.4</ele>
        <time>2023-07-23T05:47:27Z</time>
      </trkpt>
      <trkpt lat="43.98043" lon="1.93197">
        <ele>203.8</ele>
        <time>2023-07-23T05:47:28Z</time>
      </trkpt>
      <trkpt lat="43.98043" lon="1.93199">
        <ele>204</ele>
        <time>2023-07-23T05:47:29Z</time>
      </trkpt>
      <trkpt lat="43.98044" lon="1.93201">
        <ele>204.4</ele>
        <time>2023-07-23T05:47:30Z</time>
      </trkpt>
      <trkpt lat="43.98045" lon="1.93203">
        <ele>204.6</ele>
        <time>2023-07-23T05:47:31Z</time>
      </trkpt>
      <trkpt lat="43.98046" lon="1.93204">
        <ele>205</ele>
        <time>2023-07-23T05:47:32Z</time>
      </trkpt>
      <trkpt lat="43.98047" lon="1.93206">
        <ele>205.2</ele>
        <time>2023-07-23T05:47:33Z</time>
      </trkpt>
      <trkpt lat="43.98048" lon="1.93208">
        <ele>205.4</ele>
        <time>2023-07-23T05:47:34Z</time>
      </trkpt>
      <trkpt lat="43.98049" lon="1.93209">
        <ele>205.6</ele>
        <time>2023-07-23T05:47:35Z</time>
      </trkpt>
      <trkpt lat="43.98051" lon="1.93209">
        <ele>205.8</ele>
        <time>2023-07-23T05:47:36Z</time>
      </trkpt>
      <trkpt lat="43.98052" lon="1.9321">
        <ele>206</ele>
        <time>2023-07-23T05:47:37Z</time>
      </trkpt>
      <trkpt lat="43.98053" lon="1.9321">
        <ele>206.2</ele>
        <time>2023-07-23T05:47:38Z</time>
      </trkpt>
      <trkpt lat="43.98054" lon="1.9321">
        <ele>206.6</ele>
        <time>2023-07-23T05:47:39Z</time>
      </trkpt>
      <trkpt lat="43.98055" lon="1.9321">
        <ele>206.8</ele>
        <time>2023-07-23T05:47:40Z</time>
      </trkpt>
      <trkpt lat="43.98056" lon="1.9321">
        <ele>207.2</ele>
        <time>2023-07-23T05:47:41Z</time>
      </trkpt>
      <trkpt lat="43.98058" lon="1.9321">
        <ele>207.4</ele>
        <time>2023-07-23T05:47:42Z</time>
      </trkpt>
      <trkpt lat="43.98059" lon="1.9321">
        <ele>207.8</ele>
        <time>2023-07-23T05:47:43Z</time>
      </trkpt>
      <trkpt lat="43.98061" lon="1.9321">
        <ele>208</ele>
        <time>2023-07-23T05:47:44Z</time>
      </trkpt>
      <trkpt lat="43.98062" lon="1.9321">
        <ele>208.2</ele>
        <time>2023-07-23T05:47:45Z</time>
      </trkpt>
      <trkpt lat="43.98064" lon="1.9321">
        <ele>208.4</ele>
        <time>2023-07-23T05:47:46Z</time>
      </trkpt>
      <trkpt lat="43.98064" lon="1.9321">
        <ele>208.6</ele>
        <time>2023-07-23T05:47:47Z</time>
      </trkpt>
      <trkpt lat="43.98067" lon="1.9321">
        <ele>209.2</ele>
        <time>2023-07-23T05:47:48Z</time>
      </trkpt>
      <trkpt lat="43.98069" lon="1.9321">
        <ele>209.4</ele>
        <time>2023-07-23T05:47:49Z</time>
      </trkpt>
      <trkpt lat="43.98069" lon="1.9321">
        <ele>209.6</ele>
        <time>2023-07-23T05:47:50Z</time>
      </trkpt>
      <trkpt lat="43.9807" lon="1.93211">
        <ele>210.2</ele>
        <time>2023-07-23T05:47:51Z</time>
      </trkpt>
      <trkpt lat="43.98072" lon="1.93211">
        <ele>210.2</ele>
        <time>2023-07-23T05:47:52Z</time>
      </trkpt>
      <trkpt lat="43.98074" lon="1.93211">
        <ele>210.8</ele>
        <time>2023-07-23T05:47:53Z</time>
      </trkpt>
      <trkpt lat="43.98076" lon="1.93211">
        <ele>211</ele>
        <time>2023-07-23T05:47:54Z</time>
      </trkpt>
      <trkpt lat="43.98077" lon="1.93211">
        <ele>211.4</ele>
        <time>2023-07-23T05:47:55Z</time>
      </trkpt>
      <trkpt lat="43.98079" lon="1.93211">
        <ele>211.4</ele>
        <time>2023-07-23T05:47:56Z</time>
      </trkpt>
      <trkpt lat="43.9808" lon="1.93211">
        <ele>212</ele>
        <time>2023-07-23T05:47:57Z</time>
      </trkpt>
      <trkpt lat="43.98081" lon="1.9321">
        <ele>212.4</ele>
        <time>2023-07-23T05:47:58Z</time>
      </trkpt>
      <trkpt lat="43.98083" lon="1.9321">
        <ele>212.6</ele>
        <time>2023-07-23T05:47:59Z</time>
      </trkpt>
      <trkpt lat="43.98083" lon="1.93211">
        <ele>212.8</ele>
        <time>2023-07-23T05:48:00Z</time>
      </trkpt>
      <trkpt lat="43.98084" lon="1.93211">
        <ele>213</ele>
        <time>2023-07-23T05:48:01Z</time>
      </trkpt>
      <trkpt lat="43.98085" lon="1.93212">
        <ele>213.2</ele>
        <time>2023-07-23T05:48:02Z</time>
      </trkpt>
      <trkpt lat="43.98086" lon="1.93213">
        <ele>213.4</ele>
        <time>2023-07-23T05:48:03Z</time>
      </trkpt>
      <trkpt lat="43.98087" lon="1.93215">
        <ele>213.6</ele>
        <time>2023-07-23T05:48:04Z</time>
      </trkpt>
      <trkpt lat="43.98088" lon="1.93216">
        <ele>213.8</ele>
        <time>2023-07-23T05:48:05Z</time>
      </trkpt>
      <trkpt lat="43.98088" lon="1.93216">
        <ele>214.6</ele>
        <time>2023-07-23T05:48:06Z</time>
      </trkpt>
      <trkpt lat="43.98093" lon="1.93215">
        <ele>215.2</ele>
        <time>2023-07-23T05:48:07Z</time>
      </trkpt>
      <trkpt lat="43.98096" lon="1.93214">
        <ele>215.2</ele>
        <time>2023-07-23T05:48:08Z</time>
      </trkpt>
      <trkpt lat="43.98097" lon="1.93214">
        <ele>215.6</ele>
        <time>2023-07-23T05:48:09Z</time>
      </trkpt>
      <trkpt lat="43.98099" lon="1.93214">
        <ele>215.8</ele>
        <time>2023-07-23T05:48:10Z</time>
      </trkpt>
      <trkpt lat="43.981" lon="1.93215">
        <ele>216.4</ele>
        <time>2023-07-23T05:48:11Z</time>
      </trkpt>
      <trkpt lat="43.98103" lon="1.93215">
        <ele>216.4</ele>
        <time>2023-07-23T05:48:12Z</time>
      </trkpt>
      <trkpt lat="43.98105" lon="1.93214">
        <ele>216.8</ele>
        <time>2023-07-23T05:48:13Z</time>
      </trkpt>
      <trkpt lat="43.98106" lon="1.93215">
        <ele>217</ele>
        <time>2023-07-23T05:48:14Z</time>
      </trkpt>
      <trkpt lat="43.98108" lon="1.93216">
        <ele>217.2</ele>
        <time>2023-07-23T05:48:15Z</time>
      </trkpt>
      <trkpt lat="43.98109" lon="1.93216">
        <ele>217.2</ele>
        <time>2023-07-23T05:48:16Z</time>
      </trkpt>
      <trkpt lat="43.9811" lon="1.93216">
        <ele>217.2</ele>
        <time>2023-07-23T05:48:17Z</time>
      </trkpt>
      <trkpt lat="43.98111" lon="1.93217">
        <ele>217.4</ele>
        <time>2023-07-23T05:48:18Z</time>
      </trkpt>
      <trkpt lat="43.98112" lon="1.93217">
        <ele>217.6</ele>
        <time>2023-07-23T05:48:19Z</time>
      </trkpt>
      <trkpt lat="43.98113" lon="1.93217">
        <ele>217.6</ele>
        <time>2023-07-23T05:48:20Z</time>
      </trkpt>
      <trkpt lat="43.98114" lon="1.93217">
        <ele>217.8</ele>
        <time>2023-07-23T05:48:21Z</time>
      </trkpt>
      <trkpt lat="43.98115" lon="1.93217">
        <ele>218</ele>
        <time>2023-07-23T05:48:22Z</time>
      </trkpt>
      <trkpt lat="43.98116" lon="1.93217">
        <ele>218.2</ele>
        <time>2023-07-23T05:48:23Z</time>
      </trkpt>
      <trkpt lat="43.98118" lon="1.93217">
        <ele>218.2</ele>
        <time>2023-07-23T05:48:24Z</time>
      </trkpt>
      <trkpt lat="43.98118" lon="1.93217">
        <ele>218.4</ele>
        <time>2023-07-23T05:48:25Z</time>
      </trkpt>
      <trkpt lat="43.98121" lon="1.93217">
        <ele>218.6</ele>
        <time>2023-07-23T05:48:26Z</time>
      </trkpt>
      <trkpt lat="43.98122" lon="1.93217">
        <ele>218.8</ele>
        <time>2023-07-23T05:48:27Z</time>
      </trkpt>
      <trkpt lat="43.98123" lon="1.93218">
        <ele>219</ele>
        <time>2023-07-23T05:48:28Z</time>
      </trkpt>
      <trkpt lat="43.98124" lon="1.93218">
        <ele>219.2</ele>
        <time>2023-07-23T05:48:29Z</time>
      </trkpt>
      <trkpt lat="43.98126" lon="1.93218">
        <ele>219.4</ele>
        <time>2023-07-23T05:48:30Z</time>
      </trkpt>
      <trkpt lat="43.98128" lon="1.93218">
        <ele>219.6</ele>
        <time>2023-07-23T05:48:31Z</time>
      </trkpt>
      <trkpt lat="43.98129" lon="1.93218">
        <ele>220</ele>
        <time>2023-07-23T05:48:32Z</time>
      </trkpt>
      <trkpt lat="43.98131" lon="1.93219">
        <ele>220</ele>
        <time>2023-07-23T05:48:33Z</time>
      </trkpt>
      <trkpt lat="43.98132" lon="1.9322">
        <ele>220.2</ele>
        <time>2023-07-23T05:48:34Z</time>
      </trkpt>
      <trkpt lat="43.98134" lon="1.9322">
        <ele>220.2</ele>
        <time>2023-07-23T05:48:35Z</time>
      </trkpt>
      <trkpt lat="43.98136" lon="1.9322">
        <ele>220.6</ele>
        <time>2023-07-23T05:48:36Z</time>
      </trkpt>
      <trkpt lat="43.98137" lon="1.93221">
        <ele>220.8</ele>
        <time>2023-07-23T05:48:37Z</time>
      </trkpt>
      <trkpt lat="43.98139" lon="1.93221">
        <ele>220.8</ele>
        <time>2023-07-23T05:48:38Z</time>
      </trkpt>
      <trkpt lat="43.98141" lon="1.93222">
        <ele>221</ele>
        <time>2023-07-23T05:48:39Z</time>
      </trkpt>
      <trkpt lat="43.98143" lon="1.93222">
        <ele>221</ele>
        <time>2023-07-23T05:48:40Z</time>
      </trkpt>
      <trkpt lat="43.98145" lon="1.93223">
        <ele>221.4</ele>
        <time>2023-07-23T05:48:41Z</time>
      </trkpt>
      <trkpt lat="43.98147" lon="1.93224">
        <ele>221.6</ele>
        <time>2023-07-23T05:48:42Z</time>
      </trkpt>
      <trkpt lat="43.9815" lon="1.93225">
        <ele>221.8</ele>
        <time>2023-07-23T05:48:43Z</time>
      </trkpt>
      <trkpt lat="43.98153" lon="1.93227">
        <ele>222</ele>
        <time>2023-07-23T05:48:44Z</time>
      </trkpt>
      <trkpt lat="43.98155" lon="1.93227">
        <ele>222.2</ele>
        <time>2023-07-23T05:48:45Z</time>
      </trkpt>
      <trkpt lat="43.98158" lon="1.93227">
        <ele>222.2</ele>
        <time>2023-07-23T05:48:46Z</time>
      </trkpt>
      <trkpt lat="43.98161" lon="1.93228">
        <ele>222.4</ele>
        <time>2023-07-23T05:48:47Z</time>
      </trkpt>
      <trkpt lat="43.98164" lon="1.93229">
        <ele>222.6</ele>
        <time>2023-07-23T05:48:48Z</time>
      </trkpt>
      <trkpt lat="43.98166" lon="1.9323">
        <ele>222.8</ele>
        <time>2023-07-23T05:48:49Z</time>
      </trkpt>
      <trkpt lat="43.98168" lon="1.93231">
        <ele>222.8</ele>
        <time>2023-07-23T05:48:50Z</time>
      </trkpt>
      <trkpt lat="43.98171" lon="1.93232">
        <ele>223</ele>
        <time>2023-07-23T05:48:51Z</time>
      </trkpt>
      <trkpt lat="43.98173" lon="1.93232">
        <ele>223</ele>
        <time>2023-07-23T05:48:52Z</time>
      </trkpt>
      <trkpt lat="43.98176" lon="1.93233">
        <ele>223</ele>
        <time>2023-07-23T05:48:53Z</time>
      </trkpt>
      <trkpt lat="43.98176" lon="1.93233">
        <ele>223</ele>
        <time>2023-07-23T05:48:54Z</time>
      </trkpt>
      <trkpt lat="43.9818" lon="1.93234">
        <ele>223.2</ele>
        <time>2023-07-23T05:48:55Z</time>
      </trkpt>
      <trkpt lat="43.98183" lon="1.93235">
        <ele>223.2</ele>
        <time>2023-07-23T05:48:56Z</time>
      </trkpt>
      <trkpt lat="43.98185" lon="1.93236">
        <ele>223.2</ele>
        <time>2023-07-23T05:48:57Z</time>
      </trkpt>
      <trkpt lat="43.98188" lon="1.93236">
        <ele>223.4</ele>
        <time>2023-07-23T05:48:58Z</time>
      </trkpt>
      <trkpt lat="43.98188" lon="1.93236">
        <ele>223.8</ele>
        <time>2023-07-23T05:48:59Z</time>
      </trkpt>
      <trkpt lat="43.98192" lon="1.93237">
        <ele>223.8</ele>
        <time>2023-07-23T05:49:00Z</time>
      </trkpt>
      <trkpt lat="43.98194" lon="1.93238">
        <ele>223.8</ele>
        <time>2023-07-23T05:49:01Z</time>
      </trkpt>
      <trkpt lat="43.98196" lon="1.93239">
        <ele>224</ele>
        <time>2023-07-23T05:49:02Z</time>
      </trkpt>
      <trkpt lat="43.98198" lon="1.93241">
        <ele>224</ele>
        <time>2023-07-23T05:49:03Z</time>
      </trkpt>
      <trkpt lat="43.98198" lon="1.93241">
        <ele>224</ele>
        <time>2023-07-23T05:49:04Z</time>
      </trkpt>
      <trkpt lat="43.98202" lon="1.93243">
        <ele>224.2</ele>
        <time>2023-07-23T05:49:05Z</time>
      </trkpt>
      <trkpt lat="43.98204" lon="1.93244">
        <ele>224.2</ele>
        <time>2023-07-23T05:49:06Z</time>
      </trkpt>
      <trkpt lat="43.98206" lon="1.93245">
        <ele>224.4</ele>
        <time>2023-07-23T05:49:07Z</time>
      </trkpt>
      <trkpt lat="43.98208" lon="1.93246">
        <ele>224.4</ele>
        <time>2023-07-23T05:49:08Z</time>
      </trkpt>
      <trkpt lat="43.9821" lon="1.93248">
        <ele>224.4</ele>
        <time>2023-07-23T05:49:09Z</time>
      </trkpt>
      <trkpt lat="43.98213" lon="1.93249">
        <ele>224.6</ele>
        <time>2023-07-23T05:49:10Z</time>
      </trkpt>
      <trkpt lat="43.98215" lon="1.9325">
        <ele>224.6</ele>
        <time>2023-07-23T05:49:11Z</time>
      </trkpt>
      <trkpt lat="43.98217" lon="1.93251">
        <ele>224.6</ele>
        <time>2023-07-23T05:49:12Z</time>
      </trkpt>
      <trkpt lat="43.9822" lon="1.93252">
        <ele>224.8</ele>
        <time>2023-07-23T05:49:13Z</time>
      </trkpt>
      <trkpt lat="43.98222" lon="1.93253">
        <ele>225</ele>
        <time>2023-07-23T05:49:14Z</time>
      </trkpt>
      <trkpt lat="43.98224" lon="1.93254">
        <ele>225</ele>
        <time>2023-07-23T05:49:15Z</time>
      </trkpt>
      <trkpt lat="43.98227" lon="1.93256">
        <ele>225</ele>
        <time>2023-07-23T05:49:16Z</time>
      </trkpt>
      <trkpt lat="43.98228" lon="1.93258">
        <ele>225.2</ele>
        <time>2023-07-23T05:49:17Z</time>
      </trkpt>
      <trkpt lat="43.98231" lon="1.93259">
        <ele>225.2</ele>
        <time>2023-07-23T05:49:18Z</time>
      </trkpt>
      <trkpt lat="43.98234" lon="1.9326">
        <ele>225.2</ele>
        <time>2023-07-23T05:49:19Z</time>
      </trkpt>
      <trkpt lat="43.98237" lon="1.93262">
        <ele>225.4</ele>
        <time>2023-07-23T05:49:20Z</time>
      </trkpt>
      <trkpt lat="43.98254" lon="1.93272">
        <ele>225</ele>
        <time>2023-07-23T05:49:27Z</time>
      </trkpt>
      <trkpt lat="43.98261" lon="1.93276">
        <ele>225</ele>
        <time>2023-07-23T05:49:29Z</time>
      </trkpt>
      <trkpt lat="43.98264" lon="1.93275">
        <ele>225</ele>
        <time>2023-07-23T05:49:30Z</time>
      </trkpt>
      <trkpt lat="43.98268" lon="1.93274">
        <ele>224.8</ele>
        <time>2023-07-23T05:49:31Z</time>
      </trkpt>
      <trkpt lat="43.9827" lon="1.93271">
        <ele>224.6</ele>
        <time>2023-07-23T05:49:32Z</time>
      </trkpt>
      <trkpt lat="43.98276" lon="1.93262">
        <ele>224.2</ele>
        <time>2023-07-23T05:49:34Z</time>
      </trkpt>
      <trkpt lat="43.98279" lon="1.93257">
        <ele>224</ele>
        <time>2023-07-23T05:49:35Z</time>
      </trkpt>
      <trkpt lat="43.98282" lon="1.93254">
        <ele>223.6</ele>
        <time>2023-07-23T05:49:36Z</time>
      </trkpt>
      <trkpt lat="43.98285" lon="1.93253">
        <ele>223.2</ele>
        <time>2023-07-23T05:49:37Z</time>
      </trkpt>
      <trkpt lat="43.98287" lon="1.93254">
        <ele>223</ele>
        <time>2023-07-23T05:49:38Z</time>
      </trkpt>
      <trkpt lat="43.9829" lon="1.93257">
        <ele>222.2</ele>
        <time>2023-07-23T05:49:39Z</time>
      </trkpt>
      <trkpt lat="43.98292" lon="1.93262">
        <ele>221.6</ele>
        <time>2023-07-23T05:49:40Z</time>
      </trkpt>
      <trkpt lat="43.98299" lon="1.93279">
        <ele>220.8</ele>
        <time>2023-07-23T05:49:42Z</time>
      </trkpt>
      <trkpt lat="43.98302" lon="1.93287">
        <ele>220.2</ele>
        <time>2023-07-23T05:49:43Z</time>
      </trkpt>
      <trkpt lat="43.98305" lon="1.93293">
        <ele>219.8</ele>
        <time>2023-07-23T05:49:44Z</time>
      </trkpt>
      <trkpt lat="43.98312" lon="1.93312">
        <ele>218.6</ele>
        <time>2023-07-23T05:49:46Z</time>
      </trkpt>
      <trkpt lat="43.98315" lon="1.9333">
        <ele>216.8</ele>
        <time>2023-07-23T05:49:48Z</time>
      </trkpt>
      <trkpt lat="43.98315" lon="1.9333">
        <ele>216.2</ele>
        <time>2023-07-23T05:49:49Z</time>
      </trkpt>
      <trkpt lat="43.98317" lon="1.9334">
        <ele>214.8</ele>
        <time>2023-07-23T05:49:50Z</time>
      </trkpt>
      <trkpt lat="43.98318" lon="1.93344">
        <ele>214</ele>
        <time>2023-07-23T05:49:51Z</time>
      </trkpt>
      <trkpt lat="43.98319" lon="1.93346">
        <ele>213.2</ele>
        <time>2023-07-23T05:49:52Z</time>
      </trkpt>
      <trkpt lat="43.98319" lon="1.93349">
        <ele>212.6</ele>
        <time>2023-07-23T05:49:53Z</time>
      </trkpt>
      <trkpt lat="43.9832" lon="1.93351">
        <ele>212.2</ele>
        <time>2023-07-23T05:49:54Z</time>
      </trkpt>
      <trkpt lat="43.98321" lon="1.93353">
        <ele>211.8</ele>
        <time>2023-07-23T05:49:55Z</time>
      </trkpt>
      <trkpt lat="43.98323" lon="1.93355">
        <ele>211.6</ele>
        <time>2023-07-23T05:49:56Z</time>
      </trkpt>
      <trkpt lat="43.98326" lon="1.93358">
        <ele>211</ele>
        <time>2023-07-23T05:49:57Z</time>
      </trkpt>
      <trkpt lat="43.98328" lon="1.93363">
        <ele>210.6</ele>
        <time>2023-07-23T05:49:58Z</time>
      </trkpt>
      <trkpt lat="43.98331" lon="1.93368">
        <ele>210.4</ele>
        <time>2023-07-23T05:49:59Z</time>
      </trkpt>
      <trkpt lat="43.98347" lon="1.93394">
        <ele>209.4</ele>
        <time>2023-07-23T05:50:03Z</time>
      </trkpt>
      <trkpt lat="43.98354" lon="1.93403">
        <ele>208.8</ele>
        <time>2023-07-23T05:50:05Z</time>
      </trkpt>
      <trkpt lat="43.98358" lon="1.93408">
        <ele>208.4</ele>
        <time>2023-07-23T05:50:06Z</time>
      </trkpt>
      <trkpt lat="43.9837" lon="1.93427">
        <ele>207.8</ele>
        <time>2023-07-23T05:50:09Z</time>
      </trkpt>
      <trkpt lat="43.9837" lon="1.93427">
        <ele>207.6</ele>
        <time>2023-07-23T05:50:10Z</time>
      </trkpt>
      <trkpt lat="43.98378" lon="1.93444">
        <ele>206.8</ele>
        <time>2023-07-23T05:50:11Z</time>
      </trkpt>
      <trkpt lat="43.98393" lon="1.93467">
        <ele>206</ele>
        <time>2023-07-23T05:50:14Z</time>
      </trkpt>
      <trkpt lat="43.98399" lon="1.93475">
        <ele>205.6</ele>
        <time>2023-07-23T05:50:15Z</time>
      </trkpt>
      <trkpt lat="43.98415" lon="1.935">
        <ele>204.4</ele>
        <time>2023-07-23T05:50:18Z</time>
      </trkpt>
      <trkpt lat="43.98423" lon="1.93517">
        <ele>203.8</ele>
        <time>2023-07-23T05:50:20Z</time>
      </trkpt>
      <trkpt lat="43.98427" lon="1.93526">
        <ele>203.8</ele>
        <time>2023-07-23T05:50:21Z</time>
      </trkpt>
      <trkpt lat="43.98431" lon="1.93536">
        <ele>203.4</ele>
        <time>2023-07-23T05:50:22Z</time>
      </trkpt>
      <trkpt lat="43.98446" lon="1.93565">
        <ele>202.4</ele>
        <time>2023-07-23T05:50:25Z</time>
      </trkpt>
      <trkpt lat="43.98459" lon="1.93579">
        <ele>201.6</ele>
        <time>2023-07-23T05:50:27Z</time>
      </trkpt>
      <trkpt lat="43.98465" lon="1.93584">
        <ele>201.4</ele>
        <time>2023-07-23T05:50:28Z</time>
      </trkpt>
      <trkpt lat="43.98473" lon="1.93589">
        <ele>201</ele>
        <time>2023-07-23T05:50:29Z</time>
      </trkpt>
      <trkpt lat="43.9848" lon="1.93591">
        <ele>200.4</ele>
        <time>2023-07-23T05:50:30Z</time>
      </trkpt>
      <trkpt lat="43.98487" lon="1.93593">
        <ele>200</ele>
        <time>2023-07-23T05:50:31Z</time>
      </trkpt>
      <trkpt lat="43.98493" lon="1.93594">
        <ele>199.4</ele>
        <time>2023-07-23T05:50:32Z</time>
      </trkpt>
      <trkpt lat="43.985" lon="1.93595">
        <ele>199.2</ele>
        <time>2023-07-23T05:50:33Z</time>
      </trkpt>
      <trkpt lat="43.98508" lon="1.93595">
        <ele>198.8</ele>
        <time>2023-07-23T05:50:34Z</time>
      </trkpt>
      <trkpt lat="43.98513" lon="1.93595">
        <ele>198.8</ele>
        <time>2023-07-23T05:50:35Z</time>
      </trkpt>
      <trkpt lat="43.98518" lon="1.93595">
        <ele>198.6</ele>
        <time>2023-07-23T05:50:36Z</time>
      </trkpt>
      <trkpt lat="43.98521" lon="1.93596">
        <ele>198.4</ele>
        <time>2023-07-23T05:50:37Z</time>
      </trkpt>
      <trkpt lat="43.98525" lon="1.93596">
        <ele>198.2</ele>
        <time>2023-07-23T05:50:38Z</time>
      </trkpt>
      <trkpt lat="43.9853" lon="1.93596">
        <ele>198.2</ele>
        <time>2023-07-23T05:50:39Z</time>
      </trkpt>
      <trkpt lat="43.98533" lon="1.93596">
        <ele>198</ele>
        <time>2023-07-23T05:50:40Z</time>
      </trkpt>
      <trkpt lat="43.98536" lon="1.93596">
        <ele>197.8</ele>
        <time>2023-07-23T05:50:41Z</time>
      </trkpt>
      <trkpt lat="43.9854" lon="1.93595">
        <ele>197.8</ele>
        <time>2023-07-23T05:50:42Z</time>
      </trkpt>
      <trkpt lat="43.98553" lon="1.93591">
        <ele>197.6</ele>
        <time>2023-07-23T05:50:45Z</time>
      </trkpt>
      <trkpt lat="43.98564" lon="1.93587">
        <ele>197.4</ele>
        <time>2023-07-23T05:50:48Z</time>
      </trkpt>
      <trkpt lat="43.9858" lon="1.9358">
        <ele>197</ele>
        <time>2023-07-23T05:50:52Z</time>
      </trkpt>
      <trkpt lat="43.98592" lon="1.93574">
        <ele>196.8</ele>
        <time>2023-07-23T05:50:55Z</time>
      </trkpt>
      <trkpt lat="43.98595" lon="1.93572">
        <ele>196.8</ele>
        <time>2023-07-23T05:50:56Z</time>
      </trkpt>
      <trkpt lat="43.98603" lon="1.93568">
        <ele>196.8</ele>
        <time>2023-07-23T05:50:58Z</time>
      </trkpt>
      <trkpt lat="43.98607" lon="1.93566">
        <ele>196.8</ele>
        <time>2023-07-23T05:50:59Z</time>
      </trkpt>
      <trkpt lat="43.98611" lon="1.93565">
        <ele>196.8</ele>
        <time>2023-07-23T05:51:00Z</time>
      </trkpt>
      <trkpt lat="43.98618" lon="1.93561">
        <ele>196.8</ele>
        <time>2023-07-23T05:51:02Z</time>
      </trkpt>
      <trkpt lat="43.98623" lon="1.93558">
        <ele>196.8</ele>
        <time>2023-07-23T05:51:03Z</time>
      </trkpt>
      <trkpt lat="43.9863" lon="1.93554">
        <ele>196.8</ele>
        <time>2023-07-23T05:51:05Z</time>
      </trkpt>
      <trkpt lat="43.98653" lon="1.93537">
        <ele>196.8</ele>
        <time>2023-07-23T05:51:11Z</time>
      </trkpt>
      <trkpt lat="43.98661" lon="1.9353">
        <ele>196.8</ele>
        <time>2023-07-23T05:51:13Z</time>
      </trkpt>
      <trkpt lat="43.98681" lon="1.93514">
        <ele>196.8</ele>
        <time>2023-07-23T05:51:18Z</time>
      </trkpt>
      <trkpt lat="43.98685" lon="1.93514">
        <ele>196.6</ele>
        <time>2023-07-23T05:51:19Z</time>
      </trkpt>
      <trkpt lat="43.98689" lon="1.93516">
        <ele>196.6</ele>
        <time>2023-07-23T05:51:20Z</time>
      </trkpt>
      <trkpt lat="43.98689" lon="1.93516">
        <ele>196.6</ele>
        <time>2023-07-23T05:51:21Z</time>
      </trkpt>
      <trkpt lat="43.98695" lon="1.93525">
        <ele>196.6</ele>
        <time>2023-07-23T05:51:22Z</time>
      </trkpt>
      <trkpt lat="43.98718" lon="1.93561">
        <ele>196.6</ele>
        <time>2023-07-23T05:51:30Z</time>
      </trkpt>
      <trkpt lat="43.98727" lon="1.93575">
        <ele>196.6</ele>
        <time>2023-07-23T05:51:33Z</time>
      </trkpt>
      <trkpt lat="43.98736" lon="1.93589">
        <ele>196.8</ele>
        <time>2023-07-23T05:51:36Z</time>
      </trkpt>
      <trkpt lat="43.98739" lon="1.93593">
        <ele>196.8</ele>
        <time>2023-07-23T05:51:37Z</time>
      </trkpt>
      <trkpt lat="43.98746" lon="1.936">
        <ele>196.8</ele>
        <time>2023-07-23T05:51:39Z</time>
      </trkpt>
      <trkpt lat="43.98749" lon="1.93604">
        <ele>196.8</ele>
        <time>2023-07-23T05:51:40Z</time>
      </trkpt>
      <trkpt lat="43.98752" lon="1.93608">
        <ele>196.8</ele>
        <time>2023-07-23T05:51:41Z</time>
      </trkpt>
      <trkpt lat="43.98759" lon="1.93615">
        <ele>197</ele>
        <time>2023-07-23T05:51:43Z</time>
      </trkpt>
      <trkpt lat="43.98772" lon="1.93625">
        <ele>197.2</ele>
        <time>2023-07-23T05:51:47Z</time>
      </trkpt>
      <trkpt lat="43.98776" lon="1.93628">
        <ele>197.4</ele>
        <time>2023-07-23T05:51:48Z</time>
      </trkpt>
      <trkpt lat="43.98778" lon="1.93629">
        <ele>197.4</ele>
        <time>2023-07-23T05:51:49Z</time>
      </trkpt>
      <trkpt lat="43.9878" lon="1.93631">
        <ele>197.6</ele>
        <time>2023-07-23T05:51:50Z</time>
      </trkpt>
      <trkpt lat="43.98782" lon="1.93634">
        <ele>197.6</ele>
        <time>2023-07-23T05:51:51Z</time>
      </trkpt>
      <trkpt lat="43.98785" lon="1.93638">
        <ele>197.8</ele>
        <time>2023-07-23T05:51:52Z</time>
      </trkpt>
      <trkpt lat="43.98789" lon="1.93644">
        <ele>198.4</ele>
        <time>2023-07-23T05:51:54Z</time>
      </trkpt>
      <trkpt lat="43.98791" lon="1.93647">
        <ele>198.6</ele>
        <time>2023-07-23T05:51:55Z</time>
      </trkpt>
      <trkpt lat="43.98793" lon="1.9365">
        <ele>198.8</ele>
        <time>2023-07-23T05:51:56Z</time>
      </trkpt>
      <trkpt lat="43.98795" lon="1.93653">
        <ele>199</ele>
        <time>2023-07-23T05:51:57Z</time>
      </trkpt>
      <trkpt lat="43.98796" lon="1.93656">
        <ele>199.2</ele>
        <time>2023-07-23T05:51:58Z</time>
      </trkpt>
      <trkpt lat="43.98798" lon="1.93659">
        <ele>199.4</ele>
        <time>2023-07-23T05:51:59Z</time>
      </trkpt>
      <trkpt lat="43.98799" lon="1.93662">
        <ele>199.6</ele>
        <time>2023-07-23T05:52:00Z</time>
      </trkpt>
      <trkpt lat="43.98802" lon="1.93666">
        <ele>199.6</ele>
        <time>2023-07-23T05:52:01Z</time>
      </trkpt>
      <trkpt lat="43.98803" lon="1.93669">
        <ele>199.8</ele>
        <time>2023-07-23T05:52:02Z</time>
      </trkpt>
      <trkpt lat="43.98805" lon="1.93673">
        <ele>199.8</ele>
        <time>2023-07-23T05:52:03Z</time>
      </trkpt>
      <trkpt lat="43.98807" lon="1.93676">
        <ele>200</ele>
        <time>2023-07-23T05:52:04Z</time>
      </trkpt>
      <trkpt lat="43.9881" lon="1.9368">
        <ele>200</ele>
        <time>2023-07-23T05:52:05Z</time>
      </trkpt>
      <trkpt lat="43.98812" lon="1.93684">
        <ele>200.2</ele>
        <time>2023-07-23T05:52:06Z</time>
      </trkpt>
      <trkpt lat="43.98815" lon="1.93689">
        <ele>200.2</ele>
        <time>2023-07-23T05:52:07Z</time>
      </trkpt>
      <trkpt lat="43.98817" lon="1.93693">
        <ele>200.4</ele>
        <time>2023-07-23T05:52:08Z</time>
      </trkpt>
      <trkpt lat="43.98819" lon="1.93697">
        <ele>200.6</ele>
        <time>2023-07-23T05:52:09Z</time>
      </trkpt>
      <trkpt lat="43.9882" lon="1.93701">
        <ele>200.6</ele>
        <time>2023-07-23T05:52:10Z</time>
      </trkpt>
      <trkpt lat="43.98822" lon="1.93707">
        <ele>200.8</ele>
        <time>2023-07-23T05:52:11Z</time>
      </trkpt>
      <trkpt lat="43.98825" lon="1.93712">
        <ele>200.8</ele>
        <time>2023-07-23T05:52:12Z</time>
      </trkpt>
      <trkpt lat="43.98827" lon="1.93717">
        <ele>201</ele>
        <time>2023-07-23T05:52:13Z</time>
      </trkpt>
      <trkpt lat="43.9883" lon="1.93722">
        <ele>201</ele>
        <time>2023-07-23T05:52:14Z</time>
      </trkpt>
      <trkpt lat="43.98833" lon="1.93727">
        <ele>201.2</ele>
        <time>2023-07-23T05:52:15Z</time>
      </trkpt>
      <trkpt lat="43.98835" lon="1.93733">
        <ele>201.2</ele>
        <time>2023-07-23T05:52:16Z</time>
      </trkpt>
      <trkpt lat="43.98838" lon="1.93738">
        <ele>201.2</ele>
        <time>2023-07-23T05:52:17Z</time>
      </trkpt>
      <trkpt lat="43.98839" lon="1.93743">
        <ele>201.2</ele>
        <time>2023-07-23T05:52:18Z</time>
      </trkpt>
      <trkpt lat="43.98842" lon="1.9375">
        <ele>201.4</ele>
        <time>2023-07-23T05:52:19Z</time>
      </trkpt>
      <trkpt lat="43.98844" lon="1.93755">
        <ele>201.4</ele>
        <time>2023-07-23T05:52:20Z</time>
      </trkpt>
      <trkpt lat="43.98847" lon="1.93761">
        <ele>201.4</ele>
        <time>2023-07-23T05:52:21Z</time>
      </trkpt>
      <trkpt lat="43.9885" lon="1.93766">
        <ele>201.4</ele>
        <time>2023-07-23T05:52:22Z</time>
      </trkpt>
      <trkpt lat="43.98852" lon="1.93772">
        <ele>201.6</ele>
        <time>2023-07-23T05:52:23Z</time>
      </trkpt>
      <trkpt lat="43.98853" lon="1.93778">
        <ele>201.4</ele>
        <time>2023-07-23T05:52:24Z</time>
      </trkpt>
      <trkpt lat="43.98855" lon="1.93783">
        <ele>201.4</ele>
        <time>2023-07-23T05:52:25Z</time>
      </trkpt>
      <trkpt lat="43.98857" lon="1.93787">
        <ele>201.4</ele>
        <time>2023-07-23T05:52:26Z</time>
      </trkpt>
      <trkpt lat="43.98859" lon="1.9379">
        <ele>201.6</ele>
        <time>2023-07-23T05:52:27Z</time>
      </trkpt>
      <trkpt lat="43.98862" lon="1.93795">
        <ele>201.6</ele>
        <time>2023-07-23T05:52:28Z</time>
      </trkpt>
      <trkpt lat="43.98863" lon="1.938">
        <ele>201.6</ele>
        <time>2023-07-23T05:52:29Z</time>
      </trkpt>
      <trkpt lat="43.98869" lon="1.93825">
        <ele>201.8</ele>
        <time>2023-07-23T05:52:33Z</time>
      </trkpt>
      <trkpt lat="43.98871" lon="1.93837">
        <ele>201.8</ele>
        <time>2023-07-23T05:52:35Z</time>
      </trkpt>
      <trkpt lat="43.98883" lon="1.93882">
        <ele>202</ele>
        <time>2023-07-23T05:52:43Z</time>
      </trkpt>
      <trkpt lat="43.98891" lon="1.93912">
        <ele>202.2</ele>
        <time>2023-07-23T05:52:48Z</time>
      </trkpt>
      <trkpt lat="43.98893" lon="1.93924">
        <ele>202.2</ele>
        <time>2023-07-23T05:52:50Z</time>
      </trkpt>
      <trkpt lat="43.98893" lon="1.93943">
        <ele>202.4</ele>
        <time>2023-07-23T05:52:53Z</time>
      </trkpt>
      <trkpt lat="43.98892" lon="1.93956">
        <ele>202.6</ele>
        <time>2023-07-23T05:52:55Z</time>
      </trkpt>
      <trkpt lat="43.98892" lon="1.93962">
        <ele>202.6</ele>
        <time>2023-07-23T05:52:56Z</time>
      </trkpt>
      <trkpt lat="43.98891" lon="1.93966">
        <ele>202.8</ele>
        <time>2023-07-23T05:52:57Z</time>
      </trkpt>
      <trkpt lat="43.98886" lon="1.93996">
        <ele>202.8</ele>
        <time>2023-07-23T05:53:02Z</time>
      </trkpt>
      <trkpt lat="43.98886" lon="1.94002">
        <ele>202.8</ele>
        <time>2023-07-23T05:53:03Z</time>
      </trkpt>
      <trkpt lat="43.98885" lon="1.94009">
        <ele>203</ele>
        <time>2023-07-23T05:53:04Z</time>
      </trkpt>
      <trkpt lat="43.98884" lon="1.94015">
        <ele>203</ele>
        <time>2023-07-23T05:53:05Z</time>
      </trkpt>
      <trkpt lat="43.98884" lon="1.94019">
        <ele>203</ele>
        <time>2023-07-23T05:53:06Z</time>
      </trkpt>
      <trkpt lat="43.98884" lon="1.94025">
        <ele>203</ele>
        <time>2023-07-23T05:53:07Z</time>
      </trkpt>
      <trkpt lat="43.98883" lon="1.94038">
        <ele>203.2</ele>
        <time>2023-07-23T05:53:09Z</time>
      </trkpt>
      <trkpt lat="43.98883" lon="1.94043">
        <ele>203.4</ele>
        <time>2023-07-23T05:53:10Z</time>
      </trkpt>
      <trkpt lat="43.98883" lon="1.94048">
        <ele>203.4</ele>
        <time>2023-07-23T05:53:11Z</time>
      </trkpt>
      <trkpt lat="43.98883" lon="1.94066">
        <ele>203.6</ele>
        <time>2023-07-23T05:53:14Z</time>
      </trkpt>
      <trkpt lat="43.98887" lon="1.94103">
        <ele>204.2</ele>
        <time>2023-07-23T05:53:20Z</time>
      </trkpt>
      <trkpt lat="43.98891" lon="1.9415">
        <ele>204.2</ele>
        <time>2023-07-23T05:53:28Z</time>
      </trkpt>
      <trkpt lat="43.98892" lon="1.94154">
        <ele>204.2</ele>
        <time>2023-07-23T05:53:29Z</time>
      </trkpt>
      <trkpt lat="43.98893" lon="1.94165">
        <ele>204.4</ele>
        <time>2023-07-23T05:53:31Z</time>
      </trkpt>
      <trkpt lat="43.98894" lon="1.94171">
        <ele>204.4</ele>
        <time>2023-07-23T05:53:32Z</time>
      </trkpt>
      <trkpt lat="43.98895" lon="1.94178">
        <ele>204.6</ele>
        <time>2023-07-23T05:53:33Z</time>
      </trkpt>
      <trkpt lat="43.98895" lon="1.94184">
        <ele>204.6</ele>
        <time>2023-07-23T05:53:34Z</time>
      </trkpt>
      <trkpt lat="43.98896" lon="1.94195">
        <ele>204.8</ele>
        <time>2023-07-23T05:53:36Z</time>
      </trkpt>
      <trkpt lat="43.98898" lon="1.94223">
        <ele>204.8</ele>
        <time>2023-07-23T05:53:40Z</time>
      </trkpt>
      <trkpt lat="43.98899" lon="1.9423">
        <ele>204.8</ele>
        <time>2023-07-23T05:53:41Z</time>
      </trkpt>
      <trkpt lat="43.98901" lon="1.94251">
        <ele>204.8</ele>
        <time>2023-07-23T05:53:44Z</time>
      </trkpt>
      <trkpt lat="43.98901" lon="1.94257">
        <ele>204.8</ele>
        <time>2023-07-23T05:53:45Z</time>
      </trkpt>
      <trkpt lat="43.98902" lon="1.94264">
        <ele>204.6</ele>
        <time>2023-07-23T05:53:46Z</time>
      </trkpt>
      <trkpt lat="43.98902" lon="1.94271">
        <ele>204.6</ele>
        <time>2023-07-23T05:53:47Z</time>
      </trkpt>
      <trkpt lat="43.98902" lon="1.94277">
        <ele>204.4</ele>
        <time>2023-07-23T05:53:48Z</time>
      </trkpt>
      <trkpt lat="43.98902" lon="1.9429">
        <ele>204.2</ele>
        <time>2023-07-23T05:53:50Z</time>
      </trkpt>
      <trkpt lat="43.98903" lon="1.94296">
        <ele>204.2</ele>
        <time>2023-07-23T05:53:51Z</time>
      </trkpt>
      <trkpt lat="43.98903" lon="1.94302">
        <ele>204</ele>
        <time>2023-07-23T05:53:52Z</time>
      </trkpt>
      <trkpt lat="43.98903" lon="1.94308">
        <ele>204</ele>
        <time>2023-07-23T05:53:53Z</time>
      </trkpt>
      <trkpt lat="43.98903" lon="1.9432">
        <ele>204</ele>
        <time>2023-07-23T05:53:55Z</time>
      </trkpt>
      <trkpt lat="43.98904" lon="1.94332">
        <ele>204</ele>
        <time>2023-07-23T05:53:57Z</time>
      </trkpt>
      <trkpt lat="43.98904" lon="1.94337">
        <ele>204</ele>
        <time>2023-07-23T05:53:58Z</time>
      </trkpt>
      <trkpt lat="43.98905" lon="1.94342">
        <ele>204</ele>
        <time>2023-07-23T05:53:59Z</time>
      </trkpt>
      <trkpt lat="43.98906" lon="1.94346">
        <ele>204.2</ele>
        <time>2023-07-23T05:54:00Z</time>
      </trkpt>
      <trkpt lat="43.98907" lon="1.9435">
        <ele>204.2</ele>
        <time>2023-07-23T05:54:01Z</time>
      </trkpt>
      <trkpt lat="43.98909" lon="1.94353">
        <ele>204.4</ele>
        <time>2023-07-23T05:54:02Z</time>
      </trkpt>
      <trkpt lat="43.98911" lon="1.94355">
        <ele>204.6</ele>
        <time>2023-07-23T05:54:03Z</time>
      </trkpt>
      <trkpt lat="43.98913" lon="1.94357">
        <ele>204.8</ele>
        <time>2023-07-23T05:54:04Z</time>
      </trkpt>
      <trkpt lat="43.98915" lon="1.94358">
        <ele>205</ele>
        <time>2023-07-23T05:54:05Z</time>
      </trkpt>
      <trkpt lat="43.98916" lon="1.94359">
        <ele>205.4</ele>
        <time>2023-07-23T05:54:06Z</time>
      </trkpt>
      <trkpt lat="43.98919" lon="1.9436">
        <ele>205.6</ele>
        <time>2023-07-23T05:54:07Z</time>
      </trkpt>
      <trkpt lat="43.98921" lon="1.9436">
        <ele>205.8</ele>
        <time>2023-07-23T05:54:08Z</time>
      </trkpt>
      <trkpt lat="43.9893" lon="1.94361">
        <ele>206.4</ele>
        <time>2023-07-23T05:54:12Z</time>
      </trkpt>
      <trkpt lat="43.98934" lon="1.94361">
        <ele>206.8</ele>
        <time>2023-07-23T05:54:14Z</time>
      </trkpt>
      <trkpt lat="43.98943" lon="1.94361">
        <ele>207.4</ele>
        <time>2023-07-23T05:54:18Z</time>
      </trkpt>
      <trkpt lat="43.98945" lon="1.94361">
        <ele>207.6</ele>
        <time>2023-07-23T05:54:19Z</time>
      </trkpt>
      <trkpt lat="43.98947" lon="1.94361">
        <ele>208</ele>
        <time>2023-07-23T05:54:20Z</time>
      </trkpt>
      <trkpt lat="43.9895" lon="1.9436">
        <ele>208.2</ele>
        <time>2023-07-23T05:54:21Z</time>
      </trkpt>
      <trkpt lat="43.98952" lon="1.9436">
        <ele>208.6</ele>
        <time>2023-07-23T05:54:22Z</time>
      </trkpt>
      <trkpt lat="43.98954" lon="1.9436">
        <ele>208.6</ele>
        <time>2023-07-23T05:54:23Z</time>
      </trkpt>
      <trkpt lat="43.98956" lon="1.94361">
        <ele>208.8</ele>
        <time>2023-07-23T05:54:24Z</time>
      </trkpt>
      <trkpt lat="43.98959" lon="1.94361">
        <ele>208.8</ele>
        <time>2023-07-23T05:54:25Z</time>
      </trkpt>
      <trkpt lat="43.98961" lon="1.9436">
        <ele>209</ele>
        <time>2023-07-23T05:54:26Z</time>
      </trkpt>
      <trkpt lat="43.98963" lon="1.9436">
        <ele>209.2</ele>
        <time>2023-07-23T05:54:27Z</time>
      </trkpt>
      <trkpt lat="43.98965" lon="1.9436">
        <ele>209.4</ele>
        <time>2023-07-23T05:54:28Z</time>
      </trkpt>
      <trkpt lat="43.98968" lon="1.94359">
        <ele>209.6</ele>
        <time>2023-07-23T05:54:29Z</time>
      </trkpt>
      <trkpt lat="43.9897" lon="1.94359">
        <ele>209.8</ele>
        <time>2023-07-23T05:54:30Z</time>
      </trkpt>
      <trkpt lat="43.98972" lon="1.94359">
        <ele>210.2</ele>
        <time>2023-07-23T05:54:31Z</time>
      </trkpt>
      <trkpt lat="43.98974" lon="1.9436">
        <ele>210.2</ele>
        <time>2023-07-23T05:54:32Z</time>
      </trkpt>
      <trkpt lat="43.98976" lon="1.9436">
        <ele>210.6</ele>
        <time>2023-07-23T05:54:33Z</time>
      </trkpt>
      <trkpt lat="43.98978" lon="1.94361">
        <ele>210.6</ele>
        <time>2023-07-23T05:54:34Z</time>
      </trkpt>
      <trkpt lat="43.9898" lon="1.94363">
        <ele>211.2</ele>
        <time>2023-07-23T05:54:35Z</time>
      </trkpt>
      <trkpt lat="43.98981" lon="1.94366">
        <ele>211.4</ele>
        <time>2023-07-23T05:54:36Z</time>
      </trkpt>
      <trkpt lat="43.98981" lon="1.94368">
        <ele>211.6</ele>
        <time>2023-07-23T05:54:37Z</time>
      </trkpt>
      <trkpt lat="43.9898" lon="1.9437">
        <ele>211.8</ele>
        <time>2023-07-23T05:54:38Z</time>
      </trkpt>
      <trkpt lat="43.98979" lon="1.94372">
        <ele>212</ele>
        <time>2023-07-23T05:54:39Z</time>
      </trkpt>
      <trkpt lat="43.98977" lon="1.94374">
        <ele>212.4</ele>
        <time>2023-07-23T05:54:40Z</time>
      </trkpt>
      <trkpt lat="43.98976" lon="1.94376">
        <ele>212.6</ele>
        <time>2023-07-23T05:54:41Z</time>
      </trkpt>
      <trkpt lat="43.98975" lon="1.94378">
        <ele>213</ele>
        <time>2023-07-23T05:54:42Z</time>
      </trkpt>
      <trkpt lat="43.98973" lon="1.94379">
        <ele>213.2</ele>
        <time>2023-07-23T05:54:43Z</time>
      </trkpt>
      <trkpt lat="43.98971" lon="1.9438">
        <ele>213.4</ele>
        <time>2023-07-23T05:54:44Z</time>
      </trkpt>
      <trkpt lat="43.98968" lon="1.94381">
        <ele>213.8</ele>
        <time>2023-07-23T05:54:45Z</time>
      </trkpt>
      <trkpt lat="43.98967" lon="1.94382">
        <ele>213.8</ele>
        <time>2023-07-23T05:54:46Z</time>
      </trkpt>
      <trkpt lat="43.98965" lon="1.94383">
        <ele>214</ele>
        <time>2023-07-23T05:54:47Z</time>
      </trkpt>
      <trkpt lat="43.98963" lon="1.94385">
        <ele>214.2</ele>
        <time>2023-07-23T05:54:48Z</time>
      </trkpt>
      <trkpt lat="43.98962" lon="1.94387">
        <ele>214.6</ele>
        <time>2023-07-23T05:54:49Z</time>
      </trkpt>
      <trkpt lat="43.9896" lon="1.94388">
        <ele>215</ele>
        <time>2023-07-23T05:54:50Z</time>
      </trkpt>
      <trkpt lat="43.98959" lon="1.9439">
        <ele>215.2</ele>
        <time>2023-07-23T05:54:51Z</time>
      </trkpt>
      <trkpt lat="43.98957" lon="1.94393">
        <ele>215.4</ele>
        <time>2023-07-23T05:54:52Z</time>
      </trkpt>
      <trkpt lat="43.98955" lon="1.94395">
        <ele>215.4</ele>
        <time>2023-07-23T05:54:53Z</time>
      </trkpt>
      <trkpt lat="43.98953" lon="1.94398">
        <ele>215.8</ele>
        <time>2023-07-23T05:54:54Z</time>
      </trkpt>
      <trkpt lat="43.98951" lon="1.94401">
        <ele>216</ele>
        <time>2023-07-23T05:54:55Z</time>
      </trkpt>
      <trkpt lat="43.9895" lon="1.94403">
        <ele>216.2</ele>
        <time>2023-07-23T05:54:56Z</time>
      </trkpt>
      <trkpt lat="43.98948" lon="1.94406">
        <ele>216.4</ele>
        <time>2023-07-23T05:54:57Z</time>
      </trkpt>
      <trkpt lat="43.98946" lon="1.94407">
        <ele>216.6</ele>
        <time>2023-07-23T05:54:58Z</time>
      </trkpt>
      <trkpt lat="43.98945" lon="1.9441">
        <ele>216.8</ele>
        <time>2023-07-23T05:54:59Z</time>
      </trkpt>
      <trkpt lat="43.98944" lon="1.94411">
        <ele>217</ele>
        <time>2023-07-23T05:55:00Z</time>
      </trkpt>
      <trkpt lat="43.98941" lon="1.94413">
        <ele>217.2</ele>
        <time>2023-07-23T05:55:01Z</time>
      </trkpt>
      <trkpt lat="43.9894" lon="1.94415">
        <ele>217.4</ele>
        <time>2023-07-23T05:55:02Z</time>
      </trkpt>
      <trkpt lat="43.98939" lon="1.94417">
        <ele>217.4</ele>
        <time>2023-07-23T05:55:03Z</time>
      </trkpt>
      <trkpt lat="43.98938" lon="1.94419">
        <ele>217.6</ele>
        <time>2023-07-23T05:55:04Z</time>
      </trkpt>
      <trkpt lat="43.98937" lon="1.94422">
        <ele>217.8</ele>
        <time>2023-07-23T05:55:05Z</time>
      </trkpt>
      <trkpt lat="43.98936" lon="1.94425">
        <ele>218.2</ele>
        <time>2023-07-23T05:55:06Z</time>
      </trkpt>
      <trkpt lat="43.98935" lon="1.94427">
        <ele>218.2</ele>
        <time>2023-07-23T05:55:07Z</time>
      </trkpt>
      <trkpt lat="43.98933" lon="1.9443">
        <ele>218.4</ele>
        <time>2023-07-23T05:55:08Z</time>
      </trkpt>
      <trkpt lat="43.98932" lon="1.94433">
        <ele>218.4</ele>
        <time>2023-07-23T05:55:09Z</time>
      </trkpt>
      <trkpt lat="43.98931" lon="1.94436">
        <ele>218.6</ele>
        <time>2023-07-23T05:55:10Z</time>
      </trkpt>
      <trkpt lat="43.98931" lon="1.9444">
        <ele>218.8</ele>
        <time>2023-07-23T05:55:11Z</time>
      </trkpt>
      <trkpt lat="43.9893" lon="1.94443">
        <ele>219</ele>
        <time>2023-07-23T05:55:12Z</time>
      </trkpt>
      <trkpt lat="43.98929" lon="1.94446">
        <ele>219</ele>
        <time>2023-07-23T05:55:13Z</time>
      </trkpt>
      <trkpt lat="43.98929" lon="1.94448">
        <ele>219.2</ele>
        <time>2023-07-23T05:55:14Z</time>
      </trkpt>
      <trkpt lat="43.98929" lon="1.94451">
        <ele>219.4</ele>
        <time>2023-07-23T05:55:15Z</time>
      </trkpt>
      <trkpt lat="43.98929" lon="1.94455">
        <ele>219.4</ele>
        <time>2023-07-23T05:55:16Z</time>
      </trkpt>
      <trkpt lat="43.9893" lon="1.94457">
        <ele>219.6</ele>
        <time>2023-07-23T05:55:17Z</time>
      </trkpt>
      <trkpt lat="43.9893" lon="1.9446">
        <ele>219.8</ele>
        <time>2023-07-23T05:55:18Z</time>
      </trkpt>
      <trkpt lat="43.98931" lon="1.94463">
        <ele>220</ele>
        <time>2023-07-23T05:55:19Z</time>
      </trkpt>
      <trkpt lat="43.98931" lon="1.94466">
        <ele>220.2</ele>
        <time>2023-07-23T05:55:20Z</time>
      </trkpt>
      <trkpt lat="43.98932" lon="1.94469">
        <ele>220.4</ele>
        <time>2023-07-23T05:55:21Z</time>
      </trkpt>
      <trkpt lat="43.98932" lon="1.94472">
        <ele>220.6</ele>
        <time>2023-07-23T05:55:22Z</time>
      </trkpt>
      <trkpt lat="43.98932" lon="1.94475">
        <ele>220.8</ele>
        <time>2023-07-23T05:55:23Z</time>
      </trkpt>
      <trkpt lat="43.98932" lon="1.94478">
        <ele>221</ele>
        <time>2023-07-23T05:55:24Z</time>
      </trkpt>
      <trkpt lat="43.98932" lon="1.9448">
        <ele>221</ele>
        <time>2023-07-23T05:55:25Z</time>
      </trkpt>
      <trkpt lat="43.98932" lon="1.94484">
        <ele>221.4</ele>
        <time>2023-07-23T05:55:26Z</time>
      </trkpt>
      <trkpt lat="43.98933" lon="1.94487">
        <ele>221.4</ele>
        <time>2023-07-23T05:55:27Z</time>
      </trkpt>
      <trkpt lat="43.98933" lon="1.9449">
        <ele>221.8</ele>
        <time>2023-07-23T05:55:28Z</time>
      </trkpt>
      <trkpt lat="43.98934" lon="1.94493">
        <ele>222</ele>
        <time>2023-07-23T05:55:29Z</time>
      </trkpt>
      <trkpt lat="43.98934" lon="1.94496">
        <ele>222.2</ele>
        <time>2023-07-23T05:55:30Z</time>
      </trkpt>
      <trkpt lat="43.98935" lon="1.94499">
        <ele>222.4</ele>
        <time>2023-07-23T05:55:31Z</time>
      </trkpt>
      <trkpt lat="43.98936" lon="1.94502">
        <ele>222.4</ele>
        <time>2023-07-23T05:55:32Z</time>
      </trkpt>
      <trkpt lat="43.98937" lon="1.94504">
        <ele>222.6</ele>
        <time>2023-07-23T05:55:33Z</time>
      </trkpt>
      <trkpt lat="43.98938" lon="1.94507">
        <ele>222.8</ele>
        <time>2023-07-23T05:55:34Z</time>
      </trkpt>
      <trkpt lat="43.9894" lon="1.94509">
        <ele>223</ele>
        <time>2023-07-23T05:55:35Z</time>
      </trkpt>
      <trkpt lat="43.98942" lon="1.9451">
        <ele>223.2</ele>
        <time>2023-07-23T05:55:36Z</time>
      </trkpt>
      <trkpt lat="43.98945" lon="1.9451">
        <ele>223.4</ele>
        <time>2023-07-23T05:55:37Z</time>
      </trkpt>
      <trkpt lat="43.98947" lon="1.9451">
        <ele>223.6</ele>
        <time>2023-07-23T05:55:38Z</time>
      </trkpt>
      <trkpt lat="43.98949" lon="1.9451">
        <ele>223.8</ele>
        <time>2023-07-23T05:55:39Z</time>
      </trkpt>
      <trkpt lat="43.98952" lon="1.94511">
        <ele>224</ele>
        <time>2023-07-23T05:55:40Z</time>
      </trkpt>
      <trkpt lat="43.98954" lon="1.9451">
        <ele>224.2</ele>
        <time>2023-07-23T05:55:41Z</time>
      </trkpt>
      <trkpt lat="43.98956" lon="1.9451">
        <ele>224.2</ele>
        <time>2023-07-23T05:55:42Z</time>
      </trkpt>
      <trkpt lat="43.98959" lon="1.9451">
        <ele>224.6</ele>
        <time>2023-07-23T05:55:43Z</time>
      </trkpt>
      <trkpt lat="43.98961" lon="1.9451">
        <ele>224.8</ele>
        <time>2023-07-23T05:55:44Z</time>
      </trkpt>
      <trkpt lat="43.98964" lon="1.94511">
        <ele>225</ele>
        <time>2023-07-23T05:55:45Z</time>
      </trkpt>
      <trkpt lat="43.98966" lon="1.94512">
        <ele>225.2</ele>
        <time>2023-07-23T05:55:46Z</time>
      </trkpt>
      <trkpt lat="43.98969" lon="1.94512">
        <ele>225.2</ele>
        <time>2023-07-23T05:55:47Z</time>
      </trkpt>
      <trkpt lat="43.98971" lon="1.94513">
        <ele>225.2</ele>
        <time>2023-07-23T05:55:48Z</time>
      </trkpt>
      <trkpt lat="43.98973" lon="1.94514">
        <ele>225.4</ele>
        <time>2023-07-23T05:55:49Z</time>
      </trkpt>
      <trkpt lat="43.98976" lon="1.94515">
        <ele>225.6</ele>
        <time>2023-07-23T05:55:50Z</time>
      </trkpt>
      <trkpt lat="43.98979" lon="1.94516">
        <ele>225.8</ele>
        <time>2023-07-23T05:55:51Z</time>
      </trkpt>
      <trkpt lat="43.98981" lon="1.94517">
        <ele>225.8</ele>
        <time>2023-07-23T05:55:52Z</time>
      </trkpt>
      <trkpt lat="43.98984" lon="1.94518">
        <ele>226</ele>
        <time>2023-07-23T05:55:53Z</time>
      </trkpt>
      <trkpt lat="43.98987" lon="1.94519">
        <ele>226</ele>
        <time>2023-07-23T05:55:54Z</time>
      </trkpt>
      <trkpt lat="43.98989" lon="1.9452">
        <ele>226</ele>
        <time>2023-07-23T05:55:55Z</time>
      </trkpt>
      <trkpt lat="43.98992" lon="1.94522">
        <ele>226.2</ele>
        <time>2023-07-23T05:55:56Z</time>
      </trkpt>
      <trkpt lat="43.98995" lon="1.94523">
        <ele>226.2</ele>
        <time>2023-07-23T05:55:57Z</time>
      </trkpt>
      <trkpt lat="43.98998" lon="1.94524">
        <ele>226.2</ele>
        <time>2023-07-23T05:55:58Z</time>
      </trkpt>
      <trkpt lat="43.99001" lon="1.94525">
        <ele>226.2</ele>
        <time>2023-07-23T05:55:59Z</time>
      </trkpt>
      <trkpt lat="43.99003" lon="1.94526">
        <ele>226.2</ele>
        <time>2023-07-23T05:56:00Z</time>
      </trkpt>
      <trkpt lat="43.99006" lon="1.94527">
        <ele>226.2</ele>
        <time>2023-07-23T05:56:01Z</time>
      </trkpt>
      <trkpt lat="43.99009" lon="1.94528">
        <ele>226.2</ele>
        <time>2023-07-23T05:56:02Z</time>
      </trkpt>
      <trkpt lat="43.99012" lon="1.94529">
        <ele>226.4</ele>
        <time>2023-07-23T05:56:03Z</time>
      </trkpt>
      <trkpt lat="43.99015" lon="1.9453">
        <ele>226.4</ele>
        <time>2023-07-23T05:56:04Z</time>
      </trkpt>
      <trkpt lat="43.99017" lon="1.94531">
        <ele>226.4</ele>
        <time>2023-07-23T05:56:05Z</time>
      </trkpt>
      <trkpt lat="43.9902" lon="1.94533">
        <ele>226.6</ele>
        <time>2023-07-23T05:56:06Z</time>
      </trkpt>
      <trkpt lat="43.99023" lon="1.94535">
        <ele>226.6</ele>
        <time>2023-07-23T05:56:07Z</time>
      </trkpt>
      <trkpt lat="43.99026" lon="1.94536">
        <ele>226.6</ele>
        <time>2023-07-23T05:56:08Z</time>
      </trkpt>
      <trkpt lat="43.99029" lon="1.94538">
        <ele>226.8</ele>
        <time>2023-07-23T05:56:09Z</time>
      </trkpt>
      <trkpt lat="43.99035" lon="1.9454">
        <ele>226.8</ele>
        <time>2023-07-23T05:56:11Z</time>
      </trkpt>
      <trkpt lat="43.99042" lon="1.9454">
        <ele>227</ele>
        <time>2023-07-23T05:56:13Z</time>
      </trkpt>
      <trkpt lat="43.99046" lon="1.94538">
        <ele>227</ele>
        <time>2023-07-23T05:56:14Z</time>
      </trkpt>
      <trkpt lat="43.99048" lon="1.94535">
        <ele>227</ele>
        <time>2023-07-23T05:56:15Z</time>
      </trkpt>
      <trkpt lat="43.9905" lon="1.94532">
        <ele>227</ele>
        <time>2023-07-23T05:56:16Z</time>
      </trkpt>
      <trkpt lat="43.99054" lon="1.94525">
        <ele>227.2</ele>
        <time>2023-07-23T05:56:18Z</time>
      </trkpt>
      <trkpt lat="43.99056" lon="1.94521">
        <ele>227.2</ele>
        <time>2023-07-23T05:56:19Z</time>
      </trkpt>
      <trkpt lat="43.99067" lon="1.94502">
        <ele>227.2</ele>
        <time>2023-07-23T05:56:24Z</time>
      </trkpt>
      <trkpt lat="43.99093" lon="1.94459">
        <ele>227.8</ele>
        <time>2023-07-23T05:56:35Z</time>
      </trkpt>
      <trkpt lat="43.99108" lon="1.94418">
        <ele>228</ele>
        <time>2023-07-23T05:56:43Z</time>
      </trkpt>
      <trkpt lat="43.99116" lon="1.94391">
        <ele>228</ele>
        <time>2023-07-23T05:56:49Z</time>
      </trkpt>
      <trkpt lat="43.99118" lon="1.94386">
        <ele>228</ele>
        <time>2023-07-23T05:56:50Z</time>
      </trkpt>
      <trkpt lat="43.99121" lon="1.94382">
        <ele>228</ele>
        <time>2023-07-23T05:56:51Z</time>
      </trkpt>
      <trkpt lat="43.99124" lon="1.94379">
        <ele>228</ele>
        <time>2023-07-23T05:56:52Z</time>
      </trkpt>
      <trkpt lat="43.99127" lon="1.94377">
        <ele>228</ele>
        <time>2023-07-23T05:56:53Z</time>
      </trkpt>
      <trkpt lat="43.9913" lon="1.94376">
        <ele>228</ele>
        <time>2023-07-23T05:56:54Z</time>
      </trkpt>
      <trkpt lat="43.99134" lon="1.94374">
        <ele>228</ele>
        <time>2023-07-23T05:56:55Z</time>
      </trkpt>
      <trkpt lat="43.99138" lon="1.94374">
        <ele>227.8</ele>
        <time>2023-07-23T05:56:56Z</time>
      </trkpt>
      <trkpt lat="43.99154" lon="1.94372">
        <ele>227.8</ele>
        <time>2023-07-23T05:57:00Z</time>
      </trkpt>
      <trkpt lat="43.99186" lon="1.94368">
        <ele>228.2</ele>
        <time>2023-07-23T05:57:08Z</time>
      </trkpt>
      <trkpt lat="43.99195" lon="1.94367">
        <ele>228.4</ele>
        <time>2023-07-23T05:57:10Z</time>
      </trkpt>
      <trkpt lat="43.99202" lon="1.94367">
        <ele>228.4</ele>
        <time>2023-07-23T05:57:12Z</time>
      </trkpt>
      <trkpt lat="43.99222" lon="1.94371">
        <ele>228.8</ele>
        <time>2023-07-23T05:57:17Z</time>
      </trkpt>
      <trkpt lat="43.99226" lon="1.94371">
        <ele>228.8</ele>
        <time>2023-07-23T05:57:18Z</time>
      </trkpt>
      <trkpt lat="43.99229" lon="1.94372">
        <ele>229</ele>
        <time>2023-07-23T05:57:19Z</time>
      </trkpt>
      <trkpt lat="43.99233" lon="1.94373">
        <ele>229</ele>
        <time>2023-07-23T05:57:20Z</time>
      </trkpt>
      <trkpt lat="43.99237" lon="1.94373">
        <ele>229.2</ele>
        <time>2023-07-23T05:57:21Z</time>
      </trkpt>
      <trkpt lat="43.99241" lon="1.94373">
        <ele>229.2</ele>
        <time>2023-07-23T05:57:22Z</time>
      </trkpt>
      <trkpt lat="43.99245" lon="1.94372">
        <ele>229.4</ele>
        <time>2023-07-23T05:57:23Z</time>
      </trkpt>
      <trkpt lat="43.99248" lon="1.9437">
        <ele>229.6</ele>
        <time>2023-07-23T05:57:24Z</time>
      </trkpt>
      <trkpt lat="43.99255" lon="1.94364">
        <ele>229.8</ele>
        <time>2023-07-23T05:57:26Z</time>
      </trkpt>
      <trkpt lat="43.99258" lon="1.9436">
        <ele>229.8</ele>
        <time>2023-07-23T05:57:27Z</time>
      </trkpt>
      <trkpt lat="43.99261" lon="1.94355">
        <ele>230</ele>
        <time>2023-07-23T05:57:28Z</time>
      </trkpt>
      <trkpt lat="43.99263" lon="1.94351">
        <ele>230.2</ele>
        <time>2023-07-23T05:57:29Z</time>
      </trkpt>
      <trkpt lat="43.99266" lon="1.94346">
        <ele>230.2</ele>
        <time>2023-07-23T05:57:30Z</time>
      </trkpt>
      <trkpt lat="43.9927" lon="1.94333">
        <ele>230.4</ele>
        <time>2023-07-23T05:57:32Z</time>
      </trkpt>
      <trkpt lat="43.99274" lon="1.94321">
        <ele>230.4</ele>
        <time>2023-07-23T05:57:34Z</time>
      </trkpt>
      <trkpt lat="43.99287" lon="1.94272">
        <ele>230.4</ele>
        <time>2023-07-23T05:57:42Z</time>
      </trkpt>
      <trkpt lat="43.99291" lon="1.94255">
        <ele>230.4</ele>
        <time>2023-07-23T05:57:45Z</time>
      </trkpt>
      <trkpt lat="43.99292" lon="1.94249">
        <ele>230.4</ele>
        <time>2023-07-23T05:57:46Z</time>
      </trkpt>
      <trkpt lat="43.99293" lon="1.94245">
        <ele>230.4</ele>
        <time>2023-07-23T05:57:47Z</time>
      </trkpt>
      <trkpt lat="43.99294" lon="1.94239">
        <ele>230.4</ele>
        <time>2023-07-23T05:57:48Z</time>
      </trkpt>
      <trkpt lat="43.99296" lon="1.94233">
        <ele>230.4</ele>
        <time>2023-07-23T05:57:49Z</time>
      </trkpt>
      <trkpt lat="43.99297" lon="1.94228">
        <ele>230.6</ele>
        <time>2023-07-23T05:57:50Z</time>
      </trkpt>
      <trkpt lat="43.99299" lon="1.94225">
        <ele>230.6</ele>
        <time>2023-07-23T05:57:51Z</time>
      </trkpt>
      <trkpt lat="43.99302" lon="1.94222">
        <ele>230.6</ele>
        <time>2023-07-23T05:57:52Z</time>
      </trkpt>
      <trkpt lat="43.99305" lon="1.94221">
        <ele>230.6</ele>
        <time>2023-07-23T05:57:53Z</time>
      </trkpt>
      <trkpt lat="43.99308" lon="1.94223">
        <ele>230.8</ele>
        <time>2023-07-23T05:57:54Z</time>
      </trkpt>
      <trkpt lat="43.9931" lon="1.94226">
        <ele>230.8</ele>
        <time>2023-07-23T05:57:55Z</time>
      </trkpt>
      <trkpt lat="43.99312" lon="1.9423">
        <ele>231</ele>
        <time>2023-07-23T05:57:56Z</time>
      </trkpt>
      <trkpt lat="43.99324" lon="1.94251">
        <ele>231.4</ele>
        <time>2023-07-23T05:58:01Z</time>
      </trkpt>
      <trkpt lat="43.99335" lon="1.94271">
        <ele>231.6</ele>
        <time>2023-07-23T05:58:06Z</time>
      </trkpt>
      <trkpt lat="43.99344" lon="1.94282">
        <ele>231.6</ele>
        <time>2023-07-23T05:58:09Z</time>
      </trkpt>
      <trkpt lat="43.99347" lon="1.94282">
        <ele>231.6</ele>
        <time>2023-07-23T05:58:10Z</time>
      </trkpt>
      <trkpt lat="43.99364" lon="1.94271">
        <ele>231.6</ele>
        <time>2023-07-23T05:58:15Z</time>
      </trkpt>
      <trkpt lat="43.99391" lon="1.94242">
        <ele>231.6</ele>
        <time>2023-07-23T05:58:23Z</time>
      </trkpt>
      <trkpt lat="43.99393" lon="1.9424">
        <ele>231.6</ele>
        <time>2023-07-23T05:58:24Z</time>
      </trkpt>
      <trkpt lat="43.99406" lon="1.94228">
        <ele>231.8</ele>
        <time>2023-07-23T05:58:28Z</time>
      </trkpt>
      <trkpt lat="43.99408" lon="1.94225">
        <ele>231.8</ele>
        <time>2023-07-23T05:58:29Z</time>
      </trkpt>
      <trkpt lat="43.99411" lon="1.94223">
        <ele>231.8</ele>
        <time>2023-07-23T05:58:30Z</time>
      </trkpt>
      <trkpt lat="43.99415" lon="1.94222">
        <ele>231.8</ele>
        <time>2023-07-23T05:58:31Z</time>
      </trkpt>
      <trkpt lat="43.99417" lon="1.94221">
        <ele>232</ele>
        <time>2023-07-23T05:58:32Z</time>
      </trkpt>
      <trkpt lat="43.99421" lon="1.9422">
        <ele>232.2</ele>
        <time>2023-07-23T05:58:33Z</time>
      </trkpt>
      <trkpt lat="43.99432" lon="1.94221">
        <ele>232.4</ele>
        <time>2023-07-23T05:58:36Z</time>
      </trkpt>
      <trkpt lat="43.99439" lon="1.94223">
        <ele>232.4</ele>
        <time>2023-07-23T05:58:38Z</time>
      </trkpt>
      <trkpt lat="43.99459" lon="1.94221">
        <ele>232.8</ele>
        <time>2023-07-23T05:58:44Z</time>
      </trkpt>
      <trkpt lat="43.99461" lon="1.94218">
        <ele>233</ele>
        <time>2023-07-23T05:58:45Z</time>
      </trkpt>
      <trkpt lat="43.99464" lon="1.94217">
        <ele>233</ele>
        <time>2023-07-23T05:58:46Z</time>
      </trkpt>
      <trkpt lat="43.99466" lon="1.94215">
        <ele>233</ele>
        <time>2023-07-23T05:58:47Z</time>
      </trkpt>
      <trkpt lat="43.99471" lon="1.94212">
        <ele>233.2</ele>
        <time>2023-07-23T05:58:49Z</time>
      </trkpt>
      <trkpt lat="43.99473" lon="1.94213">
        <ele>233.2</ele>
        <time>2023-07-23T05:58:50Z</time>
      </trkpt>
      <trkpt lat="43.99475" lon="1.94215">
        <ele>233.2</ele>
        <time>2023-07-23T05:58:51Z</time>
      </trkpt>
      <trkpt lat="43.99476" lon="1.94219">
        <ele>233.2</ele>
        <time>2023-07-23T05:58:52Z</time>
      </trkpt>
      <trkpt lat="43.99477" lon="1.94222">
        <ele>233.2</ele>
        <time>2023-07-23T05:58:53Z</time>
      </trkpt>
      <trkpt lat="43.99478" lon="1.94226">
        <ele>233.2</ele>
        <time>2023-07-23T05:58:54Z</time>
      </trkpt>
      <trkpt lat="43.99479" lon="1.9423">
        <ele>233.2</ele>
        <time>2023-07-23T05:58:55Z</time>
      </trkpt>
      <trkpt lat="43.99483" lon="1.94242">
        <ele>233.6</ele>
        <time>2023-07-23T05:58:58Z</time>
      </trkpt>
      <trkpt lat="43.9949" lon="1.94258">
        <ele>233.8</ele>
        <time>2023-07-23T05:59:02Z</time>
      </trkpt>
      <trkpt lat="43.99504" lon="1.94285">
        <ele>234.8</ele>
        <time>2023-07-23T05:59:09Z</time>
      </trkpt>
      <trkpt lat="43.9951" lon="1.94296">
        <ele>235.2</ele>
        <time>2023-07-23T05:59:12Z</time>
      </trkpt>
      <trkpt lat="43.9952" lon="1.94314">
        <ele>236</ele>
        <time>2023-07-23T05:59:17Z</time>
      </trkpt>
      <trkpt lat="43.99526" lon="1.94324">
        <ele>236.4</ele>
        <time>2023-07-23T05:59:20Z</time>
      </trkpt>
      <trkpt lat="43.99528" lon="1.94328">
        <ele>236.6</ele>
        <time>2023-07-23T05:59:21Z</time>
      </trkpt>
      <trkpt lat="43.9953" lon="1.94332">
        <ele>236.6</ele>
        <time>2023-07-23T05:59:22Z</time>
      </trkpt>
      <trkpt lat="43.99532" lon="1.94335">
        <ele>236.8</ele>
        <time>2023-07-23T05:59:23Z</time>
      </trkpt>
      <trkpt lat="43.99534" lon="1.94339">
        <ele>236.8</ele>
        <time>2023-07-23T05:59:24Z</time>
      </trkpt>
      <trkpt lat="43.99536" lon="1.94343">
        <ele>237.2</ele>
        <time>2023-07-23T05:59:25Z</time>
      </trkpt>
      <trkpt lat="43.99537" lon="1.94346">
        <ele>237.4</ele>
        <time>2023-07-23T05:59:26Z</time>
      </trkpt>
      <trkpt lat="43.9954" lon="1.9435">
        <ele>237.4</ele>
        <time>2023-07-23T05:59:27Z</time>
      </trkpt>
      <trkpt lat="43.99542" lon="1.94354">
        <ele>237.8</ele>
        <time>2023-07-23T05:59:28Z</time>
      </trkpt>
      <trkpt lat="43.99544" lon="1.94357">
        <ele>237.8</ele>
        <time>2023-07-23T05:59:29Z</time>
      </trkpt>
      <trkpt lat="43.99546" lon="1.94361">
        <ele>238</ele>
        <time>2023-07-23T05:59:30Z</time>
      </trkpt>
      <trkpt lat="43.99548" lon="1.94364">
        <ele>238.2</ele>
        <time>2023-07-23T05:59:31Z</time>
      </trkpt>
      <trkpt lat="43.9955" lon="1.94368">
        <ele>238.4</ele>
        <time>2023-07-23T05:59:32Z</time>
      </trkpt>
      <trkpt lat="43.99552" lon="1.94372">
        <ele>238.4</ele>
        <time>2023-07-23T05:59:33Z</time>
      </trkpt>
      <trkpt lat="43.99554" lon="1.94375">
        <ele>238.6</ele>
        <time>2023-07-23T05:59:34Z</time>
      </trkpt>
      <trkpt lat="43.99556" lon="1.94378">
        <ele>238.8</ele>
        <time>2023-07-23T05:59:35Z</time>
      </trkpt>
      <trkpt lat="43.99558" lon="1.94382">
        <ele>239</ele>
        <time>2023-07-23T05:59:36Z</time>
      </trkpt>
      <trkpt lat="43.9956" lon="1.94385">
        <ele>239.2</ele>
        <time>2023-07-23T05:59:37Z</time>
      </trkpt>
      <trkpt lat="43.99562" lon="1.94387">
        <ele>239.2</ele>
        <time>2023-07-23T05:59:38Z</time>
      </trkpt>
      <trkpt lat="43.99563" lon="1.9439">
        <ele>239.4</ele>
        <time>2023-07-23T05:59:39Z</time>
      </trkpt>
      <trkpt lat="43.99565" lon="1.94393">
        <ele>239.6</ele>
        <time>2023-07-23T05:59:40Z</time>
      </trkpt>
      <trkpt lat="43.99567" lon="1.94394">
        <ele>239.8</ele>
        <time>2023-07-23T05:59:41Z</time>
      </trkpt>
      <trkpt lat="43.9957" lon="1.94395">
        <ele>240</ele>
        <time>2023-07-23T05:59:42Z</time>
      </trkpt>
      <trkpt lat="43.99572" lon="1.94395">
        <ele>240.2</ele>
        <time>2023-07-23T05:59:43Z</time>
      </trkpt>
      <trkpt lat="43.99574" lon="1.94393">
        <ele>240.6</ele>
        <time>2023-07-23T05:59:44Z</time>
      </trkpt>
      <trkpt lat="43.99574" lon="1.94391">
        <ele>240.6</ele>
        <time>2023-07-23T05:59:45Z</time>
      </trkpt>
      <trkpt lat="43.99575" lon="1.94388">
        <ele>240.6</ele>
        <time>2023-07-23T05:59:46Z</time>
      </trkpt>
      <trkpt lat="43.99576" lon="1.94385">
        <ele>240.6</ele>
        <time>2023-07-23T05:59:47Z</time>
      </trkpt>
      <trkpt lat="43.99577" lon="1.94382">
        <ele>240.8</ele>
        <time>2023-07-23T05:59:48Z</time>
      </trkpt>
      <trkpt lat="43.99579" lon="1.94378">
        <ele>240.8</ele>
        <time>2023-07-23T05:59:49Z</time>
      </trkpt>
      <trkpt lat="43.9958" lon="1.94376">
        <ele>240.8</ele>
        <time>2023-07-23T05:59:50Z</time>
      </trkpt>
      <trkpt lat="43.99582" lon="1.94373">
        <ele>241</ele>
        <time>2023-07-23T05:59:51Z</time>
      </trkpt>
      <trkpt lat="43.99583" lon="1.9437">
        <ele>241.2</ele>
        <time>2023-07-23T05:59:52Z</time>
      </trkpt>
      <trkpt lat="43.99585" lon="1.94368">
        <ele>241.4</ele>
        <time>2023-07-23T05:59:53Z</time>
      </trkpt>
      <trkpt lat="43.99587" lon="1.94365">
        <ele>241.4</ele>
        <time>2023-07-23T05:59:54Z</time>
      </trkpt>
      <trkpt lat="43.99588" lon="1.94362">
        <ele>241.6</ele>
        <time>2023-07-23T05:59:55Z</time>
      </trkpt>
      <trkpt lat="43.9959" lon="1.9436">
        <ele>241.8</ele>
        <time>2023-07-23T05:59:56Z</time>
      </trkpt>
      <trkpt lat="43.99592" lon="1.94357">
        <ele>241.8</ele>
        <time>2023-07-23T05:59:57Z</time>
      </trkpt>
      <trkpt lat="43.99593" lon="1.94354">
        <ele>242</ele>
        <time>2023-07-23T05:59:58Z</time>
      </trkpt>
      <trkpt lat="43.99595" lon="1.94352">
        <ele>242</ele>
        <time>2023-07-23T05:59:59Z</time>
      </trkpt>
      <trkpt lat="43.99597" lon="1.94349">
        <ele>242.2</ele>
        <time>2023-07-23T06:00:00Z</time>
      </trkpt>
      <trkpt lat="43.99599" lon="1.94347">
        <ele>242.2</ele>
        <time>2023-07-23T06:00:01Z</time>
      </trkpt>
      <trkpt lat="43.99601" lon="1.94345">
        <ele>243</ele>
        <time>2023-07-23T06:00:02Z</time>
      </trkpt>
      <trkpt lat="43.99603" lon="1.94342">
        <ele>243.2</ele>
        <time>2023-07-23T06:00:03Z</time>
      </trkpt>
      <trkpt lat="43.99604" lon="1.9434">
        <ele>243.4</ele>
        <time>2023-07-23T06:00:04Z</time>
      </trkpt>
      <trkpt lat="43.99606" lon="1.94337">
        <ele>243.6</ele>
        <time>2023-07-23T06:00:05Z</time>
      </trkpt>
      <trkpt lat="43.99608" lon="1.94334">
        <ele>243.6</ele>
        <time>2023-07-23T06:00:06Z</time>
      </trkpt>
      <trkpt lat="43.9961" lon="1.94331">
        <ele>243.6</ele>
        <time>2023-07-23T06:00:07Z</time>
      </trkpt>
      <trkpt lat="43.99612" lon="1.94328">
        <ele>243.8</ele>
        <time>2023-07-23T06:00:08Z</time>
      </trkpt>
      <trkpt lat="43.99614" lon="1.94325">
        <ele>243.8</ele>
        <time>2023-07-23T06:00:09Z</time>
      </trkpt>
      <trkpt lat="43.99617" lon="1.94322">
        <ele>244</ele>
        <time>2023-07-23T06:00:10Z</time>
      </trkpt>
      <trkpt lat="43.99619" lon="1.94319">
        <ele>244</ele>
        <time>2023-07-23T06:00:11Z</time>
      </trkpt>
      <trkpt lat="43.99621" lon="1.94316">
        <ele>244.2</ele>
        <time>2023-07-23T06:00:12Z</time>
      </trkpt>
      <trkpt lat="43.99624" lon="1.94313">
        <ele>244.2</ele>
        <time>2023-07-23T06:00:13Z</time>
      </trkpt>
      <trkpt lat="43.99626" lon="1.9431">
        <ele>244.4</ele>
        <time>2023-07-23T06:00:14Z</time>
      </trkpt>
      <trkpt lat="43.99628" lon="1.94308">
        <ele>244.4</ele>
        <time>2023-07-23T06:00:15Z</time>
      </trkpt>
      <trkpt lat="43.99631" lon="1.94304">
        <ele>244.4</ele>
        <time>2023-07-23T06:00:16Z</time>
      </trkpt>
      <trkpt lat="43.99634" lon="1.94301">
        <ele>244.4</ele>
        <time>2023-07-23T06:00:17Z</time>
      </trkpt>
      <trkpt lat="43.99636" lon="1.94298">
        <ele>244.6</ele>
        <time>2023-07-23T06:00:18Z</time>
      </trkpt>
      <trkpt lat="43.99639" lon="1.94294">
        <ele>244.6</ele>
        <time>2023-07-23T06:00:19Z</time>
      </trkpt>
      <trkpt lat="43.99641" lon="1.94292">
        <ele>244.8</ele>
        <time>2023-07-23T06:00:20Z</time>
      </trkpt>
      <trkpt lat="43.99644" lon="1.94288">
        <ele>244.8</ele>
        <time>2023-07-23T06:00:21Z</time>
      </trkpt>
      <trkpt lat="43.99647" lon="1.94285">
        <ele>244.8</ele>
        <time>2023-07-23T06:00:22Z</time>
      </trkpt>
      <trkpt lat="43.99649" lon="1.94281">
        <ele>245</ele>
        <time>2023-07-23T06:00:23Z</time>
      </trkpt>
      <trkpt lat="43.99652" lon="1.94278">
        <ele>245</ele>
        <time>2023-07-23T06:00:24Z</time>
      </trkpt>
      <trkpt lat="43.99654" lon="1.94275">
        <ele>245.2</ele>
        <time>2023-07-23T06:00:25Z</time>
      </trkpt>
      <trkpt lat="43.99656" lon="1.94272">
        <ele>245.4</ele>
        <time>2023-07-23T06:00:26Z</time>
      </trkpt>
      <trkpt lat="43.99659" lon="1.94268">
        <ele>245.4</ele>
        <time>2023-07-23T06:00:27Z</time>
      </trkpt>
      <trkpt lat="43.99662" lon="1.94265">
        <ele>245.6</ele>
        <time>2023-07-23T06:00:28Z</time>
      </trkpt>
      <trkpt lat="43.99663" lon="1.94262">
        <ele>245.6</ele>
        <time>2023-07-23T06:00:29Z</time>
      </trkpt>
      <trkpt lat="43.99666" lon="1.94257">
        <ele>245.8</ele>
        <time>2023-07-23T06:00:30Z</time>
      </trkpt>
      <trkpt lat="43.99669" lon="1.94254">
        <ele>246</ele>
        <time>2023-07-23T06:00:31Z</time>
      </trkpt>
      <trkpt lat="43.99671" lon="1.9425">
        <ele>246</ele>
        <time>2023-07-23T06:00:32Z</time>
      </trkpt>
      <trkpt lat="43.99672" lon="1.94245">
        <ele>246.2</ele>
        <time>2023-07-23T06:00:33Z</time>
      </trkpt>
      <trkpt lat="43.99673" lon="1.94241">
        <ele>246.2</ele>
        <time>2023-07-23T06:00:34Z</time>
      </trkpt>
      <trkpt lat="43.99675" lon="1.94238">
        <ele>246.4</ele>
        <time>2023-07-23T06:00:35Z</time>
      </trkpt>
      <trkpt lat="43.99676" lon="1.94234">
        <ele>246.4</ele>
        <time>2023-07-23T06:00:36Z</time>
      </trkpt>
      <trkpt lat="43.99677" lon="1.94229">
        <ele>246.6</ele>
        <time>2023-07-23T06:00:37Z</time>
      </trkpt>
      <trkpt lat="43.99679" lon="1.94224">
        <ele>246.6</ele>
        <time>2023-07-23T06:00:38Z</time>
      </trkpt>
      <trkpt lat="43.99684" lon="1.94205">
        <ele>247.2</ele>
        <time>2023-07-23T06:00:42Z</time>
      </trkpt>
      <trkpt lat="43.99685" lon="1.942">
        <ele>247.2</ele>
        <time>2023-07-23T06:00:43Z</time>
      </trkpt>
      <trkpt lat="43.99686" lon="1.94194">
        <ele>247.2</ele>
        <time>2023-07-23T06:00:44Z</time>
      </trkpt>
      <trkpt lat="43.99686" lon="1.94188">
        <ele>247.2</ele>
        <time>2023-07-23T06:00:45Z</time>
      </trkpt>
      <trkpt lat="43.99687" lon="1.94183">
        <ele>247.4</ele>
        <time>2023-07-23T06:00:46Z</time>
      </trkpt>
      <trkpt lat="43.99688" lon="1.94178">
        <ele>247.4</ele>
        <time>2023-07-23T06:00:47Z</time>
      </trkpt>
      <trkpt lat="43.99691" lon="1.94148">
        <ele>247.4</ele>
        <time>2023-07-23T06:00:52Z</time>
      </trkpt>
      <trkpt lat="43.99695" lon="1.94111">
        <ele>247.8</ele>
        <time>2023-07-23T06:00:59Z</time>
      </trkpt>
      <trkpt lat="43.99696" lon="1.94105">
        <ele>247.8</ele>
        <time>2023-07-23T06:01:00Z</time>
      </trkpt>
      <trkpt lat="43.99697" lon="1.941">
        <ele>248</ele>
        <time>2023-07-23T06:01:01Z</time>
      </trkpt>
      <trkpt lat="43.99697" lon="1.94095">
        <ele>248</ele>
        <time>2023-07-23T06:01:02Z</time>
      </trkpt>
      <trkpt lat="43.99697" lon="1.94079">
        <ele>248.2</ele>
        <time>2023-07-23T06:01:05Z</time>
      </trkpt>
      <trkpt lat="43.99696" lon="1.94065">
        <ele>248.2</ele>
        <time>2023-07-23T06:01:07Z</time>
      </trkpt>
      <trkpt lat="43.99694" lon="1.94047">
        <ele>248.4</ele>
        <time>2023-07-23T06:01:10Z</time>
      </trkpt>
      <trkpt lat="43.99694" lon="1.94041">
        <ele>248.4</ele>
        <time>2023-07-23T06:01:11Z</time>
      </trkpt>
      <trkpt lat="43.99696" lon="1.9403">
        <ele>248.6</ele>
        <time>2023-07-23T06:01:13Z</time>
      </trkpt>
      <trkpt lat="43.99698" lon="1.94025">
        <ele>248.6</ele>
        <time>2023-07-23T06:01:14Z</time>
      </trkpt>
      <trkpt lat="43.997" lon="1.94018">
        <ele>248.6</ele>
        <time>2023-07-23T06:01:15Z</time>
      </trkpt>
      <trkpt lat="43.99703" lon="1.94014">
        <ele>248.6</ele>
        <time>2023-07-23T06:01:16Z</time>
      </trkpt>
      <trkpt lat="43.99706" lon="1.94009">
        <ele>248.6</ele>
        <time>2023-07-23T06:01:17Z</time>
      </trkpt>
      <trkpt lat="43.99708" lon="1.94005">
        <ele>248.6</ele>
        <time>2023-07-23T06:01:18Z</time>
      </trkpt>
      <trkpt lat="43.99713" lon="1.93995">
        <ele>248.4</ele>
        <time>2023-07-23T06:01:20Z</time>
      </trkpt>
      <trkpt lat="43.99716" lon="1.9399">
        <ele>248.4</ele>
        <time>2023-07-23T06:01:21Z</time>
      </trkpt>
      <trkpt lat="43.99718" lon="1.93985">
        <ele>248.4</ele>
        <time>2023-07-23T06:01:22Z</time>
      </trkpt>
      <trkpt lat="43.9972" lon="1.93981">
        <ele>248.4</ele>
        <time>2023-07-23T06:01:23Z</time>
      </trkpt>
      <trkpt lat="43.99722" lon="1.93976">
        <ele>248.4</ele>
        <time>2023-07-23T06:01:24Z</time>
      </trkpt>
      <trkpt lat="43.99724" lon="1.93971">
        <ele>248.2</ele>
        <time>2023-07-23T06:01:25Z</time>
      </trkpt>
      <trkpt lat="43.99726" lon="1.93961">
        <ele>248.2</ele>
        <time>2023-07-23T06:01:27Z</time>
      </trkpt>
      <trkpt lat="43.99726" lon="1.93954">
        <ele>248.2</ele>
        <time>2023-07-23T06:01:28Z</time>
      </trkpt>
      <trkpt lat="43.99725" lon="1.93948">
        <ele>248.2</ele>
        <time>2023-07-23T06:01:29Z</time>
      </trkpt>
      <trkpt lat="43.99724" lon="1.93942">
        <ele>248.2</ele>
        <time>2023-07-23T06:01:30Z</time>
      </trkpt>
      <trkpt lat="43.99722" lon="1.93938">
        <ele>248.2</ele>
        <time>2023-07-23T06:01:31Z</time>
      </trkpt>
      <trkpt lat="43.9972" lon="1.93934">
        <ele>248.4</ele>
        <time>2023-07-23T06:01:32Z</time>
      </trkpt>
      <trkpt lat="43.99717" lon="1.93929">
        <ele>248.2</ele>
        <time>2023-07-23T06:01:33Z</time>
      </trkpt>
      <trkpt lat="43.99715" lon="1.93925">
        <ele>248.2</ele>
        <time>2023-07-23T06:01:34Z</time>
      </trkpt>
      <trkpt lat="43.99713" lon="1.93922">
        <ele>248.2</ele>
        <time>2023-07-23T06:01:35Z</time>
      </trkpt>
      <trkpt lat="43.99714" lon="1.93919">
        <ele>248.2</ele>
        <time>2023-07-23T06:01:36Z</time>
      </trkpt>
      <trkpt lat="43.99714" lon="1.93918">
        <ele>248</ele>
        <time>2023-07-23T06:01:37Z</time>
      </trkpt>
      <trkpt lat="43.99715" lon="1.93917">
        <ele>248</ele>
        <time>2023-07-23T06:01:38Z</time>
      </trkpt>
      <trkpt lat="43.99715" lon="1.93917">
        <ele>248</ele>
        <time>2023-07-23T06:01:39Z</time>
      </trkpt>
      <trkpt lat="43.99724" lon="1.93916">
        <ele>247.8</ele>
        <time>2023-07-23T06:05:36Z</time>
      </trkpt>
      <trkpt lat="43.9973" lon="1.93914">
        <ele>247.8</ele>
        <time>2023-07-23T06:05:39Z</time>
      </trkpt>
      <trkpt lat="43.99732" lon="1.93914">
        <ele>247.8</ele>
        <time>2023-07-23T06:05:40Z</time>
      </trkpt>
      <trkpt lat="43.99745" lon="1.93912">
        <ele>248</ele>
        <time>2023-07-23T06:05:45Z</time>
      </trkpt>
      <trkpt lat="43.99754" lon="1.9391">
        <ele>248</ele>
        <time>2023-07-23T06:05:48Z</time>
      </trkpt>
      <trkpt lat="43.99771" lon="1.93907">
        <ele>248.2</ele>
        <time>2023-07-23T06:05:54Z</time>
      </trkpt>
      <trkpt lat="43.99773" lon="1.93907">
        <ele>248.2</ele>
        <time>2023-07-23T06:05:55Z</time>
      </trkpt>
      <trkpt lat="43.99776" lon="1.93906">
        <ele>248.4</ele>
        <time>2023-07-23T06:05:56Z</time>
      </trkpt>
      <trkpt lat="43.99778" lon="1.93906">
        <ele>248.4</ele>
        <time>2023-07-23T06:05:57Z</time>
      </trkpt>
      <trkpt lat="43.99781" lon="1.93905">
        <ele>248.6</ele>
        <time>2023-07-23T06:05:58Z</time>
      </trkpt>
      <trkpt lat="43.99783" lon="1.93905">
        <ele>248.6</ele>
        <time>2023-07-23T06:05:59Z</time>
      </trkpt>
      <trkpt lat="43.99786" lon="1.93904">
        <ele>248.8</ele>
        <time>2023-07-23T06:06:00Z</time>
      </trkpt>
      <trkpt lat="43.99789" lon="1.93903">
        <ele>248.8</ele>
        <time>2023-07-23T06:06:01Z</time>
      </trkpt>
      <trkpt lat="43.99819" lon="1.93898">
        <ele>250</ele>
        <time>2023-07-23T06:06:11Z</time>
      </trkpt>
      <trkpt lat="43.99843" lon="1.93899">
        <ele>251</ele>
        <time>2023-07-23T06:06:19Z</time>
      </trkpt>
      <trkpt lat="43.99846" lon="1.939">
        <ele>251.2</ele>
        <time>2023-07-23T06:06:20Z</time>
      </trkpt>
      <trkpt lat="43.99852" lon="1.93901">
        <ele>251.2</ele>
        <time>2023-07-23T06:06:22Z</time>
      </trkpt>
      <trkpt lat="43.99855" lon="1.93901">
        <ele>251.4</ele>
        <time>2023-07-23T06:06:23Z</time>
      </trkpt>
      <trkpt lat="43.99858" lon="1.93902">
        <ele>251.6</ele>
        <time>2023-07-23T06:06:24Z</time>
      </trkpt>
      <trkpt lat="43.99861" lon="1.93903">
        <ele>251.8</ele>
        <time>2023-07-23T06:06:25Z</time>
      </trkpt>
      <trkpt lat="43.99864" lon="1.93904">
        <ele>251.8</ele>
        <time>2023-07-23T06:06:26Z</time>
      </trkpt>
      <trkpt lat="43.99867" lon="1.93905">
        <ele>251.8</ele>
        <time>2023-07-23T06:06:27Z</time>
      </trkpt>
      <trkpt lat="43.99869" lon="1.93906">
        <ele>252</ele>
        <time>2023-07-23T06:06:28Z</time>
      </trkpt>
      <trkpt lat="43.99872" lon="1.93906">
        <ele>252.2</ele>
        <time>2023-07-23T06:06:29Z</time>
      </trkpt>
      <trkpt lat="43.99874" lon="1.93907">
        <ele>252.2</ele>
        <time>2023-07-23T06:06:30Z</time>
      </trkpt>
      <trkpt lat="43.99877" lon="1.93908">
        <ele>252.4</ele>
        <time>2023-07-23T06:06:31Z</time>
      </trkpt>
      <trkpt lat="43.9988" lon="1.93909">
        <ele>252.6</ele>
        <time>2023-07-23T06:06:32Z</time>
      </trkpt>
      <trkpt lat="43.99883" lon="1.9391">
        <ele>252.6</ele>
        <time>2023-07-23T06:06:33Z</time>
      </trkpt>
      <trkpt lat="43.99886" lon="1.93911">
        <ele>252.8</ele>
        <time>2023-07-23T06:06:34Z</time>
      </trkpt>
      <trkpt lat="43.99889" lon="1.93912">
        <ele>252.8</ele>
        <time>2023-07-23T06:06:35Z</time>
      </trkpt>
      <trkpt lat="43.99892" lon="1.93912">
        <ele>252.8</ele>
        <time>2023-07-23T06:06:36Z</time>
      </trkpt>
      <trkpt lat="43.99896" lon="1.93913">
        <ele>253</ele>
        <time>2023-07-23T06:06:37Z</time>
      </trkpt>
      <trkpt lat="43.99899" lon="1.93914">
        <ele>253.2</ele>
        <time>2023-07-23T06:06:38Z</time>
      </trkpt>
      <trkpt lat="43.99902" lon="1.93914">
        <ele>253.4</ele>
        <time>2023-07-23T06:06:39Z</time>
      </trkpt>
      <trkpt lat="43.99905" lon="1.93914">
        <ele>253.4</ele>
        <time>2023-07-23T06:06:40Z</time>
      </trkpt>
      <trkpt lat="43.99908" lon="1.93914">
        <ele>253.4</ele>
        <time>2023-07-23T06:06:41Z</time>
      </trkpt>
      <trkpt lat="43.99912" lon="1.93915">
        <ele>253.4</ele>
        <time>2023-07-23T06:06:42Z</time>
      </trkpt>
      <trkpt lat="43.99915" lon="1.93915">
        <ele>253.4</ele>
        <time>2023-07-23T06:06:43Z</time>
      </trkpt>
      <trkpt lat="43.99918" lon="1.93915">
        <ele>253.6</ele>
        <time>2023-07-23T06:06:44Z</time>
      </trkpt>
      <trkpt lat="43.99922" lon="1.93916">
        <ele>253.6</ele>
        <time>2023-07-23T06:06:45Z</time>
      </trkpt>
      <trkpt lat="43.99925" lon="1.93916">
        <ele>253.6</ele>
        <time>2023-07-23T06:06:46Z</time>
      </trkpt>
      <trkpt lat="43.99928" lon="1.93917">
        <ele>253.8</ele>
        <time>2023-07-23T06:06:47Z</time>
      </trkpt>
      <trkpt lat="43.99931" lon="1.93917">
        <ele>254</ele>
        <time>2023-07-23T06:06:48Z</time>
      </trkpt>
      <trkpt lat="43.99936" lon="1.93918">
        <ele>254</ele>
        <time>2023-07-23T06:06:49Z</time>
      </trkpt>
      <trkpt lat="43.99939" lon="1.93918">
        <ele>253.8</ele>
        <time>2023-07-23T06:06:50Z</time>
      </trkpt>
      <trkpt lat="43.99952" lon="1.93919">
        <ele>254.2</ele>
        <time>2023-07-23T06:06:54Z</time>
      </trkpt>
      <trkpt lat="43.99959" lon="1.93919">
        <ele>254.4</ele>
        <time>2023-07-23T06:06:56Z</time>
      </trkpt>
      <trkpt lat="43.99985" lon="1.9392">
        <ele>254.6</ele>
        <time>2023-07-23T06:07:03Z</time>
      </trkpt>
      <trkpt lat="44.00017" lon="1.93919">
        <ele>254.8</ele>
        <time>2023-07-23T06:07:12Z</time>
      </trkpt>
      <trkpt lat="44.00051" lon="1.93919">
        <ele>255</ele>
        <time>2023-07-23T06:07:21Z</time>
      </trkpt>
      <trkpt lat="44.0006" lon="1.93919">
        <ele>255</ele>
        <time>2023-07-23T06:07:24Z</time>
      </trkpt>
      <trkpt lat="44.00063" lon="1.93919">
        <ele>255</ele>
        <time>2023-07-23T06:07:25Z</time>
      </trkpt>
      <trkpt lat="44.00066" lon="1.93919">
        <ele>255</ele>
        <time>2023-07-23T06:07:26Z</time>
      </trkpt>
      <trkpt lat="44.00075" lon="1.93919">
        <ele>254.8</ele>
        <time>2023-07-23T06:07:29Z</time>
      </trkpt>
      <trkpt lat="44.00079" lon="1.93918">
        <ele>254.8</ele>
        <time>2023-07-23T06:07:30Z</time>
      </trkpt>
      <trkpt lat="44.00082" lon="1.93918">
        <ele>254.8</ele>
        <time>2023-07-23T06:07:31Z</time>
      </trkpt>
      <trkpt lat="44.00084" lon="1.93918">
        <ele>254.6</ele>
        <time>2023-07-23T06:07:32Z</time>
      </trkpt>
      <trkpt lat="44.00095" lon="1.93917">
        <ele>254.6</ele>
        <time>2023-07-23T06:07:35Z</time>
      </trkpt>
      <trkpt lat="44.00121" lon="1.93913">
        <ele>254.8</ele>
        <time>2023-07-23T06:07:43Z</time>
      </trkpt>
      <trkpt lat="44.00142" lon="1.93915">
        <ele>255</ele>
        <time>2023-07-23T06:07:50Z</time>
      </trkpt>
      <trkpt lat="44.00176" lon="1.93922">
        <ele>254.4</ele>
        <time>2023-07-23T06:07:58Z</time>
      </trkpt>
      <trkpt lat="44.00179" lon="1.93922">
        <ele>254.4</ele>
        <time>2023-07-23T06:07:59Z</time>
      </trkpt>
      <trkpt lat="44.00204" lon="1.93929">
        <ele>254</ele>
        <time>2023-07-23T06:08:05Z</time>
      </trkpt>
      <trkpt lat="44.00206" lon="1.9393">
        <ele>253.8</ele>
        <time>2023-07-23T06:08:06Z</time>
      </trkpt>
      <trkpt lat="44.00208" lon="1.93931">
        <ele>253.6</ele>
        <time>2023-07-23T06:08:07Z</time>
      </trkpt>
      <trkpt lat="44.00209" lon="1.93932">
        <ele>253.4</ele>
        <time>2023-07-23T06:08:08Z</time>
      </trkpt>
      <trkpt lat="44.0021" lon="1.93933">
        <ele>253.4</ele>
        <time>2023-07-23T06:08:09Z</time>
      </trkpt>
      <trkpt lat="44.00211" lon="1.93934">
        <ele>253.4</ele>
        <time>2023-07-23T06:08:10Z</time>
      </trkpt>
      <trkpt lat="44.00213" lon="1.93934">
        <ele>253.2</ele>
        <time>2023-07-23T06:08:11Z</time>
      </trkpt>
      <trkpt lat="44.00214" lon="1.93935">
        <ele>253</ele>
        <time>2023-07-23T06:08:12Z</time>
      </trkpt>
      <trkpt lat="44.00215" lon="1.93936">
        <ele>253</ele>
        <time>2023-07-23T06:08:13Z</time>
      </trkpt>
      <trkpt lat="44.00219" lon="1.93938">
        <ele>253</ele>
        <time>2023-07-23T06:08:15Z</time>
      </trkpt>
      <trkpt lat="44.00231" lon="1.93946">
        <ele>252.6</ele>
        <time>2023-07-23T06:08:19Z</time>
      </trkpt>
      <trkpt lat="44.00235" lon="1.93949">
        <ele>252.2</ele>
        <time>2023-07-23T06:08:20Z</time>
      </trkpt>
      <trkpt lat="44.00241" lon="1.93954">
        <ele>252</ele>
        <time>2023-07-23T06:08:22Z</time>
      </trkpt>
      <trkpt lat="44.00254" lon="1.93962">
        <ele>251.6</ele>
        <time>2023-07-23T06:08:25Z</time>
      </trkpt>
      <trkpt lat="44.00265" lon="1.93969">
        <ele>251.2</ele>
        <time>2023-07-23T06:08:28Z</time>
      </trkpt>
      <trkpt lat="44.00268" lon="1.9397">
        <ele>251</ele>
        <time>2023-07-23T06:08:29Z</time>
      </trkpt>
      <trkpt lat="44.00271" lon="1.93972">
        <ele>250.8</ele>
        <time>2023-07-23T06:08:30Z</time>
      </trkpt>
      <trkpt lat="44.00274" lon="1.93975">
        <ele>250.8</ele>
        <time>2023-07-23T06:08:31Z</time>
      </trkpt>
      <trkpt lat="44.00283" lon="1.93981">
        <ele>250.6</ele>
        <time>2023-07-23T06:08:34Z</time>
      </trkpt>
      <trkpt lat="44.00285" lon="1.93983">
        <ele>250.6</ele>
        <time>2023-07-23T06:08:35Z</time>
      </trkpt>
      <trkpt lat="44.00288" lon="1.93985">
        <ele>250.6</ele>
        <time>2023-07-23T06:08:36Z</time>
      </trkpt>
      <trkpt lat="44.00291" lon="1.93988">
        <ele>250.8</ele>
        <time>2023-07-23T06:08:37Z</time>
      </trkpt>
      <trkpt lat="44.00293" lon="1.9399">
        <ele>250.8</ele>
        <time>2023-07-23T06:08:38Z</time>
      </trkpt>
      <trkpt lat="44.00295" lon="1.93992">
        <ele>251</ele>
        <time>2023-07-23T06:08:39Z</time>
      </trkpt>
      <trkpt lat="44.00298" lon="1.93994">
        <ele>251</ele>
        <time>2023-07-23T06:08:40Z</time>
      </trkpt>
      <trkpt lat="44.003" lon="1.93996">
        <ele>251.2</ele>
        <time>2023-07-23T06:08:41Z</time>
      </trkpt>
      <trkpt lat="44.00303" lon="1.93997">
        <ele>251.2</ele>
        <time>2023-07-23T06:08:42Z</time>
      </trkpt>
      <trkpt lat="44.00305" lon="1.93999">
        <ele>251.2</ele>
        <time>2023-07-23T06:08:43Z</time>
      </trkpt>
      <trkpt lat="44.00307" lon="1.94001">
        <ele>251.4</ele>
        <time>2023-07-23T06:08:44Z</time>
      </trkpt>
      <trkpt lat="44.00309" lon="1.94002">
        <ele>251.4</ele>
        <time>2023-07-23T06:08:45Z</time>
      </trkpt>
      <trkpt lat="44.00311" lon="1.94004">
        <ele>251.6</ele>
        <time>2023-07-23T06:08:46Z</time>
      </trkpt>
      <trkpt lat="44.00313" lon="1.94005">
        <ele>251.8</ele>
        <time>2023-07-23T06:08:47Z</time>
      </trkpt>
      <trkpt lat="44.00315" lon="1.94006">
        <ele>252</ele>
        <time>2023-07-23T06:08:48Z</time>
      </trkpt>
      <trkpt lat="44.00317" lon="1.94007">
        <ele>252.2</ele>
        <time>2023-07-23T06:08:49Z</time>
      </trkpt>
      <trkpt lat="44.00318" lon="1.94008">
        <ele>252.4</ele>
        <time>2023-07-23T06:08:50Z</time>
      </trkpt>
      <trkpt lat="44.0032" lon="1.94009">
        <ele>252.4</ele>
        <time>2023-07-23T06:08:51Z</time>
      </trkpt>
      <trkpt lat="44.00322" lon="1.9401">
        <ele>252.6</ele>
        <time>2023-07-23T06:08:52Z</time>
      </trkpt>
      <trkpt lat="44.00323" lon="1.94011">
        <ele>252.8</ele>
        <time>2023-07-23T06:08:53Z</time>
      </trkpt>
      <trkpt lat="44.00325" lon="1.94013">
        <ele>253</ele>
        <time>2023-07-23T06:08:54Z</time>
      </trkpt>
      <trkpt lat="44.00327" lon="1.94014">
        <ele>253.4</ele>
        <time>2023-07-23T06:08:55Z</time>
      </trkpt>
      <trkpt lat="44.00329" lon="1.94014">
        <ele>253.4</ele>
        <time>2023-07-23T06:08:56Z</time>
      </trkpt>
      <trkpt lat="44.0033" lon="1.94015">
        <ele>253.6</ele>
        <time>2023-07-23T06:08:57Z</time>
      </trkpt>
      <trkpt lat="44.00332" lon="1.94017">
        <ele>253.8</ele>
        <time>2023-07-23T06:08:58Z</time>
      </trkpt>
      <trkpt lat="44.00334" lon="1.94018">
        <ele>253.8</ele>
        <time>2023-07-23T06:08:59Z</time>
      </trkpt>
      <trkpt lat="44.0034" lon="1.94024">
        <ele>254.4</ele>
        <time>2023-07-23T06:09:03Z</time>
      </trkpt>
      <trkpt lat="44.00342" lon="1.94025">
        <ele>254.6</ele>
        <time>2023-07-23T06:09:04Z</time>
      </trkpt>
      <trkpt lat="44.00344" lon="1.94026">
        <ele>254.8</ele>
        <time>2023-07-23T06:09:05Z</time>
      </trkpt>
      <trkpt lat="44.00345" lon="1.94028">
        <ele>254.8</ele>
        <time>2023-07-23T06:09:06Z</time>
      </trkpt>
      <trkpt lat="44.00347" lon="1.94029">
        <ele>255</ele>
        <time>2023-07-23T06:09:07Z</time>
      </trkpt>
      <trkpt lat="44.00349" lon="1.94031">
        <ele>255</ele>
        <time>2023-07-23T06:09:08Z</time>
      </trkpt>
      <trkpt lat="44.00351" lon="1.94033">
        <ele>255.2</ele>
        <time>2023-07-23T06:09:09Z</time>
      </trkpt>
      <trkpt lat="44.00352" lon="1.94034">
        <ele>255.4</ele>
        <time>2023-07-23T06:09:10Z</time>
      </trkpt>
      <trkpt lat="44.00354" lon="1.94036">
        <ele>255.4</ele>
        <time>2023-07-23T06:09:11Z</time>
      </trkpt>
      <trkpt lat="44.00356" lon="1.94038">
        <ele>255.4</ele>
        <time>2023-07-23T06:09:12Z</time>
      </trkpt>
      <trkpt lat="44.00357" lon="1.94039">
        <ele>255.6</ele>
        <time>2023-07-23T06:09:13Z</time>
      </trkpt>
      <trkpt lat="44.00359" lon="1.94041">
        <ele>255.6</ele>
        <time>2023-07-23T06:09:14Z</time>
      </trkpt>
      <trkpt lat="44.00361" lon="1.94042">
        <ele>255.8</ele>
        <time>2023-07-23T06:09:15Z</time>
      </trkpt>
      <trkpt lat="44.00362" lon="1.94044">
        <ele>256</ele>
        <time>2023-07-23T06:09:16Z</time>
      </trkpt>
      <trkpt lat="44.00364" lon="1.94045">
        <ele>256</ele>
        <time>2023-07-23T06:09:17Z</time>
      </trkpt>
      <trkpt lat="44.00366" lon="1.94047">
        <ele>256.2</ele>
        <time>2023-07-23T06:09:18Z</time>
      </trkpt>
      <trkpt lat="44.00367" lon="1.94049">
        <ele>256.2</ele>
        <time>2023-07-23T06:09:19Z</time>
      </trkpt>
      <trkpt lat="44.00369" lon="1.9405">
        <ele>256.6</ele>
        <time>2023-07-23T06:09:20Z</time>
      </trkpt>
      <trkpt lat="44.0037" lon="1.94052">
        <ele>256.6</ele>
        <time>2023-07-23T06:09:21Z</time>
      </trkpt>
      <trkpt lat="44.00372" lon="1.94053">
        <ele>256.8</ele>
        <time>2023-07-23T06:09:22Z</time>
      </trkpt>
      <trkpt lat="44.00374" lon="1.94055">
        <ele>256.8</ele>
        <time>2023-07-23T06:09:23Z</time>
      </trkpt>
      <trkpt lat="44.00376" lon="1.94056">
        <ele>256.8</ele>
        <time>2023-07-23T06:09:24Z</time>
      </trkpt>
      <trkpt lat="44.00377" lon="1.94058">
        <ele>257</ele>
        <time>2023-07-23T06:09:25Z</time>
      </trkpt>
      <trkpt lat="44.00379" lon="1.94059">
        <ele>257</ele>
        <time>2023-07-23T06:09:26Z</time>
      </trkpt>
      <trkpt lat="44.00381" lon="1.94061">
        <ele>257.2</ele>
        <time>2023-07-23T06:09:27Z</time>
      </trkpt>
      <trkpt lat="44.00383" lon="1.94062">
        <ele>257.2</ele>
        <time>2023-07-23T06:09:28Z</time>
      </trkpt>
      <trkpt lat="44.00384" lon="1.94063">
        <ele>257.2</ele>
        <time>2023-07-23T06:09:29Z</time>
      </trkpt>
      <trkpt lat="44.00386" lon="1.94065">
        <ele>257.4</ele>
        <time>2023-07-23T06:09:30Z</time>
      </trkpt>
      <trkpt lat="44.00387" lon="1.94067">
        <ele>257.4</ele>
        <time>2023-07-23T06:09:31Z</time>
      </trkpt>
      <trkpt lat="44.00389" lon="1.94068">
        <ele>257.6</ele>
        <time>2023-07-23T06:09:32Z</time>
      </trkpt>
      <trkpt lat="44.0039" lon="1.9407">
        <ele>257.6</ele>
        <time>2023-07-23T06:09:33Z</time>
      </trkpt>
      <trkpt lat="44.00392" lon="1.94071">
        <ele>257.8</ele>
        <time>2023-07-23T06:09:34Z</time>
      </trkpt>
      <trkpt lat="44.00393" lon="1.94073">
        <ele>257.8</ele>
        <time>2023-07-23T06:09:35Z</time>
      </trkpt>
      <trkpt lat="44.00395" lon="1.94074">
        <ele>258</ele>
        <time>2023-07-23T06:09:36Z</time>
      </trkpt>
      <trkpt lat="44.00396" lon="1.94075">
        <ele>258</ele>
        <time>2023-07-23T06:09:37Z</time>
      </trkpt>
      <trkpt lat="44.00398" lon="1.94077">
        <ele>258</ele>
        <time>2023-07-23T06:09:38Z</time>
      </trkpt>
      <trkpt lat="44.004" lon="1.94079">
        <ele>258.2</ele>
        <time>2023-07-23T06:09:39Z</time>
      </trkpt>
      <trkpt lat="44.00402" lon="1.94081">
        <ele>258.2</ele>
        <time>2023-07-23T06:09:40Z</time>
      </trkpt>
      <trkpt lat="44.00403" lon="1.94082">
        <ele>258.4</ele>
        <time>2023-07-23T06:09:41Z</time>
      </trkpt>
      <trkpt lat="44.00405" lon="1.94084">
        <ele>258.4</ele>
        <time>2023-07-23T06:09:42Z</time>
      </trkpt>
      <trkpt lat="44.00408" lon="1.94086">
        <ele>258.6</ele>
        <time>2023-07-23T06:09:44Z</time>
      </trkpt>
      <trkpt lat="44.00412" lon="1.9409">
        <ele>258.8</ele>
        <time>2023-07-23T06:09:46Z</time>
      </trkpt>
      <trkpt lat="44.00422" lon="1.94099">
        <ele>259.8</ele>
        <time>2023-07-23T06:09:53Z</time>
      </trkpt>
      <trkpt lat="44.00424" lon="1.941">
        <ele>260</ele>
        <time>2023-07-23T06:09:54Z</time>
      </trkpt>
      <trkpt lat="44.00426" lon="1.94101">
        <ele>260.2</ele>
        <time>2023-07-23T06:09:55Z</time>
      </trkpt>
      <trkpt lat="44.00427" lon="1.94103">
        <ele>260.4</ele>
        <time>2023-07-23T06:09:56Z</time>
      </trkpt>
      <trkpt lat="44.00429" lon="1.94105">
        <ele>260.6</ele>
        <time>2023-07-23T06:09:57Z</time>
      </trkpt>
      <trkpt lat="44.0043" lon="1.94106">
        <ele>260.6</ele>
        <time>2023-07-23T06:09:58Z</time>
      </trkpt>
      <trkpt lat="44.00432" lon="1.94107">
        <ele>260.6</ele>
        <time>2023-07-23T06:09:59Z</time>
      </trkpt>
      <trkpt lat="44.00433" lon="1.94109">
        <ele>260.8</ele>
        <time>2023-07-23T06:10:00Z</time>
      </trkpt>
      <trkpt lat="44.00435" lon="1.9411">
        <ele>260.8</ele>
        <time>2023-07-23T06:10:01Z</time>
      </trkpt>
      <trkpt lat="44.00436" lon="1.94111">
        <ele>261</ele>
        <time>2023-07-23T06:10:02Z</time>
      </trkpt>
      <trkpt lat="44.00438" lon="1.94112">
        <ele>261.2</ele>
        <time>2023-07-23T06:10:03Z</time>
      </trkpt>
      <trkpt lat="44.00439" lon="1.94113">
        <ele>261.4</ele>
        <time>2023-07-23T06:10:04Z</time>
      </trkpt>
      <trkpt lat="44.00441" lon="1.94115">
        <ele>261.4</ele>
        <time>2023-07-23T06:10:05Z</time>
      </trkpt>
      <trkpt lat="44.00443" lon="1.94116">
        <ele>261.6</ele>
        <time>2023-07-23T06:10:06Z</time>
      </trkpt>
      <trkpt lat="44.00445" lon="1.94117">
        <ele>261.6</ele>
        <time>2023-07-23T06:10:07Z</time>
      </trkpt>
      <trkpt lat="44.00447" lon="1.94118">
        <ele>261.8</ele>
        <time>2023-07-23T06:10:08Z</time>
      </trkpt>
      <trkpt lat="44.00448" lon="1.94119">
        <ele>261.8</ele>
        <time>2023-07-23T06:10:09Z</time>
      </trkpt>
      <trkpt lat="44.0045" lon="1.9412">
        <ele>262.2</ele>
        <time>2023-07-23T06:10:10Z</time>
      </trkpt>
      <trkpt lat="44.00451" lon="1.94121">
        <ele>262.2</ele>
        <time>2023-07-23T06:10:11Z</time>
      </trkpt>
      <trkpt lat="44.00453" lon="1.94122">
        <ele>262.4</ele>
        <time>2023-07-23T06:10:12Z</time>
      </trkpt>
      <trkpt lat="44.00455" lon="1.94123">
        <ele>262.6</ele>
        <time>2023-07-23T06:10:13Z</time>
      </trkpt>
      <trkpt lat="44.00456" lon="1.94124">
        <ele>262.8</ele>
        <time>2023-07-23T06:10:14Z</time>
      </trkpt>
      <trkpt lat="44.00458" lon="1.94125">
        <ele>263</ele>
        <time>2023-07-23T06:10:15Z</time>
      </trkpt>
      <trkpt lat="44.00459" lon="1.94125">
        <ele>263.2</ele>
        <time>2023-07-23T06:10:16Z</time>
      </trkpt>
      <trkpt lat="44.0046" lon="1.94126">
        <ele>263.4</ele>
        <time>2023-07-23T06:10:17Z</time>
      </trkpt>
      <trkpt lat="44.00461" lon="1.94128">
        <ele>263.6</ele>
        <time>2023-07-23T06:10:18Z</time>
      </trkpt>
      <trkpt lat="44.00462" lon="1.9413">
        <ele>263.6</ele>
        <time>2023-07-23T06:10:19Z</time>
      </trkpt>
      <trkpt lat="44.00463" lon="1.94132">
        <ele>263.8</ele>
        <time>2023-07-23T06:10:20Z</time>
      </trkpt>
      <trkpt lat="44.00465" lon="1.94133">
        <ele>263.8</ele>
        <time>2023-07-23T06:10:21Z</time>
      </trkpt>
      <trkpt lat="44.00466" lon="1.94135">
        <ele>264</ele>
        <time>2023-07-23T06:10:22Z</time>
      </trkpt>
      <trkpt lat="44.00468" lon="1.94137">
        <ele>264</ele>
        <time>2023-07-23T06:10:23Z</time>
      </trkpt>
      <trkpt lat="44.0047" lon="1.94138">
        <ele>264.4</ele>
        <time>2023-07-23T06:10:24Z</time>
      </trkpt>
      <trkpt lat="44.00471" lon="1.9414">
        <ele>264.8</ele>
        <time>2023-07-23T06:10:25Z</time>
      </trkpt>
      <trkpt lat="44.00472" lon="1.94141">
        <ele>265</ele>
        <time>2023-07-23T06:10:26Z</time>
      </trkpt>
      <trkpt lat="44.00474" lon="1.94143">
        <ele>265.2</ele>
        <time>2023-07-23T06:10:27Z</time>
      </trkpt>
      <trkpt lat="44.00475" lon="1.94144">
        <ele>265.4</ele>
        <time>2023-07-23T06:10:28Z</time>
      </trkpt>
      <trkpt lat="44.00477" lon="1.94146">
        <ele>265.6</ele>
        <time>2023-07-23T06:10:29Z</time>
      </trkpt>
      <trkpt lat="44.00479" lon="1.94147">
        <ele>265.8</ele>
        <time>2023-07-23T06:10:30Z</time>
      </trkpt>
      <trkpt lat="44.0048" lon="1.94148">
        <ele>266.2</ele>
        <time>2023-07-23T06:10:31Z</time>
      </trkpt>
      <trkpt lat="44.00481" lon="1.94149">
        <ele>266.2</ele>
        <time>2023-07-23T06:10:32Z</time>
      </trkpt>
      <trkpt lat="44.00483" lon="1.94151">
        <ele>266.6</ele>
        <time>2023-07-23T06:10:33Z</time>
      </trkpt>
      <trkpt lat="44.00485" lon="1.94152">
        <ele>266.6</ele>
        <time>2023-07-23T06:10:34Z</time>
      </trkpt>
      <trkpt lat="44.00486" lon="1.94154">
        <ele>266.8</ele>
        <time>2023-07-23T06:10:35Z</time>
      </trkpt>
      <trkpt lat="44.00487" lon="1.94154">
        <ele>267</ele>
        <time>2023-07-23T06:10:36Z</time>
      </trkpt>
      <trkpt lat="44.00489" lon="1.94156">
        <ele>267</ele>
        <time>2023-07-23T06:10:37Z</time>
      </trkpt>
      <trkpt lat="44.00491" lon="1.94157">
        <ele>267.2</ele>
        <time>2023-07-23T06:10:38Z</time>
      </trkpt>
      <trkpt lat="44.00493" lon="1.94159">
        <ele>267.4</ele>
        <time>2023-07-23T06:10:39Z</time>
      </trkpt>
      <trkpt lat="44.00495" lon="1.9416">
        <ele>267.6</ele>
        <time>2023-07-23T06:10:40Z</time>
      </trkpt>
      <trkpt lat="44.00496" lon="1.94162">
        <ele>267.8</ele>
        <time>2023-07-23T06:10:41Z</time>
      </trkpt>
      <trkpt lat="44.00499" lon="1.94163">
        <ele>267.8</ele>
        <time>2023-07-23T06:10:42Z</time>
      </trkpt>
      <trkpt lat="44.00501" lon="1.94165">
        <ele>268</ele>
        <time>2023-07-23T06:10:43Z</time>
      </trkpt>
      <trkpt lat="44.00504" lon="1.94167">
        <ele>268</ele>
        <time>2023-07-23T06:10:44Z</time>
      </trkpt>
      <trkpt lat="44.00506" lon="1.9417">
        <ele>268</ele>
        <time>2023-07-23T06:10:45Z</time>
      </trkpt>
      <trkpt lat="44.00508" lon="1.94171">
        <ele>268.2</ele>
        <time>2023-07-23T06:10:46Z</time>
      </trkpt>
      <trkpt lat="44.00511" lon="1.94174">
        <ele>268.2</ele>
        <time>2023-07-23T06:10:47Z</time>
      </trkpt>
      <trkpt lat="44.00514" lon="1.94176">
        <ele>268.2</ele>
        <time>2023-07-23T06:10:48Z</time>
      </trkpt>
      <trkpt lat="44.00517" lon="1.94179">
        <ele>268.2</ele>
        <time>2023-07-23T06:10:49Z</time>
      </trkpt>
      <trkpt lat="44.00522" lon="1.94183">
        <ele>268</ele>
        <time>2023-07-23T06:10:50Z</time>
      </trkpt>
      <trkpt lat="44.00525" lon="1.94186">
        <ele>268</ele>
        <time>2023-07-23T06:10:51Z</time>
      </trkpt>
      <trkpt lat="44.00531" lon="1.94191">
        <ele>267.6</ele>
        <time>2023-07-23T06:10:52Z</time>
      </trkpt>
      <trkpt lat="44.00534" lon="1.94195">
        <ele>267.6</ele>
        <time>2023-07-23T06:10:53Z</time>
      </trkpt>
      <trkpt lat="44.0054" lon="1.94199">
        <ele>267.6</ele>
        <time>2023-07-23T06:10:54Z</time>
      </trkpt>
      <trkpt lat="44.00544" lon="1.94202">
        <ele>267.4</ele>
        <time>2023-07-23T06:10:55Z</time>
      </trkpt>
      <trkpt lat="44.00549" lon="1.94205">
        <ele>267.4</ele>
        <time>2023-07-23T06:10:56Z</time>
      </trkpt>
      <trkpt lat="44.00556" lon="1.94208">
        <ele>267.4</ele>
        <time>2023-07-23T06:10:57Z</time>
      </trkpt>
      <trkpt lat="44.00561" lon="1.9421">
        <ele>266.6</ele>
        <time>2023-07-23T06:10:58Z</time>
      </trkpt>
      <trkpt lat="44.0057" lon="1.94213">
        <ele>266</ele>
        <time>2023-07-23T06:11:00Z</time>
      </trkpt>
      <trkpt lat="44.0058" lon="1.94216">
        <ele>265.6</ele>
        <time>2023-07-23T06:11:02Z</time>
      </trkpt>
      <trkpt lat="44.00585" lon="1.94218">
        <ele>265.6</ele>
        <time>2023-07-23T06:11:03Z</time>
      </trkpt>
      <trkpt lat="44.00589" lon="1.94219">
        <ele>265.4</ele>
        <time>2023-07-23T06:11:04Z</time>
      </trkpt>
      <trkpt lat="44.00593" lon="1.9422">
        <ele>265.4</ele>
        <time>2023-07-23T06:11:05Z</time>
      </trkpt>
      <trkpt lat="44.00599" lon="1.94222">
        <ele>265.4</ele>
        <time>2023-07-23T06:11:06Z</time>
      </trkpt>
      <trkpt lat="44.00643" lon="1.94239">
        <ele>264.8</ele>
        <time>2023-07-23T06:11:15Z</time>
      </trkpt>
      <trkpt lat="44.0068" lon="1.94246">
        <ele>265</ele>
        <time>2023-07-23T06:11:22Z</time>
      </trkpt>
      <trkpt lat="44.00699" lon="1.94247">
        <ele>265</ele>
        <time>2023-07-23T06:11:26Z</time>
      </trkpt>
      <trkpt lat="44.00703" lon="1.94247">
        <ele>265</ele>
        <time>2023-07-23T06:11:27Z</time>
      </trkpt>
      <trkpt lat="44.00707" lon="1.94247">
        <ele>265</ele>
        <time>2023-07-23T06:11:28Z</time>
      </trkpt>
      <trkpt lat="44.00712" lon="1.94248">
        <ele>265</ele>
        <time>2023-07-23T06:11:29Z</time>
      </trkpt>
      <trkpt lat="44.00717" lon="1.94248">
        <ele>265.2</ele>
        <time>2023-07-23T06:11:30Z</time>
      </trkpt>
      <trkpt lat="44.0072" lon="1.94248">
        <ele>265.2</ele>
        <time>2023-07-23T06:11:31Z</time>
      </trkpt>
      <trkpt lat="44.00725" lon="1.94248">
        <ele>265.2</ele>
        <time>2023-07-23T06:11:32Z</time>
      </trkpt>
      <trkpt lat="44.00729" lon="1.94248">
        <ele>265.2</ele>
        <time>2023-07-23T06:11:33Z</time>
      </trkpt>
      <trkpt lat="44.00735" lon="1.94248">
        <ele>265.2</ele>
        <time>2023-07-23T06:11:34Z</time>
      </trkpt>
      <trkpt lat="44.00759" lon="1.94244">
        <ele>265.6</ele>
        <time>2023-07-23T06:11:39Z</time>
      </trkpt>
      <trkpt lat="44.0077" lon="1.94242">
        <ele>266.2</ele>
        <time>2023-07-23T06:11:42Z</time>
      </trkpt>
      <trkpt lat="44.00774" lon="1.94241">
        <ele>266.2</ele>
        <time>2023-07-23T06:11:43Z</time>
      </trkpt>
      <trkpt lat="44.00778" lon="1.9424">
        <ele>266.4</ele>
        <time>2023-07-23T06:11:44Z</time>
      </trkpt>
      <trkpt lat="44.00781" lon="1.94239">
        <ele>266.4</ele>
        <time>2023-07-23T06:11:45Z</time>
      </trkpt>
      <trkpt lat="44.00788" lon="1.94236">
        <ele>266.8</ele>
        <time>2023-07-23T06:11:47Z</time>
      </trkpt>
      <trkpt lat="44.00792" lon="1.94236">
        <ele>266.8</ele>
        <time>2023-07-23T06:11:48Z</time>
      </trkpt>
      <trkpt lat="44.00795" lon="1.94235">
        <ele>267</ele>
        <time>2023-07-23T06:11:49Z</time>
      </trkpt>
      <trkpt lat="44.00797" lon="1.94235">
        <ele>267</ele>
        <time>2023-07-23T06:11:50Z</time>
      </trkpt>
      <trkpt lat="44.008" lon="1.94235">
        <ele>267.2</ele>
        <time>2023-07-23T06:11:51Z</time>
      </trkpt>
      <trkpt lat="44.00802" lon="1.94234">
        <ele>267.2</ele>
        <time>2023-07-23T06:11:52Z</time>
      </trkpt>
      <trkpt lat="44.00805" lon="1.94233">
        <ele>267.4</ele>
        <time>2023-07-23T06:11:53Z</time>
      </trkpt>
      <trkpt lat="44.00808" lon="1.94231">
        <ele>267.6</ele>
        <time>2023-07-23T06:11:54Z</time>
      </trkpt>
      <trkpt lat="44.00823" lon="1.94222">
        <ele>268.4</ele>
        <time>2023-07-23T06:11:59Z</time>
      </trkpt>
      <trkpt lat="44.00826" lon="1.9422">
        <ele>268.6</ele>
        <time>2023-07-23T06:12:00Z</time>
      </trkpt>
      <trkpt lat="44.0083" lon="1.94217">
        <ele>268.6</ele>
        <time>2023-07-23T06:12:01Z</time>
      </trkpt>
      <trkpt lat="44.00833" lon="1.94215">
        <ele>268.8</ele>
        <time>2023-07-23T06:12:02Z</time>
      </trkpt>
      <trkpt lat="44.00836" lon="1.94212">
        <ele>268.8</ele>
        <time>2023-07-23T06:12:03Z</time>
      </trkpt>
      <trkpt lat="44.00839" lon="1.9421">
        <ele>268.8</ele>
        <time>2023-07-23T06:12:04Z</time>
      </trkpt>
      <trkpt lat="44.00842" lon="1.94208">
        <ele>268.8</ele>
        <time>2023-07-23T06:12:05Z</time>
      </trkpt>
      <trkpt lat="44.00846" lon="1.94206">
        <ele>269</ele>
        <time>2023-07-23T06:12:06Z</time>
      </trkpt>
      <trkpt lat="44.00849" lon="1.94204">
        <ele>269</ele>
        <time>2023-07-23T06:12:07Z</time>
      </trkpt>
      <trkpt lat="44.00851" lon="1.94202">
        <ele>269</ele>
        <time>2023-07-23T06:12:08Z</time>
      </trkpt>
      <trkpt lat="44.00854" lon="1.942">
        <ele>269.2</ele>
        <time>2023-07-23T06:12:09Z</time>
      </trkpt>
      <trkpt lat="44.00858" lon="1.94197">
        <ele>269.2</ele>
        <time>2023-07-23T06:12:10Z</time>
      </trkpt>
      <trkpt lat="44.00861" lon="1.94195">
        <ele>269.2</ele>
        <time>2023-07-23T06:12:11Z</time>
      </trkpt>
      <trkpt lat="44.00864" lon="1.94193">
        <ele>269.4</ele>
        <time>2023-07-23T06:12:12Z</time>
      </trkpt>
      <trkpt lat="44.00866" lon="1.94191">
        <ele>269.4</ele>
        <time>2023-07-23T06:12:13Z</time>
      </trkpt>
      <trkpt lat="44.00869" lon="1.94189">
        <ele>269.6</ele>
        <time>2023-07-23T06:12:14Z</time>
      </trkpt>
      <trkpt lat="44.00873" lon="1.94187">
        <ele>269.6</ele>
        <time>2023-07-23T06:12:15Z</time>
      </trkpt>
      <trkpt lat="44.00876" lon="1.94185">
        <ele>269.8</ele>
        <time>2023-07-23T06:12:16Z</time>
      </trkpt>
      <trkpt lat="44.00894" lon="1.94174">
        <ele>270.4</ele>
        <time>2023-07-23T06:12:22Z</time>
      </trkpt>
      <trkpt lat="44.00908" lon="1.9417">
        <ele>270.8</ele>
        <time>2023-07-23T06:12:26Z</time>
      </trkpt>
      <trkpt lat="44.00917" lon="1.94168">
        <ele>271</ele>
        <time>2023-07-23T06:12:29Z</time>
      </trkpt>
      <trkpt lat="44.00919" lon="1.94168">
        <ele>271.2</ele>
        <time>2023-07-23T06:12:30Z</time>
      </trkpt>
      <trkpt lat="44.00922" lon="1.94168">
        <ele>271.2</ele>
        <time>2023-07-23T06:12:31Z</time>
      </trkpt>
      <trkpt lat="44.00925" lon="1.94168">
        <ele>271.6</ele>
        <time>2023-07-23T06:12:32Z</time>
      </trkpt>
      <trkpt lat="44.00927" lon="1.94168">
        <ele>271.6</ele>
        <time>2023-07-23T06:12:33Z</time>
      </trkpt>
      <trkpt lat="44.00929" lon="1.94168">
        <ele>271.6</ele>
        <time>2023-07-23T06:12:34Z</time>
      </trkpt>
      <trkpt lat="44.00931" lon="1.94169">
        <ele>271.8</ele>
        <time>2023-07-23T06:12:35Z</time>
      </trkpt>
      <trkpt lat="44.00933" lon="1.94169">
        <ele>272</ele>
        <time>2023-07-23T06:12:36Z</time>
      </trkpt>
      <trkpt lat="44.00935" lon="1.9417">
        <ele>272</ele>
        <time>2023-07-23T06:12:37Z</time>
      </trkpt>
      <trkpt lat="44.00937" lon="1.94169">
        <ele>272</ele>
        <time>2023-07-23T06:12:38Z</time>
      </trkpt>
      <trkpt lat="44.00938" lon="1.94168">
        <ele>272.4</ele>
        <time>2023-07-23T06:12:39Z</time>
      </trkpt>
      <trkpt lat="44.00938" lon="1.94167">
        <ele>272.4</ele>
        <time>2023-07-23T06:12:40Z</time>
      </trkpt>
      <trkpt lat="44.00939" lon="1.94165">
        <ele>272.4</ele>
        <time>2023-07-23T06:12:41Z</time>
      </trkpt>
      <trkpt lat="44.00941" lon="1.94163">
        <ele>272.6</ele>
        <time>2023-07-23T06:12:42Z</time>
      </trkpt>
      <trkpt lat="44.00942" lon="1.94162">
        <ele>272.8</ele>
        <time>2023-07-23T06:12:43Z</time>
      </trkpt>
      <trkpt lat="44.00944" lon="1.94162">
        <ele>272.8</ele>
        <time>2023-07-23T06:12:44Z</time>
      </trkpt>
      <trkpt lat="44.00945" lon="1.94163">
        <ele>272.8</ele>
        <time>2023-07-23T06:12:45Z</time>
      </trkpt>
      <trkpt lat="44.00947" lon="1.94163">
        <ele>273</ele>
        <time>2023-07-23T06:12:46Z</time>
      </trkpt>
      <trkpt lat="44.00949" lon="1.94164">
        <ele>273</ele>
        <time>2023-07-23T06:12:47Z</time>
      </trkpt>
      <trkpt lat="44.00951" lon="1.94165">
        <ele>273.2</ele>
        <time>2023-07-23T06:12:48Z</time>
      </trkpt>
      <trkpt lat="44.00952" lon="1.94165">
        <ele>273.4</ele>
        <time>2023-07-23T06:12:49Z</time>
      </trkpt>
      <trkpt lat="44.00954" lon="1.94166">
        <ele>273.6</ele>
        <time>2023-07-23T06:12:50Z</time>
      </trkpt>
      <trkpt lat="44.00956" lon="1.94166">
        <ele>273.6</ele>
        <time>2023-07-23T06:12:51Z</time>
      </trkpt>
      <trkpt lat="44.00958" lon="1.94166">
        <ele>273.8</ele>
        <time>2023-07-23T06:12:52Z</time>
      </trkpt>
      <trkpt lat="44.0096" lon="1.94165">
        <ele>273.8</ele>
        <time>2023-07-23T06:12:53Z</time>
      </trkpt>
      <trkpt lat="44.00962" lon="1.94165">
        <ele>273.8</ele>
        <time>2023-07-23T06:12:54Z</time>
      </trkpt>
      <trkpt lat="44.00963" lon="1.94164">
        <ele>274</ele>
        <time>2023-07-23T06:12:55Z</time>
      </trkpt>
      <trkpt lat="44.00965" lon="1.94163">
        <ele>274.2</ele>
        <time>2023-07-23T06:12:56Z</time>
      </trkpt>
      <trkpt lat="44.00967" lon="1.94163">
        <ele>274.4</ele>
        <time>2023-07-23T06:12:57Z</time>
      </trkpt>
      <trkpt lat="44.00969" lon="1.94162">
        <ele>274.6</ele>
        <time>2023-07-23T06:12:58Z</time>
      </trkpt>
      <trkpt lat="44.0097" lon="1.94161">
        <ele>274.6</ele>
        <time>2023-07-23T06:12:59Z</time>
      </trkpt>
      <trkpt lat="44.00971" lon="1.9416">
        <ele>274.8</ele>
        <time>2023-07-23T06:13:00Z</time>
      </trkpt>
      <trkpt lat="44.00972" lon="1.94158">
        <ele>275</ele>
        <time>2023-07-23T06:13:01Z</time>
      </trkpt>
      <trkpt lat="44.00974" lon="1.94156">
        <ele>275.2</ele>
        <time>2023-07-23T06:13:02Z</time>
      </trkpt>
      <trkpt lat="44.00975" lon="1.94155">
        <ele>275.2</ele>
        <time>2023-07-23T06:13:03Z</time>
      </trkpt>
      <trkpt lat="44.00976" lon="1.94153">
        <ele>275.4</ele>
        <time>2023-07-23T06:13:04Z</time>
      </trkpt>
      <trkpt lat="44.00978" lon="1.9415">
        <ele>275.6</ele>
        <time>2023-07-23T06:13:05Z</time>
      </trkpt>
      <trkpt lat="44.00979" lon="1.94148">
        <ele>275.6</ele>
        <time>2023-07-23T06:13:06Z</time>
      </trkpt>
      <trkpt lat="44.0098" lon="1.94147">
        <ele>275.6</ele>
        <time>2023-07-23T06:13:07Z</time>
      </trkpt>
      <trkpt lat="44.00982" lon="1.94144">
        <ele>275.8</ele>
        <time>2023-07-23T06:13:08Z</time>
      </trkpt>
      <trkpt lat="44.00984" lon="1.94141">
        <ele>275.8</ele>
        <time>2023-07-23T06:13:09Z</time>
      </trkpt>
      <trkpt lat="44.00985" lon="1.94138">
        <ele>276</ele>
        <time>2023-07-23T06:13:10Z</time>
      </trkpt>
      <trkpt lat="44.00986" lon="1.94136">
        <ele>276.2</ele>
        <time>2023-07-23T06:13:11Z</time>
      </trkpt>
      <trkpt lat="44.00988" lon="1.94134">
        <ele>276.2</ele>
        <time>2023-07-23T06:13:12Z</time>
      </trkpt>
      <trkpt lat="44.0099" lon="1.94131">
        <ele>276</ele>
        <time>2023-07-23T06:13:13Z</time>
      </trkpt>
      <trkpt lat="44.00992" lon="1.94128">
        <ele>276.4</ele>
        <time>2023-07-23T06:13:14Z</time>
      </trkpt>
      <trkpt lat="44.00993" lon="1.94126">
        <ele>276.4</ele>
        <time>2023-07-23T06:13:15Z</time>
      </trkpt>
      <trkpt lat="44.00995" lon="1.94123">
        <ele>276.4</ele>
        <time>2023-07-23T06:13:16Z</time>
      </trkpt>
      <trkpt lat="44.00996" lon="1.94121">
        <ele>276.4</ele>
        <time>2023-07-23T06:13:17Z</time>
      </trkpt>
      <trkpt lat="44.00998" lon="1.94118">
        <ele>276.6</ele>
        <time>2023-07-23T06:13:18Z</time>
      </trkpt>
      <trkpt lat="44.01" lon="1.94115">
        <ele>276.6</ele>
        <time>2023-07-23T06:13:19Z</time>
      </trkpt>
      <trkpt lat="44.01001" lon="1.94113">
        <ele>276.6</ele>
        <time>2023-07-23T06:13:20Z</time>
      </trkpt>
      <trkpt lat="44.01003" lon="1.94111">
        <ele>276.6</ele>
        <time>2023-07-23T06:13:21Z</time>
      </trkpt>
      <trkpt lat="44.01004" lon="1.94108">
        <ele>276.6</ele>
        <time>2023-07-23T06:13:22Z</time>
      </trkpt>
      <trkpt lat="44.01006" lon="1.94105">
        <ele>276.6</ele>
        <time>2023-07-23T06:13:23Z</time>
      </trkpt>
      <trkpt lat="44.01022" lon="1.94078">
        <ele>276.6</ele>
        <time>2023-07-23T06:13:32Z</time>
      </trkpt>
      <trkpt lat="44.01032" lon="1.94064">
        <ele>276.4</ele>
        <time>2023-07-23T06:13:36Z</time>
      </trkpt>
      <trkpt lat="44.01043" lon="1.94045">
        <ele>275.4</ele>
        <time>2023-07-23T06:13:41Z</time>
      </trkpt>
      <trkpt lat="44.01047" lon="1.94037">
        <ele>274.8</ele>
        <time>2023-07-23T06:13:43Z</time>
      </trkpt>
      <trkpt lat="44.01054" lon="1.94023">
        <ele>273.4</ele>
        <time>2023-07-23T06:13:46Z</time>
      </trkpt>
      <trkpt lat="44.01061" lon="1.9401">
        <ele>272.8</ele>
        <time>2023-07-23T06:13:49Z</time>
      </trkpt>
      <trkpt lat="44.01068" lon="1.93996">
        <ele>272.2</ele>
        <time>2023-07-23T06:13:52Z</time>
      </trkpt>
      <trkpt lat="44.01072" lon="1.93989">
        <ele>271.2</ele>
        <time>2023-07-23T06:13:54Z</time>
      </trkpt>
      <trkpt lat="44.01075" lon="1.93981">
        <ele>270.6</ele>
        <time>2023-07-23T06:13:56Z</time>
      </trkpt>
      <trkpt lat="44.01077" lon="1.93977">
        <ele>270</ele>
        <time>2023-07-23T06:13:57Z</time>
      </trkpt>
      <trkpt lat="44.01078" lon="1.93974">
        <ele>270</ele>
        <time>2023-07-23T06:13:58Z</time>
      </trkpt>
      <trkpt lat="44.01079" lon="1.93971">
        <ele>269.6</ele>
        <time>2023-07-23T06:13:59Z</time>
      </trkpt>
      <trkpt lat="44.01081" lon="1.93968">
        <ele>269.4</ele>
        <time>2023-07-23T06:14:00Z</time>
      </trkpt>
      <trkpt lat="44.01083" lon="1.93964">
        <ele>269.4</ele>
        <time>2023-07-23T06:14:01Z</time>
      </trkpt>
      <trkpt lat="44.01084" lon="1.9396">
        <ele>269.2</ele>
        <time>2023-07-23T06:14:02Z</time>
      </trkpt>
      <trkpt lat="44.01086" lon="1.93957">
        <ele>269.2</ele>
        <time>2023-07-23T06:14:03Z</time>
      </trkpt>
      <trkpt lat="44.01087" lon="1.93953">
        <ele>269</ele>
        <time>2023-07-23T06:14:04Z</time>
      </trkpt>
      <trkpt lat="44.01088" lon="1.9395">
        <ele>269</ele>
        <time>2023-07-23T06:14:05Z</time>
      </trkpt>
      <trkpt lat="44.0109" lon="1.93947">
        <ele>268.6</ele>
        <time>2023-07-23T06:14:06Z</time>
      </trkpt>
      <trkpt lat="44.01091" lon="1.93945">
        <ele>268.6</ele>
        <time>2023-07-23T06:14:07Z</time>
      </trkpt>
      <trkpt lat="44.01092" lon="1.93942">
        <ele>268.4</ele>
        <time>2023-07-23T06:14:08Z</time>
      </trkpt>
      <trkpt lat="44.01094" lon="1.93938">
        <ele>268</ele>
        <time>2023-07-23T06:14:09Z</time>
      </trkpt>
      <trkpt lat="44.01095" lon="1.93935">
        <ele>268</ele>
        <time>2023-07-23T06:14:10Z</time>
      </trkpt>
      <trkpt lat="44.01096" lon="1.93932">
        <ele>267.8</ele>
        <time>2023-07-23T06:14:11Z</time>
      </trkpt>
      <trkpt lat="44.01097" lon="1.9393">
        <ele>267.8</ele>
        <time>2023-07-23T06:14:12Z</time>
      </trkpt>
      <trkpt lat="44.01098" lon="1.93926">
        <ele>267.8</ele>
        <time>2023-07-23T06:14:13Z</time>
      </trkpt>
      <trkpt lat="44.01099" lon="1.93923">
        <ele>267.6</ele>
        <time>2023-07-23T06:14:14Z</time>
      </trkpt>
      <trkpt lat="44.01109" lon="1.93895">
        <ele>267.2</ele>
        <time>2023-07-23T06:14:22Z</time>
      </trkpt>
      <trkpt lat="44.01117" lon="1.93869">
        <ele>266.6</ele>
        <time>2023-07-23T06:14:29Z</time>
      </trkpt>
      <trkpt lat="44.01118" lon="1.93862">
        <ele>266.4</ele>
        <time>2023-07-23T06:14:31Z</time>
      </trkpt>
      <trkpt lat="44.01119" lon="1.93858">
        <ele>266.4</ele>
        <time>2023-07-23T06:14:32Z</time>
      </trkpt>
      <trkpt lat="44.01121" lon="1.93854">
        <ele>266.2</ele>
        <time>2023-07-23T06:14:33Z</time>
      </trkpt>
      <trkpt lat="44.01122" lon="1.9385">
        <ele>266.2</ele>
        <time>2023-07-23T06:14:34Z</time>
      </trkpt>
      <trkpt lat="44.01123" lon="1.93848">
        <ele>266.2</ele>
        <time>2023-07-23T06:14:35Z</time>
      </trkpt>
      <trkpt lat="44.01124" lon="1.93844">
        <ele>266</ele>
        <time>2023-07-23T06:14:36Z</time>
      </trkpt>
      <trkpt lat="44.01125" lon="1.9384">
        <ele>266</ele>
        <time>2023-07-23T06:14:37Z</time>
      </trkpt>
      <trkpt lat="44.01126" lon="1.93838">
        <ele>265.8</ele>
        <time>2023-07-23T06:14:38Z</time>
      </trkpt>
      <trkpt lat="44.01127" lon="1.93834">
        <ele>265.8</ele>
        <time>2023-07-23T06:14:39Z</time>
      </trkpt>
      <trkpt lat="44.01129" lon="1.93827">
        <ele>265.8</ele>
        <time>2023-07-23T06:14:41Z</time>
      </trkpt>
      <trkpt lat="44.01135" lon="1.93803">
        <ele>265.6</ele>
        <time>2023-07-23T06:14:47Z</time>
      </trkpt>
      <trkpt lat="44.01138" lon="1.93789">
        <ele>265.2</ele>
        <time>2023-07-23T06:14:51Z</time>
      </trkpt>
      <trkpt lat="44.0114" lon="1.93785">
        <ele>265.2</ele>
        <time>2023-07-23T06:14:53Z</time>
      </trkpt>
      <trkpt lat="44.01141" lon="1.93783">
        <ele>265</ele>
        <time>2023-07-23T06:14:54Z</time>
      </trkpt>
      <trkpt lat="44.01142" lon="1.93781">
        <ele>265</ele>
        <time>2023-07-23T06:14:55Z</time>
      </trkpt>
      <trkpt lat="44.01142" lon="1.93779">
        <ele>264.8</ele>
        <time>2023-07-23T06:14:56Z</time>
      </trkpt>
      <trkpt lat="44.01143" lon="1.93778">
        <ele>264.8</ele>
        <time>2023-07-23T06:14:57Z</time>
      </trkpt>
      <trkpt lat="44.01144" lon="1.93777">
        <ele>264.8</ele>
        <time>2023-07-23T06:14:58Z</time>
      </trkpt>
      <trkpt lat="44.01145" lon="1.93775">
        <ele>264.6</ele>
        <time>2023-07-23T06:14:59Z</time>
      </trkpt>
      <trkpt lat="44.01148" lon="1.9377">
        <ele>264.4</ele>
        <time>2023-07-23T06:15:02Z</time>
      </trkpt>
      <trkpt lat="44.0115" lon="1.93769">
        <ele>264.4</ele>
        <time>2023-07-23T06:15:03Z</time>
      </trkpt>
      <trkpt lat="44.01152" lon="1.93768">
        <ele>264.2</ele>
        <time>2023-07-23T06:15:04Z</time>
      </trkpt>
      <trkpt lat="44.01153" lon="1.93768">
        <ele>264.2</ele>
        <time>2023-07-23T06:15:05Z</time>
      </trkpt>
      <trkpt lat="44.01155" lon="1.93768">
        <ele>264.2</ele>
        <time>2023-07-23T06:15:06Z</time>
      </trkpt>
      <trkpt lat="44.01156" lon="1.93767">
        <ele>264.2</ele>
        <time>2023-07-23T06:15:07Z</time>
      </trkpt>
      <trkpt lat="44.01162" lon="1.93765">
        <ele>264.2</ele>
        <time>2023-07-23T06:15:11Z</time>
      </trkpt>
      <trkpt lat="44.01164" lon="1.93764">
        <ele>264.2</ele>
        <time>2023-07-23T06:15:12Z</time>
      </trkpt>
      <trkpt lat="44.0117" lon="1.9376">
        <ele>264.4</ele>
        <time>2023-07-23T06:15:16Z</time>
      </trkpt>
      <trkpt lat="44.01193" lon="1.93748">
        <ele>264.6</ele>
        <time>2023-07-23T06:15:27Z</time>
      </trkpt>
      <trkpt lat="44.01209" lon="1.93743">
        <ele>264.4</ele>
        <time>2023-07-23T06:15:34Z</time>
      </trkpt>
      <trkpt lat="44.01219" lon="1.93745">
        <ele>264</ele>
        <time>2023-07-23T06:15:39Z</time>
      </trkpt>
      <trkpt lat="44.01221" lon="1.93747">
        <ele>263.8</ele>
        <time>2023-07-23T06:15:40Z</time>
      </trkpt>
      <trkpt lat="44.01222" lon="1.9375">
        <ele>263.6</ele>
        <time>2023-07-23T06:15:41Z</time>
      </trkpt>
      <trkpt lat="44.01223" lon="1.93752">
        <ele>263.6</ele>
        <time>2023-07-23T06:15:42Z</time>
      </trkpt>
      <trkpt lat="44.01224" lon="1.93754">
        <ele>263.4</ele>
        <time>2023-07-23T06:15:43Z</time>
      </trkpt>
      <trkpt lat="44.01224" lon="1.93757">
        <ele>263.4</ele>
        <time>2023-07-23T06:15:44Z</time>
      </trkpt>
      <trkpt lat="44.01224" lon="1.9376">
        <ele>263.2</ele>
        <time>2023-07-23T06:15:45Z</time>
      </trkpt>
      <trkpt lat="44.01223" lon="1.93763">
        <ele>263.2</ele>
        <time>2023-07-23T06:15:46Z</time>
      </trkpt>
      <trkpt lat="44.01222" lon="1.93765">
        <ele>263.4</ele>
        <time>2023-07-23T06:15:47Z</time>
      </trkpt>
      <trkpt lat="44.01221" lon="1.93767">
        <ele>263.4</ele>
        <time>2023-07-23T06:15:48Z</time>
      </trkpt>
      <trkpt lat="44.0122" lon="1.9377">
        <ele>263.2</ele>
        <time>2023-07-23T06:15:49Z</time>
      </trkpt>
      <trkpt lat="44.01219" lon="1.93773">
        <ele>263.2</ele>
        <time>2023-07-23T06:15:50Z</time>
      </trkpt>
      <trkpt lat="44.01219" lon="1.93776">
        <ele>263.4</ele>
        <time>2023-07-23T06:15:51Z</time>
      </trkpt>
      <trkpt lat="44.01216" lon="1.93787">
        <ele>263.6</ele>
        <time>2023-07-23T06:15:55Z</time>
      </trkpt>
      <trkpt lat="44.01213" lon="1.938">
        <ele>263.8</ele>
        <time>2023-07-23T06:15:59Z</time>
      </trkpt>
      <trkpt lat="44.01203" lon="1.93829">
        <ele>263.8</ele>
        <time>2023-07-23T06:16:08Z</time>
      </trkpt>
      <trkpt lat="44.01195" lon="1.93853">
        <ele>264.2</ele>
        <time>2023-07-23T06:16:15Z</time>
      </trkpt>
      <trkpt lat="44.01194" lon="1.93856">
        <ele>264.2</ele>
        <time>2023-07-23T06:16:16Z</time>
      </trkpt>
      <trkpt lat="44.01193" lon="1.9386">
        <ele>264.4</ele>
        <time>2023-07-23T06:16:17Z</time>
      </trkpt>
      <trkpt lat="44.01191" lon="1.93865">
        <ele>264.6</ele>
        <time>2023-07-23T06:16:19Z</time>
      </trkpt>
      <trkpt lat="44.01191" lon="1.93867">
        <ele>264.6</ele>
        <time>2023-07-23T06:16:20Z</time>
      </trkpt>
      <trkpt lat="44.01188" lon="1.93876">
        <ele>264.6</ele>
        <time>2023-07-23T06:16:23Z</time>
      </trkpt>
      <trkpt lat="44.01188" lon="1.93877">
        <ele>264.6</ele>
        <time>2023-07-23T06:16:24Z</time>
      </trkpt>
      <trkpt lat="44.01188" lon="1.9388">
        <ele>264.6</ele>
        <time>2023-07-23T06:16:25Z</time>
      </trkpt>
      <trkpt lat="44.01187" lon="1.93883">
        <ele>264.6</ele>
        <time>2023-07-23T06:16:26Z</time>
      </trkpt>
      <trkpt lat="44.01186" lon="1.93886">
        <ele>264.6</ele>
        <time>2023-07-23T06:16:27Z</time>
      </trkpt>
      <trkpt lat="44.01185" lon="1.9389">
        <ele>264.6</ele>
        <time>2023-07-23T06:16:28Z</time>
      </trkpt>
      <trkpt lat="44.01185" lon="1.93892">
        <ele>264.6</ele>
        <time>2023-07-23T06:16:29Z</time>
      </trkpt>
      <trkpt lat="44.01182" lon="1.93903">
        <ele>264.8</ele>
        <time>2023-07-23T06:16:32Z</time>
      </trkpt>
      <trkpt lat="44.01178" lon="1.93917">
        <ele>265</ele>
        <time>2023-07-23T06:16:37Z</time>
      </trkpt>
      <trkpt lat="44.01175" lon="1.93921">
        <ele>265.2</ele>
        <time>2023-07-23T06:16:39Z</time>
      </trkpt>
      <trkpt lat="44.01173" lon="1.93922">
        <ele>265.2</ele>
        <time>2023-07-23T06:16:40Z</time>
      </trkpt>
      <trkpt lat="44.01171" lon="1.93921">
        <ele>265.2</ele>
        <time>2023-07-23T06:16:41Z</time>
      </trkpt>
      <trkpt lat="44.0117" lon="1.9392">
        <ele>265.2</ele>
        <time>2023-07-23T06:16:42Z</time>
      </trkpt>
      <trkpt lat="44.01163" lon="1.93915">
        <ele>265.2</ele>
        <time>2023-07-23T06:16:45Z</time>
      </trkpt>
      <trkpt lat="44.01161" lon="1.93914">
        <ele>265.4</ele>
        <time>2023-07-23T06:16:46Z</time>
      </trkpt>
      <trkpt lat="44.01142" lon="1.93901">
        <ele>265.8</ele>
        <time>2023-07-23T06:16:55Z</time>
      </trkpt>
      <trkpt lat="44.01139" lon="1.93899">
        <ele>266</ele>
        <time>2023-07-23T06:16:57Z</time>
      </trkpt>
      <trkpt lat="44.01121" lon="1.93889">
        <ele>266.6</ele>
        <time>2023-07-23T06:17:05Z</time>
      </trkpt>
      <trkpt lat="44.01111" lon="1.93888">
        <ele>266.4</ele>
        <time>2023-07-23T06:17:09Z</time>
      </trkpt>
      <trkpt lat="44.01109" lon="1.93889">
        <ele>266.4</ele>
        <time>2023-07-23T06:17:10Z</time>
      </trkpt>
      <trkpt lat="44.01108" lon="1.93891">
        <ele>266.4</ele>
        <time>2023-07-23T06:17:11Z</time>
      </trkpt>
      <trkpt lat="44.01104" lon="1.93899">
        <ele>266.4</ele>
        <time>2023-07-23T06:17:14Z</time>
      </trkpt>
      <trkpt lat="44.01103" lon="1.93901">
        <ele>266.4</ele>
        <time>2023-07-23T06:17:15Z</time>
      </trkpt>
      <trkpt lat="44.01102" lon="1.93904">
        <ele>266.4</ele>
        <time>2023-07-23T06:17:16Z</time>
      </trkpt>
      <trkpt lat="44.01101" lon="1.93906">
        <ele>266.4</ele>
        <time>2023-07-23T06:17:17Z</time>
      </trkpt>
      <trkpt lat="44.011" lon="1.93909">
        <ele>266.4</ele>
        <time>2023-07-23T06:17:18Z</time>
      </trkpt>
      <trkpt lat="44.011" lon="1.93912">
        <ele>266.6</ele>
        <time>2023-07-23T06:17:19Z</time>
      </trkpt>
      <trkpt lat="44.01099" lon="1.93914">
        <ele>266.6</ele>
        <time>2023-07-23T06:17:20Z</time>
      </trkpt>
      <trkpt lat="44.01098" lon="1.93917">
        <ele>266.8</ele>
        <time>2023-07-23T06:17:21Z</time>
      </trkpt>
      <trkpt lat="44.01097" lon="1.9392">
        <ele>266.8</ele>
        <time>2023-07-23T06:17:22Z</time>
      </trkpt>
      <trkpt lat="44.01096" lon="1.93922">
        <ele>266.8</ele>
        <time>2023-07-23T06:17:23Z</time>
      </trkpt>
      <trkpt lat="44.01096" lon="1.93924">
        <ele>266.8</ele>
        <time>2023-07-23T06:17:24Z</time>
      </trkpt>
      <trkpt lat="44.01094" lon="1.93928">
        <ele>267</ele>
        <time>2023-07-23T06:17:25Z</time>
      </trkpt>
      <trkpt lat="44.01093" lon="1.9393">
        <ele>267.2</ele>
        <time>2023-07-23T06:17:26Z</time>
      </trkpt>
      <trkpt lat="44.01086" lon="1.93951">
        <ele>267.4</ele>
        <time>2023-07-23T06:17:34Z</time>
      </trkpt>
      <trkpt lat="44.01084" lon="1.93956">
        <ele>267.6</ele>
        <time>2023-07-23T06:17:36Z</time>
      </trkpt>
      <trkpt lat="44.01083" lon="1.93959">
        <ele>267.6</ele>
        <time>2023-07-23T06:17:37Z</time>
      </trkpt>
      <trkpt lat="44.01082" lon="1.93961">
        <ele>267.6</ele>
        <time>2023-07-23T06:17:38Z</time>
      </trkpt>
      <trkpt lat="44.01079" lon="1.93971">
        <ele>268</ele>
        <time>2023-07-23T06:17:42Z</time>
      </trkpt>
      <trkpt lat="44.01078" lon="1.93973">
        <ele>268</ele>
        <time>2023-07-23T06:17:43Z</time>
      </trkpt>
      <trkpt lat="44.01076" lon="1.93976">
        <ele>268.2</ele>
        <time>2023-07-23T06:17:44Z</time>
      </trkpt>
      <trkpt lat="44.01075" lon="1.93979">
        <ele>268.2</ele>
        <time>2023-07-23T06:17:45Z</time>
      </trkpt>
      <trkpt lat="44.01064" lon="1.94007">
        <ele>269.2</ele>
        <time>2023-07-23T06:17:55Z</time>
      </trkpt>
      <trkpt lat="44.01051" lon="1.94029">
        <ele>270</ele>
        <time>2023-07-23T06:18:03Z</time>
      </trkpt>
      <trkpt lat="44.0105" lon="1.94032">
        <ele>270.2</ele>
        <time>2023-07-23T06:18:04Z</time>
      </trkpt>
      <trkpt lat="44.01049" lon="1.94034">
        <ele>270.4</ele>
        <time>2023-07-23T06:18:05Z</time>
      </trkpt>
      <trkpt lat="44.01046" lon="1.94042">
        <ele>271</ele>
        <time>2023-07-23T06:18:08Z</time>
      </trkpt>
      <trkpt lat="44.01045" lon="1.94044">
        <ele>271.2</ele>
        <time>2023-07-23T06:18:09Z</time>
      </trkpt>
      <trkpt lat="44.01044" lon="1.94046">
        <ele>271.2</ele>
        <time>2023-07-23T06:18:10Z</time>
      </trkpt>
      <trkpt lat="44.01043" lon="1.94049">
        <ele>271.6</ele>
        <time>2023-07-23T06:18:11Z</time>
      </trkpt>
      <trkpt lat="44.01041" lon="1.94051">
        <ele>271.8</ele>
        <time>2023-07-23T06:18:12Z</time>
      </trkpt>
      <trkpt lat="44.0104" lon="1.94054">
        <ele>272.2</ele>
        <time>2023-07-23T06:18:13Z</time>
      </trkpt>
      <trkpt lat="44.01039" lon="1.94056">
        <ele>272.6</ele>
        <time>2023-07-23T06:18:14Z</time>
      </trkpt>
      <trkpt lat="44.01037" lon="1.94059">
        <ele>273</ele>
        <time>2023-07-23T06:18:15Z</time>
      </trkpt>
      <trkpt lat="44.01036" lon="1.94061">
        <ele>273.2</ele>
        <time>2023-07-23T06:18:16Z</time>
      </trkpt>
      <trkpt lat="44.01034" lon="1.94064">
        <ele>273.4</ele>
        <time>2023-07-23T06:18:17Z</time>
      </trkpt>
      <trkpt lat="44.01033" lon="1.94066">
        <ele>273.6</ele>
        <time>2023-07-23T06:18:18Z</time>
      </trkpt>
      <trkpt lat="44.01032" lon="1.94068">
        <ele>273.8</ele>
        <time>2023-07-23T06:18:19Z</time>
      </trkpt>
      <trkpt lat="44.0103" lon="1.9407">
        <ele>274</ele>
        <time>2023-07-23T06:18:20Z</time>
      </trkpt>
      <trkpt lat="44.01028" lon="1.94073">
        <ele>274.2</ele>
        <time>2023-07-23T06:18:21Z</time>
      </trkpt>
      <trkpt lat="44.01026" lon="1.94075">
        <ele>274.2</ele>
        <time>2023-07-23T06:18:22Z</time>
      </trkpt>
      <trkpt lat="44.01025" lon="1.94077">
        <ele>274.6</ele>
        <time>2023-07-23T06:18:23Z</time>
      </trkpt>
      <trkpt lat="44.01023" lon="1.94079">
        <ele>274.8</ele>
        <time>2023-07-23T06:18:24Z</time>
      </trkpt>
      <trkpt lat="44.01022" lon="1.94081">
        <ele>275.2</ele>
        <time>2023-07-23T06:18:25Z</time>
      </trkpt>
      <trkpt lat="44.0102" lon="1.94084">
        <ele>275.4</ele>
        <time>2023-07-23T06:18:26Z</time>
      </trkpt>
      <trkpt lat="44.01018" lon="1.94087">
        <ele>275.6</ele>
        <time>2023-07-23T06:18:27Z</time>
      </trkpt>
      <trkpt lat="44.01016" lon="1.94089">
        <ele>275.8</ele>
        <time>2023-07-23T06:18:28Z</time>
      </trkpt>
      <trkpt lat="44.01015" lon="1.94091">
        <ele>276</ele>
        <time>2023-07-23T06:18:29Z</time>
      </trkpt>
      <trkpt lat="44.01013" lon="1.94094">
        <ele>276.2</ele>
        <time>2023-07-23T06:18:30Z</time>
      </trkpt>
      <trkpt lat="44.01012" lon="1.94096">
        <ele>276.4</ele>
        <time>2023-07-23T06:18:31Z</time>
      </trkpt>
      <trkpt lat="44.01011" lon="1.94097">
        <ele>276.6</ele>
        <time>2023-07-23T06:18:32Z</time>
      </trkpt>
      <trkpt lat="44.01009" lon="1.941">
        <ele>276.6</ele>
        <time>2023-07-23T06:18:33Z</time>
      </trkpt>
      <trkpt lat="44.01008" lon="1.94102">
        <ele>276.8</ele>
        <time>2023-07-23T06:18:34Z</time>
      </trkpt>
      <trkpt lat="44.01006" lon="1.94105">
        <ele>277</ele>
        <time>2023-07-23T06:18:35Z</time>
      </trkpt>
      <trkpt lat="44.01004" lon="1.94108">
        <ele>277</ele>
        <time>2023-07-23T06:18:36Z</time>
      </trkpt>
      <trkpt lat="44.01003" lon="1.9411">
        <ele>277.2</ele>
        <time>2023-07-23T06:18:37Z</time>
      </trkpt>
      <trkpt lat="44.01001" lon="1.94113">
        <ele>277.4</ele>
        <time>2023-07-23T06:18:38Z</time>
      </trkpt>
      <trkpt lat="44.01" lon="1.94116">
        <ele>277.4</ele>
        <time>2023-07-23T06:18:39Z</time>
      </trkpt>
      <trkpt lat="44.00998" lon="1.94118">
        <ele>277.6</ele>
        <time>2023-07-23T06:18:40Z</time>
      </trkpt>
      <trkpt lat="44.00995" lon="1.94121">
        <ele>277.6</ele>
        <time>2023-07-23T06:18:41Z</time>
      </trkpt>
      <trkpt lat="44.00994" lon="1.94124">
        <ele>277.8</ele>
        <time>2023-07-23T06:18:42Z</time>
      </trkpt>
      <trkpt lat="44.00992" lon="1.94126">
        <ele>277.8</ele>
        <time>2023-07-23T06:18:43Z</time>
      </trkpt>
      <trkpt lat="44.0099" lon="1.9413">
        <ele>277.8</ele>
        <time>2023-07-23T06:18:44Z</time>
      </trkpt>
      <trkpt lat="44.00988" lon="1.94133">
        <ele>277.8</ele>
        <time>2023-07-23T06:18:45Z</time>
      </trkpt>
      <trkpt lat="44.00986" lon="1.94136">
        <ele>277.8</ele>
        <time>2023-07-23T06:18:46Z</time>
      </trkpt>
      <trkpt lat="44.00984" lon="1.94139">
        <ele>278</ele>
        <time>2023-07-23T06:18:47Z</time>
      </trkpt>
      <trkpt lat="44.00982" lon="1.94142">
        <ele>278</ele>
        <time>2023-07-23T06:18:48Z</time>
      </trkpt>
      <trkpt lat="44.0098" lon="1.94145">
        <ele>278</ele>
        <time>2023-07-23T06:18:49Z</time>
      </trkpt>
      <trkpt lat="44.00977" lon="1.94149">
        <ele>278</ele>
        <time>2023-07-23T06:18:50Z</time>
      </trkpt>
      <trkpt lat="44.00975" lon="1.94152">
        <ele>278</ele>
        <time>2023-07-23T06:18:51Z</time>
      </trkpt>
      <trkpt lat="44.00973" lon="1.94155">
        <ele>278</ele>
        <time>2023-07-23T06:18:52Z</time>
      </trkpt>
      <trkpt lat="44.00971" lon="1.94157">
        <ele>278</ele>
        <time>2023-07-23T06:18:53Z</time>
      </trkpt>
      <trkpt lat="44.00967" lon="1.94161">
        <ele>278</ele>
        <time>2023-07-23T06:18:54Z</time>
      </trkpt>
      <trkpt lat="44.00964" lon="1.94164">
        <ele>278</ele>
        <time>2023-07-23T06:18:55Z</time>
      </trkpt>
      <trkpt lat="44.00961" lon="1.94165">
        <ele>278</ele>
        <time>2023-07-23T06:18:56Z</time>
      </trkpt>
      <trkpt lat="44.00957" lon="1.94166">
        <ele>278</ele>
        <time>2023-07-23T06:18:57Z</time>
      </trkpt>
      <trkpt lat="44.00953" lon="1.94166">
        <ele>278</ele>
        <time>2023-07-23T06:18:58Z</time>
      </trkpt>
      <trkpt lat="44.00949" lon="1.94165">
        <ele>277.8</ele>
        <time>2023-07-23T06:18:59Z</time>
      </trkpt>
      <trkpt lat="44.00944" lon="1.94164">
        <ele>277.8</ele>
        <time>2023-07-23T06:19:00Z</time>
      </trkpt>
      <trkpt lat="44.00942" lon="1.94164">
        <ele>277.2</ele>
        <time>2023-07-23T06:19:01Z</time>
      </trkpt>
      <trkpt lat="44.00939" lon="1.94163">
        <ele>277</ele>
        <time>2023-07-23T06:19:02Z</time>
      </trkpt>
      <trkpt lat="44.00937" lon="1.94163">
        <ele>276.6</ele>
        <time>2023-07-23T06:19:03Z</time>
      </trkpt>
      <trkpt lat="44.00936" lon="1.94165">
        <ele>276.4</ele>
        <time>2023-07-23T06:19:04Z</time>
      </trkpt>
      <trkpt lat="44.00937" lon="1.94166">
        <ele>276</ele>
        <time>2023-07-23T06:19:05Z</time>
      </trkpt>
      <trkpt lat="44.00938" lon="1.94168">
        <ele>275.6</ele>
        <time>2023-07-23T06:19:06Z</time>
      </trkpt>
      <trkpt lat="44.00948" lon="1.94171">
        <ele>274.6</ele>
        <time>2023-07-23T06:19:10Z</time>
      </trkpt>
      <trkpt lat="44.00954" lon="1.94173">
        <ele>274.2</ele>
        <time>2023-07-23T06:19:13Z</time>
      </trkpt>
      <trkpt lat="44.00956" lon="1.94174">
        <ele>274</ele>
        <time>2023-07-23T06:19:14Z</time>
      </trkpt>
      <trkpt lat="44.00961" lon="1.94176">
        <ele>274</ele>
        <time>2023-07-23T06:19:16Z</time>
      </trkpt>
      <trkpt lat="44.00979" lon="1.94181">
        <ele>274</ele>
        <time>2023-07-23T06:19:22Z</time>
      </trkpt>
      <trkpt lat="44.00982" lon="1.94182">
        <ele>274.2</ele>
        <time>2023-07-23T06:19:23Z</time>
      </trkpt>
      <trkpt lat="44.0101" lon="1.94191">
        <ele>274.2</ele>
        <time>2023-07-23T06:19:31Z</time>
      </trkpt>
      <trkpt lat="44.01034" lon="1.94201">
        <ele>274.4</ele>
        <time>2023-07-23T06:19:37Z</time>
      </trkpt>
      <trkpt lat="44.01048" lon="1.94209">
        <ele>274.4</ele>
        <time>2023-07-23T06:19:41Z</time>
      </trkpt>
      <trkpt lat="44.01069" lon="1.9422">
        <ele>274.4</ele>
        <time>2023-07-23T06:19:46Z</time>
      </trkpt>
      <trkpt lat="44.01079" lon="1.94227">
        <ele>274.4</ele>
        <time>2023-07-23T06:19:49Z</time>
      </trkpt>
      <trkpt lat="44.01101" lon="1.94241">
        <ele>274.4</ele>
        <time>2023-07-23T06:19:55Z</time>
      </trkpt>
      <trkpt lat="44.01105" lon="1.94243">
        <ele>274.6</ele>
        <time>2023-07-23T06:19:56Z</time>
      </trkpt>
      <trkpt lat="44.01108" lon="1.94245">
        <ele>274.6</ele>
        <time>2023-07-23T06:19:57Z</time>
      </trkpt>
      <trkpt lat="44.01142" lon="1.94267">
        <ele>275</ele>
        <time>2023-07-23T06:20:06Z</time>
      </trkpt>
      <trkpt lat="44.01166" lon="1.94286">
        <ele>275.4</ele>
        <time>2023-07-23T06:20:13Z</time>
      </trkpt>
      <trkpt lat="44.0117" lon="1.9429">
        <ele>275.4</ele>
        <time>2023-07-23T06:20:14Z</time>
      </trkpt>
      <trkpt lat="44.01173" lon="1.94294">
        <ele>275.4</ele>
        <time>2023-07-23T06:20:15Z</time>
      </trkpt>
      <trkpt lat="44.01176" lon="1.94297">
        <ele>275.4</ele>
        <time>2023-07-23T06:20:16Z</time>
      </trkpt>
      <trkpt lat="44.01178" lon="1.943">
        <ele>275.8</ele>
        <time>2023-07-23T06:20:17Z</time>
      </trkpt>
      <trkpt lat="44.01181" lon="1.94304">
        <ele>275.8</ele>
        <time>2023-07-23T06:20:18Z</time>
      </trkpt>
      <trkpt lat="44.01184" lon="1.94308">
        <ele>276</ele>
        <time>2023-07-23T06:20:19Z</time>
      </trkpt>
      <trkpt lat="44.01189" lon="1.94315">
        <ele>276.2</ele>
        <time>2023-07-23T06:20:21Z</time>
      </trkpt>
      <trkpt lat="44.01191" lon="1.94317">
        <ele>276.4</ele>
        <time>2023-07-23T06:20:22Z</time>
      </trkpt>
      <trkpt lat="44.01193" lon="1.94321">
        <ele>276.6</ele>
        <time>2023-07-23T06:20:23Z</time>
      </trkpt>
      <trkpt lat="44.01197" lon="1.94325">
        <ele>276.8</ele>
        <time>2023-07-23T06:20:24Z</time>
      </trkpt>
      <trkpt lat="44.01199" lon="1.94328">
        <ele>276.8</ele>
        <time>2023-07-23T06:20:25Z</time>
      </trkpt>
      <trkpt lat="44.01201" lon="1.94331">
        <ele>277</ele>
        <time>2023-07-23T06:20:26Z</time>
      </trkpt>
      <trkpt lat="44.01203" lon="1.94335">
        <ele>277.2</ele>
        <time>2023-07-23T06:20:27Z</time>
      </trkpt>
      <trkpt lat="44.01206" lon="1.94339">
        <ele>277.4</ele>
        <time>2023-07-23T06:20:28Z</time>
      </trkpt>
      <trkpt lat="44.01208" lon="1.94342">
        <ele>277.6</ele>
        <time>2023-07-23T06:20:29Z</time>
      </trkpt>
      <trkpt lat="44.0121" lon="1.94345">
        <ele>277.8</ele>
        <time>2023-07-23T06:20:30Z</time>
      </trkpt>
      <trkpt lat="44.01214" lon="1.94351">
        <ele>278.2</ele>
        <time>2023-07-23T06:20:32Z</time>
      </trkpt>
      <trkpt lat="44.01217" lon="1.94355">
        <ele>278.4</ele>
        <time>2023-07-23T06:20:33Z</time>
      </trkpt>
      <trkpt lat="44.01219" lon="1.94358">
        <ele>278.4</ele>
        <time>2023-07-23T06:20:34Z</time>
      </trkpt>
      <trkpt lat="44.01221" lon="1.94361">
        <ele>278.6</ele>
        <time>2023-07-23T06:20:35Z</time>
      </trkpt>
      <trkpt lat="44.01223" lon="1.94363">
        <ele>278.8</ele>
        <time>2023-07-23T06:20:36Z</time>
      </trkpt>
      <trkpt lat="44.01225" lon="1.94367">
        <ele>279</ele>
        <time>2023-07-23T06:20:37Z</time>
      </trkpt>
      <trkpt lat="44.01227" lon="1.9437">
        <ele>279.2</ele>
        <time>2023-07-23T06:20:38Z</time>
      </trkpt>
      <trkpt lat="44.01229" lon="1.94374">
        <ele>279.2</ele>
        <time>2023-07-23T06:20:39Z</time>
      </trkpt>
      <trkpt lat="44.01231" lon="1.94377">
        <ele>279.4</ele>
        <time>2023-07-23T06:20:40Z</time>
      </trkpt>
      <trkpt lat="44.01233" lon="1.9438">
        <ele>279.8</ele>
        <time>2023-07-23T06:20:41Z</time>
      </trkpt>
      <trkpt lat="44.01235" lon="1.94384">
        <ele>280</ele>
        <time>2023-07-23T06:20:42Z</time>
      </trkpt>
      <trkpt lat="44.01238" lon="1.94387">
        <ele>280.4</ele>
        <time>2023-07-23T06:20:43Z</time>
      </trkpt>
      <trkpt lat="44.01239" lon="1.94389">
        <ele>280.4</ele>
        <time>2023-07-23T06:20:44Z</time>
      </trkpt>
      <trkpt lat="44.01241" lon="1.94392">
        <ele>280.6</ele>
        <time>2023-07-23T06:20:45Z</time>
      </trkpt>
      <trkpt lat="44.01244" lon="1.94395">
        <ele>280.8</ele>
        <time>2023-07-23T06:20:46Z</time>
      </trkpt>
      <trkpt lat="44.01246" lon="1.94398">
        <ele>281.2</ele>
        <time>2023-07-23T06:20:47Z</time>
      </trkpt>
      <trkpt lat="44.01249" lon="1.94402">
        <ele>281.6</ele>
        <time>2023-07-23T06:20:48Z</time>
      </trkpt>
      <trkpt lat="44.01251" lon="1.94405">
        <ele>281.8</ele>
        <time>2023-07-23T06:20:49Z</time>
      </trkpt>
      <trkpt lat="44.01253" lon="1.94408">
        <ele>282</ele>
        <time>2023-07-23T06:20:50Z</time>
      </trkpt>
      <trkpt lat="44.01256" lon="1.94411">
        <ele>282</ele>
        <time>2023-07-23T06:20:51Z</time>
      </trkpt>
      <trkpt lat="44.01258" lon="1.94415">
        <ele>282.2</ele>
        <time>2023-07-23T06:20:52Z</time>
      </trkpt>
      <trkpt lat="44.01261" lon="1.94418">
        <ele>282.4</ele>
        <time>2023-07-23T06:20:53Z</time>
      </trkpt>
      <trkpt lat="44.01263" lon="1.94421">
        <ele>282.6</ele>
        <time>2023-07-23T06:20:54Z</time>
      </trkpt>
      <trkpt lat="44.01266" lon="1.94423">
        <ele>283</ele>
        <time>2023-07-23T06:20:55Z</time>
      </trkpt>
      <trkpt lat="44.01269" lon="1.94427">
        <ele>283.2</ele>
        <time>2023-07-23T06:20:56Z</time>
      </trkpt>
      <trkpt lat="44.01271" lon="1.9443">
        <ele>283.4</ele>
        <time>2023-07-23T06:20:57Z</time>
      </trkpt>
      <trkpt lat="44.01274" lon="1.94433">
        <ele>283.4</ele>
        <time>2023-07-23T06:20:58Z</time>
      </trkpt>
      <trkpt lat="44.01276" lon="1.94435">
        <ele>283.6</ele>
        <time>2023-07-23T06:20:59Z</time>
      </trkpt>
      <trkpt lat="44.01279" lon="1.94438">
        <ele>283.6</ele>
        <time>2023-07-23T06:21:00Z</time>
      </trkpt>
      <trkpt lat="44.01283" lon="1.94441">
        <ele>283.8</ele>
        <time>2023-07-23T06:21:01Z</time>
      </trkpt>
      <trkpt lat="44.01285" lon="1.94443">
        <ele>284</ele>
        <time>2023-07-23T06:21:02Z</time>
      </trkpt>
      <trkpt lat="44.01288" lon="1.94446">
        <ele>284.2</ele>
        <time>2023-07-23T06:21:03Z</time>
      </trkpt>
      <trkpt lat="44.01291" lon="1.94447">
        <ele>284.6</ele>
        <time>2023-07-23T06:21:04Z</time>
      </trkpt>
      <trkpt lat="44.01294" lon="1.94449">
        <ele>284.6</ele>
        <time>2023-07-23T06:21:05Z</time>
      </trkpt>
      <trkpt lat="44.01298" lon="1.94452">
        <ele>284.8</ele>
        <time>2023-07-23T06:21:06Z</time>
      </trkpt>
      <trkpt lat="44.01301" lon="1.94454">
        <ele>284.8</ele>
        <time>2023-07-23T06:21:07Z</time>
      </trkpt>
      <trkpt lat="44.01303" lon="1.94456">
        <ele>285.2</ele>
        <time>2023-07-23T06:21:08Z</time>
      </trkpt>
      <trkpt lat="44.01306" lon="1.94458">
        <ele>285.4</ele>
        <time>2023-07-23T06:21:09Z</time>
      </trkpt>
      <trkpt lat="44.01309" lon="1.94461">
        <ele>285.4</ele>
        <time>2023-07-23T06:21:10Z</time>
      </trkpt>
      <trkpt lat="44.01312" lon="1.94463">
        <ele>285.6</ele>
        <time>2023-07-23T06:21:11Z</time>
      </trkpt>
      <trkpt lat="44.01314" lon="1.94465">
        <ele>285.8</ele>
        <time>2023-07-23T06:21:12Z</time>
      </trkpt>
      <trkpt lat="44.01317" lon="1.94467">
        <ele>285.8</ele>
        <time>2023-07-23T06:21:13Z</time>
      </trkpt>
      <trkpt lat="44.0132" lon="1.94469">
        <ele>286.2</ele>
        <time>2023-07-23T06:21:14Z</time>
      </trkpt>
      <trkpt lat="44.01323" lon="1.94472">
        <ele>286.2</ele>
        <time>2023-07-23T06:21:15Z</time>
      </trkpt>
      <trkpt lat="44.01325" lon="1.94474">
        <ele>286.4</ele>
        <time>2023-07-23T06:21:16Z</time>
      </trkpt>
      <trkpt lat="44.01328" lon="1.94477">
        <ele>286.4</ele>
        <time>2023-07-23T06:21:17Z</time>
      </trkpt>
      <trkpt lat="44.01331" lon="1.94479">
        <ele>286.6</ele>
        <time>2023-07-23T06:21:18Z</time>
      </trkpt>
      <trkpt lat="44.01333" lon="1.94481">
        <ele>286.6</ele>
        <time>2023-07-23T06:21:19Z</time>
      </trkpt>
      <trkpt lat="44.01335" lon="1.94483">
        <ele>286.8</ele>
        <time>2023-07-23T06:21:20Z</time>
      </trkpt>
      <trkpt lat="44.01336" lon="1.94484">
        <ele>287</ele>
        <time>2023-07-23T06:21:21Z</time>
      </trkpt>
      <trkpt lat="44.01338" lon="1.94485">
        <ele>287.2</ele>
        <time>2023-07-23T06:21:22Z</time>
      </trkpt>
      <trkpt lat="44.01339" lon="1.94487">
        <ele>287.4</ele>
        <time>2023-07-23T06:21:23Z</time>
      </trkpt>
      <trkpt lat="44.0134" lon="1.94488">
        <ele>287.4</ele>
        <time>2023-07-23T06:21:24Z</time>
      </trkpt>
      <trkpt lat="44.01342" lon="1.9449">
        <ele>287.6</ele>
        <time>2023-07-23T06:21:25Z</time>
      </trkpt>
      <trkpt lat="44.01344" lon="1.94492">
        <ele>287.8</ele>
        <time>2023-07-23T06:21:26Z</time>
      </trkpt>
      <trkpt lat="44.01346" lon="1.94494">
        <ele>287.8</ele>
        <time>2023-07-23T06:21:27Z</time>
      </trkpt>
      <trkpt lat="44.01348" lon="1.94495">
        <ele>288</ele>
        <time>2023-07-23T06:21:28Z</time>
      </trkpt>
      <trkpt lat="44.0135" lon="1.94497">
        <ele>288</ele>
        <time>2023-07-23T06:21:29Z</time>
      </trkpt>
      <trkpt lat="44.01352" lon="1.94499">
        <ele>288.2</ele>
        <time>2023-07-23T06:21:30Z</time>
      </trkpt>
      <trkpt lat="44.01354" lon="1.94501">
        <ele>288.2</ele>
        <time>2023-07-23T06:21:31Z</time>
      </trkpt>
      <trkpt lat="44.01357" lon="1.94504">
        <ele>288.4</ele>
        <time>2023-07-23T06:21:32Z</time>
      </trkpt>
      <trkpt lat="44.01359" lon="1.94506">
        <ele>288.4</ele>
        <time>2023-07-23T06:21:33Z</time>
      </trkpt>
      <trkpt lat="44.01361" lon="1.94508">
        <ele>288.6</ele>
        <time>2023-07-23T06:21:34Z</time>
      </trkpt>
      <trkpt lat="44.01364" lon="1.9451">
        <ele>288.8</ele>
        <time>2023-07-23T06:21:35Z</time>
      </trkpt>
      <trkpt lat="44.01366" lon="1.94513">
        <ele>288.8</ele>
        <time>2023-07-23T06:21:36Z</time>
      </trkpt>
      <trkpt lat="44.01368" lon="1.94515">
        <ele>289</ele>
        <time>2023-07-23T06:21:37Z</time>
      </trkpt>
      <trkpt lat="44.0137" lon="1.94518">
        <ele>289.2</ele>
        <time>2023-07-23T06:21:38Z</time>
      </trkpt>
      <trkpt lat="44.01373" lon="1.9452">
        <ele>289.4</ele>
        <time>2023-07-23T06:21:39Z</time>
      </trkpt>
      <trkpt lat="44.01375" lon="1.94523">
        <ele>289.6</ele>
        <time>2023-07-23T06:21:40Z</time>
      </trkpt>
      <trkpt lat="44.01377" lon="1.94525">
        <ele>289.4</ele>
        <time>2023-07-23T06:21:41Z</time>
      </trkpt>
      <trkpt lat="44.0138" lon="1.94528">
        <ele>289.8</ele>
        <time>2023-07-23T06:21:42Z</time>
      </trkpt>
      <trkpt lat="44.01382" lon="1.9453">
        <ele>289.8</ele>
        <time>2023-07-23T06:21:43Z</time>
      </trkpt>
      <trkpt lat="44.01385" lon="1.94533">
        <ele>290</ele>
        <time>2023-07-23T06:21:44Z</time>
      </trkpt>
      <trkpt lat="44.01387" lon="1.94535">
        <ele>290</ele>
        <time>2023-07-23T06:21:45Z</time>
      </trkpt>
      <trkpt lat="44.01389" lon="1.94538">
        <ele>290.2</ele>
        <time>2023-07-23T06:21:46Z</time>
      </trkpt>
      <trkpt lat="44.01391" lon="1.94541">
        <ele>290.4</ele>
        <time>2023-07-23T06:21:47Z</time>
      </trkpt>
      <trkpt lat="44.01393" lon="1.94544">
        <ele>290.4</ele>
        <time>2023-07-23T06:21:48Z</time>
      </trkpt>
      <trkpt lat="44.01396" lon="1.94546">
        <ele>290.4</ele>
        <time>2023-07-23T06:21:49Z</time>
      </trkpt>
      <trkpt lat="44.01398" lon="1.94549">
        <ele>290.4</ele>
        <time>2023-07-23T06:21:50Z</time>
      </trkpt>
      <trkpt lat="44.01401" lon="1.94551">
        <ele>290.4</ele>
        <time>2023-07-23T06:21:51Z</time>
      </trkpt>
      <trkpt lat="44.01403" lon="1.94554">
        <ele>290.4</ele>
        <time>2023-07-23T06:21:52Z</time>
      </trkpt>
      <trkpt lat="44.01405" lon="1.94556">
        <ele>290.6</ele>
        <time>2023-07-23T06:21:53Z</time>
      </trkpt>
      <trkpt lat="44.01407" lon="1.94558">
        <ele>290.6</ele>
        <time>2023-07-23T06:21:54Z</time>
      </trkpt>
      <trkpt lat="44.01409" lon="1.9456">
        <ele>290.6</ele>
        <time>2023-07-23T06:21:55Z</time>
      </trkpt>
      <trkpt lat="44.01411" lon="1.94563">
        <ele>290.8</ele>
        <time>2023-07-23T06:21:56Z</time>
      </trkpt>
      <trkpt lat="44.01413" lon="1.94565">
        <ele>290.8</ele>
        <time>2023-07-23T06:21:57Z</time>
      </trkpt>
      <trkpt lat="44.01416" lon="1.94568">
        <ele>290.8</ele>
        <time>2023-07-23T06:21:58Z</time>
      </trkpt>
      <trkpt lat="44.01421" lon="1.9457">
        <ele>290.8</ele>
        <time>2023-07-23T06:22:00Z</time>
      </trkpt>
      <trkpt lat="44.01423" lon="1.9457">
        <ele>290.8</ele>
        <time>2023-07-23T06:22:01Z</time>
      </trkpt>
      <trkpt lat="44.01425" lon="1.94569">
        <ele>290.8</ele>
        <time>2023-07-23T06:22:02Z</time>
      </trkpt>
      <trkpt lat="44.01427" lon="1.94566">
        <ele>291</ele>
        <time>2023-07-23T06:22:03Z</time>
      </trkpt>
      <trkpt lat="44.01429" lon="1.94564">
        <ele>291</ele>
        <time>2023-07-23T06:22:04Z</time>
      </trkpt>
      <trkpt lat="44.0143" lon="1.94561">
        <ele>291</ele>
        <time>2023-07-23T06:22:05Z</time>
      </trkpt>
      <trkpt lat="44.01432" lon="1.94557">
        <ele>291</ele>
        <time>2023-07-23T06:22:06Z</time>
      </trkpt>
      <trkpt lat="44.01433" lon="1.94553">
        <ele>290.8</ele>
        <time>2023-07-23T06:22:07Z</time>
      </trkpt>
      <trkpt lat="44.01435" lon="1.94549">
        <ele>290.8</ele>
        <time>2023-07-23T06:22:08Z</time>
      </trkpt>
      <trkpt lat="44.01439" lon="1.94542">
        <ele>290.8</ele>
        <time>2023-07-23T06:22:10Z</time>
      </trkpt>
      <trkpt lat="44.01458" lon="1.94507">
        <ele>290.8</ele>
        <time>2023-07-23T06:22:18Z</time>
      </trkpt>
      <trkpt lat="44.01467" lon="1.94474">
        <ele>290.6</ele>
        <time>2023-07-23T06:22:25Z</time>
      </trkpt>
      <trkpt lat="44.01469" lon="1.9447">
        <ele>290.8</ele>
        <time>2023-07-23T06:22:26Z</time>
      </trkpt>
      <trkpt lat="44.0147" lon="1.94465">
        <ele>290.8</ele>
        <time>2023-07-23T06:22:27Z</time>
      </trkpt>
      <trkpt lat="44.0147" lon="1.9446">
        <ele>290.8</ele>
        <time>2023-07-23T06:22:28Z</time>
      </trkpt>
      <trkpt lat="44.01472" lon="1.94451">
        <ele>290.8</ele>
        <time>2023-07-23T06:22:30Z</time>
      </trkpt>
      <trkpt lat="44.01474" lon="1.94445">
        <ele>290.8</ele>
        <time>2023-07-23T06:22:31Z</time>
      </trkpt>
      <trkpt lat="44.01475" lon="1.94441">
        <ele>290.8</ele>
        <time>2023-07-23T06:22:32Z</time>
      </trkpt>
      <trkpt lat="44.01477" lon="1.94438">
        <ele>290.8</ele>
        <time>2023-07-23T06:22:33Z</time>
      </trkpt>
      <trkpt lat="44.0148" lon="1.94433">
        <ele>290.8</ele>
        <time>2023-07-23T06:22:34Z</time>
      </trkpt>
      <trkpt lat="44.01484" lon="1.94429">
        <ele>290.8</ele>
        <time>2023-07-23T06:22:35Z</time>
      </trkpt>
      <trkpt lat="44.0151" lon="1.94401">
        <ele>290.8</ele>
        <time>2023-07-23T06:22:43Z</time>
      </trkpt>
      <trkpt lat="44.0153" lon="1.9438">
        <ele>290.6</ele>
        <time>2023-07-23T06:22:49Z</time>
      </trkpt>
      <trkpt lat="44.01536" lon="1.94374">
        <ele>290.4</ele>
        <time>2023-07-23T06:22:51Z</time>
      </trkpt>
      <trkpt lat="44.01544" lon="1.94366">
        <ele>290.2</ele>
        <time>2023-07-23T06:22:54Z</time>
      </trkpt>
      <trkpt lat="44.01547" lon="1.94364">
        <ele>290</ele>
        <time>2023-07-23T06:22:55Z</time>
      </trkpt>
      <trkpt lat="44.01549" lon="1.9436">
        <ele>290</ele>
        <time>2023-07-23T06:22:56Z</time>
      </trkpt>
      <trkpt lat="44.01551" lon="1.94356">
        <ele>290</ele>
        <time>2023-07-23T06:22:57Z</time>
      </trkpt>
      <trkpt lat="44.01552" lon="1.94351">
        <ele>289.8</ele>
        <time>2023-07-23T06:22:58Z</time>
      </trkpt>
      <trkpt lat="44.01551" lon="1.94347">
        <ele>289.8</ele>
        <time>2023-07-23T06:22:59Z</time>
      </trkpt>
      <trkpt lat="44.01549" lon="1.94343">
        <ele>289.6</ele>
        <time>2023-07-23T06:23:00Z</time>
      </trkpt>
      <trkpt lat="44.01548" lon="1.94339">
        <ele>289.6</ele>
        <time>2023-07-23T06:23:01Z</time>
      </trkpt>
      <trkpt lat="44.01546" lon="1.94335">
        <ele>289.4</ele>
        <time>2023-07-23T06:23:02Z</time>
      </trkpt>
      <trkpt lat="44.01544" lon="1.9433">
        <ele>289.4</ele>
        <time>2023-07-23T06:23:03Z</time>
      </trkpt>
      <trkpt lat="44.01543" lon="1.94326">
        <ele>289.2</ele>
        <time>2023-07-23T06:23:04Z</time>
      </trkpt>
      <trkpt lat="44.01538" lon="1.94315">
        <ele>289</ele>
        <time>2023-07-23T06:23:06Z</time>
      </trkpt>
      <trkpt lat="44.01522" lon="1.94294">
        <ele>288.6</ele>
        <time>2023-07-23T06:23:11Z</time>
      </trkpt>
      <trkpt lat="44.01515" lon="1.94287">
        <ele>288.4</ele>
        <time>2023-07-23T06:23:13Z</time>
      </trkpt>
      <trkpt lat="44.0151" lon="1.94282">
        <ele>288.4</ele>
        <time>2023-07-23T06:23:14Z</time>
      </trkpt>
      <trkpt lat="44.01506" lon="1.94279">
        <ele>288.4</ele>
        <time>2023-07-23T06:23:15Z</time>
      </trkpt>
      <trkpt lat="44.01495" lon="1.94266">
        <ele>288.2</ele>
        <time>2023-07-23T06:23:18Z</time>
      </trkpt>
      <trkpt lat="44.01471" lon="1.94235">
        <ele>287.2</ele>
        <time>2023-07-23T06:23:23Z</time>
      </trkpt>
      <trkpt lat="44.01461" lon="1.94219">
        <ele>286.6</ele>
        <time>2023-07-23T06:23:25Z</time>
      </trkpt>
      <trkpt lat="44.01457" lon="1.9421">
        <ele>286.2</ele>
        <time>2023-07-23T06:23:26Z</time>
      </trkpt>
      <trkpt lat="44.01454" lon="1.94202">
        <ele>285.8</ele>
        <time>2023-07-23T06:23:27Z</time>
      </trkpt>
      <trkpt lat="44.01452" lon="1.94194">
        <ele>285.4</ele>
        <time>2023-07-23T06:23:28Z</time>
      </trkpt>
      <trkpt lat="44.01451" lon="1.94186">
        <ele>285.4</ele>
        <time>2023-07-23T06:23:29Z</time>
      </trkpt>
      <trkpt lat="44.01451" lon="1.94178">
        <ele>285.2</ele>
        <time>2023-07-23T06:23:30Z</time>
      </trkpt>
      <trkpt lat="44.01451" lon="1.94171">
        <ele>284.6</ele>
        <time>2023-07-23T06:23:31Z</time>
      </trkpt>
      <trkpt lat="44.01452" lon="1.94164">
        <ele>284.2</ele>
        <time>2023-07-23T06:23:32Z</time>
      </trkpt>
      <trkpt lat="44.01453" lon="1.94157">
        <ele>283.8</ele>
        <time>2023-07-23T06:23:33Z</time>
      </trkpt>
      <trkpt lat="44.01455" lon="1.94149">
        <ele>283.4</ele>
        <time>2023-07-23T06:23:34Z</time>
      </trkpt>
      <trkpt lat="44.01457" lon="1.94134">
        <ele>282.6</ele>
        <time>2023-07-23T06:23:36Z</time>
      </trkpt>
      <trkpt lat="44.01458" lon="1.94126">
        <ele>282.2</ele>
        <time>2023-07-23T06:23:37Z</time>
      </trkpt>
      <trkpt lat="44.01462" lon="1.94084">
        <ele>281.2</ele>
        <time>2023-07-23T06:23:42Z</time>
      </trkpt>
      <trkpt lat="44.01462" lon="1.94065">
        <ele>280.6</ele>
        <time>2023-07-23T06:23:44Z</time>
      </trkpt>
      <trkpt lat="44.01462" lon="1.94055">
        <ele>280</ele>
        <time>2023-07-23T06:23:45Z</time>
      </trkpt>
      <trkpt lat="44.01458" lon="1.94">
        <ele>278.6</ele>
        <time>2023-07-23T06:23:50Z</time>
      </trkpt>
      <trkpt lat="44.01453" lon="1.93976">
        <ele>277.4</ele>
        <time>2023-07-23T06:23:52Z</time>
      </trkpt>
      <trkpt lat="44.01448" lon="1.9395">
        <ele>276.4</ele>
        <time>2023-07-23T06:23:54Z</time>
      </trkpt>
      <trkpt lat="44.01442" lon="1.93923">
        <ele>275.8</ele>
        <time>2023-07-23T06:23:56Z</time>
      </trkpt>
      <trkpt lat="44.0144" lon="1.93909">
        <ele>275</ele>
        <time>2023-07-23T06:23:57Z</time>
      </trkpt>
      <trkpt lat="44.01434" lon="1.93881">
        <ele>273.8</ele>
        <time>2023-07-23T06:23:59Z</time>
      </trkpt>
      <trkpt lat="44.01428" lon="1.93852">
        <ele>272.8</ele>
        <time>2023-07-23T06:24:01Z</time>
      </trkpt>
      <trkpt lat="44.0142" lon="1.93823">
        <ele>271.2</ele>
        <time>2023-07-23T06:24:03Z</time>
      </trkpt>
      <trkpt lat="44.01416" lon="1.93808">
        <ele>270.2</ele>
        <time>2023-07-23T06:24:04Z</time>
      </trkpt>
      <trkpt lat="44.01411" lon="1.93793">
        <ele>269.6</ele>
        <time>2023-07-23T06:24:05Z</time>
      </trkpt>
      <trkpt lat="44.01406" lon="1.93779">
        <ele>268.6</ele>
        <time>2023-07-23T06:24:06Z</time>
      </trkpt>
      <trkpt lat="44.01398" lon="1.93754">
        <ele>267.2</ele>
        <time>2023-07-23T06:24:08Z</time>
      </trkpt>
      <trkpt lat="44.01394" lon="1.93743">
        <ele>267</ele>
        <time>2023-07-23T06:24:09Z</time>
      </trkpt>
      <trkpt lat="44.0139" lon="1.93733">
        <ele>266.2</ele>
        <time>2023-07-23T06:24:10Z</time>
      </trkpt>
      <trkpt lat="44.01388" lon="1.93725">
        <ele>265.4</ele>
        <time>2023-07-23T06:24:11Z</time>
      </trkpt>
      <trkpt lat="44.01386" lon="1.93718">
        <ele>264.8</ele>
        <time>2023-07-23T06:24:12Z</time>
      </trkpt>
      <trkpt lat="44.01384" lon="1.93712">
        <ele>263.8</ele>
        <time>2023-07-23T06:24:13Z</time>
      </trkpt>
      <trkpt lat="44.01382" lon="1.93706">
        <ele>263.2</ele>
        <time>2023-07-23T06:24:14Z</time>
      </trkpt>
      <trkpt lat="44.01382" lon="1.93702">
        <ele>262.2</ele>
        <time>2023-07-23T06:24:15Z</time>
      </trkpt>
      <trkpt lat="44.01382" lon="1.93699">
        <ele>261.4</ele>
        <time>2023-07-23T06:24:16Z</time>
      </trkpt>
      <trkpt lat="44.01384" lon="1.93696">
        <ele>261.2</ele>
        <time>2023-07-23T06:24:17Z</time>
      </trkpt>
      <trkpt lat="44.01387" lon="1.93694">
        <ele>260.6</ele>
        <time>2023-07-23T06:24:18Z</time>
      </trkpt>
      <trkpt lat="44.0139" lon="1.93693">
        <ele>260.4</ele>
        <time>2023-07-23T06:24:19Z</time>
      </trkpt>
      <trkpt lat="44.01392" lon="1.93693">
        <ele>260.2</ele>
        <time>2023-07-23T06:24:20Z</time>
      </trkpt>
      <trkpt lat="44.01395" lon="1.93692">
        <ele>260</ele>
        <time>2023-07-23T06:24:21Z</time>
      </trkpt>
      <trkpt lat="44.01398" lon="1.9369">
        <ele>259.8</ele>
        <time>2023-07-23T06:24:22Z</time>
      </trkpt>
      <trkpt lat="44.01409" lon="1.93679">
        <ele>259.2</ele>
        <time>2023-07-23T06:24:26Z</time>
      </trkpt>
      <trkpt lat="44.01411" lon="1.93675">
        <ele>259</ele>
        <time>2023-07-23T06:24:27Z</time>
      </trkpt>
      <trkpt lat="44.01415" lon="1.93667">
        <ele>259</ele>
        <time>2023-07-23T06:24:29Z</time>
      </trkpt>
      <trkpt lat="44.01417" lon="1.93657">
        <ele>259</ele>
        <time>2023-07-23T06:24:31Z</time>
      </trkpt>
      <trkpt lat="44.01421" lon="1.93621">
        <ele>259</ele>
        <time>2023-07-23T06:24:38Z</time>
      </trkpt>
      <trkpt lat="44.01422" lon="1.93613">
        <ele>259</ele>
        <time>2023-07-23T06:24:40Z</time>
      </trkpt>
      <trkpt lat="44.01423" lon="1.93605">
        <ele>259.2</ele>
        <time>2023-07-23T06:24:42Z</time>
      </trkpt>
      <trkpt lat="44.01423" lon="1.93601">
        <ele>259.2</ele>
        <time>2023-07-23T06:24:43Z</time>
      </trkpt>
      <trkpt lat="44.01423" lon="1.93597">
        <ele>259.4</ele>
        <time>2023-07-23T06:24:44Z</time>
      </trkpt>
      <trkpt lat="44.01424" lon="1.93594">
        <ele>259.4</ele>
        <time>2023-07-23T06:24:45Z</time>
      </trkpt>
      <trkpt lat="44.01425" lon="1.93591">
        <ele>259.6</ele>
        <time>2023-07-23T06:24:46Z</time>
      </trkpt>
      <trkpt lat="44.01425" lon="1.93588">
        <ele>259.6</ele>
        <time>2023-07-23T06:24:47Z</time>
      </trkpt>
      <trkpt lat="44.01425" lon="1.93585">
        <ele>259.8</ele>
        <time>2023-07-23T06:24:48Z</time>
      </trkpt>
      <trkpt lat="44.01425" lon="1.93581">
        <ele>260</ele>
        <time>2023-07-23T06:24:49Z</time>
      </trkpt>
      <trkpt lat="44.01426" lon="1.93578">
        <ele>260</ele>
        <time>2023-07-23T06:24:50Z</time>
      </trkpt>
      <trkpt lat="44.01426" lon="1.93574">
        <ele>260</ele>
        <time>2023-07-23T06:24:51Z</time>
      </trkpt>
      <trkpt lat="44.01427" lon="1.93571">
        <ele>260</ele>
        <time>2023-07-23T06:24:52Z</time>
      </trkpt>
      <trkpt lat="44.01427" lon="1.93568">
        <ele>260.2</ele>
        <time>2023-07-23T06:24:53Z</time>
      </trkpt>
      <trkpt lat="44.01428" lon="1.93564">
        <ele>260.2</ele>
        <time>2023-07-23T06:24:54Z</time>
      </trkpt>
      <trkpt lat="44.01428" lon="1.9356">
        <ele>260.4</ele>
        <time>2023-07-23T06:24:55Z</time>
      </trkpt>
      <trkpt lat="44.0143" lon="1.93539">
        <ele>261.4</ele>
        <time>2023-07-23T06:25:01Z</time>
      </trkpt>
      <trkpt lat="44.01431" lon="1.93526">
        <ele>261.8</ele>
        <time>2023-07-23T06:25:05Z</time>
      </trkpt>
      <trkpt lat="44.01431" lon="1.93522">
        <ele>262</ele>
        <time>2023-07-23T06:25:06Z</time>
      </trkpt>
      <trkpt lat="44.01433" lon="1.93512">
        <ele>262.4</ele>
        <time>2023-07-23T06:25:09Z</time>
      </trkpt>
      <trkpt lat="44.01434" lon="1.93509">
        <ele>262.6</ele>
        <time>2023-07-23T06:25:10Z</time>
      </trkpt>
      <trkpt lat="44.01436" lon="1.93502">
        <ele>262.8</ele>
        <time>2023-07-23T06:25:12Z</time>
      </trkpt>
      <trkpt lat="44.01437" lon="1.93499">
        <ele>263</ele>
        <time>2023-07-23T06:25:13Z</time>
      </trkpt>
      <trkpt lat="44.01438" lon="1.93495">
        <ele>263.2</ele>
        <time>2023-07-23T06:25:14Z</time>
      </trkpt>
      <trkpt lat="44.01439" lon="1.93492">
        <ele>263.2</ele>
        <time>2023-07-23T06:25:15Z</time>
      </trkpt>
      <trkpt lat="44.0144" lon="1.93489">
        <ele>263.4</ele>
        <time>2023-07-23T06:25:16Z</time>
      </trkpt>
      <trkpt lat="44.01442" lon="1.93486">
        <ele>263.6</ele>
        <time>2023-07-23T06:25:17Z</time>
      </trkpt>
      <trkpt lat="44.01443" lon="1.93483">
        <ele>263.8</ele>
        <time>2023-07-23T06:25:18Z</time>
      </trkpt>
      <trkpt lat="44.01445" lon="1.93481">
        <ele>264</ele>
        <time>2023-07-23T06:25:19Z</time>
      </trkpt>
      <trkpt lat="44.01447" lon="1.93478">
        <ele>264.2</ele>
        <time>2023-07-23T06:25:20Z</time>
      </trkpt>
      <trkpt lat="44.01449" lon="1.93475">
        <ele>264.6</ele>
        <time>2023-07-23T06:25:21Z</time>
      </trkpt>
      <trkpt lat="44.0145" lon="1.93472">
        <ele>264.8</ele>
        <time>2023-07-23T06:25:22Z</time>
      </trkpt>
      <trkpt lat="44.01452" lon="1.93469">
        <ele>264.8</ele>
        <time>2023-07-23T06:25:23Z</time>
      </trkpt>
      <trkpt lat="44.01454" lon="1.93466">
        <ele>265.2</ele>
        <time>2023-07-23T06:25:24Z</time>
      </trkpt>
      <trkpt lat="44.01455" lon="1.93463">
        <ele>265.2</ele>
        <time>2023-07-23T06:25:25Z</time>
      </trkpt>
      <trkpt lat="44.01457" lon="1.93461">
        <ele>265.2</ele>
        <time>2023-07-23T06:25:26Z</time>
      </trkpt>
      <trkpt lat="44.01459" lon="1.93458">
        <ele>265.6</ele>
        <time>2023-07-23T06:25:27Z</time>
      </trkpt>
      <trkpt lat="44.01461" lon="1.93456">
        <ele>265.8</ele>
        <time>2023-07-23T06:25:28Z</time>
      </trkpt>
      <trkpt lat="44.01463" lon="1.93453">
        <ele>266.2</ele>
        <time>2023-07-23T06:25:29Z</time>
      </trkpt>
      <trkpt lat="44.01465" lon="1.93451">
        <ele>266.4</ele>
        <time>2023-07-23T06:25:30Z</time>
      </trkpt>
      <trkpt lat="44.01467" lon="1.93448">
        <ele>266.6</ele>
        <time>2023-07-23T06:25:31Z</time>
      </trkpt>
      <trkpt lat="44.01469" lon="1.93445">
        <ele>266.8</ele>
        <time>2023-07-23T06:25:32Z</time>
      </trkpt>
      <trkpt lat="44.0147" lon="1.93442">
        <ele>267.2</ele>
        <time>2023-07-23T06:25:33Z</time>
      </trkpt>
      <trkpt lat="44.01472" lon="1.9344">
        <ele>267.4</ele>
        <time>2023-07-23T06:25:34Z</time>
      </trkpt>
      <trkpt lat="44.01474" lon="1.93437">
        <ele>267.6</ele>
        <time>2023-07-23T06:25:35Z</time>
      </trkpt>
      <trkpt lat="44.01475" lon="1.93434">
        <ele>267.8</ele>
        <time>2023-07-23T06:25:36Z</time>
      </trkpt>
      <trkpt lat="44.01477" lon="1.93431">
        <ele>267.8</ele>
        <time>2023-07-23T06:25:37Z</time>
      </trkpt>
      <trkpt lat="44.01478" lon="1.93428">
        <ele>268.2</ele>
        <time>2023-07-23T06:25:38Z</time>
      </trkpt>
      <trkpt lat="44.0148" lon="1.93425">
        <ele>268.2</ele>
        <time>2023-07-23T06:25:39Z</time>
      </trkpt>
      <trkpt lat="44.01481" lon="1.93422">
        <ele>268.6</ele>
        <time>2023-07-23T06:25:40Z</time>
      </trkpt>
      <trkpt lat="44.01483" lon="1.93419">
        <ele>268.8</ele>
        <time>2023-07-23T06:25:41Z</time>
      </trkpt>
      <trkpt lat="44.01484" lon="1.93416">
        <ele>269</ele>
        <time>2023-07-23T06:25:42Z</time>
      </trkpt>
      <trkpt lat="44.01486" lon="1.93413">
        <ele>269</ele>
        <time>2023-07-23T06:25:43Z</time>
      </trkpt>
      <trkpt lat="44.01487" lon="1.93411">
        <ele>269</ele>
        <time>2023-07-23T06:25:44Z</time>
      </trkpt>
      <trkpt lat="44.01488" lon="1.93407">
        <ele>269.2</ele>
        <time>2023-07-23T06:25:45Z</time>
      </trkpt>
      <trkpt lat="44.0149" lon="1.93404">
        <ele>269.4</ele>
        <time>2023-07-23T06:25:46Z</time>
      </trkpt>
      <trkpt lat="44.01491" lon="1.93401">
        <ele>269.8</ele>
        <time>2023-07-23T06:25:47Z</time>
      </trkpt>
      <trkpt lat="44.01492" lon="1.93398">
        <ele>270</ele>
        <time>2023-07-23T06:25:48Z</time>
      </trkpt>
      <trkpt lat="44.01493" lon="1.93395">
        <ele>270.2</ele>
        <time>2023-07-23T06:25:49Z</time>
      </trkpt>
      <trkpt lat="44.01494" lon="1.93391">
        <ele>270.4</ele>
        <time>2023-07-23T06:25:50Z</time>
      </trkpt>
      <trkpt lat="44.01496" lon="1.93388">
        <ele>270.6</ele>
        <time>2023-07-23T06:25:51Z</time>
      </trkpt>
      <trkpt lat="44.01497" lon="1.93384">
        <ele>270.8</ele>
        <time>2023-07-23T06:25:52Z</time>
      </trkpt>
      <trkpt lat="44.01498" lon="1.93381">
        <ele>271.2</ele>
        <time>2023-07-23T06:25:53Z</time>
      </trkpt>
      <trkpt lat="44.01499" lon="1.93377">
        <ele>271.4</ele>
        <time>2023-07-23T06:25:54Z</time>
      </trkpt>
      <trkpt lat="44.01499" lon="1.93374">
        <ele>271.6</ele>
        <time>2023-07-23T06:25:55Z</time>
      </trkpt>
      <trkpt lat="44.015" lon="1.9337">
        <ele>271.6</ele>
        <time>2023-07-23T06:25:56Z</time>
      </trkpt>
      <trkpt lat="44.01501" lon="1.93366">
        <ele>271.8</ele>
        <time>2023-07-23T06:25:57Z</time>
      </trkpt>
      <trkpt lat="44.01502" lon="1.93363">
        <ele>272</ele>
        <time>2023-07-23T06:25:58Z</time>
      </trkpt>
      <trkpt lat="44.01504" lon="1.93359">
        <ele>272.2</ele>
        <time>2023-07-23T06:25:59Z</time>
      </trkpt>
      <trkpt lat="44.01505" lon="1.93356">
        <ele>272.4</ele>
        <time>2023-07-23T06:26:00Z</time>
      </trkpt>
      <trkpt lat="44.01506" lon="1.93352">
        <ele>272.6</ele>
        <time>2023-07-23T06:26:01Z</time>
      </trkpt>
      <trkpt lat="44.01507" lon="1.93349">
        <ele>272.8</ele>
        <time>2023-07-23T06:26:02Z</time>
      </trkpt>
      <trkpt lat="44.01507" lon="1.93345">
        <ele>272.8</ele>
        <time>2023-07-23T06:26:03Z</time>
      </trkpt>
      <trkpt lat="44.01508" lon="1.93342">
        <ele>273</ele>
        <time>2023-07-23T06:26:04Z</time>
      </trkpt>
      <trkpt lat="44.01509" lon="1.93339">
        <ele>273.2</ele>
        <time>2023-07-23T06:26:05Z</time>
      </trkpt>
      <trkpt lat="44.0151" lon="1.93336">
        <ele>273.6</ele>
        <time>2023-07-23T06:26:06Z</time>
      </trkpt>
      <trkpt lat="44.01511" lon="1.93332">
        <ele>273.8</ele>
        <time>2023-07-23T06:26:07Z</time>
      </trkpt>
      <trkpt lat="44.01512" lon="1.93329">
        <ele>273.8</ele>
        <time>2023-07-23T06:26:08Z</time>
      </trkpt>
      <trkpt lat="44.01513" lon="1.93326">
        <ele>274</ele>
        <time>2023-07-23T06:26:09Z</time>
      </trkpt>
      <trkpt lat="44.01514" lon="1.93323">
        <ele>274.2</ele>
        <time>2023-07-23T06:26:10Z</time>
      </trkpt>
      <trkpt lat="44.01515" lon="1.93319">
        <ele>274.6</ele>
        <time>2023-07-23T06:26:11Z</time>
      </trkpt>
      <trkpt lat="44.01515" lon="1.93316">
        <ele>275</ele>
        <time>2023-07-23T06:26:12Z</time>
      </trkpt>
      <trkpt lat="44.01516" lon="1.93313">
        <ele>275.2</ele>
        <time>2023-07-23T06:26:13Z</time>
      </trkpt>
      <trkpt lat="44.01517" lon="1.93309">
        <ele>275.4</ele>
        <time>2023-07-23T06:26:14Z</time>
      </trkpt>
      <trkpt lat="44.01517" lon="1.93306">
        <ele>275.8</ele>
        <time>2023-07-23T06:26:15Z</time>
      </trkpt>
      <trkpt lat="44.01518" lon="1.93302">
        <ele>276.2</ele>
        <time>2023-07-23T06:26:16Z</time>
      </trkpt>
      <trkpt lat="44.01519" lon="1.93299">
        <ele>276.2</ele>
        <time>2023-07-23T06:26:17Z</time>
      </trkpt>
      <trkpt lat="44.0152" lon="1.93296">
        <ele>276.6</ele>
        <time>2023-07-23T06:26:18Z</time>
      </trkpt>
      <trkpt lat="44.01521" lon="1.93292">
        <ele>276.8</ele>
        <time>2023-07-23T06:26:19Z</time>
      </trkpt>
      <trkpt lat="44.01522" lon="1.93289">
        <ele>277</ele>
        <time>2023-07-23T06:26:20Z</time>
      </trkpt>
      <trkpt lat="44.01522" lon="1.93286">
        <ele>277.2</ele>
        <time>2023-07-23T06:26:21Z</time>
      </trkpt>
      <trkpt lat="44.01523" lon="1.93283">
        <ele>277.6</ele>
        <time>2023-07-23T06:26:22Z</time>
      </trkpt>
      <trkpt lat="44.01524" lon="1.93279">
        <ele>278</ele>
        <time>2023-07-23T06:26:23Z</time>
      </trkpt>
      <trkpt lat="44.01525" lon="1.93276">
        <ele>278.2</ele>
        <time>2023-07-23T06:26:24Z</time>
      </trkpt>
      <trkpt lat="44.01526" lon="1.93273">
        <ele>278.4</ele>
        <time>2023-07-23T06:26:25Z</time>
      </trkpt>
      <trkpt lat="44.01527" lon="1.9327">
        <ele>278.8</ele>
        <time>2023-07-23T06:26:26Z</time>
      </trkpt>
      <trkpt lat="44.01528" lon="1.93266">
        <ele>278.8</ele>
        <time>2023-07-23T06:26:27Z</time>
      </trkpt>
      <trkpt lat="44.01529" lon="1.93263">
        <ele>279.2</ele>
        <time>2023-07-23T06:26:28Z</time>
      </trkpt>
      <trkpt lat="44.01529" lon="1.9326">
        <ele>279.4</ele>
        <time>2023-07-23T06:26:29Z</time>
      </trkpt>
      <trkpt lat="44.01529" lon="1.93257">
        <ele>279.8</ele>
        <time>2023-07-23T06:26:30Z</time>
      </trkpt>
      <trkpt lat="44.0153" lon="1.93253">
        <ele>280</ele>
        <time>2023-07-23T06:26:31Z</time>
      </trkpt>
      <trkpt lat="44.0153" lon="1.9325">
        <ele>280.4</ele>
        <time>2023-07-23T06:26:32Z</time>
      </trkpt>
      <trkpt lat="44.0153" lon="1.93246">
        <ele>280.6</ele>
        <time>2023-07-23T06:26:33Z</time>
      </trkpt>
      <trkpt lat="44.0153" lon="1.93243">
        <ele>280.8</ele>
        <time>2023-07-23T06:26:34Z</time>
      </trkpt>
      <trkpt lat="44.01529" lon="1.93238">
        <ele>281</ele>
        <time>2023-07-23T06:26:35Z</time>
      </trkpt>
      <trkpt lat="44.01528" lon="1.93234">
        <ele>281.2</ele>
        <time>2023-07-23T06:26:36Z</time>
      </trkpt>
      <trkpt lat="44.01526" lon="1.93231">
        <ele>281.4</ele>
        <time>2023-07-23T06:26:37Z</time>
      </trkpt>
      <trkpt lat="44.01524" lon="1.93227">
        <ele>281.4</ele>
        <time>2023-07-23T06:26:38Z</time>
      </trkpt>
      <trkpt lat="44.01522" lon="1.93224">
        <ele>281.6</ele>
        <time>2023-07-23T06:26:39Z</time>
      </trkpt>
      <trkpt lat="44.0152" lon="1.93221">
        <ele>281.8</ele>
        <time>2023-07-23T06:26:40Z</time>
      </trkpt>
      <trkpt lat="44.01517" lon="1.93218">
        <ele>281.8</ele>
        <time>2023-07-23T06:26:41Z</time>
      </trkpt>
      <trkpt lat="44.01514" lon="1.93216">
        <ele>281.8</ele>
        <time>2023-07-23T06:26:42Z</time>
      </trkpt>
      <trkpt lat="44.01511" lon="1.93213">
        <ele>281.8</ele>
        <time>2023-07-23T06:26:43Z</time>
      </trkpt>
      <trkpt lat="44.01508" lon="1.9321">
        <ele>281.8</ele>
        <time>2023-07-23T06:26:44Z</time>
      </trkpt>
      <trkpt lat="44.01505" lon="1.93208">
        <ele>281.8</ele>
        <time>2023-07-23T06:26:45Z</time>
      </trkpt>
      <trkpt lat="44.01502" lon="1.93205">
        <ele>281.8</ele>
        <time>2023-07-23T06:26:46Z</time>
      </trkpt>
      <trkpt lat="44.01499" lon="1.93203">
        <ele>281.8</ele>
        <time>2023-07-23T06:26:47Z</time>
      </trkpt>
      <trkpt lat="44.01496" lon="1.93201">
        <ele>281.8</ele>
        <time>2023-07-23T06:26:48Z</time>
      </trkpt>
      <trkpt lat="44.01493" lon="1.93198">
        <ele>281.8</ele>
        <time>2023-07-23T06:26:49Z</time>
      </trkpt>
      <trkpt lat="44.0149" lon="1.93196">
        <ele>282</ele>
        <time>2023-07-23T06:26:50Z</time>
      </trkpt>
      <trkpt lat="44.01487" lon="1.93193">
        <ele>282</ele>
        <time>2023-07-23T06:26:51Z</time>
      </trkpt>
      <trkpt lat="44.01485" lon="1.93191">
        <ele>282</ele>
        <time>2023-07-23T06:26:52Z</time>
      </trkpt>
      <trkpt lat="44.01482" lon="1.93188">
        <ele>282</ele>
        <time>2023-07-23T06:26:53Z</time>
      </trkpt>
      <trkpt lat="44.0148" lon="1.93184">
        <ele>282.2</ele>
        <time>2023-07-23T06:26:54Z</time>
      </trkpt>
      <trkpt lat="44.01478" lon="1.93181">
        <ele>282.2</ele>
        <time>2023-07-23T06:26:55Z</time>
      </trkpt>
      <trkpt lat="44.01476" lon="1.93177">
        <ele>282.2</ele>
        <time>2023-07-23T06:26:56Z</time>
      </trkpt>
      <trkpt lat="44.01475" lon="1.93173">
        <ele>282.2</ele>
        <time>2023-07-23T06:26:57Z</time>
      </trkpt>
      <trkpt lat="44.01474" lon="1.93169">
        <ele>282.4</ele>
        <time>2023-07-23T06:26:58Z</time>
      </trkpt>
      <trkpt lat="44.01473" lon="1.93164">
        <ele>282.4</ele>
        <time>2023-07-23T06:26:59Z</time>
      </trkpt>
      <trkpt lat="44.01472" lon="1.9316">
        <ele>282.6</ele>
        <time>2023-07-23T06:27:00Z</time>
      </trkpt>
      <trkpt lat="44.01471" lon="1.93156">
        <ele>282.8</ele>
        <time>2023-07-23T06:27:01Z</time>
      </trkpt>
      <trkpt lat="44.01471" lon="1.93153">
        <ele>282.8</ele>
        <time>2023-07-23T06:27:02Z</time>
      </trkpt>
      <trkpt lat="44.01471" lon="1.93148">
        <ele>283</ele>
        <time>2023-07-23T06:27:03Z</time>
      </trkpt>
      <trkpt lat="44.01471" lon="1.93143">
        <ele>283.2</ele>
        <time>2023-07-23T06:27:04Z</time>
      </trkpt>
      <trkpt lat="44.01472" lon="1.93139">
        <ele>283.4</ele>
        <time>2023-07-23T06:27:05Z</time>
      </trkpt>
      <trkpt lat="44.01473" lon="1.93131">
        <ele>283.4</ele>
        <time>2023-07-23T06:27:07Z</time>
      </trkpt>
      <trkpt lat="44.01473" lon="1.93127">
        <ele>283.6</ele>
        <time>2023-07-23T06:27:08Z</time>
      </trkpt>
      <trkpt lat="44.01475" lon="1.93122">
        <ele>283.8</ele>
        <time>2023-07-23T06:27:09Z</time>
      </trkpt>
      <trkpt lat="44.01475" lon="1.93119">
        <ele>284</ele>
        <time>2023-07-23T06:27:10Z</time>
      </trkpt>
      <trkpt lat="44.01476" lon="1.93115">
        <ele>284.2</ele>
        <time>2023-07-23T06:27:11Z</time>
      </trkpt>
      <trkpt lat="44.01479" lon="1.93108">
        <ele>284.4</ele>
        <time>2023-07-23T06:27:13Z</time>
      </trkpt>
      <trkpt lat="44.0148" lon="1.93104">
        <ele>284.4</ele>
        <time>2023-07-23T06:27:14Z</time>
      </trkpt>
      <trkpt lat="44.0148" lon="1.93099">
        <ele>284.6</ele>
        <time>2023-07-23T06:27:15Z</time>
      </trkpt>
      <trkpt lat="44.01482" lon="1.93096">
        <ele>284.8</ele>
        <time>2023-07-23T06:27:16Z</time>
      </trkpt>
      <trkpt lat="44.01483" lon="1.93092">
        <ele>285</ele>
        <time>2023-07-23T06:27:17Z</time>
      </trkpt>
      <trkpt lat="44.01484" lon="1.93088">
        <ele>285.2</ele>
        <time>2023-07-23T06:27:18Z</time>
      </trkpt>
      <trkpt lat="44.01485" lon="1.93084">
        <ele>285.2</ele>
        <time>2023-07-23T06:27:19Z</time>
      </trkpt>
      <trkpt lat="44.01485" lon="1.93081">
        <ele>285.4</ele>
        <time>2023-07-23T06:27:20Z</time>
      </trkpt>
      <trkpt lat="44.01486" lon="1.93078">
        <ele>285.4</ele>
        <time>2023-07-23T06:27:21Z</time>
      </trkpt>
      <trkpt lat="44.01487" lon="1.93073">
        <ele>285.4</ele>
        <time>2023-07-23T06:27:22Z</time>
      </trkpt>
      <trkpt lat="44.01487" lon="1.9307">
        <ele>285.4</ele>
        <time>2023-07-23T06:27:23Z</time>
      </trkpt>
      <trkpt lat="44.01489" lon="1.93064">
        <ele>285.6</ele>
        <time>2023-07-23T06:27:24Z</time>
      </trkpt>
      <trkpt lat="44.01489" lon="1.9306">
        <ele>285.6</ele>
        <time>2023-07-23T06:27:25Z</time>
      </trkpt>
      <trkpt lat="44.01489" lon="1.93055">
        <ele>285.8</ele>
        <time>2023-07-23T06:27:26Z</time>
      </trkpt>
      <trkpt lat="44.0149" lon="1.9305">
        <ele>285.8</ele>
        <time>2023-07-23T06:27:27Z</time>
      </trkpt>
      <trkpt lat="44.01491" lon="1.93046">
        <ele>285.8</ele>
        <time>2023-07-23T06:27:28Z</time>
      </trkpt>
      <trkpt lat="44.01491" lon="1.93041">
        <ele>286</ele>
        <time>2023-07-23T06:27:29Z</time>
      </trkpt>
      <trkpt lat="44.01492" lon="1.93037">
        <ele>286</ele>
        <time>2023-07-23T06:27:30Z</time>
      </trkpt>
      <trkpt lat="44.01493" lon="1.93033">
        <ele>286.2</ele>
        <time>2023-07-23T06:27:31Z</time>
      </trkpt>
      <trkpt lat="44.01493" lon="1.93029">
        <ele>286.2</ele>
        <time>2023-07-23T06:27:32Z</time>
      </trkpt>
      <trkpt lat="44.01494" lon="1.93025">
        <ele>286.4</ele>
        <time>2023-07-23T06:27:33Z</time>
      </trkpt>
      <trkpt lat="44.01495" lon="1.93019">
        <ele>286.6</ele>
        <time>2023-07-23T06:27:34Z</time>
      </trkpt>
      <trkpt lat="44.01495" lon="1.93015">
        <ele>286.6</ele>
        <time>2023-07-23T06:27:35Z</time>
      </trkpt>
      <trkpt lat="44.01496" lon="1.9301">
        <ele>286.8</ele>
        <time>2023-07-23T06:27:36Z</time>
      </trkpt>
      <trkpt lat="44.01497" lon="1.93006">
        <ele>287</ele>
        <time>2023-07-23T06:27:37Z</time>
      </trkpt>
      <trkpt lat="44.01498" lon="1.93002">
        <ele>287</ele>
        <time>2023-07-23T06:27:38Z</time>
      </trkpt>
      <trkpt lat="44.01499" lon="1.92997">
        <ele>287.2</ele>
        <time>2023-07-23T06:27:39Z</time>
      </trkpt>
      <trkpt lat="44.015" lon="1.92993">
        <ele>287.2</ele>
        <time>2023-07-23T06:27:40Z</time>
      </trkpt>
      <trkpt lat="44.015" lon="1.92989">
        <ele>287.4</ele>
        <time>2023-07-23T06:27:41Z</time>
      </trkpt>
      <trkpt lat="44.01502" lon="1.92985">
        <ele>287.4</ele>
        <time>2023-07-23T06:27:42Z</time>
      </trkpt>
      <trkpt lat="44.01503" lon="1.92982">
        <ele>287.6</ele>
        <time>2023-07-23T06:27:43Z</time>
      </trkpt>
      <trkpt lat="44.01506" lon="1.92981">
        <ele>287.6</ele>
        <time>2023-07-23T06:27:44Z</time>
      </trkpt>
      <trkpt lat="44.01508" lon="1.92981">
        <ele>287.8</ele>
        <time>2023-07-23T06:27:45Z</time>
      </trkpt>
      <trkpt lat="44.0151" lon="1.92983">
        <ele>288</ele>
        <time>2023-07-23T06:27:46Z</time>
      </trkpt>
      <trkpt lat="44.01512" lon="1.92985">
        <ele>288.2</ele>
        <time>2023-07-23T06:27:47Z</time>
      </trkpt>
      <trkpt lat="44.01516" lon="1.92988">
        <ele>288.6</ele>
        <time>2023-07-23T06:27:48Z</time>
      </trkpt>
      <trkpt lat="44.01519" lon="1.92989">
        <ele>288.8</ele>
        <time>2023-07-23T06:27:49Z</time>
      </trkpt>
      <trkpt lat="44.01522" lon="1.92989">
        <ele>289</ele>
        <time>2023-07-23T06:27:50Z</time>
      </trkpt>
      <trkpt lat="44.01525" lon="1.92989">
        <ele>289.2</ele>
        <time>2023-07-23T06:27:51Z</time>
      </trkpt>
      <trkpt lat="44.01528" lon="1.92987">
        <ele>289.2</ele>
        <time>2023-07-23T06:27:52Z</time>
      </trkpt>
      <trkpt lat="44.0153" lon="1.92983">
        <ele>289.4</ele>
        <time>2023-07-23T06:27:53Z</time>
      </trkpt>
      <trkpt lat="44.01532" lon="1.92979">
        <ele>289.4</ele>
        <time>2023-07-23T06:27:54Z</time>
      </trkpt>
      <trkpt lat="44.01533" lon="1.92975">
        <ele>289.4</ele>
        <time>2023-07-23T06:27:55Z</time>
      </trkpt>
      <trkpt lat="44.01534" lon="1.92972">
        <ele>289.4</ele>
        <time>2023-07-23T06:27:56Z</time>
      </trkpt>
      <trkpt lat="44.01535" lon="1.92968">
        <ele>289.4</ele>
        <time>2023-07-23T06:27:57Z</time>
      </trkpt>
      <trkpt lat="44.01537" lon="1.92964">
        <ele>289.6</ele>
        <time>2023-07-23T06:27:58Z</time>
      </trkpt>
      <trkpt lat="44.01538" lon="1.92961">
        <ele>289.6</ele>
        <time>2023-07-23T06:27:59Z</time>
      </trkpt>
      <trkpt lat="44.01539" lon="1.92957">
        <ele>289.6</ele>
        <time>2023-07-23T06:28:00Z</time>
      </trkpt>
      <trkpt lat="44.0154" lon="1.92954">
        <ele>289.6</ele>
        <time>2023-07-23T06:28:01Z</time>
      </trkpt>
      <trkpt lat="44.0154" lon="1.92951">
        <ele>289.6</ele>
        <time>2023-07-23T06:28:02Z</time>
      </trkpt>
      <trkpt lat="44.01541" lon="1.92948">
        <ele>289.6</ele>
        <time>2023-07-23T06:28:03Z</time>
      </trkpt>
      <trkpt lat="44.01542" lon="1.92945">
        <ele>289.6</ele>
        <time>2023-07-23T06:28:04Z</time>
      </trkpt>
      <trkpt lat="44.01543" lon="1.92942">
        <ele>289.6</ele>
        <time>2023-07-23T06:28:05Z</time>
      </trkpt>
      <trkpt lat="44.01544" lon="1.9294">
        <ele>289.6</ele>
        <time>2023-07-23T06:28:06Z</time>
      </trkpt>
      <trkpt lat="44.01545" lon="1.92937">
        <ele>289.6</ele>
        <time>2023-07-23T06:28:07Z</time>
      </trkpt>
      <trkpt lat="44.01546" lon="1.92933">
        <ele>289.6</ele>
        <time>2023-07-23T06:28:08Z</time>
      </trkpt>
      <trkpt lat="44.01547" lon="1.92929">
        <ele>289.6</ele>
        <time>2023-07-23T06:28:09Z</time>
      </trkpt>
      <trkpt lat="44.01548" lon="1.92925">
        <ele>289.6</ele>
        <time>2023-07-23T06:28:10Z</time>
      </trkpt>
      <trkpt lat="44.01549" lon="1.92922">
        <ele>289.6</ele>
        <time>2023-07-23T06:28:11Z</time>
      </trkpt>
      <trkpt lat="44.01557" lon="1.92895">
        <ele>289.4</ele>
        <time>2023-07-23T06:28:18Z</time>
      </trkpt>
      <trkpt lat="44.01567" lon="1.92862">
        <ele>288.8</ele>
        <time>2023-07-23T06:28:26Z</time>
      </trkpt>
      <trkpt lat="44.01569" lon="1.92855">
        <ele>289</ele>
        <time>2023-07-23T06:28:28Z</time>
      </trkpt>
      <trkpt lat="44.01571" lon="1.92851">
        <ele>289</ele>
        <time>2023-07-23T06:28:29Z</time>
      </trkpt>
      <trkpt lat="44.01572" lon="1.92847">
        <ele>288.8</ele>
        <time>2023-07-23T06:28:30Z</time>
      </trkpt>
      <trkpt lat="44.01574" lon="1.92838">
        <ele>288.8</ele>
        <time>2023-07-23T06:28:32Z</time>
      </trkpt>
      <trkpt lat="44.01586" lon="1.92804">
        <ele>288.2</ele>
        <time>2023-07-23T06:28:41Z</time>
      </trkpt>
      <trkpt lat="44.0159" lon="1.92791">
        <ele>288</ele>
        <time>2023-07-23T06:28:44Z</time>
      </trkpt>
      <trkpt lat="44.01601" lon="1.92749">
        <ele>287.2</ele>
        <time>2023-07-23T06:28:52Z</time>
      </trkpt>
      <trkpt lat="44.01605" lon="1.92731">
        <ele>287</ele>
        <time>2023-07-23T06:28:55Z</time>
      </trkpt>
      <trkpt lat="44.01607" lon="1.92712">
        <ele>286.6</ele>
        <time>2023-07-23T06:28:58Z</time>
      </trkpt>
      <trkpt lat="44.01611" lon="1.92695">
        <ele>286.4</ele>
        <time>2023-07-23T06:29:01Z</time>
      </trkpt>
      <trkpt lat="44.01621" lon="1.92666">
        <ele>285.8</ele>
        <time>2023-07-23T06:29:06Z</time>
      </trkpt>
      <trkpt lat="44.01629" lon="1.92651">
        <ele>285.6</ele>
        <time>2023-07-23T06:29:09Z</time>
      </trkpt>
      <trkpt lat="44.01649" lon="1.92617">
        <ele>285.6</ele>
        <time>2023-07-23T06:29:16Z</time>
      </trkpt>
      <trkpt lat="44.01652" lon="1.92612">
        <ele>285.6</ele>
        <time>2023-07-23T06:29:17Z</time>
      </trkpt>
      <trkpt lat="44.01681" lon="1.92557">
        <ele>285</ele>
        <time>2023-07-23T06:29:27Z</time>
      </trkpt>
      <trkpt lat="44.01691" lon="1.92538">
        <ele>284.8</ele>
        <time>2023-07-23T06:29:30Z</time>
      </trkpt>
      <trkpt lat="44.01707" lon="1.92507">
        <ele>284.2</ele>
        <time>2023-07-23T06:29:35Z</time>
      </trkpt>
      <trkpt lat="44.01717" lon="1.92486">
        <ele>283.8</ele>
        <time>2023-07-23T06:29:38Z</time>
      </trkpt>
      <trkpt lat="44.0172" lon="1.92479">
        <ele>283.6</ele>
        <time>2023-07-23T06:29:39Z</time>
      </trkpt>
      <trkpt lat="44.01728" lon="1.92463">
        <ele>283</ele>
        <time>2023-07-23T06:29:41Z</time>
      </trkpt>
      <trkpt lat="44.01732" lon="1.92456">
        <ele>282.8</ele>
        <time>2023-07-23T06:29:42Z</time>
      </trkpt>
      <trkpt lat="44.01744" lon="1.92432">
        <ele>281.8</ele>
        <time>2023-07-23T06:29:45Z</time>
      </trkpt>
      <trkpt lat="44.01748" lon="1.92423">
        <ele>281.8</ele>
        <time>2023-07-23T06:29:46Z</time>
      </trkpt>
      <trkpt lat="44.01759" lon="1.924">
        <ele>281.2</ele>
        <time>2023-07-23T06:29:49Z</time>
      </trkpt>
      <trkpt lat="44.01767" lon="1.92385">
        <ele>280.8</ele>
        <time>2023-07-23T06:29:51Z</time>
      </trkpt>
      <trkpt lat="44.01774" lon="1.92371">
        <ele>280.4</ele>
        <time>2023-07-23T06:29:53Z</time>
      </trkpt>
      <trkpt lat="44.0178" lon="1.92356">
        <ele>280.2</ele>
        <time>2023-07-23T06:29:55Z</time>
      </trkpt>
      <trkpt lat="44.01784" lon="1.92349">
        <ele>280</ele>
        <time>2023-07-23T06:29:56Z</time>
      </trkpt>
      <trkpt lat="44.01787" lon="1.92342">
        <ele>279.8</ele>
        <time>2023-07-23T06:29:57Z</time>
      </trkpt>
      <trkpt lat="44.01791" lon="1.92334">
        <ele>279.8</ele>
        <time>2023-07-23T06:29:58Z</time>
      </trkpt>
      <trkpt lat="44.01794" lon="1.92327">
        <ele>279.4</ele>
        <time>2023-07-23T06:29:59Z</time>
      </trkpt>
      <trkpt lat="44.01797" lon="1.92319">
        <ele>279.4</ele>
        <time>2023-07-23T06:30:00Z</time>
      </trkpt>
      <trkpt lat="44.018" lon="1.92312">
        <ele>279</ele>
        <time>2023-07-23T06:30:01Z</time>
      </trkpt>
      <trkpt lat="44.01803" lon="1.92305">
        <ele>279</ele>
        <time>2023-07-23T06:30:02Z</time>
      </trkpt>
      <trkpt lat="44.01808" lon="1.92293">
        <ele>278.4</ele>
        <time>2023-07-23T06:30:04Z</time>
      </trkpt>
      <trkpt lat="44.0181" lon="1.92288">
        <ele>278.2</ele>
        <time>2023-07-23T06:30:05Z</time>
      </trkpt>
      <trkpt lat="44.01812" lon="1.92283">
        <ele>278</ele>
        <time>2023-07-23T06:30:06Z</time>
      </trkpt>
      <trkpt lat="44.01814" lon="1.9228">
        <ele>278</ele>
        <time>2023-07-23T06:30:07Z</time>
      </trkpt>
      <trkpt lat="44.01817" lon="1.92278">
        <ele>277.8</ele>
        <time>2023-07-23T06:30:08Z</time>
      </trkpt>
      <trkpt lat="44.0182" lon="1.92278">
        <ele>277.6</ele>
        <time>2023-07-23T06:30:09Z</time>
      </trkpt>
      <trkpt lat="44.01823" lon="1.92279">
        <ele>277.4</ele>
        <time>2023-07-23T06:30:10Z</time>
      </trkpt>
      <trkpt lat="44.01832" lon="1.92285">
        <ele>276.6</ele>
        <time>2023-07-23T06:30:13Z</time>
      </trkpt>
      <trkpt lat="44.01835" lon="1.92288">
        <ele>276.6</ele>
        <time>2023-07-23T06:30:14Z</time>
      </trkpt>
      <trkpt lat="44.01839" lon="1.9229">
        <ele>276.2</ele>
        <time>2023-07-23T06:30:15Z</time>
      </trkpt>
      <trkpt lat="44.0186" lon="1.92301">
        <ele>275.6</ele>
        <time>2023-07-23T06:30:20Z</time>
      </trkpt>
      <trkpt lat="44.01893" lon="1.92313">
        <ele>275.2</ele>
        <time>2023-07-23T06:30:27Z</time>
      </trkpt>
      <trkpt lat="44.01903" lon="1.92314">
        <ele>275.2</ele>
        <time>2023-07-23T06:30:29Z</time>
      </trkpt>
      <trkpt lat="44.01935" lon="1.92312">
        <ele>275</ele>
        <time>2023-07-23T06:30:35Z</time>
      </trkpt>
      <trkpt lat="44.01972" lon="1.92309">
        <ele>274.6</ele>
        <time>2023-07-23T06:30:40Z</time>
      </trkpt>
      <trkpt lat="44.01989" lon="1.92308">
        <ele>274</ele>
        <time>2023-07-23T06:30:42Z</time>
      </trkpt>
      <trkpt lat="44.02007" lon="1.92306">
        <ele>272.8</ele>
        <time>2023-07-23T06:30:44Z</time>
      </trkpt>
      <trkpt lat="44.02026" lon="1.92306">
        <ele>271.6</ele>
        <time>2023-07-23T06:30:46Z</time>
      </trkpt>
      <trkpt lat="44.02038" lon="1.92308">
        <ele>271</ele>
        <time>2023-07-23T06:30:47Z</time>
      </trkpt>
      <trkpt lat="44.02055" lon="1.92314">
        <ele>270.4</ele>
        <time>2023-07-23T06:30:49Z</time>
      </trkpt>
      <trkpt lat="44.02084" lon="1.92333">
        <ele>268.4</ele>
        <time>2023-07-23T06:30:52Z</time>
      </trkpt>
      <trkpt lat="44.02102" lon="1.92348">
        <ele>267.4</ele>
        <time>2023-07-23T06:30:54Z</time>
      </trkpt>
      <trkpt lat="44.02121" lon="1.92367">
        <ele>266.2</ele>
        <time>2023-07-23T06:30:56Z</time>
      </trkpt>
      <trkpt lat="44.02138" lon="1.92389">
        <ele>264.6</ele>
        <time>2023-07-23T06:30:58Z</time>
      </trkpt>
      <trkpt lat="44.02146" lon="1.92399">
        <ele>264</ele>
        <time>2023-07-23T06:30:59Z</time>
      </trkpt>
      <trkpt lat="44.02153" lon="1.92409">
        <ele>263.2</ele>
        <time>2023-07-23T06:31:00Z</time>
      </trkpt>
      <trkpt lat="44.02161" lon="1.92418">
        <ele>262.2</ele>
        <time>2023-07-23T06:31:01Z</time>
      </trkpt>
      <trkpt lat="44.0217" lon="1.92426">
        <ele>261.6</ele>
        <time>2023-07-23T06:31:02Z</time>
      </trkpt>
      <trkpt lat="44.02178" lon="1.92432">
        <ele>260.6</ele>
        <time>2023-07-23T06:31:03Z</time>
      </trkpt>
      <trkpt lat="44.02186" lon="1.92438">
        <ele>260.2</ele>
        <time>2023-07-23T06:31:04Z</time>
      </trkpt>
      <trkpt lat="44.02194" lon="1.92444">
        <ele>259.8</ele>
        <time>2023-07-23T06:31:05Z</time>
      </trkpt>
      <trkpt lat="44.02201" lon="1.92448">
        <ele>259.6</ele>
        <time>2023-07-23T06:31:06Z</time>
      </trkpt>
      <trkpt lat="44.02207" lon="1.92453">
        <ele>259.4</ele>
        <time>2023-07-23T06:31:07Z</time>
      </trkpt>
      <trkpt lat="44.02213" lon="1.92457">
        <ele>259</ele>
        <time>2023-07-23T06:31:08Z</time>
      </trkpt>
      <trkpt lat="44.02218" lon="1.92462">
        <ele>258.8</ele>
        <time>2023-07-23T06:31:09Z</time>
      </trkpt>
      <trkpt lat="44.02222" lon="1.92467">
        <ele>258.8</ele>
        <time>2023-07-23T06:31:10Z</time>
      </trkpt>
      <trkpt lat="44.02227" lon="1.92473">
        <ele>258.8</ele>
        <time>2023-07-23T06:31:11Z</time>
      </trkpt>
      <trkpt lat="44.02229" lon="1.92477">
        <ele>258.6</ele>
        <time>2023-07-23T06:31:12Z</time>
      </trkpt>
      <trkpt lat="44.02232" lon="1.92483">
        <ele>258.6</ele>
        <time>2023-07-23T06:31:13Z</time>
      </trkpt>
      <trkpt lat="44.02235" lon="1.92488">
        <ele>258.6</ele>
        <time>2023-07-23T06:31:14Z</time>
      </trkpt>
      <trkpt lat="44.02238" lon="1.92493">
        <ele>258.6</ele>
        <time>2023-07-23T06:31:15Z</time>
      </trkpt>
      <trkpt lat="44.02241" lon="1.92498">
        <ele>258.6</ele>
        <time>2023-07-23T06:31:16Z</time>
      </trkpt>
      <trkpt lat="44.02245" lon="1.92503">
        <ele>258.6</ele>
        <time>2023-07-23T06:31:17Z</time>
      </trkpt>
      <trkpt lat="44.02248" lon="1.92508">
        <ele>258.6</ele>
        <time>2023-07-23T06:31:18Z</time>
      </trkpt>
      <trkpt lat="44.02259" lon="1.92522">
        <ele>258.8</ele>
        <time>2023-07-23T06:31:21Z</time>
      </trkpt>
      <trkpt lat="44.02275" lon="1.9254">
        <ele>259</ele>
        <time>2023-07-23T06:31:25Z</time>
      </trkpt>
      <trkpt lat="44.02318" lon="1.92588">
        <ele>259.6</ele>
        <time>2023-07-23T06:31:36Z</time>
      </trkpt>
      <trkpt lat="44.02325" lon="1.92599">
        <ele>259.8</ele>
        <time>2023-07-23T06:31:38Z</time>
      </trkpt>
      <trkpt lat="44.02335" lon="1.92625">
        <ele>260</ele>
        <time>2023-07-23T06:31:42Z</time>
      </trkpt>
      <trkpt lat="44.02341" lon="1.92644">
        <ele>260.2</ele>
        <time>2023-07-23T06:31:45Z</time>
      </trkpt>
      <trkpt lat="44.02344" lon="1.92651">
        <ele>260.2</ele>
        <time>2023-07-23T06:31:46Z</time>
      </trkpt>
      <trkpt lat="44.02353" lon="1.92661">
        <ele>260.2</ele>
        <time>2023-07-23T06:31:48Z</time>
      </trkpt>
      <trkpt lat="44.02358" lon="1.92664">
        <ele>260.4</ele>
        <time>2023-07-23T06:31:49Z</time>
      </trkpt>
      <trkpt lat="44.02363" lon="1.92666">
        <ele>260.4</ele>
        <time>2023-07-23T06:31:50Z</time>
      </trkpt>
      <trkpt lat="44.02368" lon="1.92666">
        <ele>260.4</ele>
        <time>2023-07-23T06:31:51Z</time>
      </trkpt>
      <trkpt lat="44.02373" lon="1.92667">
        <ele>260.6</ele>
        <time>2023-07-23T06:31:52Z</time>
      </trkpt>
      <trkpt lat="44.02378" lon="1.92669">
        <ele>260.6</ele>
        <time>2023-07-23T06:31:53Z</time>
      </trkpt>
      <trkpt lat="44.02382" lon="1.92671">
        <ele>260.6</ele>
        <time>2023-07-23T06:31:54Z</time>
      </trkpt>
      <trkpt lat="44.02386" lon="1.92673">
        <ele>260.8</ele>
        <time>2023-07-23T06:31:55Z</time>
      </trkpt>
      <trkpt lat="44.02389" lon="1.92676">
        <ele>260.8</ele>
        <time>2023-07-23T06:31:56Z</time>
      </trkpt>
      <trkpt lat="44.02391" lon="1.9268">
        <ele>261</ele>
        <time>2023-07-23T06:31:57Z</time>
      </trkpt>
      <trkpt lat="44.02393" lon="1.92684">
        <ele>261</ele>
        <time>2023-07-23T06:31:58Z</time>
      </trkpt>
      <trkpt lat="44.02394" lon="1.92689">
        <ele>261.2</ele>
        <time>2023-07-23T06:31:59Z</time>
      </trkpt>
      <trkpt lat="44.02395" lon="1.92693">
        <ele>261.6</ele>
        <time>2023-07-23T06:32:00Z</time>
      </trkpt>
      <trkpt lat="44.02396" lon="1.92698">
        <ele>261.8</ele>
        <time>2023-07-23T06:32:01Z</time>
      </trkpt>
      <trkpt lat="44.02396" lon="1.92702">
        <ele>262</ele>
        <time>2023-07-23T06:32:02Z</time>
      </trkpt>
      <trkpt lat="44.02396" lon="1.92706">
        <ele>262.2</ele>
        <time>2023-07-23T06:32:03Z</time>
      </trkpt>
      <trkpt lat="44.02396" lon="1.92716">
        <ele>262.8</ele>
        <time>2023-07-23T06:32:05Z</time>
      </trkpt>
      <trkpt lat="44.02396" lon="1.92721">
        <ele>263</ele>
        <time>2023-07-23T06:32:06Z</time>
      </trkpt>
      <trkpt lat="44.02396" lon="1.9273">
        <ele>263.4</ele>
        <time>2023-07-23T06:32:08Z</time>
      </trkpt>
      <trkpt lat="44.02397" lon="1.92734">
        <ele>263.6</ele>
        <time>2023-07-23T06:32:09Z</time>
      </trkpt>
      <trkpt lat="44.02397" lon="1.92739">
        <ele>263.8</ele>
        <time>2023-07-23T06:32:10Z</time>
      </trkpt>
      <trkpt lat="44.02398" lon="1.92744">
        <ele>264</ele>
        <time>2023-07-23T06:32:11Z</time>
      </trkpt>
      <trkpt lat="44.02398" lon="1.92749">
        <ele>264.2</ele>
        <time>2023-07-23T06:32:12Z</time>
      </trkpt>
      <trkpt lat="44.02399" lon="1.92753">
        <ele>264.4</ele>
        <time>2023-07-23T06:32:13Z</time>
      </trkpt>
      <trkpt lat="44.024" lon="1.92757">
        <ele>264.6</ele>
        <time>2023-07-23T06:32:14Z</time>
      </trkpt>
      <trkpt lat="44.02402" lon="1.92761">
        <ele>264.8</ele>
        <time>2023-07-23T06:32:15Z</time>
      </trkpt>
      <trkpt lat="44.02403" lon="1.92765">
        <ele>265.2</ele>
        <time>2023-07-23T06:32:16Z</time>
      </trkpt>
      <trkpt lat="44.02405" lon="1.9277">
        <ele>265.4</ele>
        <time>2023-07-23T06:32:17Z</time>
      </trkpt>
      <trkpt lat="44.02406" lon="1.92774">
        <ele>265.8</ele>
        <time>2023-07-23T06:32:18Z</time>
      </trkpt>
      <trkpt lat="44.02408" lon="1.92779">
        <ele>266.4</ele>
        <time>2023-07-23T06:32:19Z</time>
      </trkpt>
      <trkpt lat="44.0241" lon="1.92784">
        <ele>266.6</ele>
        <time>2023-07-23T06:32:20Z</time>
      </trkpt>
      <trkpt lat="44.02411" lon="1.92788">
        <ele>267</ele>
        <time>2023-07-23T06:32:21Z</time>
      </trkpt>
      <trkpt lat="44.02412" lon="1.92792">
        <ele>267</ele>
        <time>2023-07-23T06:32:22Z</time>
      </trkpt>
      <trkpt lat="44.02413" lon="1.92797">
        <ele>267.4</ele>
        <time>2023-07-23T06:32:23Z</time>
      </trkpt>
      <trkpt lat="44.02415" lon="1.92801">
        <ele>267.6</ele>
        <time>2023-07-23T06:32:24Z</time>
      </trkpt>
      <trkpt lat="44.02417" lon="1.92805">
        <ele>268.2</ele>
        <time>2023-07-23T06:32:25Z</time>
      </trkpt>
      <trkpt lat="44.02419" lon="1.92809">
        <ele>268.4</ele>
        <time>2023-07-23T06:32:26Z</time>
      </trkpt>
      <trkpt lat="44.0242" lon="1.92812">
        <ele>268.8</ele>
        <time>2023-07-23T06:32:27Z</time>
      </trkpt>
      <trkpt lat="44.02422" lon="1.92816">
        <ele>269.2</ele>
        <time>2023-07-23T06:32:28Z</time>
      </trkpt>
      <trkpt lat="44.02424" lon="1.9282">
        <ele>269.6</ele>
        <time>2023-07-23T06:32:29Z</time>
      </trkpt>
      <trkpt lat="44.02426" lon="1.92823">
        <ele>270</ele>
        <time>2023-07-23T06:32:30Z</time>
      </trkpt>
      <trkpt lat="44.02428" lon="1.92826">
        <ele>270.2</ele>
        <time>2023-07-23T06:32:31Z</time>
      </trkpt>
      <trkpt lat="44.0243" lon="1.9283">
        <ele>270.6</ele>
        <time>2023-07-23T06:32:32Z</time>
      </trkpt>
      <trkpt lat="44.02432" lon="1.92833">
        <ele>270.8</ele>
        <time>2023-07-23T06:32:33Z</time>
      </trkpt>
      <trkpt lat="44.02434" lon="1.92836">
        <ele>271</ele>
        <time>2023-07-23T06:32:34Z</time>
      </trkpt>
      <trkpt lat="44.02436" lon="1.92839">
        <ele>271.2</ele>
        <time>2023-07-23T06:32:35Z</time>
      </trkpt>
      <trkpt lat="44.02439" lon="1.92842">
        <ele>271.4</ele>
        <time>2023-07-23T06:32:36Z</time>
      </trkpt>
      <trkpt lat="44.02441" lon="1.92845">
        <ele>271.6</ele>
        <time>2023-07-23T06:32:37Z</time>
      </trkpt>
      <trkpt lat="44.02443" lon="1.92847">
        <ele>271.8</ele>
        <time>2023-07-23T06:32:38Z</time>
      </trkpt>
      <trkpt lat="44.02446" lon="1.9285">
        <ele>272</ele>
        <time>2023-07-23T06:32:39Z</time>
      </trkpt>
      <trkpt lat="44.02448" lon="1.92852">
        <ele>272</ele>
        <time>2023-07-23T06:32:40Z</time>
      </trkpt>
      <trkpt lat="44.02451" lon="1.92854">
        <ele>272.2</ele>
        <time>2023-07-23T06:32:41Z</time>
      </trkpt>
      <trkpt lat="44.02453" lon="1.92856">
        <ele>272.4</ele>
        <time>2023-07-23T06:32:42Z</time>
      </trkpt>
      <trkpt lat="44.02456" lon="1.92858">
        <ele>272.4</ele>
        <time>2023-07-23T06:32:43Z</time>
      </trkpt>
      <trkpt lat="44.02458" lon="1.9286">
        <ele>272.6</ele>
        <time>2023-07-23T06:32:44Z</time>
      </trkpt>
      <trkpt lat="44.02461" lon="1.92861">
        <ele>272.6</ele>
        <time>2023-07-23T06:32:45Z</time>
      </trkpt>
      <trkpt lat="44.02463" lon="1.92862">
        <ele>272.8</ele>
        <time>2023-07-23T06:32:46Z</time>
      </trkpt>
      <trkpt lat="44.02466" lon="1.92864">
        <ele>272.8</ele>
        <time>2023-07-23T06:32:47Z</time>
      </trkpt>
      <trkpt lat="44.02469" lon="1.92865">
        <ele>273</ele>
        <time>2023-07-23T06:32:48Z</time>
      </trkpt>
      <trkpt lat="44.02472" lon="1.92866">
        <ele>273</ele>
        <time>2023-07-23T06:32:49Z</time>
      </trkpt>
      <trkpt lat="44.02475" lon="1.92867">
        <ele>273.4</ele>
        <time>2023-07-23T06:32:50Z</time>
      </trkpt>
      <trkpt lat="44.02478" lon="1.92869">
        <ele>273.6</ele>
        <time>2023-07-23T06:32:51Z</time>
      </trkpt>
      <trkpt lat="44.0248" lon="1.92871">
        <ele>273.6</ele>
        <time>2023-07-23T06:32:52Z</time>
      </trkpt>
      <trkpt lat="44.02483" lon="1.92873">
        <ele>273.8</ele>
        <time>2023-07-23T06:32:53Z</time>
      </trkpt>
      <trkpt lat="44.02486" lon="1.92875">
        <ele>273.8</ele>
        <time>2023-07-23T06:32:54Z</time>
      </trkpt>
      <trkpt lat="44.02488" lon="1.92877">
        <ele>274</ele>
        <time>2023-07-23T06:32:55Z</time>
      </trkpt>
      <trkpt lat="44.02491" lon="1.9288">
        <ele>274.2</ele>
        <time>2023-07-23T06:32:56Z</time>
      </trkpt>
      <trkpt lat="44.02494" lon="1.92883">
        <ele>274.4</ele>
        <time>2023-07-23T06:32:57Z</time>
      </trkpt>
      <trkpt lat="44.02496" lon="1.92886">
        <ele>274.4</ele>
        <time>2023-07-23T06:32:58Z</time>
      </trkpt>
      <trkpt lat="44.02499" lon="1.92889">
        <ele>274.6</ele>
        <time>2023-07-23T06:32:59Z</time>
      </trkpt>
      <trkpt lat="44.02501" lon="1.92893">
        <ele>274.8</ele>
        <time>2023-07-23T06:33:00Z</time>
      </trkpt>
      <trkpt lat="44.02503" lon="1.92897">
        <ele>274.8</ele>
        <time>2023-07-23T06:33:01Z</time>
      </trkpt>
      <trkpt lat="44.02505" lon="1.92901">
        <ele>275</ele>
        <time>2023-07-23T06:33:02Z</time>
      </trkpt>
      <trkpt lat="44.02507" lon="1.92904">
        <ele>274.8</ele>
        <time>2023-07-23T06:33:03Z</time>
      </trkpt>
      <trkpt lat="44.0251" lon="1.92907">
        <ele>275</ele>
        <time>2023-07-23T06:33:04Z</time>
      </trkpt>
      <trkpt lat="44.02511" lon="1.92911">
        <ele>275.2</ele>
        <time>2023-07-23T06:33:05Z</time>
      </trkpt>
      <trkpt lat="44.02513" lon="1.92915">
        <ele>275.2</ele>
        <time>2023-07-23T06:33:06Z</time>
      </trkpt>
      <trkpt lat="44.02515" lon="1.92919">
        <ele>275.4</ele>
        <time>2023-07-23T06:33:07Z</time>
      </trkpt>
      <trkpt lat="44.02517" lon="1.92923">
        <ele>275.4</ele>
        <time>2023-07-23T06:33:08Z</time>
      </trkpt>
      <trkpt lat="44.02519" lon="1.92927">
        <ele>275.6</ele>
        <time>2023-07-23T06:33:09Z</time>
      </trkpt>
      <trkpt lat="44.02521" lon="1.92931">
        <ele>275.8</ele>
        <time>2023-07-23T06:33:10Z</time>
      </trkpt>
      <trkpt lat="44.02523" lon="1.92934">
        <ele>276</ele>
        <time>2023-07-23T06:33:11Z</time>
      </trkpt>
      <trkpt lat="44.02525" lon="1.92938">
        <ele>276</ele>
        <time>2023-07-23T06:33:12Z</time>
      </trkpt>
      <trkpt lat="44.02527" lon="1.92942">
        <ele>276.2</ele>
        <time>2023-07-23T06:33:13Z</time>
      </trkpt>
      <trkpt lat="44.02528" lon="1.92946">
        <ele>276.4</ele>
        <time>2023-07-23T06:33:14Z</time>
      </trkpt>
      <trkpt lat="44.0253" lon="1.9295">
        <ele>276.6</ele>
        <time>2023-07-23T06:33:15Z</time>
      </trkpt>
      <trkpt lat="44.02532" lon="1.92954">
        <ele>276.8</ele>
        <time>2023-07-23T06:33:16Z</time>
      </trkpt>
      <trkpt lat="44.02534" lon="1.92958">
        <ele>276.8</ele>
        <time>2023-07-23T06:33:17Z</time>
      </trkpt>
      <trkpt lat="44.02536" lon="1.92962">
        <ele>277.2</ele>
        <time>2023-07-23T06:33:18Z</time>
      </trkpt>
      <trkpt lat="44.02538" lon="1.92966">
        <ele>277.4</ele>
        <time>2023-07-23T06:33:19Z</time>
      </trkpt>
      <trkpt lat="44.0254" lon="1.92969">
        <ele>277.4</ele>
        <time>2023-07-23T06:33:20Z</time>
      </trkpt>
      <trkpt lat="44.02542" lon="1.92973">
        <ele>277.6</ele>
        <time>2023-07-23T06:33:21Z</time>
      </trkpt>
      <trkpt lat="44.02545" lon="1.92977">
        <ele>277.8</ele>
        <time>2023-07-23T06:33:22Z</time>
      </trkpt>
      <trkpt lat="44.02547" lon="1.9298">
        <ele>278</ele>
        <time>2023-07-23T06:33:23Z</time>
      </trkpt>
      <trkpt lat="44.0255" lon="1.92984">
        <ele>278.2</ele>
        <time>2023-07-23T06:33:24Z</time>
      </trkpt>
      <trkpt lat="44.02553" lon="1.92987">
        <ele>278.6</ele>
        <time>2023-07-23T06:33:25Z</time>
      </trkpt>
      <trkpt lat="44.02555" lon="1.92989">
        <ele>278.6</ele>
        <time>2023-07-23T06:33:26Z</time>
      </trkpt>
      <trkpt lat="44.02558" lon="1.92992">
        <ele>278.8</ele>
        <time>2023-07-23T06:33:27Z</time>
      </trkpt>
      <trkpt lat="44.02561" lon="1.92994">
        <ele>279</ele>
        <time>2023-07-23T06:33:28Z</time>
      </trkpt>
      <trkpt lat="44.02564" lon="1.92997">
        <ele>279.2</ele>
        <time>2023-07-23T06:33:29Z</time>
      </trkpt>
      <trkpt lat="44.02567" lon="1.92998">
        <ele>279.4</ele>
        <time>2023-07-23T06:33:30Z</time>
      </trkpt>
      <trkpt lat="44.0257" lon="1.93">
        <ele>279.6</ele>
        <time>2023-07-23T06:33:31Z</time>
      </trkpt>
      <trkpt lat="44.02573" lon="1.93001">
        <ele>279.8</ele>
        <time>2023-07-23T06:33:32Z</time>
      </trkpt>
      <trkpt lat="44.02577" lon="1.93002">
        <ele>279.8</ele>
        <time>2023-07-23T06:33:33Z</time>
      </trkpt>
      <trkpt lat="44.0258" lon="1.93003">
        <ele>280.2</ele>
        <time>2023-07-23T06:33:34Z</time>
      </trkpt>
      <trkpt lat="44.02583" lon="1.93004">
        <ele>280.2</ele>
        <time>2023-07-23T06:33:35Z</time>
      </trkpt>
      <trkpt lat="44.02587" lon="1.93004">
        <ele>280.6</ele>
        <time>2023-07-23T06:33:36Z</time>
      </trkpt>
      <trkpt lat="44.0259" lon="1.93005">
        <ele>280.8</ele>
        <time>2023-07-23T06:33:37Z</time>
      </trkpt>
      <trkpt lat="44.02594" lon="1.93007">
        <ele>281</ele>
        <time>2023-07-23T06:33:38Z</time>
      </trkpt>
      <trkpt lat="44.02597" lon="1.93007">
        <ele>281.4</ele>
        <time>2023-07-23T06:33:39Z</time>
      </trkpt>
      <trkpt lat="44.02601" lon="1.93008">
        <ele>281.4</ele>
        <time>2023-07-23T06:33:40Z</time>
      </trkpt>
      <trkpt lat="44.02604" lon="1.93009">
        <ele>281.6</ele>
        <time>2023-07-23T06:33:41Z</time>
      </trkpt>
      <trkpt lat="44.02608" lon="1.93009">
        <ele>281.8</ele>
        <time>2023-07-23T06:33:42Z</time>
      </trkpt>
      <trkpt lat="44.02611" lon="1.9301">
        <ele>281.8</ele>
        <time>2023-07-23T06:33:43Z</time>
      </trkpt>
      <trkpt lat="44.02614" lon="1.9301">
        <ele>282</ele>
        <time>2023-07-23T06:33:44Z</time>
      </trkpt>
      <trkpt lat="44.02618" lon="1.93011">
        <ele>282.4</ele>
        <time>2023-07-23T06:33:45Z</time>
      </trkpt>
      <trkpt lat="44.02621" lon="1.93012">
        <ele>282.4</ele>
        <time>2023-07-23T06:33:46Z</time>
      </trkpt>
      <trkpt lat="44.02625" lon="1.93013">
        <ele>282.6</ele>
        <time>2023-07-23T06:33:47Z</time>
      </trkpt>
      <trkpt lat="44.02628" lon="1.93014">
        <ele>282.6</ele>
        <time>2023-07-23T06:33:48Z</time>
      </trkpt>
      <trkpt lat="44.02631" lon="1.93014">
        <ele>282.8</ele>
        <time>2023-07-23T06:33:49Z</time>
      </trkpt>
      <trkpt lat="44.02635" lon="1.93015">
        <ele>283.2</ele>
        <time>2023-07-23T06:33:50Z</time>
      </trkpt>
      <trkpt lat="44.02638" lon="1.93016">
        <ele>283.4</ele>
        <time>2023-07-23T06:33:51Z</time>
      </trkpt>
      <trkpt lat="44.02641" lon="1.93016">
        <ele>283.8</ele>
        <time>2023-07-23T06:33:52Z</time>
      </trkpt>
      <trkpt lat="44.02644" lon="1.93017">
        <ele>283.8</ele>
        <time>2023-07-23T06:33:53Z</time>
      </trkpt>
      <trkpt lat="44.02648" lon="1.93017">
        <ele>284</ele>
        <time>2023-07-23T06:33:54Z</time>
      </trkpt>
      <trkpt lat="44.02651" lon="1.93018">
        <ele>284.4</ele>
        <time>2023-07-23T06:33:55Z</time>
      </trkpt>
      <trkpt lat="44.02654" lon="1.93019">
        <ele>284.6</ele>
        <time>2023-07-23T06:33:56Z</time>
      </trkpt>
      <trkpt lat="44.02657" lon="1.93019">
        <ele>284.8</ele>
        <time>2023-07-23T06:33:57Z</time>
      </trkpt>
      <trkpt lat="44.0266" lon="1.9302">
        <ele>285</ele>
        <time>2023-07-23T06:33:58Z</time>
      </trkpt>
      <trkpt lat="44.02663" lon="1.9302">
        <ele>285.2</ele>
        <time>2023-07-23T06:33:59Z</time>
      </trkpt>
      <trkpt lat="44.02666" lon="1.93021">
        <ele>285.2</ele>
        <time>2023-07-23T06:34:00Z</time>
      </trkpt>
      <trkpt lat="44.02669" lon="1.93021">
        <ele>285.4</ele>
        <time>2023-07-23T06:34:01Z</time>
      </trkpt>
      <trkpt lat="44.02672" lon="1.93022">
        <ele>285.6</ele>
        <time>2023-07-23T06:34:02Z</time>
      </trkpt>
      <trkpt lat="44.02675" lon="1.93022">
        <ele>286.2</ele>
        <time>2023-07-23T06:34:03Z</time>
      </trkpt>
      <trkpt lat="44.02677" lon="1.93023">
        <ele>286.4</ele>
        <time>2023-07-23T06:34:04Z</time>
      </trkpt>
      <trkpt lat="44.02679" lon="1.93023">
        <ele>286.6</ele>
        <time>2023-07-23T06:34:05Z</time>
      </trkpt>
      <trkpt lat="44.02681" lon="1.93023">
        <ele>286.8</ele>
        <time>2023-07-23T06:34:06Z</time>
      </trkpt>
      <trkpt lat="44.02684" lon="1.93023">
        <ele>286.8</ele>
        <time>2023-07-23T06:34:07Z</time>
      </trkpt>
      <trkpt lat="44.02685" lon="1.93024">
        <ele>287.2</ele>
        <time>2023-07-23T06:34:08Z</time>
      </trkpt>
      <trkpt lat="44.02688" lon="1.93024">
        <ele>287.2</ele>
        <time>2023-07-23T06:34:09Z</time>
      </trkpt>
      <trkpt lat="44.0269" lon="1.93024">
        <ele>287.6</ele>
        <time>2023-07-23T06:34:10Z</time>
      </trkpt>
      <trkpt lat="44.02692" lon="1.93025">
        <ele>287.8</ele>
        <time>2023-07-23T06:34:11Z</time>
      </trkpt>
      <trkpt lat="44.02695" lon="1.93025">
        <ele>287.8</ele>
        <time>2023-07-23T06:34:12Z</time>
      </trkpt>
      <trkpt lat="44.02698" lon="1.93026">
        <ele>287.8</ele>
        <time>2023-07-23T06:34:13Z</time>
      </trkpt>
      <trkpt lat="44.027" lon="1.93027">
        <ele>287.8</ele>
        <time>2023-07-23T06:34:14Z</time>
      </trkpt>
      <trkpt lat="44.02702" lon="1.93028">
        <ele>287.8</ele>
        <time>2023-07-23T06:34:15Z</time>
      </trkpt>
      <trkpt lat="44.02705" lon="1.93029">
        <ele>287.8</ele>
        <time>2023-07-23T06:34:16Z</time>
      </trkpt>
      <trkpt lat="44.02707" lon="1.9303">
        <ele>287.8</ele>
        <time>2023-07-23T06:34:17Z</time>
      </trkpt>
      <trkpt lat="44.02709" lon="1.9303">
        <ele>287.8</ele>
        <time>2023-07-23T06:34:18Z</time>
      </trkpt>
      <trkpt lat="44.02711" lon="1.93031">
        <ele>287.8</ele>
        <time>2023-07-23T06:34:19Z</time>
      </trkpt>
      <trkpt lat="44.02713" lon="1.93031">
        <ele>287.4</ele>
        <time>2023-07-23T06:34:20Z</time>
      </trkpt>
      <trkpt lat="44.02715" lon="1.93031">
        <ele>287.4</ele>
        <time>2023-07-23T06:34:21Z</time>
      </trkpt>
      <trkpt lat="44.02717" lon="1.93031">
        <ele>287.2</ele>
        <time>2023-07-23T06:34:22Z</time>
      </trkpt>
      <trkpt lat="44.02719" lon="1.93031">
        <ele>287.2</ele>
        <time>2023-07-23T06:34:23Z</time>
      </trkpt>
      <trkpt lat="44.02721" lon="1.93031">
        <ele>286.8</ele>
        <time>2023-07-23T06:34:24Z</time>
      </trkpt>
      <trkpt lat="44.02722" lon="1.93032">
        <ele>286.8</ele>
        <time>2023-07-23T06:34:25Z</time>
      </trkpt>
      <trkpt lat="44.02724" lon="1.93032">
        <ele>286.6</ele>
        <time>2023-07-23T06:34:26Z</time>
      </trkpt>
      <trkpt lat="44.02725" lon="1.93032">
        <ele>286.4</ele>
        <time>2023-07-23T06:34:27Z</time>
      </trkpt>
      <trkpt lat="44.02725" lon="1.93032">
        <ele>286.4</ele>
        <time>2023-07-23T06:34:28Z</time>
      </trkpt>
      <trkpt lat="44.02725" lon="1.93032">
        <ele>286.2</ele>
        <time>2023-07-23T06:34:29Z</time>
      </trkpt>
      <trkpt lat="44.02729" lon="1.93029">
        <ele>284.6</ele>
        <time>2023-07-23T06:35:18Z</time>
      </trkpt>
      <trkpt lat="44.02735" lon="1.93027">
        <ele>284.6</ele>
        <time>2023-07-23T06:35:20Z</time>
      </trkpt>
      <trkpt lat="44.02757" lon="1.9302">
        <ele>284</ele>
        <time>2023-07-23T06:35:26Z</time>
      </trkpt>
      <trkpt lat="44.02761" lon="1.93019">
        <ele>284</ele>
        <time>2023-07-23T06:35:27Z</time>
      </trkpt>
      <trkpt lat="44.02776" lon="1.93012">
        <ele>283.6</ele>
        <time>2023-07-23T06:35:31Z</time>
      </trkpt>
      <trkpt lat="44.02782" lon="1.93006">
        <ele>283.4</ele>
        <time>2023-07-23T06:35:33Z</time>
      </trkpt>
      <trkpt lat="44.02785" lon="1.93002">
        <ele>283.4</ele>
        <time>2023-07-23T06:35:34Z</time>
      </trkpt>
      <trkpt lat="44.02794" lon="1.92985">
        <ele>283.2</ele>
        <time>2023-07-23T06:35:37Z</time>
      </trkpt>
      <trkpt lat="44.02797" lon="1.9298">
        <ele>283</ele>
        <time>2023-07-23T06:35:38Z</time>
      </trkpt>
      <trkpt lat="44.02799" lon="1.92977">
        <ele>283</ele>
        <time>2023-07-23T06:35:39Z</time>
      </trkpt>
      <trkpt lat="44.02802" lon="1.92973">
        <ele>282.8</ele>
        <time>2023-07-23T06:35:40Z</time>
      </trkpt>
      <trkpt lat="44.02804" lon="1.9297">
        <ele>282.8</ele>
        <time>2023-07-23T06:35:41Z</time>
      </trkpt>
      <trkpt lat="44.02806" lon="1.92966">
        <ele>282.6</ele>
        <time>2023-07-23T06:35:42Z</time>
      </trkpt>
      <trkpt lat="44.02808" lon="1.92964">
        <ele>282.4</ele>
        <time>2023-07-23T06:35:43Z</time>
      </trkpt>
      <trkpt lat="44.0281" lon="1.92961">
        <ele>282.2</ele>
        <time>2023-07-23T06:35:44Z</time>
      </trkpt>
      <trkpt lat="44.02812" lon="1.92958">
        <ele>282.2</ele>
        <time>2023-07-23T06:35:45Z</time>
      </trkpt>
      <trkpt lat="44.02814" lon="1.92955">
        <ele>282</ele>
        <time>2023-07-23T06:35:46Z</time>
      </trkpt>
      <trkpt lat="44.02815" lon="1.92952">
        <ele>282</ele>
        <time>2023-07-23T06:35:47Z</time>
      </trkpt>
      <trkpt lat="44.02821" lon="1.92945">
        <ele>281.8</ele>
        <time>2023-07-23T06:35:50Z</time>
      </trkpt>
      <trkpt lat="44.02824" lon="1.92943">
        <ele>281.8</ele>
        <time>2023-07-23T06:35:51Z</time>
      </trkpt>
      <trkpt lat="44.02827" lon="1.92943">
        <ele>281.6</ele>
        <time>2023-07-23T06:35:52Z</time>
      </trkpt>
      <trkpt lat="44.0283" lon="1.92945">
        <ele>281.4</ele>
        <time>2023-07-23T06:35:53Z</time>
      </trkpt>
      <trkpt lat="44.02833" lon="1.92948">
        <ele>281.2</ele>
        <time>2023-07-23T06:35:54Z</time>
      </trkpt>
      <trkpt lat="44.0284" lon="1.92953">
        <ele>281</ele>
        <time>2023-07-23T06:35:56Z</time>
      </trkpt>
      <trkpt lat="44.02844" lon="1.92956">
        <ele>281</ele>
        <time>2023-07-23T06:35:57Z</time>
      </trkpt>
      <trkpt lat="44.02847" lon="1.9296">
        <ele>280.8</ele>
        <time>2023-07-23T06:35:58Z</time>
      </trkpt>
      <trkpt lat="44.02859" lon="1.92972">
        <ele>280.6</ele>
        <time>2023-07-23T06:36:01Z</time>
      </trkpt>
      <trkpt lat="44.02866" lon="1.92981">
        <ele>280.4</ele>
        <time>2023-07-23T06:36:03Z</time>
      </trkpt>
      <trkpt lat="44.0287" lon="1.92986">
        <ele>280.2</ele>
        <time>2023-07-23T06:36:04Z</time>
      </trkpt>
      <trkpt lat="44.02873" lon="1.92991">
        <ele>280</ele>
        <time>2023-07-23T06:36:05Z</time>
      </trkpt>
      <trkpt lat="44.0288" lon="1.93003">
        <ele>279.8</ele>
        <time>2023-07-23T06:36:07Z</time>
      </trkpt>
      <trkpt lat="44.02899" lon="1.93038">
        <ele>279.2</ele>
        <time>2023-07-23T06:36:12Z</time>
      </trkpt>
      <trkpt lat="44.0292" lon="1.93085">
        <ele>277.8</ele>
        <time>2023-07-23T06:36:17Z</time>
      </trkpt>
      <trkpt lat="44.0294" lon="1.93129">
        <ele>276.6</ele>
        <time>2023-07-23T06:36:21Z</time>
      </trkpt>
      <trkpt lat="44.02946" lon="1.9314">
        <ele>276.2</ele>
        <time>2023-07-23T06:36:22Z</time>
      </trkpt>
      <trkpt lat="44.02952" lon="1.93151">
        <ele>275.2</ele>
        <time>2023-07-23T06:36:23Z</time>
      </trkpt>
      <trkpt lat="44.02957" lon="1.93163">
        <ele>274.6</ele>
        <time>2023-07-23T06:36:24Z</time>
      </trkpt>
      <trkpt lat="44.02963" lon="1.93175">
        <ele>273.8</ele>
        <time>2023-07-23T06:36:25Z</time>
      </trkpt>
      <trkpt lat="44.02973" lon="1.93198">
        <ele>272.6</ele>
        <time>2023-07-23T06:36:27Z</time>
      </trkpt>
      <trkpt lat="44.02978" lon="1.93209">
        <ele>271.4</ele>
        <time>2023-07-23T06:36:28Z</time>
      </trkpt>
      <trkpt lat="44.02983" lon="1.9322">
        <ele>270.8</ele>
        <time>2023-07-23T06:36:29Z</time>
      </trkpt>
      <trkpt lat="44.02987" lon="1.93231">
        <ele>270.4</ele>
        <time>2023-07-23T06:36:30Z</time>
      </trkpt>
      <trkpt lat="44.02992" lon="1.93241">
        <ele>270</ele>
        <time>2023-07-23T06:36:31Z</time>
      </trkpt>
      <trkpt lat="44.02996" lon="1.9325">
        <ele>269.6</ele>
        <time>2023-07-23T06:36:32Z</time>
      </trkpt>
      <trkpt lat="44.03" lon="1.93259">
        <ele>269.2</ele>
        <time>2023-07-23T06:36:33Z</time>
      </trkpt>
      <trkpt lat="44.03004" lon="1.93267">
        <ele>269</ele>
        <time>2023-07-23T06:36:34Z</time>
      </trkpt>
      <trkpt lat="44.03007" lon="1.93274">
        <ele>268.6</ele>
        <time>2023-07-23T06:36:35Z</time>
      </trkpt>
      <trkpt lat="44.03011" lon="1.93282">
        <ele>268.6</ele>
        <time>2023-07-23T06:36:36Z</time>
      </trkpt>
      <trkpt lat="44.03014" lon="1.93289">
        <ele>268.6</ele>
        <time>2023-07-23T06:36:37Z</time>
      </trkpt>
      <trkpt lat="44.03016" lon="1.93295">
        <ele>268.6</ele>
        <time>2023-07-23T06:36:38Z</time>
      </trkpt>
      <trkpt lat="44.03019" lon="1.933">
        <ele>268.6</ele>
        <time>2023-07-23T06:36:39Z</time>
      </trkpt>
      <trkpt lat="44.03021" lon="1.93305">
        <ele>268.6</ele>
        <time>2023-07-23T06:36:40Z</time>
      </trkpt>
      <trkpt lat="44.03023" lon="1.93309">
        <ele>268.6</ele>
        <time>2023-07-23T06:36:41Z</time>
      </trkpt>
      <trkpt lat="44.03025" lon="1.93313">
        <ele>268.6</ele>
        <time>2023-07-23T06:36:42Z</time>
      </trkpt>
      <trkpt lat="44.03027" lon="1.93317">
        <ele>268.6</ele>
        <time>2023-07-23T06:36:43Z</time>
      </trkpt>
      <trkpt lat="44.03028" lon="1.93321">
        <ele>268.8</ele>
        <time>2023-07-23T06:36:44Z</time>
      </trkpt>
      <trkpt lat="44.0303" lon="1.93325">
        <ele>269</ele>
        <time>2023-07-23T06:36:45Z</time>
      </trkpt>
      <trkpt lat="44.03032" lon="1.93329">
        <ele>269.2</ele>
        <time>2023-07-23T06:36:46Z</time>
      </trkpt>
      <trkpt lat="44.03034" lon="1.93333">
        <ele>269.4</ele>
        <time>2023-07-23T06:36:47Z</time>
      </trkpt>
      <trkpt lat="44.03037" lon="1.9334">
        <ele>270.2</ele>
        <time>2023-07-23T06:36:49Z</time>
      </trkpt>
      <trkpt lat="44.03039" lon="1.93344">
        <ele>270.2</ele>
        <time>2023-07-23T06:36:50Z</time>
      </trkpt>
      <trkpt lat="44.03041" lon="1.93347">
        <ele>270.4</ele>
        <time>2023-07-23T06:36:51Z</time>
      </trkpt>
      <trkpt lat="44.03043" lon="1.93351">
        <ele>270.6</ele>
        <time>2023-07-23T06:36:52Z</time>
      </trkpt>
      <trkpt lat="44.03047" lon="1.93357">
        <ele>271</ele>
        <time>2023-07-23T06:36:54Z</time>
      </trkpt>
      <trkpt lat="44.03048" lon="1.9336">
        <ele>271.6</ele>
        <time>2023-07-23T06:36:55Z</time>
      </trkpt>
      <trkpt lat="44.0305" lon="1.93363">
        <ele>271.8</ele>
        <time>2023-07-23T06:36:56Z</time>
      </trkpt>
      <trkpt lat="44.03051" lon="1.93367">
        <ele>272.2</ele>
        <time>2023-07-23T06:36:57Z</time>
      </trkpt>
      <trkpt lat="44.03053" lon="1.93374">
        <ele>272.6</ele>
        <time>2023-07-23T06:36:59Z</time>
      </trkpt>
      <trkpt lat="44.03055" lon="1.93377">
        <ele>273</ele>
        <time>2023-07-23T06:37:00Z</time>
      </trkpt>
      <trkpt lat="44.03056" lon="1.93381">
        <ele>273.2</ele>
        <time>2023-07-23T06:37:01Z</time>
      </trkpt>
      <trkpt lat="44.03058" lon="1.93385">
        <ele>273.6</ele>
        <time>2023-07-23T06:37:02Z</time>
      </trkpt>
      <trkpt lat="44.03059" lon="1.93389">
        <ele>273.8</ele>
        <time>2023-07-23T06:37:03Z</time>
      </trkpt>
      <trkpt lat="44.0306" lon="1.93392">
        <ele>274</ele>
        <time>2023-07-23T06:37:04Z</time>
      </trkpt>
      <trkpt lat="44.03062" lon="1.93396">
        <ele>274.4</ele>
        <time>2023-07-23T06:37:05Z</time>
      </trkpt>
      <trkpt lat="44.03063" lon="1.934">
        <ele>274.4</ele>
        <time>2023-07-23T06:37:06Z</time>
      </trkpt>
      <trkpt lat="44.03065" lon="1.93403">
        <ele>274.8</ele>
        <time>2023-07-23T06:37:07Z</time>
      </trkpt>
      <trkpt lat="44.03066" lon="1.93407">
        <ele>275</ele>
        <time>2023-07-23T06:37:08Z</time>
      </trkpt>
      <trkpt lat="44.03068" lon="1.93411">
        <ele>275.2</ele>
        <time>2023-07-23T06:37:09Z</time>
      </trkpt>
      <trkpt lat="44.0307" lon="1.93414">
        <ele>275.2</ele>
        <time>2023-07-23T06:37:10Z</time>
      </trkpt>
      <trkpt lat="44.0307" lon="1.93418">
        <ele>275.6</ele>
        <time>2023-07-23T06:37:11Z</time>
      </trkpt>
      <trkpt lat="44.03072" lon="1.93422">
        <ele>275.6</ele>
        <time>2023-07-23T06:37:12Z</time>
      </trkpt>
      <trkpt lat="44.03073" lon="1.93425">
        <ele>276</ele>
        <time>2023-07-23T06:37:13Z</time>
      </trkpt>
      <trkpt lat="44.03075" lon="1.93429">
        <ele>276.4</ele>
        <time>2023-07-23T06:37:14Z</time>
      </trkpt>
      <trkpt lat="44.03076" lon="1.93432">
        <ele>276.6</ele>
        <time>2023-07-23T06:37:15Z</time>
      </trkpt>
      <trkpt lat="44.03076" lon="1.93435">
        <ele>276.8</ele>
        <time>2023-07-23T06:37:16Z</time>
      </trkpt>
      <trkpt lat="44.03076" lon="1.93438">
        <ele>277</ele>
        <time>2023-07-23T06:37:17Z</time>
      </trkpt>
      <trkpt lat="44.03075" lon="1.93441">
        <ele>277.2</ele>
        <time>2023-07-23T06:37:18Z</time>
      </trkpt>
      <trkpt lat="44.03074" lon="1.93443">
        <ele>277.4</ele>
        <time>2023-07-23T06:37:19Z</time>
      </trkpt>
      <trkpt lat="44.03073" lon="1.93446">
        <ele>277.6</ele>
        <time>2023-07-23T06:37:20Z</time>
      </trkpt>
      <trkpt lat="44.03071" lon="1.93448">
        <ele>277.8</ele>
        <time>2023-07-23T06:37:21Z</time>
      </trkpt>
      <trkpt lat="44.0307" lon="1.93451">
        <ele>277.8</ele>
        <time>2023-07-23T06:37:22Z</time>
      </trkpt>
      <trkpt lat="44.03068" lon="1.93453">
        <ele>278</ele>
        <time>2023-07-23T06:37:23Z</time>
      </trkpt>
      <trkpt lat="44.03066" lon="1.93455">
        <ele>278</ele>
        <time>2023-07-23T06:37:24Z</time>
      </trkpt>
      <trkpt lat="44.03065" lon="1.93458">
        <ele>278.2</ele>
        <time>2023-07-23T06:37:25Z</time>
      </trkpt>
      <trkpt lat="44.03063" lon="1.93461">
        <ele>278.2</ele>
        <time>2023-07-23T06:37:26Z</time>
      </trkpt>
      <trkpt lat="44.03061" lon="1.93464">
        <ele>278.4</ele>
        <time>2023-07-23T06:37:27Z</time>
      </trkpt>
      <trkpt lat="44.03059" lon="1.93467">
        <ele>278.4</ele>
        <time>2023-07-23T06:37:28Z</time>
      </trkpt>
      <trkpt lat="44.03058" lon="1.93471">
        <ele>278.4</ele>
        <time>2023-07-23T06:37:29Z</time>
      </trkpt>
      <trkpt lat="44.03056" lon="1.93474">
        <ele>278.6</ele>
        <time>2023-07-23T06:37:30Z</time>
      </trkpt>
      <trkpt lat="44.03054" lon="1.93477">
        <ele>278.6</ele>
        <time>2023-07-23T06:37:31Z</time>
      </trkpt>
      <trkpt lat="44.03053" lon="1.9348">
        <ele>278.8</ele>
        <time>2023-07-23T06:37:32Z</time>
      </trkpt>
      <trkpt lat="44.03051" lon="1.93483">
        <ele>278.8</ele>
        <time>2023-07-23T06:37:33Z</time>
      </trkpt>
      <trkpt lat="44.03049" lon="1.93486">
        <ele>278.8</ele>
        <time>2023-07-23T06:37:34Z</time>
      </trkpt>
      <trkpt lat="44.03047" lon="1.93489">
        <ele>279</ele>
        <time>2023-07-23T06:37:35Z</time>
      </trkpt>
      <trkpt lat="44.03045" lon="1.93492">
        <ele>279</ele>
        <time>2023-07-23T06:37:36Z</time>
      </trkpt>
      <trkpt lat="44.03043" lon="1.93495">
        <ele>279</ele>
        <time>2023-07-23T06:37:38Z</time>
      </trkpt>
      <trkpt lat="44.03041" lon="1.93499">
        <ele>279</ele>
        <time>2023-07-23T06:37:39Z</time>
      </trkpt>
      <trkpt lat="44.0304" lon="1.93503">
        <ele>279</ele>
        <time>2023-07-23T06:37:40Z</time>
      </trkpt>
      <trkpt lat="44.03039" lon="1.93507">
        <ele>279</ele>
        <time>2023-07-23T06:37:41Z</time>
      </trkpt>
      <trkpt lat="44.03038" lon="1.93512">
        <ele>279.2</ele>
        <time>2023-07-23T06:37:42Z</time>
      </trkpt>
      <trkpt lat="44.03038" lon="1.93517">
        <ele>279.2</ele>
        <time>2023-07-23T06:37:43Z</time>
      </trkpt>
      <trkpt lat="44.03038" lon="1.93521">
        <ele>279.2</ele>
        <time>2023-07-23T06:37:44Z</time>
      </trkpt>
      <trkpt lat="44.03039" lon="1.93526">
        <ele>279.2</ele>
        <time>2023-07-23T06:37:45Z</time>
      </trkpt>
      <trkpt lat="44.0304" lon="1.9353">
        <ele>279.2</ele>
        <time>2023-07-23T06:37:46Z</time>
      </trkpt>
      <trkpt lat="44.03042" lon="1.93535">
        <ele>279.2</ele>
        <time>2023-07-23T06:37:47Z</time>
      </trkpt>
      <trkpt lat="44.03043" lon="1.93539">
        <ele>279.2</ele>
        <time>2023-07-23T06:37:48Z</time>
      </trkpt>
      <trkpt lat="44.03054" lon="1.93563">
        <ele>279.4</ele>
        <time>2023-07-23T06:37:54Z</time>
      </trkpt>
      <trkpt lat="44.03056" lon="1.93568">
        <ele>279.4</ele>
        <time>2023-07-23T06:37:55Z</time>
      </trkpt>
      <trkpt lat="44.0307" lon="1.93601">
        <ele>279.4</ele>
        <time>2023-07-23T06:38:02Z</time>
      </trkpt>
      <trkpt lat="44.03087" lon="1.93635">
        <ele>279.6</ele>
        <time>2023-07-23T06:38:10Z</time>
      </trkpt>
      <trkpt lat="44.03089" lon="1.93639">
        <ele>279.6</ele>
        <time>2023-07-23T06:38:11Z</time>
      </trkpt>
      <trkpt lat="44.03092" lon="1.93642">
        <ele>279.6</ele>
        <time>2023-07-23T06:38:12Z</time>
      </trkpt>
      <trkpt lat="44.03109" lon="1.9366">
        <ele>279.6</ele>
        <time>2023-07-23T06:38:18Z</time>
      </trkpt>
      <trkpt lat="44.03113" lon="1.93666">
        <ele>279.6</ele>
        <time>2023-07-23T06:38:20Z</time>
      </trkpt>
      <trkpt lat="44.03122" lon="1.93684">
        <ele>279.6</ele>
        <time>2023-07-23T06:38:24Z</time>
      </trkpt>
      <trkpt lat="44.0313" lon="1.93695">
        <ele>279.6</ele>
        <time>2023-07-23T06:38:27Z</time>
      </trkpt>
      <trkpt lat="44.03137" lon="1.93709">
        <ele>279.4</ele>
        <time>2023-07-23T06:38:30Z</time>
      </trkpt>
      <trkpt lat="44.03143" lon="1.93728">
        <ele>279.2</ele>
        <time>2023-07-23T06:38:34Z</time>
      </trkpt>
      <trkpt lat="44.03147" lon="1.93755">
        <ele>278.8</ele>
        <time>2023-07-23T06:38:38Z</time>
      </trkpt>
      <trkpt lat="44.03148" lon="1.93763">
        <ele>278.6</ele>
        <time>2023-07-23T06:38:39Z</time>
      </trkpt>
      <trkpt lat="44.0315" lon="1.93773">
        <ele>278.4</ele>
        <time>2023-07-23T06:38:40Z</time>
      </trkpt>
      <trkpt lat="44.03153" lon="1.93794">
        <ele>277.2</ele>
        <time>2023-07-23T06:38:42Z</time>
      </trkpt>
      <trkpt lat="44.03157" lon="1.93813">
        <ele>276.4</ele>
        <time>2023-07-23T06:38:44Z</time>
      </trkpt>
      <trkpt lat="44.03159" lon="1.9382">
        <ele>276.2</ele>
        <time>2023-07-23T06:38:45Z</time>
      </trkpt>
      <trkpt lat="44.03163" lon="1.93825">
        <ele>275.6</ele>
        <time>2023-07-23T06:38:46Z</time>
      </trkpt>
      <trkpt lat="44.03168" lon="1.93829">
        <ele>275.4</ele>
        <time>2023-07-23T06:38:47Z</time>
      </trkpt>
      <trkpt lat="44.03173" lon="1.93832">
        <ele>274.6</ele>
        <time>2023-07-23T06:38:48Z</time>
      </trkpt>
      <trkpt lat="44.03179" lon="1.93836">
        <ele>274</ele>
        <time>2023-07-23T06:38:49Z</time>
      </trkpt>
      <trkpt lat="44.03185" lon="1.93839">
        <ele>273.6</ele>
        <time>2023-07-23T06:38:50Z</time>
      </trkpt>
      <trkpt lat="44.03191" lon="1.93841">
        <ele>273</ele>
        <time>2023-07-23T06:38:51Z</time>
      </trkpt>
      <trkpt lat="44.03197" lon="1.93843">
        <ele>272.8</ele>
        <time>2023-07-23T06:38:52Z</time>
      </trkpt>
      <trkpt lat="44.03204" lon="1.93845">
        <ele>272</ele>
        <time>2023-07-23T06:38:53Z</time>
      </trkpt>
      <trkpt lat="44.03217" lon="1.93847">
        <ele>270.8</ele>
        <time>2023-07-23T06:38:55Z</time>
      </trkpt>
      <trkpt lat="44.03231" lon="1.93848">
        <ele>269.6</ele>
        <time>2023-07-23T06:38:57Z</time>
      </trkpt>
      <trkpt lat="44.03244" lon="1.93853">
        <ele>269</ele>
        <time>2023-07-23T06:38:59Z</time>
      </trkpt>
      <trkpt lat="44.03255" lon="1.93863">
        <ele>268.6</ele>
        <time>2023-07-23T06:39:01Z</time>
      </trkpt>
      <trkpt lat="44.0326" lon="1.93869">
        <ele>268.2</ele>
        <time>2023-07-23T06:39:02Z</time>
      </trkpt>
      <trkpt lat="44.03264" lon="1.93875">
        <ele>268</ele>
        <time>2023-07-23T06:39:03Z</time>
      </trkpt>
      <trkpt lat="44.03268" lon="1.93882">
        <ele>267.6</ele>
        <time>2023-07-23T06:39:04Z</time>
      </trkpt>
      <trkpt lat="44.03277" lon="1.93895">
        <ele>266.8</ele>
        <time>2023-07-23T06:39:06Z</time>
      </trkpt>
      <trkpt lat="44.03281" lon="1.93901">
        <ele>266.2</ele>
        <time>2023-07-23T06:39:07Z</time>
      </trkpt>
      <trkpt lat="44.03289" lon="1.93915">
        <ele>265.8</ele>
        <time>2023-07-23T06:39:09Z</time>
      </trkpt>
      <trkpt lat="44.03292" lon="1.93922">
        <ele>265.8</ele>
        <time>2023-07-23T06:39:10Z</time>
      </trkpt>
      <trkpt lat="44.03295" lon="1.93929">
        <ele>265.2</ele>
        <time>2023-07-23T06:39:11Z</time>
      </trkpt>
      <trkpt lat="44.03298" lon="1.93935">
        <ele>265</ele>
        <time>2023-07-23T06:39:12Z</time>
      </trkpt>
      <trkpt lat="44.03302" lon="1.93941">
        <ele>264.4</ele>
        <time>2023-07-23T06:39:13Z</time>
      </trkpt>
      <trkpt lat="44.03306" lon="1.93947">
        <ele>264.2</ele>
        <time>2023-07-23T06:39:14Z</time>
      </trkpt>
      <trkpt lat="44.03323" lon="1.93972">
        <ele>263.2</ele>
        <time>2023-07-23T06:39:18Z</time>
      </trkpt>
      <trkpt lat="44.0333" lon="1.93997">
        <ele>262.4</ele>
        <time>2023-07-23T06:39:21Z</time>
      </trkpt>
      <trkpt lat="44.03332" lon="1.94005">
        <ele>262.4</ele>
        <time>2023-07-23T06:39:22Z</time>
      </trkpt>
      <trkpt lat="44.03339" lon="1.94021">
        <ele>261.8</ele>
        <time>2023-07-23T06:39:24Z</time>
      </trkpt>
      <trkpt lat="44.03352" lon="1.94046">
        <ele>260.2</ele>
        <time>2023-07-23T06:39:27Z</time>
      </trkpt>
      <trkpt lat="44.03357" lon="1.94053">
        <ele>259.4</ele>
        <time>2023-07-23T06:39:28Z</time>
      </trkpt>
      <trkpt lat="44.03361" lon="1.9406">
        <ele>257.4</ele>
        <time>2023-07-23T06:39:29Z</time>
      </trkpt>
      <trkpt lat="44.03364" lon="1.94065">
        <ele>256</ele>
        <time>2023-07-23T06:39:30Z</time>
      </trkpt>
      <trkpt lat="44.03367" lon="1.9407">
        <ele>255.4</ele>
        <time>2023-07-23T06:39:31Z</time>
      </trkpt>
      <trkpt lat="44.03371" lon="1.94073">
        <ele>254.4</ele>
        <time>2023-07-23T06:39:32Z</time>
      </trkpt>
      <trkpt lat="44.03375" lon="1.94076">
        <ele>254</ele>
        <time>2023-07-23T06:39:33Z</time>
      </trkpt>
      <trkpt lat="44.03378" lon="1.94078">
        <ele>252.6</ele>
        <time>2023-07-23T06:39:34Z</time>
      </trkpt>
      <trkpt lat="44.03382" lon="1.94079">
        <ele>252.4</ele>
        <time>2023-07-23T06:39:35Z</time>
      </trkpt>
      <trkpt lat="44.03386" lon="1.94078">
        <ele>251.4</ele>
        <time>2023-07-23T06:39:36Z</time>
      </trkpt>
      <trkpt lat="44.0339" lon="1.94077">
        <ele>250.4</ele>
        <time>2023-07-23T06:39:37Z</time>
      </trkpt>
      <trkpt lat="44.03394" lon="1.94074">
        <ele>250</ele>
        <time>2023-07-23T06:39:38Z</time>
      </trkpt>
      <trkpt lat="44.03399" lon="1.94071">
        <ele>249.4</ele>
        <time>2023-07-23T06:39:39Z</time>
      </trkpt>
      <trkpt lat="44.03403" lon="1.94067">
        <ele>249</ele>
        <time>2023-07-23T06:39:40Z</time>
      </trkpt>
      <trkpt lat="44.03408" lon="1.94063">
        <ele>248.2</ele>
        <time>2023-07-23T06:39:41Z</time>
      </trkpt>
      <trkpt lat="44.03412" lon="1.94058">
        <ele>247.8</ele>
        <time>2023-07-23T06:39:42Z</time>
      </trkpt>
      <trkpt lat="44.03416" lon="1.94053">
        <ele>247.2</ele>
        <time>2023-07-23T06:39:43Z</time>
      </trkpt>
      <trkpt lat="44.03423" lon="1.94041">
        <ele>246.8</ele>
        <time>2023-07-23T06:39:45Z</time>
      </trkpt>
      <trkpt lat="44.03426" lon="1.94034">
        <ele>246.4</ele>
        <time>2023-07-23T06:39:46Z</time>
      </trkpt>
      <trkpt lat="44.03429" lon="1.94026">
        <ele>246.2</ele>
        <time>2023-07-23T06:39:47Z</time>
      </trkpt>
      <trkpt lat="44.03431" lon="1.94021">
        <ele>245.4</ele>
        <time>2023-07-23T06:39:48Z</time>
      </trkpt>
      <trkpt lat="44.03432" lon="1.94016">
        <ele>245</ele>
        <time>2023-07-23T06:39:49Z</time>
      </trkpt>
      <trkpt lat="44.03433" lon="1.94012">
        <ele>244.8</ele>
        <time>2023-07-23T06:39:50Z</time>
      </trkpt>
      <trkpt lat="44.03435" lon="1.94008">
        <ele>244.6</ele>
        <time>2023-07-23T06:39:51Z</time>
      </trkpt>
      <trkpt lat="44.03436" lon="1.94004">
        <ele>244.2</ele>
        <time>2023-07-23T06:39:52Z</time>
      </trkpt>
      <trkpt lat="44.03437" lon="1.94">
        <ele>243.8</ele>
        <time>2023-07-23T06:39:53Z</time>
      </trkpt>
      <trkpt lat="44.03439" lon="1.93996">
        <ele>243.6</ele>
        <time>2023-07-23T06:39:54Z</time>
      </trkpt>
      <trkpt lat="44.0344" lon="1.93992">
        <ele>243.2</ele>
        <time>2023-07-23T06:39:55Z</time>
      </trkpt>
      <trkpt lat="44.03442" lon="1.93988">
        <ele>243</ele>
        <time>2023-07-23T06:39:56Z</time>
      </trkpt>
      <trkpt lat="44.03444" lon="1.93986">
        <ele>242.8</ele>
        <time>2023-07-23T06:39:57Z</time>
      </trkpt>
      <trkpt lat="44.03446" lon="1.93982">
        <ele>242.6</ele>
        <time>2023-07-23T06:39:58Z</time>
      </trkpt>
      <trkpt lat="44.03454" lon="1.9397">
        <ele>242</ele>
        <time>2023-07-23T06:40:01Z</time>
      </trkpt>
      <trkpt lat="44.03459" lon="1.93961">
        <ele>241.8</ele>
        <time>2023-07-23T06:40:03Z</time>
      </trkpt>
      <trkpt lat="44.03466" lon="1.93946">
        <ele>241.4</ele>
        <time>2023-07-23T06:40:06Z</time>
      </trkpt>
      <trkpt lat="44.03467" lon="1.93943">
        <ele>241.2</ele>
        <time>2023-07-23T06:40:07Z</time>
      </trkpt>
      <trkpt lat="44.03468" lon="1.9394">
        <ele>240.6</ele>
        <time>2023-07-23T06:40:08Z</time>
      </trkpt>
      <trkpt lat="44.0347" lon="1.93935">
        <ele>240</ele>
        <time>2023-07-23T06:40:09Z</time>
      </trkpt>
      <trkpt lat="44.0347" lon="1.93932">
        <ele>239.8</ele>
        <time>2023-07-23T06:40:10Z</time>
      </trkpt>
      <trkpt lat="44.03472" lon="1.93929">
        <ele>239.6</ele>
        <time>2023-07-23T06:40:11Z</time>
      </trkpt>
      <trkpt lat="44.03473" lon="1.93928">
        <ele>239.6</ele>
        <time>2023-07-23T06:40:12Z</time>
      </trkpt>
      <trkpt lat="44.03474" lon="1.93927">
        <ele>239.4</ele>
        <time>2023-07-23T06:40:13Z</time>
      </trkpt>
      <trkpt lat="44.03475" lon="1.93926">
        <ele>239.4</ele>
        <time>2023-07-23T06:40:14Z</time>
      </trkpt>
      <trkpt lat="44.03476" lon="1.93925">
        <ele>239.4</ele>
        <time>2023-07-23T06:40:15Z</time>
      </trkpt>
      <trkpt lat="44.03476" lon="1.93924">
        <ele>239.4</ele>
        <time>2023-07-23T06:40:16Z</time>
      </trkpt>
      <trkpt lat="44.03476" lon="1.93924">
        <ele>239.4</ele>
        <time>2023-07-23T06:40:17Z</time>
      </trkpt>
      <trkpt lat="44.03476" lon="1.93924">
        <ele>239.4</ele>
        <time>2023-07-23T06:40:18Z</time>
      </trkpt>
      <trkpt lat="44.03481" lon="1.93913">
        <ele>238.8</ele>
        <time>2023-07-23T06:40:33Z</time>
      </trkpt>
      <trkpt lat="44.03483" lon="1.93911">
        <ele>238.6</ele>
        <time>2023-07-23T06:40:34Z</time>
      </trkpt>
      <trkpt lat="44.03485" lon="1.93909">
        <ele>238.6</ele>
        <time>2023-07-23T06:40:35Z</time>
      </trkpt>
      <trkpt lat="44.03487" lon="1.93906">
        <ele>238.6</ele>
        <time>2023-07-23T06:40:36Z</time>
      </trkpt>
      <trkpt lat="44.03489" lon="1.93903">
        <ele>238.6</ele>
        <time>2023-07-23T06:40:37Z</time>
      </trkpt>
      <trkpt lat="44.03497" lon="1.93891">
        <ele>238.6</ele>
        <time>2023-07-23T06:40:40Z</time>
      </trkpt>
      <trkpt lat="44.03505" lon="1.9388">
        <ele>238.6</ele>
        <time>2023-07-23T06:40:43Z</time>
      </trkpt>
      <trkpt lat="44.03517" lon="1.93865">
        <ele>238.4</ele>
        <time>2023-07-23T06:40:47Z</time>
      </trkpt>
      <trkpt lat="44.03521" lon="1.93862">
        <ele>238.4</ele>
        <time>2023-07-23T06:40:48Z</time>
      </trkpt>
      <trkpt lat="44.03524" lon="1.93857">
        <ele>238.4</ele>
        <time>2023-07-23T06:40:49Z</time>
      </trkpt>
      <trkpt lat="44.0353" lon="1.9385">
        <ele>238.2</ele>
        <time>2023-07-23T06:40:51Z</time>
      </trkpt>
      <trkpt lat="44.03537" lon="1.9384">
        <ele>237.4</ele>
        <time>2023-07-23T06:40:54Z</time>
      </trkpt>
      <trkpt lat="44.03544" lon="1.93831">
        <ele>237.2</ele>
        <time>2023-07-23T06:40:56Z</time>
      </trkpt>
      <trkpt lat="44.03577" lon="1.93789">
        <ele>236.4</ele>
        <time>2023-07-23T06:41:06Z</time>
      </trkpt>
      <trkpt lat="44.0358" lon="1.93786">
        <ele>236.4</ele>
        <time>2023-07-23T06:41:07Z</time>
      </trkpt>
      <trkpt lat="44.03595" lon="1.93769">
        <ele>236.4</ele>
        <time>2023-07-23T06:41:12Z</time>
      </trkpt>
      <trkpt lat="44.03598" lon="1.93765">
        <ele>236.4</ele>
        <time>2023-07-23T06:41:13Z</time>
      </trkpt>
      <trkpt lat="44.03601" lon="1.93762">
        <ele>236.4</ele>
        <time>2023-07-23T06:41:14Z</time>
      </trkpt>
      <trkpt lat="44.03605" lon="1.93759">
        <ele>236.4</ele>
        <time>2023-07-23T06:41:15Z</time>
      </trkpt>
      <trkpt lat="44.03608" lon="1.93755">
        <ele>236.4</ele>
        <time>2023-07-23T06:41:16Z</time>
      </trkpt>
      <trkpt lat="44.03635" lon="1.93728">
        <ele>236.8</ele>
        <time>2023-07-23T06:41:23Z</time>
      </trkpt>
      <trkpt lat="44.03673" lon="1.93701">
        <ele>235.6</ele>
        <time>2023-07-23T06:41:31Z</time>
      </trkpt>
      <trkpt lat="44.03678" lon="1.93698">
        <ele>235.4</ele>
        <time>2023-07-23T06:41:32Z</time>
      </trkpt>
      <trkpt lat="44.03696" lon="1.93685">
        <ele>234.2</ele>
        <time>2023-07-23T06:41:35Z</time>
      </trkpt>
      <trkpt lat="44.037" lon="1.93682">
        <ele>234.2</ele>
        <time>2023-07-23T06:41:36Z</time>
      </trkpt>
      <trkpt lat="44.03711" lon="1.93675">
        <ele>233.6</ele>
        <time>2023-07-23T06:41:38Z</time>
      </trkpt>
      <trkpt lat="44.03718" lon="1.93671">
        <ele>233.4</ele>
        <time>2023-07-23T06:41:39Z</time>
      </trkpt>
      <trkpt lat="44.03728" lon="1.93667">
        <ele>233</ele>
        <time>2023-07-23T06:41:41Z</time>
      </trkpt>
      <trkpt lat="44.03734" lon="1.93665">
        <ele>232.8</ele>
        <time>2023-07-23T06:41:42Z</time>
      </trkpt>
      <trkpt lat="44.0374" lon="1.93663">
        <ele>232.6</ele>
        <time>2023-07-23T06:41:43Z</time>
      </trkpt>
      <trkpt lat="44.03746" lon="1.93664">
        <ele>232.4</ele>
        <time>2023-07-23T06:41:44Z</time>
      </trkpt>
      <trkpt lat="44.03753" lon="1.93667">
        <ele>231.4</ele>
        <time>2023-07-23T06:41:45Z</time>
      </trkpt>
      <trkpt lat="44.03759" lon="1.93672">
        <ele>231</ele>
        <time>2023-07-23T06:41:46Z</time>
      </trkpt>
      <trkpt lat="44.03765" lon="1.9368">
        <ele>230</ele>
        <time>2023-07-23T06:41:47Z</time>
      </trkpt>
      <trkpt lat="44.03771" lon="1.93688">
        <ele>229.8</ele>
        <time>2023-07-23T06:41:48Z</time>
      </trkpt>
      <trkpt lat="44.03777" lon="1.93695">
        <ele>229.2</ele>
        <time>2023-07-23T06:41:49Z</time>
      </trkpt>
      <trkpt lat="44.03782" lon="1.93702">
        <ele>229</ele>
        <time>2023-07-23T06:41:50Z</time>
      </trkpt>
      <trkpt lat="44.03789" lon="1.93706">
        <ele>228.2</ele>
        <time>2023-07-23T06:41:51Z</time>
      </trkpt>
      <trkpt lat="44.03794" lon="1.93706">
        <ele>227.6</ele>
        <time>2023-07-23T06:41:52Z</time>
      </trkpt>
      <trkpt lat="44.03799" lon="1.93704">
        <ele>226.8</ele>
        <time>2023-07-23T06:41:53Z</time>
      </trkpt>
      <trkpt lat="44.03802" lon="1.93702">
        <ele>226</ele>
        <time>2023-07-23T06:41:54Z</time>
      </trkpt>
      <trkpt lat="44.03806" lon="1.93699">
        <ele>225.6</ele>
        <time>2023-07-23T06:41:55Z</time>
      </trkpt>
      <trkpt lat="44.0381" lon="1.93697">
        <ele>225</ele>
        <time>2023-07-23T06:41:56Z</time>
      </trkpt>
      <trkpt lat="44.03813" lon="1.93694">
        <ele>224.8</ele>
        <time>2023-07-23T06:41:57Z</time>
      </trkpt>
      <trkpt lat="44.03817" lon="1.93691">
        <ele>224.4</ele>
        <time>2023-07-23T06:41:58Z</time>
      </trkpt>
      <trkpt lat="44.03825" lon="1.93687">
        <ele>224.4</ele>
        <time>2023-07-23T06:42:00Z</time>
      </trkpt>
      <trkpt lat="44.03842" lon="1.93677">
        <ele>224</ele>
        <time>2023-07-23T06:42:04Z</time>
      </trkpt>
      <trkpt lat="44.03846" lon="1.93675">
        <ele>223.6</ele>
        <time>2023-07-23T06:42:05Z</time>
      </trkpt>
      <trkpt lat="44.03855" lon="1.9367">
        <ele>223</ele>
        <time>2023-07-23T06:42:07Z</time>
      </trkpt>
      <trkpt lat="44.03865" lon="1.93668">
        <ele>222.6</ele>
        <time>2023-07-23T06:42:09Z</time>
      </trkpt>
      <trkpt lat="44.03871" lon="1.93668">
        <ele>222.2</ele>
        <time>2023-07-23T06:42:10Z</time>
      </trkpt>
      <trkpt lat="44.03875" lon="1.93669">
        <ele>222</ele>
        <time>2023-07-23T06:42:11Z</time>
      </trkpt>
      <trkpt lat="44.0388" lon="1.93672">
        <ele>221.6</ele>
        <time>2023-07-23T06:42:12Z</time>
      </trkpt>
      <trkpt lat="44.03885" lon="1.93673">
        <ele>221.6</ele>
        <time>2023-07-23T06:42:13Z</time>
      </trkpt>
      <trkpt lat="44.0389" lon="1.93674">
        <ele>221.2</ele>
        <time>2023-07-23T06:42:14Z</time>
      </trkpt>
      <trkpt lat="44.03895" lon="1.93676">
        <ele>221</ele>
        <time>2023-07-23T06:42:15Z</time>
      </trkpt>
      <trkpt lat="44.03905" lon="1.93681">
        <ele>219.8</ele>
        <time>2023-07-23T06:42:17Z</time>
      </trkpt>
      <trkpt lat="44.03923" lon="1.93689">
        <ele>219.4</ele>
        <time>2023-07-23T06:42:21Z</time>
      </trkpt>
      <trkpt lat="44.03942" lon="1.93704">
        <ele>218.6</ele>
        <time>2023-07-23T06:42:25Z</time>
      </trkpt>
      <trkpt lat="44.03945" lon="1.93707">
        <ele>218.4</ele>
        <time>2023-07-23T06:42:26Z</time>
      </trkpt>
      <trkpt lat="44.03947" lon="1.9371">
        <ele>218.2</ele>
        <time>2023-07-23T06:42:27Z</time>
      </trkpt>
      <trkpt lat="44.0395" lon="1.93715">
        <ele>218.2</ele>
        <time>2023-07-23T06:42:28Z</time>
      </trkpt>
      <trkpt lat="44.03954" lon="1.93721">
        <ele>218</ele>
        <time>2023-07-23T06:42:29Z</time>
      </trkpt>
      <trkpt lat="44.03957" lon="1.93725">
        <ele>217.8</ele>
        <time>2023-07-23T06:42:30Z</time>
      </trkpt>
      <trkpt lat="44.03963" lon="1.93739">
        <ele>217.6</ele>
        <time>2023-07-23T06:42:33Z</time>
      </trkpt>
      <trkpt lat="44.0398" lon="1.93759">
        <ele>217.4</ele>
        <time>2023-07-23T06:42:36Z</time>
      </trkpt>
      <trkpt lat="44.03984" lon="1.93764">
        <ele>217.2</ele>
        <time>2023-07-23T06:42:37Z</time>
      </trkpt>
      <trkpt lat="44.0399" lon="1.93769">
        <ele>217.2</ele>
        <time>2023-07-23T06:42:38Z</time>
      </trkpt>
      <trkpt lat="44.04001" lon="1.93781">
        <ele>217</ele>
        <time>2023-07-23T06:42:40Z</time>
      </trkpt>
      <trkpt lat="44.04007" lon="1.93787">
        <ele>216.6</ele>
        <time>2023-07-23T06:42:41Z</time>
      </trkpt>
      <trkpt lat="44.04013" lon="1.93791">
        <ele>216.4</ele>
        <time>2023-07-23T06:42:42Z</time>
      </trkpt>
      <trkpt lat="44.04019" lon="1.93795">
        <ele>216.4</ele>
        <time>2023-07-23T06:42:43Z</time>
      </trkpt>
      <trkpt lat="44.04045" lon="1.93817">
        <ele>215.6</ele>
        <time>2023-07-23T06:42:48Z</time>
      </trkpt>
      <trkpt lat="44.0405" lon="1.9382">
        <ele>215.4</ele>
        <time>2023-07-23T06:42:49Z</time>
      </trkpt>
      <trkpt lat="44.04054" lon="1.93823">
        <ele>215.2</ele>
        <time>2023-07-23T06:42:50Z</time>
      </trkpt>
      <trkpt lat="44.04058" lon="1.93827">
        <ele>215</ele>
        <time>2023-07-23T06:42:51Z</time>
      </trkpt>
      <trkpt lat="44.04062" lon="1.9383">
        <ele>215</ele>
        <time>2023-07-23T06:42:52Z</time>
      </trkpt>
      <trkpt lat="44.04066" lon="1.93833">
        <ele>214.6</ele>
        <time>2023-07-23T06:42:53Z</time>
      </trkpt>
      <trkpt lat="44.0407" lon="1.93836">
        <ele>214.4</ele>
        <time>2023-07-23T06:42:54Z</time>
      </trkpt>
      <trkpt lat="44.04074" lon="1.9384">
        <ele>214.4</ele>
        <time>2023-07-23T06:42:55Z</time>
      </trkpt>
      <trkpt lat="44.04077" lon="1.93843">
        <ele>214.2</ele>
        <time>2023-07-23T06:42:56Z</time>
      </trkpt>
      <trkpt lat="44.04087" lon="1.93852">
        <ele>214</ele>
        <time>2023-07-23T06:42:59Z</time>
      </trkpt>
      <trkpt lat="44.04092" lon="1.93855">
        <ele>214</ele>
        <time>2023-07-23T06:43:00Z</time>
      </trkpt>
      <trkpt lat="44.04105" lon="1.93865">
        <ele>213.8</ele>
        <time>2023-07-23T06:43:03Z</time>
      </trkpt>
      <trkpt lat="44.04108" lon="1.93867">
        <ele>213.6</ele>
        <time>2023-07-23T06:43:04Z</time>
      </trkpt>
      <trkpt lat="44.04112" lon="1.93869">
        <ele>213.8</ele>
        <time>2023-07-23T06:43:05Z</time>
      </trkpt>
      <trkpt lat="44.04116" lon="1.93872">
        <ele>213.6</ele>
        <time>2023-07-23T06:43:06Z</time>
      </trkpt>
      <trkpt lat="44.0412" lon="1.93874">
        <ele>213.6</ele>
        <time>2023-07-23T06:43:07Z</time>
      </trkpt>
      <trkpt lat="44.04133" lon="1.93882">
        <ele>213.4</ele>
        <time>2023-07-23T06:43:11Z</time>
      </trkpt>
      <trkpt lat="44.04136" lon="1.93884">
        <ele>213.8</ele>
        <time>2023-07-23T06:43:12Z</time>
      </trkpt>
      <trkpt lat="44.04139" lon="1.93886">
        <ele>213.8</ele>
        <time>2023-07-23T06:43:13Z</time>
      </trkpt>
      <trkpt lat="44.0414" lon="1.93887">
        <ele>213.8</ele>
        <time>2023-07-23T06:43:14Z</time>
      </trkpt>
      <trkpt lat="44.04142" lon="1.93889">
        <ele>213.8</ele>
        <time>2023-07-23T06:43:15Z</time>
      </trkpt>
      <trkpt lat="44.04143" lon="1.93889">
        <ele>213.6</ele>
        <time>2023-07-23T06:43:16Z</time>
      </trkpt>
      <trkpt lat="44.04143" lon="1.93889">
        <ele>213.6</ele>
        <time>2023-07-23T06:43:17Z</time>
      </trkpt>
      <trkpt lat="44.04143" lon="1.93889">
        <ele>213.6</ele>
        <time>2023-07-23T06:43:18Z</time>
      </trkpt>
      <trkpt lat="44.04143" lon="1.93889">
        <ele>213.6</ele>
        <time>2023-07-23T06:43:19Z</time>
      </trkpt>
      <trkpt lat="44.04148" lon="1.93891">
        <ele>213.2</ele>
        <time>2023-07-23T06:43:42Z</time>
      </trkpt>
      <trkpt lat="44.04151" lon="1.93893">
        <ele>213.2</ele>
        <time>2023-07-23T06:43:43Z</time>
      </trkpt>
      <trkpt lat="44.04164" lon="1.93901">
        <ele>213</ele>
        <time>2023-07-23T06:43:46Z</time>
      </trkpt>
      <trkpt lat="44.0418" lon="1.93912">
        <ele>212.4</ele>
        <time>2023-07-23T06:43:50Z</time>
      </trkpt>
      <trkpt lat="44.04184" lon="1.93916">
        <ele>212.4</ele>
        <time>2023-07-23T06:43:51Z</time>
      </trkpt>
      <trkpt lat="44.04187" lon="1.93919">
        <ele>212.2</ele>
        <time>2023-07-23T06:43:52Z</time>
      </trkpt>
      <trkpt lat="44.04191" lon="1.93922">
        <ele>212.2</ele>
        <time>2023-07-23T06:43:53Z</time>
      </trkpt>
      <trkpt lat="44.04194" lon="1.93924">
        <ele>212.2</ele>
        <time>2023-07-23T06:43:54Z</time>
      </trkpt>
      <trkpt lat="44.042" lon="1.93929">
        <ele>212.2</ele>
        <time>2023-07-23T06:43:56Z</time>
      </trkpt>
      <trkpt lat="44.04202" lon="1.9393">
        <ele>212.2</ele>
        <time>2023-07-23T06:43:57Z</time>
      </trkpt>
      <trkpt lat="44.04205" lon="1.93932">
        <ele>212.2</ele>
        <time>2023-07-23T06:43:58Z</time>
      </trkpt>
      <trkpt lat="44.04207" lon="1.93933">
        <ele>212.2</ele>
        <time>2023-07-23T06:43:59Z</time>
      </trkpt>
      <trkpt lat="44.0421" lon="1.93935">
        <ele>212.2</ele>
        <time>2023-07-23T06:44:00Z</time>
      </trkpt>
      <trkpt lat="44.04219" lon="1.93943">
        <ele>212.2</ele>
        <time>2023-07-23T06:44:04Z</time>
      </trkpt>
      <trkpt lat="44.04236" lon="1.93963">
        <ele>212</ele>
        <time>2023-07-23T06:44:10Z</time>
      </trkpt>
      <trkpt lat="44.04247" lon="1.93984">
        <ele>211.4</ele>
        <time>2023-07-23T06:44:15Z</time>
      </trkpt>
      <trkpt lat="44.04252" lon="1.93995">
        <ele>211.2</ele>
        <time>2023-07-23T06:44:17Z</time>
      </trkpt>
      <trkpt lat="44.04261" lon="1.94012">
        <ele>210.6</ele>
        <time>2023-07-23T06:44:20Z</time>
      </trkpt>
      <trkpt lat="44.04273" lon="1.94031">
        <ele>210</ele>
        <time>2023-07-23T06:44:23Z</time>
      </trkpt>
      <trkpt lat="44.04285" lon="1.94047">
        <ele>208.8</ele>
        <time>2023-07-23T06:44:25Z</time>
      </trkpt>
      <trkpt lat="44.04302" lon="1.94076">
        <ele>207.8</ele>
        <time>2023-07-23T06:44:28Z</time>
      </trkpt>
      <trkpt lat="44.04307" lon="1.94087">
        <ele>206.6</ele>
        <time>2023-07-23T06:44:29Z</time>
      </trkpt>
      <trkpt lat="44.04312" lon="1.94097">
        <ele>206.2</ele>
        <time>2023-07-23T06:44:30Z</time>
      </trkpt>
      <trkpt lat="44.04316" lon="1.94106">
        <ele>205.6</ele>
        <time>2023-07-23T06:44:31Z</time>
      </trkpt>
      <trkpt lat="44.04321" lon="1.94115">
        <ele>205</ele>
        <time>2023-07-23T06:44:32Z</time>
      </trkpt>
      <trkpt lat="44.04326" lon="1.94122">
        <ele>204.8</ele>
        <time>2023-07-23T06:44:33Z</time>
      </trkpt>
      <trkpt lat="44.04329" lon="1.94127">
        <ele>204</ele>
        <time>2023-07-23T06:44:34Z</time>
      </trkpt>
      <trkpt lat="44.04333" lon="1.94129">
        <ele>203.6</ele>
        <time>2023-07-23T06:44:35Z</time>
      </trkpt>
      <trkpt lat="44.04335" lon="1.9413">
        <ele>203.2</ele>
        <time>2023-07-23T06:44:36Z</time>
      </trkpt>
      <trkpt lat="44.04338" lon="1.9413">
        <ele>203.2</ele>
        <time>2023-07-23T06:44:37Z</time>
      </trkpt>
      <trkpt lat="44.04339" lon="1.94129">
        <ele>203.2</ele>
        <time>2023-07-23T06:44:38Z</time>
      </trkpt>
      <trkpt lat="44.04341" lon="1.94127">
        <ele>203.2</ele>
        <time>2023-07-23T06:44:39Z</time>
      </trkpt>
      <trkpt lat="44.04343" lon="1.94126">
        <ele>203</ele>
        <time>2023-07-23T06:44:40Z</time>
      </trkpt>
      <trkpt lat="44.04345" lon="1.94124">
        <ele>203.2</ele>
        <time>2023-07-23T06:44:41Z</time>
      </trkpt>
      <trkpt lat="44.04346" lon="1.94123">
        <ele>203.2</ele>
        <time>2023-07-23T06:44:42Z</time>
      </trkpt>
      <trkpt lat="44.04349" lon="1.94121">
        <ele>203.4</ele>
        <time>2023-07-23T06:44:43Z</time>
      </trkpt>
      <trkpt lat="44.04365" lon="1.94104">
        <ele>203.4</ele>
        <time>2023-07-23T06:44:49Z</time>
      </trkpt>
      <trkpt lat="44.04383" lon="1.94089">
        <ele>203.6</ele>
        <time>2023-07-23T06:44:54Z</time>
      </trkpt>
      <trkpt lat="44.04398" lon="1.9408">
        <ele>204</ele>
        <time>2023-07-23T06:44:58Z</time>
      </trkpt>
      <trkpt lat="44.04442" lon="1.94064">
        <ele>204.4</ele>
        <time>2023-07-23T06:45:08Z</time>
      </trkpt>
      <trkpt lat="44.04449" lon="1.94062">
        <ele>204.6</ele>
        <time>2023-07-23T06:45:10Z</time>
      </trkpt>
      <trkpt lat="44.04452" lon="1.94061">
        <ele>204.8</ele>
        <time>2023-07-23T06:45:11Z</time>
      </trkpt>
      <trkpt lat="44.04455" lon="1.94061">
        <ele>205</ele>
        <time>2023-07-23T06:45:12Z</time>
      </trkpt>
      <trkpt lat="44.04458" lon="1.94061">
        <ele>205.2</ele>
        <time>2023-07-23T06:45:13Z</time>
      </trkpt>
      <trkpt lat="44.04461" lon="1.94061">
        <ele>205.2</ele>
        <time>2023-07-23T06:45:14Z</time>
      </trkpt>
      <trkpt lat="44.04464" lon="1.9406">
        <ele>205.4</ele>
        <time>2023-07-23T06:45:15Z</time>
      </trkpt>
      <trkpt lat="44.04478" lon="1.94056">
        <ele>205.8</ele>
        <time>2023-07-23T06:45:19Z</time>
      </trkpt>
      <trkpt lat="44.04484" lon="1.94055">
        <ele>206.2</ele>
        <time>2023-07-23T06:45:21Z</time>
      </trkpt>
      <trkpt lat="44.04511" lon="1.94044">
        <ele>207</ele>
        <time>2023-07-23T06:45:29Z</time>
      </trkpt>
      <trkpt lat="44.04517" lon="1.94038">
        <ele>207.2</ele>
        <time>2023-07-23T06:45:31Z</time>
      </trkpt>
      <trkpt lat="44.04519" lon="1.94035">
        <ele>207.2</ele>
        <time>2023-07-23T06:45:32Z</time>
      </trkpt>
      <trkpt lat="44.04522" lon="1.94032">
        <ele>207.4</ele>
        <time>2023-07-23T06:45:33Z</time>
      </trkpt>
      <trkpt lat="44.04525" lon="1.94028">
        <ele>207.4</ele>
        <time>2023-07-23T06:45:34Z</time>
      </trkpt>
      <trkpt lat="44.04527" lon="1.94024">
        <ele>207.6</ele>
        <time>2023-07-23T06:45:35Z</time>
      </trkpt>
      <trkpt lat="44.04529" lon="1.94019">
        <ele>207.6</ele>
        <time>2023-07-23T06:45:36Z</time>
      </trkpt>
      <trkpt lat="44.04531" lon="1.94015">
        <ele>207.6</ele>
        <time>2023-07-23T06:45:37Z</time>
      </trkpt>
      <trkpt lat="44.04532" lon="1.9401">
        <ele>207.8</ele>
        <time>2023-07-23T06:45:38Z</time>
      </trkpt>
      <trkpt lat="44.04533" lon="1.94006">
        <ele>207.8</ele>
        <time>2023-07-23T06:45:39Z</time>
      </trkpt>
      <trkpt lat="44.04535" lon="1.94001">
        <ele>208</ele>
        <time>2023-07-23T06:45:40Z</time>
      </trkpt>
      <trkpt lat="44.04536" lon="1.93996">
        <ele>208</ele>
        <time>2023-07-23T06:45:41Z</time>
      </trkpt>
      <trkpt lat="44.04538" lon="1.93993">
        <ele>208.2</ele>
        <time>2023-07-23T06:45:42Z</time>
      </trkpt>
      <trkpt lat="44.0454" lon="1.93988">
        <ele>208.2</ele>
        <time>2023-07-23T06:45:43Z</time>
      </trkpt>
      <trkpt lat="44.04553" lon="1.93954">
        <ele>209.6</ele>
        <time>2023-07-23T06:45:51Z</time>
      </trkpt>
      <trkpt lat="44.04554" lon="1.9395">
        <ele>209.6</ele>
        <time>2023-07-23T06:45:52Z</time>
      </trkpt>
      <trkpt lat="44.04556" lon="1.93944">
        <ele>209.6</ele>
        <time>2023-07-23T06:45:53Z</time>
      </trkpt>
      <trkpt lat="44.04558" lon="1.9394">
        <ele>209.8</ele>
        <time>2023-07-23T06:45:54Z</time>
      </trkpt>
      <trkpt lat="44.04559" lon="1.93935">
        <ele>210</ele>
        <time>2023-07-23T06:45:55Z</time>
      </trkpt>
      <trkpt lat="44.04561" lon="1.93931">
        <ele>210</ele>
        <time>2023-07-23T06:45:56Z</time>
      </trkpt>
      <trkpt lat="44.04562" lon="1.93928">
        <ele>210.2</ele>
        <time>2023-07-23T06:45:57Z</time>
      </trkpt>
      <trkpt lat="44.04564" lon="1.93923">
        <ele>210.2</ele>
        <time>2023-07-23T06:45:58Z</time>
      </trkpt>
      <trkpt lat="44.04566" lon="1.93919">
        <ele>210.4</ele>
        <time>2023-07-23T06:45:59Z</time>
      </trkpt>
      <trkpt lat="44.04567" lon="1.93914">
        <ele>210.4</ele>
        <time>2023-07-23T06:46:00Z</time>
      </trkpt>
      <trkpt lat="44.04568" lon="1.93911">
        <ele>210.6</ele>
        <time>2023-07-23T06:46:01Z</time>
      </trkpt>
      <trkpt lat="44.0457" lon="1.93907">
        <ele>210.6</ele>
        <time>2023-07-23T06:46:02Z</time>
      </trkpt>
      <trkpt lat="44.04571" lon="1.93902">
        <ele>210.8</ele>
        <time>2023-07-23T06:46:03Z</time>
      </trkpt>
      <trkpt lat="44.04573" lon="1.93897">
        <ele>210.8</ele>
        <time>2023-07-23T06:46:04Z</time>
      </trkpt>
      <trkpt lat="44.04574" lon="1.93894">
        <ele>211</ele>
        <time>2023-07-23T06:46:05Z</time>
      </trkpt>
      <trkpt lat="44.04576" lon="1.93889">
        <ele>211.2</ele>
        <time>2023-07-23T06:46:06Z</time>
      </trkpt>
      <trkpt lat="44.04578" lon="1.93885">
        <ele>211.4</ele>
        <time>2023-07-23T06:46:07Z</time>
      </trkpt>
      <trkpt lat="44.04579" lon="1.9388">
        <ele>211.4</ele>
        <time>2023-07-23T06:46:08Z</time>
      </trkpt>
      <trkpt lat="44.04581" lon="1.93877">
        <ele>211.6</ele>
        <time>2023-07-23T06:46:09Z</time>
      </trkpt>
      <trkpt lat="44.04582" lon="1.93872">
        <ele>211.6</ele>
        <time>2023-07-23T06:46:10Z</time>
      </trkpt>
      <trkpt lat="44.04583" lon="1.93868">
        <ele>211.6</ele>
        <time>2023-07-23T06:46:11Z</time>
      </trkpt>
      <trkpt lat="44.04584" lon="1.93863">
        <ele>211.8</ele>
        <time>2023-07-23T06:46:12Z</time>
      </trkpt>
      <trkpt lat="44.04586" lon="1.93858">
        <ele>211.8</ele>
        <time>2023-07-23T06:46:13Z</time>
      </trkpt>
      <trkpt lat="44.04587" lon="1.93854">
        <ele>212</ele>
        <time>2023-07-23T06:46:14Z</time>
      </trkpt>
      <trkpt lat="44.04588" lon="1.93849">
        <ele>212.2</ele>
        <time>2023-07-23T06:46:15Z</time>
      </trkpt>
      <trkpt lat="44.04589" lon="1.93846">
        <ele>212.2</ele>
        <time>2023-07-23T06:46:16Z</time>
      </trkpt>
      <trkpt lat="44.0459" lon="1.93841">
        <ele>212.2</ele>
        <time>2023-07-23T06:46:17Z</time>
      </trkpt>
      <trkpt lat="44.04591" lon="1.93836">
        <ele>212.2</ele>
        <time>2023-07-23T06:46:18Z</time>
      </trkpt>
      <trkpt lat="44.04592" lon="1.93832">
        <ele>212.2</ele>
        <time>2023-07-23T06:46:19Z</time>
      </trkpt>
      <trkpt lat="44.04593" lon="1.93829">
        <ele>212.4</ele>
        <time>2023-07-23T06:46:20Z</time>
      </trkpt>
      <trkpt lat="44.04594" lon="1.93825">
        <ele>212.4</ele>
        <time>2023-07-23T06:46:21Z</time>
      </trkpt>
      <trkpt lat="44.04594" lon="1.93821">
        <ele>212.6</ele>
        <time>2023-07-23T06:46:22Z</time>
      </trkpt>
      <trkpt lat="44.04595" lon="1.93816">
        <ele>212.6</ele>
        <time>2023-07-23T06:46:23Z</time>
      </trkpt>
      <trkpt lat="44.04596" lon="1.93813">
        <ele>212.8</ele>
        <time>2023-07-23T06:46:24Z</time>
      </trkpt>
      <trkpt lat="44.04597" lon="1.93809">
        <ele>212.8</ele>
        <time>2023-07-23T06:46:25Z</time>
      </trkpt>
      <trkpt lat="44.04598" lon="1.93805">
        <ele>212.8</ele>
        <time>2023-07-23T06:46:26Z</time>
      </trkpt>
      <trkpt lat="44.04598" lon="1.93801">
        <ele>212.8</ele>
        <time>2023-07-23T06:46:27Z</time>
      </trkpt>
      <trkpt lat="44.04599" lon="1.93796">
        <ele>213.2</ele>
        <time>2023-07-23T06:46:28Z</time>
      </trkpt>
      <trkpt lat="44.046" lon="1.93791">
        <ele>213.4</ele>
        <time>2023-07-23T06:46:29Z</time>
      </trkpt>
      <trkpt lat="44.04601" lon="1.93788">
        <ele>213.6</ele>
        <time>2023-07-23T06:46:30Z</time>
      </trkpt>
      <trkpt lat="44.04602" lon="1.93784">
        <ele>213.6</ele>
        <time>2023-07-23T06:46:31Z</time>
      </trkpt>
      <trkpt lat="44.04603" lon="1.9378">
        <ele>213.6</ele>
        <time>2023-07-23T06:46:32Z</time>
      </trkpt>
      <trkpt lat="44.04604" lon="1.93776">
        <ele>214</ele>
        <time>2023-07-23T06:46:33Z</time>
      </trkpt>
      <trkpt lat="44.04605" lon="1.93771">
        <ele>214.2</ele>
        <time>2023-07-23T06:46:34Z</time>
      </trkpt>
      <trkpt lat="44.04606" lon="1.93766">
        <ele>214.4</ele>
        <time>2023-07-23T06:46:35Z</time>
      </trkpt>
      <trkpt lat="44.04607" lon="1.93763">
        <ele>214.6</ele>
        <time>2023-07-23T06:46:36Z</time>
      </trkpt>
      <trkpt lat="44.04608" lon="1.93758">
        <ele>214.6</ele>
        <time>2023-07-23T06:46:37Z</time>
      </trkpt>
      <trkpt lat="44.04608" lon="1.93755">
        <ele>214.6</ele>
        <time>2023-07-23T06:46:38Z</time>
      </trkpt>
      <trkpt lat="44.04609" lon="1.9375">
        <ele>214.8</ele>
        <time>2023-07-23T06:46:39Z</time>
      </trkpt>
      <trkpt lat="44.0461" lon="1.93746">
        <ele>214.8</ele>
        <time>2023-07-23T06:46:40Z</time>
      </trkpt>
      <trkpt lat="44.04611" lon="1.93742">
        <ele>215</ele>
        <time>2023-07-23T06:46:41Z</time>
      </trkpt>
      <trkpt lat="44.04612" lon="1.93736">
        <ele>215.2</ele>
        <time>2023-07-23T06:46:42Z</time>
      </trkpt>
      <trkpt lat="44.04613" lon="1.93732">
        <ele>215.2</ele>
        <time>2023-07-23T06:46:43Z</time>
      </trkpt>
      <trkpt lat="44.04614" lon="1.93728">
        <ele>215.4</ele>
        <time>2023-07-23T06:46:44Z</time>
      </trkpt>
      <trkpt lat="44.04614" lon="1.93724">
        <ele>215.4</ele>
        <time>2023-07-23T06:46:45Z</time>
      </trkpt>
      <trkpt lat="44.04615" lon="1.93719">
        <ele>215.6</ele>
        <time>2023-07-23T06:46:46Z</time>
      </trkpt>
      <trkpt lat="44.04616" lon="1.93715">
        <ele>215.8</ele>
        <time>2023-07-23T06:46:47Z</time>
      </trkpt>
      <trkpt lat="44.04617" lon="1.9371">
        <ele>216</ele>
        <time>2023-07-23T06:46:48Z</time>
      </trkpt>
      <trkpt lat="44.04618" lon="1.93706">
        <ele>216.2</ele>
        <time>2023-07-23T06:46:49Z</time>
      </trkpt>
      <trkpt lat="44.04618" lon="1.93702">
        <ele>216.2</ele>
        <time>2023-07-23T06:46:50Z</time>
      </trkpt>
      <trkpt lat="44.04619" lon="1.93698">
        <ele>216.4</ele>
        <time>2023-07-23T06:46:51Z</time>
      </trkpt>
      <trkpt lat="44.0462" lon="1.93693">
        <ele>216.6</ele>
        <time>2023-07-23T06:46:52Z</time>
      </trkpt>
      <trkpt lat="44.0462" lon="1.93688">
        <ele>216.8</ele>
        <time>2023-07-23T06:46:53Z</time>
      </trkpt>
      <trkpt lat="44.04621" lon="1.93684">
        <ele>216.8</ele>
        <time>2023-07-23T06:46:54Z</time>
      </trkpt>
      <trkpt lat="44.04621" lon="1.9368">
        <ele>217</ele>
        <time>2023-07-23T06:46:55Z</time>
      </trkpt>
      <trkpt lat="44.04621" lon="1.93675">
        <ele>217.4</ele>
        <time>2023-07-23T06:46:56Z</time>
      </trkpt>
      <trkpt lat="44.04621" lon="1.9367">
        <ele>217.4</ele>
        <time>2023-07-23T06:46:57Z</time>
      </trkpt>
      <trkpt lat="44.04621" lon="1.93667">
        <ele>217.6</ele>
        <time>2023-07-23T06:46:58Z</time>
      </trkpt>
      <trkpt lat="44.0462" lon="1.93662">
        <ele>217.6</ele>
        <time>2023-07-23T06:46:59Z</time>
      </trkpt>
      <trkpt lat="44.04619" lon="1.93656">
        <ele>217.6</ele>
        <time>2023-07-23T06:47:00Z</time>
      </trkpt>
      <trkpt lat="44.04619" lon="1.93652">
        <ele>217.6</ele>
        <time>2023-07-23T06:47:01Z</time>
      </trkpt>
      <trkpt lat="44.04618" lon="1.93646">
        <ele>217.6</ele>
        <time>2023-07-23T06:47:02Z</time>
      </trkpt>
      <trkpt lat="44.04617" lon="1.93642">
        <ele>217.6</ele>
        <time>2023-07-23T06:47:03Z</time>
      </trkpt>
      <trkpt lat="44.04617" lon="1.93636">
        <ele>217.6</ele>
        <time>2023-07-23T06:47:04Z</time>
      </trkpt>
      <trkpt lat="44.04616" lon="1.93631">
        <ele>217.6</ele>
        <time>2023-07-23T06:47:05Z</time>
      </trkpt>
      <trkpt lat="44.04616" lon="1.93625">
        <ele>217.6</ele>
        <time>2023-07-23T06:47:06Z</time>
      </trkpt>
      <trkpt lat="44.04616" lon="1.93618">
        <ele>217.6</ele>
        <time>2023-07-23T06:47:07Z</time>
      </trkpt>
      <trkpt lat="44.04616" lon="1.93612">
        <ele>217.6</ele>
        <time>2023-07-23T06:47:08Z</time>
      </trkpt>
      <trkpt lat="44.04616" lon="1.93605">
        <ele>217.4</ele>
        <time>2023-07-23T06:47:09Z</time>
      </trkpt>
      <trkpt lat="44.04616" lon="1.93601">
        <ele>217.4</ele>
        <time>2023-07-23T06:47:10Z</time>
      </trkpt>
      <trkpt lat="44.04618" lon="1.93594">
        <ele>217.4</ele>
        <time>2023-07-23T06:47:11Z</time>
      </trkpt>
      <trkpt lat="44.04619" lon="1.93588">
        <ele>217.2</ele>
        <time>2023-07-23T06:47:12Z</time>
      </trkpt>
      <trkpt lat="44.0462" lon="1.93583">
        <ele>217.2</ele>
        <time>2023-07-23T06:47:13Z</time>
      </trkpt>
      <trkpt lat="44.04628" lon="1.93559">
        <ele>216.6</ele>
        <time>2023-07-23T06:47:17Z</time>
      </trkpt>
      <trkpt lat="44.04631" lon="1.93547">
        <ele>216.2</ele>
        <time>2023-07-23T06:47:19Z</time>
      </trkpt>
      <trkpt lat="44.04632" lon="1.9354">
        <ele>216</ele>
        <time>2023-07-23T06:47:20Z</time>
      </trkpt>
      <trkpt lat="44.04638" lon="1.93488">
        <ele>215.2</ele>
        <time>2023-07-23T06:47:27Z</time>
      </trkpt>
      <trkpt lat="44.04639" lon="1.93479">
        <ele>215</ele>
        <time>2023-07-23T06:47:28Z</time>
      </trkpt>
      <trkpt lat="44.04646" lon="1.93436">
        <ele>214.2</ele>
        <time>2023-07-23T06:47:33Z</time>
      </trkpt>
      <trkpt lat="44.0465" lon="1.9342">
        <ele>213.8</ele>
        <time>2023-07-23T06:47:35Z</time>
      </trkpt>
      <trkpt lat="44.04655" lon="1.93398">
        <ele>213.4</ele>
        <time>2023-07-23T06:47:38Z</time>
      </trkpt>
      <trkpt lat="44.04659" lon="1.93384">
        <ele>212.8</ele>
        <time>2023-07-23T06:47:40Z</time>
      </trkpt>
      <trkpt lat="44.04662" lon="1.93378">
        <ele>212.6</ele>
        <time>2023-07-23T06:47:41Z</time>
      </trkpt>
      <trkpt lat="44.04666" lon="1.93373">
        <ele>212.4</ele>
        <time>2023-07-23T06:47:42Z</time>
      </trkpt>
      <trkpt lat="44.04669" lon="1.93369">
        <ele>212.2</ele>
        <time>2023-07-23T06:47:43Z</time>
      </trkpt>
      <trkpt lat="44.04672" lon="1.93365">
        <ele>211.8</ele>
        <time>2023-07-23T06:47:44Z</time>
      </trkpt>
      <trkpt lat="44.04673" lon="1.93363">
        <ele>211.6</ele>
        <time>2023-07-23T06:47:45Z</time>
      </trkpt>
      <trkpt lat="44.04674" lon="1.93361">
        <ele>211.6</ele>
        <time>2023-07-23T06:47:46Z</time>
      </trkpt>
      <trkpt lat="44.04674" lon="1.93359">
        <ele>211.4</ele>
        <time>2023-07-23T06:47:47Z</time>
      </trkpt>
      <trkpt lat="44.04675" lon="1.93357">
        <ele>211.6</ele>
        <time>2023-07-23T06:47:48Z</time>
      </trkpt>
      <trkpt lat="44.04675" lon="1.93356">
        <ele>211.6</ele>
        <time>2023-07-23T06:47:49Z</time>
      </trkpt>
      <trkpt lat="44.04675" lon="1.93355">
        <ele>211.6</ele>
        <time>2023-07-23T06:47:50Z</time>
      </trkpt>
      <trkpt lat="44.04677" lon="1.93352">
        <ele>211.8</ele>
        <time>2023-07-23T06:47:52Z</time>
      </trkpt>
      <trkpt lat="44.04677" lon="1.93351">
        <ele>212</ele>
        <time>2023-07-23T06:47:53Z</time>
      </trkpt>
      <trkpt lat="44.04678" lon="1.9335">
        <ele>212</ele>
        <time>2023-07-23T06:47:54Z</time>
      </trkpt>
      <trkpt lat="44.04679" lon="1.93349">
        <ele>212.2</ele>
        <time>2023-07-23T06:47:55Z</time>
      </trkpt>
      <trkpt lat="44.04679" lon="1.93347">
        <ele>212.2</ele>
        <time>2023-07-23T06:47:56Z</time>
      </trkpt>
      <trkpt lat="44.0468" lon="1.93346">
        <ele>212.4</ele>
        <time>2023-07-23T06:47:57Z</time>
      </trkpt>
      <trkpt lat="44.04681" lon="1.93345">
        <ele>212.8</ele>
        <time>2023-07-23T06:47:58Z</time>
      </trkpt>
      <trkpt lat="44.04682" lon="1.93345">
        <ele>212.8</ele>
        <time>2023-07-23T06:47:59Z</time>
      </trkpt>
      <trkpt lat="44.04682" lon="1.93343">
        <ele>213</ele>
        <time>2023-07-23T06:48:00Z</time>
      </trkpt>
      <trkpt lat="44.04683" lon="1.93342">
        <ele>213</ele>
        <time>2023-07-23T06:48:01Z</time>
      </trkpt>
      <trkpt lat="44.04684" lon="1.9334">
        <ele>213.4</ele>
        <time>2023-07-23T06:48:02Z</time>
      </trkpt>
      <trkpt lat="44.04685" lon="1.93339">
        <ele>213.6</ele>
        <time>2023-07-23T06:48:03Z</time>
      </trkpt>
      <trkpt lat="44.04687" lon="1.93338">
        <ele>213.8</ele>
        <time>2023-07-23T06:48:04Z</time>
      </trkpt>
      <trkpt lat="44.04691" lon="1.93333">
        <ele>214.8</ele>
        <time>2023-07-23T06:48:08Z</time>
      </trkpt>
      <trkpt lat="44.04693" lon="1.93332">
        <ele>215.2</ele>
        <time>2023-07-23T06:48:09Z</time>
      </trkpt>
      <trkpt lat="44.04697" lon="1.93326">
        <ele>216.2</ele>
        <time>2023-07-23T06:48:13Z</time>
      </trkpt>
      <trkpt lat="44.04698" lon="1.93324">
        <ele>216.4</ele>
        <time>2023-07-23T06:48:14Z</time>
      </trkpt>
      <trkpt lat="44.04699" lon="1.93323">
        <ele>216.6</ele>
        <time>2023-07-23T06:48:15Z</time>
      </trkpt>
      <trkpt lat="44.04699" lon="1.93321">
        <ele>216.8</ele>
        <time>2023-07-23T06:48:16Z</time>
      </trkpt>
      <trkpt lat="44.04701" lon="1.93319">
        <ele>217</ele>
        <time>2023-07-23T06:48:17Z</time>
      </trkpt>
      <trkpt lat="44.04702" lon="1.93318">
        <ele>217.2</ele>
        <time>2023-07-23T06:48:18Z</time>
      </trkpt>
      <trkpt lat="44.04703" lon="1.93317">
        <ele>217.2</ele>
        <time>2023-07-23T06:48:19Z</time>
      </trkpt>
      <trkpt lat="44.04704" lon="1.93315">
        <ele>217.6</ele>
        <time>2023-07-23T06:48:20Z</time>
      </trkpt>
      <trkpt lat="44.04705" lon="1.93314">
        <ele>218</ele>
        <time>2023-07-23T06:48:21Z</time>
      </trkpt>
      <trkpt lat="44.04705" lon="1.93313">
        <ele>218</ele>
        <time>2023-07-23T06:48:22Z</time>
      </trkpt>
      <trkpt lat="44.04706" lon="1.93312">
        <ele>218.2</ele>
        <time>2023-07-23T06:48:23Z</time>
      </trkpt>
      <trkpt lat="44.04707" lon="1.93311">
        <ele>218.2</ele>
        <time>2023-07-23T06:48:24Z</time>
      </trkpt>
      <trkpt lat="44.04708" lon="1.93309">
        <ele>218.4</ele>
        <time>2023-07-23T06:48:25Z</time>
      </trkpt>
      <trkpt lat="44.04709" lon="1.93308">
        <ele>218.6</ele>
        <time>2023-07-23T06:48:26Z</time>
      </trkpt>
      <trkpt lat="44.0471" lon="1.93307">
        <ele>218.8</ele>
        <time>2023-07-23T06:48:27Z</time>
      </trkpt>
      <trkpt lat="44.04711" lon="1.93306">
        <ele>219</ele>
        <time>2023-07-23T06:48:28Z</time>
      </trkpt>
      <trkpt lat="44.04712" lon="1.93305">
        <ele>219.2</ele>
        <time>2023-07-23T06:48:29Z</time>
      </trkpt>
      <trkpt lat="44.04713" lon="1.93304">
        <ele>219.4</ele>
        <time>2023-07-23T06:48:30Z</time>
      </trkpt>
      <trkpt lat="44.04714" lon="1.93303">
        <ele>219.4</ele>
        <time>2023-07-23T06:48:31Z</time>
      </trkpt>
      <trkpt lat="44.04714" lon="1.93302">
        <ele>219.6</ele>
        <time>2023-07-23T06:48:32Z</time>
      </trkpt>
      <trkpt lat="44.04715" lon="1.933">
        <ele>219.8</ele>
        <time>2023-07-23T06:48:33Z</time>
      </trkpt>
      <trkpt lat="44.04716" lon="1.93299">
        <ele>220</ele>
        <time>2023-07-23T06:48:34Z</time>
      </trkpt>
      <trkpt lat="44.04717" lon="1.93297">
        <ele>220.2</ele>
        <time>2023-07-23T06:48:35Z</time>
      </trkpt>
      <trkpt lat="44.04718" lon="1.93296">
        <ele>220.6</ele>
        <time>2023-07-23T06:48:36Z</time>
      </trkpt>
      <trkpt lat="44.04718" lon="1.93294">
        <ele>220.8</ele>
        <time>2023-07-23T06:48:37Z</time>
      </trkpt>
      <trkpt lat="44.04719" lon="1.93293">
        <ele>221</ele>
        <time>2023-07-23T06:48:38Z</time>
      </trkpt>
      <trkpt lat="44.0472" lon="1.93292">
        <ele>221.2</ele>
        <time>2023-07-23T06:48:39Z</time>
      </trkpt>
      <trkpt lat="44.04721" lon="1.93291">
        <ele>221.4</ele>
        <time>2023-07-23T06:48:40Z</time>
      </trkpt>
      <trkpt lat="44.04722" lon="1.9329">
        <ele>221.6</ele>
        <time>2023-07-23T06:48:41Z</time>
      </trkpt>
      <trkpt lat="44.04722" lon="1.93289">
        <ele>221.6</ele>
        <time>2023-07-23T06:48:42Z</time>
      </trkpt>
      <trkpt lat="44.04723" lon="1.93287">
        <ele>221.8</ele>
        <time>2023-07-23T06:48:43Z</time>
      </trkpt>
      <trkpt lat="44.04724" lon="1.93286">
        <ele>222</ele>
        <time>2023-07-23T06:48:44Z</time>
      </trkpt>
      <trkpt lat="44.04725" lon="1.93285">
        <ele>222.2</ele>
        <time>2023-07-23T06:48:45Z</time>
      </trkpt>
      <trkpt lat="44.04726" lon="1.93284">
        <ele>222.6</ele>
        <time>2023-07-23T06:48:46Z</time>
      </trkpt>
      <trkpt lat="44.04726" lon="1.93283">
        <ele>222.8</ele>
        <time>2023-07-23T06:48:47Z</time>
      </trkpt>
      <trkpt lat="44.04727" lon="1.93282">
        <ele>223.2</ele>
        <time>2023-07-23T06:48:48Z</time>
      </trkpt>
      <trkpt lat="44.04728" lon="1.93281">
        <ele>223.2</ele>
        <time>2023-07-23T06:48:49Z</time>
      </trkpt>
      <trkpt lat="44.04729" lon="1.93279">
        <ele>223.6</ele>
        <time>2023-07-23T06:48:50Z</time>
      </trkpt>
      <trkpt lat="44.0473" lon="1.93278">
        <ele>223.8</ele>
        <time>2023-07-23T06:48:51Z</time>
      </trkpt>
      <trkpt lat="44.04731" lon="1.93276">
        <ele>224</ele>
        <time>2023-07-23T06:48:52Z</time>
      </trkpt>
      <trkpt lat="44.04732" lon="1.93276">
        <ele>224.4</ele>
        <time>2023-07-23T06:48:53Z</time>
      </trkpt>
      <trkpt lat="44.04733" lon="1.93275">
        <ele>224.4</ele>
        <time>2023-07-23T06:48:54Z</time>
      </trkpt>
      <trkpt lat="44.04733" lon="1.93274">
        <ele>224.8</ele>
        <time>2023-07-23T06:48:55Z</time>
      </trkpt>
      <trkpt lat="44.04734" lon="1.93272">
        <ele>225</ele>
        <time>2023-07-23T06:48:56Z</time>
      </trkpt>
      <trkpt lat="44.04735" lon="1.93271">
        <ele>225</ele>
        <time>2023-07-23T06:48:57Z</time>
      </trkpt>
      <trkpt lat="44.04736" lon="1.9327">
        <ele>225.2</ele>
        <time>2023-07-23T06:48:58Z</time>
      </trkpt>
      <trkpt lat="44.04738" lon="1.93268">
        <ele>225.4</ele>
        <time>2023-07-23T06:48:59Z</time>
      </trkpt>
      <trkpt lat="44.04739" lon="1.93267">
        <ele>225.6</ele>
        <time>2023-07-23T06:49:00Z</time>
      </trkpt>
      <trkpt lat="44.04739" lon="1.93266">
        <ele>225.8</ele>
        <time>2023-07-23T06:49:01Z</time>
      </trkpt>
      <trkpt lat="44.0474" lon="1.93265">
        <ele>226</ele>
        <time>2023-07-23T06:49:02Z</time>
      </trkpt>
      <trkpt lat="44.04741" lon="1.93264">
        <ele>226</ele>
        <time>2023-07-23T06:49:03Z</time>
      </trkpt>
      <trkpt lat="44.04742" lon="1.93262">
        <ele>226.4</ele>
        <time>2023-07-23T06:49:04Z</time>
      </trkpt>
      <trkpt lat="44.04743" lon="1.93261">
        <ele>226.4</ele>
        <time>2023-07-23T06:49:05Z</time>
      </trkpt>
      <trkpt lat="44.04743" lon="1.9326">
        <ele>226.8</ele>
        <time>2023-07-23T06:49:06Z</time>
      </trkpt>
      <trkpt lat="44.04744" lon="1.93258">
        <ele>226.8</ele>
        <time>2023-07-23T06:49:07Z</time>
      </trkpt>
      <trkpt lat="44.04745" lon="1.93257">
        <ele>227.2</ele>
        <time>2023-07-23T06:49:08Z</time>
      </trkpt>
      <trkpt lat="44.04746" lon="1.93256">
        <ele>227.4</ele>
        <time>2023-07-23T06:49:09Z</time>
      </trkpt>
      <trkpt lat="44.04746" lon="1.93255">
        <ele>227.6</ele>
        <time>2023-07-23T06:49:10Z</time>
      </trkpt>
      <trkpt lat="44.04747" lon="1.93254">
        <ele>227.8</ele>
        <time>2023-07-23T06:49:11Z</time>
      </trkpt>
      <trkpt lat="44.04748" lon="1.93253">
        <ele>227.8</ele>
        <time>2023-07-23T06:49:12Z</time>
      </trkpt>
      <trkpt lat="44.04749" lon="1.93252">
        <ele>228</ele>
        <time>2023-07-23T06:49:13Z</time>
      </trkpt>
      <trkpt lat="44.0475" lon="1.93251">
        <ele>228.4</ele>
        <time>2023-07-23T06:49:14Z</time>
      </trkpt>
      <trkpt lat="44.0475" lon="1.93249">
        <ele>228.8</ele>
        <time>2023-07-23T06:49:15Z</time>
      </trkpt>
      <trkpt lat="44.04751" lon="1.93248">
        <ele>229</ele>
        <time>2023-07-23T06:49:16Z</time>
      </trkpt>
      <trkpt lat="44.04752" lon="1.93247">
        <ele>229.2</ele>
        <time>2023-07-23T06:49:17Z</time>
      </trkpt>
      <trkpt lat="44.04752" lon="1.93247">
        <ele>229.2</ele>
        <time>2023-07-23T06:49:18Z</time>
      </trkpt>
      <trkpt lat="44.04753" lon="1.93245">
        <ele>229.4</ele>
        <time>2023-07-23T06:49:19Z</time>
      </trkpt>
      <trkpt lat="44.04754" lon="1.93244">
        <ele>229.6</ele>
        <time>2023-07-23T06:49:20Z</time>
      </trkpt>
      <trkpt lat="44.04755" lon="1.93243">
        <ele>229.6</ele>
        <time>2023-07-23T06:49:21Z</time>
      </trkpt>
      <trkpt lat="44.04756" lon="1.93242">
        <ele>229.8</ele>
        <time>2023-07-23T06:49:22Z</time>
      </trkpt>
      <trkpt lat="44.04757" lon="1.9324">
        <ele>230</ele>
        <time>2023-07-23T06:49:23Z</time>
      </trkpt>
      <trkpt lat="44.04757" lon="1.93238">
        <ele>230</ele>
        <time>2023-07-23T06:49:24Z</time>
      </trkpt>
      <trkpt lat="44.04758" lon="1.93237">
        <ele>230.2</ele>
        <time>2023-07-23T06:49:25Z</time>
      </trkpt>
      <trkpt lat="44.04759" lon="1.93236">
        <ele>230.4</ele>
        <time>2023-07-23T06:49:26Z</time>
      </trkpt>
      <trkpt lat="44.0476" lon="1.93235">
        <ele>230.6</ele>
        <time>2023-07-23T06:49:27Z</time>
      </trkpt>
      <trkpt lat="44.04761" lon="1.93234">
        <ele>230.6</ele>
        <time>2023-07-23T06:49:28Z</time>
      </trkpt>
      <trkpt lat="44.04762" lon="1.93232">
        <ele>230.8</ele>
        <time>2023-07-23T06:49:29Z</time>
      </trkpt>
      <trkpt lat="44.04763" lon="1.93231">
        <ele>231</ele>
        <time>2023-07-23T06:49:30Z</time>
      </trkpt>
      <trkpt lat="44.04764" lon="1.9323">
        <ele>231.2</ele>
        <time>2023-07-23T06:49:31Z</time>
      </trkpt>
      <trkpt lat="44.04765" lon="1.93229">
        <ele>231.4</ele>
        <time>2023-07-23T06:49:32Z</time>
      </trkpt>
      <trkpt lat="44.04767" lon="1.93228">
        <ele>231.6</ele>
        <time>2023-07-23T06:49:33Z</time>
      </trkpt>
      <trkpt lat="44.04768" lon="1.93227">
        <ele>231.6</ele>
        <time>2023-07-23T06:49:34Z</time>
      </trkpt>
      <trkpt lat="44.04769" lon="1.93226">
        <ele>231.8</ele>
        <time>2023-07-23T06:49:35Z</time>
      </trkpt>
      <trkpt lat="44.0477" lon="1.93225">
        <ele>232</ele>
        <time>2023-07-23T06:49:36Z</time>
      </trkpt>
      <trkpt lat="44.04771" lon="1.93223">
        <ele>232.2</ele>
        <time>2023-07-23T06:49:37Z</time>
      </trkpt>
      <trkpt lat="44.04772" lon="1.93221">
        <ele>232.6</ele>
        <time>2023-07-23T06:49:38Z</time>
      </trkpt>
      <trkpt lat="44.04773" lon="1.9322">
        <ele>232.8</ele>
        <time>2023-07-23T06:49:39Z</time>
      </trkpt>
      <trkpt lat="44.04774" lon="1.93219">
        <ele>233.2</ele>
        <time>2023-07-23T06:49:40Z</time>
      </trkpt>
      <trkpt lat="44.04775" lon="1.93217">
        <ele>233.4</ele>
        <time>2023-07-23T06:49:41Z</time>
      </trkpt>
      <trkpt lat="44.04776" lon="1.93216">
        <ele>233.6</ele>
        <time>2023-07-23T06:49:42Z</time>
      </trkpt>
      <trkpt lat="44.04777" lon="1.93214">
        <ele>234</ele>
        <time>2023-07-23T06:49:43Z</time>
      </trkpt>
      <trkpt lat="44.04778" lon="1.93213">
        <ele>234.2</ele>
        <time>2023-07-23T06:49:44Z</time>
      </trkpt>
      <trkpt lat="44.04779" lon="1.93212">
        <ele>234.4</ele>
        <time>2023-07-23T06:49:45Z</time>
      </trkpt>
      <trkpt lat="44.04779" lon="1.93211">
        <ele>234.4</ele>
        <time>2023-07-23T06:49:46Z</time>
      </trkpt>
      <trkpt lat="44.0478" lon="1.9321">
        <ele>234.8</ele>
        <time>2023-07-23T06:49:47Z</time>
      </trkpt>
      <trkpt lat="44.04781" lon="1.93209">
        <ele>235</ele>
        <time>2023-07-23T06:49:48Z</time>
      </trkpt>
      <trkpt lat="44.04782" lon="1.93207">
        <ele>235.2</ele>
        <time>2023-07-23T06:49:49Z</time>
      </trkpt>
      <trkpt lat="44.04783" lon="1.93206">
        <ele>235.2</ele>
        <time>2023-07-23T06:49:50Z</time>
      </trkpt>
      <trkpt lat="44.04784" lon="1.93205">
        <ele>235.4</ele>
        <time>2023-07-23T06:49:51Z</time>
      </trkpt>
      <trkpt lat="44.04785" lon="1.93203">
        <ele>235.4</ele>
        <time>2023-07-23T06:49:52Z</time>
      </trkpt>
      <trkpt lat="44.04786" lon="1.93201">
        <ele>235.6</ele>
        <time>2023-07-23T06:49:53Z</time>
      </trkpt>
      <trkpt lat="44.04787" lon="1.93201">
        <ele>235.8</ele>
        <time>2023-07-23T06:49:54Z</time>
      </trkpt>
      <trkpt lat="44.04788" lon="1.93199">
        <ele>236</ele>
        <time>2023-07-23T06:49:55Z</time>
      </trkpt>
      <trkpt lat="44.04788" lon="1.93197">
        <ele>236.2</ele>
        <time>2023-07-23T06:49:56Z</time>
      </trkpt>
      <trkpt lat="44.04789" lon="1.93195">
        <ele>236.4</ele>
        <time>2023-07-23T06:49:57Z</time>
      </trkpt>
      <trkpt lat="44.0479" lon="1.93193">
        <ele>236.6</ele>
        <time>2023-07-23T06:49:58Z</time>
      </trkpt>
      <trkpt lat="44.0479" lon="1.93192">
        <ele>236.8</ele>
        <time>2023-07-23T06:49:59Z</time>
      </trkpt>
      <trkpt lat="44.04791" lon="1.93191">
        <ele>236.8</ele>
        <time>2023-07-23T06:50:00Z</time>
      </trkpt>
      <trkpt lat="44.04791" lon="1.9319">
        <ele>237.2</ele>
        <time>2023-07-23T06:50:01Z</time>
      </trkpt>
      <trkpt lat="44.04792" lon="1.93189">
        <ele>237.2</ele>
        <time>2023-07-23T06:50:02Z</time>
      </trkpt>
      <trkpt lat="44.04793" lon="1.93188">
        <ele>237.6</ele>
        <time>2023-07-23T06:50:03Z</time>
      </trkpt>
      <trkpt lat="44.04794" lon="1.93186">
        <ele>238</ele>
        <time>2023-07-23T06:50:04Z</time>
      </trkpt>
      <trkpt lat="44.04794" lon="1.93186">
        <ele>238</ele>
        <time>2023-07-23T06:50:05Z</time>
      </trkpt>
      <trkpt lat="44.04795" lon="1.93185">
        <ele>238.2</ele>
        <time>2023-07-23T06:50:06Z</time>
      </trkpt>
      <trkpt lat="44.04796" lon="1.93184">
        <ele>238.4</ele>
        <time>2023-07-23T06:50:07Z</time>
      </trkpt>
      <trkpt lat="44.04797" lon="1.93183">
        <ele>238.6</ele>
        <time>2023-07-23T06:50:08Z</time>
      </trkpt>
      <trkpt lat="44.04798" lon="1.93182">
        <ele>238.8</ele>
        <time>2023-07-23T06:50:09Z</time>
      </trkpt>
      <trkpt lat="44.04799" lon="1.93181">
        <ele>239</ele>
        <time>2023-07-23T06:50:10Z</time>
      </trkpt>
      <trkpt lat="44.048" lon="1.93179">
        <ele>239.2</ele>
        <time>2023-07-23T06:50:11Z</time>
      </trkpt>
      <trkpt lat="44.04801" lon="1.93178">
        <ele>239.4</ele>
        <time>2023-07-23T06:50:12Z</time>
      </trkpt>
      <trkpt lat="44.04801" lon="1.93176">
        <ele>239.6</ele>
        <time>2023-07-23T06:50:13Z</time>
      </trkpt>
      <trkpt lat="44.04802" lon="1.93175">
        <ele>239.6</ele>
        <time>2023-07-23T06:50:14Z</time>
      </trkpt>
      <trkpt lat="44.04803" lon="1.93174">
        <ele>240</ele>
        <time>2023-07-23T06:50:15Z</time>
      </trkpt>
      <trkpt lat="44.04804" lon="1.93173">
        <ele>240</ele>
        <time>2023-07-23T06:50:16Z</time>
      </trkpt>
      <trkpt lat="44.04804" lon="1.93173">
        <ele>240.2</ele>
        <time>2023-07-23T06:50:17Z</time>
      </trkpt>
      <trkpt lat="44.04805" lon="1.93171">
        <ele>240.2</ele>
        <time>2023-07-23T06:50:18Z</time>
      </trkpt>
      <trkpt lat="44.04806" lon="1.9317">
        <ele>240.4</ele>
        <time>2023-07-23T06:50:19Z</time>
      </trkpt>
      <trkpt lat="44.04806" lon="1.93169">
        <ele>240.6</ele>
        <time>2023-07-23T06:50:20Z</time>
      </trkpt>
      <trkpt lat="44.04807" lon="1.93167">
        <ele>240.8</ele>
        <time>2023-07-23T06:50:21Z</time>
      </trkpt>
      <trkpt lat="44.04808" lon="1.93166">
        <ele>241.2</ele>
        <time>2023-07-23T06:50:22Z</time>
      </trkpt>
      <trkpt lat="44.04809" lon="1.93163">
        <ele>241.2</ele>
        <time>2023-07-23T06:50:23Z</time>
      </trkpt>
      <trkpt lat="44.0481" lon="1.93162">
        <ele>241.4</ele>
        <time>2023-07-23T06:50:24Z</time>
      </trkpt>
      <trkpt lat="44.04811" lon="1.9316">
        <ele>241.4</ele>
        <time>2023-07-23T06:50:25Z</time>
      </trkpt>
      <trkpt lat="44.04812" lon="1.93159">
        <ele>241.6</ele>
        <time>2023-07-23T06:50:26Z</time>
      </trkpt>
      <trkpt lat="44.04813" lon="1.93157">
        <ele>242</ele>
        <time>2023-07-23T06:50:27Z</time>
      </trkpt>
      <trkpt lat="44.04813" lon="1.93155">
        <ele>242</ele>
        <time>2023-07-23T06:50:28Z</time>
      </trkpt>
      <trkpt lat="44.04814" lon="1.93154">
        <ele>242.2</ele>
        <time>2023-07-23T06:50:29Z</time>
      </trkpt>
      <trkpt lat="44.04815" lon="1.93152">
        <ele>242.4</ele>
        <time>2023-07-23T06:50:30Z</time>
      </trkpt>
      <trkpt lat="44.04815" lon="1.9315">
        <ele>242.6</ele>
        <time>2023-07-23T06:50:31Z</time>
      </trkpt>
      <trkpt lat="44.04815" lon="1.93149">
        <ele>242.8</ele>
        <time>2023-07-23T06:50:32Z</time>
      </trkpt>
      <trkpt lat="44.04816" lon="1.93147">
        <ele>243</ele>
        <time>2023-07-23T06:50:33Z</time>
      </trkpt>
      <trkpt lat="44.04817" lon="1.93145">
        <ele>243</ele>
        <time>2023-07-23T06:50:34Z</time>
      </trkpt>
      <trkpt lat="44.04817" lon="1.93144">
        <ele>243.2</ele>
        <time>2023-07-23T06:50:35Z</time>
      </trkpt>
      <trkpt lat="44.04818" lon="1.93142">
        <ele>243.4</ele>
        <time>2023-07-23T06:50:36Z</time>
      </trkpt>
      <trkpt lat="44.0482" lon="1.93139">
        <ele>243.6</ele>
        <time>2023-07-23T06:50:37Z</time>
      </trkpt>
      <trkpt lat="44.04821" lon="1.93138">
        <ele>243.8</ele>
        <time>2023-07-23T06:50:38Z</time>
      </trkpt>
      <trkpt lat="44.04822" lon="1.93137">
        <ele>243.8</ele>
        <time>2023-07-23T06:50:39Z</time>
      </trkpt>
      <trkpt lat="44.04823" lon="1.93135">
        <ele>244.2</ele>
        <time>2023-07-23T06:50:40Z</time>
      </trkpt>
      <trkpt lat="44.04823" lon="1.93134">
        <ele>244.4</ele>
        <time>2023-07-23T06:50:41Z</time>
      </trkpt>
      <trkpt lat="44.04824" lon="1.93133">
        <ele>244.6</ele>
        <time>2023-07-23T06:50:42Z</time>
      </trkpt>
      <trkpt lat="44.04825" lon="1.93132">
        <ele>244.8</ele>
        <time>2023-07-23T06:50:43Z</time>
      </trkpt>
      <trkpt lat="44.04826" lon="1.93131">
        <ele>245</ele>
        <time>2023-07-23T06:50:44Z</time>
      </trkpt>
      <trkpt lat="44.04827" lon="1.93129">
        <ele>245.2</ele>
        <time>2023-07-23T06:50:45Z</time>
      </trkpt>
      <trkpt lat="44.04828" lon="1.93128">
        <ele>245.4</ele>
        <time>2023-07-23T06:50:46Z</time>
      </trkpt>
      <trkpt lat="44.04828" lon="1.93127">
        <ele>245.6</ele>
        <time>2023-07-23T06:50:47Z</time>
      </trkpt>
      <trkpt lat="44.04829" lon="1.93126">
        <ele>245.6</ele>
        <time>2023-07-23T06:50:48Z</time>
      </trkpt>
      <trkpt lat="44.0483" lon="1.93124">
        <ele>245.8</ele>
        <time>2023-07-23T06:50:49Z</time>
      </trkpt>
      <trkpt lat="44.04831" lon="1.93123">
        <ele>246</ele>
        <time>2023-07-23T06:50:50Z</time>
      </trkpt>
      <trkpt lat="44.04832" lon="1.93122">
        <ele>246.2</ele>
        <time>2023-07-23T06:50:51Z</time>
      </trkpt>
      <trkpt lat="44.04833" lon="1.9312">
        <ele>246.6</ele>
        <time>2023-07-23T06:50:52Z</time>
      </trkpt>
      <trkpt lat="44.04834" lon="1.93119">
        <ele>246.6</ele>
        <time>2023-07-23T06:50:53Z</time>
      </trkpt>
      <trkpt lat="44.04835" lon="1.93118">
        <ele>246.8</ele>
        <time>2023-07-23T06:50:54Z</time>
      </trkpt>
      <trkpt lat="44.04836" lon="1.93117">
        <ele>247</ele>
        <time>2023-07-23T06:50:55Z</time>
      </trkpt>
      <trkpt lat="44.04837" lon="1.93116">
        <ele>247.4</ele>
        <time>2023-07-23T06:50:56Z</time>
      </trkpt>
      <trkpt lat="44.04838" lon="1.93114">
        <ele>247.6</ele>
        <time>2023-07-23T06:50:57Z</time>
      </trkpt>
      <trkpt lat="44.04839" lon="1.93113">
        <ele>247.8</ele>
        <time>2023-07-23T06:50:58Z</time>
      </trkpt>
      <trkpt lat="44.0484" lon="1.93112">
        <ele>248.4</ele>
        <time>2023-07-23T06:50:59Z</time>
      </trkpt>
      <trkpt lat="44.0484" lon="1.93111">
        <ele>248.4</ele>
        <time>2023-07-23T06:51:00Z</time>
      </trkpt>
      <trkpt lat="44.04841" lon="1.9311">
        <ele>248.8</ele>
        <time>2023-07-23T06:51:01Z</time>
      </trkpt>
      <trkpt lat="44.04843" lon="1.93109">
        <ele>248.8</ele>
        <time>2023-07-23T06:51:02Z</time>
      </trkpt>
      <trkpt lat="44.04844" lon="1.93107">
        <ele>249.2</ele>
        <time>2023-07-23T06:51:03Z</time>
      </trkpt>
      <trkpt lat="44.04845" lon="1.93106">
        <ele>249.4</ele>
        <time>2023-07-23T06:51:04Z</time>
      </trkpt>
      <trkpt lat="44.04846" lon="1.93104">
        <ele>249.6</ele>
        <time>2023-07-23T06:51:05Z</time>
      </trkpt>
      <trkpt lat="44.04846" lon="1.93103">
        <ele>249.8</ele>
        <time>2023-07-23T06:51:06Z</time>
      </trkpt>
      <trkpt lat="44.04847" lon="1.93102">
        <ele>250</ele>
        <time>2023-07-23T06:51:07Z</time>
      </trkpt>
      <trkpt lat="44.04849" lon="1.931">
        <ele>250</ele>
        <time>2023-07-23T06:51:08Z</time>
      </trkpt>
      <trkpt lat="44.0485" lon="1.93099">
        <ele>250.2</ele>
        <time>2023-07-23T06:51:09Z</time>
      </trkpt>
      <trkpt lat="44.0485" lon="1.93098">
        <ele>250.4</ele>
        <time>2023-07-23T06:51:10Z</time>
      </trkpt>
      <trkpt lat="44.04851" lon="1.93096">
        <ele>250.6</ele>
        <time>2023-07-23T06:51:11Z</time>
      </trkpt>
      <trkpt lat="44.04852" lon="1.93095">
        <ele>250.6</ele>
        <time>2023-07-23T06:51:12Z</time>
      </trkpt>
      <trkpt lat="44.04853" lon="1.93094">
        <ele>250.8</ele>
        <time>2023-07-23T06:51:13Z</time>
      </trkpt>
      <trkpt lat="44.04854" lon="1.93093">
        <ele>250.8</ele>
        <time>2023-07-23T06:51:14Z</time>
      </trkpt>
      <trkpt lat="44.04855" lon="1.93091">
        <ele>251</ele>
        <time>2023-07-23T06:51:15Z</time>
      </trkpt>
      <trkpt lat="44.04857" lon="1.9309">
        <ele>251</ele>
        <time>2023-07-23T06:51:16Z</time>
      </trkpt>
      <trkpt lat="44.04858" lon="1.93089">
        <ele>251.2</ele>
        <time>2023-07-23T06:51:17Z</time>
      </trkpt>
      <trkpt lat="44.0486" lon="1.93088">
        <ele>251.4</ele>
        <time>2023-07-23T06:51:18Z</time>
      </trkpt>
      <trkpt lat="44.04861" lon="1.93087">
        <ele>251.8</ele>
        <time>2023-07-23T06:51:19Z</time>
      </trkpt>
      <trkpt lat="44.04862" lon="1.93085">
        <ele>251.8</ele>
        <time>2023-07-23T06:51:20Z</time>
      </trkpt>
      <trkpt lat="44.04864" lon="1.93083">
        <ele>252</ele>
        <time>2023-07-23T06:51:21Z</time>
      </trkpt>
      <trkpt lat="44.04865" lon="1.93082">
        <ele>252.2</ele>
        <time>2023-07-23T06:51:22Z</time>
      </trkpt>
      <trkpt lat="44.04867" lon="1.9308">
        <ele>252.4</ele>
        <time>2023-07-23T06:51:23Z</time>
      </trkpt>
      <trkpt lat="44.04868" lon="1.93079">
        <ele>252.6</ele>
        <time>2023-07-23T06:51:24Z</time>
      </trkpt>
      <trkpt lat="44.04869" lon="1.93077">
        <ele>252.6</ele>
        <time>2023-07-23T06:51:25Z</time>
      </trkpt>
      <trkpt lat="44.04871" lon="1.93076">
        <ele>252.8</ele>
        <time>2023-07-23T06:51:26Z</time>
      </trkpt>
      <trkpt lat="44.04872" lon="1.93075">
        <ele>252.8</ele>
        <time>2023-07-23T06:51:27Z</time>
      </trkpt>
      <trkpt lat="44.04873" lon="1.93074">
        <ele>252.8</ele>
        <time>2023-07-23T06:51:28Z</time>
      </trkpt>
      <trkpt lat="44.04875" lon="1.93072">
        <ele>252.8</ele>
        <time>2023-07-23T06:51:29Z</time>
      </trkpt>
      <trkpt lat="44.04876" lon="1.93071">
        <ele>253</ele>
        <time>2023-07-23T06:51:30Z</time>
      </trkpt>
      <trkpt lat="44.04878" lon="1.9307">
        <ele>253.4</ele>
        <time>2023-07-23T06:51:31Z</time>
      </trkpt>
      <trkpt lat="44.04879" lon="1.93069">
        <ele>253.6</ele>
        <time>2023-07-23T06:51:32Z</time>
      </trkpt>
      <trkpt lat="44.04881" lon="1.93068">
        <ele>253.6</ele>
        <time>2023-07-23T06:51:33Z</time>
      </trkpt>
      <trkpt lat="44.04882" lon="1.93066">
        <ele>253.8</ele>
        <time>2023-07-23T06:51:34Z</time>
      </trkpt>
      <trkpt lat="44.04883" lon="1.93065">
        <ele>253.8</ele>
        <time>2023-07-23T06:51:35Z</time>
      </trkpt>
      <trkpt lat="44.04885" lon="1.93064">
        <ele>254</ele>
        <time>2023-07-23T06:51:36Z</time>
      </trkpt>
      <trkpt lat="44.04886" lon="1.93063">
        <ele>254</ele>
        <time>2023-07-23T06:51:37Z</time>
      </trkpt>
      <trkpt lat="44.04888" lon="1.93062">
        <ele>254.2</ele>
        <time>2023-07-23T06:51:38Z</time>
      </trkpt>
      <trkpt lat="44.04889" lon="1.93061">
        <ele>254.4</ele>
        <time>2023-07-23T06:51:39Z</time>
      </trkpt>
      <trkpt lat="44.04891" lon="1.9306">
        <ele>254.6</ele>
        <time>2023-07-23T06:51:40Z</time>
      </trkpt>
      <trkpt lat="44.04892" lon="1.93058">
        <ele>254.6</ele>
        <time>2023-07-23T06:51:41Z</time>
      </trkpt>
      <trkpt lat="44.04893" lon="1.93057">
        <ele>254.8</ele>
        <time>2023-07-23T06:51:42Z</time>
      </trkpt>
      <trkpt lat="44.04895" lon="1.93055">
        <ele>254.8</ele>
        <time>2023-07-23T06:51:43Z</time>
      </trkpt>
      <trkpt lat="44.04896" lon="1.93054">
        <ele>255</ele>
        <time>2023-07-23T06:51:44Z</time>
      </trkpt>
      <trkpt lat="44.04898" lon="1.93052">
        <ele>255.4</ele>
        <time>2023-07-23T06:51:45Z</time>
      </trkpt>
      <trkpt lat="44.04899" lon="1.93051">
        <ele>255.4</ele>
        <time>2023-07-23T06:51:46Z</time>
      </trkpt>
      <trkpt lat="44.049" lon="1.93049">
        <ele>255.6</ele>
        <time>2023-07-23T06:51:47Z</time>
      </trkpt>
      <trkpt lat="44.04902" lon="1.93047">
        <ele>255.8</ele>
        <time>2023-07-23T06:51:48Z</time>
      </trkpt>
      <trkpt lat="44.04903" lon="1.93045">
        <ele>256.2</ele>
        <time>2023-07-23T06:51:49Z</time>
      </trkpt>
      <trkpt lat="44.04904" lon="1.93044">
        <ele>256.2</ele>
        <time>2023-07-23T06:51:50Z</time>
      </trkpt>
      <trkpt lat="44.04906" lon="1.93042">
        <ele>256.4</ele>
        <time>2023-07-23T06:51:51Z</time>
      </trkpt>
      <trkpt lat="44.04908" lon="1.93041">
        <ele>256.4</ele>
        <time>2023-07-23T06:51:52Z</time>
      </trkpt>
      <trkpt lat="44.04909" lon="1.9304">
        <ele>256.6</ele>
        <time>2023-07-23T06:51:53Z</time>
      </trkpt>
      <trkpt lat="44.04911" lon="1.93039">
        <ele>257</ele>
        <time>2023-07-23T06:51:54Z</time>
      </trkpt>
      <trkpt lat="44.04913" lon="1.93038">
        <ele>257.4</ele>
        <time>2023-07-23T06:51:55Z</time>
      </trkpt>
      <trkpt lat="44.04914" lon="1.93036">
        <ele>257.8</ele>
        <time>2023-07-23T06:51:56Z</time>
      </trkpt>
      <trkpt lat="44.04916" lon="1.93035">
        <ele>257.8</ele>
        <time>2023-07-23T06:51:57Z</time>
      </trkpt>
      <trkpt lat="44.04918" lon="1.93033">
        <ele>258.2</ele>
        <time>2023-07-23T06:51:58Z</time>
      </trkpt>
      <trkpt lat="44.0492" lon="1.93032">
        <ele>258.2</ele>
        <time>2023-07-23T06:51:59Z</time>
      </trkpt>
      <trkpt lat="44.04921" lon="1.93031">
        <ele>258.4</ele>
        <time>2023-07-23T06:52:00Z</time>
      </trkpt>
      <trkpt lat="44.04923" lon="1.93029">
        <ele>258.6</ele>
        <time>2023-07-23T06:52:01Z</time>
      </trkpt>
      <trkpt lat="44.04925" lon="1.93027">
        <ele>258.6</ele>
        <time>2023-07-23T06:52:02Z</time>
      </trkpt>
      <trkpt lat="44.04927" lon="1.93025">
        <ele>258.8</ele>
        <time>2023-07-23T06:52:03Z</time>
      </trkpt>
      <trkpt lat="44.04929" lon="1.93023">
        <ele>258.8</ele>
        <time>2023-07-23T06:52:04Z</time>
      </trkpt>
      <trkpt lat="44.04931" lon="1.93021">
        <ele>259</ele>
        <time>2023-07-23T06:52:05Z</time>
      </trkpt>
      <trkpt lat="44.04932" lon="1.93019">
        <ele>259</ele>
        <time>2023-07-23T06:52:06Z</time>
      </trkpt>
      <trkpt lat="44.04934" lon="1.93017">
        <ele>259.2</ele>
        <time>2023-07-23T06:52:07Z</time>
      </trkpt>
      <trkpt lat="44.04935" lon="1.93015">
        <ele>259.8</ele>
        <time>2023-07-23T06:52:08Z</time>
      </trkpt>
      <trkpt lat="44.04937" lon="1.93014">
        <ele>259.8</ele>
        <time>2023-07-23T06:52:09Z</time>
      </trkpt>
      <trkpt lat="44.04939" lon="1.93012">
        <ele>260</ele>
        <time>2023-07-23T06:52:10Z</time>
      </trkpt>
      <trkpt lat="44.0494" lon="1.93011">
        <ele>260</ele>
        <time>2023-07-23T06:52:11Z</time>
      </trkpt>
      <trkpt lat="44.04942" lon="1.9301">
        <ele>260.2</ele>
        <time>2023-07-23T06:52:12Z</time>
      </trkpt>
      <trkpt lat="44.04944" lon="1.93008">
        <ele>260.2</ele>
        <time>2023-07-23T06:52:13Z</time>
      </trkpt>
      <trkpt lat="44.04947" lon="1.93006">
        <ele>260.4</ele>
        <time>2023-07-23T06:52:14Z</time>
      </trkpt>
      <trkpt lat="44.04949" lon="1.93003">
        <ele>260.4</ele>
        <time>2023-07-23T06:52:15Z</time>
      </trkpt>
      <trkpt lat="44.04951" lon="1.93002">
        <ele>260.6</ele>
        <time>2023-07-23T06:52:16Z</time>
      </trkpt>
      <trkpt lat="44.04953" lon="1.93">
        <ele>260.6</ele>
        <time>2023-07-23T06:52:17Z</time>
      </trkpt>
      <trkpt lat="44.04954" lon="1.92998">
        <ele>260.8</ele>
        <time>2023-07-23T06:52:18Z</time>
      </trkpt>
      <trkpt lat="44.04956" lon="1.92997">
        <ele>261</ele>
        <time>2023-07-23T06:52:19Z</time>
      </trkpt>
      <trkpt lat="44.04957" lon="1.92995">
        <ele>261.2</ele>
        <time>2023-07-23T06:52:20Z</time>
      </trkpt>
      <trkpt lat="44.04959" lon="1.92994">
        <ele>261.4</ele>
        <time>2023-07-23T06:52:21Z</time>
      </trkpt>
      <trkpt lat="44.04961" lon="1.92993">
        <ele>261.6</ele>
        <time>2023-07-23T06:52:22Z</time>
      </trkpt>
      <trkpt lat="44.04963" lon="1.92991">
        <ele>261.8</ele>
        <time>2023-07-23T06:52:23Z</time>
      </trkpt>
      <trkpt lat="44.04964" lon="1.9299">
        <ele>262</ele>
        <time>2023-07-23T06:52:24Z</time>
      </trkpt>
      <trkpt lat="44.04966" lon="1.92988">
        <ele>262</ele>
        <time>2023-07-23T06:52:25Z</time>
      </trkpt>
      <trkpt lat="44.04968" lon="1.92987">
        <ele>262.2</ele>
        <time>2023-07-23T06:52:26Z</time>
      </trkpt>
      <trkpt lat="44.0497" lon="1.92986">
        <ele>262.2</ele>
        <time>2023-07-23T06:52:27Z</time>
      </trkpt>
      <trkpt lat="44.04972" lon="1.92985">
        <ele>262.6</ele>
        <time>2023-07-23T06:52:28Z</time>
      </trkpt>
      <trkpt lat="44.04973" lon="1.92983">
        <ele>262.8</ele>
        <time>2023-07-23T06:52:29Z</time>
      </trkpt>
      <trkpt lat="44.04975" lon="1.92981">
        <ele>263</ele>
        <time>2023-07-23T06:52:30Z</time>
      </trkpt>
      <trkpt lat="44.04977" lon="1.92979">
        <ele>263.2</ele>
        <time>2023-07-23T06:52:31Z</time>
      </trkpt>
      <trkpt lat="44.04978" lon="1.92978">
        <ele>263.4</ele>
        <time>2023-07-23T06:52:32Z</time>
      </trkpt>
      <trkpt lat="44.0498" lon="1.92976">
        <ele>263.8</ele>
        <time>2023-07-23T06:52:33Z</time>
      </trkpt>
      <trkpt lat="44.04981" lon="1.92974">
        <ele>263.8</ele>
        <time>2023-07-23T06:52:34Z</time>
      </trkpt>
      <trkpt lat="44.04982" lon="1.92972">
        <ele>264.2</ele>
        <time>2023-07-23T06:52:35Z</time>
      </trkpt>
      <trkpt lat="44.04983" lon="1.9297">
        <ele>264.4</ele>
        <time>2023-07-23T06:52:36Z</time>
      </trkpt>
      <trkpt lat="44.04984" lon="1.92967">
        <ele>264.6</ele>
        <time>2023-07-23T06:52:37Z</time>
      </trkpt>
      <trkpt lat="44.04985" lon="1.92965">
        <ele>264.8</ele>
        <time>2023-07-23T06:52:38Z</time>
      </trkpt>
      <trkpt lat="44.04986" lon="1.92962">
        <ele>265.2</ele>
        <time>2023-07-23T06:52:39Z</time>
      </trkpt>
      <trkpt lat="44.04986" lon="1.92959">
        <ele>265.4</ele>
        <time>2023-07-23T06:52:40Z</time>
      </trkpt>
      <trkpt lat="44.04987" lon="1.92957">
        <ele>265.6</ele>
        <time>2023-07-23T06:52:41Z</time>
      </trkpt>
      <trkpt lat="44.04988" lon="1.92955">
        <ele>265.8</ele>
        <time>2023-07-23T06:52:42Z</time>
      </trkpt>
      <trkpt lat="44.04989" lon="1.92953">
        <ele>266</ele>
        <time>2023-07-23T06:52:43Z</time>
      </trkpt>
      <trkpt lat="44.04991" lon="1.9295">
        <ele>266.2</ele>
        <time>2023-07-23T06:52:44Z</time>
      </trkpt>
      <trkpt lat="44.04992" lon="1.92948">
        <ele>266.4</ele>
        <time>2023-07-23T06:52:45Z</time>
      </trkpt>
      <trkpt lat="44.04993" lon="1.92946">
        <ele>266.6</ele>
        <time>2023-07-23T06:52:46Z</time>
      </trkpt>
      <trkpt lat="44.04994" lon="1.92944">
        <ele>266.8</ele>
        <time>2023-07-23T06:52:47Z</time>
      </trkpt>
      <trkpt lat="44.04996" lon="1.92942">
        <ele>266.8</ele>
        <time>2023-07-23T06:52:48Z</time>
      </trkpt>
      <trkpt lat="44.04997" lon="1.9294">
        <ele>267</ele>
        <time>2023-07-23T06:52:49Z</time>
      </trkpt>
      <trkpt lat="44.04998" lon="1.92938">
        <ele>267.2</ele>
        <time>2023-07-23T06:52:50Z</time>
      </trkpt>
      <trkpt lat="44.05" lon="1.92936">
        <ele>267.2</ele>
        <time>2023-07-23T06:52:51Z</time>
      </trkpt>
      <trkpt lat="44.05001" lon="1.92934">
        <ele>267.4</ele>
        <time>2023-07-23T06:52:52Z</time>
      </trkpt>
      <trkpt lat="44.05003" lon="1.92932">
        <ele>267.6</ele>
        <time>2023-07-23T06:52:53Z</time>
      </trkpt>
      <trkpt lat="44.05004" lon="1.9293">
        <ele>267.6</ele>
        <time>2023-07-23T06:52:54Z</time>
      </trkpt>
      <trkpt lat="44.05006" lon="1.92928">
        <ele>267.8</ele>
        <time>2023-07-23T06:52:55Z</time>
      </trkpt>
      <trkpt lat="44.05007" lon="1.92927">
        <ele>268</ele>
        <time>2023-07-23T06:52:56Z</time>
      </trkpt>
      <trkpt lat="44.05009" lon="1.92925">
        <ele>268</ele>
        <time>2023-07-23T06:52:57Z</time>
      </trkpt>
      <trkpt lat="44.05011" lon="1.92925">
        <ele>268.4</ele>
        <time>2023-07-23T06:52:58Z</time>
      </trkpt>
      <trkpt lat="44.05013" lon="1.92923">
        <ele>268.4</ele>
        <time>2023-07-23T06:52:59Z</time>
      </trkpt>
      <trkpt lat="44.05015" lon="1.92922">
        <ele>268.8</ele>
        <time>2023-07-23T06:53:00Z</time>
      </trkpt>
      <trkpt lat="44.05017" lon="1.9292">
        <ele>268.8</ele>
        <time>2023-07-23T06:53:01Z</time>
      </trkpt>
      <trkpt lat="44.05019" lon="1.92919">
        <ele>269</ele>
        <time>2023-07-23T06:53:02Z</time>
      </trkpt>
      <trkpt lat="44.0502" lon="1.92918">
        <ele>269.2</ele>
        <time>2023-07-23T06:53:03Z</time>
      </trkpt>
      <trkpt lat="44.05023" lon="1.92917">
        <ele>269.2</ele>
        <time>2023-07-23T06:53:04Z</time>
      </trkpt>
      <trkpt lat="44.05024" lon="1.92916">
        <ele>269.4</ele>
        <time>2023-07-23T06:53:05Z</time>
      </trkpt>
      <trkpt lat="44.05026" lon="1.92916">
        <ele>269.4</ele>
        <time>2023-07-23T06:53:06Z</time>
      </trkpt>
      <trkpt lat="44.05028" lon="1.92915">
        <ele>269.6</ele>
        <time>2023-07-23T06:53:07Z</time>
      </trkpt>
      <trkpt lat="44.0503" lon="1.92914">
        <ele>269.6</ele>
        <time>2023-07-23T06:53:08Z</time>
      </trkpt>
      <trkpt lat="44.05032" lon="1.92913">
        <ele>269.6</ele>
        <time>2023-07-23T06:53:09Z</time>
      </trkpt>
      <trkpt lat="44.05033" lon="1.92912">
        <ele>269.8</ele>
        <time>2023-07-23T06:53:10Z</time>
      </trkpt>
      <trkpt lat="44.05036" lon="1.92911">
        <ele>270</ele>
        <time>2023-07-23T06:53:11Z</time>
      </trkpt>
      <trkpt lat="44.05038" lon="1.9291">
        <ele>270.4</ele>
        <time>2023-07-23T06:53:12Z</time>
      </trkpt>
      <trkpt lat="44.0504" lon="1.92909">
        <ele>270.4</ele>
        <time>2023-07-23T06:53:13Z</time>
      </trkpt>
      <trkpt lat="44.05042" lon="1.92908">
        <ele>270.6</ele>
        <time>2023-07-23T06:53:14Z</time>
      </trkpt>
      <trkpt lat="44.05044" lon="1.92907">
        <ele>270.6</ele>
        <time>2023-07-23T06:53:15Z</time>
      </trkpt>
      <trkpt lat="44.05046" lon="1.92905">
        <ele>270.6</ele>
        <time>2023-07-23T06:53:16Z</time>
      </trkpt>
      <trkpt lat="44.05048" lon="1.92904">
        <ele>270.6</ele>
        <time>2023-07-23T06:53:17Z</time>
      </trkpt>
      <trkpt lat="44.0505" lon="1.92903">
        <ele>270.6</ele>
        <time>2023-07-23T06:53:18Z</time>
      </trkpt>
      <trkpt lat="44.05052" lon="1.92901">
        <ele>270.8</ele>
        <time>2023-07-23T06:53:19Z</time>
      </trkpt>
      <trkpt lat="44.05055" lon="1.92899">
        <ele>270.8</ele>
        <time>2023-07-23T06:53:20Z</time>
      </trkpt>
      <trkpt lat="44.05057" lon="1.92897">
        <ele>270.8</ele>
        <time>2023-07-23T06:53:21Z</time>
      </trkpt>
      <trkpt lat="44.05061" lon="1.92894">
        <ele>270.8</ele>
        <time>2023-07-23T06:53:22Z</time>
      </trkpt>
      <trkpt lat="44.05063" lon="1.92893">
        <ele>270.8</ele>
        <time>2023-07-23T06:53:23Z</time>
      </trkpt>
      <trkpt lat="44.05065" lon="1.92892">
        <ele>270.8</ele>
        <time>2023-07-23T06:53:24Z</time>
      </trkpt>
      <trkpt lat="44.05066" lon="1.92891">
        <ele>270.8</ele>
        <time>2023-07-23T06:53:25Z</time>
      </trkpt>
      <trkpt lat="44.05067" lon="1.92891">
        <ele>270.6</ele>
        <time>2023-07-23T06:53:26Z</time>
      </trkpt>
      <trkpt lat="44.05068" lon="1.92891">
        <ele>270.4</ele>
        <time>2023-07-23T06:53:27Z</time>
      </trkpt>
      <trkpt lat="44.05069" lon="1.9289">
        <ele>270.4</ele>
        <time>2023-07-23T06:53:28Z</time>
      </trkpt>
      <trkpt lat="44.05069" lon="1.92889">
        <ele>270.2</ele>
        <time>2023-07-23T06:53:29Z</time>
      </trkpt>
      <trkpt lat="44.05068" lon="1.92888">
        <ele>270</ele>
        <time>2023-07-23T06:53:30Z</time>
      </trkpt>
      <trkpt lat="44.05068" lon="1.92887">
        <ele>270</ele>
        <time>2023-07-23T06:53:31Z</time>
      </trkpt>
      <trkpt lat="44.05067" lon="1.92887">
        <ele>269.8</ele>
        <time>2023-07-23T06:53:32Z</time>
      </trkpt>
      <trkpt lat="44.05063" lon="1.92887">
        <ele>269.6</ele>
        <time>2023-07-23T06:53:35Z</time>
      </trkpt>
      <trkpt lat="44.05063" lon="1.92885">
        <ele>269.6</ele>
        <time>2023-07-23T06:53:36Z</time>
      </trkpt>
      <trkpt lat="44.05063" lon="1.92883">
        <ele>269.6</ele>
        <time>2023-07-23T06:53:37Z</time>
      </trkpt>
      <trkpt lat="44.05063" lon="1.92881">
        <ele>269.6</ele>
        <time>2023-07-23T06:53:38Z</time>
      </trkpt>
      <trkpt lat="44.05066" lon="1.92866">
        <ele>269.4</ele>
        <time>2023-07-23T06:53:42Z</time>
      </trkpt>
      <trkpt lat="44.0507" lon="1.92848">
        <ele>269</ele>
        <time>2023-07-23T06:53:46Z</time>
      </trkpt>
      <trkpt lat="44.05072" lon="1.92844">
        <ele>268.8</ele>
        <time>2023-07-23T06:53:47Z</time>
      </trkpt>
      <trkpt lat="44.05073" lon="1.92839">
        <ele>268.6</ele>
        <time>2023-07-23T06:53:48Z</time>
      </trkpt>
      <trkpt lat="44.05073" lon="1.92835">
        <ele>268</ele>
        <time>2023-07-23T06:53:49Z</time>
      </trkpt>
      <trkpt lat="44.05074" lon="1.92831">
        <ele>267.8</ele>
        <time>2023-07-23T06:53:50Z</time>
      </trkpt>
      <trkpt lat="44.05078" lon="1.92816">
        <ele>266.6</ele>
        <time>2023-07-23T06:53:53Z</time>
      </trkpt>
      <trkpt lat="44.05083" lon="1.92794">
        <ele>265.6</ele>
        <time>2023-07-23T06:53:57Z</time>
      </trkpt>
      <trkpt lat="44.05084" lon="1.92788">
        <ele>265.4</ele>
        <time>2023-07-23T06:53:58Z</time>
      </trkpt>
      <trkpt lat="44.05086" lon="1.92783">
        <ele>265.2</ele>
        <time>2023-07-23T06:53:59Z</time>
      </trkpt>
      <trkpt lat="44.05087" lon="1.92779">
        <ele>264.4</ele>
        <time>2023-07-23T06:54:00Z</time>
      </trkpt>
      <trkpt lat="44.05087" lon="1.92776">
        <ele>264</ele>
        <time>2023-07-23T06:54:01Z</time>
      </trkpt>
      <trkpt lat="44.05086" lon="1.92773">
        <ele>263.2</ele>
        <time>2023-07-23T06:54:02Z</time>
      </trkpt>
      <trkpt lat="44.05086" lon="1.92772">
        <ele>262.8</ele>
        <time>2023-07-23T06:54:03Z</time>
      </trkpt>
      <trkpt lat="44.05085" lon="1.9277">
        <ele>262.4</ele>
        <time>2023-07-23T06:54:04Z</time>
      </trkpt>
      <trkpt lat="44.05084" lon="1.92767">
        <ele>262.4</ele>
        <time>2023-07-23T06:54:05Z</time>
      </trkpt>
      <trkpt lat="44.05083" lon="1.92765">
        <ele>262</ele>
        <time>2023-07-23T06:54:06Z</time>
      </trkpt>
      <trkpt lat="44.05082" lon="1.92764">
        <ele>261.8</ele>
        <time>2023-07-23T06:54:07Z</time>
      </trkpt>
      <trkpt lat="44.05081" lon="1.92762">
        <ele>261.6</ele>
        <time>2023-07-23T06:54:08Z</time>
      </trkpt>
      <trkpt lat="44.05079" lon="1.9276">
        <ele>261.6</ele>
        <time>2023-07-23T06:54:09Z</time>
      </trkpt>
      <trkpt lat="44.0507" lon="1.92754">
        <ele>261.2</ele>
        <time>2023-07-23T06:54:12Z</time>
      </trkpt>
      <trkpt lat="44.05066" lon="1.92754">
        <ele>261.2</ele>
        <time>2023-07-23T06:54:13Z</time>
      </trkpt>
      <trkpt lat="44.05062" lon="1.92753">
        <ele>261</ele>
        <time>2023-07-23T06:54:14Z</time>
      </trkpt>
      <trkpt lat="44.05057" lon="1.92753">
        <ele>260.8</ele>
        <time>2023-07-23T06:54:15Z</time>
      </trkpt>
      <trkpt lat="44.05052" lon="1.92753">
        <ele>260.6</ele>
        <time>2023-07-23T06:54:16Z</time>
      </trkpt>
      <trkpt lat="44.05043" lon="1.92755">
        <ele>260</ele>
        <time>2023-07-23T06:54:18Z</time>
      </trkpt>
      <trkpt lat="44.05037" lon="1.92756">
        <ele>259.6</ele>
        <time>2023-07-23T06:54:20Z</time>
      </trkpt>
      <trkpt lat="44.05035" lon="1.92759">
        <ele>258.8</ele>
        <time>2023-07-23T06:54:21Z</time>
      </trkpt>
      <trkpt lat="44.05033" lon="1.92761">
        <ele>258.4</ele>
        <time>2023-07-23T06:54:22Z</time>
      </trkpt>
      <trkpt lat="44.05031" lon="1.92765">
        <ele>257.8</ele>
        <time>2023-07-23T06:54:23Z</time>
      </trkpt>
      <trkpt lat="44.05029" lon="1.92769">
        <ele>257.4</ele>
        <time>2023-07-23T06:54:24Z</time>
      </trkpt>
      <trkpt lat="44.05025" lon="1.92773">
        <ele>256.8</ele>
        <time>2023-07-23T06:54:25Z</time>
      </trkpt>
      <trkpt lat="44.05023" lon="1.92778">
        <ele>256.6</ele>
        <time>2023-07-23T06:54:26Z</time>
      </trkpt>
      <trkpt lat="44.05022" lon="1.92792">
        <ele>256</ele>
        <time>2023-07-23T06:54:29Z</time>
      </trkpt>
      <trkpt lat="44.05022" lon="1.92796">
        <ele>256</ele>
        <time>2023-07-23T06:54:30Z</time>
      </trkpt>
      <trkpt lat="44.05022" lon="1.92801">
        <ele>255.8</ele>
        <time>2023-07-23T06:54:31Z</time>
      </trkpt>
      <trkpt lat="44.05023" lon="1.92805">
        <ele>255.6</ele>
        <time>2023-07-23T06:54:32Z</time>
      </trkpt>
      <trkpt lat="44.05024" lon="1.9281">
        <ele>255.6</ele>
        <time>2023-07-23T06:54:33Z</time>
      </trkpt>
      <trkpt lat="44.05029" lon="1.9282">
        <ele>254.4</ele>
        <time>2023-07-23T06:54:35Z</time>
      </trkpt>
      <trkpt lat="44.05033" lon="1.9283">
        <ele>254</ele>
        <time>2023-07-23T06:54:37Z</time>
      </trkpt>
      <trkpt lat="44.05033" lon="1.92833">
        <ele>254</ele>
        <time>2023-07-23T06:54:38Z</time>
      </trkpt>
      <trkpt lat="44.05034" lon="1.92835">
        <ele>253.6</ele>
        <time>2023-07-23T06:54:39Z</time>
      </trkpt>
      <trkpt lat="44.05034" lon="1.92836">
        <ele>253.4</ele>
        <time>2023-07-23T06:54:40Z</time>
      </trkpt>
      <trkpt lat="44.05034" lon="1.92836">
        <ele>253</ele>
        <time>2023-07-23T06:54:41Z</time>
      </trkpt>
      <trkpt lat="44.05035" lon="1.92831">
        <ele>251.8</ele>
        <time>2023-07-23T06:55:43Z</time>
      </trkpt>
      <trkpt lat="44.05035" lon="1.92831">
        <ele>251.8</ele>
        <time>2023-07-23T06:55:44Z</time>
      </trkpt>
      <trkpt lat="44.05033" lon="1.92831">
        <ele>252</ele>
        <time>2023-07-23T06:55:45Z</time>
      </trkpt>
      <trkpt lat="44.05031" lon="1.92829">
        <ele>252.2</ele>
        <time>2023-07-23T06:55:47Z</time>
      </trkpt>
      <trkpt lat="44.0503" lon="1.92829">
        <ele>252.2</ele>
        <time>2023-07-23T06:55:48Z</time>
      </trkpt>
      <trkpt lat="44.0503" lon="1.92829">
        <ele>252.2</ele>
        <time>2023-07-23T06:55:49Z</time>
      </trkpt>
      <trkpt lat="44.05029" lon="1.92828">
        <ele>252.2</ele>
        <time>2023-07-23T06:55:50Z</time>
      </trkpt>
      <trkpt lat="44.05029" lon="1.92827">
        <ele>252.2</ele>
        <time>2023-07-23T06:55:51Z</time>
      </trkpt>
      <trkpt lat="44.05029" lon="1.92827">
        <ele>252.2</ele>
        <time>2023-07-23T06:55:52Z</time>
      </trkpt>
      <trkpt lat="44.05028" lon="1.9282">
        <ele>252.2</ele>
        <time>2023-07-23T06:55:56Z</time>
      </trkpt>
      <trkpt lat="44.05027" lon="1.92819">
        <ele>252.2</ele>
        <time>2023-07-23T06:55:57Z</time>
      </trkpt>
      <trkpt lat="44.05026" lon="1.92809">
        <ele>252.4</ele>
        <time>2023-07-23T06:56:03Z</time>
      </trkpt>
      <trkpt lat="44.05025" lon="1.92808">
        <ele>252.4</ele>
        <time>2023-07-23T06:56:04Z</time>
      </trkpt>
      <trkpt lat="44.05023" lon="1.92806">
        <ele>252.4</ele>
        <time>2023-07-23T06:56:05Z</time>
      </trkpt>
      <trkpt lat="44.05023" lon="1.92803">
        <ele>252.6</ele>
        <time>2023-07-23T06:56:06Z</time>
      </trkpt>
      <trkpt lat="44.05022" lon="1.92802">
        <ele>252.6</ele>
        <time>2023-07-23T06:56:07Z</time>
      </trkpt>
      <trkpt lat="44.05021" lon="1.92797">
        <ele>252.8</ele>
        <time>2023-07-23T06:56:09Z</time>
      </trkpt>
      <trkpt lat="44.05021" lon="1.92795">
        <ele>252.8</ele>
        <time>2023-07-23T06:56:10Z</time>
      </trkpt>
      <trkpt lat="44.05021" lon="1.92792">
        <ele>252.8</ele>
        <time>2023-07-23T06:56:11Z</time>
      </trkpt>
      <trkpt lat="44.05022" lon="1.92788">
        <ele>253.2</ele>
        <time>2023-07-23T06:56:13Z</time>
      </trkpt>
      <trkpt lat="44.05022" lon="1.92786">
        <ele>253.2</ele>
        <time>2023-07-23T06:56:14Z</time>
      </trkpt>
      <trkpt lat="44.05022" lon="1.92783">
        <ele>253.2</ele>
        <time>2023-07-23T06:56:15Z</time>
      </trkpt>
      <trkpt lat="44.05025" lon="1.92776">
        <ele>253.6</ele>
        <time>2023-07-23T06:56:18Z</time>
      </trkpt>
      <trkpt lat="44.05027" lon="1.92769">
        <ele>254</ele>
        <time>2023-07-23T06:56:22Z</time>
      </trkpt>
      <trkpt lat="44.05027" lon="1.92766">
        <ele>254</ele>
        <time>2023-07-23T06:56:24Z</time>
      </trkpt>
      <trkpt lat="44.05027" lon="1.92766">
        <ele>254.2</ele>
        <time>2023-07-23T06:56:25Z</time>
      </trkpt>
      <trkpt lat="44.05027" lon="1.92766">
        <ele>254.2</ele>
        <time>2023-07-23T06:56:26Z</time>
      </trkpt>
      <trkpt lat="44.05027" lon="1.92766">
        <ele>254.2</ele>
        <time>2023-07-23T06:56:27Z</time>
      </trkpt>
      <trkpt lat="44.05025" lon="1.92757">
        <ele>254.6</ele>
        <time>2023-07-23T06:56:58Z</time>
      </trkpt>
      <trkpt lat="44.05025" lon="1.92754">
        <ele>254.6</ele>
        <time>2023-07-23T06:56:59Z</time>
      </trkpt>
      <trkpt lat="44.05026" lon="1.92753">
        <ele>254.6</ele>
        <time>2023-07-23T06:57:00Z</time>
      </trkpt>
      <trkpt lat="44.05027" lon="1.92752">
        <ele>254.6</ele>
        <time>2023-07-23T06:57:01Z</time>
      </trkpt>
      <trkpt lat="44.05026" lon="1.92751">
        <ele>254.6</ele>
        <time>2023-07-23T06:57:02Z</time>
      </trkpt>
      <trkpt lat="44.05026" lon="1.9275">
        <ele>254.8</ele>
        <time>2023-07-23T06:57:03Z</time>
      </trkpt>
      <trkpt lat="44.05026" lon="1.9275">
        <ele>254.8</ele>
        <time>2023-07-23T06:57:04Z</time>
      </trkpt>
      <trkpt lat="44.05025" lon="1.92755">
        <ele>255</ele>
        <time>2023-07-23T07:02:48Z</time>
      </trkpt>
      <trkpt lat="44.05027" lon="1.92762">
        <ele>254.8</ele>
        <time>2023-07-23T07:02:51Z</time>
      </trkpt>
      <trkpt lat="44.05028" lon="1.92763">
        <ele>254.8</ele>
        <time>2023-07-23T07:02:52Z</time>
      </trkpt>
      <trkpt lat="44.05029" lon="1.92762">
        <ele>254.6</ele>
        <time>2023-07-23T07:02:53Z</time>
      </trkpt>
      <trkpt lat="44.0503" lon="1.92761">
        <ele>254.6</ele>
        <time>2023-07-23T07:02:54Z</time>
      </trkpt>
      <trkpt lat="44.05031" lon="1.92759">
        <ele>254.6</ele>
        <time>2023-07-23T07:02:55Z</time>
      </trkpt>
      <trkpt lat="44.05034" lon="1.92754">
        <ele>254.2</ele>
        <time>2023-07-23T07:02:58Z</time>
      </trkpt>
      <trkpt lat="44.05035" lon="1.92753">
        <ele>254.2</ele>
        <time>2023-07-23T07:02:59Z</time>
      </trkpt>
      <trkpt lat="44.05037" lon="1.92752">
        <ele>254.2</ele>
        <time>2023-07-23T07:03:00Z</time>
      </trkpt>
      <trkpt lat="44.05039" lon="1.92751">
        <ele>254.2</ele>
        <time>2023-07-23T07:03:01Z</time>
      </trkpt>
      <trkpt lat="44.0504" lon="1.92751">
        <ele>254.2</ele>
        <time>2023-07-23T07:03:02Z</time>
      </trkpt>
      <trkpt lat="44.05042" lon="1.92751">
        <ele>254.2</ele>
        <time>2023-07-23T07:03:03Z</time>
      </trkpt>
      <trkpt lat="44.05047" lon="1.9275">
        <ele>254.4</ele>
        <time>2023-07-23T07:03:07Z</time>
      </trkpt>
      <trkpt lat="44.05049" lon="1.9275">
        <ele>254.6</ele>
        <time>2023-07-23T07:03:08Z</time>
      </trkpt>
      <trkpt lat="44.05054" lon="1.92749">
        <ele>254.8</ele>
        <time>2023-07-23T07:03:11Z</time>
      </trkpt>
      <trkpt lat="44.05055" lon="1.92749">
        <ele>255</ele>
        <time>2023-07-23T07:03:12Z</time>
      </trkpt>
      <trkpt lat="44.05056" lon="1.92749">
        <ele>255.2</ele>
        <time>2023-07-23T07:03:13Z</time>
      </trkpt>
      <trkpt lat="44.05057" lon="1.92749">
        <ele>255.4</ele>
        <time>2023-07-23T07:03:14Z</time>
      </trkpt>
      <trkpt lat="44.05059" lon="1.92748">
        <ele>255.8</ele>
        <time>2023-07-23T07:03:15Z</time>
      </trkpt>
      <trkpt lat="44.0506" lon="1.92749">
        <ele>256</ele>
        <time>2023-07-23T07:03:16Z</time>
      </trkpt>
      <trkpt lat="44.05065" lon="1.92748">
        <ele>256.8</ele>
        <time>2023-07-23T07:03:19Z</time>
      </trkpt>
      <trkpt lat="44.05066" lon="1.92748">
        <ele>257.2</ele>
        <time>2023-07-23T07:03:20Z</time>
      </trkpt>
      <trkpt lat="44.05067" lon="1.92749">
        <ele>257.4</ele>
        <time>2023-07-23T07:03:21Z</time>
      </trkpt>
      <trkpt lat="44.0507" lon="1.92749">
        <ele>257.6</ele>
        <time>2023-07-23T07:03:22Z</time>
      </trkpt>
      <trkpt lat="44.05071" lon="1.9275">
        <ele>257.8</ele>
        <time>2023-07-23T07:03:23Z</time>
      </trkpt>
      <trkpt lat="44.05073" lon="1.9275">
        <ele>258.2</ele>
        <time>2023-07-23T07:03:24Z</time>
      </trkpt>
      <trkpt lat="44.05075" lon="1.92752">
        <ele>258.2</ele>
        <time>2023-07-23T07:03:25Z</time>
      </trkpt>
      <trkpt lat="44.05077" lon="1.92752">
        <ele>258.6</ele>
        <time>2023-07-23T07:03:26Z</time>
      </trkpt>
      <trkpt lat="44.05079" lon="1.92754">
        <ele>259</ele>
        <time>2023-07-23T07:03:27Z</time>
      </trkpt>
      <trkpt lat="44.05082" lon="1.92756">
        <ele>259</ele>
        <time>2023-07-23T07:03:28Z</time>
      </trkpt>
      <trkpt lat="44.05084" lon="1.92758">
        <ele>259.4</ele>
        <time>2023-07-23T07:03:29Z</time>
      </trkpt>
      <trkpt lat="44.05085" lon="1.9276">
        <ele>259.4</ele>
        <time>2023-07-23T07:03:30Z</time>
      </trkpt>
      <trkpt lat="44.05087" lon="1.92761">
        <ele>259.6</ele>
        <time>2023-07-23T07:03:31Z</time>
      </trkpt>
      <trkpt lat="44.05089" lon="1.92763">
        <ele>259.6</ele>
        <time>2023-07-23T07:03:32Z</time>
      </trkpt>
      <trkpt lat="44.05091" lon="1.92766">
        <ele>259.8</ele>
        <time>2023-07-23T07:03:33Z</time>
      </trkpt>
      <trkpt lat="44.05094" lon="1.9277">
        <ele>259.8</ele>
        <time>2023-07-23T07:03:34Z</time>
      </trkpt>
      <trkpt lat="44.05096" lon="1.92774">
        <ele>259.8</ele>
        <time>2023-07-23T07:03:35Z</time>
      </trkpt>
      <trkpt lat="44.05097" lon="1.92777">
        <ele>259.8</ele>
        <time>2023-07-23T07:03:36Z</time>
      </trkpt>
      <trkpt lat="44.05098" lon="1.9278">
        <ele>259.8</ele>
        <time>2023-07-23T07:03:37Z</time>
      </trkpt>
      <trkpt lat="44.05101" lon="1.92784">
        <ele>259.8</ele>
        <time>2023-07-23T07:03:38Z</time>
      </trkpt>
      <trkpt lat="44.05102" lon="1.92787">
        <ele>259.6</ele>
        <time>2023-07-23T07:03:39Z</time>
      </trkpt>
      <trkpt lat="44.05104" lon="1.9279">
        <ele>259.6</ele>
        <time>2023-07-23T07:03:40Z</time>
      </trkpt>
      <trkpt lat="44.05106" lon="1.92795">
        <ele>259.4</ele>
        <time>2023-07-23T07:03:41Z</time>
      </trkpt>
      <trkpt lat="44.05107" lon="1.92797">
        <ele>259.4</ele>
        <time>2023-07-23T07:03:42Z</time>
      </trkpt>
      <trkpt lat="44.05107" lon="1.928">
        <ele>259.2</ele>
        <time>2023-07-23T07:03:43Z</time>
      </trkpt>
      <trkpt lat="44.05109" lon="1.92804">
        <ele>259.2</ele>
        <time>2023-07-23T07:03:44Z</time>
      </trkpt>
      <trkpt lat="44.0511" lon="1.92807">
        <ele>259.2</ele>
        <time>2023-07-23T07:03:45Z</time>
      </trkpt>
      <trkpt lat="44.05112" lon="1.92811">
        <ele>259.2</ele>
        <time>2023-07-23T07:03:46Z</time>
      </trkpt>
      <trkpt lat="44.05116" lon="1.92815">
        <ele>259.2</ele>
        <time>2023-07-23T07:03:47Z</time>
      </trkpt>
      <trkpt lat="44.05117" lon="1.92818">
        <ele>259.2</ele>
        <time>2023-07-23T07:03:48Z</time>
      </trkpt>
      <trkpt lat="44.05118" lon="1.9282">
        <ele>259.2</ele>
        <time>2023-07-23T07:03:49Z</time>
      </trkpt>
      <trkpt lat="44.0512" lon="1.92822">
        <ele>259.2</ele>
        <time>2023-07-23T07:03:50Z</time>
      </trkpt>
      <trkpt lat="44.05121" lon="1.92825">
        <ele>259.2</ele>
        <time>2023-07-23T07:03:51Z</time>
      </trkpt>
      <trkpt lat="44.05123" lon="1.92828">
        <ele>259.2</ele>
        <time>2023-07-23T07:03:52Z</time>
      </trkpt>
      <trkpt lat="44.05126" lon="1.9283">
        <ele>259.4</ele>
        <time>2023-07-23T07:03:53Z</time>
      </trkpt>
      <trkpt lat="44.05129" lon="1.9283">
        <ele>259.4</ele>
        <time>2023-07-23T07:03:54Z</time>
      </trkpt>
      <trkpt lat="44.05131" lon="1.92831">
        <ele>259.4</ele>
        <time>2023-07-23T07:03:55Z</time>
      </trkpt>
      <trkpt lat="44.05133" lon="1.92831">
        <ele>259.4</ele>
        <time>2023-07-23T07:03:56Z</time>
      </trkpt>
      <trkpt lat="44.05134" lon="1.92831">
        <ele>259.4</ele>
        <time>2023-07-23T07:03:57Z</time>
      </trkpt>
      <trkpt lat="44.0514" lon="1.92835">
        <ele>259.6</ele>
        <time>2023-07-23T07:03:59Z</time>
      </trkpt>
      <trkpt lat="44.05142" lon="1.92835">
        <ele>259.6</ele>
        <time>2023-07-23T07:04:00Z</time>
      </trkpt>
      <trkpt lat="44.05144" lon="1.92832">
        <ele>259.6</ele>
        <time>2023-07-23T07:04:01Z</time>
      </trkpt>
      <trkpt lat="44.05145" lon="1.9283">
        <ele>259.6</ele>
        <time>2023-07-23T07:04:02Z</time>
      </trkpt>
      <trkpt lat="44.05146" lon="1.92827">
        <ele>259.8</ele>
        <time>2023-07-23T07:04:03Z</time>
      </trkpt>
      <trkpt lat="44.05145" lon="1.92826">
        <ele>259.8</ele>
        <time>2023-07-23T07:04:04Z</time>
      </trkpt>
      <trkpt lat="44.05144" lon="1.92826">
        <ele>260</ele>
        <time>2023-07-23T07:04:05Z</time>
      </trkpt>
      <trkpt lat="44.05144" lon="1.92825">
        <ele>260</ele>
        <time>2023-07-23T07:04:06Z</time>
      </trkpt>
      <trkpt lat="44.05144" lon="1.92825">
        <ele>260.2</ele>
        <time>2023-07-23T07:04:07Z</time>
      </trkpt>
      <trkpt lat="44.05144" lon="1.92825">
        <ele>260.2</ele>
        <time>2023-07-23T07:04:08Z</time>
      </trkpt>
      <trkpt lat="44.05144" lon="1.92825">
        <ele>260.2</ele>
        <time>2023-07-23T07:04:09Z</time>
      </trkpt>
      <trkpt lat="44.0515" lon="1.92775">
        <ele>259.4</ele>
        <time>2023-07-23T07:05:27Z</time>
      </trkpt>
      <trkpt lat="44.05151" lon="1.92767">
        <ele>259</ele>
        <time>2023-07-23T07:05:29Z</time>
      </trkpt>
      <trkpt lat="44.05152" lon="1.92763">
        <ele>258.6</ele>
        <time>2023-07-23T07:05:30Z</time>
      </trkpt>
      <trkpt lat="44.05152" lon="1.92759">
        <ele>258.6</ele>
        <time>2023-07-23T07:05:31Z</time>
      </trkpt>
      <trkpt lat="44.05153" lon="1.92756">
        <ele>258.6</ele>
        <time>2023-07-23T07:05:32Z</time>
      </trkpt>
      <trkpt lat="44.05153" lon="1.92753">
        <ele>258.2</ele>
        <time>2023-07-23T07:05:33Z</time>
      </trkpt>
      <trkpt lat="44.05154" lon="1.92749">
        <ele>258</ele>
        <time>2023-07-23T07:05:34Z</time>
      </trkpt>
      <trkpt lat="44.05153" lon="1.92745">
        <ele>258</ele>
        <time>2023-07-23T07:05:35Z</time>
      </trkpt>
      <trkpt lat="44.0515" lon="1.92739">
        <ele>257.8</ele>
        <time>2023-07-23T07:05:37Z</time>
      </trkpt>
      <trkpt lat="44.05149" lon="1.92736">
        <ele>257.8</ele>
        <time>2023-07-23T07:05:38Z</time>
      </trkpt>
      <trkpt lat="44.05149" lon="1.92731">
        <ele>257.6</ele>
        <time>2023-07-23T07:05:39Z</time>
      </trkpt>
      <trkpt lat="44.05149" lon="1.92727">
        <ele>257.4</ele>
        <time>2023-07-23T07:05:40Z</time>
      </trkpt>
      <trkpt lat="44.0515" lon="1.92722">
        <ele>257</ele>
        <time>2023-07-23T07:05:41Z</time>
      </trkpt>
      <trkpt lat="44.0515" lon="1.92717">
        <ele>256.6</ele>
        <time>2023-07-23T07:05:42Z</time>
      </trkpt>
      <trkpt lat="44.0515" lon="1.92713">
        <ele>256.4</ele>
        <time>2023-07-23T07:05:43Z</time>
      </trkpt>
      <trkpt lat="44.0515" lon="1.92708">
        <ele>256</ele>
        <time>2023-07-23T07:05:44Z</time>
      </trkpt>
      <trkpt lat="44.0515" lon="1.92703">
        <ele>255.8</ele>
        <time>2023-07-23T07:05:45Z</time>
      </trkpt>
      <trkpt lat="44.05151" lon="1.92694">
        <ele>255</ele>
        <time>2023-07-23T07:05:47Z</time>
      </trkpt>
      <trkpt lat="44.05151" lon="1.92691">
        <ele>254.6</ele>
        <time>2023-07-23T07:05:48Z</time>
      </trkpt>
      <trkpt lat="44.05152" lon="1.92679">
        <ele>253.4</ele>
        <time>2023-07-23T07:05:50Z</time>
      </trkpt>
      <trkpt lat="44.05155" lon="1.92667">
        <ele>252.2</ele>
        <time>2023-07-23T07:05:52Z</time>
      </trkpt>
      <trkpt lat="44.05158" lon="1.92659">
        <ele>250.8</ele>
        <time>2023-07-23T07:05:54Z</time>
      </trkpt>
      <trkpt lat="44.05159" lon="1.92655">
        <ele>250</ele>
        <time>2023-07-23T07:05:55Z</time>
      </trkpt>
      <trkpt lat="44.05159" lon="1.92652">
        <ele>249.4</ele>
        <time>2023-07-23T07:05:56Z</time>
      </trkpt>
      <trkpt lat="44.05158" lon="1.9265">
        <ele>248.6</ele>
        <time>2023-07-23T07:05:57Z</time>
      </trkpt>
      <trkpt lat="44.05157" lon="1.92647">
        <ele>247.6</ele>
        <time>2023-07-23T07:05:58Z</time>
      </trkpt>
      <trkpt lat="44.05156" lon="1.92645">
        <ele>247.2</ele>
        <time>2023-07-23T07:05:59Z</time>
      </trkpt>
      <trkpt lat="44.05155" lon="1.92643">
        <ele>246.6</ele>
        <time>2023-07-23T07:06:00Z</time>
      </trkpt>
      <trkpt lat="44.05153" lon="1.92641">
        <ele>246.2</ele>
        <time>2023-07-23T07:06:01Z</time>
      </trkpt>
      <trkpt lat="44.05152" lon="1.92636">
        <ele>245.6</ele>
        <time>2023-07-23T07:06:02Z</time>
      </trkpt>
      <trkpt lat="44.05151" lon="1.9263">
        <ele>244.6</ele>
        <time>2023-07-23T07:06:04Z</time>
      </trkpt>
      <trkpt lat="44.0515" lon="1.92626">
        <ele>244</ele>
        <time>2023-07-23T07:06:05Z</time>
      </trkpt>
      <trkpt lat="44.05148" lon="1.92616">
        <ele>242.8</ele>
        <time>2023-07-23T07:06:07Z</time>
      </trkpt>
      <trkpt lat="44.05146" lon="1.92604">
        <ele>241.6</ele>
        <time>2023-07-23T07:06:10Z</time>
      </trkpt>
      <trkpt lat="44.05145" lon="1.92601">
        <ele>241</ele>
        <time>2023-07-23T07:06:11Z</time>
      </trkpt>
      <trkpt lat="44.05144" lon="1.92597">
        <ele>240.4</ele>
        <time>2023-07-23T07:06:12Z</time>
      </trkpt>
      <trkpt lat="44.05143" lon="1.92595">
        <ele>240.4</ele>
        <time>2023-07-23T07:06:13Z</time>
      </trkpt>
      <trkpt lat="44.05138" lon="1.92582">
        <ele>239.4</ele>
        <time>2023-07-23T07:06:16Z</time>
      </trkpt>
      <trkpt lat="44.05136" lon="1.92579">
        <ele>239.2</ele>
        <time>2023-07-23T07:06:17Z</time>
      </trkpt>
      <trkpt lat="44.05136" lon="1.92577">
        <ele>238.6</ele>
        <time>2023-07-23T07:06:18Z</time>
      </trkpt>
      <trkpt lat="44.05134" lon="1.92575">
        <ele>238.4</ele>
        <time>2023-07-23T07:06:19Z</time>
      </trkpt>
      <trkpt lat="44.05132" lon="1.92573">
        <ele>238.2</ele>
        <time>2023-07-23T07:06:20Z</time>
      </trkpt>
      <trkpt lat="44.0513" lon="1.92571">
        <ele>237.6</ele>
        <time>2023-07-23T07:06:21Z</time>
      </trkpt>
      <trkpt lat="44.05128" lon="1.92569">
        <ele>237.6</ele>
        <time>2023-07-23T07:06:22Z</time>
      </trkpt>
      <trkpt lat="44.05117" lon="1.92562">
        <ele>237.2</ele>
        <time>2023-07-23T07:06:28Z</time>
      </trkpt>
      <trkpt lat="44.05114" lon="1.92561">
        <ele>237.2</ele>
        <time>2023-07-23T07:06:30Z</time>
      </trkpt>
      <trkpt lat="44.05099" lon="1.92557">
        <ele>237.4</ele>
        <time>2023-07-23T07:06:37Z</time>
      </trkpt>
      <trkpt lat="44.05079" lon="1.92552">
        <ele>237.4</ele>
        <time>2023-07-23T07:06:43Z</time>
      </trkpt>
      <trkpt lat="44.0507" lon="1.92555">
        <ele>237.4</ele>
        <time>2023-07-23T07:06:45Z</time>
      </trkpt>
      <trkpt lat="44.05065" lon="1.92557">
        <ele>237.2</ele>
        <time>2023-07-23T07:06:46Z</time>
      </trkpt>
      <trkpt lat="44.05061" lon="1.92558">
        <ele>237.2</ele>
        <time>2023-07-23T07:06:47Z</time>
      </trkpt>
      <trkpt lat="44.05057" lon="1.92558">
        <ele>237</ele>
        <time>2023-07-23T07:06:48Z</time>
      </trkpt>
      <trkpt lat="44.05053" lon="1.92556">
        <ele>237</ele>
        <time>2023-07-23T07:06:49Z</time>
      </trkpt>
      <trkpt lat="44.05048" lon="1.92555">
        <ele>236.6</ele>
        <time>2023-07-23T07:06:50Z</time>
      </trkpt>
      <trkpt lat="44.05043" lon="1.92554">
        <ele>236.6</ele>
        <time>2023-07-23T07:06:51Z</time>
      </trkpt>
      <trkpt lat="44.0504" lon="1.92556">
        <ele>236.2</ele>
        <time>2023-07-23T07:06:52Z</time>
      </trkpt>
      <trkpt lat="44.05037" lon="1.92558">
        <ele>235.6</ele>
        <time>2023-07-23T07:06:53Z</time>
      </trkpt>
      <trkpt lat="44.05035" lon="1.92562">
        <ele>235.4</ele>
        <time>2023-07-23T07:06:54Z</time>
      </trkpt>
      <trkpt lat="44.05032" lon="1.92568">
        <ele>234.6</ele>
        <time>2023-07-23T07:06:55Z</time>
      </trkpt>
      <trkpt lat="44.05029" lon="1.92576">
        <ele>233.4</ele>
        <time>2023-07-23T07:06:57Z</time>
      </trkpt>
      <trkpt lat="44.05027" lon="1.92581">
        <ele>233.2</ele>
        <time>2023-07-23T07:06:58Z</time>
      </trkpt>
      <trkpt lat="44.05025" lon="1.92586">
        <ele>232.4</ele>
        <time>2023-07-23T07:06:59Z</time>
      </trkpt>
      <trkpt lat="44.05023" lon="1.92591">
        <ele>231.6</ele>
        <time>2023-07-23T07:07:00Z</time>
      </trkpt>
      <trkpt lat="44.0502" lon="1.92596">
        <ele>231.4</ele>
        <time>2023-07-23T07:07:01Z</time>
      </trkpt>
      <trkpt lat="44.05018" lon="1.92602">
        <ele>230.4</ele>
        <time>2023-07-23T07:07:02Z</time>
      </trkpt>
      <trkpt lat="44.05008" lon="1.9262">
        <ele>229.2</ele>
        <time>2023-07-23T07:07:05Z</time>
      </trkpt>
      <trkpt lat="44.05006" lon="1.92624">
        <ele>228.6</ele>
        <time>2023-07-23T07:07:06Z</time>
      </trkpt>
      <trkpt lat="44.04999" lon="1.92636">
        <ele>227.6</ele>
        <time>2023-07-23T07:07:08Z</time>
      </trkpt>
      <trkpt lat="44.04992" lon="1.92646">
        <ele>226.6</ele>
        <time>2023-07-23T07:07:10Z</time>
      </trkpt>
      <trkpt lat="44.04989" lon="1.92651">
        <ele>225</ele>
        <time>2023-07-23T07:07:11Z</time>
      </trkpt>
      <trkpt lat="44.04982" lon="1.92665">
        <ele>224</ele>
        <time>2023-07-23T07:07:13Z</time>
      </trkpt>
      <trkpt lat="44.04971" lon="1.92682">
        <ele>222.6</ele>
        <time>2023-07-23T07:07:16Z</time>
      </trkpt>
      <trkpt lat="44.04967" lon="1.92686">
        <ele>222.4</ele>
        <time>2023-07-23T07:07:17Z</time>
      </trkpt>
      <trkpt lat="44.0496" lon="1.92699">
        <ele>221.4</ele>
        <time>2023-07-23T07:07:19Z</time>
      </trkpt>
      <trkpt lat="44.04957" lon="1.92704">
        <ele>220.4</ele>
        <time>2023-07-23T07:07:20Z</time>
      </trkpt>
      <trkpt lat="44.04952" lon="1.92718">
        <ele>218.4</ele>
        <time>2023-07-23T07:07:22Z</time>
      </trkpt>
      <trkpt lat="44.04949" lon="1.92725">
        <ele>217.6</ele>
        <time>2023-07-23T07:07:23Z</time>
      </trkpt>
      <trkpt lat="44.04947" lon="1.92729">
        <ele>216.4</ele>
        <time>2023-07-23T07:07:24Z</time>
      </trkpt>
      <trkpt lat="44.04945" lon="1.92732">
        <ele>215.6</ele>
        <time>2023-07-23T07:07:25Z</time>
      </trkpt>
      <trkpt lat="44.04943" lon="1.92736">
        <ele>215.4</ele>
        <time>2023-07-23T07:07:26Z</time>
      </trkpt>
      <trkpt lat="44.04941" lon="1.92739">
        <ele>214.2</ele>
        <time>2023-07-23T07:07:27Z</time>
      </trkpt>
      <trkpt lat="44.04937" lon="1.92744">
        <ele>213.6</ele>
        <time>2023-07-23T07:07:28Z</time>
      </trkpt>
      <trkpt lat="44.04933" lon="1.92749">
        <ele>212.8</ele>
        <time>2023-07-23T07:07:29Z</time>
      </trkpt>
      <trkpt lat="44.04925" lon="1.92757">
        <ele>211.8</ele>
        <time>2023-07-23T07:07:31Z</time>
      </trkpt>
      <trkpt lat="44.04921" lon="1.92762">
        <ele>211</ele>
        <time>2023-07-23T07:07:32Z</time>
      </trkpt>
      <trkpt lat="44.0491" lon="1.92774">
        <ele>210.2</ele>
        <time>2023-07-23T07:07:34Z</time>
      </trkpt>
      <trkpt lat="44.04902" lon="1.92783">
        <ele>209.6</ele>
        <time>2023-07-23T07:07:36Z</time>
      </trkpt>
      <trkpt lat="44.04899" lon="1.92786">
        <ele>209</ele>
        <time>2023-07-23T07:07:37Z</time>
      </trkpt>
      <trkpt lat="44.04896" lon="1.9279">
        <ele>207.6</ele>
        <time>2023-07-23T07:07:38Z</time>
      </trkpt>
      <trkpt lat="44.04893" lon="1.92794">
        <ele>207</ele>
        <time>2023-07-23T07:07:39Z</time>
      </trkpt>
      <trkpt lat="44.04891" lon="1.92797">
        <ele>206.2</ele>
        <time>2023-07-23T07:07:40Z</time>
      </trkpt>
      <trkpt lat="44.04889" lon="1.92801">
        <ele>205.8</ele>
        <time>2023-07-23T07:07:41Z</time>
      </trkpt>
      <trkpt lat="44.04885" lon="1.92805">
        <ele>205.6</ele>
        <time>2023-07-23T07:07:42Z</time>
      </trkpt>
      <trkpt lat="44.04882" lon="1.92808">
        <ele>205</ele>
        <time>2023-07-23T07:07:43Z</time>
      </trkpt>
      <trkpt lat="44.04877" lon="1.92813">
        <ele>204.2</ele>
        <time>2023-07-23T07:07:45Z</time>
      </trkpt>
      <trkpt lat="44.04875" lon="1.92816">
        <ele>203.6</ele>
        <time>2023-07-23T07:07:46Z</time>
      </trkpt>
      <trkpt lat="44.04873" lon="1.92819">
        <ele>202.8</ele>
        <time>2023-07-23T07:07:47Z</time>
      </trkpt>
      <trkpt lat="44.04872" lon="1.92822">
        <ele>202.2</ele>
        <time>2023-07-23T07:07:48Z</time>
      </trkpt>
      <trkpt lat="44.04871" lon="1.92823">
        <ele>202</ele>
        <time>2023-07-23T07:07:49Z</time>
      </trkpt>
      <trkpt lat="44.0487" lon="1.92824">
        <ele>201.4</ele>
        <time>2023-07-23T07:07:50Z</time>
      </trkpt>
      <trkpt lat="44.04868" lon="1.92825">
        <ele>201.2</ele>
        <time>2023-07-23T07:07:51Z</time>
      </trkpt>
      <trkpt lat="44.04866" lon="1.92826">
        <ele>200.8</ele>
        <time>2023-07-23T07:07:52Z</time>
      </trkpt>
      <trkpt lat="44.04865" lon="1.92827">
        <ele>200.6</ele>
        <time>2023-07-23T07:07:53Z</time>
      </trkpt>
      <trkpt lat="44.04864" lon="1.92829">
        <ele>200.4</ele>
        <time>2023-07-23T07:07:54Z</time>
      </trkpt>
      <trkpt lat="44.04863" lon="1.9283">
        <ele>200.2</ele>
        <time>2023-07-23T07:07:55Z</time>
      </trkpt>
      <trkpt lat="44.04862" lon="1.92831">
        <ele>199.8</ele>
        <time>2023-07-23T07:07:56Z</time>
      </trkpt>
      <trkpt lat="44.04852" lon="1.92836">
        <ele>198.8</ele>
        <time>2023-07-23T07:08:01Z</time>
      </trkpt>
      <trkpt lat="44.04849" lon="1.92837">
        <ele>198.4</ele>
        <time>2023-07-23T07:08:03Z</time>
      </trkpt>
      <trkpt lat="44.04848" lon="1.92837">
        <ele>198.2</ele>
        <time>2023-07-23T07:08:04Z</time>
      </trkpt>
      <trkpt lat="44.04847" lon="1.92838">
        <ele>198</ele>
        <time>2023-07-23T07:08:05Z</time>
      </trkpt>
      <trkpt lat="44.04845" lon="1.92839">
        <ele>197.8</ele>
        <time>2023-07-23T07:08:06Z</time>
      </trkpt>
      <trkpt lat="44.04842" lon="1.92841">
        <ele>197.4</ele>
        <time>2023-07-23T07:08:08Z</time>
      </trkpt>
      <trkpt lat="44.04841" lon="1.92841">
        <ele>197.4</ele>
        <time>2023-07-23T07:08:09Z</time>
      </trkpt>
      <trkpt lat="44.0484" lon="1.92843">
        <ele>197.2</ele>
        <time>2023-07-23T07:08:10Z</time>
      </trkpt>
      <trkpt lat="44.04837" lon="1.92845">
        <ele>197</ele>
        <time>2023-07-23T07:08:11Z</time>
      </trkpt>
      <trkpt lat="44.04831" lon="1.92848">
        <ele>196.6</ele>
        <time>2023-07-23T07:08:14Z</time>
      </trkpt>
      <trkpt lat="44.0483" lon="1.9285">
        <ele>196.4</ele>
        <time>2023-07-23T07:08:15Z</time>
      </trkpt>
      <trkpt lat="44.04828" lon="1.92851">
        <ele>196.4</ele>
        <time>2023-07-23T07:08:16Z</time>
      </trkpt>
      <trkpt lat="44.04827" lon="1.92853">
        <ele>196.2</ele>
        <time>2023-07-23T07:08:17Z</time>
      </trkpt>
      <trkpt lat="44.04826" lon="1.92854">
        <ele>196</ele>
        <time>2023-07-23T07:08:18Z</time>
      </trkpt>
      <trkpt lat="44.04822" lon="1.92856">
        <ele>195.8</ele>
        <time>2023-07-23T07:08:20Z</time>
      </trkpt>
      <trkpt lat="44.0482" lon="1.92858">
        <ele>195.6</ele>
        <time>2023-07-23T07:08:21Z</time>
      </trkpt>
      <trkpt lat="44.04818" lon="1.92859">
        <ele>195.4</ele>
        <time>2023-07-23T07:08:22Z</time>
      </trkpt>
      <trkpt lat="44.04809" lon="1.92865">
        <ele>194.8</ele>
        <time>2023-07-23T07:08:26Z</time>
      </trkpt>
      <trkpt lat="44.0479" lon="1.92875">
        <ele>194.2</ele>
        <time>2023-07-23T07:08:31Z</time>
      </trkpt>
      <trkpt lat="44.04786" lon="1.92878">
        <ele>194.2</ele>
        <time>2023-07-23T07:08:32Z</time>
      </trkpt>
      <trkpt lat="44.04775" lon="1.92888">
        <ele>193.2</ele>
        <time>2023-07-23T07:08:35Z</time>
      </trkpt>
      <trkpt lat="44.04771" lon="1.92892">
        <ele>192.8</ele>
        <time>2023-07-23T07:08:36Z</time>
      </trkpt>
      <trkpt lat="44.04765" lon="1.92896">
        <ele>192.6</ele>
        <time>2023-07-23T07:08:37Z</time>
      </trkpt>
      <trkpt lat="44.04759" lon="1.92898">
        <ele>192.4</ele>
        <time>2023-07-23T07:08:38Z</time>
      </trkpt>
      <trkpt lat="44.04745" lon="1.92895">
        <ele>192.2</ele>
        <time>2023-07-23T07:08:40Z</time>
      </trkpt>
      <trkpt lat="44.04738" lon="1.9289">
        <ele>192</ele>
        <time>2023-07-23T07:08:41Z</time>
      </trkpt>
      <trkpt lat="44.04733" lon="1.92884">
        <ele>191.6</ele>
        <time>2023-07-23T07:08:42Z</time>
      </trkpt>
      <trkpt lat="44.04729" lon="1.9288">
        <ele>191.4</ele>
        <time>2023-07-23T07:08:43Z</time>
      </trkpt>
      <trkpt lat="44.04724" lon="1.92874">
        <ele>190.8</ele>
        <time>2023-07-23T07:08:44Z</time>
      </trkpt>
      <trkpt lat="44.04718" lon="1.92868">
        <ele>190.4</ele>
        <time>2023-07-23T07:08:45Z</time>
      </trkpt>
      <trkpt lat="44.04714" lon="1.92865">
        <ele>190.2</ele>
        <time>2023-07-23T07:08:46Z</time>
      </trkpt>
      <trkpt lat="44.04708" lon="1.92861">
        <ele>189.6</ele>
        <time>2023-07-23T07:08:47Z</time>
      </trkpt>
      <trkpt lat="44.04703" lon="1.92859">
        <ele>189.4</ele>
        <time>2023-07-23T07:08:48Z</time>
      </trkpt>
      <trkpt lat="44.04693" lon="1.92859">
        <ele>189.2</ele>
        <time>2023-07-23T07:08:50Z</time>
      </trkpt>
      <trkpt lat="44.04689" lon="1.92861">
        <ele>189</ele>
        <time>2023-07-23T07:08:51Z</time>
      </trkpt>
      <trkpt lat="44.04686" lon="1.92862">
        <ele>189</ele>
        <time>2023-07-23T07:08:52Z</time>
      </trkpt>
      <trkpt lat="44.04684" lon="1.92863">
        <ele>189</ele>
        <time>2023-07-23T07:08:53Z</time>
      </trkpt>
      <trkpt lat="44.04681" lon="1.92865">
        <ele>189</ele>
        <time>2023-07-23T07:08:54Z</time>
      </trkpt>
      <trkpt lat="44.04679" lon="1.92867">
        <ele>189</ele>
        <time>2023-07-23T07:08:55Z</time>
      </trkpt>
      <trkpt lat="44.04676" lon="1.92869">
        <ele>189</ele>
        <time>2023-07-23T07:08:56Z</time>
      </trkpt>
      <trkpt lat="44.04674" lon="1.92871">
        <ele>189.2</ele>
        <time>2023-07-23T07:08:57Z</time>
      </trkpt>
      <trkpt lat="44.04664" lon="1.92882">
        <ele>189.4</ele>
        <time>2023-07-23T07:09:01Z</time>
      </trkpt>
      <trkpt lat="44.04642" lon="1.92907">
        <ele>190.4</ele>
        <time>2023-07-23T07:09:10Z</time>
      </trkpt>
      <trkpt lat="44.04632" lon="1.9292">
        <ele>190.8</ele>
        <time>2023-07-23T07:09:14Z</time>
      </trkpt>
      <trkpt lat="44.04624" lon="1.92929">
        <ele>191.4</ele>
        <time>2023-07-23T07:09:17Z</time>
      </trkpt>
      <trkpt lat="44.0462" lon="1.92936">
        <ele>191.6</ele>
        <time>2023-07-23T07:09:19Z</time>
      </trkpt>
      <trkpt lat="44.04614" lon="1.92945">
        <ele>191.8</ele>
        <time>2023-07-23T07:09:22Z</time>
      </trkpt>
      <trkpt lat="44.04606" lon="1.92959">
        <ele>192.4</ele>
        <time>2023-07-23T07:09:26Z</time>
      </trkpt>
      <trkpt lat="44.04601" lon="1.9297">
        <ele>192.6</ele>
        <time>2023-07-23T07:09:29Z</time>
      </trkpt>
      <trkpt lat="44.04599" lon="1.92973">
        <ele>192.8</ele>
        <time>2023-07-23T07:09:30Z</time>
      </trkpt>
      <trkpt lat="44.04596" lon="1.92981">
        <ele>193</ele>
        <time>2023-07-23T07:09:32Z</time>
      </trkpt>
      <trkpt lat="44.04594" lon="1.92985">
        <ele>193.2</ele>
        <time>2023-07-23T07:09:33Z</time>
      </trkpt>
      <trkpt lat="44.04592" lon="1.92988">
        <ele>193.2</ele>
        <time>2023-07-23T07:09:34Z</time>
      </trkpt>
      <trkpt lat="44.04591" lon="1.92992">
        <ele>193.4</ele>
        <time>2023-07-23T07:09:35Z</time>
      </trkpt>
      <trkpt lat="44.04589" lon="1.92995">
        <ele>193.4</ele>
        <time>2023-07-23T07:09:36Z</time>
      </trkpt>
      <trkpt lat="44.04587" lon="1.92998">
        <ele>193.6</ele>
        <time>2023-07-23T07:09:37Z</time>
      </trkpt>
      <trkpt lat="44.04586" lon="1.93001">
        <ele>193.6</ele>
        <time>2023-07-23T07:09:38Z</time>
      </trkpt>
      <trkpt lat="44.04585" lon="1.93003">
        <ele>193.8</ele>
        <time>2023-07-23T07:09:39Z</time>
      </trkpt>
      <trkpt lat="44.04584" lon="1.93005">
        <ele>194</ele>
        <time>2023-07-23T07:09:40Z</time>
      </trkpt>
      <trkpt lat="44.04584" lon="1.93007">
        <ele>194.2</ele>
        <time>2023-07-23T07:09:41Z</time>
      </trkpt>
      <trkpt lat="44.04583" lon="1.93009">
        <ele>194.4</ele>
        <time>2023-07-23T07:09:42Z</time>
      </trkpt>
      <trkpt lat="44.04583" lon="1.93011">
        <ele>194.4</ele>
        <time>2023-07-23T07:09:43Z</time>
      </trkpt>
      <trkpt lat="44.04581" lon="1.93013">
        <ele>194.6</ele>
        <time>2023-07-23T07:09:44Z</time>
      </trkpt>
      <trkpt lat="44.0458" lon="1.93016">
        <ele>194.6</ele>
        <time>2023-07-23T07:09:45Z</time>
      </trkpt>
      <trkpt lat="44.0458" lon="1.93018">
        <ele>194.8</ele>
        <time>2023-07-23T07:09:46Z</time>
      </trkpt>
      <trkpt lat="44.04578" lon="1.9302">
        <ele>195</ele>
        <time>2023-07-23T07:09:47Z</time>
      </trkpt>
      <trkpt lat="44.04577" lon="1.93023">
        <ele>195</ele>
        <time>2023-07-23T07:09:48Z</time>
      </trkpt>
      <trkpt lat="44.04575" lon="1.93025">
        <ele>195.2</ele>
        <time>2023-07-23T07:09:49Z</time>
      </trkpt>
      <trkpt lat="44.04574" lon="1.93028">
        <ele>195.2</ele>
        <time>2023-07-23T07:09:50Z</time>
      </trkpt>
      <trkpt lat="44.04573" lon="1.9303">
        <ele>195.2</ele>
        <time>2023-07-23T07:09:51Z</time>
      </trkpt>
      <trkpt lat="44.04571" lon="1.93032">
        <ele>195.4</ele>
        <time>2023-07-23T07:09:52Z</time>
      </trkpt>
      <trkpt lat="44.0457" lon="1.93034">
        <ele>195.4</ele>
        <time>2023-07-23T07:09:53Z</time>
      </trkpt>
      <trkpt lat="44.04568" lon="1.93036">
        <ele>195.6</ele>
        <time>2023-07-23T07:09:54Z</time>
      </trkpt>
      <trkpt lat="44.04567" lon="1.93039">
        <ele>195.8</ele>
        <time>2023-07-23T07:09:55Z</time>
      </trkpt>
      <trkpt lat="44.04565" lon="1.93041">
        <ele>196</ele>
        <time>2023-07-23T07:09:56Z</time>
      </trkpt>
      <trkpt lat="44.04564" lon="1.93044">
        <ele>196.2</ele>
        <time>2023-07-23T07:09:57Z</time>
      </trkpt>
      <trkpt lat="44.04563" lon="1.93046">
        <ele>196.2</ele>
        <time>2023-07-23T07:09:58Z</time>
      </trkpt>
      <trkpt lat="44.04561" lon="1.93049">
        <ele>196.4</ele>
        <time>2023-07-23T07:09:59Z</time>
      </trkpt>
      <trkpt lat="44.04559" lon="1.9305">
        <ele>196.4</ele>
        <time>2023-07-23T07:10:00Z</time>
      </trkpt>
      <trkpt lat="44.04558" lon="1.93052">
        <ele>196.4</ele>
        <time>2023-07-23T07:10:01Z</time>
      </trkpt>
      <trkpt lat="44.04556" lon="1.93055">
        <ele>196.8</ele>
        <time>2023-07-23T07:10:02Z</time>
      </trkpt>
      <trkpt lat="44.04555" lon="1.93057">
        <ele>197</ele>
        <time>2023-07-23T07:10:03Z</time>
      </trkpt>
      <trkpt lat="44.04553" lon="1.9306">
        <ele>197</ele>
        <time>2023-07-23T07:10:04Z</time>
      </trkpt>
      <trkpt lat="44.04552" lon="1.93062">
        <ele>197.4</ele>
        <time>2023-07-23T07:10:05Z</time>
      </trkpt>
      <trkpt lat="44.0455" lon="1.93064">
        <ele>197.2</ele>
        <time>2023-07-23T07:10:06Z</time>
      </trkpt>
      <trkpt lat="44.04547" lon="1.93067">
        <ele>197.6</ele>
        <time>2023-07-23T07:10:07Z</time>
      </trkpt>
      <trkpt lat="44.04546" lon="1.93069">
        <ele>197.6</ele>
        <time>2023-07-23T07:10:08Z</time>
      </trkpt>
      <trkpt lat="44.04544" lon="1.93071">
        <ele>198.2</ele>
        <time>2023-07-23T07:10:09Z</time>
      </trkpt>
      <trkpt lat="44.04543" lon="1.93072">
        <ele>198.4</ele>
        <time>2023-07-23T07:10:10Z</time>
      </trkpt>
      <trkpt lat="44.04541" lon="1.93074">
        <ele>198.6</ele>
        <time>2023-07-23T07:10:11Z</time>
      </trkpt>
      <trkpt lat="44.04539" lon="1.93077">
        <ele>198.8</ele>
        <time>2023-07-23T07:10:12Z</time>
      </trkpt>
      <trkpt lat="44.04537" lon="1.9308">
        <ele>198.8</ele>
        <time>2023-07-23T07:10:13Z</time>
      </trkpt>
      <trkpt lat="44.04535" lon="1.93082">
        <ele>199</ele>
        <time>2023-07-23T07:10:14Z</time>
      </trkpt>
      <trkpt lat="44.04533" lon="1.93084">
        <ele>199</ele>
        <time>2023-07-23T07:10:15Z</time>
      </trkpt>
      <trkpt lat="44.04531" lon="1.93085">
        <ele>199.2</ele>
        <time>2023-07-23T07:10:16Z</time>
      </trkpt>
      <trkpt lat="44.04529" lon="1.93087">
        <ele>199.2</ele>
        <time>2023-07-23T07:10:17Z</time>
      </trkpt>
      <trkpt lat="44.04527" lon="1.93088">
        <ele>199.4</ele>
        <time>2023-07-23T07:10:18Z</time>
      </trkpt>
      <trkpt lat="44.04524" lon="1.9309">
        <ele>199.4</ele>
        <time>2023-07-23T07:10:19Z</time>
      </trkpt>
      <trkpt lat="44.04522" lon="1.93092">
        <ele>199.4</ele>
        <time>2023-07-23T07:10:20Z</time>
      </trkpt>
      <trkpt lat="44.04519" lon="1.93095">
        <ele>199.6</ele>
        <time>2023-07-23T07:10:21Z</time>
      </trkpt>
      <trkpt lat="44.04517" lon="1.93097">
        <ele>199.6</ele>
        <time>2023-07-23T07:10:22Z</time>
      </trkpt>
      <trkpt lat="44.04515" lon="1.93099">
        <ele>199.8</ele>
        <time>2023-07-23T07:10:23Z</time>
      </trkpt>
      <trkpt lat="44.04512" lon="1.93101">
        <ele>199.8</ele>
        <time>2023-07-23T07:10:24Z</time>
      </trkpt>
      <trkpt lat="44.0451" lon="1.93103">
        <ele>200</ele>
        <time>2023-07-23T07:10:25Z</time>
      </trkpt>
      <trkpt lat="44.04507" lon="1.93104">
        <ele>200</ele>
        <time>2023-07-23T07:10:26Z</time>
      </trkpt>
      <trkpt lat="44.04505" lon="1.93106">
        <ele>200</ele>
        <time>2023-07-23T07:10:27Z</time>
      </trkpt>
      <trkpt lat="44.04503" lon="1.93107">
        <ele>200.2</ele>
        <time>2023-07-23T07:10:28Z</time>
      </trkpt>
      <trkpt lat="44.045" lon="1.93108">
        <ele>200.2</ele>
        <time>2023-07-23T07:10:29Z</time>
      </trkpt>
      <trkpt lat="44.04498" lon="1.9311">
        <ele>200.2</ele>
        <time>2023-07-23T07:10:30Z</time>
      </trkpt>
      <trkpt lat="44.04496" lon="1.93112">
        <ele>200.2</ele>
        <time>2023-07-23T07:10:31Z</time>
      </trkpt>
      <trkpt lat="44.04493" lon="1.93114">
        <ele>200.4</ele>
        <time>2023-07-23T07:10:32Z</time>
      </trkpt>
      <trkpt lat="44.0449" lon="1.93116">
        <ele>200.4</ele>
        <time>2023-07-23T07:10:33Z</time>
      </trkpt>
      <trkpt lat="44.04487" lon="1.93118">
        <ele>200.4</ele>
        <time>2023-07-23T07:10:34Z</time>
      </trkpt>
      <trkpt lat="44.04485" lon="1.93119">
        <ele>200.4</ele>
        <time>2023-07-23T07:10:35Z</time>
      </trkpt>
      <trkpt lat="44.04482" lon="1.9312">
        <ele>200.4</ele>
        <time>2023-07-23T07:10:36Z</time>
      </trkpt>
      <trkpt lat="44.0448" lon="1.93122">
        <ele>200.4</ele>
        <time>2023-07-23T07:10:37Z</time>
      </trkpt>
      <trkpt lat="44.04471" lon="1.93131">
        <ele>200.8</ele>
        <time>2023-07-23T07:10:41Z</time>
      </trkpt>
      <trkpt lat="44.04465" lon="1.93134">
        <ele>201.2</ele>
        <time>2023-07-23T07:10:44Z</time>
      </trkpt>
      <trkpt lat="44.04462" lon="1.93136">
        <ele>201.2</ele>
        <time>2023-07-23T07:10:45Z</time>
      </trkpt>
      <trkpt lat="44.04461" lon="1.93136">
        <ele>201.2</ele>
        <time>2023-07-23T07:10:46Z</time>
      </trkpt>
      <trkpt lat="44.04459" lon="1.93137">
        <ele>201.4</ele>
        <time>2023-07-23T07:10:47Z</time>
      </trkpt>
      <trkpt lat="44.04458" lon="1.93137">
        <ele>201.6</ele>
        <time>2023-07-23T07:10:48Z</time>
      </trkpt>
      <trkpt lat="44.04456" lon="1.93138">
        <ele>201.8</ele>
        <time>2023-07-23T07:10:49Z</time>
      </trkpt>
      <trkpt lat="44.04454" lon="1.93137">
        <ele>201.8</ele>
        <time>2023-07-23T07:10:50Z</time>
      </trkpt>
      <trkpt lat="44.04454" lon="1.93137">
        <ele>202</ele>
        <time>2023-07-23T07:10:51Z</time>
      </trkpt>
      <trkpt lat="44.04453" lon="1.93138">
        <ele>202.2</ele>
        <time>2023-07-23T07:10:52Z</time>
      </trkpt>
      <trkpt lat="44.04452" lon="1.93139">
        <ele>202.4</ele>
        <time>2023-07-23T07:10:53Z</time>
      </trkpt>
      <trkpt lat="44.04452" lon="1.9314">
        <ele>202.4</ele>
        <time>2023-07-23T07:10:54Z</time>
      </trkpt>
      <trkpt lat="44.04451" lon="1.93141">
        <ele>202.6</ele>
        <time>2023-07-23T07:10:55Z</time>
      </trkpt>
      <trkpt lat="44.0445" lon="1.93142">
        <ele>202.8</ele>
        <time>2023-07-23T07:10:56Z</time>
      </trkpt>
      <trkpt lat="44.04449" lon="1.93142">
        <ele>203.2</ele>
        <time>2023-07-23T07:10:57Z</time>
      </trkpt>
      <trkpt lat="44.04447" lon="1.93142">
        <ele>203.4</ele>
        <time>2023-07-23T07:10:58Z</time>
      </trkpt>
      <trkpt lat="44.04446" lon="1.93143">
        <ele>203.6</ele>
        <time>2023-07-23T07:10:59Z</time>
      </trkpt>
      <trkpt lat="44.04445" lon="1.93143">
        <ele>203.8</ele>
        <time>2023-07-23T07:11:00Z</time>
      </trkpt>
      <trkpt lat="44.04445" lon="1.93144">
        <ele>204</ele>
        <time>2023-07-23T07:11:01Z</time>
      </trkpt>
      <trkpt lat="44.04443" lon="1.93145">
        <ele>204.4</ele>
        <time>2023-07-23T07:11:02Z</time>
      </trkpt>
      <trkpt lat="44.04442" lon="1.93145">
        <ele>204.6</ele>
        <time>2023-07-23T07:11:03Z</time>
      </trkpt>
      <trkpt lat="44.04441" lon="1.93146">
        <ele>204.8</ele>
        <time>2023-07-23T07:11:04Z</time>
      </trkpt>
      <trkpt lat="44.04439" lon="1.93146">
        <ele>205</ele>
        <time>2023-07-23T07:11:05Z</time>
      </trkpt>
      <trkpt lat="44.04438" lon="1.93146">
        <ele>205.4</ele>
        <time>2023-07-23T07:11:06Z</time>
      </trkpt>
      <trkpt lat="44.04437" lon="1.93146">
        <ele>205.6</ele>
        <time>2023-07-23T07:11:07Z</time>
      </trkpt>
      <trkpt lat="44.04436" lon="1.93146">
        <ele>205.8</ele>
        <time>2023-07-23T07:11:08Z</time>
      </trkpt>
      <trkpt lat="44.04435" lon="1.93146">
        <ele>206.2</ele>
        <time>2023-07-23T07:11:09Z</time>
      </trkpt>
      <trkpt lat="44.04434" lon="1.93145">
        <ele>206.4</ele>
        <time>2023-07-23T07:11:10Z</time>
      </trkpt>
      <trkpt lat="44.04433" lon="1.93145">
        <ele>206.6</ele>
        <time>2023-07-23T07:11:11Z</time>
      </trkpt>
      <trkpt lat="44.04432" lon="1.93145">
        <ele>206.8</ele>
        <time>2023-07-23T07:11:12Z</time>
      </trkpt>
      <trkpt lat="44.04431" lon="1.93144">
        <ele>207</ele>
        <time>2023-07-23T07:11:13Z</time>
      </trkpt>
      <trkpt lat="44.04429" lon="1.93143">
        <ele>207.2</ele>
        <time>2023-07-23T07:11:14Z</time>
      </trkpt>
      <trkpt lat="44.04428" lon="1.93142">
        <ele>207.4</ele>
        <time>2023-07-23T07:11:15Z</time>
      </trkpt>
      <trkpt lat="44.04426" lon="1.93141">
        <ele>207.4</ele>
        <time>2023-07-23T07:11:16Z</time>
      </trkpt>
      <trkpt lat="44.04425" lon="1.9314">
        <ele>207.6</ele>
        <time>2023-07-23T07:11:17Z</time>
      </trkpt>
      <trkpt lat="44.04423" lon="1.93138">
        <ele>207.6</ele>
        <time>2023-07-23T07:11:18Z</time>
      </trkpt>
      <trkpt lat="44.04422" lon="1.93137">
        <ele>207.8</ele>
        <time>2023-07-23T07:11:19Z</time>
      </trkpt>
      <trkpt lat="44.04421" lon="1.93135">
        <ele>207.8</ele>
        <time>2023-07-23T07:11:20Z</time>
      </trkpt>
      <trkpt lat="44.0442" lon="1.93133">
        <ele>208</ele>
        <time>2023-07-23T07:11:21Z</time>
      </trkpt>
      <trkpt lat="44.04419" lon="1.93132">
        <ele>208</ele>
        <time>2023-07-23T07:11:22Z</time>
      </trkpt>
      <trkpt lat="44.04418" lon="1.93131">
        <ele>208</ele>
        <time>2023-07-23T07:11:23Z</time>
      </trkpt>
      <trkpt lat="44.04416" lon="1.9313">
        <ele>208</ele>
        <time>2023-07-23T07:11:24Z</time>
      </trkpt>
      <trkpt lat="44.04415" lon="1.93129">
        <ele>208.2</ele>
        <time>2023-07-23T07:11:25Z</time>
      </trkpt>
      <trkpt lat="44.04414" lon="1.93128">
        <ele>208.2</ele>
        <time>2023-07-23T07:11:26Z</time>
      </trkpt>
      <trkpt lat="44.04412" lon="1.93126">
        <ele>208.2</ele>
        <time>2023-07-23T07:11:27Z</time>
      </trkpt>
      <trkpt lat="44.04411" lon="1.93125">
        <ele>208.2</ele>
        <time>2023-07-23T07:11:28Z</time>
      </trkpt>
      <trkpt lat="44.04409" lon="1.93124">
        <ele>208.4</ele>
        <time>2023-07-23T07:11:29Z</time>
      </trkpt>
      <trkpt lat="44.04407" lon="1.93123">
        <ele>208.6</ele>
        <time>2023-07-23T07:11:30Z</time>
      </trkpt>
      <trkpt lat="44.04406" lon="1.93122">
        <ele>208.6</ele>
        <time>2023-07-23T07:11:31Z</time>
      </trkpt>
      <trkpt lat="44.04405" lon="1.93121">
        <ele>208.8</ele>
        <time>2023-07-23T07:11:32Z</time>
      </trkpt>
      <trkpt lat="44.04403" lon="1.9312">
        <ele>209</ele>
        <time>2023-07-23T07:11:33Z</time>
      </trkpt>
      <trkpt lat="44.04401" lon="1.93119">
        <ele>209</ele>
        <time>2023-07-23T07:11:34Z</time>
      </trkpt>
      <trkpt lat="44.044" lon="1.93118">
        <ele>209</ele>
        <time>2023-07-23T07:11:35Z</time>
      </trkpt>
      <trkpt lat="44.04398" lon="1.93117">
        <ele>209.2</ele>
        <time>2023-07-23T07:11:36Z</time>
      </trkpt>
      <trkpt lat="44.04396" lon="1.93115">
        <ele>209.4</ele>
        <time>2023-07-23T07:11:37Z</time>
      </trkpt>
      <trkpt lat="44.04394" lon="1.93115">
        <ele>209.4</ele>
        <time>2023-07-23T07:11:38Z</time>
      </trkpt>
      <trkpt lat="44.04392" lon="1.93114">
        <ele>209.6</ele>
        <time>2023-07-23T07:11:39Z</time>
      </trkpt>
      <trkpt lat="44.0439" lon="1.93112">
        <ele>209.8</ele>
        <time>2023-07-23T07:11:40Z</time>
      </trkpt>
      <trkpt lat="44.04389" lon="1.93111">
        <ele>209.8</ele>
        <time>2023-07-23T07:11:41Z</time>
      </trkpt>
      <trkpt lat="44.04388" lon="1.9311">
        <ele>210</ele>
        <time>2023-07-23T07:11:42Z</time>
      </trkpt>
      <trkpt lat="44.04385" lon="1.93109">
        <ele>210.2</ele>
        <time>2023-07-23T07:11:43Z</time>
      </trkpt>
      <trkpt lat="44.04383" lon="1.93108">
        <ele>210.4</ele>
        <time>2023-07-23T07:11:44Z</time>
      </trkpt>
      <trkpt lat="44.04381" lon="1.93107">
        <ele>210.4</ele>
        <time>2023-07-23T07:11:45Z</time>
      </trkpt>
      <trkpt lat="44.0438" lon="1.93107">
        <ele>210.8</ele>
        <time>2023-07-23T07:11:46Z</time>
      </trkpt>
      <trkpt lat="44.04378" lon="1.93106">
        <ele>210.8</ele>
        <time>2023-07-23T07:11:47Z</time>
      </trkpt>
      <trkpt lat="44.04375" lon="1.93105">
        <ele>211</ele>
        <time>2023-07-23T07:11:48Z</time>
      </trkpt>
      <trkpt lat="44.04374" lon="1.93104">
        <ele>211.2</ele>
        <time>2023-07-23T07:11:49Z</time>
      </trkpt>
      <trkpt lat="44.04371" lon="1.93103">
        <ele>211.4</ele>
        <time>2023-07-23T07:11:50Z</time>
      </trkpt>
      <trkpt lat="44.04369" lon="1.93101">
        <ele>211.4</ele>
        <time>2023-07-23T07:11:51Z</time>
      </trkpt>
      <trkpt lat="44.04368" lon="1.93101">
        <ele>211.8</ele>
        <time>2023-07-23T07:11:52Z</time>
      </trkpt>
      <trkpt lat="44.04366" lon="1.931">
        <ele>212</ele>
        <time>2023-07-23T07:11:53Z</time>
      </trkpt>
      <trkpt lat="44.04365" lon="1.93099">
        <ele>212</ele>
        <time>2023-07-23T07:11:54Z</time>
      </trkpt>
      <trkpt lat="44.04364" lon="1.93098">
        <ele>212.2</ele>
        <time>2023-07-23T07:11:55Z</time>
      </trkpt>
      <trkpt lat="44.04362" lon="1.93098">
        <ele>212.4</ele>
        <time>2023-07-23T07:11:56Z</time>
      </trkpt>
      <trkpt lat="44.04362" lon="1.93097">
        <ele>212.6</ele>
        <time>2023-07-23T07:11:57Z</time>
      </trkpt>
      <trkpt lat="44.0436" lon="1.93097">
        <ele>212.8</ele>
        <time>2023-07-23T07:11:58Z</time>
      </trkpt>
      <trkpt lat="44.04358" lon="1.93096">
        <ele>213</ele>
        <time>2023-07-23T07:11:59Z</time>
      </trkpt>
      <trkpt lat="44.04357" lon="1.93095">
        <ele>213.4</ele>
        <time>2023-07-23T07:12:00Z</time>
      </trkpt>
      <trkpt lat="44.04355" lon="1.93094">
        <ele>213.4</ele>
        <time>2023-07-23T07:12:01Z</time>
      </trkpt>
      <trkpt lat="44.04354" lon="1.93093">
        <ele>213.8</ele>
        <time>2023-07-23T07:12:02Z</time>
      </trkpt>
      <trkpt lat="44.04352" lon="1.93092">
        <ele>214</ele>
        <time>2023-07-23T07:12:03Z</time>
      </trkpt>
      <trkpt lat="44.04351" lon="1.93091">
        <ele>214.2</ele>
        <time>2023-07-23T07:12:04Z</time>
      </trkpt>
      <trkpt lat="44.04349" lon="1.9309">
        <ele>214.4</ele>
        <time>2023-07-23T07:12:05Z</time>
      </trkpt>
      <trkpt lat="44.04348" lon="1.9309">
        <ele>214.6</ele>
        <time>2023-07-23T07:12:06Z</time>
      </trkpt>
      <trkpt lat="44.04347" lon="1.93089">
        <ele>214.6</ele>
        <time>2023-07-23T07:12:07Z</time>
      </trkpt>
      <trkpt lat="44.04345" lon="1.93088">
        <ele>214.8</ele>
        <time>2023-07-23T07:12:08Z</time>
      </trkpt>
      <trkpt lat="44.04343" lon="1.93087">
        <ele>215</ele>
        <time>2023-07-23T07:12:09Z</time>
      </trkpt>
      <trkpt lat="44.04342" lon="1.93086">
        <ele>215.2</ele>
        <time>2023-07-23T07:12:10Z</time>
      </trkpt>
      <trkpt lat="44.0434" lon="1.93085">
        <ele>215.4</ele>
        <time>2023-07-23T07:12:11Z</time>
      </trkpt>
      <trkpt lat="44.04339" lon="1.93084">
        <ele>215.4</ele>
        <time>2023-07-23T07:12:12Z</time>
      </trkpt>
      <trkpt lat="44.04337" lon="1.93083">
        <ele>215.6</ele>
        <time>2023-07-23T07:12:13Z</time>
      </trkpt>
      <trkpt lat="44.04336" lon="1.93083">
        <ele>215.8</ele>
        <time>2023-07-23T07:12:14Z</time>
      </trkpt>
      <trkpt lat="44.04334" lon="1.93082">
        <ele>216</ele>
        <time>2023-07-23T07:12:15Z</time>
      </trkpt>
      <trkpt lat="44.04333" lon="1.93082">
        <ele>216.4</ele>
        <time>2023-07-23T07:12:16Z</time>
      </trkpt>
      <trkpt lat="44.04331" lon="1.9308">
        <ele>216.6</ele>
        <time>2023-07-23T07:12:17Z</time>
      </trkpt>
      <trkpt lat="44.0433" lon="1.93079">
        <ele>217</ele>
        <time>2023-07-23T07:12:18Z</time>
      </trkpt>
      <trkpt lat="44.04329" lon="1.93078">
        <ele>217</ele>
        <time>2023-07-23T07:12:19Z</time>
      </trkpt>
      <trkpt lat="44.04327" lon="1.93077">
        <ele>217.4</ele>
        <time>2023-07-23T07:12:20Z</time>
      </trkpt>
      <trkpt lat="44.04326" lon="1.93077">
        <ele>217.6</ele>
        <time>2023-07-23T07:12:21Z</time>
      </trkpt>
      <trkpt lat="44.04325" lon="1.93076">
        <ele>217.6</ele>
        <time>2023-07-23T07:12:22Z</time>
      </trkpt>
      <trkpt lat="44.04324" lon="1.93075">
        <ele>218</ele>
        <time>2023-07-23T07:12:23Z</time>
      </trkpt>
      <trkpt lat="44.04323" lon="1.93075">
        <ele>218.2</ele>
        <time>2023-07-23T07:12:24Z</time>
      </trkpt>
      <trkpt lat="44.04321" lon="1.93074">
        <ele>218.4</ele>
        <time>2023-07-23T07:12:25Z</time>
      </trkpt>
      <trkpt lat="44.04319" lon="1.93073">
        <ele>218.6</ele>
        <time>2023-07-23T07:12:26Z</time>
      </trkpt>
      <trkpt lat="44.04318" lon="1.93072">
        <ele>218.8</ele>
        <time>2023-07-23T07:12:27Z</time>
      </trkpt>
      <trkpt lat="44.04317" lon="1.93071">
        <ele>219</ele>
        <time>2023-07-23T07:12:28Z</time>
      </trkpt>
      <trkpt lat="44.04316" lon="1.9307">
        <ele>219.2</ele>
        <time>2023-07-23T07:12:29Z</time>
      </trkpt>
      <trkpt lat="44.04314" lon="1.93069">
        <ele>219.4</ele>
        <time>2023-07-23T07:12:30Z</time>
      </trkpt>
      <trkpt lat="44.04313" lon="1.93069">
        <ele>219.6</ele>
        <time>2023-07-23T07:12:31Z</time>
      </trkpt>
      <trkpt lat="44.04312" lon="1.93069">
        <ele>220</ele>
        <time>2023-07-23T07:12:32Z</time>
      </trkpt>
      <trkpt lat="44.04311" lon="1.93068">
        <ele>220</ele>
        <time>2023-07-23T07:12:33Z</time>
      </trkpt>
      <trkpt lat="44.0431" lon="1.93067">
        <ele>220.2</ele>
        <time>2023-07-23T07:12:34Z</time>
      </trkpt>
      <trkpt lat="44.04308" lon="1.93066">
        <ele>220.6</ele>
        <time>2023-07-23T07:12:35Z</time>
      </trkpt>
      <trkpt lat="44.04308" lon="1.93066">
        <ele>221</ele>
        <time>2023-07-23T07:12:36Z</time>
      </trkpt>
      <trkpt lat="44.04306" lon="1.93065">
        <ele>221</ele>
        <time>2023-07-23T07:12:37Z</time>
      </trkpt>
      <trkpt lat="44.04305" lon="1.93065">
        <ele>221.4</ele>
        <time>2023-07-23T07:12:38Z</time>
      </trkpt>
      <trkpt lat="44.04304" lon="1.93064">
        <ele>221.4</ele>
        <time>2023-07-23T07:12:39Z</time>
      </trkpt>
      <trkpt lat="44.04302" lon="1.93063">
        <ele>221.6</ele>
        <time>2023-07-23T07:12:40Z</time>
      </trkpt>
      <trkpt lat="44.04301" lon="1.93062">
        <ele>221.8</ele>
        <time>2023-07-23T07:12:41Z</time>
      </trkpt>
      <trkpt lat="44.04299" lon="1.93061">
        <ele>222</ele>
        <time>2023-07-23T07:12:42Z</time>
      </trkpt>
      <trkpt lat="44.04298" lon="1.9306">
        <ele>222.2</ele>
        <time>2023-07-23T07:12:43Z</time>
      </trkpt>
      <trkpt lat="44.04297" lon="1.93059">
        <ele>222.4</ele>
        <time>2023-07-23T07:12:44Z</time>
      </trkpt>
      <trkpt lat="44.04295" lon="1.93059">
        <ele>222.6</ele>
        <time>2023-07-23T07:12:45Z</time>
      </trkpt>
      <trkpt lat="44.04295" lon="1.93058">
        <ele>222.8</ele>
        <time>2023-07-23T07:12:46Z</time>
      </trkpt>
      <trkpt lat="44.04293" lon="1.93058">
        <ele>223</ele>
        <time>2023-07-23T07:12:47Z</time>
      </trkpt>
      <trkpt lat="44.04292" lon="1.93057">
        <ele>223.4</ele>
        <time>2023-07-23T07:12:48Z</time>
      </trkpt>
      <trkpt lat="44.04291" lon="1.93056">
        <ele>223.4</ele>
        <time>2023-07-23T07:12:49Z</time>
      </trkpt>
      <trkpt lat="44.04289" lon="1.93056">
        <ele>223.8</ele>
        <time>2023-07-23T07:12:50Z</time>
      </trkpt>
      <trkpt lat="44.04288" lon="1.93055">
        <ele>224</ele>
        <time>2023-07-23T07:12:51Z</time>
      </trkpt>
      <trkpt lat="44.04286" lon="1.93054">
        <ele>224.2</ele>
        <time>2023-07-23T07:12:52Z</time>
      </trkpt>
      <trkpt lat="44.04285" lon="1.93053">
        <ele>224.2</ele>
        <time>2023-07-23T07:12:53Z</time>
      </trkpt>
      <trkpt lat="44.04283" lon="1.93052">
        <ele>224.4</ele>
        <time>2023-07-23T07:12:54Z</time>
      </trkpt>
      <trkpt lat="44.04281" lon="1.93052">
        <ele>224.6</ele>
        <time>2023-07-23T07:12:55Z</time>
      </trkpt>
      <trkpt lat="44.0428" lon="1.93051">
        <ele>225</ele>
        <time>2023-07-23T07:12:56Z</time>
      </trkpt>
      <trkpt lat="44.04279" lon="1.9305">
        <ele>225.2</ele>
        <time>2023-07-23T07:12:57Z</time>
      </trkpt>
      <trkpt lat="44.04277" lon="1.93049">
        <ele>225.2</ele>
        <time>2023-07-23T07:12:58Z</time>
      </trkpt>
      <trkpt lat="44.04276" lon="1.93048">
        <ele>225.4</ele>
        <time>2023-07-23T07:12:59Z</time>
      </trkpt>
      <trkpt lat="44.04274" lon="1.93047">
        <ele>225.4</ele>
        <time>2023-07-23T07:13:00Z</time>
      </trkpt>
      <trkpt lat="44.04272" lon="1.93046">
        <ele>225.6</ele>
        <time>2023-07-23T07:13:01Z</time>
      </trkpt>
      <trkpt lat="44.04271" lon="1.93046">
        <ele>225.8</ele>
        <time>2023-07-23T07:13:02Z</time>
      </trkpt>
      <trkpt lat="44.04269" lon="1.93045">
        <ele>226</ele>
        <time>2023-07-23T07:13:03Z</time>
      </trkpt>
      <trkpt lat="44.04268" lon="1.93044">
        <ele>226.4</ele>
        <time>2023-07-23T07:13:04Z</time>
      </trkpt>
      <trkpt lat="44.04267" lon="1.93044">
        <ele>226.6</ele>
        <time>2023-07-23T07:13:05Z</time>
      </trkpt>
      <trkpt lat="44.04265" lon="1.93043">
        <ele>226.8</ele>
        <time>2023-07-23T07:13:06Z</time>
      </trkpt>
      <trkpt lat="44.04263" lon="1.93042">
        <ele>226.8</ele>
        <time>2023-07-23T07:13:07Z</time>
      </trkpt>
      <trkpt lat="44.04262" lon="1.93041">
        <ele>227.2</ele>
        <time>2023-07-23T07:13:08Z</time>
      </trkpt>
      <trkpt lat="44.04261" lon="1.9304">
        <ele>227.4</ele>
        <time>2023-07-23T07:13:09Z</time>
      </trkpt>
      <trkpt lat="44.0426" lon="1.9304">
        <ele>227.4</ele>
        <time>2023-07-23T07:13:10Z</time>
      </trkpt>
      <trkpt lat="44.04259" lon="1.9304">
        <ele>227.6</ele>
        <time>2023-07-23T07:13:11Z</time>
      </trkpt>
      <trkpt lat="44.04257" lon="1.9304">
        <ele>227.8</ele>
        <time>2023-07-23T07:13:12Z</time>
      </trkpt>
      <trkpt lat="44.04256" lon="1.93039">
        <ele>228.2</ele>
        <time>2023-07-23T07:13:13Z</time>
      </trkpt>
      <trkpt lat="44.04255" lon="1.93038">
        <ele>228.2</ele>
        <time>2023-07-23T07:13:14Z</time>
      </trkpt>
      <trkpt lat="44.04254" lon="1.93038">
        <ele>228.6</ele>
        <time>2023-07-23T07:13:15Z</time>
      </trkpt>
      <trkpt lat="44.04252" lon="1.93037">
        <ele>228.8</ele>
        <time>2023-07-23T07:13:16Z</time>
      </trkpt>
      <trkpt lat="44.04251" lon="1.93037">
        <ele>229</ele>
        <time>2023-07-23T07:13:17Z</time>
      </trkpt>
      <trkpt lat="44.04249" lon="1.93036">
        <ele>229</ele>
        <time>2023-07-23T07:13:18Z</time>
      </trkpt>
      <trkpt lat="44.04247" lon="1.93034">
        <ele>229.4</ele>
        <time>2023-07-23T07:13:19Z</time>
      </trkpt>
      <trkpt lat="44.04246" lon="1.93033">
        <ele>229.6</ele>
        <time>2023-07-23T07:13:20Z</time>
      </trkpt>
      <trkpt lat="44.04245" lon="1.93032">
        <ele>229.8</ele>
        <time>2023-07-23T07:13:21Z</time>
      </trkpt>
      <trkpt lat="44.04243" lon="1.93032">
        <ele>230</ele>
        <time>2023-07-23T07:13:22Z</time>
      </trkpt>
      <trkpt lat="44.04242" lon="1.93031">
        <ele>230.2</ele>
        <time>2023-07-23T07:13:23Z</time>
      </trkpt>
      <trkpt lat="44.0424" lon="1.9303">
        <ele>230.6</ele>
        <time>2023-07-23T07:13:24Z</time>
      </trkpt>
      <trkpt lat="44.04238" lon="1.9303">
        <ele>230.6</ele>
        <time>2023-07-23T07:13:25Z</time>
      </trkpt>
      <trkpt lat="44.04236" lon="1.93029">
        <ele>231</ele>
        <time>2023-07-23T07:13:26Z</time>
      </trkpt>
      <trkpt lat="44.04235" lon="1.93029">
        <ele>231.2</ele>
        <time>2023-07-23T07:13:27Z</time>
      </trkpt>
      <trkpt lat="44.04234" lon="1.93028">
        <ele>231.2</ele>
        <time>2023-07-23T07:13:28Z</time>
      </trkpt>
      <trkpt lat="44.04233" lon="1.93028">
        <ele>231.4</ele>
        <time>2023-07-23T07:13:29Z</time>
      </trkpt>
      <trkpt lat="44.04231" lon="1.93027">
        <ele>231.6</ele>
        <time>2023-07-23T07:13:30Z</time>
      </trkpt>
      <trkpt lat="44.04229" lon="1.93026">
        <ele>231.8</ele>
        <time>2023-07-23T07:13:31Z</time>
      </trkpt>
      <trkpt lat="44.04227" lon="1.93025">
        <ele>231.8</ele>
        <time>2023-07-23T07:13:32Z</time>
      </trkpt>
      <trkpt lat="44.04225" lon="1.93024">
        <ele>232.2</ele>
        <time>2023-07-23T07:13:33Z</time>
      </trkpt>
      <trkpt lat="44.04224" lon="1.93023">
        <ele>232.2</ele>
        <time>2023-07-23T07:13:34Z</time>
      </trkpt>
      <trkpt lat="44.04223" lon="1.93022">
        <ele>232.6</ele>
        <time>2023-07-23T07:13:35Z</time>
      </trkpt>
      <trkpt lat="44.04222" lon="1.93022">
        <ele>233</ele>
        <time>2023-07-23T07:13:36Z</time>
      </trkpt>
      <trkpt lat="44.0422" lon="1.93022">
        <ele>233.2</ele>
        <time>2023-07-23T07:13:37Z</time>
      </trkpt>
      <trkpt lat="44.04219" lon="1.93022">
        <ele>233.6</ele>
        <time>2023-07-23T07:13:38Z</time>
      </trkpt>
      <trkpt lat="44.04218" lon="1.93021">
        <ele>233.8</ele>
        <time>2023-07-23T07:13:39Z</time>
      </trkpt>
      <trkpt lat="44.04217" lon="1.9302">
        <ele>234</ele>
        <time>2023-07-23T07:13:40Z</time>
      </trkpt>
      <trkpt lat="44.04215" lon="1.9302">
        <ele>234.2</ele>
        <time>2023-07-23T07:13:41Z</time>
      </trkpt>
      <trkpt lat="44.04214" lon="1.93019">
        <ele>234.6</ele>
        <time>2023-07-23T07:13:42Z</time>
      </trkpt>
      <trkpt lat="44.04212" lon="1.93018">
        <ele>234.8</ele>
        <time>2023-07-23T07:13:43Z</time>
      </trkpt>
      <trkpt lat="44.04211" lon="1.93018">
        <ele>235.2</ele>
        <time>2023-07-23T07:13:44Z</time>
      </trkpt>
      <trkpt lat="44.04209" lon="1.93017">
        <ele>235.6</ele>
        <time>2023-07-23T07:13:45Z</time>
      </trkpt>
      <trkpt lat="44.04208" lon="1.93016">
        <ele>235.8</ele>
        <time>2023-07-23T07:13:46Z</time>
      </trkpt>
      <trkpt lat="44.04207" lon="1.93015">
        <ele>236.2</ele>
        <time>2023-07-23T07:13:47Z</time>
      </trkpt>
      <trkpt lat="44.04206" lon="1.93014">
        <ele>236.4</ele>
        <time>2023-07-23T07:13:48Z</time>
      </trkpt>
      <trkpt lat="44.04205" lon="1.93013">
        <ele>236.8</ele>
        <time>2023-07-23T07:13:49Z</time>
      </trkpt>
      <trkpt lat="44.04204" lon="1.93013">
        <ele>237</ele>
        <time>2023-07-23T07:13:50Z</time>
      </trkpt>
      <trkpt lat="44.04204" lon="1.93012">
        <ele>237.2</ele>
        <time>2023-07-23T07:13:51Z</time>
      </trkpt>
      <trkpt lat="44.04203" lon="1.93011">
        <ele>237.6</ele>
        <time>2023-07-23T07:13:52Z</time>
      </trkpt>
      <trkpt lat="44.04202" lon="1.9301">
        <ele>237.8</ele>
        <time>2023-07-23T07:13:53Z</time>
      </trkpt>
      <trkpt lat="44.04201" lon="1.9301">
        <ele>238.2</ele>
        <time>2023-07-23T07:13:54Z</time>
      </trkpt>
      <trkpt lat="44.042" lon="1.93009">
        <ele>238.4</ele>
        <time>2023-07-23T07:13:55Z</time>
      </trkpt>
      <trkpt lat="44.04199" lon="1.93008">
        <ele>238.8</ele>
        <time>2023-07-23T07:13:56Z</time>
      </trkpt>
      <trkpt lat="44.04198" lon="1.93006">
        <ele>239</ele>
        <time>2023-07-23T07:13:57Z</time>
      </trkpt>
      <trkpt lat="44.04198" lon="1.93006">
        <ele>239.4</ele>
        <time>2023-07-23T07:13:58Z</time>
      </trkpt>
      <trkpt lat="44.04197" lon="1.93005">
        <ele>239.6</ele>
        <time>2023-07-23T07:13:59Z</time>
      </trkpt>
      <trkpt lat="44.04196" lon="1.93004">
        <ele>239.8</ele>
        <time>2023-07-23T07:14:00Z</time>
      </trkpt>
      <trkpt lat="44.04195" lon="1.93002">
        <ele>240.2</ele>
        <time>2023-07-23T07:14:01Z</time>
      </trkpt>
      <trkpt lat="44.04194" lon="1.93001">
        <ele>240.2</ele>
        <time>2023-07-23T07:14:02Z</time>
      </trkpt>
      <trkpt lat="44.04193" lon="1.93">
        <ele>240.6</ele>
        <time>2023-07-23T07:14:03Z</time>
      </trkpt>
      <trkpt lat="44.04191" lon="1.92999">
        <ele>240.6</ele>
        <time>2023-07-23T07:14:04Z</time>
      </trkpt>
      <trkpt lat="44.0419" lon="1.92998">
        <ele>240.8</ele>
        <time>2023-07-23T07:14:05Z</time>
      </trkpt>
      <trkpt lat="44.04189" lon="1.92996">
        <ele>241</ele>
        <time>2023-07-23T07:14:06Z</time>
      </trkpt>
      <trkpt lat="44.04188" lon="1.92995">
        <ele>241.4</ele>
        <time>2023-07-23T07:14:07Z</time>
      </trkpt>
      <trkpt lat="44.04187" lon="1.92994">
        <ele>241.6</ele>
        <time>2023-07-23T07:14:08Z</time>
      </trkpt>
      <trkpt lat="44.04186" lon="1.92993">
        <ele>241.8</ele>
        <time>2023-07-23T07:14:09Z</time>
      </trkpt>
      <trkpt lat="44.04185" lon="1.92992">
        <ele>242</ele>
        <time>2023-07-23T07:14:10Z</time>
      </trkpt>
      <trkpt lat="44.04184" lon="1.92991">
        <ele>242</ele>
        <time>2023-07-23T07:14:11Z</time>
      </trkpt>
      <trkpt lat="44.04184" lon="1.9299">
        <ele>242.2</ele>
        <time>2023-07-23T07:14:12Z</time>
      </trkpt>
      <trkpt lat="44.04183" lon="1.92989">
        <ele>242.2</ele>
        <time>2023-07-23T07:14:13Z</time>
      </trkpt>
      <trkpt lat="44.04181" lon="1.92987">
        <ele>242.6</ele>
        <time>2023-07-23T07:14:14Z</time>
      </trkpt>
      <trkpt lat="44.0418" lon="1.92986">
        <ele>242.8</ele>
        <time>2023-07-23T07:14:15Z</time>
      </trkpt>
      <trkpt lat="44.04179" lon="1.92984">
        <ele>243</ele>
        <time>2023-07-23T07:14:16Z</time>
      </trkpt>
      <trkpt lat="44.04177" lon="1.92983">
        <ele>243.2</ele>
        <time>2023-07-23T07:14:17Z</time>
      </trkpt>
      <trkpt lat="44.04176" lon="1.92982">
        <ele>243.4</ele>
        <time>2023-07-23T07:14:18Z</time>
      </trkpt>
      <trkpt lat="44.04176" lon="1.92981">
        <ele>243.6</ele>
        <time>2023-07-23T07:14:19Z</time>
      </trkpt>
      <trkpt lat="44.04175" lon="1.92981">
        <ele>244</ele>
        <time>2023-07-23T07:14:20Z</time>
      </trkpt>
      <trkpt lat="44.04175" lon="1.92979">
        <ele>244.2</ele>
        <time>2023-07-23T07:14:21Z</time>
      </trkpt>
      <trkpt lat="44.04174" lon="1.92979">
        <ele>244.4</ele>
        <time>2023-07-23T07:14:22Z</time>
      </trkpt>
      <trkpt lat="44.04173" lon="1.92977">
        <ele>244.6</ele>
        <time>2023-07-23T07:14:23Z</time>
      </trkpt>
      <trkpt lat="44.04172" lon="1.92976">
        <ele>244.8</ele>
        <time>2023-07-23T07:14:24Z</time>
      </trkpt>
      <trkpt lat="44.04172" lon="1.92975">
        <ele>245</ele>
        <time>2023-07-23T07:14:25Z</time>
      </trkpt>
      <trkpt lat="44.04171" lon="1.92975">
        <ele>245.2</ele>
        <time>2023-07-23T07:14:26Z</time>
      </trkpt>
      <trkpt lat="44.04169" lon="1.92973">
        <ele>245.4</ele>
        <time>2023-07-23T07:14:27Z</time>
      </trkpt>
      <trkpt lat="44.04168" lon="1.9297">
        <ele>245.6</ele>
        <time>2023-07-23T07:14:28Z</time>
      </trkpt>
      <trkpt lat="44.04165" lon="1.92966">
        <ele>245.8</ele>
        <time>2023-07-23T07:14:29Z</time>
      </trkpt>
      <trkpt lat="44.04164" lon="1.92965">
        <ele>246</ele>
        <time>2023-07-23T07:14:30Z</time>
      </trkpt>
      <trkpt lat="44.04163" lon="1.92963">
        <ele>246.4</ele>
        <time>2023-07-23T07:14:31Z</time>
      </trkpt>
      <trkpt lat="44.0416" lon="1.9296">
        <ele>246.4</ele>
        <time>2023-07-23T07:14:32Z</time>
      </trkpt>
      <trkpt lat="44.04157" lon="1.92958">
        <ele>246.8</ele>
        <time>2023-07-23T07:14:33Z</time>
      </trkpt>
      <trkpt lat="44.04156" lon="1.92956">
        <ele>247</ele>
        <time>2023-07-23T07:14:34Z</time>
      </trkpt>
      <trkpt lat="44.04155" lon="1.92954">
        <ele>247.2</ele>
        <time>2023-07-23T07:14:35Z</time>
      </trkpt>
      <trkpt lat="44.04153" lon="1.92953">
        <ele>247.2</ele>
        <time>2023-07-23T07:14:36Z</time>
      </trkpt>
      <trkpt lat="44.04151" lon="1.92951">
        <ele>247.4</ele>
        <time>2023-07-23T07:14:37Z</time>
      </trkpt>
      <trkpt lat="44.04148" lon="1.92948">
        <ele>247.6</ele>
        <time>2023-07-23T07:14:38Z</time>
      </trkpt>
      <trkpt lat="44.04146" lon="1.92946">
        <ele>247.8</ele>
        <time>2023-07-23T07:14:39Z</time>
      </trkpt>
      <trkpt lat="44.04144" lon="1.92944">
        <ele>248</ele>
        <time>2023-07-23T07:14:40Z</time>
      </trkpt>
      <trkpt lat="44.04143" lon="1.92942">
        <ele>248.2</ele>
        <time>2023-07-23T07:14:41Z</time>
      </trkpt>
      <trkpt lat="44.04142" lon="1.92941">
        <ele>248.4</ele>
        <time>2023-07-23T07:14:42Z</time>
      </trkpt>
      <trkpt lat="44.04141" lon="1.9294">
        <ele>248.4</ele>
        <time>2023-07-23T07:14:43Z</time>
      </trkpt>
      <trkpt lat="44.0414" lon="1.92939">
        <ele>248.6</ele>
        <time>2023-07-23T07:14:44Z</time>
      </trkpt>
      <trkpt lat="44.04139" lon="1.92938">
        <ele>248.8</ele>
        <time>2023-07-23T07:14:45Z</time>
      </trkpt>
      <trkpt lat="44.04138" lon="1.92936">
        <ele>249</ele>
        <time>2023-07-23T07:14:46Z</time>
      </trkpt>
      <trkpt lat="44.04137" lon="1.92935">
        <ele>249.2</ele>
        <time>2023-07-23T07:14:47Z</time>
      </trkpt>
      <trkpt lat="44.04136" lon="1.92933">
        <ele>249.4</ele>
        <time>2023-07-23T07:14:48Z</time>
      </trkpt>
      <trkpt lat="44.04136" lon="1.92932">
        <ele>249.6</ele>
        <time>2023-07-23T07:14:49Z</time>
      </trkpt>
      <trkpt lat="44.04135" lon="1.9293">
        <ele>249.6</ele>
        <time>2023-07-23T07:14:50Z</time>
      </trkpt>
      <trkpt lat="44.04134" lon="1.92928">
        <ele>249.8</ele>
        <time>2023-07-23T07:14:51Z</time>
      </trkpt>
      <trkpt lat="44.04134" lon="1.92926">
        <ele>249.8</ele>
        <time>2023-07-23T07:14:52Z</time>
      </trkpt>
      <trkpt lat="44.04133" lon="1.92925">
        <ele>250.2</ele>
        <time>2023-07-23T07:14:53Z</time>
      </trkpt>
      <trkpt lat="44.04133" lon="1.92923">
        <ele>250.4</ele>
        <time>2023-07-23T07:14:54Z</time>
      </trkpt>
      <trkpt lat="44.04132" lon="1.92922">
        <ele>250.6</ele>
        <time>2023-07-23T07:14:55Z</time>
      </trkpt>
      <trkpt lat="44.04132" lon="1.92921">
        <ele>250.8</ele>
        <time>2023-07-23T07:14:56Z</time>
      </trkpt>
      <trkpt lat="44.04131" lon="1.9292">
        <ele>250.8</ele>
        <time>2023-07-23T07:14:57Z</time>
      </trkpt>
      <trkpt lat="44.0413" lon="1.92919">
        <ele>251</ele>
        <time>2023-07-23T07:14:58Z</time>
      </trkpt>
      <trkpt lat="44.04129" lon="1.92919">
        <ele>251.2</ele>
        <time>2023-07-23T07:14:59Z</time>
      </trkpt>
      <trkpt lat="44.04128" lon="1.92918">
        <ele>251.6</ele>
        <time>2023-07-23T07:15:00Z</time>
      </trkpt>
      <trkpt lat="44.04127" lon="1.92918">
        <ele>251.6</ele>
        <time>2023-07-23T07:15:01Z</time>
      </trkpt>
      <trkpt lat="44.04126" lon="1.92918">
        <ele>252</ele>
        <time>2023-07-23T07:15:02Z</time>
      </trkpt>
      <trkpt lat="44.04125" lon="1.92918">
        <ele>252.2</ele>
        <time>2023-07-23T07:15:03Z</time>
      </trkpt>
      <trkpt lat="44.04123" lon="1.92917">
        <ele>252.2</ele>
        <time>2023-07-23T07:15:04Z</time>
      </trkpt>
      <trkpt lat="44.04122" lon="1.92917">
        <ele>252.4</ele>
        <time>2023-07-23T07:15:05Z</time>
      </trkpt>
      <trkpt lat="44.0412" lon="1.92917">
        <ele>252.4</ele>
        <time>2023-07-23T07:15:06Z</time>
      </trkpt>
      <trkpt lat="44.04119" lon="1.92917">
        <ele>252.6</ele>
        <time>2023-07-23T07:15:07Z</time>
      </trkpt>
      <trkpt lat="44.04118" lon="1.92917">
        <ele>252.8</ele>
        <time>2023-07-23T07:15:08Z</time>
      </trkpt>
      <trkpt lat="44.04116" lon="1.92917">
        <ele>253</ele>
        <time>2023-07-23T07:15:09Z</time>
      </trkpt>
      <trkpt lat="44.04115" lon="1.92917">
        <ele>253.2</ele>
        <time>2023-07-23T07:15:10Z</time>
      </trkpt>
      <trkpt lat="44.04113" lon="1.92917">
        <ele>253.4</ele>
        <time>2023-07-23T07:15:11Z</time>
      </trkpt>
      <trkpt lat="44.04112" lon="1.92917">
        <ele>253.6</ele>
        <time>2023-07-23T07:15:12Z</time>
      </trkpt>
      <trkpt lat="44.0411" lon="1.92918">
        <ele>253.8</ele>
        <time>2023-07-23T07:15:13Z</time>
      </trkpt>
      <trkpt lat="44.04109" lon="1.92918">
        <ele>254.2</ele>
        <time>2023-07-23T07:15:14Z</time>
      </trkpt>
      <trkpt lat="44.04107" lon="1.92917">
        <ele>254.2</ele>
        <time>2023-07-23T07:15:15Z</time>
      </trkpt>
      <trkpt lat="44.04106" lon="1.92917">
        <ele>254.4</ele>
        <time>2023-07-23T07:15:16Z</time>
      </trkpt>
      <trkpt lat="44.04104" lon="1.92918">
        <ele>254.4</ele>
        <time>2023-07-23T07:15:17Z</time>
      </trkpt>
      <trkpt lat="44.04103" lon="1.92918">
        <ele>254.4</ele>
        <time>2023-07-23T07:15:18Z</time>
      </trkpt>
      <trkpt lat="44.04101" lon="1.92918">
        <ele>254.6</ele>
        <time>2023-07-23T07:15:19Z</time>
      </trkpt>
      <trkpt lat="44.041" lon="1.92918">
        <ele>254.6</ele>
        <time>2023-07-23T07:15:20Z</time>
      </trkpt>
      <trkpt lat="44.04099" lon="1.92918">
        <ele>255</ele>
        <time>2023-07-23T07:15:21Z</time>
      </trkpt>
      <trkpt lat="44.04097" lon="1.92917">
        <ele>255.2</ele>
        <time>2023-07-23T07:15:22Z</time>
      </trkpt>
      <trkpt lat="44.04096" lon="1.92917">
        <ele>255.4</ele>
        <time>2023-07-23T07:15:23Z</time>
      </trkpt>
      <trkpt lat="44.04094" lon="1.92917">
        <ele>255.4</ele>
        <time>2023-07-23T07:15:24Z</time>
      </trkpt>
      <trkpt lat="44.04092" lon="1.92918">
        <ele>255.6</ele>
        <time>2023-07-23T07:15:25Z</time>
      </trkpt>
      <trkpt lat="44.04091" lon="1.92918">
        <ele>255.8</ele>
        <time>2023-07-23T07:15:26Z</time>
      </trkpt>
      <trkpt lat="44.04089" lon="1.92918">
        <ele>255.8</ele>
        <time>2023-07-23T07:15:27Z</time>
      </trkpt>
      <trkpt lat="44.04087" lon="1.92918">
        <ele>256</ele>
        <time>2023-07-23T07:15:28Z</time>
      </trkpt>
      <trkpt lat="44.04085" lon="1.92919">
        <ele>256.2</ele>
        <time>2023-07-23T07:15:29Z</time>
      </trkpt>
      <trkpt lat="44.04084" lon="1.92919">
        <ele>256.2</ele>
        <time>2023-07-23T07:15:30Z</time>
      </trkpt>
      <trkpt lat="44.04082" lon="1.92919">
        <ele>256.2</ele>
        <time>2023-07-23T07:15:31Z</time>
      </trkpt>
      <trkpt lat="44.04081" lon="1.92919">
        <ele>256.6</ele>
        <time>2023-07-23T07:15:32Z</time>
      </trkpt>
      <trkpt lat="44.04079" lon="1.92919">
        <ele>256.8</ele>
        <time>2023-07-23T07:15:33Z</time>
      </trkpt>
      <trkpt lat="44.04078" lon="1.9292">
        <ele>256.8</ele>
        <time>2023-07-23T07:15:34Z</time>
      </trkpt>
      <trkpt lat="44.04076" lon="1.9292">
        <ele>257</ele>
        <time>2023-07-23T07:15:35Z</time>
      </trkpt>
      <trkpt lat="44.04074" lon="1.9292">
        <ele>257</ele>
        <time>2023-07-23T07:15:36Z</time>
      </trkpt>
      <trkpt lat="44.04073" lon="1.9292">
        <ele>257.4</ele>
        <time>2023-07-23T07:15:37Z</time>
      </trkpt>
      <trkpt lat="44.04071" lon="1.9292">
        <ele>257.4</ele>
        <time>2023-07-23T07:15:38Z</time>
      </trkpt>
      <trkpt lat="44.04069" lon="1.9292">
        <ele>257.4</ele>
        <time>2023-07-23T07:15:39Z</time>
      </trkpt>
      <trkpt lat="44.04068" lon="1.9292">
        <ele>257.6</ele>
        <time>2023-07-23T07:15:40Z</time>
      </trkpt>
      <trkpt lat="44.04066" lon="1.9292">
        <ele>257.8</ele>
        <time>2023-07-23T07:15:41Z</time>
      </trkpt>
      <trkpt lat="44.04065" lon="1.9292">
        <ele>257.8</ele>
        <time>2023-07-23T07:15:42Z</time>
      </trkpt>
      <trkpt lat="44.04063" lon="1.9292">
        <ele>257.8</ele>
        <time>2023-07-23T07:15:43Z</time>
      </trkpt>
      <trkpt lat="44.04062" lon="1.9292">
        <ele>258</ele>
        <time>2023-07-23T07:15:44Z</time>
      </trkpt>
      <trkpt lat="44.0406" lon="1.92921">
        <ele>258.2</ele>
        <time>2023-07-23T07:15:45Z</time>
      </trkpt>
      <trkpt lat="44.04059" lon="1.92921">
        <ele>258.4</ele>
        <time>2023-07-23T07:15:46Z</time>
      </trkpt>
      <trkpt lat="44.04057" lon="1.92921">
        <ele>258.4</ele>
        <time>2023-07-23T07:15:47Z</time>
      </trkpt>
      <trkpt lat="44.04055" lon="1.92922">
        <ele>258.6</ele>
        <time>2023-07-23T07:15:48Z</time>
      </trkpt>
      <trkpt lat="44.04053" lon="1.92922">
        <ele>258.8</ele>
        <time>2023-07-23T07:15:49Z</time>
      </trkpt>
      <trkpt lat="44.04052" lon="1.92922">
        <ele>258.8</ele>
        <time>2023-07-23T07:15:50Z</time>
      </trkpt>
      <trkpt lat="44.0405" lon="1.92922">
        <ele>259</ele>
        <time>2023-07-23T07:15:51Z</time>
      </trkpt>
      <trkpt lat="44.04049" lon="1.92922">
        <ele>259</ele>
        <time>2023-07-23T07:15:52Z</time>
      </trkpt>
      <trkpt lat="44.04047" lon="1.92922">
        <ele>259.2</ele>
        <time>2023-07-23T07:15:53Z</time>
      </trkpt>
      <trkpt lat="44.04045" lon="1.92922">
        <ele>259.2</ele>
        <time>2023-07-23T07:15:54Z</time>
      </trkpt>
      <trkpt lat="44.04044" lon="1.92923">
        <ele>259.2</ele>
        <time>2023-07-23T07:15:55Z</time>
      </trkpt>
      <trkpt lat="44.04042" lon="1.92923">
        <ele>259.2</ele>
        <time>2023-07-23T07:15:56Z</time>
      </trkpt>
      <trkpt lat="44.0404" lon="1.92923">
        <ele>259.4</ele>
        <time>2023-07-23T07:15:57Z</time>
      </trkpt>
      <trkpt lat="44.04038" lon="1.92923">
        <ele>259.4</ele>
        <time>2023-07-23T07:15:58Z</time>
      </trkpt>
      <trkpt lat="44.04036" lon="1.92923">
        <ele>259.4</ele>
        <time>2023-07-23T07:15:59Z</time>
      </trkpt>
      <trkpt lat="44.04034" lon="1.92923">
        <ele>259.4</ele>
        <time>2023-07-23T07:16:00Z</time>
      </trkpt>
      <trkpt lat="44.04032" lon="1.92924">
        <ele>259.4</ele>
        <time>2023-07-23T07:16:01Z</time>
      </trkpt>
      <trkpt lat="44.0403" lon="1.92924">
        <ele>259.6</ele>
        <time>2023-07-23T07:16:02Z</time>
      </trkpt>
      <trkpt lat="44.04028" lon="1.92925">
        <ele>259.6</ele>
        <time>2023-07-23T07:16:03Z</time>
      </trkpt>
      <trkpt lat="44.04026" lon="1.92925">
        <ele>259.8</ele>
        <time>2023-07-23T07:16:04Z</time>
      </trkpt>
      <trkpt lat="44.04024" lon="1.92925">
        <ele>259.8</ele>
        <time>2023-07-23T07:16:05Z</time>
      </trkpt>
      <trkpt lat="44.04022" lon="1.92925">
        <ele>259.8</ele>
        <time>2023-07-23T07:16:06Z</time>
      </trkpt>
      <trkpt lat="44.04016" lon="1.92926">
        <ele>260</ele>
        <time>2023-07-23T07:16:09Z</time>
      </trkpt>
      <trkpt lat="44.04012" lon="1.92926">
        <ele>260.2</ele>
        <time>2023-07-23T07:16:11Z</time>
      </trkpt>
      <trkpt lat="44.04006" lon="1.92927">
        <ele>260.6</ele>
        <time>2023-07-23T07:16:14Z</time>
      </trkpt>
      <trkpt lat="44.04004" lon="1.92927">
        <ele>260.6</ele>
        <time>2023-07-23T07:16:15Z</time>
      </trkpt>
      <trkpt lat="44.04003" lon="1.92927">
        <ele>260.8</ele>
        <time>2023-07-23T07:16:16Z</time>
      </trkpt>
      <trkpt lat="44.04" lon="1.92927">
        <ele>260.8</ele>
        <time>2023-07-23T07:16:17Z</time>
      </trkpt>
      <trkpt lat="44.03986" lon="1.92929">
        <ele>261.2</ele>
        <time>2023-07-23T07:16:24Z</time>
      </trkpt>
      <trkpt lat="44.03979" lon="1.92929">
        <ele>261.6</ele>
        <time>2023-07-23T07:16:27Z</time>
      </trkpt>
      <trkpt lat="44.03961" lon="1.92931">
        <ele>262.2</ele>
        <time>2023-07-23T07:16:36Z</time>
      </trkpt>
      <trkpt lat="44.03957" lon="1.92932">
        <ele>262.4</ele>
        <time>2023-07-23T07:16:38Z</time>
      </trkpt>
      <trkpt lat="44.03948" lon="1.92932">
        <ele>262.6</ele>
        <time>2023-07-23T07:16:42Z</time>
      </trkpt>
      <trkpt lat="44.03942" lon="1.92933">
        <ele>263</ele>
        <time>2023-07-23T07:16:45Z</time>
      </trkpt>
      <trkpt lat="44.03936" lon="1.92934">
        <ele>263.2</ele>
        <time>2023-07-23T07:16:48Z</time>
      </trkpt>
      <trkpt lat="44.03931" lon="1.92934">
        <ele>263.4</ele>
        <time>2023-07-23T07:16:50Z</time>
      </trkpt>
      <trkpt lat="44.03927" lon="1.92934">
        <ele>263.6</ele>
        <time>2023-07-23T07:16:52Z</time>
      </trkpt>
      <trkpt lat="44.03917" lon="1.92935">
        <ele>264.6</ele>
        <time>2023-07-23T07:16:57Z</time>
      </trkpt>
      <trkpt lat="44.03908" lon="1.92936">
        <ele>264.8</ele>
        <time>2023-07-23T07:17:01Z</time>
      </trkpt>
      <trkpt lat="44.03906" lon="1.92936">
        <ele>265</ele>
        <time>2023-07-23T07:17:02Z</time>
      </trkpt>
      <trkpt lat="44.03904" lon="1.92937">
        <ele>265</ele>
        <time>2023-07-23T07:17:03Z</time>
      </trkpt>
      <trkpt lat="44.03901" lon="1.92937">
        <ele>265.2</ele>
        <time>2023-07-23T07:17:04Z</time>
      </trkpt>
      <trkpt lat="44.03899" lon="1.92937">
        <ele>265.4</ele>
        <time>2023-07-23T07:17:05Z</time>
      </trkpt>
      <trkpt lat="44.03897" lon="1.92937">
        <ele>265.8</ele>
        <time>2023-07-23T07:17:06Z</time>
      </trkpt>
      <trkpt lat="44.03895" lon="1.92938">
        <ele>265.8</ele>
        <time>2023-07-23T07:17:07Z</time>
      </trkpt>
      <trkpt lat="44.03893" lon="1.92938">
        <ele>266</ele>
        <time>2023-07-23T07:17:08Z</time>
      </trkpt>
      <trkpt lat="44.03891" lon="1.92938">
        <ele>266</ele>
        <time>2023-07-23T07:17:09Z</time>
      </trkpt>
      <trkpt lat="44.03889" lon="1.92938">
        <ele>266.2</ele>
        <time>2023-07-23T07:17:10Z</time>
      </trkpt>
      <trkpt lat="44.03887" lon="1.92938">
        <ele>266.6</ele>
        <time>2023-07-23T07:17:11Z</time>
      </trkpt>
      <trkpt lat="44.03885" lon="1.92938">
        <ele>266.8</ele>
        <time>2023-07-23T07:17:12Z</time>
      </trkpt>
      <trkpt lat="44.03883" lon="1.92939">
        <ele>267</ele>
        <time>2023-07-23T07:17:13Z</time>
      </trkpt>
      <trkpt lat="44.03881" lon="1.92939">
        <ele>267</ele>
        <time>2023-07-23T07:17:14Z</time>
      </trkpt>
      <trkpt lat="44.03879" lon="1.92939">
        <ele>267</ele>
        <time>2023-07-23T07:17:15Z</time>
      </trkpt>
      <trkpt lat="44.03877" lon="1.92939">
        <ele>267</ele>
        <time>2023-07-23T07:17:16Z</time>
      </trkpt>
      <trkpt lat="44.03874" lon="1.9294">
        <ele>267.2</ele>
        <time>2023-07-23T07:17:17Z</time>
      </trkpt>
      <trkpt lat="44.03872" lon="1.9294">
        <ele>267.4</ele>
        <time>2023-07-23T07:17:18Z</time>
      </trkpt>
      <trkpt lat="44.0387" lon="1.9294">
        <ele>267.4</ele>
        <time>2023-07-23T07:17:19Z</time>
      </trkpt>
      <trkpt lat="44.03868" lon="1.9294">
        <ele>267.4</ele>
        <time>2023-07-23T07:17:20Z</time>
      </trkpt>
      <trkpt lat="44.03866" lon="1.9294">
        <ele>267.6</ele>
        <time>2023-07-23T07:17:21Z</time>
      </trkpt>
      <trkpt lat="44.03864" lon="1.9294">
        <ele>267.6</ele>
        <time>2023-07-23T07:17:22Z</time>
      </trkpt>
      <trkpt lat="44.03862" lon="1.92941">
        <ele>267.6</ele>
        <time>2023-07-23T07:17:23Z</time>
      </trkpt>
      <trkpt lat="44.0386" lon="1.92941">
        <ele>267.8</ele>
        <time>2023-07-23T07:17:24Z</time>
      </trkpt>
      <trkpt lat="44.03858" lon="1.92941">
        <ele>268</ele>
        <time>2023-07-23T07:17:25Z</time>
      </trkpt>
      <trkpt lat="44.03856" lon="1.92941">
        <ele>268.2</ele>
        <time>2023-07-23T07:17:26Z</time>
      </trkpt>
      <trkpt lat="44.03854" lon="1.92941">
        <ele>268.4</ele>
        <time>2023-07-23T07:17:27Z</time>
      </trkpt>
      <trkpt lat="44.03852" lon="1.92941">
        <ele>268.4</ele>
        <time>2023-07-23T07:17:28Z</time>
      </trkpt>
      <trkpt lat="44.0385" lon="1.92942">
        <ele>268.6</ele>
        <time>2023-07-23T07:17:29Z</time>
      </trkpt>
      <trkpt lat="44.03848" lon="1.92942">
        <ele>268.8</ele>
        <time>2023-07-23T07:17:30Z</time>
      </trkpt>
      <trkpt lat="44.03846" lon="1.92942">
        <ele>269</ele>
        <time>2023-07-23T07:17:31Z</time>
      </trkpt>
      <trkpt lat="44.03844" lon="1.92942">
        <ele>269</ele>
        <time>2023-07-23T07:17:32Z</time>
      </trkpt>
      <trkpt lat="44.03841" lon="1.92942">
        <ele>269</ele>
        <time>2023-07-23T07:17:33Z</time>
      </trkpt>
      <trkpt lat="44.03839" lon="1.92942">
        <ele>269.2</ele>
        <time>2023-07-23T07:17:34Z</time>
      </trkpt>
      <trkpt lat="44.03837" lon="1.92942">
        <ele>269.2</ele>
        <time>2023-07-23T07:17:35Z</time>
      </trkpt>
      <trkpt lat="44.03835" lon="1.92943">
        <ele>269.4</ele>
        <time>2023-07-23T07:17:36Z</time>
      </trkpt>
      <trkpt lat="44.03833" lon="1.92943">
        <ele>269.4</ele>
        <time>2023-07-23T07:17:37Z</time>
      </trkpt>
      <trkpt lat="44.03831" lon="1.92943">
        <ele>269.6</ele>
        <time>2023-07-23T07:17:38Z</time>
      </trkpt>
      <trkpt lat="44.03829" lon="1.92943">
        <ele>269.6</ele>
        <time>2023-07-23T07:17:39Z</time>
      </trkpt>
      <trkpt lat="44.03826" lon="1.92944">
        <ele>269.8</ele>
        <time>2023-07-23T07:17:40Z</time>
      </trkpt>
      <trkpt lat="44.03824" lon="1.92944">
        <ele>269.6</ele>
        <time>2023-07-23T07:17:41Z</time>
      </trkpt>
      <trkpt lat="44.03822" lon="1.92944">
        <ele>270</ele>
        <time>2023-07-23T07:17:42Z</time>
      </trkpt>
      <trkpt lat="44.03819" lon="1.92944">
        <ele>270</ele>
        <time>2023-07-23T07:17:43Z</time>
      </trkpt>
      <trkpt lat="44.03817" lon="1.92944">
        <ele>270</ele>
        <time>2023-07-23T07:17:44Z</time>
      </trkpt>
      <trkpt lat="44.03815" lon="1.92944">
        <ele>270</ele>
        <time>2023-07-23T07:17:45Z</time>
      </trkpt>
      <trkpt lat="44.03813" lon="1.92944">
        <ele>270</ele>
        <time>2023-07-23T07:17:46Z</time>
      </trkpt>
      <trkpt lat="44.03811" lon="1.92945">
        <ele>270.2</ele>
        <time>2023-07-23T07:17:47Z</time>
      </trkpt>
      <trkpt lat="44.03809" lon="1.92945">
        <ele>270.2</ele>
        <time>2023-07-23T07:17:48Z</time>
      </trkpt>
      <trkpt lat="44.03807" lon="1.92945">
        <ele>270.2</ele>
        <time>2023-07-23T07:17:49Z</time>
      </trkpt>
      <trkpt lat="44.03804" lon="1.92946">
        <ele>270.4</ele>
        <time>2023-07-23T07:17:50Z</time>
      </trkpt>
      <trkpt lat="44.03802" lon="1.92946">
        <ele>270.4</ele>
        <time>2023-07-23T07:17:51Z</time>
      </trkpt>
      <trkpt lat="44.038" lon="1.92946">
        <ele>270.8</ele>
        <time>2023-07-23T07:17:52Z</time>
      </trkpt>
      <trkpt lat="44.03797" lon="1.92946">
        <ele>270.8</ele>
        <time>2023-07-23T07:17:53Z</time>
      </trkpt>
      <trkpt lat="44.03795" lon="1.92946">
        <ele>271</ele>
        <time>2023-07-23T07:17:54Z</time>
      </trkpt>
      <trkpt lat="44.03773" lon="1.92949">
        <ele>271.4</ele>
        <time>2023-07-23T07:18:03Z</time>
      </trkpt>
      <trkpt lat="44.03765" lon="1.92949">
        <ele>271.6</ele>
        <time>2023-07-23T07:18:06Z</time>
      </trkpt>
      <trkpt lat="44.03762" lon="1.9295">
        <ele>271.6</ele>
        <time>2023-07-23T07:18:07Z</time>
      </trkpt>
      <trkpt lat="44.03746" lon="1.9295">
        <ele>272.4</ele>
        <time>2023-07-23T07:18:13Z</time>
      </trkpt>
      <trkpt lat="44.03737" lon="1.92951">
        <ele>272.4</ele>
        <time>2023-07-23T07:18:17Z</time>
      </trkpt>
      <trkpt lat="44.03735" lon="1.92954">
        <ele>272.4</ele>
        <time>2023-07-23T07:18:18Z</time>
      </trkpt>
      <trkpt lat="44.03733" lon="1.92956">
        <ele>272.4</ele>
        <time>2023-07-23T07:18:19Z</time>
      </trkpt>
      <trkpt lat="44.03731" lon="1.92958">
        <ele>272.4</ele>
        <time>2023-07-23T07:18:20Z</time>
      </trkpt>
      <trkpt lat="44.03729" lon="1.9296">
        <ele>272.6</ele>
        <time>2023-07-23T07:18:21Z</time>
      </trkpt>
      <trkpt lat="44.0372" lon="1.92972">
        <ele>272.8</ele>
        <time>2023-07-23T07:18:25Z</time>
      </trkpt>
      <trkpt lat="44.03709" lon="1.92986">
        <ele>272.8</ele>
        <time>2023-07-23T07:18:29Z</time>
      </trkpt>
      <trkpt lat="44.03685" lon="1.93007">
        <ele>272.8</ele>
        <time>2023-07-23T07:18:36Z</time>
      </trkpt>
      <trkpt lat="44.03656" lon="1.93026">
        <ele>272.4</ele>
        <time>2023-07-23T07:18:42Z</time>
      </trkpt>
      <trkpt lat="44.03627" lon="1.93041">
        <ele>271.6</ele>
        <time>2023-07-23T07:18:47Z</time>
      </trkpt>
      <trkpt lat="44.03612" lon="1.93049">
        <ele>271</ele>
        <time>2023-07-23T07:18:50Z</time>
      </trkpt>
      <trkpt lat="44.0359" lon="1.93062">
        <ele>270.6</ele>
        <time>2023-07-23T07:18:54Z</time>
      </trkpt>
      <trkpt lat="44.03586" lon="1.93065">
        <ele>270.4</ele>
        <time>2023-07-23T07:18:55Z</time>
      </trkpt>
      <trkpt lat="44.03581" lon="1.93068">
        <ele>270.4</ele>
        <time>2023-07-23T07:18:56Z</time>
      </trkpt>
      <trkpt lat="44.03577" lon="1.9307">
        <ele>270.4</ele>
        <time>2023-07-23T07:18:57Z</time>
      </trkpt>
      <trkpt lat="44.03571" lon="1.93073">
        <ele>270.4</ele>
        <time>2023-07-23T07:18:58Z</time>
      </trkpt>
      <trkpt lat="44.03566" lon="1.93076">
        <ele>270.4</ele>
        <time>2023-07-23T07:18:59Z</time>
      </trkpt>
      <trkpt lat="44.03563" lon="1.93078">
        <ele>270.4</ele>
        <time>2023-07-23T07:19:00Z</time>
      </trkpt>
      <trkpt lat="44.03558" lon="1.93081">
        <ele>270.4</ele>
        <time>2023-07-23T07:19:01Z</time>
      </trkpt>
      <trkpt lat="44.03554" lon="1.93084">
        <ele>270.4</ele>
        <time>2023-07-23T07:19:02Z</time>
      </trkpt>
      <trkpt lat="44.03515" lon="1.93109">
        <ele>271</ele>
        <time>2023-07-23T07:19:10Z</time>
      </trkpt>
      <trkpt lat="44.03483" lon="1.93128">
        <ele>271.6</ele>
        <time>2023-07-23T07:19:17Z</time>
      </trkpt>
      <trkpt lat="44.03478" lon="1.9313">
        <ele>271.6</ele>
        <time>2023-07-23T07:19:18Z</time>
      </trkpt>
      <trkpt lat="44.0346" lon="1.9314">
        <ele>272</ele>
        <time>2023-07-23T07:19:22Z</time>
      </trkpt>
      <trkpt lat="44.03449" lon="1.93138">
        <ele>272</ele>
        <time>2023-07-23T07:19:24Z</time>
      </trkpt>
      <trkpt lat="44.03445" lon="1.93135">
        <ele>272</ele>
        <time>2023-07-23T07:19:25Z</time>
      </trkpt>
      <trkpt lat="44.03442" lon="1.93131">
        <ele>272.4</ele>
        <time>2023-07-23T07:19:26Z</time>
      </trkpt>
      <trkpt lat="44.03439" lon="1.93127">
        <ele>272.4</ele>
        <time>2023-07-23T07:19:27Z</time>
      </trkpt>
      <trkpt lat="44.03435" lon="1.93123">
        <ele>272.4</ele>
        <time>2023-07-23T07:19:28Z</time>
      </trkpt>
      <trkpt lat="44.03431" lon="1.93118">
        <ele>272.4</ele>
        <time>2023-07-23T07:19:29Z</time>
      </trkpt>
      <trkpt lat="44.03391" lon="1.93084">
        <ele>272</ele>
        <time>2023-07-23T07:19:38Z</time>
      </trkpt>
      <trkpt lat="44.0336" lon="1.93063">
        <ele>271.2</ele>
        <time>2023-07-23T07:19:43Z</time>
      </trkpt>
      <trkpt lat="44.03344" lon="1.93053">
        <ele>270.8</ele>
        <time>2023-07-23T07:19:45Z</time>
      </trkpt>
      <trkpt lat="44.03321" lon="1.93039">
        <ele>269.2</ele>
        <time>2023-07-23T07:19:48Z</time>
      </trkpt>
      <trkpt lat="44.03292" lon="1.93026">
        <ele>267.6</ele>
        <time>2023-07-23T07:19:51Z</time>
      </trkpt>
      <trkpt lat="44.03277" lon="1.93021">
        <ele>266.4</ele>
        <time>2023-07-23T07:19:53Z</time>
      </trkpt>
      <trkpt lat="44.03269" lon="1.93019">
        <ele>265.8</ele>
        <time>2023-07-23T07:19:54Z</time>
      </trkpt>
      <trkpt lat="44.03261" lon="1.93017">
        <ele>265.2</ele>
        <time>2023-07-23T07:19:55Z</time>
      </trkpt>
      <trkpt lat="44.03255" lon="1.93015">
        <ele>265</ele>
        <time>2023-07-23T07:19:56Z</time>
      </trkpt>
      <trkpt lat="44.03249" lon="1.93013">
        <ele>264</ele>
        <time>2023-07-23T07:19:57Z</time>
      </trkpt>
      <trkpt lat="44.03244" lon="1.93011">
        <ele>263</ele>
        <time>2023-07-23T07:19:58Z</time>
      </trkpt>
      <trkpt lat="44.03238" lon="1.93008">
        <ele>262.8</ele>
        <time>2023-07-23T07:19:59Z</time>
      </trkpt>
      <trkpt lat="44.03232" lon="1.93005">
        <ele>262.4</ele>
        <time>2023-07-23T07:20:00Z</time>
      </trkpt>
      <trkpt lat="44.03226" lon="1.93">
        <ele>262.2</ele>
        <time>2023-07-23T07:20:01Z</time>
      </trkpt>
      <trkpt lat="44.03222" lon="1.92995">
        <ele>261.8</ele>
        <time>2023-07-23T07:20:02Z</time>
      </trkpt>
      <trkpt lat="44.0322" lon="1.92992">
        <ele>261.4</ele>
        <time>2023-07-23T07:20:03Z</time>
      </trkpt>
      <trkpt lat="44.03219" lon="1.92987">
        <ele>260.8</ele>
        <time>2023-07-23T07:20:04Z</time>
      </trkpt>
      <trkpt lat="44.03219" lon="1.92983">
        <ele>260.4</ele>
        <time>2023-07-23T07:20:05Z</time>
      </trkpt>
      <trkpt lat="44.03222" lon="1.92979">
        <ele>260.2</ele>
        <time>2023-07-23T07:20:06Z</time>
      </trkpt>
      <trkpt lat="44.03225" lon="1.92977">
        <ele>259.8</ele>
        <time>2023-07-23T07:20:07Z</time>
      </trkpt>
      <trkpt lat="44.03229" lon="1.92976">
        <ele>259.8</ele>
        <time>2023-07-23T07:20:08Z</time>
      </trkpt>
      <trkpt lat="44.03232" lon="1.92976">
        <ele>259.4</ele>
        <time>2023-07-23T07:20:09Z</time>
      </trkpt>
      <trkpt lat="44.03237" lon="1.92975">
        <ele>259.4</ele>
        <time>2023-07-23T07:20:10Z</time>
      </trkpt>
      <trkpt lat="44.03242" lon="1.92974">
        <ele>259</ele>
        <time>2023-07-23T07:20:11Z</time>
      </trkpt>
      <trkpt lat="44.03248" lon="1.92974">
        <ele>258.8</ele>
        <time>2023-07-23T07:20:12Z</time>
      </trkpt>
      <trkpt lat="44.03258" lon="1.92972">
        <ele>257.8</ele>
        <time>2023-07-23T07:20:14Z</time>
      </trkpt>
      <trkpt lat="44.03276" lon="1.92969">
        <ele>256.8</ele>
        <time>2023-07-23T07:20:17Z</time>
      </trkpt>
      <trkpt lat="44.03288" lon="1.92968">
        <ele>255.8</ele>
        <time>2023-07-23T07:20:19Z</time>
      </trkpt>
      <trkpt lat="44.03294" lon="1.92967">
        <ele>255.2</ele>
        <time>2023-07-23T07:20:20Z</time>
      </trkpt>
      <trkpt lat="44.03307" lon="1.92963">
        <ele>254.2</ele>
        <time>2023-07-23T07:20:22Z</time>
      </trkpt>
      <trkpt lat="44.03319" lon="1.92957">
        <ele>253.2</ele>
        <time>2023-07-23T07:20:24Z</time>
      </trkpt>
      <trkpt lat="44.03329" lon="1.92953">
        <ele>252</ele>
        <time>2023-07-23T07:20:26Z</time>
      </trkpt>
      <trkpt lat="44.03334" lon="1.92948">
        <ele>251.6</ele>
        <time>2023-07-23T07:20:27Z</time>
      </trkpt>
      <trkpt lat="44.0335" lon="1.92936">
        <ele>250.6</ele>
        <time>2023-07-23T07:20:30Z</time>
      </trkpt>
      <trkpt lat="44.03356" lon="1.92931">
        <ele>250.2</ele>
        <time>2023-07-23T07:20:31Z</time>
      </trkpt>
      <trkpt lat="44.03361" lon="1.92925">
        <ele>249.6</ele>
        <time>2023-07-23T07:20:32Z</time>
      </trkpt>
      <trkpt lat="44.03379" lon="1.9291">
        <ele>248.6</ele>
        <time>2023-07-23T07:20:35Z</time>
      </trkpt>
      <trkpt lat="44.03393" lon="1.92903">
        <ele>247.4</ele>
        <time>2023-07-23T07:20:37Z</time>
      </trkpt>
      <trkpt lat="44.03407" lon="1.92896">
        <ele>246.8</ele>
        <time>2023-07-23T07:20:39Z</time>
      </trkpt>
      <trkpt lat="44.03423" lon="1.92894">
        <ele>246.2</ele>
        <time>2023-07-23T07:20:41Z</time>
      </trkpt>
      <trkpt lat="44.0343" lon="1.92893">
        <ele>246</ele>
        <time>2023-07-23T07:20:42Z</time>
      </trkpt>
      <trkpt lat="44.03449" lon="1.92889">
        <ele>245</ele>
        <time>2023-07-23T07:20:45Z</time>
      </trkpt>
      <trkpt lat="44.03469" lon="1.92883">
        <ele>243.8</ele>
        <time>2023-07-23T07:20:48Z</time>
      </trkpt>
      <trkpt lat="44.03477" lon="1.9288">
        <ele>243.6</ele>
        <time>2023-07-23T07:20:49Z</time>
      </trkpt>
      <trkpt lat="44.03485" lon="1.92877">
        <ele>242.8</ele>
        <time>2023-07-23T07:20:50Z</time>
      </trkpt>
      <trkpt lat="44.03507" lon="1.92866">
        <ele>241.8</ele>
        <time>2023-07-23T07:20:53Z</time>
      </trkpt>
      <trkpt lat="44.03516" lon="1.92861">
        <ele>241.6</ele>
        <time>2023-07-23T07:20:54Z</time>
      </trkpt>
      <trkpt lat="44.0353" lon="1.92847">
        <ele>240.6</ele>
        <time>2023-07-23T07:20:56Z</time>
      </trkpt>
      <trkpt lat="44.03543" lon="1.92833">
        <ele>239.6</ele>
        <time>2023-07-23T07:20:58Z</time>
      </trkpt>
      <trkpt lat="44.03548" lon="1.92827">
        <ele>238.4</ele>
        <time>2023-07-23T07:20:59Z</time>
      </trkpt>
      <trkpt lat="44.03553" lon="1.92821">
        <ele>237.8</ele>
        <time>2023-07-23T07:21:00Z</time>
      </trkpt>
      <trkpt lat="44.03558" lon="1.92817">
        <ele>237.2</ele>
        <time>2023-07-23T07:21:01Z</time>
      </trkpt>
      <trkpt lat="44.03563" lon="1.92813">
        <ele>236.6</ele>
        <time>2023-07-23T07:21:02Z</time>
      </trkpt>
      <trkpt lat="44.03568" lon="1.92808">
        <ele>236.2</ele>
        <time>2023-07-23T07:21:03Z</time>
      </trkpt>
      <trkpt lat="44.03572" lon="1.92803">
        <ele>235.8</ele>
        <time>2023-07-23T07:21:04Z</time>
      </trkpt>
      <trkpt lat="44.03577" lon="1.92798">
        <ele>235.6</ele>
        <time>2023-07-23T07:21:05Z</time>
      </trkpt>
      <trkpt lat="44.03582" lon="1.92793">
        <ele>235.4</ele>
        <time>2023-07-23T07:21:06Z</time>
      </trkpt>
      <trkpt lat="44.03586" lon="1.92788">
        <ele>235.4</ele>
        <time>2023-07-23T07:21:07Z</time>
      </trkpt>
      <trkpt lat="44.03596" lon="1.92779">
        <ele>234.6</ele>
        <time>2023-07-23T07:21:09Z</time>
      </trkpt>
      <trkpt lat="44.03603" lon="1.92774">
        <ele>234.4</ele>
        <time>2023-07-23T07:21:10Z</time>
      </trkpt>
      <trkpt lat="44.03622" lon="1.9276">
        <ele>233.4</ele>
        <time>2023-07-23T07:21:13Z</time>
      </trkpt>
      <trkpt lat="44.03641" lon="1.92743">
        <ele>232.4</ele>
        <time>2023-07-23T07:21:16Z</time>
      </trkpt>
      <trkpt lat="44.03647" lon="1.92737">
        <ele>232</ele>
        <time>2023-07-23T07:21:17Z</time>
      </trkpt>
      <trkpt lat="44.03666" lon="1.92721">
        <ele>231.4</ele>
        <time>2023-07-23T07:21:20Z</time>
      </trkpt>
      <trkpt lat="44.03677" lon="1.92709">
        <ele>230.8</ele>
        <time>2023-07-23T07:21:22Z</time>
      </trkpt>
      <trkpt lat="44.03686" lon="1.92694">
        <ele>229.8</ele>
        <time>2023-07-23T07:21:24Z</time>
      </trkpt>
      <trkpt lat="44.03689" lon="1.92686">
        <ele>229.2</ele>
        <time>2023-07-23T07:21:25Z</time>
      </trkpt>
      <trkpt lat="44.03697" lon="1.9267">
        <ele>228.2</ele>
        <time>2023-07-23T07:21:27Z</time>
      </trkpt>
      <trkpt lat="44.03703" lon="1.92654">
        <ele>226.8</ele>
        <time>2023-07-23T07:21:29Z</time>
      </trkpt>
      <trkpt lat="44.03704" lon="1.92645">
        <ele>226.4</ele>
        <time>2023-07-23T07:21:30Z</time>
      </trkpt>
      <trkpt lat="44.03706" lon="1.92636">
        <ele>226</ele>
        <time>2023-07-23T07:21:31Z</time>
      </trkpt>
      <trkpt lat="44.03707" lon="1.92628">
        <ele>226</ele>
        <time>2023-07-23T07:21:32Z</time>
      </trkpt>
      <trkpt lat="44.03709" lon="1.92619">
        <ele>225.8</ele>
        <time>2023-07-23T07:21:33Z</time>
      </trkpt>
      <trkpt lat="44.0371" lon="1.9261">
        <ele>225.6</ele>
        <time>2023-07-23T07:21:34Z</time>
      </trkpt>
      <trkpt lat="44.03711" lon="1.92602">
        <ele>225.4</ele>
        <time>2023-07-23T07:21:35Z</time>
      </trkpt>
      <trkpt lat="44.03712" lon="1.92594">
        <ele>225.2</ele>
        <time>2023-07-23T07:21:36Z</time>
      </trkpt>
      <trkpt lat="44.03716" lon="1.92579">
        <ele>224.6</ele>
        <time>2023-07-23T07:21:38Z</time>
      </trkpt>
      <trkpt lat="44.03717" lon="1.92573">
        <ele>224.6</ele>
        <time>2023-07-23T07:21:39Z</time>
      </trkpt>
      <trkpt lat="44.03719" lon="1.92567">
        <ele>224.4</ele>
        <time>2023-07-23T07:21:40Z</time>
      </trkpt>
      <trkpt lat="44.0372" lon="1.92561">
        <ele>224.2</ele>
        <time>2023-07-23T07:21:41Z</time>
      </trkpt>
      <trkpt lat="44.03722" lon="1.92556">
        <ele>224</ele>
        <time>2023-07-23T07:21:42Z</time>
      </trkpt>
      <trkpt lat="44.03724" lon="1.92551">
        <ele>224</ele>
        <time>2023-07-23T07:21:43Z</time>
      </trkpt>
      <trkpt lat="44.03726" lon="1.92546">
        <ele>224</ele>
        <time>2023-07-23T07:21:44Z</time>
      </trkpt>
      <trkpt lat="44.03732" lon="1.92532">
        <ele>223.8</ele>
        <time>2023-07-23T07:21:47Z</time>
      </trkpt>
      <trkpt lat="44.03734" lon="1.92528">
        <ele>223.8</ele>
        <time>2023-07-23T07:21:48Z</time>
      </trkpt>
      <trkpt lat="44.03737" lon="1.92524">
        <ele>223.8</ele>
        <time>2023-07-23T07:21:49Z</time>
      </trkpt>
      <trkpt lat="44.0374" lon="1.9252">
        <ele>223.6</ele>
        <time>2023-07-23T07:21:50Z</time>
      </trkpt>
      <trkpt lat="44.03762" lon="1.92487">
        <ele>222.6</ele>
        <time>2023-07-23T07:21:57Z</time>
      </trkpt>
      <trkpt lat="44.03768" lon="1.92479">
        <ele>222.6</ele>
        <time>2023-07-23T07:21:59Z</time>
      </trkpt>
      <trkpt lat="44.03777" lon="1.92465">
        <ele>222.4</ele>
        <time>2023-07-23T07:22:02Z</time>
      </trkpt>
      <trkpt lat="44.0378" lon="1.9246">
        <ele>222.4</ele>
        <time>2023-07-23T07:22:03Z</time>
      </trkpt>
      <trkpt lat="44.03807" lon="1.92418">
        <ele>222.4</ele>
        <time>2023-07-23T07:22:11Z</time>
      </trkpt>
      <trkpt lat="44.03817" lon="1.92401">
        <ele>222</ele>
        <time>2023-07-23T07:22:14Z</time>
      </trkpt>
      <trkpt lat="44.03823" lon="1.92393">
        <ele>221.8</ele>
        <time>2023-07-23T07:22:16Z</time>
      </trkpt>
      <trkpt lat="44.03825" lon="1.92389">
        <ele>221.8</ele>
        <time>2023-07-23T07:22:17Z</time>
      </trkpt>
      <trkpt lat="44.03828" lon="1.92384">
        <ele>221.8</ele>
        <time>2023-07-23T07:22:18Z</time>
      </trkpt>
      <trkpt lat="44.03831" lon="1.92379">
        <ele>221.8</ele>
        <time>2023-07-23T07:22:19Z</time>
      </trkpt>
      <trkpt lat="44.03834" lon="1.92375">
        <ele>221.6</ele>
        <time>2023-07-23T07:22:20Z</time>
      </trkpt>
      <trkpt lat="44.0384" lon="1.92364">
        <ele>221.6</ele>
        <time>2023-07-23T07:22:22Z</time>
      </trkpt>
      <trkpt lat="44.03844" lon="1.92358">
        <ele>221.6</ele>
        <time>2023-07-23T07:22:23Z</time>
      </trkpt>
      <trkpt lat="44.03851" lon="1.92344">
        <ele>221.4</ele>
        <time>2023-07-23T07:22:25Z</time>
      </trkpt>
      <trkpt lat="44.03857" lon="1.92329">
        <ele>220.8</ele>
        <time>2023-07-23T07:22:27Z</time>
      </trkpt>
      <trkpt lat="44.0386" lon="1.92321">
        <ele>220.4</ele>
        <time>2023-07-23T07:22:28Z</time>
      </trkpt>
      <trkpt lat="44.03867" lon="1.92298">
        <ele>219.4</ele>
        <time>2023-07-23T07:22:31Z</time>
      </trkpt>
      <trkpt lat="44.03871" lon="1.92284">
        <ele>219</ele>
        <time>2023-07-23T07:22:33Z</time>
      </trkpt>
      <trkpt lat="44.03873" lon="1.92271">
        <ele>218.6</ele>
        <time>2023-07-23T07:22:35Z</time>
      </trkpt>
      <trkpt lat="44.03873" lon="1.92264">
        <ele>218.4</ele>
        <time>2023-07-23T07:22:36Z</time>
      </trkpt>
      <trkpt lat="44.03873" lon="1.92259">
        <ele>218.2</ele>
        <time>2023-07-23T07:22:37Z</time>
      </trkpt>
      <trkpt lat="44.03873" lon="1.92254">
        <ele>218</ele>
        <time>2023-07-23T07:22:38Z</time>
      </trkpt>
      <trkpt lat="44.03872" lon="1.9225">
        <ele>218</ele>
        <time>2023-07-23T07:22:39Z</time>
      </trkpt>
      <trkpt lat="44.03871" lon="1.92245">
        <ele>217.8</ele>
        <time>2023-07-23T07:22:40Z</time>
      </trkpt>
      <trkpt lat="44.0387" lon="1.92242">
        <ele>217.8</ele>
        <time>2023-07-23T07:22:41Z</time>
      </trkpt>
      <trkpt lat="44.03868" lon="1.92238">
        <ele>217.6</ele>
        <time>2023-07-23T07:22:42Z</time>
      </trkpt>
      <trkpt lat="44.03867" lon="1.92236">
        <ele>217.6</ele>
        <time>2023-07-23T07:22:43Z</time>
      </trkpt>
      <trkpt lat="44.03864" lon="1.92233">
        <ele>217.6</ele>
        <time>2023-07-23T07:22:44Z</time>
      </trkpt>
      <trkpt lat="44.03862" lon="1.92231">
        <ele>217.6</ele>
        <time>2023-07-23T07:22:45Z</time>
      </trkpt>
      <trkpt lat="44.03859" lon="1.92228">
        <ele>217.6</ele>
        <time>2023-07-23T07:22:46Z</time>
      </trkpt>
      <trkpt lat="44.03855" lon="1.92225">
        <ele>217.6</ele>
        <time>2023-07-23T07:22:48Z</time>
      </trkpt>
      <trkpt lat="44.03853" lon="1.92224">
        <ele>217.6</ele>
        <time>2023-07-23T07:22:49Z</time>
      </trkpt>
      <trkpt lat="44.03846" lon="1.92219">
        <ele>217.6</ele>
        <time>2023-07-23T07:22:52Z</time>
      </trkpt>
      <trkpt lat="44.03844" lon="1.92218">
        <ele>217.6</ele>
        <time>2023-07-23T07:22:53Z</time>
      </trkpt>
      <trkpt lat="44.03842" lon="1.92216">
        <ele>217.8</ele>
        <time>2023-07-23T07:22:54Z</time>
      </trkpt>
      <trkpt lat="44.0384" lon="1.92215">
        <ele>217.8</ele>
        <time>2023-07-23T07:22:55Z</time>
      </trkpt>
      <trkpt lat="44.03838" lon="1.92213">
        <ele>217.8</ele>
        <time>2023-07-23T07:22:56Z</time>
      </trkpt>
      <trkpt lat="44.03836" lon="1.92212">
        <ele>218</ele>
        <time>2023-07-23T07:22:57Z</time>
      </trkpt>
      <trkpt lat="44.03834" lon="1.9221">
        <ele>218.2</ele>
        <time>2023-07-23T07:22:58Z</time>
      </trkpt>
      <trkpt lat="44.03832" lon="1.92209">
        <ele>218.2</ele>
        <time>2023-07-23T07:22:59Z</time>
      </trkpt>
      <trkpt lat="44.03823" lon="1.92205">
        <ele>218.6</ele>
        <time>2023-07-23T07:23:03Z</time>
      </trkpt>
      <trkpt lat="44.03821" lon="1.92203">
        <ele>218.6</ele>
        <time>2023-07-23T07:23:04Z</time>
      </trkpt>
      <trkpt lat="44.03818" lon="1.92202">
        <ele>218.8</ele>
        <time>2023-07-23T07:23:05Z</time>
      </trkpt>
      <trkpt lat="44.03816" lon="1.922">
        <ele>218.8</ele>
        <time>2023-07-23T07:23:06Z</time>
      </trkpt>
      <trkpt lat="44.03814" lon="1.92199">
        <ele>219</ele>
        <time>2023-07-23T07:23:07Z</time>
      </trkpt>
      <trkpt lat="44.03812" lon="1.92198">
        <ele>219</ele>
        <time>2023-07-23T07:23:08Z</time>
      </trkpt>
      <trkpt lat="44.03807" lon="1.92196">
        <ele>219.2</ele>
        <time>2023-07-23T07:23:11Z</time>
      </trkpt>
      <trkpt lat="44.03803" lon="1.92194">
        <ele>219.4</ele>
        <time>2023-07-23T07:23:13Z</time>
      </trkpt>
      <trkpt lat="44.03801" lon="1.92193">
        <ele>219.4</ele>
        <time>2023-07-23T07:23:14Z</time>
      </trkpt>
      <trkpt lat="44.038" lon="1.92193">
        <ele>219.6</ele>
        <time>2023-07-23T07:23:15Z</time>
      </trkpt>
      <trkpt lat="44.03798" lon="1.92192">
        <ele>219.6</ele>
        <time>2023-07-23T07:23:16Z</time>
      </trkpt>
      <trkpt lat="44.03797" lon="1.92191">
        <ele>219.8</ele>
        <time>2023-07-23T07:23:17Z</time>
      </trkpt>
      <trkpt lat="44.03796" lon="1.9219">
        <ele>219.8</ele>
        <time>2023-07-23T07:23:18Z</time>
      </trkpt>
      <trkpt lat="44.03794" lon="1.92189">
        <ele>220</ele>
        <time>2023-07-23T07:23:19Z</time>
      </trkpt>
      <trkpt lat="44.03793" lon="1.92188">
        <ele>220</ele>
        <time>2023-07-23T07:23:20Z</time>
      </trkpt>
      <trkpt lat="44.03792" lon="1.92187">
        <ele>220.2</ele>
        <time>2023-07-23T07:23:21Z</time>
      </trkpt>
      <trkpt lat="44.0379" lon="1.92186">
        <ele>220.2</ele>
        <time>2023-07-23T07:23:22Z</time>
      </trkpt>
      <trkpt lat="44.03789" lon="1.92185">
        <ele>220.4</ele>
        <time>2023-07-23T07:23:23Z</time>
      </trkpt>
      <trkpt lat="44.03788" lon="1.92185">
        <ele>220.4</ele>
        <time>2023-07-23T07:23:24Z</time>
      </trkpt>
      <trkpt lat="44.03787" lon="1.92184">
        <ele>220.6</ele>
        <time>2023-07-23T07:23:25Z</time>
      </trkpt>
      <trkpt lat="44.03786" lon="1.92184">
        <ele>220.8</ele>
        <time>2023-07-23T07:23:26Z</time>
      </trkpt>
      <trkpt lat="44.03785" lon="1.92184">
        <ele>220.8</ele>
        <time>2023-07-23T07:23:27Z</time>
      </trkpt>
      <trkpt lat="44.03785" lon="1.92184">
        <ele>221</ele>
        <time>2023-07-23T07:23:28Z</time>
      </trkpt>
      <trkpt lat="44.03785" lon="1.92184">
        <ele>221</ele>
        <time>2023-07-23T07:23:29Z</time>
      </trkpt>
      <trkpt lat="44.03785" lon="1.92184">
        <ele>221.2</ele>
        <time>2023-07-23T07:23:30Z</time>
      </trkpt>
      <trkpt lat="44.03779" lon="1.92183">
        <ele>221.2</ele>
        <time>2023-07-23T07:24:16Z</time>
      </trkpt>
      <trkpt lat="44.0377" lon="1.92181">
        <ele>221.4</ele>
        <time>2023-07-23T07:24:21Z</time>
      </trkpt>
      <trkpt lat="44.03768" lon="1.92181">
        <ele>221.4</ele>
        <time>2023-07-23T07:24:22Z</time>
      </trkpt>
      <trkpt lat="44.03766" lon="1.9218">
        <ele>221.4</ele>
        <time>2023-07-23T07:24:23Z</time>
      </trkpt>
      <trkpt lat="44.03754" lon="1.92178">
        <ele>222.2</ele>
        <time>2023-07-23T07:24:29Z</time>
      </trkpt>
      <trkpt lat="44.03751" lon="1.92177">
        <ele>222.8</ele>
        <time>2023-07-23T07:24:31Z</time>
      </trkpt>
      <trkpt lat="44.03742" lon="1.92175">
        <ele>223.4</ele>
        <time>2023-07-23T07:24:35Z</time>
      </trkpt>
      <trkpt lat="44.03737" lon="1.92173">
        <ele>224.2</ele>
        <time>2023-07-23T07:24:38Z</time>
      </trkpt>
      <trkpt lat="44.03735" lon="1.92173">
        <ele>224.4</ele>
        <time>2023-07-23T07:24:39Z</time>
      </trkpt>
      <trkpt lat="44.03734" lon="1.92172">
        <ele>224.6</ele>
        <time>2023-07-23T07:24:40Z</time>
      </trkpt>
      <trkpt lat="44.03732" lon="1.92172">
        <ele>224.8</ele>
        <time>2023-07-23T07:24:41Z</time>
      </trkpt>
      <trkpt lat="44.0373" lon="1.92171">
        <ele>224.8</ele>
        <time>2023-07-23T07:24:42Z</time>
      </trkpt>
      <trkpt lat="44.03728" lon="1.92171">
        <ele>225</ele>
        <time>2023-07-23T07:24:43Z</time>
      </trkpt>
      <trkpt lat="44.03727" lon="1.9217">
        <ele>225.4</ele>
        <time>2023-07-23T07:24:44Z</time>
      </trkpt>
      <trkpt lat="44.03725" lon="1.9217">
        <ele>225.6</ele>
        <time>2023-07-23T07:24:45Z</time>
      </trkpt>
      <trkpt lat="44.03724" lon="1.92169">
        <ele>225.8</ele>
        <time>2023-07-23T07:24:46Z</time>
      </trkpt>
      <trkpt lat="44.03722" lon="1.92169">
        <ele>225.8</ele>
        <time>2023-07-23T07:24:47Z</time>
      </trkpt>
      <trkpt lat="44.03721" lon="1.92168">
        <ele>226.2</ele>
        <time>2023-07-23T07:24:48Z</time>
      </trkpt>
      <trkpt lat="44.03719" lon="1.92168">
        <ele>226.2</ele>
        <time>2023-07-23T07:24:49Z</time>
      </trkpt>
      <trkpt lat="44.03718" lon="1.92167">
        <ele>226.4</ele>
        <time>2023-07-23T07:24:50Z</time>
      </trkpt>
      <trkpt lat="44.03717" lon="1.92167">
        <ele>226.6</ele>
        <time>2023-07-23T07:24:51Z</time>
      </trkpt>
      <trkpt lat="44.03715" lon="1.92166">
        <ele>226.8</ele>
        <time>2023-07-23T07:24:52Z</time>
      </trkpt>
      <trkpt lat="44.03714" lon="1.92166">
        <ele>227.2</ele>
        <time>2023-07-23T07:24:53Z</time>
      </trkpt>
      <trkpt lat="44.03712" lon="1.92166">
        <ele>227.2</ele>
        <time>2023-07-23T07:24:54Z</time>
      </trkpt>
      <trkpt lat="44.0371" lon="1.92166">
        <ele>227.6</ele>
        <time>2023-07-23T07:24:55Z</time>
      </trkpt>
      <trkpt lat="44.03708" lon="1.92165">
        <ele>227.8</ele>
        <time>2023-07-23T07:24:56Z</time>
      </trkpt>
      <trkpt lat="44.03707" lon="1.92165">
        <ele>228</ele>
        <time>2023-07-23T07:24:57Z</time>
      </trkpt>
      <trkpt lat="44.03705" lon="1.92165">
        <ele>228.2</ele>
        <time>2023-07-23T07:24:58Z</time>
      </trkpt>
      <trkpt lat="44.03704" lon="1.92165">
        <ele>228.4</ele>
        <time>2023-07-23T07:24:59Z</time>
      </trkpt>
      <trkpt lat="44.03702" lon="1.92165">
        <ele>228.4</ele>
        <time>2023-07-23T07:25:00Z</time>
      </trkpt>
      <trkpt lat="44.037" lon="1.92165">
        <ele>228.8</ele>
        <time>2023-07-23T07:25:01Z</time>
      </trkpt>
      <trkpt lat="44.03698" lon="1.92165">
        <ele>229.2</ele>
        <time>2023-07-23T07:25:02Z</time>
      </trkpt>
      <trkpt lat="44.03696" lon="1.92165">
        <ele>229.4</ele>
        <time>2023-07-23T07:25:03Z</time>
      </trkpt>
      <trkpt lat="44.03694" lon="1.92166">
        <ele>229.6</ele>
        <time>2023-07-23T07:25:04Z</time>
      </trkpt>
      <trkpt lat="44.03693" lon="1.92165">
        <ele>229.8</ele>
        <time>2023-07-23T07:25:05Z</time>
      </trkpt>
      <trkpt lat="44.03691" lon="1.92165">
        <ele>230</ele>
        <time>2023-07-23T07:25:06Z</time>
      </trkpt>
      <trkpt lat="44.03689" lon="1.92165">
        <ele>230.2</ele>
        <time>2023-07-23T07:25:07Z</time>
      </trkpt>
      <trkpt lat="44.03688" lon="1.92164">
        <ele>230.4</ele>
        <time>2023-07-23T07:25:08Z</time>
      </trkpt>
      <trkpt lat="44.03686" lon="1.92164">
        <ele>230.8</ele>
        <time>2023-07-23T07:25:09Z</time>
      </trkpt>
      <trkpt lat="44.03684" lon="1.92164">
        <ele>230.8</ele>
        <time>2023-07-23T07:25:10Z</time>
      </trkpt>
      <trkpt lat="44.03682" lon="1.92164">
        <ele>231</ele>
        <time>2023-07-23T07:25:11Z</time>
      </trkpt>
      <trkpt lat="44.03681" lon="1.92164">
        <ele>231</ele>
        <time>2023-07-23T07:25:12Z</time>
      </trkpt>
      <trkpt lat="44.03679" lon="1.92164">
        <ele>231.4</ele>
        <time>2023-07-23T07:25:13Z</time>
      </trkpt>
      <trkpt lat="44.03678" lon="1.92163">
        <ele>231.6</ele>
        <time>2023-07-23T07:25:14Z</time>
      </trkpt>
      <trkpt lat="44.03677" lon="1.92162">
        <ele>231.6</ele>
        <time>2023-07-23T07:25:15Z</time>
      </trkpt>
      <trkpt lat="44.03675" lon="1.92162">
        <ele>231.8</ele>
        <time>2023-07-23T07:25:16Z</time>
      </trkpt>
      <trkpt lat="44.03674" lon="1.92161">
        <ele>232.2</ele>
        <time>2023-07-23T07:25:17Z</time>
      </trkpt>
      <trkpt lat="44.03672" lon="1.92161">
        <ele>232.4</ele>
        <time>2023-07-23T07:25:18Z</time>
      </trkpt>
      <trkpt lat="44.03671" lon="1.92161">
        <ele>232.6</ele>
        <time>2023-07-23T07:25:19Z</time>
      </trkpt>
      <trkpt lat="44.03669" lon="1.92161">
        <ele>232.8</ele>
        <time>2023-07-23T07:25:20Z</time>
      </trkpt>
      <trkpt lat="44.03668" lon="1.9216">
        <ele>233</ele>
        <time>2023-07-23T07:25:21Z</time>
      </trkpt>
      <trkpt lat="44.03666" lon="1.92159">
        <ele>233</ele>
        <time>2023-07-23T07:25:22Z</time>
      </trkpt>
      <trkpt lat="44.03665" lon="1.92159">
        <ele>233.2</ele>
        <time>2023-07-23T07:25:23Z</time>
      </trkpt>
      <trkpt lat="44.03663" lon="1.92158">
        <ele>233.4</ele>
        <time>2023-07-23T07:25:24Z</time>
      </trkpt>
      <trkpt lat="44.03661" lon="1.92158">
        <ele>233.4</ele>
        <time>2023-07-23T07:25:25Z</time>
      </trkpt>
      <trkpt lat="44.03658" lon="1.92158">
        <ele>233.6</ele>
        <time>2023-07-23T07:25:26Z</time>
      </trkpt>
      <trkpt lat="44.03656" lon="1.92158">
        <ele>233.8</ele>
        <time>2023-07-23T07:25:27Z</time>
      </trkpt>
      <trkpt lat="44.03654" lon="1.92159">
        <ele>234</ele>
        <time>2023-07-23T07:25:28Z</time>
      </trkpt>
      <trkpt lat="44.03653" lon="1.92159">
        <ele>234.2</ele>
        <time>2023-07-23T07:25:29Z</time>
      </trkpt>
      <trkpt lat="44.03651" lon="1.92159">
        <ele>234.4</ele>
        <time>2023-07-23T07:25:30Z</time>
      </trkpt>
      <trkpt lat="44.03649" lon="1.92159">
        <ele>234.4</ele>
        <time>2023-07-23T07:25:31Z</time>
      </trkpt>
      <trkpt lat="44.03647" lon="1.92159">
        <ele>234.6</ele>
        <time>2023-07-23T07:25:32Z</time>
      </trkpt>
      <trkpt lat="44.03645" lon="1.9216">
        <ele>234.8</ele>
        <time>2023-07-23T07:25:33Z</time>
      </trkpt>
      <trkpt lat="44.03644" lon="1.9216">
        <ele>234.8</ele>
        <time>2023-07-23T07:25:34Z</time>
      </trkpt>
      <trkpt lat="44.03642" lon="1.92161">
        <ele>235</ele>
        <time>2023-07-23T07:25:35Z</time>
      </trkpt>
      <trkpt lat="44.0364" lon="1.9216">
        <ele>235</ele>
        <time>2023-07-23T07:25:36Z</time>
      </trkpt>
      <trkpt lat="44.03638" lon="1.9216">
        <ele>235.2</ele>
        <time>2023-07-23T07:25:37Z</time>
      </trkpt>
      <trkpt lat="44.03637" lon="1.92161">
        <ele>235.4</ele>
        <time>2023-07-23T07:25:38Z</time>
      </trkpt>
      <trkpt lat="44.03635" lon="1.92161">
        <ele>235.6</ele>
        <time>2023-07-23T07:25:39Z</time>
      </trkpt>
      <trkpt lat="44.03633" lon="1.92162">
        <ele>236</ele>
        <time>2023-07-23T07:25:40Z</time>
      </trkpt>
      <trkpt lat="44.03631" lon="1.92163">
        <ele>236</ele>
        <time>2023-07-23T07:25:41Z</time>
      </trkpt>
      <trkpt lat="44.03629" lon="1.92164">
        <ele>236</ele>
        <time>2023-07-23T07:25:42Z</time>
      </trkpt>
      <trkpt lat="44.03626" lon="1.92164">
        <ele>236.4</ele>
        <time>2023-07-23T07:25:43Z</time>
      </trkpt>
      <trkpt lat="44.03624" lon="1.92164">
        <ele>236.4</ele>
        <time>2023-07-23T07:25:44Z</time>
      </trkpt>
      <trkpt lat="44.03621" lon="1.92164">
        <ele>236.6</ele>
        <time>2023-07-23T07:25:45Z</time>
      </trkpt>
      <trkpt lat="44.03619" lon="1.92165">
        <ele>236.6</ele>
        <time>2023-07-23T07:25:46Z</time>
      </trkpt>
      <trkpt lat="44.03617" lon="1.92164">
        <ele>237.2</ele>
        <time>2023-07-23T07:25:47Z</time>
      </trkpt>
      <trkpt lat="44.03616" lon="1.92164">
        <ele>237</ele>
        <time>2023-07-23T07:25:48Z</time>
      </trkpt>
      <trkpt lat="44.03614" lon="1.92165">
        <ele>237.4</ele>
        <time>2023-07-23T07:25:49Z</time>
      </trkpt>
      <trkpt lat="44.03611" lon="1.92166">
        <ele>237.8</ele>
        <time>2023-07-23T07:25:50Z</time>
      </trkpt>
      <trkpt lat="44.0361" lon="1.92166">
        <ele>237.8</ele>
        <time>2023-07-23T07:25:51Z</time>
      </trkpt>
      <trkpt lat="44.03608" lon="1.92166">
        <ele>238</ele>
        <time>2023-07-23T07:25:52Z</time>
      </trkpt>
      <trkpt lat="44.03607" lon="1.92166">
        <ele>238</ele>
        <time>2023-07-23T07:25:53Z</time>
      </trkpt>
      <trkpt lat="44.03605" lon="1.92166">
        <ele>238.4</ele>
        <time>2023-07-23T07:25:54Z</time>
      </trkpt>
      <trkpt lat="44.03604" lon="1.92167">
        <ele>238.6</ele>
        <time>2023-07-23T07:25:55Z</time>
      </trkpt>
      <trkpt lat="44.03602" lon="1.92166">
        <ele>238.8</ele>
        <time>2023-07-23T07:25:56Z</time>
      </trkpt>
      <trkpt lat="44.036" lon="1.92166">
        <ele>238.8</ele>
        <time>2023-07-23T07:25:57Z</time>
      </trkpt>
      <trkpt lat="44.03598" lon="1.92166">
        <ele>239</ele>
        <time>2023-07-23T07:25:58Z</time>
      </trkpt>
      <trkpt lat="44.03596" lon="1.92166">
        <ele>239</ele>
        <time>2023-07-23T07:25:59Z</time>
      </trkpt>
      <trkpt lat="44.03595" lon="1.92167">
        <ele>239.2</ele>
        <time>2023-07-23T07:26:00Z</time>
      </trkpt>
      <trkpt lat="44.03593" lon="1.92167">
        <ele>239.4</ele>
        <time>2023-07-23T07:26:01Z</time>
      </trkpt>
      <trkpt lat="44.03591" lon="1.92168">
        <ele>239.6</ele>
        <time>2023-07-23T07:26:02Z</time>
      </trkpt>
      <trkpt lat="44.03589" lon="1.92168">
        <ele>239.8</ele>
        <time>2023-07-23T07:26:03Z</time>
      </trkpt>
      <trkpt lat="44.03588" lon="1.92168">
        <ele>240</ele>
        <time>2023-07-23T07:26:04Z</time>
      </trkpt>
      <trkpt lat="44.03586" lon="1.92169">
        <ele>240.4</ele>
        <time>2023-07-23T07:26:05Z</time>
      </trkpt>
      <trkpt lat="44.03584" lon="1.92169">
        <ele>240.6</ele>
        <time>2023-07-23T07:26:06Z</time>
      </trkpt>
      <trkpt lat="44.03583" lon="1.92169">
        <ele>240.8</ele>
        <time>2023-07-23T07:26:07Z</time>
      </trkpt>
      <trkpt lat="44.03581" lon="1.9217">
        <ele>241</ele>
        <time>2023-07-23T07:26:08Z</time>
      </trkpt>
      <trkpt lat="44.03578" lon="1.92171">
        <ele>241</ele>
        <time>2023-07-23T07:26:09Z</time>
      </trkpt>
      <trkpt lat="44.03576" lon="1.92172">
        <ele>241.2</ele>
        <time>2023-07-23T07:26:10Z</time>
      </trkpt>
      <trkpt lat="44.03574" lon="1.92172">
        <ele>241.2</ele>
        <time>2023-07-23T07:26:11Z</time>
      </trkpt>
      <trkpt lat="44.03572" lon="1.92174">
        <ele>241.4</ele>
        <time>2023-07-23T07:26:12Z</time>
      </trkpt>
      <trkpt lat="44.0357" lon="1.92174">
        <ele>241.6</ele>
        <time>2023-07-23T07:26:13Z</time>
      </trkpt>
      <trkpt lat="44.03568" lon="1.92175">
        <ele>242</ele>
        <time>2023-07-23T07:26:14Z</time>
      </trkpt>
      <trkpt lat="44.03567" lon="1.92176">
        <ele>242.4</ele>
        <time>2023-07-23T07:26:15Z</time>
      </trkpt>
      <trkpt lat="44.03565" lon="1.92177">
        <ele>242.6</ele>
        <time>2023-07-23T07:26:16Z</time>
      </trkpt>
      <trkpt lat="44.03563" lon="1.92178">
        <ele>242.8</ele>
        <time>2023-07-23T07:26:17Z</time>
      </trkpt>
      <trkpt lat="44.03562" lon="1.92179">
        <ele>243</ele>
        <time>2023-07-23T07:26:18Z</time>
      </trkpt>
      <trkpt lat="44.0356" lon="1.92179">
        <ele>243.2</ele>
        <time>2023-07-23T07:26:19Z</time>
      </trkpt>
      <trkpt lat="44.03558" lon="1.9218">
        <ele>243.2</ele>
        <time>2023-07-23T07:26:20Z</time>
      </trkpt>
      <trkpt lat="44.03556" lon="1.92181">
        <ele>243.4</ele>
        <time>2023-07-23T07:26:21Z</time>
      </trkpt>
      <trkpt lat="44.03554" lon="1.92181">
        <ele>243.6</ele>
        <time>2023-07-23T07:26:22Z</time>
      </trkpt>
      <trkpt lat="44.03552" lon="1.92182">
        <ele>243.6</ele>
        <time>2023-07-23T07:26:23Z</time>
      </trkpt>
      <trkpt lat="44.03549" lon="1.92183">
        <ele>243.8</ele>
        <time>2023-07-23T07:26:24Z</time>
      </trkpt>
      <trkpt lat="44.03547" lon="1.92183">
        <ele>243.8</ele>
        <time>2023-07-23T07:26:25Z</time>
      </trkpt>
      <trkpt lat="44.03544" lon="1.92184">
        <ele>243.8</ele>
        <time>2023-07-23T07:26:26Z</time>
      </trkpt>
      <trkpt lat="44.03541" lon="1.92184">
        <ele>244</ele>
        <time>2023-07-23T07:26:27Z</time>
      </trkpt>
      <trkpt lat="44.03539" lon="1.92185">
        <ele>244.2</ele>
        <time>2023-07-23T07:26:28Z</time>
      </trkpt>
      <trkpt lat="44.03537" lon="1.92185">
        <ele>244.2</ele>
        <time>2023-07-23T07:26:29Z</time>
      </trkpt>
      <trkpt lat="44.03536" lon="1.92185">
        <ele>244.4</ele>
        <time>2023-07-23T07:26:30Z</time>
      </trkpt>
      <trkpt lat="44.03534" lon="1.92185">
        <ele>244.6</ele>
        <time>2023-07-23T07:26:31Z</time>
      </trkpt>
      <trkpt lat="44.03533" lon="1.92186">
        <ele>244.6</ele>
        <time>2023-07-23T07:26:32Z</time>
      </trkpt>
      <trkpt lat="44.0353" lon="1.92186">
        <ele>244.8</ele>
        <time>2023-07-23T07:26:33Z</time>
      </trkpt>
      <trkpt lat="44.03528" lon="1.92186">
        <ele>244.8</ele>
        <time>2023-07-23T07:26:34Z</time>
      </trkpt>
      <trkpt lat="44.03527" lon="1.92187">
        <ele>245</ele>
        <time>2023-07-23T07:26:35Z</time>
      </trkpt>
      <trkpt lat="44.03525" lon="1.92187">
        <ele>245</ele>
        <time>2023-07-23T07:26:36Z</time>
      </trkpt>
      <trkpt lat="44.03523" lon="1.92187">
        <ele>245.2</ele>
        <time>2023-07-23T07:26:37Z</time>
      </trkpt>
      <trkpt lat="44.03521" lon="1.92187">
        <ele>245.4</ele>
        <time>2023-07-23T07:26:38Z</time>
      </trkpt>
      <trkpt lat="44.0352" lon="1.92187">
        <ele>245.4</ele>
        <time>2023-07-23T07:26:39Z</time>
      </trkpt>
      <trkpt lat="44.03518" lon="1.92187">
        <ele>245.6</ele>
        <time>2023-07-23T07:26:40Z</time>
      </trkpt>
      <trkpt lat="44.03516" lon="1.92187">
        <ele>245.6</ele>
        <time>2023-07-23T07:26:41Z</time>
      </trkpt>
      <trkpt lat="44.03514" lon="1.92186">
        <ele>245.8</ele>
        <time>2023-07-23T07:26:42Z</time>
      </trkpt>
      <trkpt lat="44.03512" lon="1.92186">
        <ele>245.8</ele>
        <time>2023-07-23T07:26:43Z</time>
      </trkpt>
      <trkpt lat="44.03511" lon="1.92185">
        <ele>246</ele>
        <time>2023-07-23T07:26:44Z</time>
      </trkpt>
      <trkpt lat="44.03509" lon="1.92185">
        <ele>246</ele>
        <time>2023-07-23T07:26:45Z</time>
      </trkpt>
      <trkpt lat="44.03508" lon="1.92184">
        <ele>246.2</ele>
        <time>2023-07-23T07:26:46Z</time>
      </trkpt>
      <trkpt lat="44.03506" lon="1.92184">
        <ele>246.4</ele>
        <time>2023-07-23T07:26:47Z</time>
      </trkpt>
      <trkpt lat="44.03504" lon="1.92183">
        <ele>246.4</ele>
        <time>2023-07-23T07:26:48Z</time>
      </trkpt>
      <trkpt lat="44.03502" lon="1.92182">
        <ele>246.6</ele>
        <time>2023-07-23T07:26:49Z</time>
      </trkpt>
      <trkpt lat="44.035" lon="1.92182">
        <ele>246.6</ele>
        <time>2023-07-23T07:26:50Z</time>
      </trkpt>
      <trkpt lat="44.03497" lon="1.92181">
        <ele>246.8</ele>
        <time>2023-07-23T07:26:51Z</time>
      </trkpt>
      <trkpt lat="44.03495" lon="1.9218">
        <ele>247</ele>
        <time>2023-07-23T07:26:52Z</time>
      </trkpt>
      <trkpt lat="44.03493" lon="1.92179">
        <ele>247.2</ele>
        <time>2023-07-23T07:26:53Z</time>
      </trkpt>
      <trkpt lat="44.03491" lon="1.92179">
        <ele>247.4</ele>
        <time>2023-07-23T07:26:54Z</time>
      </trkpt>
      <trkpt lat="44.03488" lon="1.92179">
        <ele>247.4</ele>
        <time>2023-07-23T07:26:55Z</time>
      </trkpt>
      <trkpt lat="44.03486" lon="1.92178">
        <ele>247.6</ele>
        <time>2023-07-23T07:26:56Z</time>
      </trkpt>
      <trkpt lat="44.03483" lon="1.92178">
        <ele>247.6</ele>
        <time>2023-07-23T07:26:57Z</time>
      </trkpt>
      <trkpt lat="44.03481" lon="1.92177">
        <ele>248</ele>
        <time>2023-07-23T07:26:58Z</time>
      </trkpt>
      <trkpt lat="44.03479" lon="1.92176">
        <ele>248</ele>
        <time>2023-07-23T07:26:59Z</time>
      </trkpt>
      <trkpt lat="44.03476" lon="1.92176">
        <ele>248.2</ele>
        <time>2023-07-23T07:27:00Z</time>
      </trkpt>
      <trkpt lat="44.03473" lon="1.92175">
        <ele>248.2</ele>
        <time>2023-07-23T07:27:01Z</time>
      </trkpt>
      <trkpt lat="44.0347" lon="1.92173">
        <ele>248.4</ele>
        <time>2023-07-23T07:27:02Z</time>
      </trkpt>
      <trkpt lat="44.03467" lon="1.92172">
        <ele>248.4</ele>
        <time>2023-07-23T07:27:03Z</time>
      </trkpt>
      <trkpt lat="44.03465" lon="1.9217">
        <ele>248.6</ele>
        <time>2023-07-23T07:27:04Z</time>
      </trkpt>
      <trkpt lat="44.03462" lon="1.92168">
        <ele>248.6</ele>
        <time>2023-07-23T07:27:05Z</time>
      </trkpt>
      <trkpt lat="44.03459" lon="1.92166">
        <ele>248.6</ele>
        <time>2023-07-23T07:27:06Z</time>
      </trkpt>
      <trkpt lat="44.03455" lon="1.92163">
        <ele>248.8</ele>
        <time>2023-07-23T07:27:07Z</time>
      </trkpt>
      <trkpt lat="44.03452" lon="1.92162">
        <ele>248.8</ele>
        <time>2023-07-23T07:27:08Z</time>
      </trkpt>
      <trkpt lat="44.03451" lon="1.92161">
        <ele>249</ele>
        <time>2023-07-23T07:27:09Z</time>
      </trkpt>
      <trkpt lat="44.03447" lon="1.92157">
        <ele>249</ele>
        <time>2023-07-23T07:27:10Z</time>
      </trkpt>
      <trkpt lat="44.03444" lon="1.92155">
        <ele>249</ele>
        <time>2023-07-23T07:27:11Z</time>
      </trkpt>
      <trkpt lat="44.0344" lon="1.92151">
        <ele>249.2</ele>
        <time>2023-07-23T07:27:12Z</time>
      </trkpt>
      <trkpt lat="44.03438" lon="1.92149">
        <ele>249.2</ele>
        <time>2023-07-23T07:27:13Z</time>
      </trkpt>
      <trkpt lat="44.03436" lon="1.92145">
        <ele>249.4</ele>
        <time>2023-07-23T07:27:14Z</time>
      </trkpt>
      <trkpt lat="44.03434" lon="1.92143">
        <ele>249.4</ele>
        <time>2023-07-23T07:27:15Z</time>
      </trkpt>
      <trkpt lat="44.03432" lon="1.9214">
        <ele>249.4</ele>
        <time>2023-07-23T07:27:16Z</time>
      </trkpt>
      <trkpt lat="44.03429" lon="1.92138">
        <ele>249.6</ele>
        <time>2023-07-23T07:27:17Z</time>
      </trkpt>
      <trkpt lat="44.03427" lon="1.92136">
        <ele>249.6</ele>
        <time>2023-07-23T07:27:18Z</time>
      </trkpt>
      <trkpt lat="44.03426" lon="1.92135">
        <ele>249.6</ele>
        <time>2023-07-23T07:27:19Z</time>
      </trkpt>
      <trkpt lat="44.03425" lon="1.92132">
        <ele>249.8</ele>
        <time>2023-07-23T07:27:20Z</time>
      </trkpt>
      <trkpt lat="44.03423" lon="1.9213">
        <ele>249.8</ele>
        <time>2023-07-23T07:27:21Z</time>
      </trkpt>
      <trkpt lat="44.03418" lon="1.92127">
        <ele>250</ele>
        <time>2023-07-23T07:27:23Z</time>
      </trkpt>
      <trkpt lat="44.03416" lon="1.92125">
        <ele>250</ele>
        <time>2023-07-23T07:27:24Z</time>
      </trkpt>
      <trkpt lat="44.03414" lon="1.92123">
        <ele>250.4</ele>
        <time>2023-07-23T07:27:25Z</time>
      </trkpt>
      <trkpt lat="44.03412" lon="1.92122">
        <ele>250.4</ele>
        <time>2023-07-23T07:27:26Z</time>
      </trkpt>
      <trkpt lat="44.0341" lon="1.9212">
        <ele>250.4</ele>
        <time>2023-07-23T07:27:27Z</time>
      </trkpt>
      <trkpt lat="44.03408" lon="1.92119">
        <ele>250.8</ele>
        <time>2023-07-23T07:27:28Z</time>
      </trkpt>
      <trkpt lat="44.03405" lon="1.92118">
        <ele>251</ele>
        <time>2023-07-23T07:27:29Z</time>
      </trkpt>
      <trkpt lat="44.03403" lon="1.92116">
        <ele>251.4</ele>
        <time>2023-07-23T07:27:30Z</time>
      </trkpt>
      <trkpt lat="44.034" lon="1.92115">
        <ele>251.6</ele>
        <time>2023-07-23T07:27:31Z</time>
      </trkpt>
      <trkpt lat="44.03397" lon="1.92113">
        <ele>251.6</ele>
        <time>2023-07-23T07:27:32Z</time>
      </trkpt>
      <trkpt lat="44.03393" lon="1.92112">
        <ele>251.8</ele>
        <time>2023-07-23T07:27:33Z</time>
      </trkpt>
      <trkpt lat="44.0339" lon="1.92111">
        <ele>252</ele>
        <time>2023-07-23T07:27:34Z</time>
      </trkpt>
      <trkpt lat="44.03386" lon="1.92109">
        <ele>252.2</ele>
        <time>2023-07-23T07:27:35Z</time>
      </trkpt>
      <trkpt lat="44.03384" lon="1.92108">
        <ele>252.4</ele>
        <time>2023-07-23T07:27:36Z</time>
      </trkpt>
      <trkpt lat="44.03381" lon="1.92107">
        <ele>252.8</ele>
        <time>2023-07-23T07:27:37Z</time>
      </trkpt>
      <trkpt lat="44.03378" lon="1.92107">
        <ele>252.8</ele>
        <time>2023-07-23T07:27:38Z</time>
      </trkpt>
      <trkpt lat="44.03375" lon="1.92106">
        <ele>253</ele>
        <time>2023-07-23T07:27:39Z</time>
      </trkpt>
      <trkpt lat="44.03372" lon="1.92105">
        <ele>253.2</ele>
        <time>2023-07-23T07:27:40Z</time>
      </trkpt>
      <trkpt lat="44.03369" lon="1.92105">
        <ele>253.4</ele>
        <time>2023-07-23T07:27:41Z</time>
      </trkpt>
      <trkpt lat="44.03367" lon="1.92103">
        <ele>253.6</ele>
        <time>2023-07-23T07:27:42Z</time>
      </trkpt>
      <trkpt lat="44.03365" lon="1.92103">
        <ele>253.8</ele>
        <time>2023-07-23T07:27:43Z</time>
      </trkpt>
      <trkpt lat="44.03362" lon="1.92102">
        <ele>254.2</ele>
        <time>2023-07-23T07:27:44Z</time>
      </trkpt>
      <trkpt lat="44.03358" lon="1.92102">
        <ele>254.2</ele>
        <time>2023-07-23T07:27:45Z</time>
      </trkpt>
      <trkpt lat="44.03355" lon="1.92101">
        <ele>254.4</ele>
        <time>2023-07-23T07:27:46Z</time>
      </trkpt>
      <trkpt lat="44.03353" lon="1.92101">
        <ele>254.6</ele>
        <time>2023-07-23T07:27:47Z</time>
      </trkpt>
      <trkpt lat="44.03349" lon="1.921">
        <ele>254.6</ele>
        <time>2023-07-23T07:27:48Z</time>
      </trkpt>
      <trkpt lat="44.03347" lon="1.92099">
        <ele>254.6</ele>
        <time>2023-07-23T07:27:49Z</time>
      </trkpt>
      <trkpt lat="44.03344" lon="1.92098">
        <ele>254.6</ele>
        <time>2023-07-23T07:27:50Z</time>
      </trkpt>
      <trkpt lat="44.03341" lon="1.92097">
        <ele>254.6</ele>
        <time>2023-07-23T07:27:51Z</time>
      </trkpt>
      <trkpt lat="44.03338" lon="1.92098">
        <ele>254.6</ele>
        <time>2023-07-23T07:27:52Z</time>
      </trkpt>
      <trkpt lat="44.03335" lon="1.92098">
        <ele>255.2</ele>
        <time>2023-07-23T07:27:53Z</time>
      </trkpt>
      <trkpt lat="44.03333" lon="1.921">
        <ele>255.4</ele>
        <time>2023-07-23T07:27:54Z</time>
      </trkpt>
      <trkpt lat="44.03331" lon="1.92103">
        <ele>255.8</ele>
        <time>2023-07-23T07:27:55Z</time>
      </trkpt>
      <trkpt lat="44.0333" lon="1.92107">
        <ele>256</ele>
        <time>2023-07-23T07:27:56Z</time>
      </trkpt>
      <trkpt lat="44.03328" lon="1.9211">
        <ele>256.2</ele>
        <time>2023-07-23T07:27:57Z</time>
      </trkpt>
      <trkpt lat="44.03327" lon="1.92113">
        <ele>256.2</ele>
        <time>2023-07-23T07:27:58Z</time>
      </trkpt>
      <trkpt lat="44.03325" lon="1.92115">
        <ele>256.4</ele>
        <time>2023-07-23T07:27:59Z</time>
      </trkpt>
      <trkpt lat="44.03323" lon="1.92117">
        <ele>256.6</ele>
        <time>2023-07-23T07:28:00Z</time>
      </trkpt>
      <trkpt lat="44.03322" lon="1.9212">
        <ele>256.6</ele>
        <time>2023-07-23T07:28:01Z</time>
      </trkpt>
      <trkpt lat="44.03321" lon="1.92122">
        <ele>256.8</ele>
        <time>2023-07-23T07:28:02Z</time>
      </trkpt>
      <trkpt lat="44.03319" lon="1.92125">
        <ele>257</ele>
        <time>2023-07-23T07:28:03Z</time>
      </trkpt>
      <trkpt lat="44.03317" lon="1.92127">
        <ele>257.2</ele>
        <time>2023-07-23T07:28:04Z</time>
      </trkpt>
      <trkpt lat="44.03315" lon="1.9213">
        <ele>257.2</ele>
        <time>2023-07-23T07:28:05Z</time>
      </trkpt>
      <trkpt lat="44.03313" lon="1.92132">
        <ele>257.4</ele>
        <time>2023-07-23T07:28:06Z</time>
      </trkpt>
      <trkpt lat="44.03311" lon="1.92134">
        <ele>257.4</ele>
        <time>2023-07-23T07:28:07Z</time>
      </trkpt>
      <trkpt lat="44.03309" lon="1.92137">
        <ele>257.6</ele>
        <time>2023-07-23T07:28:08Z</time>
      </trkpt>
      <trkpt lat="44.03308" lon="1.92139">
        <ele>257.8</ele>
        <time>2023-07-23T07:28:09Z</time>
      </trkpt>
      <trkpt lat="44.03306" lon="1.92142">
        <ele>257.8</ele>
        <time>2023-07-23T07:28:10Z</time>
      </trkpt>
      <trkpt lat="44.03304" lon="1.92144">
        <ele>258</ele>
        <time>2023-07-23T07:28:11Z</time>
      </trkpt>
      <trkpt lat="44.03302" lon="1.92145">
        <ele>258</ele>
        <time>2023-07-23T07:28:12Z</time>
      </trkpt>
      <trkpt lat="44.033" lon="1.92147">
        <ele>258</ele>
        <time>2023-07-23T07:28:13Z</time>
      </trkpt>
      <trkpt lat="44.03298" lon="1.9215">
        <ele>258.2</ele>
        <time>2023-07-23T07:28:14Z</time>
      </trkpt>
      <trkpt lat="44.03296" lon="1.92152">
        <ele>258.2</ele>
        <time>2023-07-23T07:28:15Z</time>
      </trkpt>
      <trkpt lat="44.03294" lon="1.92154">
        <ele>258.2</ele>
        <time>2023-07-23T07:28:16Z</time>
      </trkpt>
      <trkpt lat="44.03292" lon="1.92156">
        <ele>258.2</ele>
        <time>2023-07-23T07:28:17Z</time>
      </trkpt>
      <trkpt lat="44.0329" lon="1.92158">
        <ele>258.4</ele>
        <time>2023-07-23T07:28:18Z</time>
      </trkpt>
      <trkpt lat="44.03288" lon="1.92161">
        <ele>258.4</ele>
        <time>2023-07-23T07:28:19Z</time>
      </trkpt>
      <trkpt lat="44.03287" lon="1.92162">
        <ele>258.6</ele>
        <time>2023-07-23T07:28:20Z</time>
      </trkpt>
      <trkpt lat="44.03285" lon="1.92164">
        <ele>258.6</ele>
        <time>2023-07-23T07:28:21Z</time>
      </trkpt>
      <trkpt lat="44.03283" lon="1.92165">
        <ele>258.8</ele>
        <time>2023-07-23T07:28:22Z</time>
      </trkpt>
      <trkpt lat="44.03281" lon="1.92167">
        <ele>259</ele>
        <time>2023-07-23T07:28:23Z</time>
      </trkpt>
      <trkpt lat="44.03279" lon="1.92169">
        <ele>259.2</ele>
        <time>2023-07-23T07:28:24Z</time>
      </trkpt>
      <trkpt lat="44.03277" lon="1.92171">
        <ele>259.2</ele>
        <time>2023-07-23T07:28:25Z</time>
      </trkpt>
      <trkpt lat="44.03276" lon="1.92172">
        <ele>259.2</ele>
        <time>2023-07-23T07:28:26Z</time>
      </trkpt>
      <trkpt lat="44.03274" lon="1.92173">
        <ele>259.4</ele>
        <time>2023-07-23T07:28:27Z</time>
      </trkpt>
      <trkpt lat="44.03272" lon="1.92175">
        <ele>259.6</ele>
        <time>2023-07-23T07:28:28Z</time>
      </trkpt>
      <trkpt lat="44.03269" lon="1.92177">
        <ele>259.8</ele>
        <time>2023-07-23T07:28:29Z</time>
      </trkpt>
      <trkpt lat="44.03267" lon="1.92178">
        <ele>259.8</ele>
        <time>2023-07-23T07:28:30Z</time>
      </trkpt>
      <trkpt lat="44.03265" lon="1.9218">
        <ele>260</ele>
        <time>2023-07-23T07:28:31Z</time>
      </trkpt>
      <trkpt lat="44.03264" lon="1.92181">
        <ele>260</ele>
        <time>2023-07-23T07:28:32Z</time>
      </trkpt>
      <trkpt lat="44.03262" lon="1.92183">
        <ele>260.2</ele>
        <time>2023-07-23T07:28:33Z</time>
      </trkpt>
      <trkpt lat="44.03259" lon="1.92184">
        <ele>260.2</ele>
        <time>2023-07-23T07:28:34Z</time>
      </trkpt>
      <trkpt lat="44.03257" lon="1.92186">
        <ele>260.4</ele>
        <time>2023-07-23T07:28:35Z</time>
      </trkpt>
      <trkpt lat="44.03256" lon="1.92187">
        <ele>260.6</ele>
        <time>2023-07-23T07:28:36Z</time>
      </trkpt>
      <trkpt lat="44.03254" lon="1.92189">
        <ele>260.8</ele>
        <time>2023-07-23T07:28:37Z</time>
      </trkpt>
      <trkpt lat="44.03252" lon="1.92191">
        <ele>261</ele>
        <time>2023-07-23T07:28:38Z</time>
      </trkpt>
      <trkpt lat="44.0325" lon="1.92193">
        <ele>261.2</ele>
        <time>2023-07-23T07:28:39Z</time>
      </trkpt>
      <trkpt lat="44.03248" lon="1.92195">
        <ele>261.2</ele>
        <time>2023-07-23T07:28:40Z</time>
      </trkpt>
      <trkpt lat="44.03247" lon="1.92197">
        <ele>261.6</ele>
        <time>2023-07-23T07:28:41Z</time>
      </trkpt>
      <trkpt lat="44.03245" lon="1.92199">
        <ele>261.6</ele>
        <time>2023-07-23T07:28:42Z</time>
      </trkpt>
      <trkpt lat="44.03243" lon="1.92201">
        <ele>261.8</ele>
        <time>2023-07-23T07:28:43Z</time>
      </trkpt>
      <trkpt lat="44.03241" lon="1.92203">
        <ele>261.8</ele>
        <time>2023-07-23T07:28:44Z</time>
      </trkpt>
      <trkpt lat="44.03238" lon="1.92206">
        <ele>262</ele>
        <time>2023-07-23T07:28:45Z</time>
      </trkpt>
      <trkpt lat="44.03236" lon="1.92208">
        <ele>262</ele>
        <time>2023-07-23T07:28:46Z</time>
      </trkpt>
      <trkpt lat="44.03233" lon="1.92212">
        <ele>262.2</ele>
        <time>2023-07-23T07:28:47Z</time>
      </trkpt>
      <trkpt lat="44.03231" lon="1.92214">
        <ele>262.4</ele>
        <time>2023-07-23T07:28:48Z</time>
      </trkpt>
      <trkpt lat="44.03227" lon="1.92218">
        <ele>262.4</ele>
        <time>2023-07-23T07:28:49Z</time>
      </trkpt>
      <trkpt lat="44.03225" lon="1.92221">
        <ele>262.8</ele>
        <time>2023-07-23T07:28:50Z</time>
      </trkpt>
      <trkpt lat="44.03223" lon="1.92223">
        <ele>262.8</ele>
        <time>2023-07-23T07:28:51Z</time>
      </trkpt>
      <trkpt lat="44.03221" lon="1.92225">
        <ele>263.4</ele>
        <time>2023-07-23T07:28:52Z</time>
      </trkpt>
      <trkpt lat="44.03218" lon="1.92228">
        <ele>263.6</ele>
        <time>2023-07-23T07:28:53Z</time>
      </trkpt>
      <trkpt lat="44.03216" lon="1.92231">
        <ele>264</ele>
        <time>2023-07-23T07:28:54Z</time>
      </trkpt>
      <trkpt lat="44.03214" lon="1.92234">
        <ele>264.2</ele>
        <time>2023-07-23T07:28:55Z</time>
      </trkpt>
      <trkpt lat="44.03212" lon="1.92237">
        <ele>264.4</ele>
        <time>2023-07-23T07:28:56Z</time>
      </trkpt>
      <trkpt lat="44.03211" lon="1.9224">
        <ele>264.6</ele>
        <time>2023-07-23T07:28:57Z</time>
      </trkpt>
      <trkpt lat="44.03209" lon="1.92244">
        <ele>264.6</ele>
        <time>2023-07-23T07:28:58Z</time>
      </trkpt>
      <trkpt lat="44.03207" lon="1.92247">
        <ele>265</ele>
        <time>2023-07-23T07:28:59Z</time>
      </trkpt>
      <trkpt lat="44.03204" lon="1.9225">
        <ele>265.2</ele>
        <time>2023-07-23T07:29:00Z</time>
      </trkpt>
      <trkpt lat="44.03202" lon="1.92253">
        <ele>265.4</ele>
        <time>2023-07-23T07:29:01Z</time>
      </trkpt>
      <trkpt lat="44.032" lon="1.92256">
        <ele>265.8</ele>
        <time>2023-07-23T07:29:02Z</time>
      </trkpt>
      <trkpt lat="44.03197" lon="1.9226">
        <ele>266</ele>
        <time>2023-07-23T07:29:03Z</time>
      </trkpt>
      <trkpt lat="44.03194" lon="1.92264">
        <ele>266.2</ele>
        <time>2023-07-23T07:29:04Z</time>
      </trkpt>
      <trkpt lat="44.03192" lon="1.92267">
        <ele>266.4</ele>
        <time>2023-07-23T07:29:05Z</time>
      </trkpt>
      <trkpt lat="44.03191" lon="1.9227">
        <ele>266.8</ele>
        <time>2023-07-23T07:29:06Z</time>
      </trkpt>
      <trkpt lat="44.03189" lon="1.92275">
        <ele>267</ele>
        <time>2023-07-23T07:29:07Z</time>
      </trkpt>
      <trkpt lat="44.03188" lon="1.92279">
        <ele>267.2</ele>
        <time>2023-07-23T07:29:08Z</time>
      </trkpt>
      <trkpt lat="44.03186" lon="1.92283">
        <ele>267.4</ele>
        <time>2023-07-23T07:29:09Z</time>
      </trkpt>
      <trkpt lat="44.03185" lon="1.92288">
        <ele>267.8</ele>
        <time>2023-07-23T07:29:10Z</time>
      </trkpt>
      <trkpt lat="44.03184" lon="1.92291">
        <ele>268</ele>
        <time>2023-07-23T07:29:11Z</time>
      </trkpt>
      <trkpt lat="44.03183" lon="1.92295">
        <ele>268.2</ele>
        <time>2023-07-23T07:29:12Z</time>
      </trkpt>
      <trkpt lat="44.03182" lon="1.92299">
        <ele>268.4</ele>
        <time>2023-07-23T07:29:13Z</time>
      </trkpt>
      <trkpt lat="44.03181" lon="1.92303">
        <ele>268.6</ele>
        <time>2023-07-23T07:29:14Z</time>
      </trkpt>
      <trkpt lat="44.0318" lon="1.92306">
        <ele>268.6</ele>
        <time>2023-07-23T07:29:15Z</time>
      </trkpt>
      <trkpt lat="44.03178" lon="1.92309">
        <ele>268.8</ele>
        <time>2023-07-23T07:29:16Z</time>
      </trkpt>
      <trkpt lat="44.03177" lon="1.92314">
        <ele>269</ele>
        <time>2023-07-23T07:29:17Z</time>
      </trkpt>
      <trkpt lat="44.03175" lon="1.92317">
        <ele>269.2</ele>
        <time>2023-07-23T07:29:18Z</time>
      </trkpt>
      <trkpt lat="44.03174" lon="1.9232">
        <ele>269.2</ele>
        <time>2023-07-23T07:29:19Z</time>
      </trkpt>
      <trkpt lat="44.03173" lon="1.92323">
        <ele>269.2</ele>
        <time>2023-07-23T07:29:20Z</time>
      </trkpt>
      <trkpt lat="44.03172" lon="1.92326">
        <ele>269.2</ele>
        <time>2023-07-23T07:29:21Z</time>
      </trkpt>
      <trkpt lat="44.0317" lon="1.9233">
        <ele>269.6</ele>
        <time>2023-07-23T07:29:22Z</time>
      </trkpt>
      <trkpt lat="44.03169" lon="1.92333">
        <ele>269.6</ele>
        <time>2023-07-23T07:29:23Z</time>
      </trkpt>
      <trkpt lat="44.03168" lon="1.92335">
        <ele>270</ele>
        <time>2023-07-23T07:29:24Z</time>
      </trkpt>
      <trkpt lat="44.03167" lon="1.92339">
        <ele>270</ele>
        <time>2023-07-23T07:29:25Z</time>
      </trkpt>
      <trkpt lat="44.03166" lon="1.92343">
        <ele>270</ele>
        <time>2023-07-23T07:29:26Z</time>
      </trkpt>
      <trkpt lat="44.03165" lon="1.92347">
        <ele>270.4</ele>
        <time>2023-07-23T07:29:27Z</time>
      </trkpt>
      <trkpt lat="44.03164" lon="1.92351">
        <ele>270.4</ele>
        <time>2023-07-23T07:29:28Z</time>
      </trkpt>
      <trkpt lat="44.03163" lon="1.92353">
        <ele>270.8</ele>
        <time>2023-07-23T07:29:29Z</time>
      </trkpt>
      <trkpt lat="44.03162" lon="1.92357">
        <ele>270.8</ele>
        <time>2023-07-23T07:29:30Z</time>
      </trkpt>
      <trkpt lat="44.0316" lon="1.92361">
        <ele>271</ele>
        <time>2023-07-23T07:29:31Z</time>
      </trkpt>
      <trkpt lat="44.03159" lon="1.92367">
        <ele>271</ele>
        <time>2023-07-23T07:29:32Z</time>
      </trkpt>
      <trkpt lat="44.03158" lon="1.92371">
        <ele>271.2</ele>
        <time>2023-07-23T07:29:33Z</time>
      </trkpt>
      <trkpt lat="44.03157" lon="1.92375">
        <ele>271.2</ele>
        <time>2023-07-23T07:29:34Z</time>
      </trkpt>
      <trkpt lat="44.03156" lon="1.9238">
        <ele>271.2</ele>
        <time>2023-07-23T07:29:35Z</time>
      </trkpt>
      <trkpt lat="44.03155" lon="1.92384">
        <ele>271.4</ele>
        <time>2023-07-23T07:29:36Z</time>
      </trkpt>
      <trkpt lat="44.03154" lon="1.9239">
        <ele>271.4</ele>
        <time>2023-07-23T07:29:37Z</time>
      </trkpt>
      <trkpt lat="44.03152" lon="1.92395">
        <ele>271.6</ele>
        <time>2023-07-23T07:29:38Z</time>
      </trkpt>
      <trkpt lat="44.03151" lon="1.92399">
        <ele>271.6</ele>
        <time>2023-07-23T07:29:39Z</time>
      </trkpt>
      <trkpt lat="44.0315" lon="1.92404">
        <ele>271.6</ele>
        <time>2023-07-23T07:29:40Z</time>
      </trkpt>
      <trkpt lat="44.03149" lon="1.92409">
        <ele>271.8</ele>
        <time>2023-07-23T07:29:41Z</time>
      </trkpt>
      <trkpt lat="44.03147" lon="1.92415">
        <ele>271.8</ele>
        <time>2023-07-23T07:29:42Z</time>
      </trkpt>
      <trkpt lat="44.03146" lon="1.92421">
        <ele>271.8</ele>
        <time>2023-07-23T07:29:43Z</time>
      </trkpt>
      <trkpt lat="44.03144" lon="1.92426">
        <ele>271.8</ele>
        <time>2023-07-23T07:29:44Z</time>
      </trkpt>
      <trkpt lat="44.03143" lon="1.92432">
        <ele>271.8</ele>
        <time>2023-07-23T07:29:45Z</time>
      </trkpt>
      <trkpt lat="44.03142" lon="1.92437">
        <ele>271.8</ele>
        <time>2023-07-23T07:29:46Z</time>
      </trkpt>
      <trkpt lat="44.0314" lon="1.92443">
        <ele>271.8</ele>
        <time>2023-07-23T07:29:47Z</time>
      </trkpt>
      <trkpt lat="44.03139" lon="1.92448">
        <ele>272</ele>
        <time>2023-07-23T07:29:48Z</time>
      </trkpt>
      <trkpt lat="44.03138" lon="1.92452">
        <ele>272.4</ele>
        <time>2023-07-23T07:29:49Z</time>
      </trkpt>
      <trkpt lat="44.03137" lon="1.92457">
        <ele>272.4</ele>
        <time>2023-07-23T07:29:50Z</time>
      </trkpt>
      <trkpt lat="44.03135" lon="1.92464">
        <ele>272.8</ele>
        <time>2023-07-23T07:29:51Z</time>
      </trkpt>
      <trkpt lat="44.03134" lon="1.92469">
        <ele>272.8</ele>
        <time>2023-07-23T07:29:52Z</time>
      </trkpt>
      <trkpt lat="44.03133" lon="1.92475">
        <ele>272.8</ele>
        <time>2023-07-23T07:29:53Z</time>
      </trkpt>
      <trkpt lat="44.03132" lon="1.9248">
        <ele>272.8</ele>
        <time>2023-07-23T07:29:54Z</time>
      </trkpt>
      <trkpt lat="44.03125" lon="1.92507">
        <ele>273.2</ele>
        <time>2023-07-23T07:29:59Z</time>
      </trkpt>
      <trkpt lat="44.03121" lon="1.92523">
        <ele>273.2</ele>
        <time>2023-07-23T07:30:02Z</time>
      </trkpt>
      <trkpt lat="44.0312" lon="1.92527">
        <ele>273.6</ele>
        <time>2023-07-23T07:30:03Z</time>
      </trkpt>
      <trkpt lat="44.03119" lon="1.92532">
        <ele>273.6</ele>
        <time>2023-07-23T07:30:04Z</time>
      </trkpt>
      <trkpt lat="44.03118" lon="1.92536">
        <ele>274</ele>
        <time>2023-07-23T07:30:05Z</time>
      </trkpt>
      <trkpt lat="44.03117" lon="1.92542">
        <ele>274.2</ele>
        <time>2023-07-23T07:30:06Z</time>
      </trkpt>
      <trkpt lat="44.03115" lon="1.92546">
        <ele>274.4</ele>
        <time>2023-07-23T07:30:07Z</time>
      </trkpt>
      <trkpt lat="44.03114" lon="1.92549">
        <ele>274.4</ele>
        <time>2023-07-23T07:30:08Z</time>
      </trkpt>
      <trkpt lat="44.03112" lon="1.92551">
        <ele>274.6</ele>
        <time>2023-07-23T07:30:09Z</time>
      </trkpt>
      <trkpt lat="44.03109" lon="1.92552">
        <ele>274.6</ele>
        <time>2023-07-23T07:30:10Z</time>
      </trkpt>
      <trkpt lat="44.03107" lon="1.92552">
        <ele>274.6</ele>
        <time>2023-07-23T07:30:11Z</time>
      </trkpt>
      <trkpt lat="44.03106" lon="1.92551">
        <ele>274.8</ele>
        <time>2023-07-23T07:30:12Z</time>
      </trkpt>
      <trkpt lat="44.03105" lon="1.92549">
        <ele>274.8</ele>
        <time>2023-07-23T07:30:13Z</time>
      </trkpt>
      <trkpt lat="44.03105" lon="1.92548">
        <ele>274.8</ele>
        <time>2023-07-23T07:30:14Z</time>
      </trkpt>
      <trkpt lat="44.03105" lon="1.92546">
        <ele>274.8</ele>
        <time>2023-07-23T07:30:15Z</time>
      </trkpt>
      <trkpt lat="44.03105" lon="1.92546">
        <ele>274.8</ele>
        <time>2023-07-23T07:30:16Z</time>
      </trkpt>
      <trkpt lat="44.03105" lon="1.92546">
        <ele>274.8</ele>
        <time>2023-07-23T07:30:17Z</time>
      </trkpt>
      <trkpt lat="44.03102" lon="1.9254">
        <ele>275</ele>
        <time>2023-07-23T07:32:17Z</time>
      </trkpt>
      <trkpt lat="44.03095" lon="1.92523">
        <ele>274.4</ele>
        <time>2023-07-23T07:32:22Z</time>
      </trkpt>
      <trkpt lat="44.03081" lon="1.92494">
        <ele>273.8</ele>
        <time>2023-07-23T07:32:28Z</time>
      </trkpt>
      <trkpt lat="44.03069" lon="1.92469">
        <ele>273.2</ele>
        <time>2023-07-23T07:32:32Z</time>
      </trkpt>
      <trkpt lat="44.03062" lon="1.92455">
        <ele>272.6</ele>
        <time>2023-07-23T07:32:34Z</time>
      </trkpt>
      <trkpt lat="44.03055" lon="1.92441">
        <ele>272</ele>
        <time>2023-07-23T07:32:36Z</time>
      </trkpt>
      <trkpt lat="44.03041" lon="1.92411">
        <ele>271.2</ele>
        <time>2023-07-23T07:32:40Z</time>
      </trkpt>
      <trkpt lat="44.03037" lon="1.92404">
        <ele>270.8</ele>
        <time>2023-07-23T07:32:41Z</time>
      </trkpt>
      <trkpt lat="44.03033" lon="1.92397">
        <ele>270.8</ele>
        <time>2023-07-23T07:32:42Z</time>
      </trkpt>
      <trkpt lat="44.03014" lon="1.92366">
        <ele>270</ele>
        <time>2023-07-23T07:32:47Z</time>
      </trkpt>
      <trkpt lat="44.0301" lon="1.92361">
        <ele>270</ele>
        <time>2023-07-23T07:32:48Z</time>
      </trkpt>
      <trkpt lat="44.03007" lon="1.92357">
        <ele>269.8</ele>
        <time>2023-07-23T07:32:49Z</time>
      </trkpt>
      <trkpt lat="44.03004" lon="1.92354">
        <ele>269.6</ele>
        <time>2023-07-23T07:32:50Z</time>
      </trkpt>
      <trkpt lat="44.03003" lon="1.9235">
        <ele>269.6</ele>
        <time>2023-07-23T07:32:51Z</time>
      </trkpt>
      <trkpt lat="44.03002" lon="1.92346">
        <ele>269.4</ele>
        <time>2023-07-23T07:32:52Z</time>
      </trkpt>
      <trkpt lat="44.03002" lon="1.92342">
        <ele>269.4</ele>
        <time>2023-07-23T07:32:53Z</time>
      </trkpt>
      <trkpt lat="44.03003" lon="1.9234">
        <ele>269.4</ele>
        <time>2023-07-23T07:32:54Z</time>
      </trkpt>
      <trkpt lat="44.03004" lon="1.92337">
        <ele>269.4</ele>
        <time>2023-07-23T07:32:55Z</time>
      </trkpt>
      <trkpt lat="44.03005" lon="1.92334">
        <ele>269.4</ele>
        <time>2023-07-23T07:32:56Z</time>
      </trkpt>
      <trkpt lat="44.03006" lon="1.9233">
        <ele>269.4</ele>
        <time>2023-07-23T07:32:57Z</time>
      </trkpt>
      <trkpt lat="44.0301" lon="1.92317">
        <ele>269.4</ele>
        <time>2023-07-23T07:33:01Z</time>
      </trkpt>
      <trkpt lat="44.0301" lon="1.92314">
        <ele>269.4</ele>
        <time>2023-07-23T07:33:02Z</time>
      </trkpt>
      <trkpt lat="44.03011" lon="1.92311">
        <ele>269.6</ele>
        <time>2023-07-23T07:33:03Z</time>
      </trkpt>
      <trkpt lat="44.03013" lon="1.92305">
        <ele>269.8</ele>
        <time>2023-07-23T07:33:05Z</time>
      </trkpt>
      <trkpt lat="44.03016" lon="1.92296">
        <ele>270.2</ele>
        <time>2023-07-23T07:33:08Z</time>
      </trkpt>
      <trkpt lat="44.03017" lon="1.92292">
        <ele>270.2</ele>
        <time>2023-07-23T07:33:09Z</time>
      </trkpt>
      <trkpt lat="44.03018" lon="1.92285">
        <ele>270.6</ele>
        <time>2023-07-23T07:33:11Z</time>
      </trkpt>
      <trkpt lat="44.03018" lon="1.92282">
        <ele>270.8</ele>
        <time>2023-07-23T07:33:12Z</time>
      </trkpt>
      <trkpt lat="44.03019" lon="1.92279">
        <ele>271</ele>
        <time>2023-07-23T07:33:13Z</time>
      </trkpt>
      <trkpt lat="44.03019" lon="1.92276">
        <ele>271</ele>
        <time>2023-07-23T07:33:14Z</time>
      </trkpt>
      <trkpt lat="44.0302" lon="1.92273">
        <ele>271.2</ele>
        <time>2023-07-23T07:33:15Z</time>
      </trkpt>
      <trkpt lat="44.0302" lon="1.9227">
        <ele>271.2</ele>
        <time>2023-07-23T07:33:16Z</time>
      </trkpt>
      <trkpt lat="44.03021" lon="1.92268">
        <ele>271.4</ele>
        <time>2023-07-23T07:33:17Z</time>
      </trkpt>
      <trkpt lat="44.03021" lon="1.92265">
        <ele>271.4</ele>
        <time>2023-07-23T07:33:18Z</time>
      </trkpt>
      <trkpt lat="44.03022" lon="1.92262">
        <ele>271.6</ele>
        <time>2023-07-23T07:33:19Z</time>
      </trkpt>
      <trkpt lat="44.03022" lon="1.92259">
        <ele>271.6</ele>
        <time>2023-07-23T07:33:20Z</time>
      </trkpt>
      <trkpt lat="44.03023" lon="1.92255">
        <ele>271.8</ele>
        <time>2023-07-23T07:33:21Z</time>
      </trkpt>
      <trkpt lat="44.03024" lon="1.92251">
        <ele>272</ele>
        <time>2023-07-23T07:33:22Z</time>
      </trkpt>
      <trkpt lat="44.03028" lon="1.92229">
        <ele>272.6</ele>
        <time>2023-07-23T07:33:29Z</time>
      </trkpt>
      <trkpt lat="44.0303" lon="1.92214">
        <ele>272.8</ele>
        <time>2023-07-23T07:33:33Z</time>
      </trkpt>
      <trkpt lat="44.0303" lon="1.92208">
        <ele>273</ele>
        <time>2023-07-23T07:33:35Z</time>
      </trkpt>
      <trkpt lat="44.03031" lon="1.92202">
        <ele>273</ele>
        <time>2023-07-23T07:33:37Z</time>
      </trkpt>
      <trkpt lat="44.03035" lon="1.92174">
        <ele>273.6</ele>
        <time>2023-07-23T07:33:45Z</time>
      </trkpt>
      <trkpt lat="44.03037" lon="1.92159">
        <ele>274</ele>
        <time>2023-07-23T07:33:49Z</time>
      </trkpt>
      <trkpt lat="44.0304" lon="1.92136">
        <ele>274.2</ele>
        <time>2023-07-23T07:33:55Z</time>
      </trkpt>
      <trkpt lat="44.03043" lon="1.92109">
        <ele>275</ele>
        <time>2023-07-23T07:34:02Z</time>
      </trkpt>
      <trkpt lat="44.03045" lon="1.92093">
        <ele>275.2</ele>
        <time>2023-07-23T07:34:06Z</time>
      </trkpt>
      <trkpt lat="44.03044" lon="1.92082">
        <ele>275.4</ele>
        <time>2023-07-23T07:34:09Z</time>
      </trkpt>
      <trkpt lat="44.03042" lon="1.92079">
        <ele>275.6</ele>
        <time>2023-07-23T07:34:10Z</time>
      </trkpt>
      <trkpt lat="44.0304" lon="1.92077">
        <ele>275.6</ele>
        <time>2023-07-23T07:34:11Z</time>
      </trkpt>
      <trkpt lat="44.03038" lon="1.92074">
        <ele>275.6</ele>
        <time>2023-07-23T07:34:12Z</time>
      </trkpt>
      <trkpt lat="44.03036" lon="1.92072">
        <ele>275.8</ele>
        <time>2023-07-23T07:34:13Z</time>
      </trkpt>
      <trkpt lat="44.03034" lon="1.92069">
        <ele>276</ele>
        <time>2023-07-23T07:34:14Z</time>
      </trkpt>
      <trkpt lat="44.03033" lon="1.92067">
        <ele>276</ele>
        <time>2023-07-23T07:34:15Z</time>
      </trkpt>
      <trkpt lat="44.03032" lon="1.92066">
        <ele>276.2</ele>
        <time>2023-07-23T07:34:16Z</time>
      </trkpt>
      <trkpt lat="44.03031" lon="1.92064">
        <ele>276.2</ele>
        <time>2023-07-23T07:34:17Z</time>
      </trkpt>
      <trkpt lat="44.0303" lon="1.92063">
        <ele>276.2</ele>
        <time>2023-07-23T07:34:18Z</time>
      </trkpt>
      <trkpt lat="44.0303" lon="1.92063">
        <ele>276.2</ele>
        <time>2023-07-23T07:34:20Z</time>
      </trkpt>
      <trkpt lat="44.03026" lon="1.92057">
        <ele>275.8</ele>
        <time>2023-07-23T07:34:40Z</time>
      </trkpt>
      <trkpt lat="44.03021" lon="1.92049">
        <ele>275.6</ele>
        <time>2023-07-23T07:34:42Z</time>
      </trkpt>
      <trkpt lat="44.03005" lon="1.92023">
        <ele>275.6</ele>
        <time>2023-07-23T07:34:47Z</time>
      </trkpt>
      <trkpt lat="44.0299" lon="1.91997">
        <ele>274.8</ele>
        <time>2023-07-23T07:34:51Z</time>
      </trkpt>
      <trkpt lat="44.02983" lon="1.91983">
        <ele>274.6</ele>
        <time>2023-07-23T07:34:53Z</time>
      </trkpt>
      <trkpt lat="44.0297" lon="1.91961">
        <ele>273.8</ele>
        <time>2023-07-23T07:34:56Z</time>
      </trkpt>
      <trkpt lat="44.02956" lon="1.91938">
        <ele>273.4</ele>
        <time>2023-07-23T07:34:59Z</time>
      </trkpt>
      <trkpt lat="44.02938" lon="1.91913">
        <ele>272.6</ele>
        <time>2023-07-23T07:35:02Z</time>
      </trkpt>
      <trkpt lat="44.02926" lon="1.91892">
        <ele>271.8</ele>
        <time>2023-07-23T07:35:04Z</time>
      </trkpt>
      <trkpt lat="44.02921" lon="1.9188">
        <ele>271.6</ele>
        <time>2023-07-23T07:35:05Z</time>
      </trkpt>
      <trkpt lat="44.0291" lon="1.91857">
        <ele>270</ele>
        <time>2023-07-23T07:35:07Z</time>
      </trkpt>
      <trkpt lat="44.02901" lon="1.91834">
        <ele>267.8</ele>
        <time>2023-07-23T07:35:09Z</time>
      </trkpt>
      <trkpt lat="44.02896" lon="1.91822">
        <ele>267.4</ele>
        <time>2023-07-23T07:35:10Z</time>
      </trkpt>
      <trkpt lat="44.02891" lon="1.91811">
        <ele>266.6</ele>
        <time>2023-07-23T07:35:11Z</time>
      </trkpt>
      <trkpt lat="44.02887" lon="1.918">
        <ele>266.4</ele>
        <time>2023-07-23T07:35:12Z</time>
      </trkpt>
      <trkpt lat="44.02884" lon="1.9179">
        <ele>266</ele>
        <time>2023-07-23T07:35:13Z</time>
      </trkpt>
      <trkpt lat="44.0288" lon="1.9178">
        <ele>265.6</ele>
        <time>2023-07-23T07:35:14Z</time>
      </trkpt>
      <trkpt lat="44.02878" lon="1.91773">
        <ele>265.2</ele>
        <time>2023-07-23T07:35:15Z</time>
      </trkpt>
      <trkpt lat="44.02875" lon="1.91766">
        <ele>265.2</ele>
        <time>2023-07-23T07:35:16Z</time>
      </trkpt>
      <trkpt lat="44.02873" lon="1.9176">
        <ele>265</ele>
        <time>2023-07-23T07:35:17Z</time>
      </trkpt>
      <trkpt lat="44.02871" lon="1.91755">
        <ele>264.8</ele>
        <time>2023-07-23T07:35:18Z</time>
      </trkpt>
      <trkpt lat="44.02869" lon="1.9175">
        <ele>264.8</ele>
        <time>2023-07-23T07:35:19Z</time>
      </trkpt>
      <trkpt lat="44.02867" lon="1.91745">
        <ele>265</ele>
        <time>2023-07-23T07:35:20Z</time>
      </trkpt>
      <trkpt lat="44.02865" lon="1.91742">
        <ele>264.8</ele>
        <time>2023-07-23T07:35:21Z</time>
      </trkpt>
      <trkpt lat="44.02863" lon="1.91738">
        <ele>265.2</ele>
        <time>2023-07-23T07:35:22Z</time>
      </trkpt>
      <trkpt lat="44.02861" lon="1.91734">
        <ele>265.4</ele>
        <time>2023-07-23T07:35:23Z</time>
      </trkpt>
      <trkpt lat="44.02859" lon="1.9173">
        <ele>265.6</ele>
        <time>2023-07-23T07:35:24Z</time>
      </trkpt>
      <trkpt lat="44.02857" lon="1.91725">
        <ele>266</ele>
        <time>2023-07-23T07:35:25Z</time>
      </trkpt>
      <trkpt lat="44.02856" lon="1.9172">
        <ele>266.2</ele>
        <time>2023-07-23T07:35:26Z</time>
      </trkpt>
      <trkpt lat="44.0285" lon="1.91707">
        <ele>267.4</ele>
        <time>2023-07-23T07:35:29Z</time>
      </trkpt>
      <trkpt lat="44.02848" lon="1.91702">
        <ele>267.8</ele>
        <time>2023-07-23T07:35:30Z</time>
      </trkpt>
      <trkpt lat="44.02842" lon="1.91688">
        <ele>268.8</ele>
        <time>2023-07-23T07:35:33Z</time>
      </trkpt>
      <trkpt lat="44.02835" lon="1.91673">
        <ele>270.2</ele>
        <time>2023-07-23T07:35:36Z</time>
      </trkpt>
      <trkpt lat="44.02828" lon="1.91655">
        <ele>271.4</ele>
        <time>2023-07-23T07:35:39Z</time>
      </trkpt>
      <trkpt lat="44.02826" lon="1.91651">
        <ele>272</ele>
        <time>2023-07-23T07:35:41Z</time>
      </trkpt>
      <trkpt lat="44.02822" lon="1.91643">
        <ele>272</ele>
        <time>2023-07-23T07:35:42Z</time>
      </trkpt>
      <trkpt lat="44.0282" lon="1.9164">
        <ele>272.2</ele>
        <time>2023-07-23T07:35:43Z</time>
      </trkpt>
      <trkpt lat="44.02819" lon="1.91636">
        <ele>272.4</ele>
        <time>2023-07-23T07:35:44Z</time>
      </trkpt>
      <trkpt lat="44.02819" lon="1.91636">
        <ele>272.6</ele>
        <time>2023-07-23T07:35:45Z</time>
      </trkpt>
      <trkpt lat="44.02817" lon="1.91633">
        <ele>272.8</ele>
        <time>2023-07-23T07:35:46Z</time>
      </trkpt>
      <trkpt lat="44.02813" lon="1.91625">
        <ele>273</ele>
        <time>2023-07-23T07:35:47Z</time>
      </trkpt>
      <trkpt lat="44.02813" lon="1.91625">
        <ele>273.2</ele>
        <time>2023-07-23T07:35:48Z</time>
      </trkpt>
      <trkpt lat="44.0281" lon="1.91616">
        <ele>273.2</ele>
        <time>2023-07-23T07:35:49Z</time>
      </trkpt>
      <trkpt lat="44.02808" lon="1.91612">
        <ele>273.4</ele>
        <time>2023-07-23T07:35:50Z</time>
      </trkpt>
      <trkpt lat="44.02807" lon="1.91607">
        <ele>273.4</ele>
        <time>2023-07-23T07:35:51Z</time>
      </trkpt>
      <trkpt lat="44.02805" lon="1.91601">
        <ele>273.4</ele>
        <time>2023-07-23T07:35:52Z</time>
      </trkpt>
      <trkpt lat="44.02804" lon="1.91596">
        <ele>273.4</ele>
        <time>2023-07-23T07:35:53Z</time>
      </trkpt>
      <trkpt lat="44.02803" lon="1.91591">
        <ele>273.6</ele>
        <time>2023-07-23T07:35:54Z</time>
      </trkpt>
      <trkpt lat="44.02802" lon="1.91585">
        <ele>273.6</ele>
        <time>2023-07-23T07:35:55Z</time>
      </trkpt>
      <trkpt lat="44.02801" lon="1.9158">
        <ele>273.6</ele>
        <time>2023-07-23T07:35:56Z</time>
      </trkpt>
      <trkpt lat="44.028" lon="1.91575">
        <ele>273.6</ele>
        <time>2023-07-23T07:35:57Z</time>
      </trkpt>
      <trkpt lat="44.02799" lon="1.9157">
        <ele>273.6</ele>
        <time>2023-07-23T07:35:58Z</time>
      </trkpt>
      <trkpt lat="44.02799" lon="1.9157">
        <ele>273.8</ele>
        <time>2023-07-23T07:35:59Z</time>
      </trkpt>
      <trkpt lat="44.02796" lon="1.91559">
        <ele>273.8</ele>
        <time>2023-07-23T07:36:00Z</time>
      </trkpt>
      <trkpt lat="44.02794" lon="1.91554">
        <ele>273.8</ele>
        <time>2023-07-23T07:36:01Z</time>
      </trkpt>
      <trkpt lat="44.02794" lon="1.91554">
        <ele>273.8</ele>
        <time>2023-07-23T07:36:02Z</time>
      </trkpt>
      <trkpt lat="44.02792" lon="1.91544">
        <ele>273.8</ele>
        <time>2023-07-23T07:36:03Z</time>
      </trkpt>
      <trkpt lat="44.0279" lon="1.91539">
        <ele>274</ele>
        <time>2023-07-23T07:36:04Z</time>
      </trkpt>
      <trkpt lat="44.02789" lon="1.91534">
        <ele>274</ele>
        <time>2023-07-23T07:36:05Z</time>
      </trkpt>
      <trkpt lat="44.02788" lon="1.91529">
        <ele>274</ele>
        <time>2023-07-23T07:36:06Z</time>
      </trkpt>
      <trkpt lat="44.02786" lon="1.91524">
        <ele>274</ele>
        <time>2023-07-23T07:36:07Z</time>
      </trkpt>
      <trkpt lat="44.02785" lon="1.91518">
        <ele>274</ele>
        <time>2023-07-23T07:36:08Z</time>
      </trkpt>
      <trkpt lat="44.02783" lon="1.91514">
        <ele>274.2</ele>
        <time>2023-07-23T07:36:09Z</time>
      </trkpt>
      <trkpt lat="44.02783" lon="1.91514">
        <ele>274.2</ele>
        <time>2023-07-23T07:36:10Z</time>
      </trkpt>
      <trkpt lat="44.02779" lon="1.91505">
        <ele>274.2</ele>
        <time>2023-07-23T07:36:11Z</time>
      </trkpt>
      <trkpt lat="44.02777" lon="1.91502">
        <ele>274.4</ele>
        <time>2023-07-23T07:36:12Z</time>
      </trkpt>
      <trkpt lat="44.02771" lon="1.91497">
        <ele>274.4</ele>
        <time>2023-07-23T07:36:14Z</time>
      </trkpt>
      <trkpt lat="44.02767" lon="1.91495">
        <ele>274.4</ele>
        <time>2023-07-23T07:36:15Z</time>
      </trkpt>
      <trkpt lat="44.02763" lon="1.91494">
        <ele>274.4</ele>
        <time>2023-07-23T07:36:16Z</time>
      </trkpt>
      <trkpt lat="44.02759" lon="1.91493">
        <ele>274.6</ele>
        <time>2023-07-23T07:36:17Z</time>
      </trkpt>
      <trkpt lat="44.02755" lon="1.91493">
        <ele>274.8</ele>
        <time>2023-07-23T07:36:18Z</time>
      </trkpt>
      <trkpt lat="44.02747" lon="1.91492">
        <ele>275</ele>
        <time>2023-07-23T07:36:20Z</time>
      </trkpt>
      <trkpt lat="44.02712" lon="1.91496">
        <ele>275</ele>
        <time>2023-07-23T07:36:27Z</time>
      </trkpt>
      <trkpt lat="44.02669" lon="1.915">
        <ele>273.8</ele>
        <time>2023-07-23T07:36:35Z</time>
      </trkpt>
      <trkpt lat="44.0266" lon="1.91497">
        <ele>273.6</ele>
        <time>2023-07-23T07:36:37Z</time>
      </trkpt>
      <trkpt lat="44.02655" lon="1.91495">
        <ele>273.4</ele>
        <time>2023-07-23T07:36:38Z</time>
      </trkpt>
      <trkpt lat="44.02651" lon="1.91493">
        <ele>273.4</ele>
        <time>2023-07-23T07:36:39Z</time>
      </trkpt>
      <trkpt lat="44.02647" lon="1.91491">
        <ele>273.2</ele>
        <time>2023-07-23T07:36:40Z</time>
      </trkpt>
      <trkpt lat="44.02644" lon="1.91488">
        <ele>273.2</ele>
        <time>2023-07-23T07:36:41Z</time>
      </trkpt>
      <trkpt lat="44.02644" lon="1.91488">
        <ele>273.2</ele>
        <time>2023-07-23T07:36:42Z</time>
      </trkpt>
      <trkpt lat="44.02636" lon="1.91482">
        <ele>273</ele>
        <time>2023-07-23T07:36:43Z</time>
      </trkpt>
      <trkpt lat="44.02628" lon="1.91477">
        <ele>273</ele>
        <time>2023-07-23T07:36:46Z</time>
      </trkpt>
      <trkpt lat="44.02625" lon="1.91475">
        <ele>273</ele>
        <time>2023-07-23T07:36:47Z</time>
      </trkpt>
      <trkpt lat="44.02617" lon="1.91471">
        <ele>273</ele>
        <time>2023-07-23T07:36:48Z</time>
      </trkpt>
      <trkpt lat="44.02613" lon="1.91469">
        <ele>273</ele>
        <time>2023-07-23T07:36:49Z</time>
      </trkpt>
      <trkpt lat="44.0261" lon="1.91467">
        <ele>273</ele>
        <time>2023-07-23T07:36:50Z</time>
      </trkpt>
      <trkpt lat="44.026" lon="1.91461">
        <ele>273.4</ele>
        <time>2023-07-23T07:36:53Z</time>
      </trkpt>
      <trkpt lat="44.02596" lon="1.91459">
        <ele>273.6</ele>
        <time>2023-07-23T07:36:54Z</time>
      </trkpt>
      <trkpt lat="44.02593" lon="1.91458">
        <ele>273.8</ele>
        <time>2023-07-23T07:36:55Z</time>
      </trkpt>
      <trkpt lat="44.0259" lon="1.91456">
        <ele>274</ele>
        <time>2023-07-23T07:36:56Z</time>
      </trkpt>
      <trkpt lat="44.02587" lon="1.91454">
        <ele>274</ele>
        <time>2023-07-23T07:36:57Z</time>
      </trkpt>
      <trkpt lat="44.02583" lon="1.91452">
        <ele>274</ele>
        <time>2023-07-23T07:36:58Z</time>
      </trkpt>
      <trkpt lat="44.0258" lon="1.91451">
        <ele>274</ele>
        <time>2023-07-23T07:36:59Z</time>
      </trkpt>
      <trkpt lat="44.02576" lon="1.91449">
        <ele>274</ele>
        <time>2023-07-23T07:37:00Z</time>
      </trkpt>
      <trkpt lat="44.02576" lon="1.91449">
        <ele>274.2</ele>
        <time>2023-07-23T07:37:01Z</time>
      </trkpt>
      <trkpt lat="44.02569" lon="1.91447">
        <ele>274.2</ele>
        <time>2023-07-23T07:37:02Z</time>
      </trkpt>
      <trkpt lat="44.02565" lon="1.91446">
        <ele>274.2</ele>
        <time>2023-07-23T07:37:03Z</time>
      </trkpt>
      <trkpt lat="44.0256" lon="1.91446">
        <ele>274.2</ele>
        <time>2023-07-23T07:37:04Z</time>
      </trkpt>
      <trkpt lat="44.02538" lon="1.91444">
        <ele>274</ele>
        <time>2023-07-23T07:37:08Z</time>
      </trkpt>
      <trkpt lat="44.02503" lon="1.91439">
        <ele>273.6</ele>
        <time>2023-07-23T07:37:12Z</time>
      </trkpt>
      <trkpt lat="44.02481" lon="1.91436">
        <ele>272.4</ele>
        <time>2023-07-23T07:37:14Z</time>
      </trkpt>
      <trkpt lat="44.02457" lon="1.91432">
        <ele>271</ele>
        <time>2023-07-23T07:37:16Z</time>
      </trkpt>
      <trkpt lat="44.02446" lon="1.91431">
        <ele>270.2</ele>
        <time>2023-07-23T07:37:17Z</time>
      </trkpt>
      <trkpt lat="44.02435" lon="1.91429">
        <ele>269.8</ele>
        <time>2023-07-23T07:37:18Z</time>
      </trkpt>
      <trkpt lat="44.02425" lon="1.91427">
        <ele>269</ele>
        <time>2023-07-23T07:37:19Z</time>
      </trkpt>
      <trkpt lat="44.02415" lon="1.91426">
        <ele>268.4</ele>
        <time>2023-07-23T07:37:20Z</time>
      </trkpt>
      <trkpt lat="44.02406" lon="1.91424">
        <ele>266.8</ele>
        <time>2023-07-23T07:37:21Z</time>
      </trkpt>
      <trkpt lat="44.02397" lon="1.91422">
        <ele>266</ele>
        <time>2023-07-23T07:37:22Z</time>
      </trkpt>
      <trkpt lat="44.02388" lon="1.91421">
        <ele>264.2</ele>
        <time>2023-07-23T07:37:23Z</time>
      </trkpt>
      <trkpt lat="44.02379" lon="1.91419">
        <ele>263</ele>
        <time>2023-07-23T07:37:24Z</time>
      </trkpt>
      <trkpt lat="44.02371" lon="1.91417">
        <ele>260.8</ele>
        <time>2023-07-23T07:37:25Z</time>
      </trkpt>
      <trkpt lat="44.02371" lon="1.91417">
        <ele>258.8</ele>
        <time>2023-07-23T07:37:26Z</time>
      </trkpt>
      <trkpt lat="44.02356" lon="1.91415">
        <ele>258</ele>
        <time>2023-07-23T07:37:27Z</time>
      </trkpt>
      <trkpt lat="44.02349" lon="1.91414">
        <ele>256.4</ele>
        <time>2023-07-23T07:37:28Z</time>
      </trkpt>
      <trkpt lat="44.02343" lon="1.91412">
        <ele>255.6</ele>
        <time>2023-07-23T07:37:29Z</time>
      </trkpt>
      <trkpt lat="44.02339" lon="1.91409">
        <ele>254</ele>
        <time>2023-07-23T07:37:30Z</time>
      </trkpt>
      <trkpt lat="44.02339" lon="1.91409">
        <ele>252.8</ele>
        <time>2023-07-23T07:37:31Z</time>
      </trkpt>
      <trkpt lat="44.02333" lon="1.91404">
        <ele>251.4</ele>
        <time>2023-07-23T07:37:32Z</time>
      </trkpt>
      <trkpt lat="44.02332" lon="1.91402">
        <ele>250.4</ele>
        <time>2023-07-23T07:37:33Z</time>
      </trkpt>
      <trkpt lat="44.0233" lon="1.91401">
        <ele>250</ele>
        <time>2023-07-23T07:37:34Z</time>
      </trkpt>
      <trkpt lat="44.02329" lon="1.914">
        <ele>249.2</ele>
        <time>2023-07-23T07:37:35Z</time>
      </trkpt>
      <trkpt lat="44.02327" lon="1.91399">
        <ele>249</ele>
        <time>2023-07-23T07:37:36Z</time>
      </trkpt>
      <trkpt lat="44.02326" lon="1.91398">
        <ele>248.4</ele>
        <time>2023-07-23T07:37:37Z</time>
      </trkpt>
      <trkpt lat="44.02324" lon="1.91398">
        <ele>248.2</ele>
        <time>2023-07-23T07:37:38Z</time>
      </trkpt>
      <trkpt lat="44.02321" lon="1.91395">
        <ele>247.8</ele>
        <time>2023-07-23T07:37:40Z</time>
      </trkpt>
      <trkpt lat="44.0232" lon="1.91394">
        <ele>247.6</ele>
        <time>2023-07-23T07:37:41Z</time>
      </trkpt>
      <trkpt lat="44.02318" lon="1.91394">
        <ele>247.4</ele>
        <time>2023-07-23T07:37:42Z</time>
      </trkpt>
      <trkpt lat="44.02316" lon="1.91393">
        <ele>247.2</ele>
        <time>2023-07-23T07:37:43Z</time>
      </trkpt>
      <trkpt lat="44.02315" lon="1.91393">
        <ele>247</ele>
        <time>2023-07-23T07:37:45Z</time>
      </trkpt>
      <trkpt lat="44.02303" lon="1.91387">
        <ele>246.4</ele>
        <time>2023-07-23T07:37:52Z</time>
      </trkpt>
      <trkpt lat="44.02303" lon="1.91387">
        <ele>246.4</ele>
        <time>2023-07-23T07:37:53Z</time>
      </trkpt>
      <trkpt lat="44.02303" lon="1.91387">
        <ele>246.4</ele>
        <time>2023-07-23T07:37:54Z</time>
      </trkpt>
      <trkpt lat="44.02303" lon="1.91387">
        <ele>246.4</ele>
        <time>2023-07-23T07:37:55Z</time>
      </trkpt>
      <trkpt lat="44.02299" lon="1.91386">
        <ele>246</ele>
        <time>2023-07-23T07:38:07Z</time>
      </trkpt>
      <trkpt lat="44.02297" lon="1.91386">
        <ele>246</ele>
        <time>2023-07-23T07:38:08Z</time>
      </trkpt>
      <trkpt lat="44.02282" lon="1.91379">
        <ele>245.8</ele>
        <time>2023-07-23T07:38:13Z</time>
      </trkpt>
      <trkpt lat="44.02269" lon="1.91367">
        <ele>245.6</ele>
        <time>2023-07-23T07:38:17Z</time>
      </trkpt>
      <trkpt lat="44.02266" lon="1.91363">
        <ele>245.6</ele>
        <time>2023-07-23T07:38:18Z</time>
      </trkpt>
      <trkpt lat="44.02259" lon="1.91355">
        <ele>245.4</ele>
        <time>2023-07-23T07:38:20Z</time>
      </trkpt>
      <trkpt lat="44.02251" lon="1.91343">
        <ele>245</ele>
        <time>2023-07-23T07:38:23Z</time>
      </trkpt>
      <trkpt lat="44.02245" lon="1.91335">
        <ele>244.8</ele>
        <time>2023-07-23T07:38:25Z</time>
      </trkpt>
      <trkpt lat="44.02238" lon="1.91326">
        <ele>244.8</ele>
        <time>2023-07-23T07:38:27Z</time>
      </trkpt>
      <trkpt lat="44.02235" lon="1.91322">
        <ele>244.8</ele>
        <time>2023-07-23T07:38:28Z</time>
      </trkpt>
      <trkpt lat="44.02216" lon="1.91302">
        <ele>244.2</ele>
        <time>2023-07-23T07:38:33Z</time>
      </trkpt>
      <trkpt lat="44.02211" lon="1.91297">
        <ele>243.8</ele>
        <time>2023-07-23T07:38:34Z</time>
      </trkpt>
      <trkpt lat="44.02191" lon="1.9128">
        <ele>243</ele>
        <time>2023-07-23T07:38:39Z</time>
      </trkpt>
      <trkpt lat="44.02181" lon="1.91275">
        <ele>242.6</ele>
        <time>2023-07-23T07:38:41Z</time>
      </trkpt>
      <trkpt lat="44.02167" lon="1.91269">
        <ele>242.2</ele>
        <time>2023-07-23T07:38:44Z</time>
      </trkpt>
      <trkpt lat="44.02162" lon="1.91268">
        <ele>242</ele>
        <time>2023-07-23T07:38:45Z</time>
      </trkpt>
      <trkpt lat="44.02158" lon="1.91267">
        <ele>242</ele>
        <time>2023-07-23T07:38:46Z</time>
      </trkpt>
      <trkpt lat="44.02155" lon="1.91266">
        <ele>241.8</ele>
        <time>2023-07-23T07:38:47Z</time>
      </trkpt>
      <trkpt lat="44.02152" lon="1.91266">
        <ele>241.8</ele>
        <time>2023-07-23T07:38:48Z</time>
      </trkpt>
      <trkpt lat="44.02148" lon="1.91265">
        <ele>241.6</ele>
        <time>2023-07-23T07:38:49Z</time>
      </trkpt>
      <trkpt lat="44.02144" lon="1.91264">
        <ele>241.4</ele>
        <time>2023-07-23T07:38:50Z</time>
      </trkpt>
      <trkpt lat="44.02141" lon="1.91264">
        <ele>241.4</ele>
        <time>2023-07-23T07:38:51Z</time>
      </trkpt>
      <trkpt lat="44.02134" lon="1.91262">
        <ele>241.2</ele>
        <time>2023-07-23T07:38:53Z</time>
      </trkpt>
      <trkpt lat="44.0213" lon="1.9126">
        <ele>241</ele>
        <time>2023-07-23T07:38:54Z</time>
      </trkpt>
      <trkpt lat="44.02127" lon="1.91259">
        <ele>240.8</ele>
        <time>2023-07-23T07:38:55Z</time>
      </trkpt>
      <trkpt lat="44.02124" lon="1.91257">
        <ele>240.8</ele>
        <time>2023-07-23T07:38:56Z</time>
      </trkpt>
      <trkpt lat="44.02121" lon="1.91256">
        <ele>240.8</ele>
        <time>2023-07-23T07:38:57Z</time>
      </trkpt>
      <trkpt lat="44.02121" lon="1.91256">
        <ele>240.6</ele>
        <time>2023-07-23T07:38:58Z</time>
      </trkpt>
      <trkpt lat="44.02116" lon="1.91253">
        <ele>240.4</ele>
        <time>2023-07-23T07:38:59Z</time>
      </trkpt>
      <trkpt lat="44.02114" lon="1.91253">
        <ele>240.4</ele>
        <time>2023-07-23T07:39:00Z</time>
      </trkpt>
      <trkpt lat="44.02112" lon="1.91252">
        <ele>240.2</ele>
        <time>2023-07-23T07:39:01Z</time>
      </trkpt>
      <trkpt lat="44.02109" lon="1.91252">
        <ele>240</ele>
        <time>2023-07-23T07:39:02Z</time>
      </trkpt>
      <trkpt lat="44.02107" lon="1.9125">
        <ele>239.8</ele>
        <time>2023-07-23T07:39:03Z</time>
      </trkpt>
      <trkpt lat="44.021" lon="1.91248">
        <ele>239.4</ele>
        <time>2023-07-23T07:39:05Z</time>
      </trkpt>
      <trkpt lat="44.02095" lon="1.91245">
        <ele>239.2</ele>
        <time>2023-07-23T07:39:07Z</time>
      </trkpt>
      <trkpt lat="44.02085" lon="1.91238">
        <ele>238.2</ele>
        <time>2023-07-23T07:39:10Z</time>
      </trkpt>
      <trkpt lat="44.02078" lon="1.91231">
        <ele>238</ele>
        <time>2023-07-23T07:39:12Z</time>
      </trkpt>
      <trkpt lat="44.02072" lon="1.91222">
        <ele>237.2</ele>
        <time>2023-07-23T07:39:14Z</time>
      </trkpt>
      <trkpt lat="44.02071" lon="1.91218">
        <ele>237</ele>
        <time>2023-07-23T07:39:15Z</time>
      </trkpt>
      <trkpt lat="44.02069" lon="1.91212">
        <ele>236.8</ele>
        <time>2023-07-23T07:39:16Z</time>
      </trkpt>
      <trkpt lat="44.02067" lon="1.91208">
        <ele>236.6</ele>
        <time>2023-07-23T07:39:17Z</time>
      </trkpt>
      <trkpt lat="44.02064" lon="1.91193">
        <ele>235.8</ele>
        <time>2023-07-23T07:39:20Z</time>
      </trkpt>
      <trkpt lat="44.02063" lon="1.91183">
        <ele>235.6</ele>
        <time>2023-07-23T07:39:22Z</time>
      </trkpt>
      <trkpt lat="44.02061" lon="1.91177">
        <ele>235.4</ele>
        <time>2023-07-23T07:39:23Z</time>
      </trkpt>
      <trkpt lat="44.02059" lon="1.91172">
        <ele>235.4</ele>
        <time>2023-07-23T07:39:24Z</time>
      </trkpt>
      <trkpt lat="44.02056" lon="1.91166">
        <ele>235.4</ele>
        <time>2023-07-23T07:39:25Z</time>
      </trkpt>
      <trkpt lat="44.02054" lon="1.9116">
        <ele>235.4</ele>
        <time>2023-07-23T07:39:26Z</time>
      </trkpt>
      <trkpt lat="44.0205" lon="1.91151">
        <ele>235.2</ele>
        <time>2023-07-23T07:39:28Z</time>
      </trkpt>
      <trkpt lat="44.02047" lon="1.91145">
        <ele>235.2</ele>
        <time>2023-07-23T07:39:29Z</time>
      </trkpt>
      <trkpt lat="44.02045" lon="1.91136">
        <ele>235.2</ele>
        <time>2023-07-23T07:39:30Z</time>
      </trkpt>
      <trkpt lat="44.02043" lon="1.91132">
        <ele>235.2</ele>
        <time>2023-07-23T07:39:31Z</time>
      </trkpt>
      <trkpt lat="44.02039" lon="1.91128">
        <ele>235</ele>
        <time>2023-07-23T07:39:32Z</time>
      </trkpt>
      <trkpt lat="44.02032" lon="1.91119">
        <ele>235</ele>
        <time>2023-07-23T07:39:35Z</time>
      </trkpt>
      <trkpt lat="44.02022" lon="1.91111">
        <ele>235</ele>
        <time>2023-07-23T07:39:36Z</time>
      </trkpt>
      <trkpt lat="44.02017" lon="1.91107">
        <ele>235</ele>
        <time>2023-07-23T07:39:37Z</time>
      </trkpt>
      <trkpt lat="44.02013" lon="1.91104">
        <ele>234.8</ele>
        <time>2023-07-23T07:39:38Z</time>
      </trkpt>
      <trkpt lat="44.02008" lon="1.91101">
        <ele>234.8</ele>
        <time>2023-07-23T07:39:39Z</time>
      </trkpt>
      <trkpt lat="44.01995" lon="1.91095">
        <ele>234.8</ele>
        <time>2023-07-23T07:39:42Z</time>
      </trkpt>
      <trkpt lat="44.01983" lon="1.91088">
        <ele>234.6</ele>
        <time>2023-07-23T07:39:45Z</time>
      </trkpt>
      <trkpt lat="44.01983" lon="1.91088">
        <ele>234.6</ele>
        <time>2023-07-23T07:39:46Z</time>
      </trkpt>
      <trkpt lat="44.01979" lon="1.91084">
        <ele>234.4</ele>
        <time>2023-07-23T07:39:47Z</time>
      </trkpt>
      <trkpt lat="44.01976" lon="1.9108">
        <ele>234.4</ele>
        <time>2023-07-23T07:39:48Z</time>
      </trkpt>
      <trkpt lat="44.01974" lon="1.91077">
        <ele>234.4</ele>
        <time>2023-07-23T07:39:49Z</time>
      </trkpt>
      <trkpt lat="44.01971" lon="1.91073">
        <ele>234.4</ele>
        <time>2023-07-23T07:39:50Z</time>
      </trkpt>
      <trkpt lat="44.01968" lon="1.91064">
        <ele>234.2</ele>
        <time>2023-07-23T07:39:52Z</time>
      </trkpt>
      <trkpt lat="44.01966" lon="1.91061">
        <ele>234.2</ele>
        <time>2023-07-23T07:39:53Z</time>
      </trkpt>
      <trkpt lat="44.01965" lon="1.91058">
        <ele>234</ele>
        <time>2023-07-23T07:39:54Z</time>
      </trkpt>
      <trkpt lat="44.01963" lon="1.91056">
        <ele>234</ele>
        <time>2023-07-23T07:39:55Z</time>
      </trkpt>
      <trkpt lat="44.01961" lon="1.91056">
        <ele>234</ele>
        <time>2023-07-23T07:39:56Z</time>
      </trkpt>
      <trkpt lat="44.01959" lon="1.91057">
        <ele>234</ele>
        <time>2023-07-23T07:39:57Z</time>
      </trkpt>
      <trkpt lat="44.01957" lon="1.91059">
        <ele>234</ele>
        <time>2023-07-23T07:39:58Z</time>
      </trkpt>
      <trkpt lat="44.0195" lon="1.91066">
        <ele>234</ele>
        <time>2023-07-23T07:40:01Z</time>
      </trkpt>
      <trkpt lat="44.01947" lon="1.91067">
        <ele>234</ele>
        <time>2023-07-23T07:40:02Z</time>
      </trkpt>
      <trkpt lat="44.0194" lon="1.91069">
        <ele>234</ele>
        <time>2023-07-23T07:40:05Z</time>
      </trkpt>
      <trkpt lat="44.01937" lon="1.9107">
        <ele>234</ele>
        <time>2023-07-23T07:40:06Z</time>
      </trkpt>
      <trkpt lat="44.01935" lon="1.9107">
        <ele>234</ele>
        <time>2023-07-23T07:40:07Z</time>
      </trkpt>
      <trkpt lat="44.01933" lon="1.91071">
        <ele>234</ele>
        <time>2023-07-23T07:40:08Z</time>
      </trkpt>
      <trkpt lat="44.01932" lon="1.91071">
        <ele>234</ele>
        <time>2023-07-23T07:40:09Z</time>
      </trkpt>
      <trkpt lat="44.01931" lon="1.91071">
        <ele>234.2</ele>
        <time>2023-07-23T07:40:10Z</time>
      </trkpt>
      <trkpt lat="44.0193" lon="1.91072">
        <ele>234.2</ele>
        <time>2023-07-23T07:40:11Z</time>
      </trkpt>
      <trkpt lat="44.01928" lon="1.91073">
        <ele>234.4</ele>
        <time>2023-07-23T07:40:12Z</time>
      </trkpt>
      <trkpt lat="44.01927" lon="1.91073">
        <ele>234.4</ele>
        <time>2023-07-23T07:40:13Z</time>
      </trkpt>
      <trkpt lat="44.01925" lon="1.91071">
        <ele>234.8</ele>
        <time>2023-07-23T07:40:15Z</time>
      </trkpt>
      <trkpt lat="44.01922" lon="1.9107">
        <ele>235</ele>
        <time>2023-07-23T07:40:18Z</time>
      </trkpt>
      <trkpt lat="44.01917" lon="1.91067">
        <ele>235</ele>
        <time>2023-07-23T07:40:20Z</time>
      </trkpt>
      <trkpt lat="44.01907" lon="1.91067">
        <ele>235.2</ele>
        <time>2023-07-23T07:40:22Z</time>
      </trkpt>
      <trkpt lat="44.01895" lon="1.91069">
        <ele>235</ele>
        <time>2023-07-23T07:40:25Z</time>
      </trkpt>
      <trkpt lat="44.01893" lon="1.91069">
        <ele>234.8</ele>
        <time>2023-07-23T07:40:26Z</time>
      </trkpt>
      <trkpt lat="44.0189" lon="1.91068">
        <ele>234.8</ele>
        <time>2023-07-23T07:40:27Z</time>
      </trkpt>
      <trkpt lat="44.01886" lon="1.91068">
        <ele>234.8</ele>
        <time>2023-07-23T07:40:28Z</time>
      </trkpt>
      <trkpt lat="44.01878" lon="1.91076">
        <ele>234.8</ele>
        <time>2023-07-23T07:40:31Z</time>
      </trkpt>
      <trkpt lat="44.01875" lon="1.91079">
        <ele>234.8</ele>
        <time>2023-07-23T07:40:32Z</time>
      </trkpt>
      <trkpt lat="44.01873" lon="1.91082">
        <ele>235.2</ele>
        <time>2023-07-23T07:40:33Z</time>
      </trkpt>
      <trkpt lat="44.01871" lon="1.91085">
        <ele>235.4</ele>
        <time>2023-07-23T07:40:34Z</time>
      </trkpt>
      <trkpt lat="44.01869" lon="1.91088">
        <ele>235.6</ele>
        <time>2023-07-23T07:40:35Z</time>
      </trkpt>
      <trkpt lat="44.01866" lon="1.9109">
        <ele>235.8</ele>
        <time>2023-07-23T07:40:36Z</time>
      </trkpt>
      <trkpt lat="44.01863" lon="1.91092">
        <ele>236</ele>
        <time>2023-07-23T07:40:37Z</time>
      </trkpt>
      <trkpt lat="44.01861" lon="1.91094">
        <ele>236.2</ele>
        <time>2023-07-23T07:40:38Z</time>
      </trkpt>
      <trkpt lat="44.01859" lon="1.91094">
        <ele>236.4</ele>
        <time>2023-07-23T07:40:39Z</time>
      </trkpt>
      <trkpt lat="44.01856" lon="1.91093">
        <ele>236.4</ele>
        <time>2023-07-23T07:40:40Z</time>
      </trkpt>
      <trkpt lat="44.01854" lon="1.9109">
        <ele>236.4</ele>
        <time>2023-07-23T07:40:41Z</time>
      </trkpt>
      <trkpt lat="44.01853" lon="1.91086">
        <ele>236.6</ele>
        <time>2023-07-23T07:40:42Z</time>
      </trkpt>
      <trkpt lat="44.01851" lon="1.91068">
        <ele>236.6</ele>
        <time>2023-07-23T07:40:46Z</time>
      </trkpt>
      <trkpt lat="44.0185" lon="1.91063">
        <ele>236.6</ele>
        <time>2023-07-23T07:40:47Z</time>
      </trkpt>
      <trkpt lat="44.01846" lon="1.91055">
        <ele>236.4</ele>
        <time>2023-07-23T07:40:49Z</time>
      </trkpt>
      <trkpt lat="44.01825" lon="1.91022">
        <ele>235</ele>
        <time>2023-07-23T07:40:57Z</time>
      </trkpt>
      <trkpt lat="44.01802" lon="1.90997">
        <ele>234.8</ele>
        <time>2023-07-23T07:41:03Z</time>
      </trkpt>
      <trkpt lat="44.01798" lon="1.90992">
        <ele>234.8</ele>
        <time>2023-07-23T07:41:04Z</time>
      </trkpt>
      <trkpt lat="44.01779" lon="1.90966">
        <ele>234.6</ele>
        <time>2023-07-23T07:41:09Z</time>
      </trkpt>
      <trkpt lat="44.01775" lon="1.90961">
        <ele>234.6</ele>
        <time>2023-07-23T07:41:10Z</time>
      </trkpt>
      <trkpt lat="44.01772" lon="1.90954">
        <ele>234.6</ele>
        <time>2023-07-23T07:41:11Z</time>
      </trkpt>
      <trkpt lat="44.01768" lon="1.90948">
        <ele>234.6</ele>
        <time>2023-07-23T07:41:12Z</time>
      </trkpt>
      <trkpt lat="44.01765" lon="1.9094">
        <ele>234.4</ele>
        <time>2023-07-23T07:41:13Z</time>
      </trkpt>
      <trkpt lat="44.01762" lon="1.90932">
        <ele>234.4</ele>
        <time>2023-07-23T07:41:14Z</time>
      </trkpt>
      <trkpt lat="44.01759" lon="1.90923">
        <ele>234.4</ele>
        <time>2023-07-23T07:41:15Z</time>
      </trkpt>
      <trkpt lat="44.01756" lon="1.90913">
        <ele>234.4</ele>
        <time>2023-07-23T07:41:16Z</time>
      </trkpt>
      <trkpt lat="44.01748" lon="1.90886">
        <ele>233.6</ele>
        <time>2023-07-23T07:41:19Z</time>
      </trkpt>
      <trkpt lat="44.01747" lon="1.90876">
        <ele>233.2</ele>
        <time>2023-07-23T07:41:20Z</time>
      </trkpt>
      <trkpt lat="44.01746" lon="1.90867">
        <ele>233.2</ele>
        <time>2023-07-23T07:41:21Z</time>
      </trkpt>
      <trkpt lat="44.01745" lon="1.90857">
        <ele>232.8</ele>
        <time>2023-07-23T07:41:22Z</time>
      </trkpt>
      <trkpt lat="44.01745" lon="1.90847">
        <ele>232.6</ele>
        <time>2023-07-23T07:41:23Z</time>
      </trkpt>
      <trkpt lat="44.01746" lon="1.90838">
        <ele>232.4</ele>
        <time>2023-07-23T07:41:24Z</time>
      </trkpt>
      <trkpt lat="44.01747" lon="1.9083">
        <ele>232.2</ele>
        <time>2023-07-23T07:41:25Z</time>
      </trkpt>
      <trkpt lat="44.01747" lon="1.90822">
        <ele>232</ele>
        <time>2023-07-23T07:41:26Z</time>
      </trkpt>
      <trkpt lat="44.01746" lon="1.90814">
        <ele>231.6</ele>
        <time>2023-07-23T07:41:27Z</time>
      </trkpt>
      <trkpt lat="44.01744" lon="1.90809">
        <ele>231.4</ele>
        <time>2023-07-23T07:41:28Z</time>
      </trkpt>
      <trkpt lat="44.01744" lon="1.90809">
        <ele>231.2</ele>
        <time>2023-07-23T07:41:29Z</time>
      </trkpt>
      <trkpt lat="44.01736" lon="1.908">
        <ele>231.2</ele>
        <time>2023-07-23T07:41:30Z</time>
      </trkpt>
      <trkpt lat="44.01733" lon="1.90796">
        <ele>231.2</ele>
        <time>2023-07-23T07:41:31Z</time>
      </trkpt>
      <trkpt lat="44.01731" lon="1.90793">
        <ele>231.2</ele>
        <time>2023-07-23T07:41:32Z</time>
      </trkpt>
      <trkpt lat="44.01728" lon="1.90789">
        <ele>231.4</ele>
        <time>2023-07-23T07:41:33Z</time>
      </trkpt>
      <trkpt lat="44.01725" lon="1.90786">
        <ele>231.4</ele>
        <time>2023-07-23T07:41:34Z</time>
      </trkpt>
      <trkpt lat="44.01722" lon="1.90783">
        <ele>231.4</ele>
        <time>2023-07-23T07:41:35Z</time>
      </trkpt>
      <trkpt lat="44.01719" lon="1.9078">
        <ele>231.6</ele>
        <time>2023-07-23T07:41:36Z</time>
      </trkpt>
      <trkpt lat="44.01715" lon="1.90777">
        <ele>231.6</ele>
        <time>2023-07-23T07:41:37Z</time>
      </trkpt>
      <trkpt lat="44.01711" lon="1.90774">
        <ele>231.6</ele>
        <time>2023-07-23T07:41:38Z</time>
      </trkpt>
      <trkpt lat="44.01702" lon="1.9077">
        <ele>231.6</ele>
        <time>2023-07-23T07:41:40Z</time>
      </trkpt>
      <trkpt lat="44.01698" lon="1.90768">
        <ele>231.6</ele>
        <time>2023-07-23T07:41:41Z</time>
      </trkpt>
      <trkpt lat="44.01693" lon="1.90766">
        <ele>231.6</ele>
        <time>2023-07-23T07:41:42Z</time>
      </trkpt>
      <trkpt lat="44.0166" lon="1.90749">
        <ele>230.8</ele>
        <time>2023-07-23T07:41:48Z</time>
      </trkpt>
      <trkpt lat="44.0165" lon="1.90741">
        <ele>230.4</ele>
        <time>2023-07-23T07:41:50Z</time>
      </trkpt>
      <trkpt lat="44.01636" lon="1.90726">
        <ele>230</ele>
        <time>2023-07-23T07:41:53Z</time>
      </trkpt>
      <trkpt lat="44.01622" lon="1.9071">
        <ele>229.6</ele>
        <time>2023-07-23T07:41:56Z</time>
      </trkpt>
      <trkpt lat="44.01618" lon="1.90704">
        <ele>229.6</ele>
        <time>2023-07-23T07:41:57Z</time>
      </trkpt>
      <trkpt lat="44.01614" lon="1.90699">
        <ele>229.6</ele>
        <time>2023-07-23T07:41:58Z</time>
      </trkpt>
      <trkpt lat="44.01607" lon="1.90688">
        <ele>229.2</ele>
        <time>2023-07-23T07:42:00Z</time>
      </trkpt>
      <trkpt lat="44.01601" lon="1.90676">
        <ele>229</ele>
        <time>2023-07-23T07:42:02Z</time>
      </trkpt>
      <trkpt lat="44.01598" lon="1.9067">
        <ele>229</ele>
        <time>2023-07-23T07:42:03Z</time>
      </trkpt>
      <trkpt lat="44.01596" lon="1.90663">
        <ele>228.6</ele>
        <time>2023-07-23T07:42:04Z</time>
      </trkpt>
      <trkpt lat="44.01595" lon="1.90657">
        <ele>228.6</ele>
        <time>2023-07-23T07:42:05Z</time>
      </trkpt>
      <trkpt lat="44.01594" lon="1.90651">
        <ele>228.4</ele>
        <time>2023-07-23T07:42:06Z</time>
      </trkpt>
      <trkpt lat="44.01593" lon="1.90644">
        <ele>228.4</ele>
        <time>2023-07-23T07:42:07Z</time>
      </trkpt>
      <trkpt lat="44.01592" lon="1.90638">
        <ele>227.8</ele>
        <time>2023-07-23T07:42:08Z</time>
      </trkpt>
      <trkpt lat="44.0159" lon="1.90632">
        <ele>227.8</ele>
        <time>2023-07-23T07:42:09Z</time>
      </trkpt>
      <trkpt lat="44.01586" lon="1.90627">
        <ele>227.4</ele>
        <time>2023-07-23T07:42:10Z</time>
      </trkpt>
      <trkpt lat="44.01581" lon="1.90623">
        <ele>227.2</ele>
        <time>2023-07-23T07:42:11Z</time>
      </trkpt>
      <trkpt lat="44.01577" lon="1.9062">
        <ele>227.2</ele>
        <time>2023-07-23T07:42:12Z</time>
      </trkpt>
      <trkpt lat="44.01571" lon="1.90618">
        <ele>227</ele>
        <time>2023-07-23T07:42:13Z</time>
      </trkpt>
      <trkpt lat="44.01566" lon="1.90616">
        <ele>226.8</ele>
        <time>2023-07-23T07:42:14Z</time>
      </trkpt>
      <trkpt lat="44.01561" lon="1.90614">
        <ele>226.8</ele>
        <time>2023-07-23T07:42:15Z</time>
      </trkpt>
      <trkpt lat="44.01557" lon="1.90612">
        <ele>226.8</ele>
        <time>2023-07-23T07:42:16Z</time>
      </trkpt>
      <trkpt lat="44.01548" lon="1.90606">
        <ele>226.4</ele>
        <time>2023-07-23T07:42:18Z</time>
      </trkpt>
      <trkpt lat="44.01533" lon="1.90604">
        <ele>226.2</ele>
        <time>2023-07-23T07:42:21Z</time>
      </trkpt>
      <trkpt lat="44.01504" lon="1.906">
        <ele>225.6</ele>
        <time>2023-07-23T07:42:27Z</time>
      </trkpt>
      <trkpt lat="44.015" lon="1.90599">
        <ele>225.4</ele>
        <time>2023-07-23T07:42:29Z</time>
      </trkpt>
      <trkpt lat="44.0149" lon="1.90596">
        <ele>225.4</ele>
        <time>2023-07-23T07:42:30Z</time>
      </trkpt>
      <trkpt lat="44.01485" lon="1.90594">
        <ele>225.2</ele>
        <time>2023-07-23T07:42:31Z</time>
      </trkpt>
      <trkpt lat="44.01472" lon="1.90588">
        <ele>225</ele>
        <time>2023-07-23T07:42:34Z</time>
      </trkpt>
      <trkpt lat="44.01459" lon="1.9058">
        <ele>225</ele>
        <time>2023-07-23T07:42:37Z</time>
      </trkpt>
      <trkpt lat="44.01455" lon="1.90577">
        <ele>225.2</ele>
        <time>2023-07-23T07:42:38Z</time>
      </trkpt>
      <trkpt lat="44.01433" lon="1.90562">
        <ele>225.2</ele>
        <time>2023-07-23T07:42:43Z</time>
      </trkpt>
      <trkpt lat="44.0141" lon="1.90546">
        <ele>225</ele>
        <time>2023-07-23T07:42:48Z</time>
      </trkpt>
      <trkpt lat="44.01406" lon="1.90543">
        <ele>225</ele>
        <time>2023-07-23T07:42:49Z</time>
      </trkpt>
      <trkpt lat="44.01396" lon="1.90536">
        <ele>224.6</ele>
        <time>2023-07-23T07:42:51Z</time>
      </trkpt>
      <trkpt lat="44.0139" lon="1.90532">
        <ele>224.4</ele>
        <time>2023-07-23T07:42:52Z</time>
      </trkpt>
      <trkpt lat="44.01378" lon="1.90521">
        <ele>224.2</ele>
        <time>2023-07-23T07:42:54Z</time>
      </trkpt>
      <trkpt lat="44.01373" lon="1.90516">
        <ele>224.2</ele>
        <time>2023-07-23T07:42:55Z</time>
      </trkpt>
      <trkpt lat="44.01358" lon="1.90501">
        <ele>223.8</ele>
        <time>2023-07-23T07:42:58Z</time>
      </trkpt>
      <trkpt lat="44.01353" lon="1.90497">
        <ele>223.8</ele>
        <time>2023-07-23T07:42:59Z</time>
      </trkpt>
      <trkpt lat="44.0135" lon="1.90493">
        <ele>223.6</ele>
        <time>2023-07-23T07:43:00Z</time>
      </trkpt>
      <trkpt lat="44.01346" lon="1.9049">
        <ele>223.4</ele>
        <time>2023-07-23T07:43:01Z</time>
      </trkpt>
      <trkpt lat="44.01343" lon="1.90487">
        <ele>223.2</ele>
        <time>2023-07-23T07:43:02Z</time>
      </trkpt>
      <trkpt lat="44.0134" lon="1.90484">
        <ele>223</ele>
        <time>2023-07-23T07:43:03Z</time>
      </trkpt>
      <trkpt lat="44.01337" lon="1.9048">
        <ele>222.8</ele>
        <time>2023-07-23T07:43:04Z</time>
      </trkpt>
      <trkpt lat="44.01335" lon="1.90476">
        <ele>222.6</ele>
        <time>2023-07-23T07:43:05Z</time>
      </trkpt>
      <trkpt lat="44.01332" lon="1.90472">
        <ele>222.6</ele>
        <time>2023-07-23T07:43:06Z</time>
      </trkpt>
      <trkpt lat="44.0133" lon="1.90468">
        <ele>222.6</ele>
        <time>2023-07-23T07:43:07Z</time>
      </trkpt>
      <trkpt lat="44.01328" lon="1.90464">
        <ele>222.4</ele>
        <time>2023-07-23T07:43:08Z</time>
      </trkpt>
      <trkpt lat="44.01326" lon="1.9046">
        <ele>222.4</ele>
        <time>2023-07-23T07:43:09Z</time>
      </trkpt>
      <trkpt lat="44.01325" lon="1.90456">
        <ele>222.4</ele>
        <time>2023-07-23T07:43:10Z</time>
      </trkpt>
      <trkpt lat="44.01322" lon="1.90447">
        <ele>222.4</ele>
        <time>2023-07-23T07:43:12Z</time>
      </trkpt>
      <trkpt lat="44.01321" lon="1.90439">
        <ele>222.4</ele>
        <time>2023-07-23T07:43:14Z</time>
      </trkpt>
      <trkpt lat="44.0132" lon="1.90436">
        <ele>222.6</ele>
        <time>2023-07-23T07:43:15Z</time>
      </trkpt>
      <trkpt lat="44.01319" lon="1.90432">
        <ele>223</ele>
        <time>2023-07-23T07:43:16Z</time>
      </trkpt>
      <trkpt lat="44.01318" lon="1.90429">
        <ele>223</ele>
        <time>2023-07-23T07:43:17Z</time>
      </trkpt>
      <trkpt lat="44.01317" lon="1.90425">
        <ele>223.2</ele>
        <time>2023-07-23T07:43:18Z</time>
      </trkpt>
      <trkpt lat="44.01312" lon="1.90409">
        <ele>223.6</ele>
        <time>2023-07-23T07:43:22Z</time>
      </trkpt>
      <trkpt lat="44.01308" lon="1.90397">
        <ele>224.4</ele>
        <time>2023-07-23T07:43:25Z</time>
      </trkpt>
      <trkpt lat="44.01299" lon="1.90383">
        <ele>225.2</ele>
        <time>2023-07-23T07:43:29Z</time>
      </trkpt>
      <trkpt lat="44.01296" lon="1.90381">
        <ele>225.6</ele>
        <time>2023-07-23T07:43:30Z</time>
      </trkpt>
      <trkpt lat="44.01281" lon="1.90367">
        <ele>226.4</ele>
        <time>2023-07-23T07:43:35Z</time>
      </trkpt>
      <trkpt lat="44.01278" lon="1.90364">
        <ele>226.4</ele>
        <time>2023-07-23T07:43:36Z</time>
      </trkpt>
      <trkpt lat="44.01275" lon="1.90361">
        <ele>226.4</ele>
        <time>2023-07-23T07:43:37Z</time>
      </trkpt>
      <trkpt lat="44.01271" lon="1.90358">
        <ele>226.4</ele>
        <time>2023-07-23T07:43:38Z</time>
      </trkpt>
      <trkpt lat="44.01268" lon="1.90355">
        <ele>226.6</ele>
        <time>2023-07-23T07:43:39Z</time>
      </trkpt>
      <trkpt lat="44.01266" lon="1.90352">
        <ele>226.6</ele>
        <time>2023-07-23T07:43:40Z</time>
      </trkpt>
      <trkpt lat="44.01262" lon="1.90349">
        <ele>226.6</ele>
        <time>2023-07-23T07:43:41Z</time>
      </trkpt>
      <trkpt lat="44.01258" lon="1.90345">
        <ele>226.8</ele>
        <time>2023-07-23T07:43:42Z</time>
      </trkpt>
      <trkpt lat="44.01255" lon="1.90342">
        <ele>227</ele>
        <time>2023-07-23T07:43:43Z</time>
      </trkpt>
      <trkpt lat="44.01255" lon="1.90342">
        <ele>227.2</ele>
        <time>2023-07-23T07:43:44Z</time>
      </trkpt>
      <trkpt lat="44.01248" lon="1.90336">
        <ele>227.2</ele>
        <time>2023-07-23T07:43:45Z</time>
      </trkpt>
      <trkpt lat="44.01244" lon="1.90332">
        <ele>227.2</ele>
        <time>2023-07-23T07:43:46Z</time>
      </trkpt>
      <trkpt lat="44.0124" lon="1.90328">
        <ele>227.4</ele>
        <time>2023-07-23T07:43:47Z</time>
      </trkpt>
      <trkpt lat="44.01237" lon="1.90325">
        <ele>227.4</ele>
        <time>2023-07-23T07:43:48Z</time>
      </trkpt>
      <trkpt lat="44.01233" lon="1.90321">
        <ele>227.4</ele>
        <time>2023-07-23T07:43:49Z</time>
      </trkpt>
      <trkpt lat="44.0123" lon="1.90317">
        <ele>227.4</ele>
        <time>2023-07-23T07:43:50Z</time>
      </trkpt>
      <trkpt lat="44.01227" lon="1.90314">
        <ele>227.4</ele>
        <time>2023-07-23T07:43:51Z</time>
      </trkpt>
      <trkpt lat="44.01224" lon="1.90311">
        <ele>227.6</ele>
        <time>2023-07-23T07:43:52Z</time>
      </trkpt>
      <trkpt lat="44.01221" lon="1.90307">
        <ele>227.8</ele>
        <time>2023-07-23T07:43:53Z</time>
      </trkpt>
      <trkpt lat="44.01218" lon="1.90304">
        <ele>227.8</ele>
        <time>2023-07-23T07:43:54Z</time>
      </trkpt>
      <trkpt lat="44.01215" lon="1.903">
        <ele>228</ele>
        <time>2023-07-23T07:43:55Z</time>
      </trkpt>
      <trkpt lat="44.01212" lon="1.90296">
        <ele>228.2</ele>
        <time>2023-07-23T07:43:56Z</time>
      </trkpt>
      <trkpt lat="44.01209" lon="1.90292">
        <ele>228.4</ele>
        <time>2023-07-23T07:43:57Z</time>
      </trkpt>
      <trkpt lat="44.01206" lon="1.90289">
        <ele>228.4</ele>
        <time>2023-07-23T07:43:58Z</time>
      </trkpt>
      <trkpt lat="44.01204" lon="1.90285">
        <ele>228.4</ele>
        <time>2023-07-23T07:43:59Z</time>
      </trkpt>
      <trkpt lat="44.01201" lon="1.90282">
        <ele>228.8</ele>
        <time>2023-07-23T07:44:00Z</time>
      </trkpt>
      <trkpt lat="44.01198" lon="1.90278">
        <ele>229</ele>
        <time>2023-07-23T07:44:01Z</time>
      </trkpt>
      <trkpt lat="44.01195" lon="1.90275">
        <ele>229.4</ele>
        <time>2023-07-23T07:44:02Z</time>
      </trkpt>
      <trkpt lat="44.01195" lon="1.90275">
        <ele>229.6</ele>
        <time>2023-07-23T07:44:03Z</time>
      </trkpt>
      <trkpt lat="44.01189" lon="1.90268">
        <ele>229.8</ele>
        <time>2023-07-23T07:44:04Z</time>
      </trkpt>
      <trkpt lat="44.01185" lon="1.90265">
        <ele>230</ele>
        <time>2023-07-23T07:44:05Z</time>
      </trkpt>
      <trkpt lat="44.01182" lon="1.90263">
        <ele>230</ele>
        <time>2023-07-23T07:44:06Z</time>
      </trkpt>
      <trkpt lat="44.01178" lon="1.9026">
        <ele>230</ele>
        <time>2023-07-23T07:44:07Z</time>
      </trkpt>
      <trkpt lat="44.01174" lon="1.90256">
        <ele>230</ele>
        <time>2023-07-23T07:44:08Z</time>
      </trkpt>
      <trkpt lat="44.01169" lon="1.90254">
        <ele>230.2</ele>
        <time>2023-07-23T07:44:09Z</time>
      </trkpt>
      <trkpt lat="44.01165" lon="1.90251">
        <ele>230.4</ele>
        <time>2023-07-23T07:44:10Z</time>
      </trkpt>
      <trkpt lat="44.0116" lon="1.90248">
        <ele>230.6</ele>
        <time>2023-07-23T07:44:11Z</time>
      </trkpt>
      <trkpt lat="44.01155" lon="1.90245">
        <ele>230.2</ele>
        <time>2023-07-23T07:44:12Z</time>
      </trkpt>
      <trkpt lat="44.0115" lon="1.90243">
        <ele>230.2</ele>
        <time>2023-07-23T07:44:13Z</time>
      </trkpt>
      <trkpt lat="44.01145" lon="1.90241">
        <ele>230.2</ele>
        <time>2023-07-23T07:44:14Z</time>
      </trkpt>
      <trkpt lat="44.0114" lon="1.90239">
        <ele>230.2</ele>
        <time>2023-07-23T07:44:15Z</time>
      </trkpt>
      <trkpt lat="44.01134" lon="1.90237">
        <ele>230.4</ele>
        <time>2023-07-23T07:44:16Z</time>
      </trkpt>
      <trkpt lat="44.01129" lon="1.90235">
        <ele>230.4</ele>
        <time>2023-07-23T07:44:17Z</time>
      </trkpt>
      <trkpt lat="44.01124" lon="1.90232">
        <ele>230.2</ele>
        <time>2023-07-23T07:44:18Z</time>
      </trkpt>
      <trkpt lat="44.01118" lon="1.90231">
        <ele>230.2</ele>
        <time>2023-07-23T07:44:19Z</time>
      </trkpt>
      <trkpt lat="44.01113" lon="1.90229">
        <ele>230</ele>
        <time>2023-07-23T07:44:20Z</time>
      </trkpt>
      <trkpt lat="44.01081" lon="1.90214">
        <ele>229.6</ele>
        <time>2023-07-23T07:44:25Z</time>
      </trkpt>
      <trkpt lat="44.01044" lon="1.90198">
        <ele>228.8</ele>
        <time>2023-07-23T07:44:30Z</time>
      </trkpt>
      <trkpt lat="44.01027" lon="1.90191">
        <ele>228</ele>
        <time>2023-07-23T07:44:32Z</time>
      </trkpt>
      <trkpt lat="44.01018" lon="1.90188">
        <ele>227.6</ele>
        <time>2023-07-23T07:44:33Z</time>
      </trkpt>
      <trkpt lat="44.00991" lon="1.9018">
        <ele>225.8</ele>
        <time>2023-07-23T07:44:36Z</time>
      </trkpt>
      <trkpt lat="44.00973" lon="1.90175">
        <ele>224.6</ele>
        <time>2023-07-23T07:44:38Z</time>
      </trkpt>
      <trkpt lat="44.00968" lon="1.90173">
        <ele>224</ele>
        <time>2023-07-23T07:44:39Z</time>
      </trkpt>
      <trkpt lat="44.00965" lon="1.90172">
        <ele>223.4</ele>
        <time>2023-07-23T07:44:40Z</time>
      </trkpt>
      <trkpt lat="44.00962" lon="1.90171">
        <ele>222.6</ele>
        <time>2023-07-23T07:44:41Z</time>
      </trkpt>
      <trkpt lat="44.0096" lon="1.9017">
        <ele>221.6</ele>
        <time>2023-07-23T07:44:42Z</time>
      </trkpt>
      <trkpt lat="44.00958" lon="1.90169">
        <ele>220.2</ele>
        <time>2023-07-23T07:44:43Z</time>
      </trkpt>
      <trkpt lat="44.00955" lon="1.90169">
        <ele>219.6</ele>
        <time>2023-07-23T07:44:44Z</time>
      </trkpt>
      <trkpt lat="44.00947" lon="1.90168">
        <ele>218.8</ele>
        <time>2023-07-23T07:44:46Z</time>
      </trkpt>
      <trkpt lat="44.00931" lon="1.90164">
        <ele>217.6</ele>
        <time>2023-07-23T07:44:50Z</time>
      </trkpt>
      <trkpt lat="44.00917" lon="1.9016">
        <ele>216.6</ele>
        <time>2023-07-23T07:44:53Z</time>
      </trkpt>
      <trkpt lat="44.00882" lon="1.90152">
        <ele>216</ele>
        <time>2023-07-23T07:44:59Z</time>
      </trkpt>
      <trkpt lat="44.00877" lon="1.90151">
        <ele>215.8</ele>
        <time>2023-07-23T07:45:00Z</time>
      </trkpt>
      <trkpt lat="44.00865" lon="1.90148">
        <ele>215.4</ele>
        <time>2023-07-23T07:45:02Z</time>
      </trkpt>
      <trkpt lat="44.0083" lon="1.90139">
        <ele>214.4</ele>
        <time>2023-07-23T07:45:08Z</time>
      </trkpt>
      <trkpt lat="44.00824" lon="1.90136">
        <ele>214.4</ele>
        <time>2023-07-23T07:45:09Z</time>
      </trkpt>
      <trkpt lat="44.00806" lon="1.90128">
        <ele>213.8</ele>
        <time>2023-07-23T07:45:12Z</time>
      </trkpt>
      <trkpt lat="44.00786" lon="1.90115">
        <ele>213.6</ele>
        <time>2023-07-23T07:45:16Z</time>
      </trkpt>
      <trkpt lat="44.00772" lon="1.90106">
        <ele>213.6</ele>
        <time>2023-07-23T07:45:19Z</time>
      </trkpt>
      <trkpt lat="44.00767" lon="1.90103">
        <ele>213.4</ele>
        <time>2023-07-23T07:45:20Z</time>
      </trkpt>
      <trkpt lat="44.00761" lon="1.901">
        <ele>213.4</ele>
        <time>2023-07-23T07:45:21Z</time>
      </trkpt>
      <trkpt lat="44.00756" lon="1.90097">
        <ele>213.4</ele>
        <time>2023-07-23T07:45:22Z</time>
      </trkpt>
      <trkpt lat="44.00751" lon="1.90094">
        <ele>213.4</ele>
        <time>2023-07-23T07:45:23Z</time>
      </trkpt>
      <trkpt lat="44.00731" lon="1.90079">
        <ele>213.8</ele>
        <time>2023-07-23T07:45:27Z</time>
      </trkpt>
      <trkpt lat="44.00727" lon="1.90074">
        <ele>213.8</ele>
        <time>2023-07-23T07:45:28Z</time>
      </trkpt>
      <trkpt lat="44.00723" lon="1.90069">
        <ele>214</ele>
        <time>2023-07-23T07:45:29Z</time>
      </trkpt>
      <trkpt lat="44.00705" lon="1.90049">
        <ele>214</ele>
        <time>2023-07-23T07:45:33Z</time>
      </trkpt>
      <trkpt lat="44.00696" lon="1.90041">
        <ele>214.2</ele>
        <time>2023-07-23T07:45:35Z</time>
      </trkpt>
      <trkpt lat="44.00688" lon="1.90035">
        <ele>214.2</ele>
        <time>2023-07-23T07:45:37Z</time>
      </trkpt>
      <trkpt lat="44.00686" lon="1.90032">
        <ele>214.2</ele>
        <time>2023-07-23T07:45:38Z</time>
      </trkpt>
      <trkpt lat="44.00683" lon="1.9003">
        <ele>214.2</ele>
        <time>2023-07-23T07:45:39Z</time>
      </trkpt>
      <trkpt lat="44.0068" lon="1.90027">
        <ele>214.6</ele>
        <time>2023-07-23T07:45:40Z</time>
      </trkpt>
      <trkpt lat="44.00676" lon="1.90025">
        <ele>214.8</ele>
        <time>2023-07-23T07:45:41Z</time>
      </trkpt>
      <trkpt lat="44.00673" lon="1.90023">
        <ele>214.8</ele>
        <time>2023-07-23T07:45:42Z</time>
      </trkpt>
      <trkpt lat="44.0067" lon="1.90021">
        <ele>215</ele>
        <time>2023-07-23T07:45:43Z</time>
      </trkpt>
      <trkpt lat="44.00667" lon="1.90019">
        <ele>215</ele>
        <time>2023-07-23T07:45:44Z</time>
      </trkpt>
      <trkpt lat="44.00655" lon="1.90013">
        <ele>215.4</ele>
        <time>2023-07-23T07:45:47Z</time>
      </trkpt>
      <trkpt lat="44.00633" lon="1.90005">
        <ele>215.6</ele>
        <time>2023-07-23T07:45:52Z</time>
      </trkpt>
      <trkpt lat="44.00629" lon="1.90003">
        <ele>215.6</ele>
        <time>2023-07-23T07:45:53Z</time>
      </trkpt>
      <trkpt lat="44.00626" lon="1.90001">
        <ele>215.6</ele>
        <time>2023-07-23T07:45:54Z</time>
      </trkpt>
      <trkpt lat="44.00623" lon="1.89997">
        <ele>215.6</ele>
        <time>2023-07-23T07:45:55Z</time>
      </trkpt>
      <trkpt lat="44.0061" lon="1.89983">
        <ele>215.2</ele>
        <time>2023-07-23T07:45:59Z</time>
      </trkpt>
      <trkpt lat="44.00593" lon="1.89966">
        <ele>214.8</ele>
        <time>2023-07-23T07:46:04Z</time>
      </trkpt>
      <trkpt lat="44.00589" lon="1.89962">
        <ele>214.8</ele>
        <time>2023-07-23T07:46:05Z</time>
      </trkpt>
      <trkpt lat="44.00582" lon="1.89956">
        <ele>214.6</ele>
        <time>2023-07-23T07:46:07Z</time>
      </trkpt>
      <trkpt lat="44.00571" lon="1.89947">
        <ele>214.4</ele>
        <time>2023-07-23T07:46:10Z</time>
      </trkpt>
      <trkpt lat="44.00567" lon="1.89944">
        <ele>214.2</ele>
        <time>2023-07-23T07:46:11Z</time>
      </trkpt>
      <trkpt lat="44.00552" lon="1.89938">
        <ele>214</ele>
        <time>2023-07-23T07:46:14Z</time>
      </trkpt>
      <trkpt lat="44.00542" lon="1.89937">
        <ele>213.8</ele>
        <time>2023-07-23T07:46:16Z</time>
      </trkpt>
      <trkpt lat="44.00527" lon="1.89937">
        <ele>213.2</ele>
        <time>2023-07-23T07:46:19Z</time>
      </trkpt>
      <trkpt lat="44.00522" lon="1.89937">
        <ele>213.2</ele>
        <time>2023-07-23T07:46:20Z</time>
      </trkpt>
      <trkpt lat="44.00491" lon="1.89937">
        <ele>212.2</ele>
        <time>2023-07-23T07:46:26Z</time>
      </trkpt>
      <trkpt lat="44.00486" lon="1.89937">
        <ele>212</ele>
        <time>2023-07-23T07:46:27Z</time>
      </trkpt>
      <trkpt lat="44.00481" lon="1.89936">
        <ele>211.6</ele>
        <time>2023-07-23T07:46:28Z</time>
      </trkpt>
      <trkpt lat="44.00463" lon="1.8993">
        <ele>211</ele>
        <time>2023-07-23T07:46:31Z</time>
      </trkpt>
      <trkpt lat="44.00457" lon="1.89926">
        <ele>211</ele>
        <time>2023-07-23T07:46:32Z</time>
      </trkpt>
      <trkpt lat="44.00439" lon="1.89916">
        <ele>210.2</ele>
        <time>2023-07-23T07:46:35Z</time>
      </trkpt>
      <trkpt lat="44.00434" lon="1.89912">
        <ele>210</ele>
        <time>2023-07-23T07:46:36Z</time>
      </trkpt>
      <trkpt lat="44.00423" lon="1.89903">
        <ele>209.8</ele>
        <time>2023-07-23T07:46:38Z</time>
      </trkpt>
      <trkpt lat="44.00418" lon="1.89898">
        <ele>209.6</ele>
        <time>2023-07-23T07:46:39Z</time>
      </trkpt>
      <trkpt lat="44.00409" lon="1.89885">
        <ele>209</ele>
        <time>2023-07-23T07:46:41Z</time>
      </trkpt>
      <trkpt lat="44.00405" lon="1.89878">
        <ele>208.6</ele>
        <time>2023-07-23T07:46:42Z</time>
      </trkpt>
      <trkpt lat="44.00397" lon="1.89866">
        <ele>208</ele>
        <time>2023-07-23T07:46:44Z</time>
      </trkpt>
      <trkpt lat="44.00392" lon="1.89861">
        <ele>208</ele>
        <time>2023-07-23T07:46:45Z</time>
      </trkpt>
      <trkpt lat="44.00388" lon="1.89858">
        <ele>207.8</ele>
        <time>2023-07-23T07:46:46Z</time>
      </trkpt>
      <trkpt lat="44.00383" lon="1.89856">
        <ele>207.6</ele>
        <time>2023-07-23T07:46:47Z</time>
      </trkpt>
      <trkpt lat="44.00379" lon="1.89855">
        <ele>207.6</ele>
        <time>2023-07-23T07:46:48Z</time>
      </trkpt>
      <trkpt lat="44.00375" lon="1.89855">
        <ele>207.6</ele>
        <time>2023-07-23T07:46:49Z</time>
      </trkpt>
      <trkpt lat="44.00372" lon="1.89856">
        <ele>207.6</ele>
        <time>2023-07-23T07:46:50Z</time>
      </trkpt>
      <trkpt lat="44.00368" lon="1.89857">
        <ele>207.6</ele>
        <time>2023-07-23T07:46:51Z</time>
      </trkpt>
      <trkpt lat="44.00365" lon="1.89858">
        <ele>207.6</ele>
        <time>2023-07-23T07:46:52Z</time>
      </trkpt>
      <trkpt lat="44.00362" lon="1.8986">
        <ele>208</ele>
        <time>2023-07-23T07:46:53Z</time>
      </trkpt>
      <trkpt lat="44.00342" lon="1.89865">
        <ele>208.2</ele>
        <time>2023-07-23T07:46:58Z</time>
      </trkpt>
      <trkpt lat="44.00322" lon="1.89862">
        <ele>209</ele>
        <time>2023-07-23T07:47:03Z</time>
      </trkpt>
      <trkpt lat="44.00303" lon="1.89845">
        <ele>209.4</ele>
        <time>2023-07-23T07:47:08Z</time>
      </trkpt>
      <trkpt lat="44.00299" lon="1.89842">
        <ele>209.6</ele>
        <time>2023-07-23T07:47:09Z</time>
      </trkpt>
      <trkpt lat="44.00291" lon="1.89839">
        <ele>209.8</ele>
        <time>2023-07-23T07:47:11Z</time>
      </trkpt>
      <trkpt lat="44.00284" lon="1.8984">
        <ele>210</ele>
        <time>2023-07-23T07:47:13Z</time>
      </trkpt>
      <trkpt lat="44.0028" lon="1.8984">
        <ele>210</ele>
        <time>2023-07-23T07:47:14Z</time>
      </trkpt>
      <trkpt lat="44.00277" lon="1.8984">
        <ele>210</ele>
        <time>2023-07-23T07:47:15Z</time>
      </trkpt>
      <trkpt lat="44.00274" lon="1.89841">
        <ele>210.2</ele>
        <time>2023-07-23T07:47:16Z</time>
      </trkpt>
      <trkpt lat="44.00271" lon="1.89842">
        <ele>210.2</ele>
        <time>2023-07-23T07:47:17Z</time>
      </trkpt>
      <trkpt lat="44.00269" lon="1.89842">
        <ele>210.4</ele>
        <time>2023-07-23T07:47:18Z</time>
      </trkpt>
      <trkpt lat="44.00267" lon="1.89843">
        <ele>210.4</ele>
        <time>2023-07-23T07:47:19Z</time>
      </trkpt>
      <trkpt lat="44.00264" lon="1.89844">
        <ele>210.6</ele>
        <time>2023-07-23T07:47:20Z</time>
      </trkpt>
      <trkpt lat="44.00262" lon="1.89844">
        <ele>210.8</ele>
        <time>2023-07-23T07:47:21Z</time>
      </trkpt>
      <trkpt lat="44.0026" lon="1.89845">
        <ele>211</ele>
        <time>2023-07-23T07:47:22Z</time>
      </trkpt>
      <trkpt lat="44.00258" lon="1.89846">
        <ele>211.2</ele>
        <time>2023-07-23T07:47:23Z</time>
      </trkpt>
      <trkpt lat="44.00248" lon="1.89848">
        <ele>212.2</ele>
        <time>2023-07-23T07:47:27Z</time>
      </trkpt>
      <trkpt lat="44.00246" lon="1.89848">
        <ele>212.6</ele>
        <time>2023-07-23T07:47:28Z</time>
      </trkpt>
      <trkpt lat="44.00243" lon="1.89849">
        <ele>212.6</ele>
        <time>2023-07-23T07:47:29Z</time>
      </trkpt>
      <trkpt lat="44.00241" lon="1.8985">
        <ele>213</ele>
        <time>2023-07-23T07:47:30Z</time>
      </trkpt>
      <trkpt lat="44.00238" lon="1.89851">
        <ele>213.2</ele>
        <time>2023-07-23T07:47:31Z</time>
      </trkpt>
      <trkpt lat="44.00236" lon="1.89852">
        <ele>213.4</ele>
        <time>2023-07-23T07:47:32Z</time>
      </trkpt>
      <trkpt lat="44.00233" lon="1.89852">
        <ele>213.4</ele>
        <time>2023-07-23T07:47:33Z</time>
      </trkpt>
      <trkpt lat="44.00231" lon="1.89852">
        <ele>213.8</ele>
        <time>2023-07-23T07:47:34Z</time>
      </trkpt>
      <trkpt lat="44.00228" lon="1.89853">
        <ele>214</ele>
        <time>2023-07-23T07:47:35Z</time>
      </trkpt>
      <trkpt lat="44.00226" lon="1.89853">
        <ele>214.2</ele>
        <time>2023-07-23T07:47:36Z</time>
      </trkpt>
      <trkpt lat="44.00224" lon="1.89854">
        <ele>214.6</ele>
        <time>2023-07-23T07:47:37Z</time>
      </trkpt>
      <trkpt lat="44.00222" lon="1.89854">
        <ele>214.8</ele>
        <time>2023-07-23T07:47:38Z</time>
      </trkpt>
      <trkpt lat="44.00219" lon="1.89853">
        <ele>215</ele>
        <time>2023-07-23T07:47:39Z</time>
      </trkpt>
      <trkpt lat="44.00217" lon="1.89853">
        <ele>215.2</ele>
        <time>2023-07-23T07:47:40Z</time>
      </trkpt>
      <trkpt lat="44.00215" lon="1.89852">
        <ele>215.6</ele>
        <time>2023-07-23T07:47:41Z</time>
      </trkpt>
      <trkpt lat="44.00213" lon="1.89851">
        <ele>215.8</ele>
        <time>2023-07-23T07:47:42Z</time>
      </trkpt>
      <trkpt lat="44.00211" lon="1.8985">
        <ele>216</ele>
        <time>2023-07-23T07:47:43Z</time>
      </trkpt>
      <trkpt lat="44.00209" lon="1.89849">
        <ele>216.4</ele>
        <time>2023-07-23T07:47:44Z</time>
      </trkpt>
      <trkpt lat="44.00207" lon="1.89848">
        <ele>216.6</ele>
        <time>2023-07-23T07:47:45Z</time>
      </trkpt>
      <trkpt lat="44.00204" lon="1.89847">
        <ele>216.8</ele>
        <time>2023-07-23T07:47:46Z</time>
      </trkpt>
      <trkpt lat="44.00202" lon="1.89845">
        <ele>216.8</ele>
        <time>2023-07-23T07:47:47Z</time>
      </trkpt>
      <trkpt lat="44.002" lon="1.89843">
        <ele>217</ele>
        <time>2023-07-23T07:47:48Z</time>
      </trkpt>
      <trkpt lat="44.00198" lon="1.89841">
        <ele>217</ele>
        <time>2023-07-23T07:47:49Z</time>
      </trkpt>
      <trkpt lat="44.00196" lon="1.89838">
        <ele>217.2</ele>
        <time>2023-07-23T07:47:50Z</time>
      </trkpt>
      <trkpt lat="44.00194" lon="1.89836">
        <ele>217.6</ele>
        <time>2023-07-23T07:47:51Z</time>
      </trkpt>
      <trkpt lat="44.00192" lon="1.89833">
        <ele>217.8</ele>
        <time>2023-07-23T07:47:52Z</time>
      </trkpt>
      <trkpt lat="44.0019" lon="1.89831">
        <ele>218</ele>
        <time>2023-07-23T07:47:53Z</time>
      </trkpt>
      <trkpt lat="44.00189" lon="1.89828">
        <ele>218.2</ele>
        <time>2023-07-23T07:47:54Z</time>
      </trkpt>
      <trkpt lat="44.00187" lon="1.89826">
        <ele>218.4</ele>
        <time>2023-07-23T07:47:55Z</time>
      </trkpt>
      <trkpt lat="44.00186" lon="1.89823">
        <ele>218.4</ele>
        <time>2023-07-23T07:47:56Z</time>
      </trkpt>
      <trkpt lat="44.00185" lon="1.8982">
        <ele>218.8</ele>
        <time>2023-07-23T07:47:57Z</time>
      </trkpt>
      <trkpt lat="44.00183" lon="1.89818">
        <ele>218.8</ele>
        <time>2023-07-23T07:47:58Z</time>
      </trkpt>
      <trkpt lat="44.00182" lon="1.89815">
        <ele>219.2</ele>
        <time>2023-07-23T07:47:59Z</time>
      </trkpt>
      <trkpt lat="44.00181" lon="1.89812">
        <ele>219.4</ele>
        <time>2023-07-23T07:48:00Z</time>
      </trkpt>
      <trkpt lat="44.0018" lon="1.89809">
        <ele>219.6</ele>
        <time>2023-07-23T07:48:01Z</time>
      </trkpt>
      <trkpt lat="44.00179" lon="1.89805">
        <ele>219.8</ele>
        <time>2023-07-23T07:48:02Z</time>
      </trkpt>
      <trkpt lat="44.00178" lon="1.89802">
        <ele>219.8</ele>
        <time>2023-07-23T07:48:03Z</time>
      </trkpt>
      <trkpt lat="44.00177" lon="1.89799">
        <ele>219.8</ele>
        <time>2023-07-23T07:48:04Z</time>
      </trkpt>
      <trkpt lat="44.00176" lon="1.89795">
        <ele>220</ele>
        <time>2023-07-23T07:48:05Z</time>
      </trkpt>
      <trkpt lat="44.00176" lon="1.89791">
        <ele>220</ele>
        <time>2023-07-23T07:48:06Z</time>
      </trkpt>
      <trkpt lat="44.00176" lon="1.89786">
        <ele>220.2</ele>
        <time>2023-07-23T07:48:07Z</time>
      </trkpt>
      <trkpt lat="44.00175" lon="1.89781">
        <ele>220.4</ele>
        <time>2023-07-23T07:48:08Z</time>
      </trkpt>
      <trkpt lat="44.00175" lon="1.89777">
        <ele>220.6</ele>
        <time>2023-07-23T07:48:09Z</time>
      </trkpt>
      <trkpt lat="44.00175" lon="1.89772">
        <ele>220.8</ele>
        <time>2023-07-23T07:48:10Z</time>
      </trkpt>
      <trkpt lat="44.00174" lon="1.89767">
        <ele>221</ele>
        <time>2023-07-23T07:48:11Z</time>
      </trkpt>
      <trkpt lat="44.00174" lon="1.89762">
        <ele>221</ele>
        <time>2023-07-23T07:48:12Z</time>
      </trkpt>
      <trkpt lat="44.00174" lon="1.89758">
        <ele>221.2</ele>
        <time>2023-07-23T07:48:13Z</time>
      </trkpt>
      <trkpt lat="44.00173" lon="1.89753">
        <ele>221.2</ele>
        <time>2023-07-23T07:48:14Z</time>
      </trkpt>
      <trkpt lat="44.00173" lon="1.89748">
        <ele>221.2</ele>
        <time>2023-07-23T07:48:15Z</time>
      </trkpt>
      <trkpt lat="44.00172" lon="1.89742">
        <ele>221.4</ele>
        <time>2023-07-23T07:48:16Z</time>
      </trkpt>
      <trkpt lat="44.00172" lon="1.89737">
        <ele>221.4</ele>
        <time>2023-07-23T07:48:17Z</time>
      </trkpt>
      <trkpt lat="44.00172" lon="1.89731">
        <ele>221.4</ele>
        <time>2023-07-23T07:48:18Z</time>
      </trkpt>
      <trkpt lat="44.00172" lon="1.89726">
        <ele>221.4</ele>
        <time>2023-07-23T07:48:19Z</time>
      </trkpt>
      <trkpt lat="44.00171" lon="1.8972">
        <ele>221.8</ele>
        <time>2023-07-23T07:48:20Z</time>
      </trkpt>
      <trkpt lat="44.00171" lon="1.89715">
        <ele>221.8</ele>
        <time>2023-07-23T07:48:21Z</time>
      </trkpt>
      <trkpt lat="44.0017" lon="1.8971">
        <ele>221.8</ele>
        <time>2023-07-23T07:48:22Z</time>
      </trkpt>
      <trkpt lat="44.0017" lon="1.89704">
        <ele>222</ele>
        <time>2023-07-23T07:48:23Z</time>
      </trkpt>
      <trkpt lat="44.00169" lon="1.89699">
        <ele>222</ele>
        <time>2023-07-23T07:48:24Z</time>
      </trkpt>
      <trkpt lat="44.00168" lon="1.89694">
        <ele>222</ele>
        <time>2023-07-23T07:48:25Z</time>
      </trkpt>
      <trkpt lat="44.00167" lon="1.89689">
        <ele>222.2</ele>
        <time>2023-07-23T07:48:26Z</time>
      </trkpt>
      <trkpt lat="44.00167" lon="1.89683">
        <ele>222.2</ele>
        <time>2023-07-23T07:48:27Z</time>
      </trkpt>
      <trkpt lat="44.00166" lon="1.89677">
        <ele>222.2</ele>
        <time>2023-07-23T07:48:28Z</time>
      </trkpt>
      <trkpt lat="44.00165" lon="1.89672">
        <ele>222.4</ele>
        <time>2023-07-23T07:48:29Z</time>
      </trkpt>
      <trkpt lat="44.00164" lon="1.89666">
        <ele>222.4</ele>
        <time>2023-07-23T07:48:30Z</time>
      </trkpt>
      <trkpt lat="44.00162" lon="1.89661">
        <ele>222.4</ele>
        <time>2023-07-23T07:48:31Z</time>
      </trkpt>
      <trkpt lat="44.00161" lon="1.89655">
        <ele>222.6</ele>
        <time>2023-07-23T07:48:32Z</time>
      </trkpt>
      <trkpt lat="44.00159" lon="1.8965">
        <ele>222.6</ele>
        <time>2023-07-23T07:48:33Z</time>
      </trkpt>
      <trkpt lat="44.0015" lon="1.89617">
        <ele>222.6</ele>
        <time>2023-07-23T07:48:38Z</time>
      </trkpt>
      <trkpt lat="44.00138" lon="1.89573">
        <ele>222.4</ele>
        <time>2023-07-23T07:48:44Z</time>
      </trkpt>
      <trkpt lat="44.00136" lon="1.89566">
        <ele>222.2</ele>
        <time>2023-07-23T07:48:45Z</time>
      </trkpt>
      <trkpt lat="44.00121" lon="1.89532">
        <ele>221.4</ele>
        <time>2023-07-23T07:48:50Z</time>
      </trkpt>
      <trkpt lat="44.00107" lon="1.89508">
        <ele>221</ele>
        <time>2023-07-23T07:48:54Z</time>
      </trkpt>
      <trkpt lat="44.00104" lon="1.89502">
        <ele>221</ele>
        <time>2023-07-23T07:48:55Z</time>
      </trkpt>
      <trkpt lat="44.001" lon="1.89497">
        <ele>221</ele>
        <time>2023-07-23T07:48:56Z</time>
      </trkpt>
      <trkpt lat="44.00097" lon="1.89491">
        <ele>221</ele>
        <time>2023-07-23T07:48:57Z</time>
      </trkpt>
      <trkpt lat="44.00093" lon="1.89486">
        <ele>221</ele>
        <time>2023-07-23T07:48:58Z</time>
      </trkpt>
      <trkpt lat="44.0009" lon="1.8948">
        <ele>221.2</ele>
        <time>2023-07-23T07:48:59Z</time>
      </trkpt>
      <trkpt lat="44.00087" lon="1.89475">
        <ele>221.2</ele>
        <time>2023-07-23T07:49:00Z</time>
      </trkpt>
      <trkpt lat="44.00084" lon="1.89469">
        <ele>221.2</ele>
        <time>2023-07-23T07:49:01Z</time>
      </trkpt>
      <trkpt lat="44.00081" lon="1.89456">
        <ele>221.4</ele>
        <time>2023-07-23T07:49:03Z</time>
      </trkpt>
      <trkpt lat="44.0008" lon="1.89449">
        <ele>221.6</ele>
        <time>2023-07-23T07:49:04Z</time>
      </trkpt>
      <trkpt lat="44.00079" lon="1.89435">
        <ele>221.8</ele>
        <time>2023-07-23T07:49:06Z</time>
      </trkpt>
      <trkpt lat="44.00078" lon="1.89429">
        <ele>222</ele>
        <time>2023-07-23T07:49:07Z</time>
      </trkpt>
      <trkpt lat="44.00077" lon="1.89422">
        <ele>222.2</ele>
        <time>2023-07-23T07:49:08Z</time>
      </trkpt>
      <trkpt lat="44.00077" lon="1.89415">
        <ele>222.2</ele>
        <time>2023-07-23T07:49:09Z</time>
      </trkpt>
      <trkpt lat="44.00077" lon="1.89409">
        <ele>222.4</ele>
        <time>2023-07-23T07:49:10Z</time>
      </trkpt>
      <trkpt lat="44.00077" lon="1.89402">
        <ele>222.6</ele>
        <time>2023-07-23T07:49:11Z</time>
      </trkpt>
      <trkpt lat="44.00077" lon="1.89395">
        <ele>222.6</ele>
        <time>2023-07-23T07:49:12Z</time>
      </trkpt>
      <trkpt lat="44.00074" lon="1.89368">
        <ele>223.2</ele>
        <time>2023-07-23T07:49:16Z</time>
      </trkpt>
      <trkpt lat="44.00073" lon="1.89363">
        <ele>223.4</ele>
        <time>2023-07-23T07:49:17Z</time>
      </trkpt>
      <trkpt lat="44.00071" lon="1.89358">
        <ele>223.4</ele>
        <time>2023-07-23T07:49:18Z</time>
      </trkpt>
      <trkpt lat="44.00069" lon="1.89354">
        <ele>223.6</ele>
        <time>2023-07-23T07:49:19Z</time>
      </trkpt>
      <trkpt lat="44.00066" lon="1.8935">
        <ele>223.8</ele>
        <time>2023-07-23T07:49:20Z</time>
      </trkpt>
      <trkpt lat="44.00064" lon="1.89346">
        <ele>224</ele>
        <time>2023-07-23T07:49:21Z</time>
      </trkpt>
      <trkpt lat="44.00061" lon="1.89343">
        <ele>224.2</ele>
        <time>2023-07-23T07:49:22Z</time>
      </trkpt>
      <trkpt lat="44.00059" lon="1.89339">
        <ele>224.4</ele>
        <time>2023-07-23T07:49:23Z</time>
      </trkpt>
      <trkpt lat="44.00056" lon="1.89336">
        <ele>224.8</ele>
        <time>2023-07-23T07:49:24Z</time>
      </trkpt>
      <trkpt lat="44.0005" lon="1.89331">
        <ele>225.2</ele>
        <time>2023-07-23T07:49:26Z</time>
      </trkpt>
      <trkpt lat="44.00047" lon="1.89328">
        <ele>225.4</ele>
        <time>2023-07-23T07:49:27Z</time>
      </trkpt>
      <trkpt lat="44.00045" lon="1.89325">
        <ele>225.6</ele>
        <time>2023-07-23T07:49:28Z</time>
      </trkpt>
      <trkpt lat="44.00042" lon="1.89322">
        <ele>225.8</ele>
        <time>2023-07-23T07:49:29Z</time>
      </trkpt>
      <trkpt lat="44.00039" lon="1.8932">
        <ele>226</ele>
        <time>2023-07-23T07:49:30Z</time>
      </trkpt>
      <trkpt lat="44.00036" lon="1.89317">
        <ele>226.4</ele>
        <time>2023-07-23T07:49:31Z</time>
      </trkpt>
      <trkpt lat="44.00034" lon="1.89313">
        <ele>226.6</ele>
        <time>2023-07-23T07:49:32Z</time>
      </trkpt>
      <trkpt lat="44.00032" lon="1.89309">
        <ele>226.8</ele>
        <time>2023-07-23T07:49:33Z</time>
      </trkpt>
      <trkpt lat="44.0003" lon="1.89305">
        <ele>227</ele>
        <time>2023-07-23T07:49:34Z</time>
      </trkpt>
      <trkpt lat="44.00029" lon="1.89301">
        <ele>227.2</ele>
        <time>2023-07-23T07:49:35Z</time>
      </trkpt>
      <trkpt lat="44.00027" lon="1.89296">
        <ele>227.4</ele>
        <time>2023-07-23T07:49:36Z</time>
      </trkpt>
      <trkpt lat="44.00026" lon="1.89291">
        <ele>227.6</ele>
        <time>2023-07-23T07:49:37Z</time>
      </trkpt>
      <trkpt lat="44.00024" lon="1.89287">
        <ele>227.8</ele>
        <time>2023-07-23T07:49:38Z</time>
      </trkpt>
      <trkpt lat="44.00023" lon="1.89281">
        <ele>228</ele>
        <time>2023-07-23T07:49:39Z</time>
      </trkpt>
      <trkpt lat="44.00022" lon="1.89276">
        <ele>228.2</ele>
        <time>2023-07-23T07:49:40Z</time>
      </trkpt>
      <trkpt lat="44.00021" lon="1.89271">
        <ele>228.4</ele>
        <time>2023-07-23T07:49:41Z</time>
      </trkpt>
      <trkpt lat="44.00019" lon="1.89266">
        <ele>228.6</ele>
        <time>2023-07-23T07:49:42Z</time>
      </trkpt>
      <trkpt lat="44.00018" lon="1.89261">
        <ele>228.6</ele>
        <time>2023-07-23T07:49:43Z</time>
      </trkpt>
      <trkpt lat="44.00017" lon="1.89256">
        <ele>228.8</ele>
        <time>2023-07-23T07:49:44Z</time>
      </trkpt>
      <trkpt lat="44.00016" lon="1.8925">
        <ele>229</ele>
        <time>2023-07-23T07:49:45Z</time>
      </trkpt>
      <trkpt lat="44.00014" lon="1.89244">
        <ele>229</ele>
        <time>2023-07-23T07:49:46Z</time>
      </trkpt>
      <trkpt lat="44.00013" lon="1.89239">
        <ele>229</ele>
        <time>2023-07-23T07:49:47Z</time>
      </trkpt>
      <trkpt lat="44.00012" lon="1.89234">
        <ele>229.2</ele>
        <time>2023-07-23T07:49:48Z</time>
      </trkpt>
      <trkpt lat="44.00011" lon="1.89228">
        <ele>229.2</ele>
        <time>2023-07-23T07:49:49Z</time>
      </trkpt>
      <trkpt lat="44.00011" lon="1.89222">
        <ele>229.4</ele>
        <time>2023-07-23T07:49:50Z</time>
      </trkpt>
      <trkpt lat="44.0001" lon="1.89215">
        <ele>229.4</ele>
        <time>2023-07-23T07:49:51Z</time>
      </trkpt>
      <trkpt lat="44.00009" lon="1.89209">
        <ele>229.4</ele>
        <time>2023-07-23T07:49:52Z</time>
      </trkpt>
      <trkpt lat="44.00008" lon="1.89202">
        <ele>229.4</ele>
        <time>2023-07-23T07:49:53Z</time>
      </trkpt>
      <trkpt lat="44.00008" lon="1.89196">
        <ele>229.6</ele>
        <time>2023-07-23T07:49:54Z</time>
      </trkpt>
      <trkpt lat="44.00007" lon="1.89189">
        <ele>229.6</ele>
        <time>2023-07-23T07:49:55Z</time>
      </trkpt>
      <trkpt lat="44.00007" lon="1.89183">
        <ele>229.6</ele>
        <time>2023-07-23T07:49:56Z</time>
      </trkpt>
      <trkpt lat="44.00006" lon="1.89176">
        <ele>229.6</ele>
        <time>2023-07-23T07:49:57Z</time>
      </trkpt>
      <trkpt lat="44.00005" lon="1.89169">
        <ele>229.6</ele>
        <time>2023-07-23T07:49:58Z</time>
      </trkpt>
      <trkpt lat="44.00004" lon="1.89162">
        <ele>229.6</ele>
        <time>2023-07-23T07:49:59Z</time>
      </trkpt>
      <trkpt lat="44.00003" lon="1.89155">
        <ele>229.6</ele>
        <time>2023-07-23T07:50:00Z</time>
      </trkpt>
      <trkpt lat="44.00001" lon="1.89148">
        <ele>229.6</ele>
        <time>2023-07-23T07:50:01Z</time>
      </trkpt>
      <trkpt lat="43.99999" lon="1.89142">
        <ele>229.6</ele>
        <time>2023-07-23T07:50:02Z</time>
      </trkpt>
      <trkpt lat="43.99998" lon="1.89136">
        <ele>229.6</ele>
        <time>2023-07-23T07:50:03Z</time>
      </trkpt>
      <trkpt lat="43.99996" lon="1.8913">
        <ele>229.6</ele>
        <time>2023-07-23T07:50:04Z</time>
      </trkpt>
      <trkpt lat="43.99993" lon="1.89124">
        <ele>229.4</ele>
        <time>2023-07-23T07:50:05Z</time>
      </trkpt>
      <trkpt lat="43.9999" lon="1.89118">
        <ele>229.4</ele>
        <time>2023-07-23T07:50:06Z</time>
      </trkpt>
      <trkpt lat="43.9998" lon="1.89104">
        <ele>229.2</ele>
        <time>2023-07-23T07:50:09Z</time>
      </trkpt>
      <trkpt lat="43.99975" lon="1.891">
        <ele>229.2</ele>
        <time>2023-07-23T07:50:10Z</time>
      </trkpt>
      <trkpt lat="43.99953" lon="1.89083">
        <ele>229</ele>
        <time>2023-07-23T07:50:15Z</time>
      </trkpt>
      <trkpt lat="43.9995" lon="1.8908">
        <ele>229</ele>
        <time>2023-07-23T07:50:16Z</time>
      </trkpt>
      <trkpt lat="43.99947" lon="1.89077">
        <ele>229</ele>
        <time>2023-07-23T07:50:17Z</time>
      </trkpt>
      <trkpt lat="43.99945" lon="1.89073">
        <ele>229</ele>
        <time>2023-07-23T07:50:18Z</time>
      </trkpt>
      <trkpt lat="43.99943" lon="1.8907">
        <ele>229</ele>
        <time>2023-07-23T07:50:19Z</time>
      </trkpt>
      <trkpt lat="43.99942" lon="1.89067">
        <ele>229.2</ele>
        <time>2023-07-23T07:50:20Z</time>
      </trkpt>
      <trkpt lat="43.99943" lon="1.89064">
        <ele>229.4</ele>
        <time>2023-07-23T07:50:21Z</time>
      </trkpt>
      <trkpt lat="43.99943" lon="1.89061">
        <ele>229.4</ele>
        <time>2023-07-23T07:50:22Z</time>
      </trkpt>
      <trkpt lat="43.99944" lon="1.89058">
        <ele>230</ele>
        <time>2023-07-23T07:50:23Z</time>
      </trkpt>
      <trkpt lat="43.99945" lon="1.89055">
        <ele>230.4</ele>
        <time>2023-07-23T07:50:24Z</time>
      </trkpt>
      <trkpt lat="43.99946" lon="1.89052">
        <ele>230.6</ele>
        <time>2023-07-23T07:50:25Z</time>
      </trkpt>
      <trkpt lat="43.99947" lon="1.89048">
        <ele>231</ele>
        <time>2023-07-23T07:50:26Z</time>
      </trkpt>
      <trkpt lat="43.99949" lon="1.89042">
        <ele>231.8</ele>
        <time>2023-07-23T07:50:28Z</time>
      </trkpt>
      <trkpt lat="43.9995" lon="1.89039">
        <ele>232</ele>
        <time>2023-07-23T07:50:29Z</time>
      </trkpt>
      <trkpt lat="43.99953" lon="1.89026">
        <ele>233</ele>
        <time>2023-07-23T07:50:33Z</time>
      </trkpt>
      <trkpt lat="43.99954" lon="1.89022">
        <ele>233.2</ele>
        <time>2023-07-23T07:50:34Z</time>
      </trkpt>
      <trkpt lat="43.99954" lon="1.89019">
        <ele>233.4</ele>
        <time>2023-07-23T07:50:35Z</time>
      </trkpt>
      <trkpt lat="43.99955" lon="1.89015">
        <ele>233.6</ele>
        <time>2023-07-23T07:50:36Z</time>
      </trkpt>
      <trkpt lat="43.99955" lon="1.89012">
        <ele>234</ele>
        <time>2023-07-23T07:50:37Z</time>
      </trkpt>
      <trkpt lat="43.99956" lon="1.89008">
        <ele>234.2</ele>
        <time>2023-07-23T07:50:38Z</time>
      </trkpt>
      <trkpt lat="43.99956" lon="1.89005">
        <ele>234.4</ele>
        <time>2023-07-23T07:50:39Z</time>
      </trkpt>
      <trkpt lat="43.99956" lon="1.89001">
        <ele>234.4</ele>
        <time>2023-07-23T07:50:40Z</time>
      </trkpt>
      <trkpt lat="43.99956" lon="1.88997">
        <ele>234.6</ele>
        <time>2023-07-23T07:50:41Z</time>
      </trkpt>
      <trkpt lat="43.99956" lon="1.88994">
        <ele>235</ele>
        <time>2023-07-23T07:50:42Z</time>
      </trkpt>
      <trkpt lat="43.99956" lon="1.8899">
        <ele>235</ele>
        <time>2023-07-23T07:50:43Z</time>
      </trkpt>
      <trkpt lat="43.99956" lon="1.88987">
        <ele>235.2</ele>
        <time>2023-07-23T07:50:44Z</time>
      </trkpt>
      <trkpt lat="43.99956" lon="1.88983">
        <ele>235.4</ele>
        <time>2023-07-23T07:50:45Z</time>
      </trkpt>
      <trkpt lat="43.99956" lon="1.88979">
        <ele>235.6</ele>
        <time>2023-07-23T07:50:46Z</time>
      </trkpt>
      <trkpt lat="43.99955" lon="1.88975">
        <ele>235.6</ele>
        <time>2023-07-23T07:50:47Z</time>
      </trkpt>
      <trkpt lat="43.99954" lon="1.88972">
        <ele>236</ele>
        <time>2023-07-23T07:50:48Z</time>
      </trkpt>
      <trkpt lat="43.99953" lon="1.88969">
        <ele>236.2</ele>
        <time>2023-07-23T07:50:49Z</time>
      </trkpt>
      <trkpt lat="43.99951" lon="1.88967">
        <ele>236.4</ele>
        <time>2023-07-23T07:50:50Z</time>
      </trkpt>
      <trkpt lat="43.99949" lon="1.88964">
        <ele>236.6</ele>
        <time>2023-07-23T07:50:51Z</time>
      </trkpt>
      <trkpt lat="43.99947" lon="1.88962">
        <ele>236.8</ele>
        <time>2023-07-23T07:50:52Z</time>
      </trkpt>
      <trkpt lat="43.99946" lon="1.8896">
        <ele>237</ele>
        <time>2023-07-23T07:50:53Z</time>
      </trkpt>
      <trkpt lat="43.99945" lon="1.88958">
        <ele>237</ele>
        <time>2023-07-23T07:50:54Z</time>
      </trkpt>
      <trkpt lat="43.99944" lon="1.88955">
        <ele>237.4</ele>
        <time>2023-07-23T07:50:55Z</time>
      </trkpt>
      <trkpt lat="43.99943" lon="1.88952">
        <ele>237.6</ele>
        <time>2023-07-23T07:50:56Z</time>
      </trkpt>
      <trkpt lat="43.99942" lon="1.88949">
        <ele>237.6</ele>
        <time>2023-07-23T07:50:57Z</time>
      </trkpt>
      <trkpt lat="43.99942" lon="1.88946">
        <ele>237.8</ele>
        <time>2023-07-23T07:50:58Z</time>
      </trkpt>
      <trkpt lat="43.99941" lon="1.88943">
        <ele>237.8</ele>
        <time>2023-07-23T07:50:59Z</time>
      </trkpt>
      <trkpt lat="43.9994" lon="1.8894">
        <ele>238</ele>
        <time>2023-07-23T07:51:00Z</time>
      </trkpt>
      <trkpt lat="43.99939" lon="1.88937">
        <ele>238</ele>
        <time>2023-07-23T07:51:01Z</time>
      </trkpt>
      <trkpt lat="43.99939" lon="1.88934">
        <ele>238.2</ele>
        <time>2023-07-23T07:51:02Z</time>
      </trkpt>
      <trkpt lat="43.99938" lon="1.88931">
        <ele>238.4</ele>
        <time>2023-07-23T07:51:03Z</time>
      </trkpt>
      <trkpt lat="43.99937" lon="1.88929">
        <ele>238.4</ele>
        <time>2023-07-23T07:51:04Z</time>
      </trkpt>
      <trkpt lat="43.99937" lon="1.88926">
        <ele>238.6</ele>
        <time>2023-07-23T07:51:05Z</time>
      </trkpt>
      <trkpt lat="43.99937" lon="1.88923">
        <ele>238.6</ele>
        <time>2023-07-23T07:51:06Z</time>
      </trkpt>
      <trkpt lat="43.99936" lon="1.88921">
        <ele>238.8</ele>
        <time>2023-07-23T07:51:07Z</time>
      </trkpt>
      <trkpt lat="43.99936" lon="1.88918">
        <ele>238.8</ele>
        <time>2023-07-23T07:51:08Z</time>
      </trkpt>
      <trkpt lat="43.99935" lon="1.88916">
        <ele>238.8</ele>
        <time>2023-07-23T07:51:09Z</time>
      </trkpt>
      <trkpt lat="43.99935" lon="1.88913">
        <ele>239</ele>
        <time>2023-07-23T07:51:10Z</time>
      </trkpt>
      <trkpt lat="43.99934" lon="1.88911">
        <ele>239.2</ele>
        <time>2023-07-23T07:51:11Z</time>
      </trkpt>
      <trkpt lat="43.99934" lon="1.88908">
        <ele>239.2</ele>
        <time>2023-07-23T07:51:12Z</time>
      </trkpt>
      <trkpt lat="43.99933" lon="1.88906">
        <ele>239.4</ele>
        <time>2023-07-23T07:51:13Z</time>
      </trkpt>
      <trkpt lat="43.99933" lon="1.88904">
        <ele>239.4</ele>
        <time>2023-07-23T07:51:14Z</time>
      </trkpt>
      <trkpt lat="43.99933" lon="1.88901">
        <ele>239.4</ele>
        <time>2023-07-23T07:51:15Z</time>
      </trkpt>
      <trkpt lat="43.99932" lon="1.88899">
        <ele>239.6</ele>
        <time>2023-07-23T07:51:16Z</time>
      </trkpt>
      <trkpt lat="43.99931" lon="1.88896">
        <ele>239.6</ele>
        <time>2023-07-23T07:51:17Z</time>
      </trkpt>
      <trkpt lat="43.99931" lon="1.88893">
        <ele>239.8</ele>
        <time>2023-07-23T07:51:18Z</time>
      </trkpt>
      <trkpt lat="43.99931" lon="1.88891">
        <ele>240</ele>
        <time>2023-07-23T07:51:19Z</time>
      </trkpt>
      <trkpt lat="43.99931" lon="1.88888">
        <ele>240</ele>
        <time>2023-07-23T07:51:20Z</time>
      </trkpt>
      <trkpt lat="43.9993" lon="1.88885">
        <ele>240.2</ele>
        <time>2023-07-23T07:51:21Z</time>
      </trkpt>
      <trkpt lat="43.9993" lon="1.88883">
        <ele>240.2</ele>
        <time>2023-07-23T07:51:22Z</time>
      </trkpt>
      <trkpt lat="43.99929" lon="1.88881">
        <ele>240.4</ele>
        <time>2023-07-23T07:51:23Z</time>
      </trkpt>
      <trkpt lat="43.99929" lon="1.88878">
        <ele>240.4</ele>
        <time>2023-07-23T07:51:24Z</time>
      </trkpt>
      <trkpt lat="43.99929" lon="1.88876">
        <ele>240.4</ele>
        <time>2023-07-23T07:51:25Z</time>
      </trkpt>
      <trkpt lat="43.99929" lon="1.88873">
        <ele>240.6</ele>
        <time>2023-07-23T07:51:26Z</time>
      </trkpt>
      <trkpt lat="43.99928" lon="1.88871">
        <ele>240.8</ele>
        <time>2023-07-23T07:51:27Z</time>
      </trkpt>
      <trkpt lat="43.99928" lon="1.88867">
        <ele>240.8</ele>
        <time>2023-07-23T07:51:28Z</time>
      </trkpt>
      <trkpt lat="43.99928" lon="1.88864">
        <ele>241</ele>
        <time>2023-07-23T07:51:29Z</time>
      </trkpt>
      <trkpt lat="43.99927" lon="1.88861">
        <ele>241</ele>
        <time>2023-07-23T07:51:30Z</time>
      </trkpt>
      <trkpt lat="43.99927" lon="1.88859">
        <ele>241.2</ele>
        <time>2023-07-23T07:51:31Z</time>
      </trkpt>
      <trkpt lat="43.99927" lon="1.88857">
        <ele>241.4</ele>
        <time>2023-07-23T07:51:32Z</time>
      </trkpt>
      <trkpt lat="43.99927" lon="1.88854">
        <ele>241.6</ele>
        <time>2023-07-23T07:51:33Z</time>
      </trkpt>
      <trkpt lat="43.99926" lon="1.88851">
        <ele>241.6</ele>
        <time>2023-07-23T07:51:34Z</time>
      </trkpt>
      <trkpt lat="43.99925" lon="1.88849">
        <ele>241.6</ele>
        <time>2023-07-23T07:51:35Z</time>
      </trkpt>
      <trkpt lat="43.99925" lon="1.88846">
        <ele>241.8</ele>
        <time>2023-07-23T07:51:36Z</time>
      </trkpt>
      <trkpt lat="43.99924" lon="1.88844">
        <ele>241.8</ele>
        <time>2023-07-23T07:51:37Z</time>
      </trkpt>
      <trkpt lat="43.99924" lon="1.88841">
        <ele>242</ele>
        <time>2023-07-23T07:51:38Z</time>
      </trkpt>
      <trkpt lat="43.99923" lon="1.88838">
        <ele>242.2</ele>
        <time>2023-07-23T07:51:39Z</time>
      </trkpt>
      <trkpt lat="43.99923" lon="1.88835">
        <ele>242.2</ele>
        <time>2023-07-23T07:51:40Z</time>
      </trkpt>
      <trkpt lat="43.99922" lon="1.88832">
        <ele>242.4</ele>
        <time>2023-07-23T07:51:41Z</time>
      </trkpt>
      <trkpt lat="43.99922" lon="1.88829">
        <ele>242.4</ele>
        <time>2023-07-23T07:51:42Z</time>
      </trkpt>
      <trkpt lat="43.99921" lon="1.88827">
        <ele>242.8</ele>
        <time>2023-07-23T07:51:43Z</time>
      </trkpt>
      <trkpt lat="43.9992" lon="1.88824">
        <ele>243</ele>
        <time>2023-07-23T07:51:44Z</time>
      </trkpt>
      <trkpt lat="43.9992" lon="1.88822">
        <ele>243</ele>
        <time>2023-07-23T07:51:45Z</time>
      </trkpt>
      <trkpt lat="43.99919" lon="1.8882">
        <ele>243.2</ele>
        <time>2023-07-23T07:51:46Z</time>
      </trkpt>
      <trkpt lat="43.99918" lon="1.88818">
        <ele>243.2</ele>
        <time>2023-07-23T07:51:47Z</time>
      </trkpt>
      <trkpt lat="43.99917" lon="1.88815">
        <ele>243.4</ele>
        <time>2023-07-23T07:51:48Z</time>
      </trkpt>
      <trkpt lat="43.99916" lon="1.88813">
        <ele>243.4</ele>
        <time>2023-07-23T07:51:49Z</time>
      </trkpt>
      <trkpt lat="43.99915" lon="1.88811">
        <ele>243.6</ele>
        <time>2023-07-23T07:51:50Z</time>
      </trkpt>
      <trkpt lat="43.99914" lon="1.88809">
        <ele>243.6</ele>
        <time>2023-07-23T07:51:51Z</time>
      </trkpt>
      <trkpt lat="43.99912" lon="1.88807">
        <ele>244</ele>
        <time>2023-07-23T07:51:52Z</time>
      </trkpt>
      <trkpt lat="43.99911" lon="1.88805">
        <ele>244.2</ele>
        <time>2023-07-23T07:51:53Z</time>
      </trkpt>
      <trkpt lat="43.99909" lon="1.88803">
        <ele>244.2</ele>
        <time>2023-07-23T07:51:54Z</time>
      </trkpt>
      <trkpt lat="43.99908" lon="1.88801">
        <ele>244.4</ele>
        <time>2023-07-23T07:51:55Z</time>
      </trkpt>
      <trkpt lat="43.99906" lon="1.88799">
        <ele>244.6</ele>
        <time>2023-07-23T07:51:56Z</time>
      </trkpt>
      <trkpt lat="43.99905" lon="1.88797">
        <ele>245</ele>
        <time>2023-07-23T07:51:57Z</time>
      </trkpt>
      <trkpt lat="43.99903" lon="1.88795">
        <ele>245</ele>
        <time>2023-07-23T07:51:58Z</time>
      </trkpt>
      <trkpt lat="43.99902" lon="1.88793">
        <ele>245.4</ele>
        <time>2023-07-23T07:51:59Z</time>
      </trkpt>
      <trkpt lat="43.999" lon="1.88791">
        <ele>245.6</ele>
        <time>2023-07-23T07:52:00Z</time>
      </trkpt>
      <trkpt lat="43.99899" lon="1.88789">
        <ele>245.8</ele>
        <time>2023-07-23T07:52:01Z</time>
      </trkpt>
      <trkpt lat="43.99897" lon="1.88786">
        <ele>246</ele>
        <time>2023-07-23T07:52:02Z</time>
      </trkpt>
      <trkpt lat="43.99896" lon="1.88785">
        <ele>246.2</ele>
        <time>2023-07-23T07:52:03Z</time>
      </trkpt>
      <trkpt lat="43.99895" lon="1.88783">
        <ele>246.4</ele>
        <time>2023-07-23T07:52:04Z</time>
      </trkpt>
      <trkpt lat="43.99894" lon="1.8878">
        <ele>246.4</ele>
        <time>2023-07-23T07:52:05Z</time>
      </trkpt>
      <trkpt lat="43.99892" lon="1.88778">
        <ele>246.8</ele>
        <time>2023-07-23T07:52:06Z</time>
      </trkpt>
      <trkpt lat="43.99891" lon="1.88776">
        <ele>246.8</ele>
        <time>2023-07-23T07:52:07Z</time>
      </trkpt>
      <trkpt lat="43.9989" lon="1.88774">
        <ele>247.4</ele>
        <time>2023-07-23T07:52:08Z</time>
      </trkpt>
      <trkpt lat="43.99889" lon="1.88772">
        <ele>247.8</ele>
        <time>2023-07-23T07:52:09Z</time>
      </trkpt>
      <trkpt lat="43.99887" lon="1.8877">
        <ele>247.8</ele>
        <time>2023-07-23T07:52:10Z</time>
      </trkpt>
      <trkpt lat="43.99886" lon="1.88767">
        <ele>248.2</ele>
        <time>2023-07-23T07:52:11Z</time>
      </trkpt>
      <trkpt lat="43.99885" lon="1.88765">
        <ele>248.2</ele>
        <time>2023-07-23T07:52:12Z</time>
      </trkpt>
      <trkpt lat="43.99883" lon="1.88763">
        <ele>248.4</ele>
        <time>2023-07-23T07:52:13Z</time>
      </trkpt>
      <trkpt lat="43.99882" lon="1.8876">
        <ele>248.8</ele>
        <time>2023-07-23T07:52:14Z</time>
      </trkpt>
      <trkpt lat="43.99881" lon="1.88758">
        <ele>249.2</ele>
        <time>2023-07-23T07:52:15Z</time>
      </trkpt>
      <trkpt lat="43.9988" lon="1.88756">
        <ele>249.8</ele>
        <time>2023-07-23T07:52:16Z</time>
      </trkpt>
      <trkpt lat="43.99879" lon="1.88754">
        <ele>250</ele>
        <time>2023-07-23T07:52:17Z</time>
      </trkpt>
      <trkpt lat="43.99878" lon="1.88751">
        <ele>250.2</ele>
        <time>2023-07-23T07:52:18Z</time>
      </trkpt>
      <trkpt lat="43.99877" lon="1.88749">
        <ele>250.4</ele>
        <time>2023-07-23T07:52:19Z</time>
      </trkpt>
      <trkpt lat="43.99876" lon="1.88747">
        <ele>250.8</ele>
        <time>2023-07-23T07:52:20Z</time>
      </trkpt>
      <trkpt lat="43.99874" lon="1.88745">
        <ele>251</ele>
        <time>2023-07-23T07:52:21Z</time>
      </trkpt>
      <trkpt lat="43.99873" lon="1.88743">
        <ele>251.2</ele>
        <time>2023-07-23T07:52:22Z</time>
      </trkpt>
      <trkpt lat="43.99872" lon="1.88741">
        <ele>251.4</ele>
        <time>2023-07-23T07:52:23Z</time>
      </trkpt>
      <trkpt lat="43.99871" lon="1.88739">
        <ele>251.6</ele>
        <time>2023-07-23T07:52:24Z</time>
      </trkpt>
      <trkpt lat="43.9987" lon="1.88736">
        <ele>251.8</ele>
        <time>2023-07-23T07:52:25Z</time>
      </trkpt>
      <trkpt lat="43.99869" lon="1.88735">
        <ele>251.8</ele>
        <time>2023-07-23T07:52:26Z</time>
      </trkpt>
      <trkpt lat="43.99868" lon="1.88733">
        <ele>252.2</ele>
        <time>2023-07-23T07:52:27Z</time>
      </trkpt>
      <trkpt lat="43.99867" lon="1.8873">
        <ele>252.2</ele>
        <time>2023-07-23T07:52:28Z</time>
      </trkpt>
      <trkpt lat="43.99865" lon="1.88728">
        <ele>252.6</ele>
        <time>2023-07-23T07:52:29Z</time>
      </trkpt>
      <trkpt lat="43.99864" lon="1.88727">
        <ele>252.8</ele>
        <time>2023-07-23T07:52:30Z</time>
      </trkpt>
      <trkpt lat="43.99863" lon="1.88725">
        <ele>253.2</ele>
        <time>2023-07-23T07:52:31Z</time>
      </trkpt>
      <trkpt lat="43.99862" lon="1.88723">
        <ele>253.6</ele>
        <time>2023-07-23T07:52:32Z</time>
      </trkpt>
      <trkpt lat="43.99861" lon="1.88721">
        <ele>254</ele>
        <time>2023-07-23T07:52:33Z</time>
      </trkpt>
      <trkpt lat="43.9986" lon="1.88718">
        <ele>254.2</ele>
        <time>2023-07-23T07:52:34Z</time>
      </trkpt>
      <trkpt lat="43.99859" lon="1.88716">
        <ele>254.2</ele>
        <time>2023-07-23T07:52:35Z</time>
      </trkpt>
      <trkpt lat="43.99859" lon="1.88714">
        <ele>254.4</ele>
        <time>2023-07-23T07:52:36Z</time>
      </trkpt>
      <trkpt lat="43.99858" lon="1.88712">
        <ele>254.4</ele>
        <time>2023-07-23T07:52:37Z</time>
      </trkpt>
      <trkpt lat="43.99856" lon="1.8871">
        <ele>254.6</ele>
        <time>2023-07-23T07:52:38Z</time>
      </trkpt>
      <trkpt lat="43.99855" lon="1.88708">
        <ele>254.8</ele>
        <time>2023-07-23T07:52:39Z</time>
      </trkpt>
      <trkpt lat="43.99854" lon="1.88706">
        <ele>255</ele>
        <time>2023-07-23T07:52:40Z</time>
      </trkpt>
      <trkpt lat="43.99853" lon="1.88704">
        <ele>255.2</ele>
        <time>2023-07-23T07:52:41Z</time>
      </trkpt>
      <trkpt lat="43.99853" lon="1.88701">
        <ele>255.2</ele>
        <time>2023-07-23T07:52:42Z</time>
      </trkpt>
      <trkpt lat="43.99852" lon="1.88699">
        <ele>255.6</ele>
        <time>2023-07-23T07:52:43Z</time>
      </trkpt>
      <trkpt lat="43.99851" lon="1.88696">
        <ele>255.8</ele>
        <time>2023-07-23T07:52:44Z</time>
      </trkpt>
      <trkpt lat="43.9985" lon="1.88694">
        <ele>256</ele>
        <time>2023-07-23T07:52:45Z</time>
      </trkpt>
      <trkpt lat="43.9985" lon="1.88691">
        <ele>256</ele>
        <time>2023-07-23T07:52:46Z</time>
      </trkpt>
      <trkpt lat="43.99849" lon="1.88689">
        <ele>256.2</ele>
        <time>2023-07-23T07:52:47Z</time>
      </trkpt>
      <trkpt lat="43.99848" lon="1.88686">
        <ele>256.4</ele>
        <time>2023-07-23T07:52:48Z</time>
      </trkpt>
      <trkpt lat="43.99848" lon="1.88683">
        <ele>256.4</ele>
        <time>2023-07-23T07:52:49Z</time>
      </trkpt>
      <trkpt lat="43.99847" lon="1.88681">
        <ele>256.6</ele>
        <time>2023-07-23T07:52:50Z</time>
      </trkpt>
      <trkpt lat="43.99845" lon="1.88679">
        <ele>256.6</ele>
        <time>2023-07-23T07:52:51Z</time>
      </trkpt>
      <trkpt lat="43.99845" lon="1.88676">
        <ele>256.8</ele>
        <time>2023-07-23T07:52:52Z</time>
      </trkpt>
      <trkpt lat="43.99844" lon="1.88674">
        <ele>256.8</ele>
        <time>2023-07-23T07:52:53Z</time>
      </trkpt>
      <trkpt lat="43.99842" lon="1.88672">
        <ele>257</ele>
        <time>2023-07-23T07:52:54Z</time>
      </trkpt>
      <trkpt lat="43.99841" lon="1.8867">
        <ele>257</ele>
        <time>2023-07-23T07:52:55Z</time>
      </trkpt>
      <trkpt lat="43.9984" lon="1.88668">
        <ele>257</ele>
        <time>2023-07-23T07:52:56Z</time>
      </trkpt>
      <trkpt lat="43.99838" lon="1.88666">
        <ele>257.4</ele>
        <time>2023-07-23T07:52:57Z</time>
      </trkpt>
      <trkpt lat="43.99837" lon="1.88664">
        <ele>257.4</ele>
        <time>2023-07-23T07:52:58Z</time>
      </trkpt>
      <trkpt lat="43.99835" lon="1.88662">
        <ele>257.6</ele>
        <time>2023-07-23T07:52:59Z</time>
      </trkpt>
      <trkpt lat="43.99833" lon="1.8866">
        <ele>257.6</ele>
        <time>2023-07-23T07:53:00Z</time>
      </trkpt>
      <trkpt lat="43.99831" lon="1.88659">
        <ele>257.8</ele>
        <time>2023-07-23T07:53:01Z</time>
      </trkpt>
      <trkpt lat="43.99828" lon="1.88657">
        <ele>257.8</ele>
        <time>2023-07-23T07:53:02Z</time>
      </trkpt>
      <trkpt lat="43.99825" lon="1.88656">
        <ele>257.8</ele>
        <time>2023-07-23T07:53:03Z</time>
      </trkpt>
      <trkpt lat="43.99823" lon="1.88655">
        <ele>257.8</ele>
        <time>2023-07-23T07:53:04Z</time>
      </trkpt>
      <trkpt lat="43.9982" lon="1.88654">
        <ele>257.8</ele>
        <time>2023-07-23T07:53:05Z</time>
      </trkpt>
      <trkpt lat="43.99817" lon="1.88653">
        <ele>257.8</ele>
        <time>2023-07-23T07:53:06Z</time>
      </trkpt>
      <trkpt lat="43.99814" lon="1.88652">
        <ele>257.8</ele>
        <time>2023-07-23T07:53:07Z</time>
      </trkpt>
      <trkpt lat="43.99811" lon="1.88652">
        <ele>257.8</ele>
        <time>2023-07-23T07:53:08Z</time>
      </trkpt>
      <trkpt lat="43.99807" lon="1.88651">
        <ele>257.8</ele>
        <time>2023-07-23T07:53:09Z</time>
      </trkpt>
      <trkpt lat="43.99804" lon="1.8865">
        <ele>257.8</ele>
        <time>2023-07-23T07:53:10Z</time>
      </trkpt>
      <trkpt lat="43.99801" lon="1.88649">
        <ele>257.8</ele>
        <time>2023-07-23T07:53:11Z</time>
      </trkpt>
      <trkpt lat="43.99783" lon="1.88641">
        <ele>257.8</ele>
        <time>2023-07-23T07:53:17Z</time>
      </trkpt>
      <trkpt lat="43.99777" lon="1.88635">
        <ele>258</ele>
        <time>2023-07-23T07:53:19Z</time>
      </trkpt>
      <trkpt lat="43.9976" lon="1.88611">
        <ele>258.2</ele>
        <time>2023-07-23T07:53:25Z</time>
      </trkpt>
      <trkpt lat="43.99744" lon="1.88573">
        <ele>258.4</ele>
        <time>2023-07-23T07:53:33Z</time>
      </trkpt>
      <trkpt lat="43.99727" lon="1.88532">
        <ele>258</ele>
        <time>2023-07-23T07:53:40Z</time>
      </trkpt>
      <trkpt lat="43.99724" lon="1.88525">
        <ele>257.8</ele>
        <time>2023-07-23T07:53:41Z</time>
      </trkpt>
      <trkpt lat="43.99719" lon="1.88512">
        <ele>257.6</ele>
        <time>2023-07-23T07:53:43Z</time>
      </trkpt>
      <trkpt lat="43.99716" lon="1.88506">
        <ele>257.4</ele>
        <time>2023-07-23T07:53:44Z</time>
      </trkpt>
      <trkpt lat="43.99708" lon="1.88494">
        <ele>257.2</ele>
        <time>2023-07-23T07:53:46Z</time>
      </trkpt>
      <trkpt lat="43.99704" lon="1.88488">
        <ele>257</ele>
        <time>2023-07-23T07:53:47Z</time>
      </trkpt>
      <trkpt lat="43.99691" lon="1.88464">
        <ele>257</ele>
        <time>2023-07-23T07:53:50Z</time>
      </trkpt>
      <trkpt lat="43.99687" lon="1.88455">
        <ele>256.2</ele>
        <time>2023-07-23T07:53:51Z</time>
      </trkpt>
      <trkpt lat="43.99679" lon="1.88439">
        <ele>255.6</ele>
        <time>2023-07-23T07:53:53Z</time>
      </trkpt>
      <trkpt lat="43.99674" lon="1.88432">
        <ele>255</ele>
        <time>2023-07-23T07:53:54Z</time>
      </trkpt>
      <trkpt lat="43.9967" lon="1.88426">
        <ele>254.8</ele>
        <time>2023-07-23T07:53:55Z</time>
      </trkpt>
      <trkpt lat="43.99665" lon="1.88418">
        <ele>253.8</ele>
        <time>2023-07-23T07:53:56Z</time>
      </trkpt>
      <trkpt lat="43.99652" lon="1.88402">
        <ele>252</ele>
        <time>2023-07-23T07:53:58Z</time>
      </trkpt>
      <trkpt lat="43.99639" lon="1.88382">
        <ele>250.4</ele>
        <time>2023-07-23T07:54:00Z</time>
      </trkpt>
      <trkpt lat="43.99626" lon="1.8836">
        <ele>248.8</ele>
        <time>2023-07-23T07:54:02Z</time>
      </trkpt>
      <trkpt lat="43.99614" lon="1.88335">
        <ele>247</ele>
        <time>2023-07-23T07:54:04Z</time>
      </trkpt>
      <trkpt lat="43.99609" lon="1.88322">
        <ele>245.4</ele>
        <time>2023-07-23T07:54:05Z</time>
      </trkpt>
      <trkpt lat="43.99599" lon="1.88297">
        <ele>244</ele>
        <time>2023-07-23T07:54:07Z</time>
      </trkpt>
      <trkpt lat="43.99595" lon="1.88286">
        <ele>243</ele>
        <time>2023-07-23T07:54:08Z</time>
      </trkpt>
      <trkpt lat="43.9959" lon="1.88275">
        <ele>241.2</ele>
        <time>2023-07-23T07:54:09Z</time>
      </trkpt>
      <trkpt lat="43.99586" lon="1.88264">
        <ele>240.4</ele>
        <time>2023-07-23T07:54:10Z</time>
      </trkpt>
      <trkpt lat="43.99581" lon="1.88254">
        <ele>240.2</ele>
        <time>2023-07-23T07:54:11Z</time>
      </trkpt>
      <trkpt lat="43.99577" lon="1.88246">
        <ele>239.6</ele>
        <time>2023-07-23T07:54:12Z</time>
      </trkpt>
      <trkpt lat="43.99572" lon="1.88238">
        <ele>239</ele>
        <time>2023-07-23T07:54:13Z</time>
      </trkpt>
      <trkpt lat="43.99568" lon="1.88231">
        <ele>238.6</ele>
        <time>2023-07-23T07:54:14Z</time>
      </trkpt>
      <trkpt lat="43.99563" lon="1.88224">
        <ele>238.4</ele>
        <time>2023-07-23T07:54:15Z</time>
      </trkpt>
      <trkpt lat="43.99559" lon="1.88218">
        <ele>237.8</ele>
        <time>2023-07-23T07:54:16Z</time>
      </trkpt>
      <trkpt lat="43.99555" lon="1.88211">
        <ele>237.8</ele>
        <time>2023-07-23T07:54:17Z</time>
      </trkpt>
      <trkpt lat="43.99551" lon="1.88205">
        <ele>237.6</ele>
        <time>2023-07-23T07:54:18Z</time>
      </trkpt>
      <trkpt lat="43.99547" lon="1.88199">
        <ele>237.4</ele>
        <time>2023-07-23T07:54:19Z</time>
      </trkpt>
      <trkpt lat="43.99543" lon="1.88193">
        <ele>237.4</ele>
        <time>2023-07-23T07:54:20Z</time>
      </trkpt>
      <trkpt lat="43.99538" lon="1.88187">
        <ele>237.4</ele>
        <time>2023-07-23T07:54:21Z</time>
      </trkpt>
      <trkpt lat="43.99533" lon="1.8818">
        <ele>237.4</ele>
        <time>2023-07-23T07:54:22Z</time>
      </trkpt>
      <trkpt lat="43.99528" lon="1.88172">
        <ele>236.8</ele>
        <time>2023-07-23T07:54:23Z</time>
      </trkpt>
      <trkpt lat="43.99523" lon="1.88163">
        <ele>236.6</ele>
        <time>2023-07-23T07:54:24Z</time>
      </trkpt>
      <trkpt lat="43.99514" lon="1.88145">
        <ele>235.8</ele>
        <time>2023-07-23T07:54:26Z</time>
      </trkpt>
      <trkpt lat="43.99505" lon="1.88128">
        <ele>235</ele>
        <time>2023-07-23T07:54:28Z</time>
      </trkpt>
      <trkpt lat="43.99501" lon="1.88121">
        <ele>234.6</ele>
        <time>2023-07-23T07:54:29Z</time>
      </trkpt>
      <trkpt lat="43.99498" lon="1.88113">
        <ele>233.8</ele>
        <time>2023-07-23T07:54:30Z</time>
      </trkpt>
      <trkpt lat="43.99494" lon="1.88107">
        <ele>232.8</ele>
        <time>2023-07-23T07:54:31Z</time>
      </trkpt>
      <trkpt lat="43.9949" lon="1.881">
        <ele>231.4</ele>
        <time>2023-07-23T07:54:32Z</time>
      </trkpt>
      <trkpt lat="43.99487" lon="1.88094">
        <ele>230.4</ele>
        <time>2023-07-23T07:54:33Z</time>
      </trkpt>
      <trkpt lat="43.99484" lon="1.88089">
        <ele>229</ele>
        <time>2023-07-23T07:54:34Z</time>
      </trkpt>
      <trkpt lat="43.9948" lon="1.88083">
        <ele>228</ele>
        <time>2023-07-23T07:54:35Z</time>
      </trkpt>
      <trkpt lat="43.99477" lon="1.88079">
        <ele>227.6</ele>
        <time>2023-07-23T07:54:36Z</time>
      </trkpt>
      <trkpt lat="43.99473" lon="1.88074">
        <ele>226.6</ele>
        <time>2023-07-23T07:54:37Z</time>
      </trkpt>
      <trkpt lat="43.9947" lon="1.88069">
        <ele>226</ele>
        <time>2023-07-23T07:54:38Z</time>
      </trkpt>
      <trkpt lat="43.99466" lon="1.88063">
        <ele>225</ele>
        <time>2023-07-23T07:54:39Z</time>
      </trkpt>
      <trkpt lat="43.99458" lon="1.8805">
        <ele>224</ele>
        <time>2023-07-23T07:54:41Z</time>
      </trkpt>
      <trkpt lat="43.99454" lon="1.88044">
        <ele>222.8</ele>
        <time>2023-07-23T07:54:42Z</time>
      </trkpt>
      <trkpt lat="43.99447" lon="1.8803">
        <ele>221.6</ele>
        <time>2023-07-23T07:54:44Z</time>
      </trkpt>
      <trkpt lat="43.99439" lon="1.88016">
        <ele>220.4</ele>
        <time>2023-07-23T07:54:46Z</time>
      </trkpt>
      <trkpt lat="43.99431" lon="1.88004">
        <ele>218.6</ele>
        <time>2023-07-23T07:54:48Z</time>
      </trkpt>
      <trkpt lat="43.99428" lon="1.88">
        <ele>218</ele>
        <time>2023-07-23T07:54:49Z</time>
      </trkpt>
      <trkpt lat="43.99425" lon="1.87996">
        <ele>216.8</ele>
        <time>2023-07-23T07:54:50Z</time>
      </trkpt>
      <trkpt lat="43.99423" lon="1.87992">
        <ele>215.4</ele>
        <time>2023-07-23T07:54:51Z</time>
      </trkpt>
      <trkpt lat="43.99421" lon="1.8799">
        <ele>215</ele>
        <time>2023-07-23T07:54:52Z</time>
      </trkpt>
      <trkpt lat="43.9942" lon="1.87989">
        <ele>214.4</ele>
        <time>2023-07-23T07:54:53Z</time>
      </trkpt>
      <trkpt lat="43.99419" lon="1.87989">
        <ele>214.2</ele>
        <time>2023-07-23T07:54:54Z</time>
      </trkpt>
      <trkpt lat="43.99417" lon="1.87989">
        <ele>213.4</ele>
        <time>2023-07-23T07:54:55Z</time>
      </trkpt>
      <trkpt lat="43.99416" lon="1.87989">
        <ele>212.8</ele>
        <time>2023-07-23T07:54:56Z</time>
      </trkpt>
      <trkpt lat="43.99414" lon="1.8799">
        <ele>212</ele>
        <time>2023-07-23T07:54:57Z</time>
      </trkpt>
      <trkpt lat="43.99412" lon="1.8799">
        <ele>211.2</ele>
        <time>2023-07-23T07:54:58Z</time>
      </trkpt>
      <trkpt lat="43.99407" lon="1.87989">
        <ele>210.2</ele>
        <time>2023-07-23T07:55:00Z</time>
      </trkpt>
      <trkpt lat="43.99404" lon="1.87989">
        <ele>210</ele>
        <time>2023-07-23T07:55:01Z</time>
      </trkpt>
      <trkpt lat="43.99399" lon="1.87988">
        <ele>209.2</ele>
        <time>2023-07-23T07:55:03Z</time>
      </trkpt>
      <trkpt lat="43.99387" lon="1.87986">
        <ele>207.6</ele>
        <time>2023-07-23T07:55:07Z</time>
      </trkpt>
      <trkpt lat="43.99385" lon="1.87986">
        <ele>207.6</ele>
        <time>2023-07-23T07:55:08Z</time>
      </trkpt>
      <trkpt lat="43.99376" lon="1.87982">
        <ele>206.4</ele>
        <time>2023-07-23T07:55:11Z</time>
      </trkpt>
      <trkpt lat="43.99369" lon="1.87981">
        <ele>205.2</ele>
        <time>2023-07-23T07:55:13Z</time>
      </trkpt>
      <trkpt lat="43.99359" lon="1.87977">
        <ele>203.8</ele>
        <time>2023-07-23T07:55:16Z</time>
      </trkpt>
      <trkpt lat="43.99355" lon="1.87976">
        <ele>203.6</ele>
        <time>2023-07-23T07:55:17Z</time>
      </trkpt>
      <trkpt lat="43.99346" lon="1.87973">
        <ele>202.6</ele>
        <time>2023-07-23T07:55:19Z</time>
      </trkpt>
      <trkpt lat="43.99334" lon="1.87968">
        <ele>202</ele>
        <time>2023-07-23T07:55:21Z</time>
      </trkpt>
      <trkpt lat="43.99327" lon="1.87964">
        <ele>201.2</ele>
        <time>2023-07-23T07:55:22Z</time>
      </trkpt>
      <trkpt lat="43.99309" lon="1.87955">
        <ele>200.2</ele>
        <time>2023-07-23T07:55:24Z</time>
      </trkpt>
      <trkpt lat="43.99299" lon="1.87948">
        <ele>199.4</ele>
        <time>2023-07-23T07:55:25Z</time>
      </trkpt>
      <trkpt lat="43.99284" lon="1.87936">
        <ele>198.2</ele>
        <time>2023-07-23T07:55:27Z</time>
      </trkpt>
      <trkpt lat="43.99278" lon="1.8793">
        <ele>197.2</ele>
        <time>2023-07-23T07:55:28Z</time>
      </trkpt>
      <trkpt lat="43.99273" lon="1.87925">
        <ele>195.8</ele>
        <time>2023-07-23T07:55:29Z</time>
      </trkpt>
      <trkpt lat="43.99269" lon="1.87921">
        <ele>194.6</ele>
        <time>2023-07-23T07:55:30Z</time>
      </trkpt>
      <trkpt lat="43.99266" lon="1.87918">
        <ele>194</ele>
        <time>2023-07-23T07:55:31Z</time>
      </trkpt>
      <trkpt lat="43.99265" lon="1.87915">
        <ele>192.8</ele>
        <time>2023-07-23T07:55:32Z</time>
      </trkpt>
      <trkpt lat="43.99264" lon="1.87911">
        <ele>192.2</ele>
        <time>2023-07-23T07:55:33Z</time>
      </trkpt>
      <trkpt lat="43.99264" lon="1.87907">
        <ele>191</ele>
        <time>2023-07-23T07:55:34Z</time>
      </trkpt>
      <trkpt lat="43.99264" lon="1.87902">
        <ele>190.4</ele>
        <time>2023-07-23T07:55:35Z</time>
      </trkpt>
      <trkpt lat="43.99264" lon="1.87897">
        <ele>189.8</ele>
        <time>2023-07-23T07:55:36Z</time>
      </trkpt>
      <trkpt lat="43.99263" lon="1.87892">
        <ele>189.6</ele>
        <time>2023-07-23T07:55:37Z</time>
      </trkpt>
      <trkpt lat="43.99261" lon="1.8788">
        <ele>188.6</ele>
        <time>2023-07-23T07:55:39Z</time>
      </trkpt>
      <trkpt lat="43.99258" lon="1.87868">
        <ele>188.2</ele>
        <time>2023-07-23T07:55:41Z</time>
      </trkpt>
      <trkpt lat="43.99252" lon="1.87849">
        <ele>187.6</ele>
        <time>2023-07-23T07:55:44Z</time>
      </trkpt>
      <trkpt lat="43.9925" lon="1.87842">
        <ele>187.4</ele>
        <time>2023-07-23T07:55:45Z</time>
      </trkpt>
      <trkpt lat="43.99248" lon="1.87834">
        <ele>187</ele>
        <time>2023-07-23T07:55:46Z</time>
      </trkpt>
      <trkpt lat="43.99231" lon="1.87779">
        <ele>186.4</ele>
        <time>2023-07-23T07:55:53Z</time>
      </trkpt>
      <trkpt lat="43.99228" lon="1.8777">
        <ele>186.2</ele>
        <time>2023-07-23T07:55:54Z</time>
      </trkpt>
      <trkpt lat="43.99225" lon="1.87761">
        <ele>185.8</ele>
        <time>2023-07-23T07:55:55Z</time>
      </trkpt>
      <trkpt lat="43.99214" lon="1.87726">
        <ele>185</ele>
        <time>2023-07-23T07:55:59Z</time>
      </trkpt>
      <trkpt lat="43.99208" lon="1.87707">
        <ele>184.6</ele>
        <time>2023-07-23T07:56:01Z</time>
      </trkpt>
      <trkpt lat="43.992" lon="1.8768">
        <ele>184</ele>
        <time>2023-07-23T07:56:04Z</time>
      </trkpt>
      <trkpt lat="43.99192" lon="1.87653">
        <ele>183.8</ele>
        <time>2023-07-23T07:56:07Z</time>
      </trkpt>
      <trkpt lat="43.99185" lon="1.87608">
        <ele>183.2</ele>
        <time>2023-07-23T07:56:12Z</time>
      </trkpt>
      <trkpt lat="43.99184" lon="1.87599">
        <ele>183.2</ele>
        <time>2023-07-23T07:56:13Z</time>
      </trkpt>
      <trkpt lat="43.99184" lon="1.8759">
        <ele>183.2</ele>
        <time>2023-07-23T07:56:14Z</time>
      </trkpt>
      <trkpt lat="43.99184" lon="1.8758">
        <ele>183.2</ele>
        <time>2023-07-23T07:56:15Z</time>
      </trkpt>
      <trkpt lat="43.99184" lon="1.87571">
        <ele>183.2</ele>
        <time>2023-07-23T07:56:16Z</time>
      </trkpt>
      <trkpt lat="43.99184" lon="1.87563">
        <ele>183.4</ele>
        <time>2023-07-23T07:56:17Z</time>
      </trkpt>
      <trkpt lat="43.99185" lon="1.87555">
        <ele>183.2</ele>
        <time>2023-07-23T07:56:18Z</time>
      </trkpt>
      <trkpt lat="43.99185" lon="1.87547">
        <ele>183.2</ele>
        <time>2023-07-23T07:56:19Z</time>
      </trkpt>
      <trkpt lat="43.99186" lon="1.8754">
        <ele>183.2</ele>
        <time>2023-07-23T07:56:20Z</time>
      </trkpt>
      <trkpt lat="43.99187" lon="1.87532">
        <ele>183.4</ele>
        <time>2023-07-23T07:56:21Z</time>
      </trkpt>
      <trkpt lat="43.99188" lon="1.87525">
        <ele>183.4</ele>
        <time>2023-07-23T07:56:22Z</time>
      </trkpt>
      <trkpt lat="43.9919" lon="1.87511">
        <ele>183.4</ele>
        <time>2023-07-23T07:56:24Z</time>
      </trkpt>
      <trkpt lat="43.99191" lon="1.87504">
        <ele>183.4</ele>
        <time>2023-07-23T07:56:25Z</time>
      </trkpt>
      <trkpt lat="43.99192" lon="1.87498">
        <ele>183.6</ele>
        <time>2023-07-23T07:56:26Z</time>
      </trkpt>
      <trkpt lat="43.99193" lon="1.87493">
        <ele>183.6</ele>
        <time>2023-07-23T07:56:27Z</time>
      </trkpt>
      <trkpt lat="43.99194" lon="1.87488">
        <ele>183.6</ele>
        <time>2023-07-23T07:56:28Z</time>
      </trkpt>
      <trkpt lat="43.99194" lon="1.87482">
        <ele>183.8</ele>
        <time>2023-07-23T07:56:29Z</time>
      </trkpt>
      <trkpt lat="43.99195" lon="1.87477">
        <ele>183.8</ele>
        <time>2023-07-23T07:56:30Z</time>
      </trkpt>
      <trkpt lat="43.99195" lon="1.87472">
        <ele>183.8</ele>
        <time>2023-07-23T07:56:31Z</time>
      </trkpt>
      <trkpt lat="43.99195" lon="1.87468">
        <ele>184</ele>
        <time>2023-07-23T07:56:32Z</time>
      </trkpt>
      <trkpt lat="43.99192" lon="1.87458">
        <ele>184</ele>
        <time>2023-07-23T07:56:34Z</time>
      </trkpt>
      <trkpt lat="43.99189" lon="1.87457">
        <ele>184</ele>
        <time>2023-07-23T07:56:35Z</time>
      </trkpt>
      <trkpt lat="43.99185" lon="1.87457">
        <ele>184.2</ele>
        <time>2023-07-23T07:56:36Z</time>
      </trkpt>
      <trkpt lat="43.99181" lon="1.87459">
        <ele>184.2</ele>
        <time>2023-07-23T07:56:37Z</time>
      </trkpt>
      <trkpt lat="43.99167" lon="1.87465">
        <ele>184.2</ele>
        <time>2023-07-23T07:56:40Z</time>
      </trkpt>
      <trkpt lat="43.99162" lon="1.87467">
        <ele>184.2</ele>
        <time>2023-07-23T07:56:41Z</time>
      </trkpt>
      <trkpt lat="43.99157" lon="1.87469">
        <ele>184.2</ele>
        <time>2023-07-23T07:56:42Z</time>
      </trkpt>
      <trkpt lat="43.99136" lon="1.87478">
        <ele>184.2</ele>
        <time>2023-07-23T07:56:46Z</time>
      </trkpt>
      <trkpt lat="43.99116" lon="1.87484">
        <ele>184.2</ele>
        <time>2023-07-23T07:56:50Z</time>
      </trkpt>
      <trkpt lat="43.99109" lon="1.87486">
        <ele>184.2</ele>
        <time>2023-07-23T07:56:52Z</time>
      </trkpt>
      <trkpt lat="43.99106" lon="1.87487">
        <ele>184.4</ele>
        <time>2023-07-23T07:56:53Z</time>
      </trkpt>
      <trkpt lat="43.99102" lon="1.87489">
        <ele>184.4</ele>
        <time>2023-07-23T07:56:54Z</time>
      </trkpt>
      <trkpt lat="43.99097" lon="1.8749">
        <ele>184.6</ele>
        <time>2023-07-23T07:56:55Z</time>
      </trkpt>
      <trkpt lat="43.9907" lon="1.87498">
        <ele>184.8</ele>
        <time>2023-07-23T07:57:00Z</time>
      </trkpt>
      <trkpt lat="43.9904" lon="1.87506">
        <ele>184.4</ele>
        <time>2023-07-23T07:57:05Z</time>
      </trkpt>
      <trkpt lat="43.99035" lon="1.87508">
        <ele>184.2</ele>
        <time>2023-07-23T07:57:06Z</time>
      </trkpt>
      <trkpt lat="43.99029" lon="1.8751">
        <ele>184</ele>
        <time>2023-07-23T07:57:07Z</time>
      </trkpt>
      <trkpt lat="43.99007" lon="1.87516">
        <ele>183.8</ele>
        <time>2023-07-23T07:57:11Z</time>
      </trkpt>
      <trkpt lat="43.99002" lon="1.87518">
        <ele>183.6</ele>
        <time>2023-07-23T07:57:12Z</time>
      </trkpt>
      <trkpt lat="43.98996" lon="1.87519">
        <ele>183.6</ele>
        <time>2023-07-23T07:57:13Z</time>
      </trkpt>
      <trkpt lat="43.98991" lon="1.87521">
        <ele>183.4</ele>
        <time>2023-07-23T07:57:14Z</time>
      </trkpt>
      <trkpt lat="43.98987" lon="1.87523">
        <ele>183.4</ele>
        <time>2023-07-23T07:57:15Z</time>
      </trkpt>
      <trkpt lat="43.9898" lon="1.87525">
        <ele>183.4</ele>
        <time>2023-07-23T07:57:16Z</time>
      </trkpt>
      <trkpt lat="43.98975" lon="1.87527">
        <ele>183.2</ele>
        <time>2023-07-23T07:57:17Z</time>
      </trkpt>
      <trkpt lat="43.98948" lon="1.87534">
        <ele>183</ele>
        <time>2023-07-23T07:57:22Z</time>
      </trkpt>
      <trkpt lat="43.98929" lon="1.8754">
        <ele>183</ele>
        <time>2023-07-23T07:57:26Z</time>
      </trkpt>
      <trkpt lat="43.98926" lon="1.87541">
        <ele>183</ele>
        <time>2023-07-23T07:57:27Z</time>
      </trkpt>
      <trkpt lat="43.98922" lon="1.87543">
        <ele>183.2</ele>
        <time>2023-07-23T07:57:28Z</time>
      </trkpt>
      <trkpt lat="43.98919" lon="1.87544">
        <ele>183.2</ele>
        <time>2023-07-23T07:57:29Z</time>
      </trkpt>
      <trkpt lat="43.98916" lon="1.87546">
        <ele>183.4</ele>
        <time>2023-07-23T07:57:30Z</time>
      </trkpt>
      <trkpt lat="43.98914" lon="1.87548">
        <ele>183.4</ele>
        <time>2023-07-23T07:57:31Z</time>
      </trkpt>
      <trkpt lat="43.9891" lon="1.87551">
        <ele>183.6</ele>
        <time>2023-07-23T07:57:32Z</time>
      </trkpt>
      <trkpt lat="43.98907" lon="1.87553">
        <ele>183.6</ele>
        <time>2023-07-23T07:57:33Z</time>
      </trkpt>
      <trkpt lat="43.98902" lon="1.87558">
        <ele>184</ele>
        <time>2023-07-23T07:57:35Z</time>
      </trkpt>
      <trkpt lat="43.98899" lon="1.87561">
        <ele>184.2</ele>
        <time>2023-07-23T07:57:36Z</time>
      </trkpt>
      <trkpt lat="43.98896" lon="1.87563">
        <ele>184.4</ele>
        <time>2023-07-23T07:57:37Z</time>
      </trkpt>
      <trkpt lat="43.98894" lon="1.87566">
        <ele>184.6</ele>
        <time>2023-07-23T07:57:38Z</time>
      </trkpt>
      <trkpt lat="43.98891" lon="1.87569">
        <ele>184.8</ele>
        <time>2023-07-23T07:57:39Z</time>
      </trkpt>
      <trkpt lat="43.98889" lon="1.87573">
        <ele>185</ele>
        <time>2023-07-23T07:57:40Z</time>
      </trkpt>
      <trkpt lat="43.98881" lon="1.87582">
        <ele>185.8</ele>
        <time>2023-07-23T07:57:43Z</time>
      </trkpt>
      <trkpt lat="43.98878" lon="1.87584">
        <ele>186</ele>
        <time>2023-07-23T07:57:44Z</time>
      </trkpt>
      <trkpt lat="43.98876" lon="1.87587">
        <ele>186</ele>
        <time>2023-07-23T07:57:45Z</time>
      </trkpt>
      <trkpt lat="43.98864" lon="1.87596">
        <ele>187.2</ele>
        <time>2023-07-23T07:57:49Z</time>
      </trkpt>
      <trkpt lat="43.98861" lon="1.87598">
        <ele>187.4</ele>
        <time>2023-07-23T07:57:50Z</time>
      </trkpt>
      <trkpt lat="43.98858" lon="1.87599">
        <ele>187.8</ele>
        <time>2023-07-23T07:57:51Z</time>
      </trkpt>
      <trkpt lat="43.98854" lon="1.87601">
        <ele>188</ele>
        <time>2023-07-23T07:57:52Z</time>
      </trkpt>
      <trkpt lat="43.98851" lon="1.87602">
        <ele>188.2</ele>
        <time>2023-07-23T07:57:53Z</time>
      </trkpt>
      <trkpt lat="43.98848" lon="1.87603">
        <ele>188.2</ele>
        <time>2023-07-23T07:57:54Z</time>
      </trkpt>
      <trkpt lat="43.98845" lon="1.87604">
        <ele>188.4</ele>
        <time>2023-07-23T07:57:55Z</time>
      </trkpt>
      <trkpt lat="43.98841" lon="1.87605">
        <ele>188.6</ele>
        <time>2023-07-23T07:57:56Z</time>
      </trkpt>
      <trkpt lat="43.98838" lon="1.87606">
        <ele>189.2</ele>
        <time>2023-07-23T07:57:57Z</time>
      </trkpt>
      <trkpt lat="43.98835" lon="1.87606">
        <ele>189.6</ele>
        <time>2023-07-23T07:57:58Z</time>
      </trkpt>
      <trkpt lat="43.98832" lon="1.87607">
        <ele>189.8</ele>
        <time>2023-07-23T07:57:59Z</time>
      </trkpt>
      <trkpt lat="43.98828" lon="1.87607">
        <ele>190</ele>
        <time>2023-07-23T07:58:00Z</time>
      </trkpt>
      <trkpt lat="43.98825" lon="1.87608">
        <ele>190</ele>
        <time>2023-07-23T07:58:01Z</time>
      </trkpt>
      <trkpt lat="43.98822" lon="1.87609">
        <ele>190.6</ele>
        <time>2023-07-23T07:58:02Z</time>
      </trkpt>
      <trkpt lat="43.98818" lon="1.87609">
        <ele>190.8</ele>
        <time>2023-07-23T07:58:03Z</time>
      </trkpt>
      <trkpt lat="43.98815" lon="1.8761">
        <ele>191.2</ele>
        <time>2023-07-23T07:58:04Z</time>
      </trkpt>
      <trkpt lat="43.98812" lon="1.8761">
        <ele>191.6</ele>
        <time>2023-07-23T07:58:05Z</time>
      </trkpt>
      <trkpt lat="43.98809" lon="1.8761">
        <ele>192</ele>
        <time>2023-07-23T07:58:06Z</time>
      </trkpt>
      <trkpt lat="43.98806" lon="1.87611">
        <ele>192.4</ele>
        <time>2023-07-23T07:58:07Z</time>
      </trkpt>
      <trkpt lat="43.98803" lon="1.87611">
        <ele>192.6</ele>
        <time>2023-07-23T07:58:08Z</time>
      </trkpt>
      <trkpt lat="43.988" lon="1.87612">
        <ele>192.8</ele>
        <time>2023-07-23T07:58:09Z</time>
      </trkpt>
      <trkpt lat="43.98797" lon="1.87612">
        <ele>193</ele>
        <time>2023-07-23T07:58:10Z</time>
      </trkpt>
      <trkpt lat="43.98794" lon="1.87613">
        <ele>193.2</ele>
        <time>2023-07-23T07:58:11Z</time>
      </trkpt>
      <trkpt lat="43.98791" lon="1.87614">
        <ele>193.4</ele>
        <time>2023-07-23T07:58:12Z</time>
      </trkpt>
      <trkpt lat="43.98789" lon="1.87615">
        <ele>193.6</ele>
        <time>2023-07-23T07:58:13Z</time>
      </trkpt>
      <trkpt lat="43.98786" lon="1.87615">
        <ele>194</ele>
        <time>2023-07-23T07:58:14Z</time>
      </trkpt>
      <trkpt lat="43.98784" lon="1.87616">
        <ele>194.2</ele>
        <time>2023-07-23T07:58:15Z</time>
      </trkpt>
      <trkpt lat="43.98781" lon="1.87617">
        <ele>194.4</ele>
        <time>2023-07-23T07:58:16Z</time>
      </trkpt>
      <trkpt lat="43.98779" lon="1.87617">
        <ele>194.4</ele>
        <time>2023-07-23T07:58:17Z</time>
      </trkpt>
      <trkpt lat="43.98777" lon="1.87617">
        <ele>194.8</ele>
        <time>2023-07-23T07:58:18Z</time>
      </trkpt>
      <trkpt lat="43.98774" lon="1.87617">
        <ele>194.8</ele>
        <time>2023-07-23T07:58:19Z</time>
      </trkpt>
      <trkpt lat="43.98771" lon="1.87618">
        <ele>195</ele>
        <time>2023-07-23T07:58:20Z</time>
      </trkpt>
      <trkpt lat="43.98769" lon="1.87619">
        <ele>195.2</ele>
        <time>2023-07-23T07:58:21Z</time>
      </trkpt>
      <trkpt lat="43.98767" lon="1.87619">
        <ele>195.2</ele>
        <time>2023-07-23T07:58:22Z</time>
      </trkpt>
      <trkpt lat="43.98764" lon="1.87619">
        <ele>195.4</ele>
        <time>2023-07-23T07:58:23Z</time>
      </trkpt>
      <trkpt lat="43.98762" lon="1.8762">
        <ele>195.6</ele>
        <time>2023-07-23T07:58:24Z</time>
      </trkpt>
      <trkpt lat="43.98759" lon="1.87621">
        <ele>195.8</ele>
        <time>2023-07-23T07:58:25Z</time>
      </trkpt>
      <trkpt lat="43.98757" lon="1.87621">
        <ele>195.8</ele>
        <time>2023-07-23T07:58:26Z</time>
      </trkpt>
      <trkpt lat="43.98754" lon="1.87622">
        <ele>196.2</ele>
        <time>2023-07-23T07:58:27Z</time>
      </trkpt>
      <trkpt lat="43.98752" lon="1.87623">
        <ele>196.4</ele>
        <time>2023-07-23T07:58:28Z</time>
      </trkpt>
      <trkpt lat="43.98749" lon="1.87623">
        <ele>196.6</ele>
        <time>2023-07-23T07:58:29Z</time>
      </trkpt>
      <trkpt lat="43.98747" lon="1.87624">
        <ele>196.8</ele>
        <time>2023-07-23T07:58:30Z</time>
      </trkpt>
      <trkpt lat="43.98744" lon="1.87625">
        <ele>196.8</ele>
        <time>2023-07-23T07:58:31Z</time>
      </trkpt>
      <trkpt lat="43.98742" lon="1.87626">
        <ele>197</ele>
        <time>2023-07-23T07:58:32Z</time>
      </trkpt>
      <trkpt lat="43.9874" lon="1.87627">
        <ele>197.2</ele>
        <time>2023-07-23T07:58:33Z</time>
      </trkpt>
      <trkpt lat="43.98737" lon="1.87628">
        <ele>197.6</ele>
        <time>2023-07-23T07:58:34Z</time>
      </trkpt>
      <trkpt lat="43.98735" lon="1.87629">
        <ele>197.6</ele>
        <time>2023-07-23T07:58:35Z</time>
      </trkpt>
      <trkpt lat="43.98733" lon="1.8763">
        <ele>197.8</ele>
        <time>2023-07-23T07:58:36Z</time>
      </trkpt>
      <trkpt lat="43.9873" lon="1.87631">
        <ele>198</ele>
        <time>2023-07-23T07:58:37Z</time>
      </trkpt>
      <trkpt lat="43.98728" lon="1.87632">
        <ele>198.4</ele>
        <time>2023-07-23T07:58:38Z</time>
      </trkpt>
      <trkpt lat="43.98725" lon="1.87634">
        <ele>198.6</ele>
        <time>2023-07-23T07:58:39Z</time>
      </trkpt>
      <trkpt lat="43.98723" lon="1.87635">
        <ele>198.8</ele>
        <time>2023-07-23T07:58:40Z</time>
      </trkpt>
      <trkpt lat="43.98721" lon="1.87636">
        <ele>199.2</ele>
        <time>2023-07-23T07:58:41Z</time>
      </trkpt>
      <trkpt lat="43.98718" lon="1.87637">
        <ele>199.2</ele>
        <time>2023-07-23T07:58:42Z</time>
      </trkpt>
      <trkpt lat="43.98716" lon="1.87639">
        <ele>199.4</ele>
        <time>2023-07-23T07:58:43Z</time>
      </trkpt>
      <trkpt lat="43.98714" lon="1.8764">
        <ele>199.6</ele>
        <time>2023-07-23T07:58:44Z</time>
      </trkpt>
      <trkpt lat="43.98712" lon="1.87642">
        <ele>199.6</ele>
        <time>2023-07-23T07:58:45Z</time>
      </trkpt>
      <trkpt lat="43.9871" lon="1.87643">
        <ele>200</ele>
        <time>2023-07-23T07:58:46Z</time>
      </trkpt>
      <trkpt lat="43.98708" lon="1.87645">
        <ele>200</ele>
        <time>2023-07-23T07:58:47Z</time>
      </trkpt>
      <trkpt lat="43.98705" lon="1.87647">
        <ele>200.2</ele>
        <time>2023-07-23T07:58:48Z</time>
      </trkpt>
      <trkpt lat="43.98703" lon="1.87649">
        <ele>200.4</ele>
        <time>2023-07-23T07:58:49Z</time>
      </trkpt>
      <trkpt lat="43.98701" lon="1.87651">
        <ele>200.6</ele>
        <time>2023-07-23T07:58:50Z</time>
      </trkpt>
      <trkpt lat="43.98699" lon="1.87653">
        <ele>200.8</ele>
        <time>2023-07-23T07:58:51Z</time>
      </trkpt>
      <trkpt lat="43.98697" lon="1.87655">
        <ele>201</ele>
        <time>2023-07-23T07:58:52Z</time>
      </trkpt>
      <trkpt lat="43.98695" lon="1.87657">
        <ele>201</ele>
        <time>2023-07-23T07:58:53Z</time>
      </trkpt>
      <trkpt lat="43.98693" lon="1.8766">
        <ele>201.2</ele>
        <time>2023-07-23T07:58:54Z</time>
      </trkpt>
      <trkpt lat="43.98691" lon="1.87662">
        <ele>201.4</ele>
        <time>2023-07-23T07:58:55Z</time>
      </trkpt>
      <trkpt lat="43.9869" lon="1.87663">
        <ele>201.6</ele>
        <time>2023-07-23T07:58:56Z</time>
      </trkpt>
      <trkpt lat="43.98688" lon="1.87665">
        <ele>202</ele>
        <time>2023-07-23T07:58:57Z</time>
      </trkpt>
      <trkpt lat="43.98686" lon="1.87667">
        <ele>202</ele>
        <time>2023-07-23T07:58:58Z</time>
      </trkpt>
      <trkpt lat="43.98684" lon="1.87669">
        <ele>202.2</ele>
        <time>2023-07-23T07:58:59Z</time>
      </trkpt>
      <trkpt lat="43.98682" lon="1.8767">
        <ele>202.4</ele>
        <time>2023-07-23T07:59:00Z</time>
      </trkpt>
      <trkpt lat="43.9868" lon="1.87672">
        <ele>202.6</ele>
        <time>2023-07-23T07:59:01Z</time>
      </trkpt>
      <trkpt lat="43.98679" lon="1.87674">
        <ele>203</ele>
        <time>2023-07-23T07:59:02Z</time>
      </trkpt>
      <trkpt lat="43.98677" lon="1.87676">
        <ele>203</ele>
        <time>2023-07-23T07:59:03Z</time>
      </trkpt>
      <trkpt lat="43.98676" lon="1.87678">
        <ele>203.2</ele>
        <time>2023-07-23T07:59:04Z</time>
      </trkpt>
      <trkpt lat="43.98674" lon="1.8768">
        <ele>203.4</ele>
        <time>2023-07-23T07:59:05Z</time>
      </trkpt>
      <trkpt lat="43.98671" lon="1.87682">
        <ele>203.8</ele>
        <time>2023-07-23T07:59:06Z</time>
      </trkpt>
      <trkpt lat="43.98669" lon="1.87685">
        <ele>203.8</ele>
        <time>2023-07-23T07:59:07Z</time>
      </trkpt>
      <trkpt lat="43.98666" lon="1.87687">
        <ele>204.2</ele>
        <time>2023-07-23T07:59:08Z</time>
      </trkpt>
      <trkpt lat="43.98663" lon="1.8769">
        <ele>204.2</ele>
        <time>2023-07-23T07:59:09Z</time>
      </trkpt>
      <trkpt lat="43.9866" lon="1.87693">
        <ele>204.4</ele>
        <time>2023-07-23T07:59:10Z</time>
      </trkpt>
      <trkpt lat="43.98656" lon="1.87695">
        <ele>204.8</ele>
        <time>2023-07-23T07:59:11Z</time>
      </trkpt>
      <trkpt lat="43.98654" lon="1.87698">
        <ele>204.8</ele>
        <time>2023-07-23T07:59:12Z</time>
      </trkpt>
      <trkpt lat="43.98651" lon="1.87701">
        <ele>205</ele>
        <time>2023-07-23T07:59:13Z</time>
      </trkpt>
      <trkpt lat="43.98648" lon="1.87704">
        <ele>205.2</ele>
        <time>2023-07-23T07:59:14Z</time>
      </trkpt>
      <trkpt lat="43.98645" lon="1.87706">
        <ele>205.2</ele>
        <time>2023-07-23T07:59:15Z</time>
      </trkpt>
      <trkpt lat="43.98643" lon="1.87709">
        <ele>205.4</ele>
        <time>2023-07-23T07:59:16Z</time>
      </trkpt>
      <trkpt lat="43.98641" lon="1.87711">
        <ele>205.6</ele>
        <time>2023-07-23T07:59:17Z</time>
      </trkpt>
      <trkpt lat="43.98638" lon="1.87713">
        <ele>205.8</ele>
        <time>2023-07-23T07:59:18Z</time>
      </trkpt>
      <trkpt lat="43.98637" lon="1.87715">
        <ele>206</ele>
        <time>2023-07-23T07:59:19Z</time>
      </trkpt>
      <trkpt lat="43.98635" lon="1.87717">
        <ele>206.2</ele>
        <time>2023-07-23T07:59:20Z</time>
      </trkpt>
      <trkpt lat="43.98633" lon="1.87718">
        <ele>206.4</ele>
        <time>2023-07-23T07:59:21Z</time>
      </trkpt>
      <trkpt lat="43.9863" lon="1.87721">
        <ele>206.8</ele>
        <time>2023-07-23T07:59:22Z</time>
      </trkpt>
      <trkpt lat="43.98629" lon="1.87723">
        <ele>207</ele>
        <time>2023-07-23T07:59:23Z</time>
      </trkpt>
      <trkpt lat="43.98627" lon="1.87724">
        <ele>207</ele>
        <time>2023-07-23T07:59:24Z</time>
      </trkpt>
      <trkpt lat="43.98624" lon="1.87726">
        <ele>207.2</ele>
        <time>2023-07-23T07:59:25Z</time>
      </trkpt>
      <trkpt lat="43.98623" lon="1.87728">
        <ele>207.6</ele>
        <time>2023-07-23T07:59:26Z</time>
      </trkpt>
      <trkpt lat="43.98621" lon="1.87729">
        <ele>207.6</ele>
        <time>2023-07-23T07:59:27Z</time>
      </trkpt>
      <trkpt lat="43.98619" lon="1.8773">
        <ele>207.8</ele>
        <time>2023-07-23T07:59:28Z</time>
      </trkpt>
      <trkpt lat="43.98617" lon="1.87732">
        <ele>208</ele>
        <time>2023-07-23T07:59:29Z</time>
      </trkpt>
      <trkpt lat="43.98615" lon="1.87733">
        <ele>208</ele>
        <time>2023-07-23T07:59:30Z</time>
      </trkpt>
      <trkpt lat="43.98613" lon="1.87735">
        <ele>208.4</ele>
        <time>2023-07-23T07:59:31Z</time>
      </trkpt>
      <trkpt lat="43.98611" lon="1.87738">
        <ele>208.4</ele>
        <time>2023-07-23T07:59:32Z</time>
      </trkpt>
      <trkpt lat="43.98608" lon="1.87741">
        <ele>208.4</ele>
        <time>2023-07-23T07:59:33Z</time>
      </trkpt>
      <trkpt lat="43.98605" lon="1.87745">
        <ele>208.6</ele>
        <time>2023-07-23T07:59:34Z</time>
      </trkpt>
      <trkpt lat="43.98602" lon="1.87749">
        <ele>208.6</ele>
        <time>2023-07-23T07:59:35Z</time>
      </trkpt>
      <trkpt lat="43.98599" lon="1.87753">
        <ele>208.6</ele>
        <time>2023-07-23T07:59:36Z</time>
      </trkpt>
      <trkpt lat="43.98595" lon="1.87757">
        <ele>208.6</ele>
        <time>2023-07-23T07:59:37Z</time>
      </trkpt>
      <trkpt lat="43.98592" lon="1.87762">
        <ele>208.6</ele>
        <time>2023-07-23T07:59:38Z</time>
      </trkpt>
      <trkpt lat="43.98588" lon="1.87766">
        <ele>208.4</ele>
        <time>2023-07-23T07:59:39Z</time>
      </trkpt>
      <trkpt lat="43.98585" lon="1.87769">
        <ele>208.4</ele>
        <time>2023-07-23T07:59:40Z</time>
      </trkpt>
      <trkpt lat="43.98581" lon="1.87772">
        <ele>208.2</ele>
        <time>2023-07-23T07:59:41Z</time>
      </trkpt>
      <trkpt lat="43.98577" lon="1.87775">
        <ele>208.2</ele>
        <time>2023-07-23T07:59:42Z</time>
      </trkpt>
      <trkpt lat="43.98573" lon="1.87777">
        <ele>208</ele>
        <time>2023-07-23T07:59:43Z</time>
      </trkpt>
      <trkpt lat="43.9857" lon="1.87779">
        <ele>207.8</ele>
        <time>2023-07-23T07:59:44Z</time>
      </trkpt>
      <trkpt lat="43.98566" lon="1.8778">
        <ele>208</ele>
        <time>2023-07-23T07:59:45Z</time>
      </trkpt>
      <trkpt lat="43.98563" lon="1.87781">
        <ele>207.8</ele>
        <time>2023-07-23T07:59:46Z</time>
      </trkpt>
      <trkpt lat="43.9856" lon="1.87782">
        <ele>207.6</ele>
        <time>2023-07-23T07:59:47Z</time>
      </trkpt>
      <trkpt lat="43.98557" lon="1.87783">
        <ele>207.6</ele>
        <time>2023-07-23T07:59:48Z</time>
      </trkpt>
      <trkpt lat="43.98554" lon="1.87783">
        <ele>207.6</ele>
        <time>2023-07-23T07:59:49Z</time>
      </trkpt>
      <trkpt lat="43.98551" lon="1.87784">
        <ele>207.6</ele>
        <time>2023-07-23T07:59:50Z</time>
      </trkpt>
      <trkpt lat="43.98542" lon="1.87784">
        <ele>207.6</ele>
        <time>2023-07-23T07:59:53Z</time>
      </trkpt>
      <trkpt lat="43.98539" lon="1.87784">
        <ele>207.8</ele>
        <time>2023-07-23T07:59:54Z</time>
      </trkpt>
      <trkpt lat="43.98536" lon="1.87784">
        <ele>207.8</ele>
        <time>2023-07-23T07:59:55Z</time>
      </trkpt>
      <trkpt lat="43.98533" lon="1.87784">
        <ele>207.6</ele>
        <time>2023-07-23T07:59:56Z</time>
      </trkpt>
      <trkpt lat="43.98514" lon="1.87786">
        <ele>208</ele>
        <time>2023-07-23T08:00:02Z</time>
      </trkpt>
      <trkpt lat="43.98498" lon="1.87795">
        <ele>208.8</ele>
        <time>2023-07-23T08:00:08Z</time>
      </trkpt>
      <trkpt lat="43.98496" lon="1.87796">
        <ele>209</ele>
        <time>2023-07-23T08:00:09Z</time>
      </trkpt>
      <trkpt lat="43.98493" lon="1.87798">
        <ele>209</ele>
        <time>2023-07-23T08:00:10Z</time>
      </trkpt>
      <trkpt lat="43.9849" lon="1.878">
        <ele>209</ele>
        <time>2023-07-23T08:00:11Z</time>
      </trkpt>
      <trkpt lat="43.98489" lon="1.87801">
        <ele>209.2</ele>
        <time>2023-07-23T08:00:12Z</time>
      </trkpt>
      <trkpt lat="43.98487" lon="1.87803">
        <ele>209.4</ele>
        <time>2023-07-23T08:00:13Z</time>
      </trkpt>
      <trkpt lat="43.98484" lon="1.87804">
        <ele>209.6</ele>
        <time>2023-07-23T08:00:14Z</time>
      </trkpt>
      <trkpt lat="43.98482" lon="1.87806">
        <ele>209.8</ele>
        <time>2023-07-23T08:00:15Z</time>
      </trkpt>
      <trkpt lat="43.98479" lon="1.87807">
        <ele>210</ele>
        <time>2023-07-23T08:00:16Z</time>
      </trkpt>
      <trkpt lat="43.98477" lon="1.87809">
        <ele>210.2</ele>
        <time>2023-07-23T08:00:17Z</time>
      </trkpt>
      <trkpt lat="43.98475" lon="1.87811">
        <ele>210.4</ele>
        <time>2023-07-23T08:00:18Z</time>
      </trkpt>
      <trkpt lat="43.98472" lon="1.87812">
        <ele>210.6</ele>
        <time>2023-07-23T08:00:19Z</time>
      </trkpt>
      <trkpt lat="43.98468" lon="1.87816">
        <ele>211.4</ele>
        <time>2023-07-23T08:00:21Z</time>
      </trkpt>
      <trkpt lat="43.98464" lon="1.87819">
        <ele>212</ele>
        <time>2023-07-23T08:00:23Z</time>
      </trkpt>
      <trkpt lat="43.98463" lon="1.87821">
        <ele>212.2</ele>
        <time>2023-07-23T08:00:24Z</time>
      </trkpt>
      <trkpt lat="43.98461" lon="1.87823">
        <ele>212.6</ele>
        <time>2023-07-23T08:00:25Z</time>
      </trkpt>
      <trkpt lat="43.9846" lon="1.87825">
        <ele>212.8</ele>
        <time>2023-07-23T08:00:26Z</time>
      </trkpt>
      <trkpt lat="43.98459" lon="1.87826">
        <ele>213</ele>
        <time>2023-07-23T08:00:27Z</time>
      </trkpt>
      <trkpt lat="43.98457" lon="1.87828">
        <ele>213.2</ele>
        <time>2023-07-23T08:00:28Z</time>
      </trkpt>
      <trkpt lat="43.98456" lon="1.8783">
        <ele>213.4</ele>
        <time>2023-07-23T08:00:29Z</time>
      </trkpt>
      <trkpt lat="43.98455" lon="1.87832">
        <ele>213.8</ele>
        <time>2023-07-23T08:00:30Z</time>
      </trkpt>
      <trkpt lat="43.98454" lon="1.87833">
        <ele>214</ele>
        <time>2023-07-23T08:00:31Z</time>
      </trkpt>
      <trkpt lat="43.98453" lon="1.87835">
        <ele>214</ele>
        <time>2023-07-23T08:00:32Z</time>
      </trkpt>
      <trkpt lat="43.98452" lon="1.87837">
        <ele>214.2</ele>
        <time>2023-07-23T08:00:33Z</time>
      </trkpt>
      <trkpt lat="43.9845" lon="1.87839">
        <ele>214.6</ele>
        <time>2023-07-23T08:00:34Z</time>
      </trkpt>
      <trkpt lat="43.98449" lon="1.87841">
        <ele>215</ele>
        <time>2023-07-23T08:00:35Z</time>
      </trkpt>
      <trkpt lat="43.98448" lon="1.87843">
        <ele>215.2</ele>
        <time>2023-07-23T08:00:36Z</time>
      </trkpt>
      <trkpt lat="43.98447" lon="1.87845">
        <ele>215.4</ele>
        <time>2023-07-23T08:00:37Z</time>
      </trkpt>
      <trkpt lat="43.98446" lon="1.87846">
        <ele>215.6</ele>
        <time>2023-07-23T08:00:38Z</time>
      </trkpt>
      <trkpt lat="43.98444" lon="1.87848">
        <ele>215.8</ele>
        <time>2023-07-23T08:00:39Z</time>
      </trkpt>
      <trkpt lat="43.98443" lon="1.8785">
        <ele>216</ele>
        <time>2023-07-23T08:00:40Z</time>
      </trkpt>
      <trkpt lat="43.98441" lon="1.87852">
        <ele>216</ele>
        <time>2023-07-23T08:00:41Z</time>
      </trkpt>
      <trkpt lat="43.9844" lon="1.87854">
        <ele>216.4</ele>
        <time>2023-07-23T08:00:42Z</time>
      </trkpt>
      <trkpt lat="43.98439" lon="1.87855">
        <ele>216.4</ele>
        <time>2023-07-23T08:00:43Z</time>
      </trkpt>
      <trkpt lat="43.98438" lon="1.87857">
        <ele>216.6</ele>
        <time>2023-07-23T08:00:44Z</time>
      </trkpt>
      <trkpt lat="43.98436" lon="1.87859">
        <ele>216.8</ele>
        <time>2023-07-23T08:00:45Z</time>
      </trkpt>
      <trkpt lat="43.98435" lon="1.87861">
        <ele>216.8</ele>
        <time>2023-07-23T08:00:46Z</time>
      </trkpt>
      <trkpt lat="43.98434" lon="1.87863">
        <ele>217</ele>
        <time>2023-07-23T08:00:47Z</time>
      </trkpt>
      <trkpt lat="43.98432" lon="1.87866">
        <ele>217.2</ele>
        <time>2023-07-23T08:00:48Z</time>
      </trkpt>
      <trkpt lat="43.9843" lon="1.87868">
        <ele>217.4</ele>
        <time>2023-07-23T08:00:49Z</time>
      </trkpt>
      <trkpt lat="43.98429" lon="1.8787">
        <ele>217.6</ele>
        <time>2023-07-23T08:00:50Z</time>
      </trkpt>
      <trkpt lat="43.98428" lon="1.87872">
        <ele>218</ele>
        <time>2023-07-23T08:00:51Z</time>
      </trkpt>
      <trkpt lat="43.98426" lon="1.87874">
        <ele>218</ele>
        <time>2023-07-23T08:00:52Z</time>
      </trkpt>
      <trkpt lat="43.98425" lon="1.87876">
        <ele>218.2</ele>
        <time>2023-07-23T08:00:53Z</time>
      </trkpt>
      <trkpt lat="43.98423" lon="1.87878">
        <ele>218.2</ele>
        <time>2023-07-23T08:00:54Z</time>
      </trkpt>
      <trkpt lat="43.98422" lon="1.8788">
        <ele>218.4</ele>
        <time>2023-07-23T08:00:55Z</time>
      </trkpt>
      <trkpt lat="43.98421" lon="1.87882">
        <ele>218.6</ele>
        <time>2023-07-23T08:00:56Z</time>
      </trkpt>
      <trkpt lat="43.98419" lon="1.87884">
        <ele>218.8</ele>
        <time>2023-07-23T08:00:57Z</time>
      </trkpt>
      <trkpt lat="43.98418" lon="1.87886">
        <ele>219.2</ele>
        <time>2023-07-23T08:00:58Z</time>
      </trkpt>
      <trkpt lat="43.98416" lon="1.87889">
        <ele>219.2</ele>
        <time>2023-07-23T08:00:59Z</time>
      </trkpt>
      <trkpt lat="43.98415" lon="1.87891">
        <ele>219.4</ele>
        <time>2023-07-23T08:01:00Z</time>
      </trkpt>
      <trkpt lat="43.98414" lon="1.87894">
        <ele>219.4</ele>
        <time>2023-07-23T08:01:01Z</time>
      </trkpt>
      <trkpt lat="43.98412" lon="1.87896">
        <ele>219.6</ele>
        <time>2023-07-23T08:01:02Z</time>
      </trkpt>
      <trkpt lat="43.98411" lon="1.87898">
        <ele>219.8</ele>
        <time>2023-07-23T08:01:03Z</time>
      </trkpt>
      <trkpt lat="43.98409" lon="1.87901">
        <ele>220</ele>
        <time>2023-07-23T08:01:04Z</time>
      </trkpt>
      <trkpt lat="43.98408" lon="1.87903">
        <ele>220.2</ele>
        <time>2023-07-23T08:01:05Z</time>
      </trkpt>
      <trkpt lat="43.98406" lon="1.87905">
        <ele>220.4</ele>
        <time>2023-07-23T08:01:06Z</time>
      </trkpt>
      <trkpt lat="43.98405" lon="1.87907">
        <ele>220.6</ele>
        <time>2023-07-23T08:01:07Z</time>
      </trkpt>
      <trkpt lat="43.98403" lon="1.8791">
        <ele>220.6</ele>
        <time>2023-07-23T08:01:08Z</time>
      </trkpt>
      <trkpt lat="43.98402" lon="1.87912">
        <ele>220.8</ele>
        <time>2023-07-23T08:01:09Z</time>
      </trkpt>
      <trkpt lat="43.98401" lon="1.87915">
        <ele>220.8</ele>
        <time>2023-07-23T08:01:10Z</time>
      </trkpt>
      <trkpt lat="43.98399" lon="1.87917">
        <ele>221</ele>
        <time>2023-07-23T08:01:11Z</time>
      </trkpt>
      <trkpt lat="43.98398" lon="1.8792">
        <ele>221</ele>
        <time>2023-07-23T08:01:12Z</time>
      </trkpt>
      <trkpt lat="43.98397" lon="1.87922">
        <ele>221.2</ele>
        <time>2023-07-23T08:01:13Z</time>
      </trkpt>
      <trkpt lat="43.98395" lon="1.87925">
        <ele>221.6</ele>
        <time>2023-07-23T08:01:14Z</time>
      </trkpt>
      <trkpt lat="43.98394" lon="1.87928">
        <ele>221.6</ele>
        <time>2023-07-23T08:01:15Z</time>
      </trkpt>
      <trkpt lat="43.98392" lon="1.8793">
        <ele>221.8</ele>
        <time>2023-07-23T08:01:16Z</time>
      </trkpt>
      <trkpt lat="43.98391" lon="1.87932">
        <ele>221.8</ele>
        <time>2023-07-23T08:01:17Z</time>
      </trkpt>
      <trkpt lat="43.98389" lon="1.87935">
        <ele>222</ele>
        <time>2023-07-23T08:01:18Z</time>
      </trkpt>
      <trkpt lat="43.98388" lon="1.87938">
        <ele>222.2</ele>
        <time>2023-07-23T08:01:19Z</time>
      </trkpt>
      <trkpt lat="43.98387" lon="1.87941">
        <ele>222.4</ele>
        <time>2023-07-23T08:01:20Z</time>
      </trkpt>
      <trkpt lat="43.98385" lon="1.87944">
        <ele>222.6</ele>
        <time>2023-07-23T08:01:21Z</time>
      </trkpt>
      <trkpt lat="43.98384" lon="1.87947">
        <ele>222.8</ele>
        <time>2023-07-23T08:01:22Z</time>
      </trkpt>
      <trkpt lat="43.98383" lon="1.8795">
        <ele>223</ele>
        <time>2023-07-23T08:01:23Z</time>
      </trkpt>
      <trkpt lat="43.98381" lon="1.87953">
        <ele>223.2</ele>
        <time>2023-07-23T08:01:24Z</time>
      </trkpt>
      <trkpt lat="43.9838" lon="1.87955">
        <ele>223.2</ele>
        <time>2023-07-23T08:01:25Z</time>
      </trkpt>
      <trkpt lat="43.98379" lon="1.87958">
        <ele>223.4</ele>
        <time>2023-07-23T08:01:26Z</time>
      </trkpt>
      <trkpt lat="43.98378" lon="1.8796">
        <ele>223.6</ele>
        <time>2023-07-23T08:01:27Z</time>
      </trkpt>
      <trkpt lat="43.98377" lon="1.87962">
        <ele>223.6</ele>
        <time>2023-07-23T08:01:28Z</time>
      </trkpt>
      <trkpt lat="43.98376" lon="1.87965">
        <ele>223.8</ele>
        <time>2023-07-23T08:01:29Z</time>
      </trkpt>
      <trkpt lat="43.98375" lon="1.87967">
        <ele>223.8</ele>
        <time>2023-07-23T08:01:30Z</time>
      </trkpt>
      <trkpt lat="43.98374" lon="1.8797">
        <ele>224</ele>
        <time>2023-07-23T08:01:31Z</time>
      </trkpt>
      <trkpt lat="43.98373" lon="1.87973">
        <ele>224</ele>
        <time>2023-07-23T08:01:32Z</time>
      </trkpt>
      <trkpt lat="43.98371" lon="1.87976">
        <ele>224</ele>
        <time>2023-07-23T08:01:33Z</time>
      </trkpt>
      <trkpt lat="43.9837" lon="1.87979">
        <ele>224.2</ele>
        <time>2023-07-23T08:01:34Z</time>
      </trkpt>
      <trkpt lat="43.98369" lon="1.87981">
        <ele>224.2</ele>
        <time>2023-07-23T08:01:35Z</time>
      </trkpt>
      <trkpt lat="43.98367" lon="1.87984">
        <ele>224.4</ele>
        <time>2023-07-23T08:01:36Z</time>
      </trkpt>
      <trkpt lat="43.98365" lon="1.87987">
        <ele>224.4</ele>
        <time>2023-07-23T08:01:37Z</time>
      </trkpt>
      <trkpt lat="43.98364" lon="1.87989">
        <ele>224.4</ele>
        <time>2023-07-23T08:01:38Z</time>
      </trkpt>
      <trkpt lat="43.98362" lon="1.87992">
        <ele>224.4</ele>
        <time>2023-07-23T08:01:39Z</time>
      </trkpt>
      <trkpt lat="43.9836" lon="1.87995">
        <ele>224.4</ele>
        <time>2023-07-23T08:01:40Z</time>
      </trkpt>
      <trkpt lat="43.98359" lon="1.87998">
        <ele>224.4</ele>
        <time>2023-07-23T08:01:41Z</time>
      </trkpt>
      <trkpt lat="43.98357" lon="1.88">
        <ele>224.4</ele>
        <time>2023-07-23T08:01:42Z</time>
      </trkpt>
      <trkpt lat="43.98356" lon="1.88003">
        <ele>224.6</ele>
        <time>2023-07-23T08:01:43Z</time>
      </trkpt>
      <trkpt lat="43.98354" lon="1.88005">
        <ele>224.6</ele>
        <time>2023-07-23T08:01:44Z</time>
      </trkpt>
      <trkpt lat="43.98353" lon="1.88008">
        <ele>224.6</ele>
        <time>2023-07-23T08:01:45Z</time>
      </trkpt>
      <trkpt lat="43.98352" lon="1.8801">
        <ele>224.8</ele>
        <time>2023-07-23T08:01:46Z</time>
      </trkpt>
      <trkpt lat="43.9835" lon="1.88013">
        <ele>225</ele>
        <time>2023-07-23T08:01:47Z</time>
      </trkpt>
      <trkpt lat="43.98349" lon="1.88015">
        <ele>225</ele>
        <time>2023-07-23T08:01:48Z</time>
      </trkpt>
      <trkpt lat="43.98342" lon="1.88024">
        <ele>225.4</ele>
        <time>2023-07-23T08:01:52Z</time>
      </trkpt>
      <trkpt lat="43.98335" lon="1.88033">
        <ele>225.8</ele>
        <time>2023-07-23T08:01:57Z</time>
      </trkpt>
      <trkpt lat="43.98333" lon="1.88034">
        <ele>225.8</ele>
        <time>2023-07-23T08:01:58Z</time>
      </trkpt>
      <trkpt lat="43.98332" lon="1.88036">
        <ele>225.8</ele>
        <time>2023-07-23T08:01:59Z</time>
      </trkpt>
      <trkpt lat="43.98331" lon="1.88037">
        <ele>225.8</ele>
        <time>2023-07-23T08:02:00Z</time>
      </trkpt>
      <trkpt lat="43.9833" lon="1.88039">
        <ele>225.8</ele>
        <time>2023-07-23T08:02:01Z</time>
      </trkpt>
      <trkpt lat="43.98329" lon="1.88041">
        <ele>226.2</ele>
        <time>2023-07-23T08:02:02Z</time>
      </trkpt>
      <trkpt lat="43.98328" lon="1.88042">
        <ele>226.2</ele>
        <time>2023-07-23T08:02:03Z</time>
      </trkpt>
      <trkpt lat="43.98326" lon="1.88043">
        <ele>226.2</ele>
        <time>2023-07-23T08:02:04Z</time>
      </trkpt>
      <trkpt lat="43.98325" lon="1.88045">
        <ele>226.4</ele>
        <time>2023-07-23T08:02:05Z</time>
      </trkpt>
      <trkpt lat="43.98323" lon="1.88046">
        <ele>226.4</ele>
        <time>2023-07-23T08:02:06Z</time>
      </trkpt>
      <trkpt lat="43.98322" lon="1.88047">
        <ele>226.6</ele>
        <time>2023-07-23T08:02:07Z</time>
      </trkpt>
      <trkpt lat="43.98321" lon="1.88048">
        <ele>226.6</ele>
        <time>2023-07-23T08:02:08Z</time>
      </trkpt>
      <trkpt lat="43.9832" lon="1.8805">
        <ele>226.8</ele>
        <time>2023-07-23T08:02:09Z</time>
      </trkpt>
      <trkpt lat="43.98318" lon="1.88052">
        <ele>226.8</ele>
        <time>2023-07-23T08:02:10Z</time>
      </trkpt>
      <trkpt lat="43.98316" lon="1.88053">
        <ele>227</ele>
        <time>2023-07-23T08:02:11Z</time>
      </trkpt>
      <trkpt lat="43.98306" lon="1.88062">
        <ele>227.6</ele>
        <time>2023-07-23T08:02:18Z</time>
      </trkpt>
      <trkpt lat="43.98304" lon="1.88063">
        <ele>227.6</ele>
        <time>2023-07-23T08:02:19Z</time>
      </trkpt>
      <trkpt lat="43.98302" lon="1.88065">
        <ele>227.8</ele>
        <time>2023-07-23T08:02:21Z</time>
      </trkpt>
      <trkpt lat="43.983" lon="1.88067">
        <ele>227.8</ele>
        <time>2023-07-23T08:02:22Z</time>
      </trkpt>
      <trkpt lat="43.98299" lon="1.88068">
        <ele>227.8</ele>
        <time>2023-07-23T08:02:23Z</time>
      </trkpt>
      <trkpt lat="43.98297" lon="1.88069">
        <ele>227.8</ele>
        <time>2023-07-23T08:02:24Z</time>
      </trkpt>
      <trkpt lat="43.98294" lon="1.88072">
        <ele>228</ele>
        <time>2023-07-23T08:02:26Z</time>
      </trkpt>
      <trkpt lat="43.98291" lon="1.88074">
        <ele>228.4</ele>
        <time>2023-07-23T08:02:28Z</time>
      </trkpt>
      <trkpt lat="43.98279" lon="1.88083">
        <ele>229.4</ele>
        <time>2023-07-23T08:02:36Z</time>
      </trkpt>
      <trkpt lat="43.98274" lon="1.88088">
        <ele>229.6</ele>
        <time>2023-07-23T08:02:39Z</time>
      </trkpt>
      <trkpt lat="43.98268" lon="1.88092">
        <ele>229.8</ele>
        <time>2023-07-23T08:02:43Z</time>
      </trkpt>
      <trkpt lat="43.98262" lon="1.88097">
        <ele>230.2</ele>
        <time>2023-07-23T08:02:47Z</time>
      </trkpt>
      <trkpt lat="43.98261" lon="1.88098">
        <ele>230.2</ele>
        <time>2023-07-23T08:02:48Z</time>
      </trkpt>
      <trkpt lat="43.98259" lon="1.881">
        <ele>230.4</ele>
        <time>2023-07-23T08:02:49Z</time>
      </trkpt>
      <trkpt lat="43.98246" lon="1.8811">
        <ele>231.2</ele>
        <time>2023-07-23T08:02:58Z</time>
      </trkpt>
      <trkpt lat="43.98243" lon="1.88113">
        <ele>231.4</ele>
        <time>2023-07-23T08:03:00Z</time>
      </trkpt>
      <trkpt lat="43.98232" lon="1.88121">
        <ele>232</ele>
        <time>2023-07-23T08:03:07Z</time>
      </trkpt>
      <trkpt lat="43.9823" lon="1.88124">
        <ele>232.2</ele>
        <time>2023-07-23T08:03:09Z</time>
      </trkpt>
      <trkpt lat="43.98228" lon="1.88125">
        <ele>232.2</ele>
        <time>2023-07-23T08:03:10Z</time>
      </trkpt>
      <trkpt lat="43.98227" lon="1.88126">
        <ele>232.2</ele>
        <time>2023-07-23T08:03:11Z</time>
      </trkpt>
      <trkpt lat="43.98226" lon="1.88127">
        <ele>232.4</ele>
        <time>2023-07-23T08:03:12Z</time>
      </trkpt>
      <trkpt lat="43.98225" lon="1.88127">
        <ele>232.6</ele>
        <time>2023-07-23T08:03:13Z</time>
      </trkpt>
      <trkpt lat="43.98224" lon="1.88128">
        <ele>232.8</ele>
        <time>2023-07-23T08:03:14Z</time>
      </trkpt>
      <trkpt lat="43.98223" lon="1.8813">
        <ele>233</ele>
        <time>2023-07-23T08:03:15Z</time>
      </trkpt>
      <trkpt lat="43.98222" lon="1.88131">
        <ele>233</ele>
        <time>2023-07-23T08:03:16Z</time>
      </trkpt>
      <trkpt lat="43.98221" lon="1.88132">
        <ele>233.2</ele>
        <time>2023-07-23T08:03:17Z</time>
      </trkpt>
      <trkpt lat="43.9822" lon="1.88133">
        <ele>233.2</ele>
        <time>2023-07-23T08:03:18Z</time>
      </trkpt>
      <trkpt lat="43.98219" lon="1.88134">
        <ele>233.4</ele>
        <time>2023-07-23T08:03:19Z</time>
      </trkpt>
      <trkpt lat="43.98217" lon="1.88135">
        <ele>233.6</ele>
        <time>2023-07-23T08:03:20Z</time>
      </trkpt>
      <trkpt lat="43.98216" lon="1.88137">
        <ele>234</ele>
        <time>2023-07-23T08:03:22Z</time>
      </trkpt>
      <trkpt lat="43.98214" lon="1.88138">
        <ele>234.2</ele>
        <time>2023-07-23T08:03:23Z</time>
      </trkpt>
      <trkpt lat="43.98213" lon="1.88138">
        <ele>234.6</ele>
        <time>2023-07-23T08:03:24Z</time>
      </trkpt>
      <trkpt lat="43.98212" lon="1.88139">
        <ele>234.8</ele>
        <time>2023-07-23T08:03:25Z</time>
      </trkpt>
      <trkpt lat="43.98211" lon="1.88141">
        <ele>235</ele>
        <time>2023-07-23T08:03:26Z</time>
      </trkpt>
      <trkpt lat="43.9821" lon="1.88142">
        <ele>235.2</ele>
        <time>2023-07-23T08:03:27Z</time>
      </trkpt>
      <trkpt lat="43.9821" lon="1.88143">
        <ele>235.4</ele>
        <time>2023-07-23T08:03:28Z</time>
      </trkpt>
      <trkpt lat="43.98209" lon="1.88144">
        <ele>235.6</ele>
        <time>2023-07-23T08:03:29Z</time>
      </trkpt>
      <trkpt lat="43.98207" lon="1.88144">
        <ele>235.8</ele>
        <time>2023-07-23T08:03:30Z</time>
      </trkpt>
      <trkpt lat="43.98206" lon="1.88145">
        <ele>236</ele>
        <time>2023-07-23T08:03:31Z</time>
      </trkpt>
      <trkpt lat="43.98205" lon="1.88146">
        <ele>236.4</ele>
        <time>2023-07-23T08:03:32Z</time>
      </trkpt>
      <trkpt lat="43.98204" lon="1.88147">
        <ele>236.8</ele>
        <time>2023-07-23T08:03:33Z</time>
      </trkpt>
      <trkpt lat="43.98203" lon="1.88149">
        <ele>236.8</ele>
        <time>2023-07-23T08:03:34Z</time>
      </trkpt>
      <trkpt lat="43.98202" lon="1.8815">
        <ele>237</ele>
        <time>2023-07-23T08:03:35Z</time>
      </trkpt>
      <trkpt lat="43.982" lon="1.88151">
        <ele>237.2</ele>
        <time>2023-07-23T08:03:36Z</time>
      </trkpt>
      <trkpt lat="43.98199" lon="1.88152">
        <ele>237.4</ele>
        <time>2023-07-23T08:03:37Z</time>
      </trkpt>
      <trkpt lat="43.98199" lon="1.88153">
        <ele>237.6</ele>
        <time>2023-07-23T08:03:38Z</time>
      </trkpt>
      <trkpt lat="43.98198" lon="1.88154">
        <ele>237.8</ele>
        <time>2023-07-23T08:03:39Z</time>
      </trkpt>
      <trkpt lat="43.98197" lon="1.88155">
        <ele>237.8</ele>
        <time>2023-07-23T08:03:40Z</time>
      </trkpt>
      <trkpt lat="43.98195" lon="1.88156">
        <ele>238</ele>
        <time>2023-07-23T08:03:41Z</time>
      </trkpt>
      <trkpt lat="43.98194" lon="1.88157">
        <ele>238.4</ele>
        <time>2023-07-23T08:03:42Z</time>
      </trkpt>
      <trkpt lat="43.98193" lon="1.88158">
        <ele>238.4</ele>
        <time>2023-07-23T08:03:43Z</time>
      </trkpt>
      <trkpt lat="43.98192" lon="1.8816">
        <ele>238.6</ele>
        <time>2023-07-23T08:03:44Z</time>
      </trkpt>
      <trkpt lat="43.98191" lon="1.88161">
        <ele>238.6</ele>
        <time>2023-07-23T08:03:45Z</time>
      </trkpt>
      <trkpt lat="43.9819" lon="1.88162">
        <ele>238.8</ele>
        <time>2023-07-23T08:03:46Z</time>
      </trkpt>
      <trkpt lat="43.98189" lon="1.88163">
        <ele>239</ele>
        <time>2023-07-23T08:03:47Z</time>
      </trkpt>
      <trkpt lat="43.98188" lon="1.88164">
        <ele>239.2</ele>
        <time>2023-07-23T08:03:48Z</time>
      </trkpt>
      <trkpt lat="43.98187" lon="1.88165">
        <ele>239.4</ele>
        <time>2023-07-23T08:03:49Z</time>
      </trkpt>
      <trkpt lat="43.98186" lon="1.88166">
        <ele>239.4</ele>
        <time>2023-07-23T08:03:50Z</time>
      </trkpt>
      <trkpt lat="43.98185" lon="1.88167">
        <ele>239.6</ele>
        <time>2023-07-23T08:03:51Z</time>
      </trkpt>
      <trkpt lat="43.98184" lon="1.88168">
        <ele>239.6</ele>
        <time>2023-07-23T08:03:52Z</time>
      </trkpt>
      <trkpt lat="43.98182" lon="1.8817">
        <ele>240</ele>
        <time>2023-07-23T08:03:53Z</time>
      </trkpt>
      <trkpt lat="43.98181" lon="1.88171">
        <ele>240.2</ele>
        <time>2023-07-23T08:03:54Z</time>
      </trkpt>
      <trkpt lat="43.9818" lon="1.88172">
        <ele>240.2</ele>
        <time>2023-07-23T08:03:55Z</time>
      </trkpt>
      <trkpt lat="43.98179" lon="1.88174">
        <ele>240.4</ele>
        <time>2023-07-23T08:03:56Z</time>
      </trkpt>
      <trkpt lat="43.98178" lon="1.88175">
        <ele>240.4</ele>
        <time>2023-07-23T08:03:57Z</time>
      </trkpt>
      <trkpt lat="43.98178" lon="1.88176">
        <ele>240.8</ele>
        <time>2023-07-23T08:03:58Z</time>
      </trkpt>
      <trkpt lat="43.98177" lon="1.88177">
        <ele>240.8</ele>
        <time>2023-07-23T08:03:59Z</time>
      </trkpt>
      <trkpt lat="43.98176" lon="1.88178">
        <ele>241</ele>
        <time>2023-07-23T08:04:00Z</time>
      </trkpt>
      <trkpt lat="43.98175" lon="1.88179">
        <ele>241</ele>
        <time>2023-07-23T08:04:01Z</time>
      </trkpt>
      <trkpt lat="43.98174" lon="1.88181">
        <ele>241.2</ele>
        <time>2023-07-23T08:04:02Z</time>
      </trkpt>
      <trkpt lat="43.98173" lon="1.88183">
        <ele>241.4</ele>
        <time>2023-07-23T08:04:03Z</time>
      </trkpt>
      <trkpt lat="43.98172" lon="1.88184">
        <ele>241.6</ele>
        <time>2023-07-23T08:04:04Z</time>
      </trkpt>
      <trkpt lat="43.98172" lon="1.88186">
        <ele>241.8</ele>
        <time>2023-07-23T08:04:05Z</time>
      </trkpt>
      <trkpt lat="43.98171" lon="1.88187">
        <ele>242</ele>
        <time>2023-07-23T08:04:06Z</time>
      </trkpt>
      <trkpt lat="43.9817" lon="1.88189">
        <ele>242.4</ele>
        <time>2023-07-23T08:04:07Z</time>
      </trkpt>
      <trkpt lat="43.9817" lon="1.8819">
        <ele>242.6</ele>
        <time>2023-07-23T08:04:08Z</time>
      </trkpt>
      <trkpt lat="43.98169" lon="1.88192">
        <ele>242.8</ele>
        <time>2023-07-23T08:04:09Z</time>
      </trkpt>
      <trkpt lat="43.98169" lon="1.88194">
        <ele>243</ele>
        <time>2023-07-23T08:04:10Z</time>
      </trkpt>
      <trkpt lat="43.98168" lon="1.88196">
        <ele>243.2</ele>
        <time>2023-07-23T08:04:11Z</time>
      </trkpt>
      <trkpt lat="43.98168" lon="1.88198">
        <ele>243.4</ele>
        <time>2023-07-23T08:04:12Z</time>
      </trkpt>
      <trkpt lat="43.98167" lon="1.882">
        <ele>243.4</ele>
        <time>2023-07-23T08:04:13Z</time>
      </trkpt>
      <trkpt lat="43.98167" lon="1.88202">
        <ele>243.8</ele>
        <time>2023-07-23T08:04:14Z</time>
      </trkpt>
      <trkpt lat="43.98167" lon="1.88204">
        <ele>243.8</ele>
        <time>2023-07-23T08:04:15Z</time>
      </trkpt>
      <trkpt lat="43.98167" lon="1.88205">
        <ele>244.2</ele>
        <time>2023-07-23T08:04:16Z</time>
      </trkpt>
      <trkpt lat="43.98167" lon="1.88208">
        <ele>244.2</ele>
        <time>2023-07-23T08:04:17Z</time>
      </trkpt>
      <trkpt lat="43.98167" lon="1.88209">
        <ele>244.6</ele>
        <time>2023-07-23T08:04:18Z</time>
      </trkpt>
      <trkpt lat="43.98167" lon="1.88211">
        <ele>244.6</ele>
        <time>2023-07-23T08:04:19Z</time>
      </trkpt>
      <trkpt lat="43.98166" lon="1.88213">
        <ele>245</ele>
        <time>2023-07-23T08:04:20Z</time>
      </trkpt>
      <trkpt lat="43.98166" lon="1.88215">
        <ele>245.6</ele>
        <time>2023-07-23T08:04:21Z</time>
      </trkpt>
      <trkpt lat="43.98166" lon="1.88217">
        <ele>245.6</ele>
        <time>2023-07-23T08:04:22Z</time>
      </trkpt>
      <trkpt lat="43.98166" lon="1.88219">
        <ele>246</ele>
        <time>2023-07-23T08:04:23Z</time>
      </trkpt>
      <trkpt lat="43.98165" lon="1.88221">
        <ele>246</ele>
        <time>2023-07-23T08:04:24Z</time>
      </trkpt>
      <trkpt lat="43.98165" lon="1.88222">
        <ele>246.2</ele>
        <time>2023-07-23T08:04:25Z</time>
      </trkpt>
      <trkpt lat="43.98165" lon="1.88224">
        <ele>246.2</ele>
        <time>2023-07-23T08:04:26Z</time>
      </trkpt>
      <trkpt lat="43.98164" lon="1.88226">
        <ele>246.6</ele>
        <time>2023-07-23T08:04:27Z</time>
      </trkpt>
      <trkpt lat="43.98164" lon="1.88227">
        <ele>246.8</ele>
        <time>2023-07-23T08:04:28Z</time>
      </trkpt>
      <trkpt lat="43.98163" lon="1.88228">
        <ele>247</ele>
        <time>2023-07-23T08:04:29Z</time>
      </trkpt>
      <trkpt lat="43.98161" lon="1.88228">
        <ele>247.4</ele>
        <time>2023-07-23T08:04:30Z</time>
      </trkpt>
      <trkpt lat="43.9816" lon="1.88228">
        <ele>247.6</ele>
        <time>2023-07-23T08:04:31Z</time>
      </trkpt>
      <trkpt lat="43.98158" lon="1.88228">
        <ele>248.2</ele>
        <time>2023-07-23T08:04:32Z</time>
      </trkpt>
      <trkpt lat="43.98157" lon="1.88228">
        <ele>248.4</ele>
        <time>2023-07-23T08:04:33Z</time>
      </trkpt>
      <trkpt lat="43.98155" lon="1.88227">
        <ele>248.6</ele>
        <time>2023-07-23T08:04:34Z</time>
      </trkpt>
      <trkpt lat="43.98153" lon="1.88227">
        <ele>248.8</ele>
        <time>2023-07-23T08:04:35Z</time>
      </trkpt>
      <trkpt lat="43.98152" lon="1.88226">
        <ele>248.8</ele>
        <time>2023-07-23T08:04:36Z</time>
      </trkpt>
      <trkpt lat="43.9815" lon="1.88226">
        <ele>249</ele>
        <time>2023-07-23T08:04:37Z</time>
      </trkpt>
      <trkpt lat="43.98148" lon="1.88226">
        <ele>249</ele>
        <time>2023-07-23T08:04:38Z</time>
      </trkpt>
      <trkpt lat="43.98146" lon="1.88226">
        <ele>249.2</ele>
        <time>2023-07-23T08:04:39Z</time>
      </trkpt>
      <trkpt lat="43.98144" lon="1.88225">
        <ele>249.2</ele>
        <time>2023-07-23T08:04:40Z</time>
      </trkpt>
      <trkpt lat="43.98142" lon="1.88225">
        <ele>249.4</ele>
        <time>2023-07-23T08:04:41Z</time>
      </trkpt>
      <trkpt lat="43.9814" lon="1.88224">
        <ele>249.4</ele>
        <time>2023-07-23T08:04:42Z</time>
      </trkpt>
      <trkpt lat="43.98138" lon="1.88224">
        <ele>249.4</ele>
        <time>2023-07-23T08:04:43Z</time>
      </trkpt>
      <trkpt lat="43.98136" lon="1.88223">
        <ele>249.6</ele>
        <time>2023-07-23T08:04:44Z</time>
      </trkpt>
      <trkpt lat="43.98134" lon="1.88223">
        <ele>249.6</ele>
        <time>2023-07-23T08:04:45Z</time>
      </trkpt>
      <trkpt lat="43.98132" lon="1.88223">
        <ele>249.6</ele>
        <time>2023-07-23T08:04:46Z</time>
      </trkpt>
      <trkpt lat="43.98129" lon="1.88223">
        <ele>249.6</ele>
        <time>2023-07-23T08:04:47Z</time>
      </trkpt>
      <trkpt lat="43.98127" lon="1.88222">
        <ele>249.8</ele>
        <time>2023-07-23T08:04:48Z</time>
      </trkpt>
      <trkpt lat="43.98125" lon="1.88222">
        <ele>249.8</ele>
        <time>2023-07-23T08:04:49Z</time>
      </trkpt>
      <trkpt lat="43.98122" lon="1.88222">
        <ele>250</ele>
        <time>2023-07-23T08:04:50Z</time>
      </trkpt>
      <trkpt lat="43.9812" lon="1.88222">
        <ele>250.2</ele>
        <time>2023-07-23T08:04:51Z</time>
      </trkpt>
      <trkpt lat="43.98118" lon="1.88222">
        <ele>250.2</ele>
        <time>2023-07-23T08:04:52Z</time>
      </trkpt>
      <trkpt lat="43.98115" lon="1.88221">
        <ele>250.2</ele>
        <time>2023-07-23T08:04:53Z</time>
      </trkpt>
      <trkpt lat="43.98113" lon="1.88221">
        <ele>250.4</ele>
        <time>2023-07-23T08:04:54Z</time>
      </trkpt>
      <trkpt lat="43.98111" lon="1.88221">
        <ele>250.4</ele>
        <time>2023-07-23T08:04:55Z</time>
      </trkpt>
      <trkpt lat="43.98109" lon="1.88221">
        <ele>250.4</ele>
        <time>2023-07-23T08:04:56Z</time>
      </trkpt>
      <trkpt lat="43.98107" lon="1.88221">
        <ele>250.6</ele>
        <time>2023-07-23T08:04:57Z</time>
      </trkpt>
      <trkpt lat="43.98105" lon="1.88222">
        <ele>250.6</ele>
        <time>2023-07-23T08:04:58Z</time>
      </trkpt>
      <trkpt lat="43.98102" lon="1.88223">
        <ele>250.8</ele>
        <time>2023-07-23T08:04:59Z</time>
      </trkpt>
      <trkpt lat="43.981" lon="1.88223">
        <ele>250.8</ele>
        <time>2023-07-23T08:05:00Z</time>
      </trkpt>
      <trkpt lat="43.98098" lon="1.88224">
        <ele>251</ele>
        <time>2023-07-23T08:05:01Z</time>
      </trkpt>
      <trkpt lat="43.98096" lon="1.88224">
        <ele>251.2</ele>
        <time>2023-07-23T08:05:02Z</time>
      </trkpt>
      <trkpt lat="43.98093" lon="1.88225">
        <ele>251.2</ele>
        <time>2023-07-23T08:05:03Z</time>
      </trkpt>
      <trkpt lat="43.9809" lon="1.88225">
        <ele>251.4</ele>
        <time>2023-07-23T08:05:04Z</time>
      </trkpt>
      <trkpt lat="43.98088" lon="1.88225">
        <ele>251.4</ele>
        <time>2023-07-23T08:05:05Z</time>
      </trkpt>
      <trkpt lat="43.98087" lon="1.88223">
        <ele>252</ele>
        <time>2023-07-23T08:05:06Z</time>
      </trkpt>
      <trkpt lat="43.98085" lon="1.88221">
        <ele>252</ele>
        <time>2023-07-23T08:05:07Z</time>
      </trkpt>
      <trkpt lat="43.98083" lon="1.88218">
        <ele>252</ele>
        <time>2023-07-23T08:05:08Z</time>
      </trkpt>
      <trkpt lat="43.98083" lon="1.88216">
        <ele>252.2</ele>
        <time>2023-07-23T08:05:09Z</time>
      </trkpt>
      <trkpt lat="43.98083" lon="1.88212">
        <ele>252.4</ele>
        <time>2023-07-23T08:05:10Z</time>
      </trkpt>
      <trkpt lat="43.98083" lon="1.88209">
        <ele>252.6</ele>
        <time>2023-07-23T08:05:11Z</time>
      </trkpt>
      <trkpt lat="43.98083" lon="1.88206">
        <ele>252.6</ele>
        <time>2023-07-23T08:05:12Z</time>
      </trkpt>
      <trkpt lat="43.98083" lon="1.88203">
        <ele>252.6</ele>
        <time>2023-07-23T08:05:13Z</time>
      </trkpt>
      <trkpt lat="43.98084" lon="1.882">
        <ele>252.8</ele>
        <time>2023-07-23T08:05:14Z</time>
      </trkpt>
      <trkpt lat="43.98085" lon="1.88196">
        <ele>253</ele>
        <time>2023-07-23T08:05:15Z</time>
      </trkpt>
      <trkpt lat="43.98086" lon="1.88192">
        <ele>253</ele>
        <time>2023-07-23T08:05:16Z</time>
      </trkpt>
      <trkpt lat="43.98087" lon="1.88188">
        <ele>253.2</ele>
        <time>2023-07-23T08:05:17Z</time>
      </trkpt>
      <trkpt lat="43.98088" lon="1.88183">
        <ele>253.2</ele>
        <time>2023-07-23T08:05:18Z</time>
      </trkpt>
      <trkpt lat="43.98089" lon="1.88179">
        <ele>253.2</ele>
        <time>2023-07-23T08:05:19Z</time>
      </trkpt>
      <trkpt lat="43.98089" lon="1.88175">
        <ele>253.4</ele>
        <time>2023-07-23T08:05:20Z</time>
      </trkpt>
      <trkpt lat="43.9809" lon="1.8817">
        <ele>253.4</ele>
        <time>2023-07-23T08:05:21Z</time>
      </trkpt>
      <trkpt lat="43.98089" lon="1.88165">
        <ele>253.4</ele>
        <time>2023-07-23T08:05:22Z</time>
      </trkpt>
      <trkpt lat="43.98089" lon="1.8816">
        <ele>253.4</ele>
        <time>2023-07-23T08:05:23Z</time>
      </trkpt>
      <trkpt lat="43.98089" lon="1.88155">
        <ele>253.4</ele>
        <time>2023-07-23T08:05:24Z</time>
      </trkpt>
      <trkpt lat="43.98088" lon="1.88151">
        <ele>253.4</ele>
        <time>2023-07-23T08:05:25Z</time>
      </trkpt>
      <trkpt lat="43.98088" lon="1.88147">
        <ele>253.4</ele>
        <time>2023-07-23T08:05:26Z</time>
      </trkpt>
      <trkpt lat="43.98087" lon="1.88142">
        <ele>253.6</ele>
        <time>2023-07-23T08:05:27Z</time>
      </trkpt>
      <trkpt lat="43.98083" lon="1.88109">
        <ele>254.2</ele>
        <time>2023-07-23T08:05:35Z</time>
      </trkpt>
      <trkpt lat="43.98083" lon="1.88106">
        <ele>254.4</ele>
        <time>2023-07-23T08:05:36Z</time>
      </trkpt>
      <trkpt lat="43.98082" lon="1.88102">
        <ele>254.6</ele>
        <time>2023-07-23T08:05:37Z</time>
      </trkpt>
      <trkpt lat="43.98082" lon="1.88099">
        <ele>255.2</ele>
        <time>2023-07-23T08:05:38Z</time>
      </trkpt>
      <trkpt lat="43.98082" lon="1.88096">
        <ele>255.2</ele>
        <time>2023-07-23T08:05:39Z</time>
      </trkpt>
      <trkpt lat="43.98081" lon="1.88093">
        <ele>255.4</ele>
        <time>2023-07-23T08:05:40Z</time>
      </trkpt>
      <trkpt lat="43.98081" lon="1.8809">
        <ele>255.6</ele>
        <time>2023-07-23T08:05:41Z</time>
      </trkpt>
      <trkpt lat="43.9808" lon="1.88087">
        <ele>255.6</ele>
        <time>2023-07-23T08:05:42Z</time>
      </trkpt>
      <trkpt lat="43.9808" lon="1.88085">
        <ele>255.6</ele>
        <time>2023-07-23T08:05:43Z</time>
      </trkpt>
      <trkpt lat="43.98079" lon="1.88082">
        <ele>255.6</ele>
        <time>2023-07-23T08:05:44Z</time>
      </trkpt>
      <trkpt lat="43.98079" lon="1.88079">
        <ele>255.6</ele>
        <time>2023-07-23T08:05:45Z</time>
      </trkpt>
      <trkpt lat="43.98078" lon="1.88076">
        <ele>255.6</ele>
        <time>2023-07-23T08:05:46Z</time>
      </trkpt>
      <trkpt lat="43.98078" lon="1.88073">
        <ele>255.8</ele>
        <time>2023-07-23T08:05:47Z</time>
      </trkpt>
      <trkpt lat="43.98077" lon="1.8807">
        <ele>255.8</ele>
        <time>2023-07-23T08:05:48Z</time>
      </trkpt>
      <trkpt lat="43.98077" lon="1.88066">
        <ele>255.6</ele>
        <time>2023-07-23T08:05:49Z</time>
      </trkpt>
      <trkpt lat="43.98077" lon="1.88062">
        <ele>255.6</ele>
        <time>2023-07-23T08:05:50Z</time>
      </trkpt>
      <trkpt lat="43.98076" lon="1.88057">
        <ele>255.4</ele>
        <time>2023-07-23T08:05:51Z</time>
      </trkpt>
      <trkpt lat="43.98076" lon="1.88051">
        <ele>255.2</ele>
        <time>2023-07-23T08:05:52Z</time>
      </trkpt>
      <trkpt lat="43.98073" lon="1.88015">
        <ele>254.6</ele>
        <time>2023-07-23T08:05:57Z</time>
      </trkpt>
      <trkpt lat="43.98072" lon="1.88007">
        <ele>254.4</ele>
        <time>2023-07-23T08:05:58Z</time>
      </trkpt>
      <trkpt lat="43.98069" lon="1.87983">
        <ele>253.4</ele>
        <time>2023-07-23T08:06:01Z</time>
      </trkpt>
      <trkpt lat="43.98067" lon="1.87975">
        <ele>253</ele>
        <time>2023-07-23T08:06:02Z</time>
      </trkpt>
      <trkpt lat="43.98063" lon="1.87951">
        <ele>252</ele>
        <time>2023-07-23T08:06:05Z</time>
      </trkpt>
      <trkpt lat="43.9806" lon="1.87935">
        <ele>251</ele>
        <time>2023-07-23T08:06:07Z</time>
      </trkpt>
      <trkpt lat="43.98057" lon="1.8792">
        <ele>250</ele>
        <time>2023-07-23T08:06:09Z</time>
      </trkpt>
      <trkpt lat="43.98052" lon="1.87899">
        <ele>248.8</ele>
        <time>2023-07-23T08:06:12Z</time>
      </trkpt>
      <trkpt lat="43.9805" lon="1.87892">
        <ele>248.2</ele>
        <time>2023-07-23T08:06:13Z</time>
      </trkpt>
      <trkpt lat="43.98048" lon="1.87885">
        <ele>247.6</ele>
        <time>2023-07-23T08:06:14Z</time>
      </trkpt>
      <trkpt lat="43.98046" lon="1.87877">
        <ele>247.2</ele>
        <time>2023-07-23T08:06:15Z</time>
      </trkpt>
      <trkpt lat="43.98044" lon="1.8787">
        <ele>246.4</ele>
        <time>2023-07-23T08:06:16Z</time>
      </trkpt>
      <trkpt lat="43.98042" lon="1.87863">
        <ele>245.8</ele>
        <time>2023-07-23T08:06:17Z</time>
      </trkpt>
      <trkpt lat="43.98038" lon="1.87849">
        <ele>245.2</ele>
        <time>2023-07-23T08:06:19Z</time>
      </trkpt>
      <trkpt lat="43.98033" lon="1.87834">
        <ele>244.2</ele>
        <time>2023-07-23T08:06:21Z</time>
      </trkpt>
      <trkpt lat="43.98027" lon="1.87819">
        <ele>242.6</ele>
        <time>2023-07-23T08:06:23Z</time>
      </trkpt>
      <trkpt lat="43.98021" lon="1.87804">
        <ele>241.6</ele>
        <time>2023-07-23T08:06:25Z</time>
      </trkpt>
      <trkpt lat="43.98016" lon="1.8779">
        <ele>240.6</ele>
        <time>2023-07-23T08:06:27Z</time>
      </trkpt>
      <trkpt lat="43.98007" lon="1.87771">
        <ele>239.4</ele>
        <time>2023-07-23T08:06:30Z</time>
      </trkpt>
      <trkpt lat="43.97994" lon="1.87752">
        <ele>237.8</ele>
        <time>2023-07-23T08:06:33Z</time>
      </trkpt>
      <trkpt lat="43.97983" lon="1.87739">
        <ele>236.8</ele>
        <time>2023-07-23T08:06:35Z</time>
      </trkpt>
      <trkpt lat="43.97967" lon="1.87722">
        <ele>235.4</ele>
        <time>2023-07-23T08:06:38Z</time>
      </trkpt>
      <trkpt lat="43.97963" lon="1.87718">
        <ele>234.6</ele>
        <time>2023-07-23T08:06:39Z</time>
      </trkpt>
      <trkpt lat="43.97959" lon="1.87715">
        <ele>234.2</ele>
        <time>2023-07-23T08:06:40Z</time>
      </trkpt>
      <trkpt lat="43.97957" lon="1.87712">
        <ele>233.6</ele>
        <time>2023-07-23T08:06:41Z</time>
      </trkpt>
      <trkpt lat="43.97956" lon="1.87709">
        <ele>232.8</ele>
        <time>2023-07-23T08:06:42Z</time>
      </trkpt>
      <trkpt lat="43.97955" lon="1.87707">
        <ele>232.4</ele>
        <time>2023-07-23T08:06:43Z</time>
      </trkpt>
      <trkpt lat="43.97955" lon="1.87704">
        <ele>231.4</ele>
        <time>2023-07-23T08:06:44Z</time>
      </trkpt>
      <trkpt lat="43.97955" lon="1.87701">
        <ele>231</ele>
        <time>2023-07-23T08:06:45Z</time>
      </trkpt>
      <trkpt lat="43.97955" lon="1.87698">
        <ele>230.4</ele>
        <time>2023-07-23T08:06:46Z</time>
      </trkpt>
      <trkpt lat="43.97954" lon="1.87693">
        <ele>230.2</ele>
        <time>2023-07-23T08:06:47Z</time>
      </trkpt>
      <trkpt lat="43.97953" lon="1.87683">
        <ele>229.4</ele>
        <time>2023-07-23T08:06:49Z</time>
      </trkpt>
      <trkpt lat="43.97953" lon="1.87677">
        <ele>229</ele>
        <time>2023-07-23T08:06:50Z</time>
      </trkpt>
      <trkpt lat="43.97951" lon="1.87659">
        <ele>228.4</ele>
        <time>2023-07-23T08:06:53Z</time>
      </trkpt>
      <trkpt lat="43.97949" lon="1.87646">
        <ele>228</ele>
        <time>2023-07-23T08:06:55Z</time>
      </trkpt>
      <trkpt lat="43.97948" lon="1.8764">
        <ele>227.8</ele>
        <time>2023-07-23T08:06:56Z</time>
      </trkpt>
      <trkpt lat="43.97943" lon="1.87603">
        <ele>227.2</ele>
        <time>2023-07-23T08:07:01Z</time>
      </trkpt>
      <trkpt lat="43.9794" lon="1.87588">
        <ele>227</ele>
        <time>2023-07-23T08:07:03Z</time>
      </trkpt>
      <trkpt lat="43.97939" lon="1.87579">
        <ele>226.8</ele>
        <time>2023-07-23T08:07:04Z</time>
      </trkpt>
      <trkpt lat="43.97935" lon="1.87553">
        <ele>225.6</ele>
        <time>2023-07-23T08:07:07Z</time>
      </trkpt>
      <trkpt lat="43.97934" lon="1.87544">
        <ele>225.6</ele>
        <time>2023-07-23T08:07:08Z</time>
      </trkpt>
      <trkpt lat="43.97933" lon="1.87536">
        <ele>225.4</ele>
        <time>2023-07-23T08:07:09Z</time>
      </trkpt>
      <trkpt lat="43.97928" lon="1.87509">
        <ele>224.4</ele>
        <time>2023-07-23T08:07:12Z</time>
      </trkpt>
      <trkpt lat="43.97926" lon="1.875">
        <ele>223.4</ele>
        <time>2023-07-23T08:07:13Z</time>
      </trkpt>
      <trkpt lat="43.97925" lon="1.87492">
        <ele>223</ele>
        <time>2023-07-23T08:07:14Z</time>
      </trkpt>
      <trkpt lat="43.97918" lon="1.87452">
        <ele>222.4</ele>
        <time>2023-07-23T08:07:19Z</time>
      </trkpt>
      <trkpt lat="43.97917" lon="1.87444">
        <ele>222.4</ele>
        <time>2023-07-23T08:07:20Z</time>
      </trkpt>
      <trkpt lat="43.97916" lon="1.87437">
        <ele>222.2</ele>
        <time>2023-07-23T08:07:21Z</time>
      </trkpt>
      <trkpt lat="43.97914" lon="1.87429">
        <ele>222.2</ele>
        <time>2023-07-23T08:07:22Z</time>
      </trkpt>
      <trkpt lat="43.97913" lon="1.87422">
        <ele>222</ele>
        <time>2023-07-23T08:07:23Z</time>
      </trkpt>
      <trkpt lat="43.97907" lon="1.87391">
        <ele>221.4</ele>
        <time>2023-07-23T08:07:27Z</time>
      </trkpt>
      <trkpt lat="43.97906" lon="1.87384">
        <ele>221.2</ele>
        <time>2023-07-23T08:07:28Z</time>
      </trkpt>
      <trkpt lat="43.97904" lon="1.87377">
        <ele>221.2</ele>
        <time>2023-07-23T08:07:29Z</time>
      </trkpt>
      <trkpt lat="43.97903" lon="1.8737">
        <ele>221.2</ele>
        <time>2023-07-23T08:07:30Z</time>
      </trkpt>
      <trkpt lat="43.97899" lon="1.87355">
        <ele>221</ele>
        <time>2023-07-23T08:07:32Z</time>
      </trkpt>
      <trkpt lat="43.97897" lon="1.87348">
        <ele>221</ele>
        <time>2023-07-23T08:07:33Z</time>
      </trkpt>
      <trkpt lat="43.97891" lon="1.87325">
        <ele>220.2</ele>
        <time>2023-07-23T08:07:36Z</time>
      </trkpt>
      <trkpt lat="43.97887" lon="1.8731">
        <ele>219.6</ele>
        <time>2023-07-23T08:07:38Z</time>
      </trkpt>
      <trkpt lat="43.97883" lon="1.8728">
        <ele>218.8</ele>
        <time>2023-07-23T08:07:42Z</time>
      </trkpt>
      <trkpt lat="43.97882" lon="1.87265">
        <ele>218.4</ele>
        <time>2023-07-23T08:07:44Z</time>
      </trkpt>
      <trkpt lat="43.97882" lon="1.87259">
        <ele>218.4</ele>
        <time>2023-07-23T08:07:45Z</time>
      </trkpt>
      <trkpt lat="43.97882" lon="1.87253">
        <ele>218.2</ele>
        <time>2023-07-23T08:07:46Z</time>
      </trkpt>
      <trkpt lat="43.97881" lon="1.87248">
        <ele>218.2</ele>
        <time>2023-07-23T08:07:47Z</time>
      </trkpt>
      <trkpt lat="43.97881" lon="1.87241">
        <ele>218</ele>
        <time>2023-07-23T08:07:48Z</time>
      </trkpt>
      <trkpt lat="43.97881" lon="1.87237">
        <ele>217.6</ele>
        <time>2023-07-23T08:07:49Z</time>
      </trkpt>
      <trkpt lat="43.9788" lon="1.8723">
        <ele>217.4</ele>
        <time>2023-07-23T08:07:50Z</time>
      </trkpt>
      <trkpt lat="43.97879" lon="1.87224">
        <ele>217.2</ele>
        <time>2023-07-23T08:07:51Z</time>
      </trkpt>
      <trkpt lat="43.97875" lon="1.87164">
        <ele>216.4</ele>
        <time>2023-07-23T08:07:59Z</time>
      </trkpt>
      <trkpt lat="43.97873" lon="1.87153">
        <ele>216.2</ele>
        <time>2023-07-23T08:08:01Z</time>
      </trkpt>
      <trkpt lat="43.97872" lon="1.87146">
        <ele>216</ele>
        <time>2023-07-23T08:08:02Z</time>
      </trkpt>
      <trkpt lat="43.97872" lon="1.8714">
        <ele>215.6</ele>
        <time>2023-07-23T08:08:03Z</time>
      </trkpt>
      <trkpt lat="43.97873" lon="1.87134">
        <ele>215.4</ele>
        <time>2023-07-23T08:08:04Z</time>
      </trkpt>
      <trkpt lat="43.97874" lon="1.87125">
        <ele>215</ele>
        <time>2023-07-23T08:08:06Z</time>
      </trkpt>
      <trkpt lat="43.97873" lon="1.87121">
        <ele>215</ele>
        <time>2023-07-23T08:08:07Z</time>
      </trkpt>
      <trkpt lat="43.97873" lon="1.87117">
        <ele>215</ele>
        <time>2023-07-23T08:08:08Z</time>
      </trkpt>
      <trkpt lat="43.97872" lon="1.87112">
        <ele>215</ele>
        <time>2023-07-23T08:08:09Z</time>
      </trkpt>
      <trkpt lat="43.97872" lon="1.87109">
        <ele>215</ele>
        <time>2023-07-23T08:08:10Z</time>
      </trkpt>
      <trkpt lat="43.97871" lon="1.87104">
        <ele>215</ele>
        <time>2023-07-23T08:08:11Z</time>
      </trkpt>
      <trkpt lat="43.97867" lon="1.8709">
        <ele>215</ele>
        <time>2023-07-23T08:08:14Z</time>
      </trkpt>
      <trkpt lat="43.97864" lon="1.87083">
        <ele>215</ele>
        <time>2023-07-23T08:08:16Z</time>
      </trkpt>
      <trkpt lat="43.97863" lon="1.87078">
        <ele>215</ele>
        <time>2023-07-23T08:08:17Z</time>
      </trkpt>
      <trkpt lat="43.97863" lon="1.87074">
        <ele>215</ele>
        <time>2023-07-23T08:08:18Z</time>
      </trkpt>
      <trkpt lat="43.97862" lon="1.8707">
        <ele>215.2</ele>
        <time>2023-07-23T08:08:19Z</time>
      </trkpt>
      <trkpt lat="43.97861" lon="1.87064">
        <ele>215.2</ele>
        <time>2023-07-23T08:08:20Z</time>
      </trkpt>
      <trkpt lat="43.97861" lon="1.87061">
        <ele>215.2</ele>
        <time>2023-07-23T08:08:21Z</time>
      </trkpt>
      <trkpt lat="43.97859" lon="1.87054">
        <ele>215.4</ele>
        <time>2023-07-23T08:08:23Z</time>
      </trkpt>
      <trkpt lat="43.97858" lon="1.87051">
        <ele>215.6</ele>
        <time>2023-07-23T08:08:24Z</time>
      </trkpt>
      <trkpt lat="43.97857" lon="1.87046">
        <ele>215.8</ele>
        <time>2023-07-23T08:08:25Z</time>
      </trkpt>
      <trkpt lat="43.97857" lon="1.87043">
        <ele>215.8</ele>
        <time>2023-07-23T08:08:26Z</time>
      </trkpt>
      <trkpt lat="43.97857" lon="1.87039">
        <ele>216</ele>
        <time>2023-07-23T08:08:27Z</time>
      </trkpt>
      <trkpt lat="43.97855" lon="1.87035">
        <ele>216</ele>
        <time>2023-07-23T08:08:28Z</time>
      </trkpt>
      <trkpt lat="43.9785" lon="1.87009">
        <ele>216.2</ele>
        <time>2023-07-23T08:08:33Z</time>
      </trkpt>
      <trkpt lat="43.97849" lon="1.87005">
        <ele>216.2</ele>
        <time>2023-07-23T08:08:34Z</time>
      </trkpt>
      <trkpt lat="43.97849" lon="1.87001">
        <ele>216.2</ele>
        <time>2023-07-23T08:08:35Z</time>
      </trkpt>
      <trkpt lat="43.97848" lon="1.86996">
        <ele>216</ele>
        <time>2023-07-23T08:08:36Z</time>
      </trkpt>
      <trkpt lat="43.97847" lon="1.86974">
        <ele>215.8</ele>
        <time>2023-07-23T08:08:40Z</time>
      </trkpt>
      <trkpt lat="43.97847" lon="1.86935">
        <ele>215.4</ele>
        <time>2023-07-23T08:08:46Z</time>
      </trkpt>
      <trkpt lat="43.97848" lon="1.86922">
        <ele>215.2</ele>
        <time>2023-07-23T08:08:48Z</time>
      </trkpt>
      <trkpt lat="43.97849" lon="1.86915">
        <ele>215</ele>
        <time>2023-07-23T08:08:49Z</time>
      </trkpt>
      <trkpt lat="43.9785" lon="1.86898">
        <ele>214.2</ele>
        <time>2023-07-23T08:08:51Z</time>
      </trkpt>
      <trkpt lat="43.97851" lon="1.86882">
        <ele>213.8</ele>
        <time>2023-07-23T08:08:53Z</time>
      </trkpt>
      <trkpt lat="43.97852" lon="1.86876">
        <ele>213.8</ele>
        <time>2023-07-23T08:08:54Z</time>
      </trkpt>
      <trkpt lat="43.97855" lon="1.8687">
        <ele>213.6</ele>
        <time>2023-07-23T08:08:55Z</time>
      </trkpt>
      <trkpt lat="43.97858" lon="1.86867">
        <ele>213.4</ele>
        <time>2023-07-23T08:08:56Z</time>
      </trkpt>
      <trkpt lat="43.9786" lon="1.86864">
        <ele>213.2</ele>
        <time>2023-07-23T08:08:57Z</time>
      </trkpt>
      <trkpt lat="43.97862" lon="1.86862">
        <ele>213</ele>
        <time>2023-07-23T08:08:58Z</time>
      </trkpt>
      <trkpt lat="43.97864" lon="1.86861">
        <ele>213</ele>
        <time>2023-07-23T08:08:59Z</time>
      </trkpt>
      <trkpt lat="43.97866" lon="1.86861">
        <ele>212.6</ele>
        <time>2023-07-23T08:09:00Z</time>
      </trkpt>
      <trkpt lat="43.97868" lon="1.8686">
        <ele>212.6</ele>
        <time>2023-07-23T08:09:01Z</time>
      </trkpt>
      <trkpt lat="43.9787" lon="1.86859">
        <ele>212.4</ele>
        <time>2023-07-23T08:09:02Z</time>
      </trkpt>
      <trkpt lat="43.97874" lon="1.86858">
        <ele>212.4</ele>
        <time>2023-07-23T08:09:04Z</time>
      </trkpt>
      <trkpt lat="43.97875" lon="1.86858">
        <ele>212.4</ele>
        <time>2023-07-23T08:09:05Z</time>
      </trkpt>
      <trkpt lat="43.97877" lon="1.86858">
        <ele>212.4</ele>
        <time>2023-07-23T08:09:06Z</time>
      </trkpt>
      <trkpt lat="43.97879" lon="1.86859">
        <ele>212.6</ele>
        <time>2023-07-23T08:09:07Z</time>
      </trkpt>
      <trkpt lat="43.9788" lon="1.86859">
        <ele>212.6</ele>
        <time>2023-07-23T08:09:08Z</time>
      </trkpt>
      <trkpt lat="43.97882" lon="1.86859">
        <ele>212.6</ele>
        <time>2023-07-23T08:09:09Z</time>
      </trkpt>
      <trkpt lat="43.97883" lon="1.86859">
        <ele>212.8</ele>
        <time>2023-07-23T08:09:10Z</time>
      </trkpt>
      <trkpt lat="43.97885" lon="1.86859">
        <ele>213.2</ele>
        <time>2023-07-23T08:09:11Z</time>
      </trkpt>
      <trkpt lat="43.97886" lon="1.86858">
        <ele>213.4</ele>
        <time>2023-07-23T08:09:12Z</time>
      </trkpt>
      <trkpt lat="43.97887" lon="1.86858">
        <ele>213.4</ele>
        <time>2023-07-23T08:09:13Z</time>
      </trkpt>
      <trkpt lat="43.97889" lon="1.86858">
        <ele>213.6</ele>
        <time>2023-07-23T08:09:14Z</time>
      </trkpt>
      <trkpt lat="43.9789" lon="1.86858">
        <ele>213.8</ele>
        <time>2023-07-23T08:09:15Z</time>
      </trkpt>
      <trkpt lat="43.97893" lon="1.86857">
        <ele>214</ele>
        <time>2023-07-23T08:09:16Z</time>
      </trkpt>
      <trkpt lat="43.97896" lon="1.86858">
        <ele>214.2</ele>
        <time>2023-07-23T08:09:18Z</time>
      </trkpt>
      <trkpt lat="43.97897" lon="1.86858">
        <ele>214.2</ele>
        <time>2023-07-23T08:09:19Z</time>
      </trkpt>
      <trkpt lat="43.97899" lon="1.86858">
        <ele>214.2</ele>
        <time>2023-07-23T08:09:20Z</time>
      </trkpt>
      <trkpt lat="43.97903" lon="1.86859">
        <ele>215.2</ele>
        <time>2023-07-23T08:09:23Z</time>
      </trkpt>
      <trkpt lat="43.97905" lon="1.86859">
        <ele>215.2</ele>
        <time>2023-07-23T08:09:24Z</time>
      </trkpt>
      <trkpt lat="43.97911" lon="1.86861">
        <ele>216.2</ele>
        <time>2023-07-23T08:09:28Z</time>
      </trkpt>
      <trkpt lat="43.97914" lon="1.86863">
        <ele>216.6</ele>
        <time>2023-07-23T08:09:31Z</time>
      </trkpt>
      <trkpt lat="43.97915" lon="1.86864">
        <ele>216.8</ele>
        <time>2023-07-23T08:09:32Z</time>
      </trkpt>
      <trkpt lat="43.97917" lon="1.86864">
        <ele>216.8</ele>
        <time>2023-07-23T08:09:33Z</time>
      </trkpt>
      <trkpt lat="43.97919" lon="1.86865">
        <ele>217</ele>
        <time>2023-07-23T08:09:34Z</time>
      </trkpt>
      <trkpt lat="43.9792" lon="1.86866">
        <ele>217.4</ele>
        <time>2023-07-23T08:09:35Z</time>
      </trkpt>
      <trkpt lat="43.97921" lon="1.86867">
        <ele>217.4</ele>
        <time>2023-07-23T08:09:36Z</time>
      </trkpt>
      <trkpt lat="43.97922" lon="1.86868">
        <ele>217.6</ele>
        <time>2023-07-23T08:09:37Z</time>
      </trkpt>
      <trkpt lat="43.97923" lon="1.86868">
        <ele>217.6</ele>
        <time>2023-07-23T08:09:38Z</time>
      </trkpt>
      <trkpt lat="43.97925" lon="1.86869">
        <ele>217.8</ele>
        <time>2023-07-23T08:09:39Z</time>
      </trkpt>
      <trkpt lat="43.97927" lon="1.8687">
        <ele>217.8</ele>
        <time>2023-07-23T08:09:40Z</time>
      </trkpt>
      <trkpt lat="43.97928" lon="1.86871">
        <ele>218</ele>
        <time>2023-07-23T08:09:41Z</time>
      </trkpt>
      <trkpt lat="43.9793" lon="1.86873">
        <ele>218.2</ele>
        <time>2023-07-23T08:09:42Z</time>
      </trkpt>
      <trkpt lat="43.97931" lon="1.86874">
        <ele>218.6</ele>
        <time>2023-07-23T08:09:43Z</time>
      </trkpt>
      <trkpt lat="43.97933" lon="1.86875">
        <ele>219</ele>
        <time>2023-07-23T08:09:44Z</time>
      </trkpt>
      <trkpt lat="43.97934" lon="1.86876">
        <ele>219.2</ele>
        <time>2023-07-23T08:09:45Z</time>
      </trkpt>
      <trkpt lat="43.97936" lon="1.86876">
        <ele>219.4</ele>
        <time>2023-07-23T08:09:46Z</time>
      </trkpt>
      <trkpt lat="43.97937" lon="1.86877">
        <ele>219.4</ele>
        <time>2023-07-23T08:09:47Z</time>
      </trkpt>
      <trkpt lat="43.97938" lon="1.86878">
        <ele>219.6</ele>
        <time>2023-07-23T08:09:48Z</time>
      </trkpt>
      <trkpt lat="43.97939" lon="1.86879">
        <ele>219.6</ele>
        <time>2023-07-23T08:09:49Z</time>
      </trkpt>
      <trkpt lat="43.9794" lon="1.8688">
        <ele>219.8</ele>
        <time>2023-07-23T08:09:50Z</time>
      </trkpt>
      <trkpt lat="43.97942" lon="1.86881">
        <ele>220</ele>
        <time>2023-07-23T08:09:51Z</time>
      </trkpt>
      <trkpt lat="43.97943" lon="1.86882">
        <ele>220</ele>
        <time>2023-07-23T08:09:52Z</time>
      </trkpt>
      <trkpt lat="43.97944" lon="1.86883">
        <ele>220.2</ele>
        <time>2023-07-23T08:09:53Z</time>
      </trkpt>
      <trkpt lat="43.97946" lon="1.86884">
        <ele>220.4</ele>
        <time>2023-07-23T08:09:54Z</time>
      </trkpt>
      <trkpt lat="43.97947" lon="1.86885">
        <ele>220.6</ele>
        <time>2023-07-23T08:09:55Z</time>
      </trkpt>
      <trkpt lat="43.97949" lon="1.86886">
        <ele>220.6</ele>
        <time>2023-07-23T08:09:56Z</time>
      </trkpt>
      <trkpt lat="43.9795" lon="1.86887">
        <ele>221</ele>
        <time>2023-07-23T08:09:57Z</time>
      </trkpt>
      <trkpt lat="43.97952" lon="1.86888">
        <ele>221</ele>
        <time>2023-07-23T08:09:58Z</time>
      </trkpt>
      <trkpt lat="43.97953" lon="1.8689">
        <ele>221.2</ele>
        <time>2023-07-23T08:09:59Z</time>
      </trkpt>
      <trkpt lat="43.97955" lon="1.86891">
        <ele>221.2</ele>
        <time>2023-07-23T08:10:00Z</time>
      </trkpt>
      <trkpt lat="43.97956" lon="1.86893">
        <ele>221.2</ele>
        <time>2023-07-23T08:10:01Z</time>
      </trkpt>
      <trkpt lat="43.97958" lon="1.86894">
        <ele>221.4</ele>
        <time>2023-07-23T08:10:02Z</time>
      </trkpt>
      <trkpt lat="43.9796" lon="1.86896">
        <ele>221.4</ele>
        <time>2023-07-23T08:10:03Z</time>
      </trkpt>
      <trkpt lat="43.97961" lon="1.86897">
        <ele>221.4</ele>
        <time>2023-07-23T08:10:04Z</time>
      </trkpt>
      <trkpt lat="43.97963" lon="1.86898">
        <ele>221.6</ele>
        <time>2023-07-23T08:10:05Z</time>
      </trkpt>
      <trkpt lat="43.97965" lon="1.869">
        <ele>221.6</ele>
        <time>2023-07-23T08:10:06Z</time>
      </trkpt>
      <trkpt lat="43.97966" lon="1.86901">
        <ele>221.6</ele>
        <time>2023-07-23T08:10:07Z</time>
      </trkpt>
      <trkpt lat="43.97968" lon="1.86902">
        <ele>221.8</ele>
        <time>2023-07-23T08:10:08Z</time>
      </trkpt>
      <trkpt lat="43.9797" lon="1.86902">
        <ele>221.8</ele>
        <time>2023-07-23T08:10:09Z</time>
      </trkpt>
      <trkpt lat="43.97972" lon="1.86903">
        <ele>221.8</ele>
        <time>2023-07-23T08:10:10Z</time>
      </trkpt>
      <trkpt lat="43.97974" lon="1.86905">
        <ele>222</ele>
        <time>2023-07-23T08:10:11Z</time>
      </trkpt>
      <trkpt lat="43.97976" lon="1.86906">
        <ele>222</ele>
        <time>2023-07-23T08:10:12Z</time>
      </trkpt>
      <trkpt lat="43.97977" lon="1.86907">
        <ele>222</ele>
        <time>2023-07-23T08:10:13Z</time>
      </trkpt>
      <trkpt lat="43.97979" lon="1.86908">
        <ele>222</ele>
        <time>2023-07-23T08:10:14Z</time>
      </trkpt>
      <trkpt lat="43.9798" lon="1.86909">
        <ele>222</ele>
        <time>2023-07-23T08:10:15Z</time>
      </trkpt>
      <trkpt lat="43.97982" lon="1.86911">
        <ele>222</ele>
        <time>2023-07-23T08:10:16Z</time>
      </trkpt>
      <trkpt lat="43.97984" lon="1.86912">
        <ele>222.2</ele>
        <time>2023-07-23T08:10:17Z</time>
      </trkpt>
      <trkpt lat="43.97986" lon="1.86913">
        <ele>222.2</ele>
        <time>2023-07-23T08:10:18Z</time>
      </trkpt>
      <trkpt lat="43.98001" lon="1.86922">
        <ele>222.6</ele>
        <time>2023-07-23T08:10:26Z</time>
      </trkpt>
      <trkpt lat="43.98011" lon="1.86928">
        <ele>223</ele>
        <time>2023-07-23T08:10:31Z</time>
      </trkpt>
      <trkpt lat="43.98016" lon="1.86932">
        <ele>223.2</ele>
        <time>2023-07-23T08:10:34Z</time>
      </trkpt>
      <trkpt lat="43.98025" lon="1.86936">
        <ele>223.4</ele>
        <time>2023-07-23T08:10:38Z</time>
      </trkpt>
      <trkpt lat="43.9804" lon="1.86944">
        <ele>224</ele>
        <time>2023-07-23T08:10:45Z</time>
      </trkpt>
      <trkpt lat="43.98046" lon="1.86947">
        <ele>224.2</ele>
        <time>2023-07-23T08:10:48Z</time>
      </trkpt>
      <trkpt lat="43.98052" lon="1.8695">
        <ele>224.4</ele>
        <time>2023-07-23T08:10:51Z</time>
      </trkpt>
      <trkpt lat="43.98056" lon="1.86952">
        <ele>224.4</ele>
        <time>2023-07-23T08:10:53Z</time>
      </trkpt>
      <trkpt lat="43.9806" lon="1.86954">
        <ele>224.8</ele>
        <time>2023-07-23T08:10:55Z</time>
      </trkpt>
      <trkpt lat="43.98062" lon="1.86954">
        <ele>224.8</ele>
        <time>2023-07-23T08:10:56Z</time>
      </trkpt>
      <trkpt lat="43.98066" lon="1.86956">
        <ele>225.2</ele>
        <time>2023-07-23T08:10:58Z</time>
      </trkpt>
      <trkpt lat="43.98073" lon="1.86956">
        <ele>225.8</ele>
        <time>2023-07-23T08:11:02Z</time>
      </trkpt>
      <trkpt lat="43.98074" lon="1.86954">
        <ele>226</ele>
        <time>2023-07-23T08:11:03Z</time>
      </trkpt>
      <trkpt lat="43.98075" lon="1.86953">
        <ele>225.8</ele>
        <time>2023-07-23T08:11:04Z</time>
      </trkpt>
      <trkpt lat="43.98074" lon="1.86951">
        <ele>226</ele>
        <time>2023-07-23T08:11:05Z</time>
      </trkpt>
      <trkpt lat="43.98073" lon="1.86949">
        <ele>226.4</ele>
        <time>2023-07-23T08:11:06Z</time>
      </trkpt>
      <trkpt lat="43.98069" lon="1.86944">
        <ele>226.8</ele>
        <time>2023-07-23T08:11:08Z</time>
      </trkpt>
      <trkpt lat="43.98067" lon="1.86941">
        <ele>227</ele>
        <time>2023-07-23T08:11:09Z</time>
      </trkpt>
      <trkpt lat="43.98065" lon="1.86937">
        <ele>227.2</ele>
        <time>2023-07-23T08:11:10Z</time>
      </trkpt>
      <trkpt lat="43.98064" lon="1.86934">
        <ele>227.2</ele>
        <time>2023-07-23T08:11:11Z</time>
      </trkpt>
      <trkpt lat="43.98062" lon="1.8693">
        <ele>227.2</ele>
        <time>2023-07-23T08:11:12Z</time>
      </trkpt>
      <trkpt lat="43.9806" lon="1.86927">
        <ele>227.4</ele>
        <time>2023-07-23T08:11:13Z</time>
      </trkpt>
      <trkpt lat="43.98057" lon="1.86922">
        <ele>227.4</ele>
        <time>2023-07-23T08:11:14Z</time>
      </trkpt>
      <trkpt lat="43.98055" lon="1.86917">
        <ele>227.2</ele>
        <time>2023-07-23T08:11:15Z</time>
      </trkpt>
      <trkpt lat="43.98053" lon="1.86912">
        <ele>227.2</ele>
        <time>2023-07-23T08:11:16Z</time>
      </trkpt>
      <trkpt lat="43.98051" lon="1.86907">
        <ele>227.2</ele>
        <time>2023-07-23T08:11:17Z</time>
      </trkpt>
      <trkpt lat="43.98048" lon="1.86903">
        <ele>227.2</ele>
        <time>2023-07-23T08:11:18Z</time>
      </trkpt>
      <trkpt lat="43.98046" lon="1.86899">
        <ele>227</ele>
        <time>2023-07-23T08:11:19Z</time>
      </trkpt>
      <trkpt lat="43.98045" lon="1.86895">
        <ele>226.8</ele>
        <time>2023-07-23T08:11:20Z</time>
      </trkpt>
      <trkpt lat="43.98043" lon="1.8689">
        <ele>226.6</ele>
        <time>2023-07-23T08:11:21Z</time>
      </trkpt>
      <trkpt lat="43.98041" lon="1.86886">
        <ele>226.4</ele>
        <time>2023-07-23T08:11:22Z</time>
      </trkpt>
      <trkpt lat="43.98039" lon="1.8688">
        <ele>226.2</ele>
        <time>2023-07-23T08:11:23Z</time>
      </trkpt>
      <trkpt lat="43.98037" lon="1.86875">
        <ele>225.8</ele>
        <time>2023-07-23T08:11:24Z</time>
      </trkpt>
      <trkpt lat="43.98035" lon="1.86869">
        <ele>225.6</ele>
        <time>2023-07-23T08:11:25Z</time>
      </trkpt>
      <trkpt lat="43.98024" lon="1.86851">
        <ele>225.2</ele>
        <time>2023-07-23T08:11:28Z</time>
      </trkpt>
      <trkpt lat="43.98002" lon="1.86825">
        <ele>224.4</ele>
        <time>2023-07-23T08:11:33Z</time>
      </trkpt>
      <trkpt lat="43.97973" lon="1.86799">
        <ele>223.4</ele>
        <time>2023-07-23T08:11:38Z</time>
      </trkpt>
      <trkpt lat="43.97968" lon="1.86795">
        <ele>223.2</ele>
        <time>2023-07-23T08:11:39Z</time>
      </trkpt>
      <trkpt lat="43.97965" lon="1.86791">
        <ele>222.8</ele>
        <time>2023-07-23T08:11:40Z</time>
      </trkpt>
      <trkpt lat="43.97961" lon="1.86787">
        <ele>222.6</ele>
        <time>2023-07-23T08:11:41Z</time>
      </trkpt>
      <trkpt lat="43.97958" lon="1.86784">
        <ele>222.2</ele>
        <time>2023-07-23T08:11:42Z</time>
      </trkpt>
      <trkpt lat="43.97955" lon="1.86781">
        <ele>222</ele>
        <time>2023-07-23T08:11:43Z</time>
      </trkpt>
      <trkpt lat="43.97952" lon="1.86777">
        <ele>221.8</ele>
        <time>2023-07-23T08:11:44Z</time>
      </trkpt>
      <trkpt lat="43.9795" lon="1.86772">
        <ele>221.8</ele>
        <time>2023-07-23T08:11:45Z</time>
      </trkpt>
      <trkpt lat="43.97945" lon="1.86763">
        <ele>221.2</ele>
        <time>2023-07-23T08:11:47Z</time>
      </trkpt>
      <trkpt lat="43.97942" lon="1.86759">
        <ele>221</ele>
        <time>2023-07-23T08:11:48Z</time>
      </trkpt>
      <trkpt lat="43.97939" lon="1.86754">
        <ele>221</ele>
        <time>2023-07-23T08:11:49Z</time>
      </trkpt>
      <trkpt lat="43.97936" lon="1.86742">
        <ele>220.8</ele>
        <time>2023-07-23T08:11:51Z</time>
      </trkpt>
      <trkpt lat="43.97936" lon="1.86737">
        <ele>220.6</ele>
        <time>2023-07-23T08:11:52Z</time>
      </trkpt>
      <trkpt lat="43.97937" lon="1.86733">
        <ele>220.6</ele>
        <time>2023-07-23T08:11:53Z</time>
      </trkpt>
      <trkpt lat="43.97938" lon="1.8673">
        <ele>220.6</ele>
        <time>2023-07-23T08:11:54Z</time>
      </trkpt>
      <trkpt lat="43.97939" lon="1.86727">
        <ele>220.6</ele>
        <time>2023-07-23T08:11:55Z</time>
      </trkpt>
      <trkpt lat="43.9794" lon="1.86725">
        <ele>220.6</ele>
        <time>2023-07-23T08:11:56Z</time>
      </trkpt>
      <trkpt lat="43.97941" lon="1.86723">
        <ele>220.6</ele>
        <time>2023-07-23T08:11:57Z</time>
      </trkpt>
      <trkpt lat="43.97942" lon="1.86721">
        <ele>220.6</ele>
        <time>2023-07-23T08:11:58Z</time>
      </trkpt>
      <trkpt lat="43.97942" lon="1.86718">
        <ele>220.6</ele>
        <time>2023-07-23T08:11:59Z</time>
      </trkpt>
      <trkpt lat="43.97944" lon="1.86711">
        <ele>220.6</ele>
        <time>2023-07-23T08:12:02Z</time>
      </trkpt>
      <trkpt lat="43.97945" lon="1.86709">
        <ele>220.6</ele>
        <time>2023-07-23T08:12:03Z</time>
      </trkpt>
      <trkpt lat="43.97946" lon="1.86706">
        <ele>220.6</ele>
        <time>2023-07-23T08:12:04Z</time>
      </trkpt>
      <trkpt lat="43.97946" lon="1.86704">
        <ele>220.8</ele>
        <time>2023-07-23T08:12:05Z</time>
      </trkpt>
      <trkpt lat="43.97947" lon="1.86701">
        <ele>221</ele>
        <time>2023-07-23T08:12:06Z</time>
      </trkpt>
      <trkpt lat="43.97951" lon="1.86683">
        <ele>221.8</ele>
        <time>2023-07-23T08:12:12Z</time>
      </trkpt>
      <trkpt lat="43.97955" lon="1.86669">
        <ele>222.4</ele>
        <time>2023-07-23T08:12:16Z</time>
      </trkpt>
      <trkpt lat="43.97957" lon="1.86655">
        <ele>223.4</ele>
        <time>2023-07-23T08:12:20Z</time>
      </trkpt>
      <trkpt lat="43.97958" lon="1.86652">
        <ele>223.6</ele>
        <time>2023-07-23T08:12:21Z</time>
      </trkpt>
      <trkpt lat="43.97961" lon="1.86642">
        <ele>224</ele>
        <time>2023-07-23T08:12:24Z</time>
      </trkpt>
      <trkpt lat="43.97962" lon="1.86639">
        <ele>224</ele>
        <time>2023-07-23T08:12:25Z</time>
      </trkpt>
      <trkpt lat="43.97962" lon="1.86635">
        <ele>224.2</ele>
        <time>2023-07-23T08:12:26Z</time>
      </trkpt>
      <trkpt lat="43.97963" lon="1.86632">
        <ele>224.4</ele>
        <time>2023-07-23T08:12:27Z</time>
      </trkpt>
      <trkpt lat="43.97964" lon="1.86628">
        <ele>224.4</ele>
        <time>2023-07-23T08:12:28Z</time>
      </trkpt>
      <trkpt lat="43.97965" lon="1.86625">
        <ele>224.6</ele>
        <time>2023-07-23T08:12:29Z</time>
      </trkpt>
      <trkpt lat="43.97966" lon="1.86622">
        <ele>224.8</ele>
        <time>2023-07-23T08:12:30Z</time>
      </trkpt>
      <trkpt lat="43.97967" lon="1.86619">
        <ele>225</ele>
        <time>2023-07-23T08:12:31Z</time>
      </trkpt>
      <trkpt lat="43.97968" lon="1.86615">
        <ele>225.2</ele>
        <time>2023-07-23T08:12:32Z</time>
      </trkpt>
      <trkpt lat="43.97969" lon="1.86612">
        <ele>225.2</ele>
        <time>2023-07-23T08:12:33Z</time>
      </trkpt>
      <trkpt lat="43.9797" lon="1.86609">
        <ele>225.4</ele>
        <time>2023-07-23T08:12:34Z</time>
      </trkpt>
      <trkpt lat="43.97971" lon="1.86605">
        <ele>225.6</ele>
        <time>2023-07-23T08:12:35Z</time>
      </trkpt>
      <trkpt lat="43.97971" lon="1.86602">
        <ele>226</ele>
        <time>2023-07-23T08:12:36Z</time>
      </trkpt>
      <trkpt lat="43.97973" lon="1.86599">
        <ele>226.2</ele>
        <time>2023-07-23T08:12:37Z</time>
      </trkpt>
      <trkpt lat="43.97974" lon="1.86596">
        <ele>226.2</ele>
        <time>2023-07-23T08:12:38Z</time>
      </trkpt>
      <trkpt lat="43.97976" lon="1.86593">
        <ele>226.4</ele>
        <time>2023-07-23T08:12:39Z</time>
      </trkpt>
      <trkpt lat="43.97977" lon="1.8659">
        <ele>226.4</ele>
        <time>2023-07-23T08:12:40Z</time>
      </trkpt>
      <trkpt lat="43.97979" lon="1.86587">
        <ele>226.6</ele>
        <time>2023-07-23T08:12:41Z</time>
      </trkpt>
      <trkpt lat="43.97981" lon="1.86585">
        <ele>226.8</ele>
        <time>2023-07-23T08:12:42Z</time>
      </trkpt>
      <trkpt lat="43.97983" lon="1.86582">
        <ele>227</ele>
        <time>2023-07-23T08:12:43Z</time>
      </trkpt>
      <trkpt lat="43.97985" lon="1.8658">
        <ele>227.2</ele>
        <time>2023-07-23T08:12:44Z</time>
      </trkpt>
      <trkpt lat="43.97987" lon="1.86578">
        <ele>227.6</ele>
        <time>2023-07-23T08:12:45Z</time>
      </trkpt>
      <trkpt lat="43.97989" lon="1.86576">
        <ele>227.8</ele>
        <time>2023-07-23T08:12:46Z</time>
      </trkpt>
      <trkpt lat="43.97991" lon="1.86574">
        <ele>227.8</ele>
        <time>2023-07-23T08:12:47Z</time>
      </trkpt>
      <trkpt lat="43.97993" lon="1.86571">
        <ele>228.2</ele>
        <time>2023-07-23T08:12:48Z</time>
      </trkpt>
      <trkpt lat="43.97995" lon="1.86569">
        <ele>228.2</ele>
        <time>2023-07-23T08:12:49Z</time>
      </trkpt>
      <trkpt lat="43.97997" lon="1.86567">
        <ele>228.4</ele>
        <time>2023-07-23T08:12:50Z</time>
      </trkpt>
      <trkpt lat="43.97999" lon="1.86565">
        <ele>228.4</ele>
        <time>2023-07-23T08:12:51Z</time>
      </trkpt>
      <trkpt lat="43.98001" lon="1.86564">
        <ele>228.8</ele>
        <time>2023-07-23T08:12:52Z</time>
      </trkpt>
      <trkpt lat="43.98003" lon="1.86562">
        <ele>228.8</ele>
        <time>2023-07-23T08:12:53Z</time>
      </trkpt>
      <trkpt lat="43.98005" lon="1.8656">
        <ele>229</ele>
        <time>2023-07-23T08:12:54Z</time>
      </trkpt>
      <trkpt lat="43.98007" lon="1.86558">
        <ele>229.4</ele>
        <time>2023-07-23T08:12:55Z</time>
      </trkpt>
      <trkpt lat="43.98009" lon="1.86556">
        <ele>229.6</ele>
        <time>2023-07-23T08:12:56Z</time>
      </trkpt>
      <trkpt lat="43.98011" lon="1.86554">
        <ele>229.8</ele>
        <time>2023-07-23T08:12:57Z</time>
      </trkpt>
      <trkpt lat="43.98013" lon="1.86552">
        <ele>229.8</ele>
        <time>2023-07-23T08:12:58Z</time>
      </trkpt>
      <trkpt lat="43.98015" lon="1.86551">
        <ele>230</ele>
        <time>2023-07-23T08:12:59Z</time>
      </trkpt>
      <trkpt lat="43.98017" lon="1.86549">
        <ele>230.2</ele>
        <time>2023-07-23T08:13:00Z</time>
      </trkpt>
      <trkpt lat="43.98019" lon="1.86548">
        <ele>230.2</ele>
        <time>2023-07-23T08:13:01Z</time>
      </trkpt>
      <trkpt lat="43.98021" lon="1.86546">
        <ele>230.4</ele>
        <time>2023-07-23T08:13:02Z</time>
      </trkpt>
      <trkpt lat="43.98023" lon="1.86544">
        <ele>230.4</ele>
        <time>2023-07-23T08:13:03Z</time>
      </trkpt>
      <trkpt lat="43.98025" lon="1.86541">
        <ele>230.6</ele>
        <time>2023-07-23T08:13:04Z</time>
      </trkpt>
      <trkpt lat="43.98026" lon="1.86538">
        <ele>230.8</ele>
        <time>2023-07-23T08:13:05Z</time>
      </trkpt>
      <trkpt lat="43.98027" lon="1.86535">
        <ele>230.8</ele>
        <time>2023-07-23T08:13:06Z</time>
      </trkpt>
      <trkpt lat="43.98028" lon="1.86531">
        <ele>230.8</ele>
        <time>2023-07-23T08:13:07Z</time>
      </trkpt>
      <trkpt lat="43.98028" lon="1.86528">
        <ele>231</ele>
        <time>2023-07-23T08:13:08Z</time>
      </trkpt>
      <trkpt lat="43.98028" lon="1.86524">
        <ele>231</ele>
        <time>2023-07-23T08:13:09Z</time>
      </trkpt>
      <trkpt lat="43.98028" lon="1.8652">
        <ele>231</ele>
        <time>2023-07-23T08:13:10Z</time>
      </trkpt>
      <trkpt lat="43.98028" lon="1.86516">
        <ele>231.2</ele>
        <time>2023-07-23T08:13:11Z</time>
      </trkpt>
      <trkpt lat="43.98027" lon="1.86512">
        <ele>231.2</ele>
        <time>2023-07-23T08:13:12Z</time>
      </trkpt>
      <trkpt lat="43.98026" lon="1.86508">
        <ele>231.4</ele>
        <time>2023-07-23T08:13:13Z</time>
      </trkpt>
      <trkpt lat="43.98025" lon="1.86503">
        <ele>231.4</ele>
        <time>2023-07-23T08:13:14Z</time>
      </trkpt>
      <trkpt lat="43.98024" lon="1.86499">
        <ele>231.6</ele>
        <time>2023-07-23T08:13:15Z</time>
      </trkpt>
      <trkpt lat="43.98023" lon="1.86494">
        <ele>231.6</ele>
        <time>2023-07-23T08:13:16Z</time>
      </trkpt>
      <trkpt lat="43.98021" lon="1.86489">
        <ele>231.6</ele>
        <time>2023-07-23T08:13:17Z</time>
      </trkpt>
      <trkpt lat="43.9802" lon="1.86485">
        <ele>231.6</ele>
        <time>2023-07-23T08:13:18Z</time>
      </trkpt>
      <trkpt lat="43.98018" lon="1.8648">
        <ele>231.6</ele>
        <time>2023-07-23T08:13:19Z</time>
      </trkpt>
      <trkpt lat="43.98016" lon="1.86475">
        <ele>231.6</ele>
        <time>2023-07-23T08:13:20Z</time>
      </trkpt>
      <trkpt lat="43.98014" lon="1.86469">
        <ele>231.4</ele>
        <time>2023-07-23T08:13:21Z</time>
      </trkpt>
      <trkpt lat="43.98011" lon="1.86464">
        <ele>231.4</ele>
        <time>2023-07-23T08:13:22Z</time>
      </trkpt>
      <trkpt lat="43.98009" lon="1.86458">
        <ele>231.2</ele>
        <time>2023-07-23T08:13:23Z</time>
      </trkpt>
      <trkpt lat="43.98006" lon="1.86452">
        <ele>231</ele>
        <time>2023-07-23T08:13:24Z</time>
      </trkpt>
      <trkpt lat="43.97987" lon="1.86402">
        <ele>230.6</ele>
        <time>2023-07-23T08:13:31Z</time>
      </trkpt>
      <trkpt lat="43.97983" lon="1.86385">
        <ele>230.2</ele>
        <time>2023-07-23T08:13:33Z</time>
      </trkpt>
      <trkpt lat="43.97982" lon="1.86376">
        <ele>230.2</ele>
        <time>2023-07-23T08:13:34Z</time>
      </trkpt>
      <trkpt lat="43.97981" lon="1.86359">
        <ele>229.6</ele>
        <time>2023-07-23T08:13:36Z</time>
      </trkpt>
      <trkpt lat="43.97981" lon="1.86344">
        <ele>229.2</ele>
        <time>2023-07-23T08:13:38Z</time>
      </trkpt>
      <trkpt lat="43.97982" lon="1.8633">
        <ele>228.8</ele>
        <time>2023-07-23T08:13:40Z</time>
      </trkpt>
      <trkpt lat="43.97983" lon="1.86323">
        <ele>228.8</ele>
        <time>2023-07-23T08:13:41Z</time>
      </trkpt>
      <trkpt lat="43.97985" lon="1.86316">
        <ele>228.8</ele>
        <time>2023-07-23T08:13:42Z</time>
      </trkpt>
      <trkpt lat="43.97985" lon="1.86309">
        <ele>228.8</ele>
        <time>2023-07-23T08:13:43Z</time>
      </trkpt>
      <trkpt lat="43.97986" lon="1.86302">
        <ele>228.8</ele>
        <time>2023-07-23T08:13:44Z</time>
      </trkpt>
      <trkpt lat="43.97988" lon="1.86284">
        <ele>229</ele>
        <time>2023-07-23T08:13:47Z</time>
      </trkpt>
      <trkpt lat="43.97988" lon="1.86279">
        <ele>229</ele>
        <time>2023-07-23T08:13:48Z</time>
      </trkpt>
      <trkpt lat="43.97989" lon="1.86274">
        <ele>229.4</ele>
        <time>2023-07-23T08:13:49Z</time>
      </trkpt>
      <trkpt lat="43.97989" lon="1.86269">
        <ele>229.2</ele>
        <time>2023-07-23T08:13:50Z</time>
      </trkpt>
      <trkpt lat="43.97989" lon="1.86265">
        <ele>229.4</ele>
        <time>2023-07-23T08:13:51Z</time>
      </trkpt>
      <trkpt lat="43.97989" lon="1.86261">
        <ele>229.8</ele>
        <time>2023-07-23T08:13:52Z</time>
      </trkpt>
      <trkpt lat="43.97989" lon="1.86255">
        <ele>229.8</ele>
        <time>2023-07-23T08:13:53Z</time>
      </trkpt>
      <trkpt lat="43.97988" lon="1.86252">
        <ele>230</ele>
        <time>2023-07-23T08:13:54Z</time>
      </trkpt>
      <trkpt lat="43.97988" lon="1.86248">
        <ele>230</ele>
        <time>2023-07-23T08:13:55Z</time>
      </trkpt>
      <trkpt lat="43.97988" lon="1.86244">
        <ele>230.4</ele>
        <time>2023-07-23T08:13:56Z</time>
      </trkpt>
      <trkpt lat="43.97988" lon="1.8624">
        <ele>230.8</ele>
        <time>2023-07-23T08:13:57Z</time>
      </trkpt>
      <trkpt lat="43.97987" lon="1.86236">
        <ele>231.2</ele>
        <time>2023-07-23T08:13:58Z</time>
      </trkpt>
      <trkpt lat="43.97987" lon="1.86231">
        <ele>231.4</ele>
        <time>2023-07-23T08:13:59Z</time>
      </trkpt>
      <trkpt lat="43.97986" lon="1.86227">
        <ele>231.6</ele>
        <time>2023-07-23T08:14:00Z</time>
      </trkpt>
      <trkpt lat="43.97985" lon="1.86223">
        <ele>232</ele>
        <time>2023-07-23T08:14:01Z</time>
      </trkpt>
      <trkpt lat="43.97981" lon="1.86215">
        <ele>232</ele>
        <time>2023-07-23T08:14:03Z</time>
      </trkpt>
      <trkpt lat="43.97979" lon="1.86213">
        <ele>232.2</ele>
        <time>2023-07-23T08:14:04Z</time>
      </trkpt>
      <trkpt lat="43.97977" lon="1.8621">
        <ele>232.2</ele>
        <time>2023-07-23T08:14:05Z</time>
      </trkpt>
      <trkpt lat="43.97974" lon="1.86207">
        <ele>232.2</ele>
        <time>2023-07-23T08:14:06Z</time>
      </trkpt>
      <trkpt lat="43.97972" lon="1.86204">
        <ele>232.2</ele>
        <time>2023-07-23T08:14:07Z</time>
      </trkpt>
      <trkpt lat="43.97969" lon="1.86196">
        <ele>232.4</ele>
        <time>2023-07-23T08:14:09Z</time>
      </trkpt>
      <trkpt lat="43.97966" lon="1.86192">
        <ele>232.4</ele>
        <time>2023-07-23T08:14:10Z</time>
      </trkpt>
      <trkpt lat="43.97964" lon="1.86189">
        <ele>232.4</ele>
        <time>2023-07-23T08:14:11Z</time>
      </trkpt>
      <trkpt lat="43.97961" lon="1.86185">
        <ele>232.6</ele>
        <time>2023-07-23T08:14:12Z</time>
      </trkpt>
      <trkpt lat="43.97958" lon="1.86181">
        <ele>232.6</ele>
        <time>2023-07-23T08:14:13Z</time>
      </trkpt>
      <trkpt lat="43.97955" lon="1.86178">
        <ele>232.6</ele>
        <time>2023-07-23T08:14:14Z</time>
      </trkpt>
      <trkpt lat="43.97952" lon="1.86174">
        <ele>232.6</ele>
        <time>2023-07-23T08:14:15Z</time>
      </trkpt>
      <trkpt lat="43.97948" lon="1.8617">
        <ele>232.6</ele>
        <time>2023-07-23T08:14:16Z</time>
      </trkpt>
      <trkpt lat="43.97944" lon="1.86166">
        <ele>232.6</ele>
        <time>2023-07-23T08:14:17Z</time>
      </trkpt>
      <trkpt lat="43.9794" lon="1.86162">
        <ele>232.6</ele>
        <time>2023-07-23T08:14:18Z</time>
      </trkpt>
      <trkpt lat="43.97925" lon="1.86144">
        <ele>232</ele>
        <time>2023-07-23T08:14:22Z</time>
      </trkpt>
      <trkpt lat="43.97914" lon="1.86126">
        <ele>231</ele>
        <time>2023-07-23T08:14:25Z</time>
      </trkpt>
      <trkpt lat="43.97907" lon="1.86113">
        <ele>230.6</ele>
        <time>2023-07-23T08:14:27Z</time>
      </trkpt>
      <trkpt lat="43.979" lon="1.86089">
        <ele>229.6</ele>
        <time>2023-07-23T08:14:30Z</time>
      </trkpt>
      <trkpt lat="43.97898" lon="1.86081">
        <ele>229.6</ele>
        <time>2023-07-23T08:14:31Z</time>
      </trkpt>
      <trkpt lat="43.97897" lon="1.86073">
        <ele>229.4</ele>
        <time>2023-07-23T08:14:32Z</time>
      </trkpt>
      <trkpt lat="43.97893" lon="1.86036">
        <ele>228.8</ele>
        <time>2023-07-23T08:14:37Z</time>
      </trkpt>
      <trkpt lat="43.97892" lon="1.8603">
        <ele>228.6</ele>
        <time>2023-07-23T08:14:38Z</time>
      </trkpt>
      <trkpt lat="43.97892" lon="1.86021">
        <ele>228.4</ele>
        <time>2023-07-23T08:14:39Z</time>
      </trkpt>
      <trkpt lat="43.97892" lon="1.86008">
        <ele>228</ele>
        <time>2023-07-23T08:14:41Z</time>
      </trkpt>
      <trkpt lat="43.97892" lon="1.86001">
        <ele>228</ele>
        <time>2023-07-23T08:14:42Z</time>
      </trkpt>
      <trkpt lat="43.97893" lon="1.85995">
        <ele>227.8</ele>
        <time>2023-07-23T08:14:43Z</time>
      </trkpt>
      <trkpt lat="43.97893" lon="1.8599">
        <ele>227.8</ele>
        <time>2023-07-23T08:14:44Z</time>
      </trkpt>
      <trkpt lat="43.97894" lon="1.85984">
        <ele>227.8</ele>
        <time>2023-07-23T08:14:45Z</time>
      </trkpt>
      <trkpt lat="43.97894" lon="1.85977">
        <ele>227.8</ele>
        <time>2023-07-23T08:14:46Z</time>
      </trkpt>
      <trkpt lat="43.97894" lon="1.85945">
        <ele>227.6</ele>
        <time>2023-07-23T08:14:51Z</time>
      </trkpt>
      <trkpt lat="43.97895" lon="1.85939">
        <ele>227.6</ele>
        <time>2023-07-23T08:14:52Z</time>
      </trkpt>
      <trkpt lat="43.97897" lon="1.85927">
        <ele>227.4</ele>
        <time>2023-07-23T08:14:54Z</time>
      </trkpt>
      <trkpt lat="43.97901" lon="1.85894">
        <ele>226.8</ele>
        <time>2023-07-23T08:14:59Z</time>
      </trkpt>
      <trkpt lat="43.97904" lon="1.85867">
        <ele>226.4</ele>
        <time>2023-07-23T08:15:03Z</time>
      </trkpt>
      <trkpt lat="43.97907" lon="1.85837">
        <ele>226.2</ele>
        <time>2023-07-23T08:15:07Z</time>
      </trkpt>
      <trkpt lat="43.97912" lon="1.85785">
        <ele>225.4</ele>
        <time>2023-07-23T08:15:14Z</time>
      </trkpt>
      <trkpt lat="43.97914" lon="1.8577">
        <ele>225.4</ele>
        <time>2023-07-23T08:15:16Z</time>
      </trkpt>
      <trkpt lat="43.97921" lon="1.85698">
        <ele>224.4</ele>
        <time>2023-07-23T08:15:26Z</time>
      </trkpt>
      <trkpt lat="43.97921" lon="1.85691">
        <ele>224.2</ele>
        <time>2023-07-23T08:15:27Z</time>
      </trkpt>
      <trkpt lat="43.97921" lon="1.85684">
        <ele>224</ele>
        <time>2023-07-23T08:15:28Z</time>
      </trkpt>
      <trkpt lat="43.97921" lon="1.85678">
        <ele>224</ele>
        <time>2023-07-23T08:15:29Z</time>
      </trkpt>
      <trkpt lat="43.97921" lon="1.85671">
        <ele>223.6</ele>
        <time>2023-07-23T08:15:30Z</time>
      </trkpt>
      <trkpt lat="43.97921" lon="1.85665">
        <ele>223.4</ele>
        <time>2023-07-23T08:15:31Z</time>
      </trkpt>
      <trkpt lat="43.97921" lon="1.85659">
        <ele>223.2</ele>
        <time>2023-07-23T08:15:32Z</time>
      </trkpt>
      <trkpt lat="43.97921" lon="1.85653">
        <ele>223</ele>
        <time>2023-07-23T08:15:33Z</time>
      </trkpt>
      <trkpt lat="43.9792" lon="1.85647">
        <ele>222.8</ele>
        <time>2023-07-23T08:15:34Z</time>
      </trkpt>
      <trkpt lat="43.97918" lon="1.85642">
        <ele>222.8</ele>
        <time>2023-07-23T08:15:35Z</time>
      </trkpt>
      <trkpt lat="43.97915" lon="1.85638">
        <ele>222.4</ele>
        <time>2023-07-23T08:15:36Z</time>
      </trkpt>
      <trkpt lat="43.97912" lon="1.85633">
        <ele>222.4</ele>
        <time>2023-07-23T08:15:37Z</time>
      </trkpt>
      <trkpt lat="43.97909" lon="1.85629">
        <ele>222.2</ele>
        <time>2023-07-23T08:15:38Z</time>
      </trkpt>
      <trkpt lat="43.97906" lon="1.85625">
        <ele>222.2</ele>
        <time>2023-07-23T08:15:39Z</time>
      </trkpt>
      <trkpt lat="43.97902" lon="1.85621">
        <ele>222</ele>
        <time>2023-07-23T08:15:40Z</time>
      </trkpt>
      <trkpt lat="43.97889" lon="1.85602">
        <ele>221.6</ele>
        <time>2023-07-23T08:15:44Z</time>
      </trkpt>
      <trkpt lat="43.97887" lon="1.85597">
        <ele>221.4</ele>
        <time>2023-07-23T08:15:45Z</time>
      </trkpt>
      <trkpt lat="43.97885" lon="1.85591">
        <ele>221.2</ele>
        <time>2023-07-23T08:15:46Z</time>
      </trkpt>
      <trkpt lat="43.97884" lon="1.85581">
        <ele>221</ele>
        <time>2023-07-23T08:15:48Z</time>
      </trkpt>
      <trkpt lat="43.97884" lon="1.85576">
        <ele>220.8</ele>
        <time>2023-07-23T08:15:49Z</time>
      </trkpt>
      <trkpt lat="43.97885" lon="1.85572">
        <ele>220.6</ele>
        <time>2023-07-23T08:15:50Z</time>
      </trkpt>
      <trkpt lat="43.97886" lon="1.85567">
        <ele>220.6</ele>
        <time>2023-07-23T08:15:51Z</time>
      </trkpt>
      <trkpt lat="43.97888" lon="1.85563">
        <ele>220.6</ele>
        <time>2023-07-23T08:15:52Z</time>
      </trkpt>
      <trkpt lat="43.97889" lon="1.85558">
        <ele>220.6</ele>
        <time>2023-07-23T08:15:53Z</time>
      </trkpt>
      <trkpt lat="43.97891" lon="1.85549">
        <ele>220.6</ele>
        <time>2023-07-23T08:15:55Z</time>
      </trkpt>
      <trkpt lat="43.97896" lon="1.85498">
        <ele>221</ele>
        <time>2023-07-23T08:16:04Z</time>
      </trkpt>
      <trkpt lat="43.97898" lon="1.85485">
        <ele>221.2</ele>
        <time>2023-07-23T08:16:06Z</time>
      </trkpt>
      <trkpt lat="43.97906" lon="1.85446">
        <ele>221.4</ele>
        <time>2023-07-23T08:16:12Z</time>
      </trkpt>
      <trkpt lat="43.97921" lon="1.85393">
        <ele>221.2</ele>
        <time>2023-07-23T08:16:21Z</time>
      </trkpt>
      <trkpt lat="43.97923" lon="1.85387">
        <ele>221.2</ele>
        <time>2023-07-23T08:16:22Z</time>
      </trkpt>
      <trkpt lat="43.97924" lon="1.85381">
        <ele>221</ele>
        <time>2023-07-23T08:16:23Z</time>
      </trkpt>
      <trkpt lat="43.97925" lon="1.85376">
        <ele>221</ele>
        <time>2023-07-23T08:16:24Z</time>
      </trkpt>
      <trkpt lat="43.97926" lon="1.8537">
        <ele>221</ele>
        <time>2023-07-23T08:16:25Z</time>
      </trkpt>
      <trkpt lat="43.97927" lon="1.85364">
        <ele>221</ele>
        <time>2023-07-23T08:16:26Z</time>
      </trkpt>
      <trkpt lat="43.97928" lon="1.85359">
        <ele>221</ele>
        <time>2023-07-23T08:16:27Z</time>
      </trkpt>
      <trkpt lat="43.97928" lon="1.85354">
        <ele>221</ele>
        <time>2023-07-23T08:16:28Z</time>
      </trkpt>
      <trkpt lat="43.97929" lon="1.85348">
        <ele>221.2</ele>
        <time>2023-07-23T08:16:29Z</time>
      </trkpt>
      <trkpt lat="43.97929" lon="1.85343">
        <ele>221.4</ele>
        <time>2023-07-23T08:16:30Z</time>
      </trkpt>
      <trkpt lat="43.9793" lon="1.85337">
        <ele>221.4</ele>
        <time>2023-07-23T08:16:31Z</time>
      </trkpt>
      <trkpt lat="43.9793" lon="1.8533">
        <ele>221.4</ele>
        <time>2023-07-23T08:16:32Z</time>
      </trkpt>
      <trkpt lat="43.97933" lon="1.85293">
        <ele>221.4</ele>
        <time>2023-07-23T08:16:38Z</time>
      </trkpt>
      <trkpt lat="43.97937" lon="1.85243">
        <ele>221.6</ele>
        <time>2023-07-23T08:16:46Z</time>
      </trkpt>
      <trkpt lat="43.97938" lon="1.85237">
        <ele>221.6</ele>
        <time>2023-07-23T08:16:47Z</time>
      </trkpt>
      <trkpt lat="43.97938" lon="1.85232">
        <ele>221.6</ele>
        <time>2023-07-23T08:16:48Z</time>
      </trkpt>
      <trkpt lat="43.97939" lon="1.85226">
        <ele>221.6</ele>
        <time>2023-07-23T08:16:49Z</time>
      </trkpt>
      <trkpt lat="43.97939" lon="1.85214">
        <ele>221.8</ele>
        <time>2023-07-23T08:16:51Z</time>
      </trkpt>
      <trkpt lat="43.9794" lon="1.85208">
        <ele>221.8</ele>
        <time>2023-07-23T08:16:52Z</time>
      </trkpt>
      <trkpt lat="43.9794" lon="1.85202">
        <ele>221.8</ele>
        <time>2023-07-23T08:16:53Z</time>
      </trkpt>
      <trkpt lat="43.9794" lon="1.85196">
        <ele>221.8</ele>
        <time>2023-07-23T08:16:54Z</time>
      </trkpt>
      <trkpt lat="43.97941" lon="1.85191">
        <ele>221.8</ele>
        <time>2023-07-23T08:16:55Z</time>
      </trkpt>
      <trkpt lat="43.97941" lon="1.85186">
        <ele>222</ele>
        <time>2023-07-23T08:16:56Z</time>
      </trkpt>
      <trkpt lat="43.97942" lon="1.85181">
        <ele>222</ele>
        <time>2023-07-23T08:16:57Z</time>
      </trkpt>
      <trkpt lat="43.97942" lon="1.85177">
        <ele>222</ele>
        <time>2023-07-23T08:16:58Z</time>
      </trkpt>
      <trkpt lat="43.97943" lon="1.85172">
        <ele>222</ele>
        <time>2023-07-23T08:16:59Z</time>
      </trkpt>
      <trkpt lat="43.97943" lon="1.85168">
        <ele>222.2</ele>
        <time>2023-07-23T08:17:00Z</time>
      </trkpt>
      <trkpt lat="43.97944" lon="1.85164">
        <ele>222.2</ele>
        <time>2023-07-23T08:17:01Z</time>
      </trkpt>
      <trkpt lat="43.97951" lon="1.85118">
        <ele>222.4</ele>
        <time>2023-07-23T08:17:09Z</time>
      </trkpt>
      <trkpt lat="43.97961" lon="1.85065">
        <ele>222.2</ele>
        <time>2023-07-23T08:17:17Z</time>
      </trkpt>
      <trkpt lat="43.97965" lon="1.85017">
        <ele>221.4</ele>
        <time>2023-07-23T08:17:23Z</time>
      </trkpt>
      <trkpt lat="43.97966" lon="1.85009">
        <ele>221.2</ele>
        <time>2023-07-23T08:17:24Z</time>
      </trkpt>
      <trkpt lat="43.97967" lon="1.85002">
        <ele>220.6</ele>
        <time>2023-07-23T08:17:25Z</time>
      </trkpt>
      <trkpt lat="43.97971" lon="1.8498">
        <ele>219.6</ele>
        <time>2023-07-23T08:17:28Z</time>
      </trkpt>
      <trkpt lat="43.97972" lon="1.84967">
        <ele>219</ele>
        <time>2023-07-23T08:17:30Z</time>
      </trkpt>
      <trkpt lat="43.97973" lon="1.84961">
        <ele>219</ele>
        <time>2023-07-23T08:17:31Z</time>
      </trkpt>
      <trkpt lat="43.97971" lon="1.84955">
        <ele>218.8</ele>
        <time>2023-07-23T08:17:32Z</time>
      </trkpt>
      <trkpt lat="43.97969" lon="1.8495">
        <ele>218.4</ele>
        <time>2023-07-23T08:17:33Z</time>
      </trkpt>
      <trkpt lat="43.97966" lon="1.84946">
        <ele>218.2</ele>
        <time>2023-07-23T08:17:34Z</time>
      </trkpt>
      <trkpt lat="43.97963" lon="1.84943">
        <ele>218</ele>
        <time>2023-07-23T08:17:35Z</time>
      </trkpt>
      <trkpt lat="43.9796" lon="1.8494">
        <ele>217.8</ele>
        <time>2023-07-23T08:17:36Z</time>
      </trkpt>
      <trkpt lat="43.97957" lon="1.84937">
        <ele>217.4</ele>
        <time>2023-07-23T08:17:37Z</time>
      </trkpt>
      <trkpt lat="43.97955" lon="1.84935">
        <ele>217.2</ele>
        <time>2023-07-23T08:17:38Z</time>
      </trkpt>
      <trkpt lat="43.97953" lon="1.84932">
        <ele>217</ele>
        <time>2023-07-23T08:17:39Z</time>
      </trkpt>
      <trkpt lat="43.97952" lon="1.84929">
        <ele>217</ele>
        <time>2023-07-23T08:17:40Z</time>
      </trkpt>
      <trkpt lat="43.97951" lon="1.84926">
        <ele>216.8</ele>
        <time>2023-07-23T08:17:41Z</time>
      </trkpt>
      <trkpt lat="43.97949" lon="1.84922">
        <ele>216.8</ele>
        <time>2023-07-23T08:17:42Z</time>
      </trkpt>
      <trkpt lat="43.97944" lon="1.84909">
        <ele>216.6</ele>
        <time>2023-07-23T08:17:45Z</time>
      </trkpt>
      <trkpt lat="43.97938" lon="1.8489">
        <ele>216.6</ele>
        <time>2023-07-23T08:17:48Z</time>
      </trkpt>
      <trkpt lat="43.97932" lon="1.84873">
        <ele>216.4</ele>
        <time>2023-07-23T08:17:50Z</time>
      </trkpt>
      <trkpt lat="43.97916" lon="1.84832">
        <ele>215.6</ele>
        <time>2023-07-23T08:17:54Z</time>
      </trkpt>
      <trkpt lat="43.97894" lon="1.84787">
        <ele>214.4</ele>
        <time>2023-07-23T08:17:58Z</time>
      </trkpt>
      <trkpt lat="43.97882" lon="1.84766">
        <ele>212.6</ele>
        <time>2023-07-23T08:18:00Z</time>
      </trkpt>
      <trkpt lat="43.97874" lon="1.84755">
        <ele>211.6</ele>
        <time>2023-07-23T08:18:01Z</time>
      </trkpt>
      <trkpt lat="43.97869" lon="1.84749">
        <ele>211</ele>
        <time>2023-07-23T08:18:02Z</time>
      </trkpt>
      <trkpt lat="43.97864" lon="1.84742">
        <ele>210.4</ele>
        <time>2023-07-23T08:18:03Z</time>
      </trkpt>
      <trkpt lat="43.97858" lon="1.84735">
        <ele>209.4</ele>
        <time>2023-07-23T08:18:04Z</time>
      </trkpt>
      <trkpt lat="43.97852" lon="1.8473">
        <ele>208.8</ele>
        <time>2023-07-23T08:18:05Z</time>
      </trkpt>
      <trkpt lat="43.97846" lon="1.84726">
        <ele>207.4</ele>
        <time>2023-07-23T08:18:06Z</time>
      </trkpt>
      <trkpt lat="43.97839" lon="1.84724">
        <ele>206.8</ele>
        <time>2023-07-23T08:18:07Z</time>
      </trkpt>
      <trkpt lat="43.97832" lon="1.84725">
        <ele>206.2</ele>
        <time>2023-07-23T08:18:08Z</time>
      </trkpt>
      <trkpt lat="43.97824" lon="1.84728">
        <ele>204.8</ele>
        <time>2023-07-23T08:18:09Z</time>
      </trkpt>
      <trkpt lat="43.97816" lon="1.84732">
        <ele>204</ele>
        <time>2023-07-23T08:18:10Z</time>
      </trkpt>
      <trkpt lat="43.97808" lon="1.84737">
        <ele>202.8</ele>
        <time>2023-07-23T08:18:11Z</time>
      </trkpt>
      <trkpt lat="43.978" lon="1.84743">
        <ele>202.2</ele>
        <time>2023-07-23T08:18:12Z</time>
      </trkpt>
      <trkpt lat="43.97791" lon="1.84748">
        <ele>201</ele>
        <time>2023-07-23T08:18:13Z</time>
      </trkpt>
      <trkpt lat="43.97782" lon="1.84754">
        <ele>200.6</ele>
        <time>2023-07-23T08:18:14Z</time>
      </trkpt>
      <trkpt lat="43.97771" lon="1.84758">
        <ele>200</ele>
        <time>2023-07-23T08:18:15Z</time>
      </trkpt>
      <trkpt lat="43.97748" lon="1.84762">
        <ele>198.8</ele>
        <time>2023-07-23T08:18:17Z</time>
      </trkpt>
      <trkpt lat="43.97712" lon="1.84759">
        <ele>196.4</ele>
        <time>2023-07-23T08:18:20Z</time>
      </trkpt>
      <trkpt lat="43.97691" lon="1.84757">
        <ele>195</ele>
        <time>2023-07-23T08:18:22Z</time>
      </trkpt>
      <trkpt lat="43.97682" lon="1.84756">
        <ele>194.2</ele>
        <time>2023-07-23T08:18:23Z</time>
      </trkpt>
      <trkpt lat="43.97674" lon="1.84754">
        <ele>193</ele>
        <time>2023-07-23T08:18:24Z</time>
      </trkpt>
      <trkpt lat="43.97668" lon="1.84749">
        <ele>192.6</ele>
        <time>2023-07-23T08:18:25Z</time>
      </trkpt>
      <trkpt lat="43.97668" lon="1.84749">
        <ele>192.2</ele>
        <time>2023-07-23T08:18:26Z</time>
      </trkpt>
      <trkpt lat="43.9766" lon="1.84738">
        <ele>192</ele>
        <time>2023-07-23T08:18:27Z</time>
      </trkpt>
      <trkpt lat="43.97658" lon="1.84732">
        <ele>191.8</ele>
        <time>2023-07-23T08:18:28Z</time>
      </trkpt>
      <trkpt lat="43.97657" lon="1.84726">
        <ele>191.8</ele>
        <time>2023-07-23T08:18:29Z</time>
      </trkpt>
      <trkpt lat="43.97655" lon="1.84721">
        <ele>191.8</ele>
        <time>2023-07-23T08:18:30Z</time>
      </trkpt>
      <trkpt lat="43.97654" lon="1.84717">
        <ele>192</ele>
        <time>2023-07-23T08:18:31Z</time>
      </trkpt>
      <trkpt lat="43.97653" lon="1.84713">
        <ele>192</ele>
        <time>2023-07-23T08:18:32Z</time>
      </trkpt>
      <trkpt lat="43.97652" lon="1.8471">
        <ele>192.2</ele>
        <time>2023-07-23T08:18:33Z</time>
      </trkpt>
      <trkpt lat="43.97652" lon="1.84707">
        <ele>192.4</ele>
        <time>2023-07-23T08:18:34Z</time>
      </trkpt>
      <trkpt lat="43.97651" lon="1.84704">
        <ele>192.6</ele>
        <time>2023-07-23T08:18:35Z</time>
      </trkpt>
      <trkpt lat="43.97651" lon="1.84701">
        <ele>193</ele>
        <time>2023-07-23T08:18:36Z</time>
      </trkpt>
      <trkpt lat="43.9765" lon="1.84698">
        <ele>193.2</ele>
        <time>2023-07-23T08:18:37Z</time>
      </trkpt>
      <trkpt lat="43.9765" lon="1.84695">
        <ele>193.6</ele>
        <time>2023-07-23T08:18:38Z</time>
      </trkpt>
      <trkpt lat="43.97649" lon="1.84692">
        <ele>193.6</ele>
        <time>2023-07-23T08:18:39Z</time>
      </trkpt>
      <trkpt lat="43.97648" lon="1.84689">
        <ele>194</ele>
        <time>2023-07-23T08:18:40Z</time>
      </trkpt>
      <trkpt lat="43.97648" lon="1.84685">
        <ele>194</ele>
        <time>2023-07-23T08:18:41Z</time>
      </trkpt>
      <trkpt lat="43.97647" lon="1.84682">
        <ele>194.4</ele>
        <time>2023-07-23T08:18:42Z</time>
      </trkpt>
      <trkpt lat="43.97646" lon="1.84679">
        <ele>194.8</ele>
        <time>2023-07-23T08:18:43Z</time>
      </trkpt>
      <trkpt lat="43.97645" lon="1.84672">
        <ele>195.4</ele>
        <time>2023-07-23T08:18:45Z</time>
      </trkpt>
      <trkpt lat="43.97643" lon="1.8466">
        <ele>196.2</ele>
        <time>2023-07-23T08:18:49Z</time>
      </trkpt>
      <trkpt lat="43.97642" lon="1.84654">
        <ele>196.6</ele>
        <time>2023-07-23T08:18:51Z</time>
      </trkpt>
      <trkpt lat="43.9764" lon="1.84646">
        <ele>197</ele>
        <time>2023-07-23T08:18:54Z</time>
      </trkpt>
      <trkpt lat="43.97639" lon="1.84643">
        <ele>197</ele>
        <time>2023-07-23T08:18:55Z</time>
      </trkpt>
      <trkpt lat="43.97639" lon="1.8464">
        <ele>197.6</ele>
        <time>2023-07-23T08:18:56Z</time>
      </trkpt>
      <trkpt lat="43.97638" lon="1.84637">
        <ele>197.8</ele>
        <time>2023-07-23T08:18:57Z</time>
      </trkpt>
      <trkpt lat="43.97638" lon="1.84634">
        <ele>198</ele>
        <time>2023-07-23T08:18:58Z</time>
      </trkpt>
      <trkpt lat="43.97637" lon="1.84631">
        <ele>198.2</ele>
        <time>2023-07-23T08:18:59Z</time>
      </trkpt>
      <trkpt lat="43.97637" lon="1.84629">
        <ele>198.4</ele>
        <time>2023-07-23T08:19:00Z</time>
      </trkpt>
      <trkpt lat="43.97637" lon="1.84626">
        <ele>198.6</ele>
        <time>2023-07-23T08:19:01Z</time>
      </trkpt>
      <trkpt lat="43.97636" lon="1.84623">
        <ele>198.6</ele>
        <time>2023-07-23T08:19:02Z</time>
      </trkpt>
      <trkpt lat="43.97635" lon="1.84621">
        <ele>198.8</ele>
        <time>2023-07-23T08:19:03Z</time>
      </trkpt>
      <trkpt lat="43.97635" lon="1.84618">
        <ele>198.8</ele>
        <time>2023-07-23T08:19:04Z</time>
      </trkpt>
      <trkpt lat="43.97634" lon="1.84615">
        <ele>199.4</ele>
        <time>2023-07-23T08:19:05Z</time>
      </trkpt>
      <trkpt lat="43.97634" lon="1.84611">
        <ele>199.4</ele>
        <time>2023-07-23T08:19:06Z</time>
      </trkpt>
      <trkpt lat="43.97633" lon="1.84608">
        <ele>199.8</ele>
        <time>2023-07-23T08:19:07Z</time>
      </trkpt>
      <trkpt lat="43.97633" lon="1.84605">
        <ele>200</ele>
        <time>2023-07-23T08:19:08Z</time>
      </trkpt>
      <trkpt lat="43.97633" lon="1.84603">
        <ele>200</ele>
        <time>2023-07-23T08:19:09Z</time>
      </trkpt>
      <trkpt lat="43.97633" lon="1.846">
        <ele>200.2</ele>
        <time>2023-07-23T08:19:10Z</time>
      </trkpt>
      <trkpt lat="43.97633" lon="1.84598">
        <ele>200.4</ele>
        <time>2023-07-23T08:19:11Z</time>
      </trkpt>
      <trkpt lat="43.97633" lon="1.84596">
        <ele>200.6</ele>
        <time>2023-07-23T08:19:12Z</time>
      </trkpt>
      <trkpt lat="43.97633" lon="1.84594">
        <ele>200.8</ele>
        <time>2023-07-23T08:19:13Z</time>
      </trkpt>
      <trkpt lat="43.97633" lon="1.84593">
        <ele>201</ele>
        <time>2023-07-23T08:19:14Z</time>
      </trkpt>
      <trkpt lat="43.97633" lon="1.84591">
        <ele>201</ele>
        <time>2023-07-23T08:19:15Z</time>
      </trkpt>
      <trkpt lat="43.97634" lon="1.84589">
        <ele>201.2</ele>
        <time>2023-07-23T08:19:16Z</time>
      </trkpt>
      <trkpt lat="43.97634" lon="1.84587">
        <ele>201.4</ele>
        <time>2023-07-23T08:19:17Z</time>
      </trkpt>
      <trkpt lat="43.97636" lon="1.84585">
        <ele>201.6</ele>
        <time>2023-07-23T08:19:18Z</time>
      </trkpt>
      <trkpt lat="43.97637" lon="1.84582">
        <ele>201.6</ele>
        <time>2023-07-23T08:19:19Z</time>
      </trkpt>
      <trkpt lat="43.97639" lon="1.84579">
        <ele>201.6</ele>
        <time>2023-07-23T08:19:20Z</time>
      </trkpt>
      <trkpt lat="43.97642" lon="1.84576">
        <ele>201.6</ele>
        <time>2023-07-23T08:19:21Z</time>
      </trkpt>
      <trkpt lat="43.97645" lon="1.84572">
        <ele>201.6</ele>
        <time>2023-07-23T08:19:22Z</time>
      </trkpt>
      <trkpt lat="43.9765" lon="1.84566">
        <ele>201.6</ele>
        <time>2023-07-23T08:19:23Z</time>
      </trkpt>
      <trkpt lat="43.97655" lon="1.84559">
        <ele>201.6</ele>
        <time>2023-07-23T08:19:24Z</time>
      </trkpt>
      <trkpt lat="43.97661" lon="1.84552">
        <ele>201.6</ele>
        <time>2023-07-23T08:19:25Z</time>
      </trkpt>
      <trkpt lat="43.97667" lon="1.84545">
        <ele>201.6</ele>
        <time>2023-07-23T08:19:26Z</time>
      </trkpt>
      <trkpt lat="43.97672" lon="1.84538">
        <ele>201.4</ele>
        <time>2023-07-23T08:19:27Z</time>
      </trkpt>
      <trkpt lat="43.97676" lon="1.8453">
        <ele>201</ele>
        <time>2023-07-23T08:19:28Z</time>
      </trkpt>
      <trkpt lat="43.9768" lon="1.84521">
        <ele>200.8</ele>
        <time>2023-07-23T08:19:29Z</time>
      </trkpt>
      <trkpt lat="43.97683" lon="1.84513">
        <ele>200.2</ele>
        <time>2023-07-23T08:19:30Z</time>
      </trkpt>
      <trkpt lat="43.97685" lon="1.84505">
        <ele>199.8</ele>
        <time>2023-07-23T08:19:31Z</time>
      </trkpt>
      <trkpt lat="43.97687" lon="1.84497">
        <ele>199.4</ele>
        <time>2023-07-23T08:19:32Z</time>
      </trkpt>
      <trkpt lat="43.97689" lon="1.84489">
        <ele>199.2</ele>
        <time>2023-07-23T08:19:33Z</time>
      </trkpt>
      <trkpt lat="43.97691" lon="1.84474">
        <ele>199</ele>
        <time>2023-07-23T08:19:35Z</time>
      </trkpt>
      <trkpt lat="43.97692" lon="1.84466">
        <ele>198.8</ele>
        <time>2023-07-23T08:19:36Z</time>
      </trkpt>
      <trkpt lat="43.97694" lon="1.84457">
        <ele>198.6</ele>
        <time>2023-07-23T08:19:37Z</time>
      </trkpt>
      <trkpt lat="43.97695" lon="1.84448">
        <ele>198.4</ele>
        <time>2023-07-23T08:19:38Z</time>
      </trkpt>
      <trkpt lat="43.97696" lon="1.84439">
        <ele>198.2</ele>
        <time>2023-07-23T08:19:39Z</time>
      </trkpt>
      <trkpt lat="43.97697" lon="1.84432">
        <ele>198</ele>
        <time>2023-07-23T08:19:40Z</time>
      </trkpt>
      <trkpt lat="43.97697" lon="1.84425">
        <ele>197.8</ele>
        <time>2023-07-23T08:19:41Z</time>
      </trkpt>
      <trkpt lat="43.97699" lon="1.84418">
        <ele>197.6</ele>
        <time>2023-07-23T08:19:42Z</time>
      </trkpt>
      <trkpt lat="43.97702" lon="1.8441">
        <ele>197.6</ele>
        <time>2023-07-23T08:19:43Z</time>
      </trkpt>
      <trkpt lat="43.97705" lon="1.84402">
        <ele>197.4</ele>
        <time>2023-07-23T08:19:44Z</time>
      </trkpt>
      <trkpt lat="43.97712" lon="1.8439">
        <ele>197</ele>
        <time>2023-07-23T08:19:46Z</time>
      </trkpt>
      <trkpt lat="43.97715" lon="1.84387">
        <ele>197</ele>
        <time>2023-07-23T08:19:47Z</time>
      </trkpt>
      <trkpt lat="43.97716" lon="1.84386">
        <ele>196.8</ele>
        <time>2023-07-23T08:19:48Z</time>
      </trkpt>
      <trkpt lat="43.97716" lon="1.84385">
        <ele>196.6</ele>
        <time>2023-07-23T08:19:49Z</time>
      </trkpt>
      <trkpt lat="43.97716" lon="1.84385">
        <ele>196.4</ele>
        <time>2023-07-23T08:19:50Z</time>
      </trkpt>
      <trkpt lat="43.97716" lon="1.84385">
        <ele>196.4</ele>
        <time>2023-07-23T08:19:51Z</time>
      </trkpt>
      <trkpt lat="43.97721" lon="1.84381">
        <ele>194.8</ele>
        <time>2023-07-23T08:20:17Z</time>
      </trkpt>
      <trkpt lat="43.97738" lon="1.84364">
        <ele>194.4</ele>
        <time>2023-07-23T08:20:21Z</time>
      </trkpt>
      <trkpt lat="43.97757" lon="1.84345">
        <ele>193.8</ele>
        <time>2023-07-23T08:20:24Z</time>
      </trkpt>
      <trkpt lat="43.97761" lon="1.84338">
        <ele>193.2</ele>
        <time>2023-07-23T08:20:25Z</time>
      </trkpt>
      <trkpt lat="43.97766" lon="1.84328">
        <ele>192.8</ele>
        <time>2023-07-23T08:20:26Z</time>
      </trkpt>
      <trkpt lat="43.97769" lon="1.84318">
        <ele>192.4</ele>
        <time>2023-07-23T08:20:27Z</time>
      </trkpt>
      <trkpt lat="43.97773" lon="1.84308">
        <ele>192</ele>
        <time>2023-07-23T08:20:28Z</time>
      </trkpt>
      <trkpt lat="43.97777" lon="1.84297">
        <ele>191.2</ele>
        <time>2023-07-23T08:20:29Z</time>
      </trkpt>
      <trkpt lat="43.97782" lon="1.84287">
        <ele>190.4</ele>
        <time>2023-07-23T08:20:30Z</time>
      </trkpt>
      <trkpt lat="43.97786" lon="1.84277">
        <ele>190</ele>
        <time>2023-07-23T08:20:31Z</time>
      </trkpt>
      <trkpt lat="43.97791" lon="1.84261">
        <ele>189.6</ele>
        <time>2023-07-23T08:20:33Z</time>
      </trkpt>
      <trkpt lat="43.97791" lon="1.84253">
        <ele>189.2</ele>
        <time>2023-07-23T08:20:34Z</time>
      </trkpt>
      <trkpt lat="43.97792" lon="1.84244">
        <ele>189</ele>
        <time>2023-07-23T08:20:35Z</time>
      </trkpt>
      <trkpt lat="43.97792" lon="1.84236">
        <ele>188</ele>
        <time>2023-07-23T08:20:36Z</time>
      </trkpt>
      <trkpt lat="43.97793" lon="1.84227">
        <ele>187.6</ele>
        <time>2023-07-23T08:20:37Z</time>
      </trkpt>
      <trkpt lat="43.97792" lon="1.84218">
        <ele>187</ele>
        <time>2023-07-23T08:20:38Z</time>
      </trkpt>
      <trkpt lat="43.97792" lon="1.8421">
        <ele>186.4</ele>
        <time>2023-07-23T08:20:39Z</time>
      </trkpt>
      <trkpt lat="43.97792" lon="1.84203">
        <ele>186.2</ele>
        <time>2023-07-23T08:20:40Z</time>
      </trkpt>
      <trkpt lat="43.97791" lon="1.84196">
        <ele>186</ele>
        <time>2023-07-23T08:20:41Z</time>
      </trkpt>
      <trkpt lat="43.97789" lon="1.84188">
        <ele>185.8</ele>
        <time>2023-07-23T08:20:42Z</time>
      </trkpt>
      <trkpt lat="43.97788" lon="1.84183">
        <ele>185.6</ele>
        <time>2023-07-23T08:20:43Z</time>
      </trkpt>
      <trkpt lat="43.97787" lon="1.84176">
        <ele>185.6</ele>
        <time>2023-07-23T08:20:44Z</time>
      </trkpt>
      <trkpt lat="43.97788" lon="1.84169">
        <ele>185.4</ele>
        <time>2023-07-23T08:20:45Z</time>
      </trkpt>
      <trkpt lat="43.97787" lon="1.84162">
        <ele>185.4</ele>
        <time>2023-07-23T08:20:46Z</time>
      </trkpt>
      <trkpt lat="43.97788" lon="1.84136">
        <ele>185.2</ele>
        <time>2023-07-23T08:20:50Z</time>
      </trkpt>
      <trkpt lat="43.97788" lon="1.84132">
        <ele>185.2</ele>
        <time>2023-07-23T08:20:51Z</time>
      </trkpt>
      <trkpt lat="43.9779" lon="1.84126">
        <ele>185</ele>
        <time>2023-07-23T08:20:52Z</time>
      </trkpt>
      <trkpt lat="43.97792" lon="1.84121">
        <ele>185</ele>
        <time>2023-07-23T08:20:53Z</time>
      </trkpt>
      <trkpt lat="43.97792" lon="1.84114">
        <ele>184.8</ele>
        <time>2023-07-23T08:20:54Z</time>
      </trkpt>
      <trkpt lat="43.97793" lon="1.84107">
        <ele>184.8</ele>
        <time>2023-07-23T08:20:55Z</time>
      </trkpt>
      <trkpt lat="43.97794" lon="1.84102">
        <ele>184.8</ele>
        <time>2023-07-23T08:20:56Z</time>
      </trkpt>
      <trkpt lat="43.97794" lon="1.84093">
        <ele>184.8</ele>
        <time>2023-07-23T08:20:58Z</time>
      </trkpt>
      <trkpt lat="43.97795" lon="1.84089">
        <ele>184.8</ele>
        <time>2023-07-23T08:20:59Z</time>
      </trkpt>
      <trkpt lat="43.97794" lon="1.84078">
        <ele>184.6</ele>
        <time>2023-07-23T08:21:01Z</time>
      </trkpt>
      <trkpt lat="43.97794" lon="1.84072">
        <ele>184.6</ele>
        <time>2023-07-23T08:21:02Z</time>
      </trkpt>
      <trkpt lat="43.9779" lon="1.84061">
        <ele>184.6</ele>
        <time>2023-07-23T08:21:04Z</time>
      </trkpt>
      <trkpt lat="43.97788" lon="1.84057">
        <ele>184.6</ele>
        <time>2023-07-23T08:21:05Z</time>
      </trkpt>
      <trkpt lat="43.97786" lon="1.84053">
        <ele>184.6</ele>
        <time>2023-07-23T08:21:06Z</time>
      </trkpt>
      <trkpt lat="43.97785" lon="1.84047">
        <ele>184.6</ele>
        <time>2023-07-23T08:21:08Z</time>
      </trkpt>
      <trkpt lat="43.97783" lon="1.84043">
        <ele>184.6</ele>
        <time>2023-07-23T08:21:09Z</time>
      </trkpt>
      <trkpt lat="43.97778" lon="1.8403">
        <ele>184.4</ele>
        <time>2023-07-23T08:21:13Z</time>
      </trkpt>
      <trkpt lat="43.97777" lon="1.84029">
        <ele>184.4</ele>
        <time>2023-07-23T08:21:14Z</time>
      </trkpt>
      <trkpt lat="43.97776" lon="1.84027">
        <ele>184.2</ele>
        <time>2023-07-23T08:21:15Z</time>
      </trkpt>
      <trkpt lat="43.97776" lon="1.84026">
        <ele>184.2</ele>
        <time>2023-07-23T08:21:16Z</time>
      </trkpt>
      <trkpt lat="43.97775" lon="1.84025">
        <ele>184.2</ele>
        <time>2023-07-23T08:21:17Z</time>
      </trkpt>
      <trkpt lat="43.97774" lon="1.84024">
        <ele>184.2</ele>
        <time>2023-07-23T08:21:18Z</time>
      </trkpt>
      <trkpt lat="43.97772" lon="1.84021">
        <ele>184.2</ele>
        <time>2023-07-23T08:21:20Z</time>
      </trkpt>
      <trkpt lat="43.97771" lon="1.84019">
        <ele>184.2</ele>
        <time>2023-07-23T08:21:21Z</time>
      </trkpt>
      <trkpt lat="43.97769" lon="1.84018">
        <ele>184</ele>
        <time>2023-07-23T08:21:22Z</time>
      </trkpt>
      <trkpt lat="43.97768" lon="1.84017">
        <ele>184</ele>
        <time>2023-07-23T08:21:23Z</time>
      </trkpt>
      <trkpt lat="43.97766" lon="1.84015">
        <ele>184</ele>
        <time>2023-07-23T08:21:24Z</time>
      </trkpt>
      <trkpt lat="43.97762" lon="1.84008">
        <ele>183.8</ele>
        <time>2023-07-23T08:21:27Z</time>
      </trkpt>
      <trkpt lat="43.97757" lon="1.84002">
        <ele>183.8</ele>
        <time>2023-07-23T08:21:30Z</time>
      </trkpt>
      <trkpt lat="43.97746" lon="1.83984">
        <ele>183.4</ele>
        <time>2023-07-23T08:21:35Z</time>
      </trkpt>
      <trkpt lat="43.97734" lon="1.8396">
        <ele>183.4</ele>
        <time>2023-07-23T08:21:40Z</time>
      </trkpt>
      <trkpt lat="43.97731" lon="1.83954">
        <ele>183.4</ele>
        <time>2023-07-23T08:21:41Z</time>
      </trkpt>
      <trkpt lat="43.97729" lon="1.83949">
        <ele>183.4</ele>
        <time>2023-07-23T08:21:42Z</time>
      </trkpt>
      <trkpt lat="43.97728" lon="1.83943">
        <ele>183.4</ele>
        <time>2023-07-23T08:21:43Z</time>
      </trkpt>
      <trkpt lat="43.97728" lon="1.83937">
        <ele>183.4</ele>
        <time>2023-07-23T08:21:44Z</time>
      </trkpt>
      <trkpt lat="43.97729" lon="1.83932">
        <ele>183.4</ele>
        <time>2023-07-23T08:21:45Z</time>
      </trkpt>
      <trkpt lat="43.9773" lon="1.83928">
        <ele>183.4</ele>
        <time>2023-07-23T08:21:46Z</time>
      </trkpt>
      <trkpt lat="43.97731" lon="1.83924">
        <ele>183.2</ele>
        <time>2023-07-23T08:21:47Z</time>
      </trkpt>
      <trkpt lat="43.97733" lon="1.8392">
        <ele>183.2</ele>
        <time>2023-07-23T08:21:48Z</time>
      </trkpt>
      <trkpt lat="43.97735" lon="1.83913">
        <ele>183.2</ele>
        <time>2023-07-23T08:21:49Z</time>
      </trkpt>
      <trkpt lat="43.97737" lon="1.83906">
        <ele>183.2</ele>
        <time>2023-07-23T08:21:50Z</time>
      </trkpt>
      <trkpt lat="43.9774" lon="1.83888">
        <ele>182.8</ele>
        <time>2023-07-23T08:21:53Z</time>
      </trkpt>
      <trkpt lat="43.97742" lon="1.83882">
        <ele>182.6</ele>
        <time>2023-07-23T08:21:54Z</time>
      </trkpt>
      <trkpt lat="43.97747" lon="1.83874">
        <ele>182.6</ele>
        <time>2023-07-23T08:21:56Z</time>
      </trkpt>
      <trkpt lat="43.97749" lon="1.83868">
        <ele>182.4</ele>
        <time>2023-07-23T08:21:57Z</time>
      </trkpt>
      <trkpt lat="43.97752" lon="1.83863">
        <ele>182.2</ele>
        <time>2023-07-23T08:21:58Z</time>
      </trkpt>
      <trkpt lat="43.97762" lon="1.83848">
        <ele>182</ele>
        <time>2023-07-23T08:22:02Z</time>
      </trkpt>
      <trkpt lat="43.97763" lon="1.83845">
        <ele>182</ele>
        <time>2023-07-23T08:22:03Z</time>
      </trkpt>
      <trkpt lat="43.97764" lon="1.83841">
        <ele>182</ele>
        <time>2023-07-23T08:22:04Z</time>
      </trkpt>
      <trkpt lat="43.97765" lon="1.83836">
        <ele>181.8</ele>
        <time>2023-07-23T08:22:05Z</time>
      </trkpt>
      <trkpt lat="43.97767" lon="1.83832">
        <ele>181.6</ele>
        <time>2023-07-23T08:22:06Z</time>
      </trkpt>
      <trkpt lat="43.97768" lon="1.83827">
        <ele>181.4</ele>
        <time>2023-07-23T08:22:07Z</time>
      </trkpt>
      <trkpt lat="43.97767" lon="1.83822">
        <ele>181.4</ele>
        <time>2023-07-23T08:22:08Z</time>
      </trkpt>
      <trkpt lat="43.97767" lon="1.83817">
        <ele>181.4</ele>
        <time>2023-07-23T08:22:09Z</time>
      </trkpt>
      <trkpt lat="43.97767" lon="1.8381">
        <ele>181.4</ele>
        <time>2023-07-23T08:22:10Z</time>
      </trkpt>
      <trkpt lat="43.97767" lon="1.83797">
        <ele>181.6</ele>
        <time>2023-07-23T08:22:12Z</time>
      </trkpt>
      <trkpt lat="43.97766" lon="1.83791">
        <ele>181.4</ele>
        <time>2023-07-23T08:22:13Z</time>
      </trkpt>
      <trkpt lat="43.97769" lon="1.83781">
        <ele>181.4</ele>
        <time>2023-07-23T08:22:15Z</time>
      </trkpt>
      <trkpt lat="43.9777" lon="1.83777">
        <ele>181.4</ele>
        <time>2023-07-23T08:22:16Z</time>
      </trkpt>
      <trkpt lat="43.97771" lon="1.83773">
        <ele>181.4</ele>
        <time>2023-07-23T08:22:17Z</time>
      </trkpt>
      <trkpt lat="43.97775" lon="1.8375">
        <ele>181.4</ele>
        <time>2023-07-23T08:22:22Z</time>
      </trkpt>
      <trkpt lat="43.97776" lon="1.83745">
        <ele>181</ele>
        <time>2023-07-23T08:22:24Z</time>
      </trkpt>
      <trkpt lat="43.97777" lon="1.83743">
        <ele>181</ele>
        <time>2023-07-23T08:22:25Z</time>
      </trkpt>
      <trkpt lat="43.97779" lon="1.83739">
        <ele>181</ele>
        <time>2023-07-23T08:22:26Z</time>
      </trkpt>
      <trkpt lat="43.9778" lon="1.83736">
        <ele>180.8</ele>
        <time>2023-07-23T08:22:27Z</time>
      </trkpt>
      <trkpt lat="43.97782" lon="1.83732">
        <ele>180.8</ele>
        <time>2023-07-23T08:22:28Z</time>
      </trkpt>
      <trkpt lat="43.97784" lon="1.83727">
        <ele>180.8</ele>
        <time>2023-07-23T08:22:29Z</time>
      </trkpt>
      <trkpt lat="43.97786" lon="1.8372">
        <ele>181.4</ele>
        <time>2023-07-23T08:22:31Z</time>
      </trkpt>
      <trkpt lat="43.97786" lon="1.83718">
        <ele>181.6</ele>
        <time>2023-07-23T08:22:32Z</time>
      </trkpt>
      <trkpt lat="43.97787" lon="1.83714">
        <ele>181.6</ele>
        <time>2023-07-23T08:22:33Z</time>
      </trkpt>
      <trkpt lat="43.97788" lon="1.8371">
        <ele>181.8</ele>
        <time>2023-07-23T08:22:34Z</time>
      </trkpt>
      <trkpt lat="43.97789" lon="1.83706">
        <ele>181.8</ele>
        <time>2023-07-23T08:22:35Z</time>
      </trkpt>
      <trkpt lat="43.97794" lon="1.83689">
        <ele>181.4</ele>
        <time>2023-07-23T08:22:40Z</time>
      </trkpt>
      <trkpt lat="43.97795" lon="1.83686">
        <ele>181</ele>
        <time>2023-07-23T08:22:41Z</time>
      </trkpt>
      <trkpt lat="43.97796" lon="1.83684">
        <ele>181.2</ele>
        <time>2023-07-23T08:22:42Z</time>
      </trkpt>
      <trkpt lat="43.97801" lon="1.83671">
        <ele>181</ele>
        <time>2023-07-23T08:22:45Z</time>
      </trkpt>
      <trkpt lat="43.97804" lon="1.83654">
        <ele>180.8</ele>
        <time>2023-07-23T08:22:49Z</time>
      </trkpt>
      <trkpt lat="43.97804" lon="1.83649">
        <ele>180.8</ele>
        <time>2023-07-23T08:22:50Z</time>
      </trkpt>
      <trkpt lat="43.97804" lon="1.83645">
        <ele>180.8</ele>
        <time>2023-07-23T08:22:51Z</time>
      </trkpt>
      <trkpt lat="43.97808" lon="1.83622">
        <ele>181</ele>
        <time>2023-07-23T08:22:57Z</time>
      </trkpt>
      <trkpt lat="43.9781" lon="1.83617">
        <ele>181</ele>
        <time>2023-07-23T08:22:58Z</time>
      </trkpt>
      <trkpt lat="43.9782" lon="1.83594">
        <ele>180.8</ele>
        <time>2023-07-23T08:23:04Z</time>
      </trkpt>
      <trkpt lat="43.97822" lon="1.83587">
        <ele>180.6</ele>
        <time>2023-07-23T08:23:06Z</time>
      </trkpt>
      <trkpt lat="43.97829" lon="1.8357">
        <ele>180.6</ele>
        <time>2023-07-23T08:23:10Z</time>
      </trkpt>
      <trkpt lat="43.97831" lon="1.83566">
        <ele>180.4</ele>
        <time>2023-07-23T08:23:11Z</time>
      </trkpt>
      <trkpt lat="43.97834" lon="1.83557">
        <ele>180.4</ele>
        <time>2023-07-23T08:23:13Z</time>
      </trkpt>
      <trkpt lat="43.97836" lon="1.83552">
        <ele>180.4</ele>
        <time>2023-07-23T08:23:14Z</time>
      </trkpt>
      <trkpt lat="43.97838" lon="1.83548">
        <ele>180.4</ele>
        <time>2023-07-23T08:23:15Z</time>
      </trkpt>
      <trkpt lat="43.97839" lon="1.83542">
        <ele>180.2</ele>
        <time>2023-07-23T08:23:17Z</time>
      </trkpt>
      <trkpt lat="43.97841" lon="1.83531">
        <ele>180.2</ele>
        <time>2023-07-23T08:23:20Z</time>
      </trkpt>
      <trkpt lat="43.97842" lon="1.83528">
        <ele>180.2</ele>
        <time>2023-07-23T08:23:21Z</time>
      </trkpt>
      <trkpt lat="43.97843" lon="1.83526">
        <ele>180</ele>
        <time>2023-07-23T08:23:22Z</time>
      </trkpt>
      <trkpt lat="43.97844" lon="1.83526">
        <ele>179.8</ele>
        <time>2023-07-23T08:23:23Z</time>
      </trkpt>
      <trkpt lat="43.97845" lon="1.83526">
        <ele>179.8</ele>
        <time>2023-07-23T08:23:24Z</time>
      </trkpt>
      <trkpt lat="43.97846" lon="1.83528">
        <ele>179.8</ele>
        <time>2023-07-23T08:23:25Z</time>
      </trkpt>
      <trkpt lat="43.97846" lon="1.8353">
        <ele>179.6</ele>
        <time>2023-07-23T08:23:26Z</time>
      </trkpt>
      <trkpt lat="43.97845" lon="1.83531">
        <ele>179.6</ele>
        <time>2023-07-23T08:23:27Z</time>
      </trkpt>
      <trkpt lat="43.97844" lon="1.83532">
        <ele>179.6</ele>
        <time>2023-07-23T08:23:28Z</time>
      </trkpt>
      <trkpt lat="43.97844" lon="1.83532">
        <ele>179.6</ele>
        <time>2023-07-23T08:23:29Z</time>
      </trkpt>
      <trkpt lat="43.97844" lon="1.83532">
        <ele>179.4</ele>
        <time>2023-07-23T08:23:30Z</time>
      </trkpt>
      <trkpt lat="43.97844" lon="1.83532">
        <ele>179.4</ele>
        <time>2023-07-23T08:23:31Z</time>
      </trkpt>
      <trkpt lat="43.97845" lon="1.83524">
        <ele>178.8</ele>
        <time>2023-07-23T08:24:41Z</time>
      </trkpt>
      <trkpt lat="43.97846" lon="1.83517">
        <ele>178.8</ele>
        <time>2023-07-23T08:24:44Z</time>
      </trkpt>
      <trkpt lat="43.97848" lon="1.83497">
        <ele>179</ele>
        <time>2023-07-23T08:24:51Z</time>
      </trkpt>
      <trkpt lat="43.97849" lon="1.8349">
        <ele>179</ele>
        <time>2023-07-23T08:24:53Z</time>
      </trkpt>
      <trkpt lat="43.97853" lon="1.83476">
        <ele>179</ele>
        <time>2023-07-23T08:24:56Z</time>
      </trkpt>
      <trkpt lat="43.97856" lon="1.83461">
        <ele>179</ele>
        <time>2023-07-23T08:24:59Z</time>
      </trkpt>
      <trkpt lat="43.97857" lon="1.83456">
        <ele>179</ele>
        <time>2023-07-23T08:25:00Z</time>
      </trkpt>
      <trkpt lat="43.97858" lon="1.83453">
        <ele>179</ele>
        <time>2023-07-23T08:25:01Z</time>
      </trkpt>
      <trkpt lat="43.97859" lon="1.83448">
        <ele>179</ele>
        <time>2023-07-23T08:25:02Z</time>
      </trkpt>
      <trkpt lat="43.97861" lon="1.83418">
        <ele>178.8</ele>
        <time>2023-07-23T08:25:08Z</time>
      </trkpt>
      <trkpt lat="43.9785" lon="1.8338">
        <ele>178.6</ele>
        <time>2023-07-23T08:25:16Z</time>
      </trkpt>
      <trkpt lat="43.97849" lon="1.83376">
        <ele>178.6</ele>
        <time>2023-07-23T08:25:17Z</time>
      </trkpt>
      <trkpt lat="43.97847" lon="1.83373">
        <ele>178.6</ele>
        <time>2023-07-23T08:25:18Z</time>
      </trkpt>
      <trkpt lat="43.97845" lon="1.83369">
        <ele>178.8</ele>
        <time>2023-07-23T08:25:19Z</time>
      </trkpt>
      <trkpt lat="43.97842" lon="1.83365">
        <ele>178.8</ele>
        <time>2023-07-23T08:25:20Z</time>
      </trkpt>
      <trkpt lat="43.97841" lon="1.83362">
        <ele>178.8</ele>
        <time>2023-07-23T08:25:21Z</time>
      </trkpt>
      <trkpt lat="43.97839" lon="1.83358">
        <ele>179</ele>
        <time>2023-07-23T08:25:22Z</time>
      </trkpt>
      <trkpt lat="43.97837" lon="1.83355">
        <ele>179</ele>
        <time>2023-07-23T08:25:23Z</time>
      </trkpt>
      <trkpt lat="43.97834" lon="1.83352">
        <ele>179</ele>
        <time>2023-07-23T08:25:24Z</time>
      </trkpt>
      <trkpt lat="43.97832" lon="1.83348">
        <ele>179.2</ele>
        <time>2023-07-23T08:25:25Z</time>
      </trkpt>
      <trkpt lat="43.9783" lon="1.83345">
        <ele>179.4</ele>
        <time>2023-07-23T08:25:26Z</time>
      </trkpt>
      <trkpt lat="43.97828" lon="1.83342">
        <ele>179.4</ele>
        <time>2023-07-23T08:25:27Z</time>
      </trkpt>
      <trkpt lat="43.97827" lon="1.83339">
        <ele>179.6</ele>
        <time>2023-07-23T08:25:28Z</time>
      </trkpt>
      <trkpt lat="43.97824" lon="1.83335">
        <ele>179.8</ele>
        <time>2023-07-23T08:25:29Z</time>
      </trkpt>
      <trkpt lat="43.97817" lon="1.83323">
        <ele>180.4</ele>
        <time>2023-07-23T08:25:33Z</time>
      </trkpt>
      <trkpt lat="43.97813" lon="1.83315">
        <ele>180.8</ele>
        <time>2023-07-23T08:25:35Z</time>
      </trkpt>
      <trkpt lat="43.978" lon="1.83292">
        <ele>182</ele>
        <time>2023-07-23T08:25:42Z</time>
      </trkpt>
      <trkpt lat="43.97798" lon="1.83289">
        <ele>182</ele>
        <time>2023-07-23T08:25:43Z</time>
      </trkpt>
      <trkpt lat="43.97797" lon="1.83286">
        <ele>182.2</ele>
        <time>2023-07-23T08:25:44Z</time>
      </trkpt>
      <trkpt lat="43.97795" lon="1.83282">
        <ele>182.2</ele>
        <time>2023-07-23T08:25:45Z</time>
      </trkpt>
      <trkpt lat="43.97793" lon="1.83279">
        <ele>182.4</ele>
        <time>2023-07-23T08:25:46Z</time>
      </trkpt>
      <trkpt lat="43.97792" lon="1.83276">
        <ele>182.6</ele>
        <time>2023-07-23T08:25:47Z</time>
      </trkpt>
      <trkpt lat="43.9779" lon="1.83273">
        <ele>182.8</ele>
        <time>2023-07-23T08:25:48Z</time>
      </trkpt>
      <trkpt lat="43.97788" lon="1.8327">
        <ele>182.8</ele>
        <time>2023-07-23T08:25:49Z</time>
      </trkpt>
      <trkpt lat="43.97786" lon="1.83266">
        <ele>183</ele>
        <time>2023-07-23T08:25:50Z</time>
      </trkpt>
      <trkpt lat="43.97784" lon="1.83263">
        <ele>183.2</ele>
        <time>2023-07-23T08:25:51Z</time>
      </trkpt>
      <trkpt lat="43.97782" lon="1.83261">
        <ele>183.4</ele>
        <time>2023-07-23T08:25:52Z</time>
      </trkpt>
      <trkpt lat="43.97781" lon="1.83257">
        <ele>183.4</ele>
        <time>2023-07-23T08:25:53Z</time>
      </trkpt>
      <trkpt lat="43.97779" lon="1.83254">
        <ele>183.4</ele>
        <time>2023-07-23T08:25:54Z</time>
      </trkpt>
      <trkpt lat="43.97778" lon="1.83249">
        <ele>183.8</ele>
        <time>2023-07-23T08:25:55Z</time>
      </trkpt>
      <trkpt lat="43.97777" lon="1.83244">
        <ele>183.8</ele>
        <time>2023-07-23T08:25:56Z</time>
      </trkpt>
      <trkpt lat="43.97775" lon="1.83238">
        <ele>184</ele>
        <time>2023-07-23T08:25:57Z</time>
      </trkpt>
      <trkpt lat="43.97773" lon="1.83233">
        <ele>184</ele>
        <time>2023-07-23T08:25:58Z</time>
      </trkpt>
      <trkpt lat="43.97771" lon="1.83227">
        <ele>184</ele>
        <time>2023-07-23T08:25:59Z</time>
      </trkpt>
      <trkpt lat="43.97769" lon="1.83221">
        <ele>184</ele>
        <time>2023-07-23T08:26:00Z</time>
      </trkpt>
      <trkpt lat="43.97767" lon="1.83215">
        <ele>183.8</ele>
        <time>2023-07-23T08:26:01Z</time>
      </trkpt>
      <trkpt lat="43.97764" lon="1.8321">
        <ele>183.6</ele>
        <time>2023-07-23T08:26:02Z</time>
      </trkpt>
      <trkpt lat="43.97762" lon="1.83205">
        <ele>183.4</ele>
        <time>2023-07-23T08:26:03Z</time>
      </trkpt>
      <trkpt lat="43.97759" lon="1.832">
        <ele>183</ele>
        <time>2023-07-23T08:26:04Z</time>
      </trkpt>
      <trkpt lat="43.97756" lon="1.83195">
        <ele>182.8</ele>
        <time>2023-07-23T08:26:05Z</time>
      </trkpt>
      <trkpt lat="43.97752" lon="1.83191">
        <ele>182.6</ele>
        <time>2023-07-23T08:26:06Z</time>
      </trkpt>
      <trkpt lat="43.97748" lon="1.83188">
        <ele>182.2</ele>
        <time>2023-07-23T08:26:07Z</time>
      </trkpt>
      <trkpt lat="43.97743" lon="1.83185">
        <ele>182</ele>
        <time>2023-07-23T08:26:08Z</time>
      </trkpt>
      <trkpt lat="43.97739" lon="1.83183">
        <ele>181.8</ele>
        <time>2023-07-23T08:26:09Z</time>
      </trkpt>
      <trkpt lat="43.97733" lon="1.83179">
        <ele>181.6</ele>
        <time>2023-07-23T08:26:11Z</time>
      </trkpt>
      <trkpt lat="43.97731" lon="1.83178">
        <ele>181.2</ele>
        <time>2023-07-23T08:26:12Z</time>
      </trkpt>
      <trkpt lat="43.97729" lon="1.83177">
        <ele>181</ele>
        <time>2023-07-23T08:26:13Z</time>
      </trkpt>
      <trkpt lat="43.97727" lon="1.83176">
        <ele>180.8</ele>
        <time>2023-07-23T08:26:14Z</time>
      </trkpt>
      <trkpt lat="43.97725" lon="1.83175">
        <ele>180.8</ele>
        <time>2023-07-23T08:26:15Z</time>
      </trkpt>
      <trkpt lat="43.97716" lon="1.83171">
        <ele>180.6</ele>
        <time>2023-07-23T08:26:18Z</time>
      </trkpt>
      <trkpt lat="43.97699" lon="1.83163">
        <ele>180.6</ele>
        <time>2023-07-23T08:26:23Z</time>
      </trkpt>
      <trkpt lat="43.97695" lon="1.83161">
        <ele>180.6</ele>
        <time>2023-07-23T08:26:24Z</time>
      </trkpt>
      <trkpt lat="43.97677" lon="1.83155">
        <ele>180.8</ele>
        <time>2023-07-23T08:26:30Z</time>
      </trkpt>
      <trkpt lat="43.97673" lon="1.83155">
        <ele>180.8</ele>
        <time>2023-07-23T08:26:31Z</time>
      </trkpt>
      <trkpt lat="43.97669" lon="1.83154">
        <ele>181</ele>
        <time>2023-07-23T08:26:32Z</time>
      </trkpt>
      <trkpt lat="43.97642" lon="1.83153">
        <ele>181.2</ele>
        <time>2023-07-23T08:26:40Z</time>
      </trkpt>
      <trkpt lat="43.97628" lon="1.83154">
        <ele>181.4</ele>
        <time>2023-07-23T08:26:44Z</time>
      </trkpt>
      <trkpt lat="43.97625" lon="1.83154">
        <ele>181.6</ele>
        <time>2023-07-23T08:26:45Z</time>
      </trkpt>
      <trkpt lat="43.97611" lon="1.83156">
        <ele>182</ele>
        <time>2023-07-23T08:26:49Z</time>
      </trkpt>
      <trkpt lat="43.97604" lon="1.83157">
        <ele>182</ele>
        <time>2023-07-23T08:26:51Z</time>
      </trkpt>
      <trkpt lat="43.97584" lon="1.83159">
        <ele>182.8</ele>
        <time>2023-07-23T08:26:57Z</time>
      </trkpt>
      <trkpt lat="43.97575" lon="1.83158">
        <ele>182.8</ele>
        <time>2023-07-23T08:27:00Z</time>
      </trkpt>
      <trkpt lat="43.97573" lon="1.83158">
        <ele>182.8</ele>
        <time>2023-07-23T08:27:01Z</time>
      </trkpt>
      <trkpt lat="43.9757" lon="1.83157">
        <ele>182.8</ele>
        <time>2023-07-23T08:27:02Z</time>
      </trkpt>
      <trkpt lat="43.97567" lon="1.83156">
        <ele>182.8</ele>
        <time>2023-07-23T08:27:03Z</time>
      </trkpt>
      <trkpt lat="43.97565" lon="1.83153">
        <ele>183</ele>
        <time>2023-07-23T08:27:04Z</time>
      </trkpt>
      <trkpt lat="43.97563" lon="1.83151">
        <ele>183</ele>
        <time>2023-07-23T08:27:05Z</time>
      </trkpt>
      <trkpt lat="43.97561" lon="1.83148">
        <ele>183</ele>
        <time>2023-07-23T08:27:06Z</time>
      </trkpt>
      <trkpt lat="43.97559" lon="1.83146">
        <ele>183</ele>
        <time>2023-07-23T08:27:07Z</time>
      </trkpt>
      <trkpt lat="43.97557" lon="1.83143">
        <ele>183</ele>
        <time>2023-07-23T08:27:08Z</time>
      </trkpt>
      <trkpt lat="43.97555" lon="1.83141">
        <ele>183</ele>
        <time>2023-07-23T08:27:09Z</time>
      </trkpt>
      <trkpt lat="43.97551" lon="1.83135">
        <ele>183</ele>
        <time>2023-07-23T08:27:11Z</time>
      </trkpt>
      <trkpt lat="43.9754" lon="1.83117">
        <ele>183</ele>
        <time>2023-07-23T08:27:16Z</time>
      </trkpt>
      <trkpt lat="43.97538" lon="1.83113">
        <ele>183.2</ele>
        <time>2023-07-23T08:27:18Z</time>
      </trkpt>
      <trkpt lat="43.97514" lon="1.83083">
        <ele>183.8</ele>
        <time>2023-07-23T08:27:27Z</time>
      </trkpt>
      <trkpt lat="43.97512" lon="1.8308">
        <ele>183.8</ele>
        <time>2023-07-23T08:27:28Z</time>
      </trkpt>
      <trkpt lat="43.9751" lon="1.83077">
        <ele>183.8</ele>
        <time>2023-07-23T08:27:29Z</time>
      </trkpt>
      <trkpt lat="43.97508" lon="1.83075">
        <ele>183.8</ele>
        <time>2023-07-23T08:27:30Z</time>
      </trkpt>
      <trkpt lat="43.97506" lon="1.83073">
        <ele>183.8</ele>
        <time>2023-07-23T08:27:31Z</time>
      </trkpt>
      <trkpt lat="43.97506" lon="1.83073">
        <ele>184</ele>
        <time>2023-07-23T08:27:32Z</time>
      </trkpt>
      <trkpt lat="43.97504" lon="1.83069">
        <ele>184</ele>
        <time>2023-07-23T08:27:33Z</time>
      </trkpt>
      <trkpt lat="43.97502" lon="1.83067">
        <ele>184.2</ele>
        <time>2023-07-23T08:27:34Z</time>
      </trkpt>
      <trkpt lat="43.97501" lon="1.83064">
        <ele>184.4</ele>
        <time>2023-07-23T08:27:35Z</time>
      </trkpt>
      <trkpt lat="43.97499" lon="1.83061">
        <ele>184.6</ele>
        <time>2023-07-23T08:27:36Z</time>
      </trkpt>
      <trkpt lat="43.97498" lon="1.83058">
        <ele>184.6</ele>
        <time>2023-07-23T08:27:37Z</time>
      </trkpt>
      <trkpt lat="43.97495" lon="1.83053">
        <ele>185</ele>
        <time>2023-07-23T08:27:38Z</time>
      </trkpt>
      <trkpt lat="43.97495" lon="1.83053">
        <ele>185</ele>
        <time>2023-07-23T08:27:39Z</time>
      </trkpt>
      <trkpt lat="43.97493" lon="1.83051">
        <ele>185.4</ele>
        <time>2023-07-23T08:27:40Z</time>
      </trkpt>
      <trkpt lat="43.97492" lon="1.83048">
        <ele>185.4</ele>
        <time>2023-07-23T08:27:41Z</time>
      </trkpt>
      <trkpt lat="43.9749" lon="1.83042">
        <ele>185.8</ele>
        <time>2023-07-23T08:27:42Z</time>
      </trkpt>
      <trkpt lat="43.97488" lon="1.8304">
        <ele>185.8</ele>
        <time>2023-07-23T08:27:43Z</time>
      </trkpt>
      <trkpt lat="43.97488" lon="1.8304">
        <ele>186.2</ele>
        <time>2023-07-23T08:27:44Z</time>
      </trkpt>
      <trkpt lat="43.97487" lon="1.83037">
        <ele>186.4</ele>
        <time>2023-07-23T08:27:45Z</time>
      </trkpt>
      <trkpt lat="43.97486" lon="1.83035">
        <ele>186.4</ele>
        <time>2023-07-23T08:27:46Z</time>
      </trkpt>
      <trkpt lat="43.97484" lon="1.83032">
        <ele>186.6</ele>
        <time>2023-07-23T08:27:47Z</time>
      </trkpt>
      <trkpt lat="43.97482" lon="1.83028">
        <ele>186.8</ele>
        <time>2023-07-23T08:27:48Z</time>
      </trkpt>
      <trkpt lat="43.97482" lon="1.83028">
        <ele>187</ele>
        <time>2023-07-23T08:27:49Z</time>
      </trkpt>
      <trkpt lat="43.9748" lon="1.83026">
        <ele>187.2</ele>
        <time>2023-07-23T08:27:50Z</time>
      </trkpt>
      <trkpt lat="43.97479" lon="1.83024">
        <ele>187.4</ele>
        <time>2023-07-23T08:27:51Z</time>
      </trkpt>
      <trkpt lat="43.97475" lon="1.83021">
        <ele>187.6</ele>
        <time>2023-07-23T08:27:52Z</time>
      </trkpt>
      <trkpt lat="43.97473" lon="1.83019">
        <ele>187.6</ele>
        <time>2023-07-23T08:27:53Z</time>
      </trkpt>
      <trkpt lat="43.97473" lon="1.83019">
        <ele>187.8</ele>
        <time>2023-07-23T08:27:54Z</time>
      </trkpt>
      <trkpt lat="43.9747" lon="1.83018">
        <ele>188</ele>
        <time>2023-07-23T08:27:55Z</time>
      </trkpt>
      <trkpt lat="43.97468" lon="1.83017">
        <ele>188.2</ele>
        <time>2023-07-23T08:27:56Z</time>
      </trkpt>
      <trkpt lat="43.97464" lon="1.83015">
        <ele>188.2</ele>
        <time>2023-07-23T08:27:57Z</time>
      </trkpt>
      <trkpt lat="43.97464" lon="1.83015">
        <ele>188.6</ele>
        <time>2023-07-23T08:27:58Z</time>
      </trkpt>
      <trkpt lat="43.9746" lon="1.83013">
        <ele>188.8</ele>
        <time>2023-07-23T08:27:59Z</time>
      </trkpt>
      <trkpt lat="43.97457" lon="1.83012">
        <ele>189</ele>
        <time>2023-07-23T08:28:00Z</time>
      </trkpt>
      <trkpt lat="43.97455" lon="1.83012">
        <ele>189.2</ele>
        <time>2023-07-23T08:28:01Z</time>
      </trkpt>
      <trkpt lat="43.97453" lon="1.83011">
        <ele>189.4</ele>
        <time>2023-07-23T08:28:02Z</time>
      </trkpt>
      <trkpt lat="43.97451" lon="1.8301">
        <ele>189.8</ele>
        <time>2023-07-23T08:28:03Z</time>
      </trkpt>
      <trkpt lat="43.97449" lon="1.8301">
        <ele>189.8</ele>
        <time>2023-07-23T08:28:04Z</time>
      </trkpt>
      <trkpt lat="43.97447" lon="1.83009">
        <ele>190.2</ele>
        <time>2023-07-23T08:28:05Z</time>
      </trkpt>
      <trkpt lat="43.97446" lon="1.83009">
        <ele>190.2</ele>
        <time>2023-07-23T08:28:06Z</time>
      </trkpt>
      <trkpt lat="43.97444" lon="1.83008">
        <ele>190.4</ele>
        <time>2023-07-23T08:28:07Z</time>
      </trkpt>
      <trkpt lat="43.97442" lon="1.83008">
        <ele>190.8</ele>
        <time>2023-07-23T08:28:08Z</time>
      </trkpt>
      <trkpt lat="43.97442" lon="1.83008">
        <ele>191</ele>
        <time>2023-07-23T08:28:09Z</time>
      </trkpt>
      <trkpt lat="43.9744" lon="1.83007">
        <ele>191.4</ele>
        <time>2023-07-23T08:28:10Z</time>
      </trkpt>
      <trkpt lat="43.97439" lon="1.83007">
        <ele>191.6</ele>
        <time>2023-07-23T08:28:11Z</time>
      </trkpt>
      <trkpt lat="43.97435" lon="1.83005">
        <ele>191.8</ele>
        <time>2023-07-23T08:28:12Z</time>
      </trkpt>
      <trkpt lat="43.97435" lon="1.83005">
        <ele>191.8</ele>
        <time>2023-07-23T08:28:13Z</time>
      </trkpt>
      <trkpt lat="43.97431" lon="1.83004">
        <ele>192</ele>
        <time>2023-07-23T08:28:14Z</time>
      </trkpt>
      <trkpt lat="43.97431" lon="1.83004">
        <ele>192</ele>
        <time>2023-07-23T08:28:15Z</time>
      </trkpt>
      <trkpt lat="43.97429" lon="1.83003">
        <ele>192.4</ele>
        <time>2023-07-23T08:28:16Z</time>
      </trkpt>
      <trkpt lat="43.97427" lon="1.83002">
        <ele>192.6</ele>
        <time>2023-07-23T08:28:17Z</time>
      </trkpt>
      <trkpt lat="43.97425" lon="1.83001">
        <ele>192.8</ele>
        <time>2023-07-23T08:28:18Z</time>
      </trkpt>
      <trkpt lat="43.97421" lon="1.82999">
        <ele>193</ele>
        <time>2023-07-23T08:28:19Z</time>
      </trkpt>
      <trkpt lat="43.97419" lon="1.82998">
        <ele>193.2</ele>
        <time>2023-07-23T08:28:20Z</time>
      </trkpt>
      <trkpt lat="43.97417" lon="1.82996">
        <ele>193.6</ele>
        <time>2023-07-23T08:28:21Z</time>
      </trkpt>
      <trkpt lat="43.97415" lon="1.82994">
        <ele>193.6</ele>
        <time>2023-07-23T08:28:22Z</time>
      </trkpt>
      <trkpt lat="43.97413" lon="1.82993">
        <ele>194</ele>
        <time>2023-07-23T08:28:23Z</time>
      </trkpt>
      <trkpt lat="43.97412" lon="1.82991">
        <ele>194.2</ele>
        <time>2023-07-23T08:28:24Z</time>
      </trkpt>
      <trkpt lat="43.9741" lon="1.8299">
        <ele>194.4</ele>
        <time>2023-07-23T08:28:25Z</time>
      </trkpt>
      <trkpt lat="43.97409" lon="1.82988">
        <ele>194.4</ele>
        <time>2023-07-23T08:28:26Z</time>
      </trkpt>
      <trkpt lat="43.97406" lon="1.82986">
        <ele>194.6</ele>
        <time>2023-07-23T08:28:27Z</time>
      </trkpt>
      <trkpt lat="43.97405" lon="1.82985">
        <ele>194.6</ele>
        <time>2023-07-23T08:28:28Z</time>
      </trkpt>
      <trkpt lat="43.97403" lon="1.82983">
        <ele>194.8</ele>
        <time>2023-07-23T08:28:29Z</time>
      </trkpt>
      <trkpt lat="43.97402" lon="1.82981">
        <ele>195</ele>
        <time>2023-07-23T08:28:30Z</time>
      </trkpt>
      <trkpt lat="43.974" lon="1.8298">
        <ele>195.2</ele>
        <time>2023-07-23T08:28:31Z</time>
      </trkpt>
      <trkpt lat="43.97398" lon="1.82978">
        <ele>195.2</ele>
        <time>2023-07-23T08:28:32Z</time>
      </trkpt>
      <trkpt lat="43.97397" lon="1.82977">
        <ele>195.4</ele>
        <time>2023-07-23T08:28:33Z</time>
      </trkpt>
      <trkpt lat="43.97395" lon="1.82975">
        <ele>195.4</ele>
        <time>2023-07-23T08:28:34Z</time>
      </trkpt>
      <trkpt lat="43.97393" lon="1.82973">
        <ele>195.6</ele>
        <time>2023-07-23T08:28:35Z</time>
      </trkpt>
      <trkpt lat="43.97392" lon="1.82972">
        <ele>195.6</ele>
        <time>2023-07-23T08:28:36Z</time>
      </trkpt>
      <trkpt lat="43.9739" lon="1.8297">
        <ele>195.6</ele>
        <time>2023-07-23T08:28:37Z</time>
      </trkpt>
      <trkpt lat="43.97388" lon="1.82969">
        <ele>195.8</ele>
        <time>2023-07-23T08:28:38Z</time>
      </trkpt>
      <trkpt lat="43.97387" lon="1.82967">
        <ele>196.2</ele>
        <time>2023-07-23T08:28:39Z</time>
      </trkpt>
      <trkpt lat="43.97385" lon="1.82965">
        <ele>196.6</ele>
        <time>2023-07-23T08:28:40Z</time>
      </trkpt>
      <trkpt lat="43.97384" lon="1.82964">
        <ele>196.6</ele>
        <time>2023-07-23T08:28:41Z</time>
      </trkpt>
      <trkpt lat="43.97382" lon="1.82963">
        <ele>197.2</ele>
        <time>2023-07-23T08:28:42Z</time>
      </trkpt>
      <trkpt lat="43.97381" lon="1.82961">
        <ele>197.2</ele>
        <time>2023-07-23T08:28:43Z</time>
      </trkpt>
      <trkpt lat="43.97379" lon="1.8296">
        <ele>197.6</ele>
        <time>2023-07-23T08:28:44Z</time>
      </trkpt>
      <trkpt lat="43.97379" lon="1.8296">
        <ele>197.6</ele>
        <time>2023-07-23T08:28:45Z</time>
      </trkpt>
      <trkpt lat="43.97377" lon="1.82958">
        <ele>197.8</ele>
        <time>2023-07-23T08:28:46Z</time>
      </trkpt>
      <trkpt lat="43.97376" lon="1.82957">
        <ele>198</ele>
        <time>2023-07-23T08:28:47Z</time>
      </trkpt>
      <trkpt lat="43.97373" lon="1.82954">
        <ele>198.2</ele>
        <time>2023-07-23T08:28:48Z</time>
      </trkpt>
      <trkpt lat="43.97371" lon="1.82953">
        <ele>198.4</ele>
        <time>2023-07-23T08:28:49Z</time>
      </trkpt>
      <trkpt lat="43.97371" lon="1.82953">
        <ele>198.4</ele>
        <time>2023-07-23T08:28:50Z</time>
      </trkpt>
      <trkpt lat="43.97368" lon="1.8295">
        <ele>198.6</ele>
        <time>2023-07-23T08:28:51Z</time>
      </trkpt>
      <trkpt lat="43.97366" lon="1.82948">
        <ele>198.8</ele>
        <time>2023-07-23T08:28:52Z</time>
      </trkpt>
      <trkpt lat="43.97365" lon="1.82946">
        <ele>199</ele>
        <time>2023-07-23T08:28:53Z</time>
      </trkpt>
      <trkpt lat="43.97363" lon="1.82945">
        <ele>199.2</ele>
        <time>2023-07-23T08:28:54Z</time>
      </trkpt>
      <trkpt lat="43.97362" lon="1.82943">
        <ele>199.4</ele>
        <time>2023-07-23T08:28:55Z</time>
      </trkpt>
      <trkpt lat="43.9736" lon="1.82942">
        <ele>199.6</ele>
        <time>2023-07-23T08:28:56Z</time>
      </trkpt>
      <trkpt lat="43.97359" lon="1.8294">
        <ele>199.6</ele>
        <time>2023-07-23T08:28:57Z</time>
      </trkpt>
      <trkpt lat="43.97358" lon="1.82939">
        <ele>199.8</ele>
        <time>2023-07-23T08:28:58Z</time>
      </trkpt>
      <trkpt lat="43.97357" lon="1.82937">
        <ele>200</ele>
        <time>2023-07-23T08:28:59Z</time>
      </trkpt>
      <trkpt lat="43.97355" lon="1.82935">
        <ele>200.2</ele>
        <time>2023-07-23T08:29:00Z</time>
      </trkpt>
      <trkpt lat="43.97354" lon="1.82934">
        <ele>200.2</ele>
        <time>2023-07-23T08:29:01Z</time>
      </trkpt>
      <trkpt lat="43.97353" lon="1.82932">
        <ele>200.4</ele>
        <time>2023-07-23T08:29:02Z</time>
      </trkpt>
      <trkpt lat="43.97352" lon="1.82931">
        <ele>200.4</ele>
        <time>2023-07-23T08:29:03Z</time>
      </trkpt>
      <trkpt lat="43.9735" lon="1.82928">
        <ele>200.8</ele>
        <time>2023-07-23T08:29:04Z</time>
      </trkpt>
      <trkpt lat="43.9735" lon="1.82927">
        <ele>201.2</ele>
        <time>2023-07-23T08:29:05Z</time>
      </trkpt>
      <trkpt lat="43.97349" lon="1.82925">
        <ele>201.2</ele>
        <time>2023-07-23T08:29:06Z</time>
      </trkpt>
      <trkpt lat="43.97348" lon="1.82924">
        <ele>201.4</ele>
        <time>2023-07-23T08:29:07Z</time>
      </trkpt>
      <trkpt lat="43.97347" lon="1.82922">
        <ele>201.4</ele>
        <time>2023-07-23T08:29:08Z</time>
      </trkpt>
      <trkpt lat="43.97346" lon="1.8292">
        <ele>202</ele>
        <time>2023-07-23T08:29:09Z</time>
      </trkpt>
      <trkpt lat="43.97345" lon="1.82918">
        <ele>202.2</ele>
        <time>2023-07-23T08:29:10Z</time>
      </trkpt>
      <trkpt lat="43.97344" lon="1.82916">
        <ele>202.4</ele>
        <time>2023-07-23T08:29:11Z</time>
      </trkpt>
      <trkpt lat="43.97343" lon="1.82914">
        <ele>202.4</ele>
        <time>2023-07-23T08:29:12Z</time>
      </trkpt>
      <trkpt lat="43.97342" lon="1.82912">
        <ele>202.6</ele>
        <time>2023-07-23T08:29:13Z</time>
      </trkpt>
      <trkpt lat="43.97341" lon="1.82911">
        <ele>202.8</ele>
        <time>2023-07-23T08:29:14Z</time>
      </trkpt>
      <trkpt lat="43.97341" lon="1.82909">
        <ele>203</ele>
        <time>2023-07-23T08:29:15Z</time>
      </trkpt>
      <trkpt lat="43.9734" lon="1.82908">
        <ele>203.2</ele>
        <time>2023-07-23T08:29:16Z</time>
      </trkpt>
      <trkpt lat="43.9734" lon="1.82906">
        <ele>203.4</ele>
        <time>2023-07-23T08:29:17Z</time>
      </trkpt>
      <trkpt lat="43.97339" lon="1.82904">
        <ele>203.6</ele>
        <time>2023-07-23T08:29:18Z</time>
      </trkpt>
      <trkpt lat="43.97338" lon="1.82902">
        <ele>203.6</ele>
        <time>2023-07-23T08:29:19Z</time>
      </trkpt>
      <trkpt lat="43.97338" lon="1.82902">
        <ele>204</ele>
        <time>2023-07-23T08:29:20Z</time>
      </trkpt>
      <trkpt lat="43.97337" lon="1.82898">
        <ele>204.2</ele>
        <time>2023-07-23T08:29:21Z</time>
      </trkpt>
      <trkpt lat="43.97336" lon="1.82896">
        <ele>204.6</ele>
        <time>2023-07-23T08:29:22Z</time>
      </trkpt>
      <trkpt lat="43.97334" lon="1.82894">
        <ele>205.2</ele>
        <time>2023-07-23T08:29:23Z</time>
      </trkpt>
      <trkpt lat="43.97334" lon="1.82892">
        <ele>205.2</ele>
        <time>2023-07-23T08:29:24Z</time>
      </trkpt>
      <trkpt lat="43.97333" lon="1.8289">
        <ele>205.6</ele>
        <time>2023-07-23T08:29:25Z</time>
      </trkpt>
      <trkpt lat="43.97332" lon="1.82888">
        <ele>205.8</ele>
        <time>2023-07-23T08:29:26Z</time>
      </trkpt>
      <trkpt lat="43.97331" lon="1.82886">
        <ele>206</ele>
        <time>2023-07-23T08:29:27Z</time>
      </trkpt>
      <trkpt lat="43.9733" lon="1.82885">
        <ele>206.2</ele>
        <time>2023-07-23T08:29:28Z</time>
      </trkpt>
      <trkpt lat="43.9733" lon="1.82885">
        <ele>206.4</ele>
        <time>2023-07-23T08:29:29Z</time>
      </trkpt>
      <trkpt lat="43.97328" lon="1.82881">
        <ele>206.6</ele>
        <time>2023-07-23T08:29:30Z</time>
      </trkpt>
      <trkpt lat="43.97328" lon="1.82879">
        <ele>206.6</ele>
        <time>2023-07-23T08:29:31Z</time>
      </trkpt>
      <trkpt lat="43.97326" lon="1.82876">
        <ele>207</ele>
        <time>2023-07-23T08:29:32Z</time>
      </trkpt>
      <trkpt lat="43.97326" lon="1.82876">
        <ele>207</ele>
        <time>2023-07-23T08:29:33Z</time>
      </trkpt>
      <trkpt lat="43.97325" lon="1.82873">
        <ele>207.2</ele>
        <time>2023-07-23T08:29:34Z</time>
      </trkpt>
      <trkpt lat="43.97324" lon="1.82871">
        <ele>207.4</ele>
        <time>2023-07-23T08:29:35Z</time>
      </trkpt>
      <trkpt lat="43.97323" lon="1.82868">
        <ele>207.6</ele>
        <time>2023-07-23T08:29:36Z</time>
      </trkpt>
      <trkpt lat="43.97322" lon="1.82866">
        <ele>207.8</ele>
        <time>2023-07-23T08:29:37Z</time>
      </trkpt>
      <trkpt lat="43.97321" lon="1.82864">
        <ele>208</ele>
        <time>2023-07-23T08:29:38Z</time>
      </trkpt>
      <trkpt lat="43.9732" lon="1.82863">
        <ele>208.2</ele>
        <time>2023-07-23T08:29:39Z</time>
      </trkpt>
      <trkpt lat="43.97319" lon="1.82861">
        <ele>208.2</ele>
        <time>2023-07-23T08:29:40Z</time>
      </trkpt>
      <trkpt lat="43.97318" lon="1.82859">
        <ele>208.4</ele>
        <time>2023-07-23T08:29:41Z</time>
      </trkpt>
      <trkpt lat="43.97317" lon="1.82857">
        <ele>208.4</ele>
        <time>2023-07-23T08:29:42Z</time>
      </trkpt>
      <trkpt lat="43.97316" lon="1.82855">
        <ele>208.6</ele>
        <time>2023-07-23T08:29:43Z</time>
      </trkpt>
      <trkpt lat="43.97315" lon="1.82854">
        <ele>208.8</ele>
        <time>2023-07-23T08:29:44Z</time>
      </trkpt>
      <trkpt lat="43.97314" lon="1.82852">
        <ele>209</ele>
        <time>2023-07-23T08:29:45Z</time>
      </trkpt>
      <trkpt lat="43.97313" lon="1.8285">
        <ele>209.2</ele>
        <time>2023-07-23T08:29:46Z</time>
      </trkpt>
      <trkpt lat="43.97313" lon="1.82848">
        <ele>209.4</ele>
        <time>2023-07-23T08:29:48Z</time>
      </trkpt>
      <trkpt lat="43.97312" lon="1.82846">
        <ele>209.6</ele>
        <time>2023-07-23T08:29:49Z</time>
      </trkpt>
      <trkpt lat="43.97311" lon="1.82844">
        <ele>209.6</ele>
        <time>2023-07-23T08:29:50Z</time>
      </trkpt>
      <trkpt lat="43.97311" lon="1.82843">
        <ele>209.8</ele>
        <time>2023-07-23T08:29:51Z</time>
      </trkpt>
      <trkpt lat="43.9731" lon="1.82841">
        <ele>210</ele>
        <time>2023-07-23T08:29:52Z</time>
      </trkpt>
      <trkpt lat="43.97309" lon="1.82839">
        <ele>210.4</ele>
        <time>2023-07-23T08:29:53Z</time>
      </trkpt>
      <trkpt lat="43.97309" lon="1.82837">
        <ele>210.6</ele>
        <time>2023-07-23T08:29:54Z</time>
      </trkpt>
      <trkpt lat="43.97308" lon="1.82835">
        <ele>210.8</ele>
        <time>2023-07-23T08:29:55Z</time>
      </trkpt>
      <trkpt lat="43.97307" lon="1.82833">
        <ele>211</ele>
        <time>2023-07-23T08:29:56Z</time>
      </trkpt>
      <trkpt lat="43.97307" lon="1.8283">
        <ele>211.2</ele>
        <time>2023-07-23T08:29:57Z</time>
      </trkpt>
      <trkpt lat="43.97306" lon="1.82828">
        <ele>211.6</ele>
        <time>2023-07-23T08:29:58Z</time>
      </trkpt>
      <trkpt lat="43.97305" lon="1.82826">
        <ele>211.6</ele>
        <time>2023-07-23T08:29:59Z</time>
      </trkpt>
      <trkpt lat="43.97304" lon="1.82824">
        <ele>211.8</ele>
        <time>2023-07-23T08:30:00Z</time>
      </trkpt>
      <trkpt lat="43.97304" lon="1.82822">
        <ele>212</ele>
        <time>2023-07-23T08:30:01Z</time>
      </trkpt>
      <trkpt lat="43.97303" lon="1.8282">
        <ele>212.2</ele>
        <time>2023-07-23T08:30:02Z</time>
      </trkpt>
      <trkpt lat="43.97302" lon="1.82819">
        <ele>212.4</ele>
        <time>2023-07-23T08:30:03Z</time>
      </trkpt>
      <trkpt lat="43.97301" lon="1.82817">
        <ele>212.6</ele>
        <time>2023-07-23T08:30:04Z</time>
      </trkpt>
      <trkpt lat="43.973" lon="1.82814">
        <ele>213</ele>
        <time>2023-07-23T08:30:05Z</time>
      </trkpt>
      <trkpt lat="43.97299" lon="1.82812">
        <ele>213</ele>
        <time>2023-07-23T08:30:06Z</time>
      </trkpt>
      <trkpt lat="43.97298" lon="1.82809">
        <ele>213.2</ele>
        <time>2023-07-23T08:30:07Z</time>
      </trkpt>
      <trkpt lat="43.97297" lon="1.82807">
        <ele>213.2</ele>
        <time>2023-07-23T08:30:08Z</time>
      </trkpt>
      <trkpt lat="43.97297" lon="1.82805">
        <ele>213.4</ele>
        <time>2023-07-23T08:30:09Z</time>
      </trkpt>
      <trkpt lat="43.97296" lon="1.82802">
        <ele>213.6</ele>
        <time>2023-07-23T08:30:10Z</time>
      </trkpt>
      <trkpt lat="43.97296" lon="1.82802">
        <ele>213.8</ele>
        <time>2023-07-23T08:30:11Z</time>
      </trkpt>
      <trkpt lat="43.97294" lon="1.82798">
        <ele>214.2</ele>
        <time>2023-07-23T08:30:12Z</time>
      </trkpt>
      <trkpt lat="43.97293" lon="1.82796">
        <ele>214.4</ele>
        <time>2023-07-23T08:30:13Z</time>
      </trkpt>
      <trkpt lat="43.97293" lon="1.82793">
        <ele>214.8</ele>
        <time>2023-07-23T08:30:14Z</time>
      </trkpt>
      <trkpt lat="43.97292" lon="1.82791">
        <ele>215</ele>
        <time>2023-07-23T08:30:15Z</time>
      </trkpt>
      <trkpt lat="43.97292" lon="1.82791">
        <ele>215.2</ele>
        <time>2023-07-23T08:30:16Z</time>
      </trkpt>
      <trkpt lat="43.9729" lon="1.82787">
        <ele>215.4</ele>
        <time>2023-07-23T08:30:17Z</time>
      </trkpt>
      <trkpt lat="43.9729" lon="1.82785">
        <ele>215.8</ele>
        <time>2023-07-23T08:30:18Z</time>
      </trkpt>
      <trkpt lat="43.97289" lon="1.82782">
        <ele>216</ele>
        <time>2023-07-23T08:30:19Z</time>
      </trkpt>
      <trkpt lat="43.97288" lon="1.8278">
        <ele>216.2</ele>
        <time>2023-07-23T08:30:20Z</time>
      </trkpt>
      <trkpt lat="43.97288" lon="1.82777">
        <ele>216.6</ele>
        <time>2023-07-23T08:30:21Z</time>
      </trkpt>
      <trkpt lat="43.97287" lon="1.82775">
        <ele>216.8</ele>
        <time>2023-07-23T08:30:22Z</time>
      </trkpt>
      <trkpt lat="43.97286" lon="1.82773">
        <ele>217</ele>
        <time>2023-07-23T08:30:23Z</time>
      </trkpt>
      <trkpt lat="43.97286" lon="1.82771">
        <ele>217.2</ele>
        <time>2023-07-23T08:30:24Z</time>
      </trkpt>
      <trkpt lat="43.97285" lon="1.82769">
        <ele>217.4</ele>
        <time>2023-07-23T08:30:25Z</time>
      </trkpt>
      <trkpt lat="43.97284" lon="1.82766">
        <ele>217.4</ele>
        <time>2023-07-23T08:30:26Z</time>
      </trkpt>
      <trkpt lat="43.97283" lon="1.82764">
        <ele>217.6</ele>
        <time>2023-07-23T08:30:27Z</time>
      </trkpt>
      <trkpt lat="43.97282" lon="1.82762">
        <ele>218</ele>
        <time>2023-07-23T08:30:28Z</time>
      </trkpt>
      <trkpt lat="43.97281" lon="1.8276">
        <ele>218.2</ele>
        <time>2023-07-23T08:30:29Z</time>
      </trkpt>
      <trkpt lat="43.9728" lon="1.82757">
        <ele>218.4</ele>
        <time>2023-07-23T08:30:30Z</time>
      </trkpt>
      <trkpt lat="43.97279" lon="1.82754">
        <ele>218.4</ele>
        <time>2023-07-23T08:30:31Z</time>
      </trkpt>
      <trkpt lat="43.97279" lon="1.82752">
        <ele>218.6</ele>
        <time>2023-07-23T08:30:32Z</time>
      </trkpt>
      <trkpt lat="43.97278" lon="1.8275">
        <ele>218.8</ele>
        <time>2023-07-23T08:30:33Z</time>
      </trkpt>
      <trkpt lat="43.97277" lon="1.82748">
        <ele>218.8</ele>
        <time>2023-07-23T08:30:34Z</time>
      </trkpt>
      <trkpt lat="43.97276" lon="1.82746">
        <ele>219</ele>
        <time>2023-07-23T08:30:35Z</time>
      </trkpt>
      <trkpt lat="43.97275" lon="1.82743">
        <ele>219.2</ele>
        <time>2023-07-23T08:30:36Z</time>
      </trkpt>
      <trkpt lat="43.97274" lon="1.82741">
        <ele>219.4</ele>
        <time>2023-07-23T08:30:37Z</time>
      </trkpt>
      <trkpt lat="43.97273" lon="1.82739">
        <ele>219.6</ele>
        <time>2023-07-23T08:30:38Z</time>
      </trkpt>
      <trkpt lat="43.97272" lon="1.82737">
        <ele>219.8</ele>
        <time>2023-07-23T08:30:39Z</time>
      </trkpt>
      <trkpt lat="43.97272" lon="1.82735">
        <ele>219.8</ele>
        <time>2023-07-23T08:30:40Z</time>
      </trkpt>
      <trkpt lat="43.97271" lon="1.82732">
        <ele>219.8</ele>
        <time>2023-07-23T08:30:41Z</time>
      </trkpt>
      <trkpt lat="43.9727" lon="1.8273">
        <ele>220</ele>
        <time>2023-07-23T08:30:42Z</time>
      </trkpt>
      <trkpt lat="43.97269" lon="1.82728">
        <ele>220.4</ele>
        <time>2023-07-23T08:30:43Z</time>
      </trkpt>
      <trkpt lat="43.97268" lon="1.82725">
        <ele>220.6</ele>
        <time>2023-07-23T08:30:44Z</time>
      </trkpt>
      <trkpt lat="43.97266" lon="1.82723">
        <ele>220.6</ele>
        <time>2023-07-23T08:30:45Z</time>
      </trkpt>
      <trkpt lat="43.97265" lon="1.82721">
        <ele>220.8</ele>
        <time>2023-07-23T08:30:46Z</time>
      </trkpt>
      <trkpt lat="43.97264" lon="1.82719">
        <ele>221</ele>
        <time>2023-07-23T08:30:47Z</time>
      </trkpt>
      <trkpt lat="43.97264" lon="1.82719">
        <ele>221.2</ele>
        <time>2023-07-23T08:30:48Z</time>
      </trkpt>
      <trkpt lat="43.97261" lon="1.82715">
        <ele>221.2</ele>
        <time>2023-07-23T08:30:49Z</time>
      </trkpt>
      <trkpt lat="43.97261" lon="1.82715">
        <ele>221.2</ele>
        <time>2023-07-23T08:30:50Z</time>
      </trkpt>
      <trkpt lat="43.97258" lon="1.82711">
        <ele>221.4</ele>
        <time>2023-07-23T08:30:51Z</time>
      </trkpt>
      <trkpt lat="43.97256" lon="1.8271">
        <ele>221.4</ele>
        <time>2023-07-23T08:30:52Z</time>
      </trkpt>
      <trkpt lat="43.97256" lon="1.8271">
        <ele>221.4</ele>
        <time>2023-07-23T08:30:53Z</time>
      </trkpt>
      <trkpt lat="43.97254" lon="1.82708">
        <ele>221.4</ele>
        <time>2023-07-23T08:30:54Z</time>
      </trkpt>
      <trkpt lat="43.97252" lon="1.82705">
        <ele>221.6</ele>
        <time>2023-07-23T08:30:55Z</time>
      </trkpt>
      <trkpt lat="43.9725" lon="1.82703">
        <ele>221.6</ele>
        <time>2023-07-23T08:30:56Z</time>
      </trkpt>
      <trkpt lat="43.97248" lon="1.82702">
        <ele>221.6</ele>
        <time>2023-07-23T08:30:57Z</time>
      </trkpt>
      <trkpt lat="43.97247" lon="1.827">
        <ele>221.6</ele>
        <time>2023-07-23T08:30:58Z</time>
      </trkpt>
      <trkpt lat="43.97245" lon="1.82698">
        <ele>221.6</ele>
        <time>2023-07-23T08:30:59Z</time>
      </trkpt>
      <trkpt lat="43.97243" lon="1.82697">
        <ele>221.6</ele>
        <time>2023-07-23T08:31:00Z</time>
      </trkpt>
      <trkpt lat="43.97242" lon="1.82695">
        <ele>221.6</ele>
        <time>2023-07-23T08:31:01Z</time>
      </trkpt>
      <trkpt lat="43.97242" lon="1.82695">
        <ele>221.8</ele>
        <time>2023-07-23T08:31:02Z</time>
      </trkpt>
      <trkpt lat="43.97238" lon="1.82692">
        <ele>221.8</ele>
        <time>2023-07-23T08:31:03Z</time>
      </trkpt>
      <trkpt lat="43.97236" lon="1.82691">
        <ele>221.8</ele>
        <time>2023-07-23T08:31:04Z</time>
      </trkpt>
      <trkpt lat="43.97234" lon="1.82689">
        <ele>222</ele>
        <time>2023-07-23T08:31:05Z</time>
      </trkpt>
      <trkpt lat="43.97233" lon="1.82688">
        <ele>222</ele>
        <time>2023-07-23T08:31:06Z</time>
      </trkpt>
      <trkpt lat="43.97225" lon="1.82682">
        <ele>222.4</ele>
        <time>2023-07-23T08:31:10Z</time>
      </trkpt>
      <trkpt lat="43.9722" lon="1.82679">
        <ele>222.6</ele>
        <time>2023-07-23T08:31:13Z</time>
      </trkpt>
      <trkpt lat="43.97218" lon="1.82678">
        <ele>222.6</ele>
        <time>2023-07-23T08:31:14Z</time>
      </trkpt>
      <trkpt lat="43.97217" lon="1.82677">
        <ele>222.8</ele>
        <time>2023-07-23T08:31:15Z</time>
      </trkpt>
      <trkpt lat="43.97215" lon="1.82674">
        <ele>222.8</ele>
        <time>2023-07-23T08:31:16Z</time>
      </trkpt>
      <trkpt lat="43.97213" lon="1.82672">
        <ele>222.8</ele>
        <time>2023-07-23T08:31:17Z</time>
      </trkpt>
      <trkpt lat="43.97212" lon="1.8267">
        <ele>223</ele>
        <time>2023-07-23T08:31:18Z</time>
      </trkpt>
      <trkpt lat="43.97211" lon="1.82668">
        <ele>223</ele>
        <time>2023-07-23T08:31:19Z</time>
      </trkpt>
      <trkpt lat="43.97209" lon="1.82665">
        <ele>223</ele>
        <time>2023-07-23T08:31:20Z</time>
      </trkpt>
      <trkpt lat="43.97208" lon="1.82663">
        <ele>223</ele>
        <time>2023-07-23T08:31:21Z</time>
      </trkpt>
      <trkpt lat="43.97208" lon="1.8266">
        <ele>223.2</ele>
        <time>2023-07-23T08:31:22Z</time>
      </trkpt>
      <trkpt lat="43.97207" lon="1.82658">
        <ele>223.2</ele>
        <time>2023-07-23T08:31:23Z</time>
      </trkpt>
      <trkpt lat="43.97207" lon="1.82655">
        <ele>223.4</ele>
        <time>2023-07-23T08:31:24Z</time>
      </trkpt>
      <trkpt lat="43.97205" lon="1.82646">
        <ele>223.8</ele>
        <time>2023-07-23T08:31:27Z</time>
      </trkpt>
      <trkpt lat="43.97202" lon="1.82634">
        <ele>224.4</ele>
        <time>2023-07-23T08:31:31Z</time>
      </trkpt>
      <trkpt lat="43.97198" lon="1.82614">
        <ele>224.8</ele>
        <time>2023-07-23T08:31:38Z</time>
      </trkpt>
      <trkpt lat="43.97198" lon="1.82612">
        <ele>224.8</ele>
        <time>2023-07-23T08:31:39Z</time>
      </trkpt>
      <trkpt lat="43.97197" lon="1.8261">
        <ele>224.8</ele>
        <time>2023-07-23T08:31:40Z</time>
      </trkpt>
      <trkpt lat="43.97197" lon="1.82609">
        <ele>224.8</ele>
        <time>2023-07-23T08:31:41Z</time>
      </trkpt>
      <trkpt lat="43.97195" lon="1.8261">
        <ele>224.8</ele>
        <time>2023-07-23T08:31:42Z</time>
      </trkpt>
      <trkpt lat="43.97195" lon="1.82612">
        <ele>225</ele>
        <time>2023-07-23T08:31:43Z</time>
      </trkpt>
      <trkpt lat="43.97196" lon="1.82613">
        <ele>225.2</ele>
        <time>2023-07-23T08:31:44Z</time>
      </trkpt>
      <trkpt lat="43.97196" lon="1.82615">
        <ele>225</ele>
        <time>2023-07-23T08:31:45Z</time>
      </trkpt>
      <trkpt lat="43.97197" lon="1.82617">
        <ele>225</ele>
        <time>2023-07-23T08:31:46Z</time>
      </trkpt>
      <trkpt lat="43.97198" lon="1.82619">
        <ele>225.2</ele>
        <time>2023-07-23T08:31:47Z</time>
      </trkpt>
      <trkpt lat="43.97199" lon="1.82621">
        <ele>225.2</ele>
        <time>2023-07-23T08:31:48Z</time>
      </trkpt>
      <trkpt lat="43.97201" lon="1.82622">
        <ele>225.2</ele>
        <time>2023-07-23T08:31:49Z</time>
      </trkpt>
      <trkpt lat="43.97204" lon="1.82619">
        <ele>225.2</ele>
        <time>2023-07-23T08:31:51Z</time>
      </trkpt>
      <trkpt lat="43.97204" lon="1.82616">
        <ele>225.4</ele>
        <time>2023-07-23T08:31:52Z</time>
      </trkpt>
      <trkpt lat="43.97201" lon="1.8261">
        <ele>225.4</ele>
        <time>2023-07-23T08:31:55Z</time>
      </trkpt>
      <trkpt lat="43.9719" lon="1.82596">
        <ele>225.4</ele>
        <time>2023-07-23T08:32:02Z</time>
      </trkpt>
      <trkpt lat="43.97183" lon="1.82586">
        <ele>225.6</ele>
        <time>2023-07-23T08:32:07Z</time>
      </trkpt>
      <trkpt lat="43.97172" lon="1.82576">
        <ele>225.8</ele>
        <time>2023-07-23T08:32:13Z</time>
      </trkpt>
      <trkpt lat="43.97169" lon="1.82573">
        <ele>226</ele>
        <time>2023-07-23T08:32:15Z</time>
      </trkpt>
      <trkpt lat="43.97154" lon="1.82559">
        <ele>226.4</ele>
        <time>2023-07-23T08:32:21Z</time>
      </trkpt>
      <trkpt lat="43.97142" lon="1.82549">
        <ele>226.4</ele>
        <time>2023-07-23T08:32:25Z</time>
      </trkpt>
      <trkpt lat="43.97139" lon="1.82547">
        <ele>226.4</ele>
        <time>2023-07-23T08:32:26Z</time>
      </trkpt>
      <trkpt lat="43.97133" lon="1.82542">
        <ele>226.2</ele>
        <time>2023-07-23T08:32:28Z</time>
      </trkpt>
      <trkpt lat="43.97121" lon="1.82529">
        <ele>226</ele>
        <time>2023-07-23T08:32:33Z</time>
      </trkpt>
      <trkpt lat="43.97116" lon="1.82524">
        <ele>226</ele>
        <time>2023-07-23T08:32:35Z</time>
      </trkpt>
      <trkpt lat="43.9711" lon="1.82519">
        <ele>225.8</ele>
        <time>2023-07-23T08:32:37Z</time>
      </trkpt>
      <trkpt lat="43.97108" lon="1.82516">
        <ele>225.8</ele>
        <time>2023-07-23T08:32:38Z</time>
      </trkpt>
      <trkpt lat="43.97106" lon="1.82514">
        <ele>225.6</ele>
        <time>2023-07-23T08:32:39Z</time>
      </trkpt>
      <trkpt lat="43.97103" lon="1.82512">
        <ele>225.6</ele>
        <time>2023-07-23T08:32:40Z</time>
      </trkpt>
      <trkpt lat="43.97101" lon="1.8251">
        <ele>225.4</ele>
        <time>2023-07-23T08:32:41Z</time>
      </trkpt>
      <trkpt lat="43.97098" lon="1.82507">
        <ele>225.4</ele>
        <time>2023-07-23T08:32:42Z</time>
      </trkpt>
      <trkpt lat="43.97096" lon="1.82505">
        <ele>225.4</ele>
        <time>2023-07-23T08:32:43Z</time>
      </trkpt>
      <trkpt lat="43.97082" lon="1.82491">
        <ele>225</ele>
        <time>2023-07-23T08:32:47Z</time>
      </trkpt>
      <trkpt lat="43.97059" lon="1.82473">
        <ele>224.4</ele>
        <time>2023-07-23T08:32:51Z</time>
      </trkpt>
      <trkpt lat="43.97045" lon="1.82465">
        <ele>223.8</ele>
        <time>2023-07-23T08:32:53Z</time>
      </trkpt>
      <trkpt lat="43.97017" lon="1.82447">
        <ele>222.6</ele>
        <time>2023-07-23T08:32:57Z</time>
      </trkpt>
      <trkpt lat="43.96999" lon="1.82429">
        <ele>221.6</ele>
        <time>2023-07-23T08:33:00Z</time>
      </trkpt>
      <trkpt lat="43.96982" lon="1.8241">
        <ele>221</ele>
        <time>2023-07-23T08:33:03Z</time>
      </trkpt>
      <trkpt lat="43.96978" lon="1.82404">
        <ele>221</ele>
        <time>2023-07-23T08:33:04Z</time>
      </trkpt>
      <trkpt lat="43.96974" lon="1.82398">
        <ele>220.8</ele>
        <time>2023-07-23T08:33:05Z</time>
      </trkpt>
      <trkpt lat="43.9697" lon="1.82392">
        <ele>220.8</ele>
        <time>2023-07-23T08:33:06Z</time>
      </trkpt>
      <trkpt lat="43.96967" lon="1.82387">
        <ele>220.6</ele>
        <time>2023-07-23T08:33:07Z</time>
      </trkpt>
      <trkpt lat="43.96964" lon="1.82382">
        <ele>220.6</ele>
        <time>2023-07-23T08:33:08Z</time>
      </trkpt>
      <trkpt lat="43.96963" lon="1.82377">
        <ele>220.6</ele>
        <time>2023-07-23T08:33:09Z</time>
      </trkpt>
      <trkpt lat="43.96961" lon="1.82373">
        <ele>220.6</ele>
        <time>2023-07-23T08:33:10Z</time>
      </trkpt>
      <trkpt lat="43.9696" lon="1.82368">
        <ele>220.8</ele>
        <time>2023-07-23T08:33:11Z</time>
      </trkpt>
      <trkpt lat="43.96959" lon="1.82364">
        <ele>220.8</ele>
        <time>2023-07-23T08:33:12Z</time>
      </trkpt>
      <trkpt lat="43.96958" lon="1.82359">
        <ele>220.8</ele>
        <time>2023-07-23T08:33:13Z</time>
      </trkpt>
      <trkpt lat="43.96956" lon="1.82353">
        <ele>221</ele>
        <time>2023-07-23T08:33:14Z</time>
      </trkpt>
      <trkpt lat="43.96951" lon="1.82328">
        <ele>221.4</ele>
        <time>2023-07-23T08:33:19Z</time>
      </trkpt>
      <trkpt lat="43.9695" lon="1.82323">
        <ele>221.6</ele>
        <time>2023-07-23T08:33:20Z</time>
      </trkpt>
      <trkpt lat="43.96946" lon="1.82307">
        <ele>221.8</ele>
        <time>2023-07-23T08:33:23Z</time>
      </trkpt>
      <trkpt lat="43.96938" lon="1.82283">
        <ele>222.4</ele>
        <time>2023-07-23T08:33:28Z</time>
      </trkpt>
      <trkpt lat="43.96938" lon="1.82283">
        <ele>222.4</ele>
        <time>2023-07-23T08:33:29Z</time>
      </trkpt>
      <trkpt lat="43.96935" lon="1.82274">
        <ele>222.6</ele>
        <time>2023-07-23T08:33:30Z</time>
      </trkpt>
      <trkpt lat="43.96933" lon="1.8227">
        <ele>222.8</ele>
        <time>2023-07-23T08:33:31Z</time>
      </trkpt>
      <trkpt lat="43.96931" lon="1.82266">
        <ele>223</ele>
        <time>2023-07-23T08:33:32Z</time>
      </trkpt>
      <trkpt lat="43.96929" lon="1.82263">
        <ele>223</ele>
        <time>2023-07-23T08:33:33Z</time>
      </trkpt>
      <trkpt lat="43.96926" lon="1.8226">
        <ele>223.2</ele>
        <time>2023-07-23T08:33:34Z</time>
      </trkpt>
      <trkpt lat="43.96923" lon="1.82256">
        <ele>223.4</ele>
        <time>2023-07-23T08:33:35Z</time>
      </trkpt>
      <trkpt lat="43.96921" lon="1.82253">
        <ele>223.6</ele>
        <time>2023-07-23T08:33:36Z</time>
      </trkpt>
      <trkpt lat="43.96919" lon="1.8225">
        <ele>223.4</ele>
        <time>2023-07-23T08:33:37Z</time>
      </trkpt>
      <trkpt lat="43.96917" lon="1.82246">
        <ele>223.4</ele>
        <time>2023-07-23T08:33:38Z</time>
      </trkpt>
      <trkpt lat="43.96914" lon="1.82243">
        <ele>223.6</ele>
        <time>2023-07-23T08:33:39Z</time>
      </trkpt>
      <trkpt lat="43.96912" lon="1.8224">
        <ele>223.6</ele>
        <time>2023-07-23T08:33:40Z</time>
      </trkpt>
      <trkpt lat="43.9691" lon="1.82237">
        <ele>224</ele>
        <time>2023-07-23T08:33:41Z</time>
      </trkpt>
      <trkpt lat="43.96908" lon="1.82234">
        <ele>224</ele>
        <time>2023-07-23T08:33:42Z</time>
      </trkpt>
      <trkpt lat="43.96902" lon="1.82226">
        <ele>224.4</ele>
        <time>2023-07-23T08:33:45Z</time>
      </trkpt>
      <trkpt lat="43.969" lon="1.82223">
        <ele>224.6</ele>
        <time>2023-07-23T08:33:46Z</time>
      </trkpt>
      <trkpt lat="43.96899" lon="1.82221">
        <ele>224.6</ele>
        <time>2023-07-23T08:33:47Z</time>
      </trkpt>
      <trkpt lat="43.96898" lon="1.82219">
        <ele>224.8</ele>
        <time>2023-07-23T08:33:48Z</time>
      </trkpt>
      <trkpt lat="43.96896" lon="1.82217">
        <ele>224.8</ele>
        <time>2023-07-23T08:33:49Z</time>
      </trkpt>
      <trkpt lat="43.96895" lon="1.82215">
        <ele>225</ele>
        <time>2023-07-23T08:33:50Z</time>
      </trkpt>
      <trkpt lat="43.96894" lon="1.82214">
        <ele>225</ele>
        <time>2023-07-23T08:33:51Z</time>
      </trkpt>
      <trkpt lat="43.96892" lon="1.82212">
        <ele>225.2</ele>
        <time>2023-07-23T08:33:52Z</time>
      </trkpt>
      <trkpt lat="43.96892" lon="1.8221">
        <ele>225.2</ele>
        <time>2023-07-23T08:33:53Z</time>
      </trkpt>
      <trkpt lat="43.96891" lon="1.82208">
        <ele>225.4</ele>
        <time>2023-07-23T08:33:54Z</time>
      </trkpt>
      <trkpt lat="43.9689" lon="1.82206">
        <ele>225.4</ele>
        <time>2023-07-23T08:33:55Z</time>
      </trkpt>
      <trkpt lat="43.96889" lon="1.82204">
        <ele>225.6</ele>
        <time>2023-07-23T08:33:56Z</time>
      </trkpt>
      <trkpt lat="43.96889" lon="1.82202">
        <ele>225.8</ele>
        <time>2023-07-23T08:33:57Z</time>
      </trkpt>
      <trkpt lat="43.96888" lon="1.822">
        <ele>225.8</ele>
        <time>2023-07-23T08:33:58Z</time>
      </trkpt>
      <trkpt lat="43.96887" lon="1.82199">
        <ele>226</ele>
        <time>2023-07-23T08:33:59Z</time>
      </trkpt>
      <trkpt lat="43.96886" lon="1.82197">
        <ele>226</ele>
        <time>2023-07-23T08:34:00Z</time>
      </trkpt>
      <trkpt lat="43.96885" lon="1.82195">
        <ele>226.2</ele>
        <time>2023-07-23T08:34:01Z</time>
      </trkpt>
      <trkpt lat="43.96883" lon="1.82194">
        <ele>226.4</ele>
        <time>2023-07-23T08:34:02Z</time>
      </trkpt>
      <trkpt lat="43.96882" lon="1.82192">
        <ele>226.6</ele>
        <time>2023-07-23T08:34:03Z</time>
      </trkpt>
      <trkpt lat="43.96881" lon="1.82191">
        <ele>226.6</ele>
        <time>2023-07-23T08:34:04Z</time>
      </trkpt>
      <trkpt lat="43.9688" lon="1.82189">
        <ele>226.8</ele>
        <time>2023-07-23T08:34:05Z</time>
      </trkpt>
      <trkpt lat="43.96879" lon="1.82188">
        <ele>227</ele>
        <time>2023-07-23T08:34:06Z</time>
      </trkpt>
      <trkpt lat="43.96878" lon="1.82186">
        <ele>227</ele>
        <time>2023-07-23T08:34:07Z</time>
      </trkpt>
      <trkpt lat="43.96877" lon="1.82185">
        <ele>227.2</ele>
        <time>2023-07-23T08:34:08Z</time>
      </trkpt>
      <trkpt lat="43.96876" lon="1.82183">
        <ele>227.2</ele>
        <time>2023-07-23T08:34:09Z</time>
      </trkpt>
      <trkpt lat="43.96875" lon="1.82182">
        <ele>227.4</ele>
        <time>2023-07-23T08:34:10Z</time>
      </trkpt>
      <trkpt lat="43.96875" lon="1.82181">
        <ele>227.6</ele>
        <time>2023-07-23T08:34:11Z</time>
      </trkpt>
      <trkpt lat="43.96874" lon="1.82179">
        <ele>227.6</ele>
        <time>2023-07-23T08:34:12Z</time>
      </trkpt>
      <trkpt lat="43.96873" lon="1.82178">
        <ele>227.8</ele>
        <time>2023-07-23T08:34:13Z</time>
      </trkpt>
      <trkpt lat="43.96872" lon="1.82177">
        <ele>227.8</ele>
        <time>2023-07-23T08:34:14Z</time>
      </trkpt>
      <trkpt lat="43.96871" lon="1.82175">
        <ele>228</ele>
        <time>2023-07-23T08:34:15Z</time>
      </trkpt>
      <trkpt lat="43.9687" lon="1.82173">
        <ele>228.2</ele>
        <time>2023-07-23T08:34:16Z</time>
      </trkpt>
      <trkpt lat="43.96869" lon="1.82171">
        <ele>228.4</ele>
        <time>2023-07-23T08:34:17Z</time>
      </trkpt>
      <trkpt lat="43.96869" lon="1.8217">
        <ele>228.4</ele>
        <time>2023-07-23T08:34:18Z</time>
      </trkpt>
      <trkpt lat="43.96868" lon="1.82169">
        <ele>228.6</ele>
        <time>2023-07-23T08:34:19Z</time>
      </trkpt>
      <trkpt lat="43.96867" lon="1.82167">
        <ele>228.8</ele>
        <time>2023-07-23T08:34:20Z</time>
      </trkpt>
      <trkpt lat="43.96866" lon="1.82166">
        <ele>228.8</ele>
        <time>2023-07-23T08:34:21Z</time>
      </trkpt>
      <trkpt lat="43.96866" lon="1.82165">
        <ele>229</ele>
        <time>2023-07-23T08:34:22Z</time>
      </trkpt>
      <trkpt lat="43.96865" lon="1.82163">
        <ele>229.2</ele>
        <time>2023-07-23T08:34:23Z</time>
      </trkpt>
      <trkpt lat="43.96864" lon="1.82162">
        <ele>229.4</ele>
        <time>2023-07-23T08:34:24Z</time>
      </trkpt>
      <trkpt lat="43.96863" lon="1.82161">
        <ele>229.4</ele>
        <time>2023-07-23T08:34:25Z</time>
      </trkpt>
      <trkpt lat="43.96862" lon="1.8216">
        <ele>229.6</ele>
        <time>2023-07-23T08:34:26Z</time>
      </trkpt>
      <trkpt lat="43.96861" lon="1.82159">
        <ele>229.8</ele>
        <time>2023-07-23T08:34:27Z</time>
      </trkpt>
      <trkpt lat="43.96861" lon="1.82157">
        <ele>229.8</ele>
        <time>2023-07-23T08:34:28Z</time>
      </trkpt>
      <trkpt lat="43.9686" lon="1.82156">
        <ele>230</ele>
        <time>2023-07-23T08:34:29Z</time>
      </trkpt>
      <trkpt lat="43.96859" lon="1.82155">
        <ele>230</ele>
        <time>2023-07-23T08:34:30Z</time>
      </trkpt>
      <trkpt lat="43.96858" lon="1.82153">
        <ele>230.6</ele>
        <time>2023-07-23T08:34:31Z</time>
      </trkpt>
      <trkpt lat="43.96858" lon="1.82152">
        <ele>230.6</ele>
        <time>2023-07-23T08:34:32Z</time>
      </trkpt>
      <trkpt lat="43.96857" lon="1.8215">
        <ele>231</ele>
        <time>2023-07-23T08:34:33Z</time>
      </trkpt>
      <trkpt lat="43.96856" lon="1.82149">
        <ele>231.2</ele>
        <time>2023-07-23T08:34:34Z</time>
      </trkpt>
      <trkpt lat="43.96855" lon="1.82148">
        <ele>231.4</ele>
        <time>2023-07-23T08:34:35Z</time>
      </trkpt>
      <trkpt lat="43.96854" lon="1.82147">
        <ele>231.6</ele>
        <time>2023-07-23T08:34:36Z</time>
      </trkpt>
      <trkpt lat="43.96853" lon="1.82145">
        <ele>231.8</ele>
        <time>2023-07-23T08:34:37Z</time>
      </trkpt>
      <trkpt lat="43.96852" lon="1.82144">
        <ele>232</ele>
        <time>2023-07-23T08:34:38Z</time>
      </trkpt>
      <trkpt lat="43.96851" lon="1.82143">
        <ele>232.2</ele>
        <time>2023-07-23T08:34:39Z</time>
      </trkpt>
      <trkpt lat="43.9685" lon="1.82141">
        <ele>232.4</ele>
        <time>2023-07-23T08:34:40Z</time>
      </trkpt>
      <trkpt lat="43.9685" lon="1.8214">
        <ele>232.4</ele>
        <time>2023-07-23T08:34:41Z</time>
      </trkpt>
      <trkpt lat="43.96849" lon="1.82139">
        <ele>232.8</ele>
        <time>2023-07-23T08:34:42Z</time>
      </trkpt>
      <trkpt lat="43.96848" lon="1.82137">
        <ele>232.8</ele>
        <time>2023-07-23T08:34:43Z</time>
      </trkpt>
      <trkpt lat="43.96847" lon="1.82136">
        <ele>233</ele>
        <time>2023-07-23T08:34:44Z</time>
      </trkpt>
      <trkpt lat="43.96846" lon="1.82135">
        <ele>233</ele>
        <time>2023-07-23T08:34:45Z</time>
      </trkpt>
      <trkpt lat="43.96845" lon="1.82134">
        <ele>233.2</ele>
        <time>2023-07-23T08:34:46Z</time>
      </trkpt>
      <trkpt lat="43.96844" lon="1.82132">
        <ele>233.4</ele>
        <time>2023-07-23T08:34:47Z</time>
      </trkpt>
      <trkpt lat="43.96844" lon="1.82131">
        <ele>233.4</ele>
        <time>2023-07-23T08:34:48Z</time>
      </trkpt>
      <trkpt lat="43.96843" lon="1.8213">
        <ele>233.6</ele>
        <time>2023-07-23T08:34:49Z</time>
      </trkpt>
      <trkpt lat="43.96842" lon="1.82129">
        <ele>233.8</ele>
        <time>2023-07-23T08:34:50Z</time>
      </trkpt>
      <trkpt lat="43.96842" lon="1.82128">
        <ele>233.8</ele>
        <time>2023-07-23T08:34:51Z</time>
      </trkpt>
      <trkpt lat="43.96841" lon="1.82126">
        <ele>234.2</ele>
        <time>2023-07-23T08:34:52Z</time>
      </trkpt>
      <trkpt lat="43.9684" lon="1.82125">
        <ele>234.4</ele>
        <time>2023-07-23T08:34:53Z</time>
      </trkpt>
      <trkpt lat="43.9684" lon="1.82123">
        <ele>234.6</ele>
        <time>2023-07-23T08:34:54Z</time>
      </trkpt>
      <trkpt lat="43.96839" lon="1.82121">
        <ele>234.6</ele>
        <time>2023-07-23T08:34:55Z</time>
      </trkpt>
      <trkpt lat="43.96838" lon="1.8212">
        <ele>234.8</ele>
        <time>2023-07-23T08:34:56Z</time>
      </trkpt>
      <trkpt lat="43.96837" lon="1.82119">
        <ele>235.2</ele>
        <time>2023-07-23T08:34:57Z</time>
      </trkpt>
      <trkpt lat="43.96835" lon="1.82118">
        <ele>235.4</ele>
        <time>2023-07-23T08:34:58Z</time>
      </trkpt>
      <trkpt lat="43.96835" lon="1.82117">
        <ele>235.8</ele>
        <time>2023-07-23T08:34:59Z</time>
      </trkpt>
      <trkpt lat="43.96834" lon="1.82115">
        <ele>236</ele>
        <time>2023-07-23T08:35:00Z</time>
      </trkpt>
      <trkpt lat="43.96833" lon="1.82114">
        <ele>236.6</ele>
        <time>2023-07-23T08:35:01Z</time>
      </trkpt>
      <trkpt lat="43.96832" lon="1.82113">
        <ele>236.4</ele>
        <time>2023-07-23T08:35:02Z</time>
      </trkpt>
      <trkpt lat="43.96831" lon="1.82111">
        <ele>236.8</ele>
        <time>2023-07-23T08:35:03Z</time>
      </trkpt>
      <trkpt lat="43.96831" lon="1.8211">
        <ele>236.8</ele>
        <time>2023-07-23T08:35:04Z</time>
      </trkpt>
      <trkpt lat="43.9683" lon="1.82108">
        <ele>237.2</ele>
        <time>2023-07-23T08:35:05Z</time>
      </trkpt>
      <trkpt lat="43.96829" lon="1.82107">
        <ele>237.2</ele>
        <time>2023-07-23T08:35:06Z</time>
      </trkpt>
      <trkpt lat="43.96828" lon="1.82105">
        <ele>237.2</ele>
        <time>2023-07-23T08:35:07Z</time>
      </trkpt>
      <trkpt lat="43.96827" lon="1.82104">
        <ele>237.4</ele>
        <time>2023-07-23T08:35:08Z</time>
      </trkpt>
      <trkpt lat="43.96826" lon="1.82103">
        <ele>237.6</ele>
        <time>2023-07-23T08:35:09Z</time>
      </trkpt>
      <trkpt lat="43.96826" lon="1.82102">
        <ele>237.8</ele>
        <time>2023-07-23T08:35:10Z</time>
      </trkpt>
      <trkpt lat="43.96825" lon="1.82101">
        <ele>238</ele>
        <time>2023-07-23T08:35:11Z</time>
      </trkpt>
      <trkpt lat="43.96824" lon="1.82099">
        <ele>238</ele>
        <time>2023-07-23T08:35:12Z</time>
      </trkpt>
      <trkpt lat="43.96824" lon="1.82098">
        <ele>238.2</ele>
        <time>2023-07-23T08:35:13Z</time>
      </trkpt>
      <trkpt lat="43.96823" lon="1.82097">
        <ele>238</ele>
        <time>2023-07-23T08:35:14Z</time>
      </trkpt>
      <trkpt lat="43.96823" lon="1.82096">
        <ele>238.2</ele>
        <time>2023-07-23T08:35:15Z</time>
      </trkpt>
      <trkpt lat="43.96822" lon="1.82095">
        <ele>238.4</ele>
        <time>2023-07-23T08:35:16Z</time>
      </trkpt>
      <trkpt lat="43.96822" lon="1.82093">
        <ele>238.8</ele>
        <time>2023-07-23T08:35:17Z</time>
      </trkpt>
      <trkpt lat="43.96821" lon="1.82092">
        <ele>238.6</ele>
        <time>2023-07-23T08:35:18Z</time>
      </trkpt>
      <trkpt lat="43.96821" lon="1.82091">
        <ele>238.6</ele>
        <time>2023-07-23T08:35:19Z</time>
      </trkpt>
      <trkpt lat="43.9682" lon="1.8209">
        <ele>238.8</ele>
        <time>2023-07-23T08:35:20Z</time>
      </trkpt>
      <trkpt lat="43.9682" lon="1.82089">
        <ele>239.2</ele>
        <time>2023-07-23T08:35:21Z</time>
      </trkpt>
      <trkpt lat="43.96819" lon="1.82088">
        <ele>239</ele>
        <time>2023-07-23T08:35:22Z</time>
      </trkpt>
      <trkpt lat="43.96818" lon="1.82086">
        <ele>239.6</ele>
        <time>2023-07-23T08:35:23Z</time>
      </trkpt>
      <trkpt lat="43.96817" lon="1.82085">
        <ele>239.4</ele>
        <time>2023-07-23T08:35:24Z</time>
      </trkpt>
      <trkpt lat="43.96817" lon="1.82084">
        <ele>239.6</ele>
        <time>2023-07-23T08:35:25Z</time>
      </trkpt>
      <trkpt lat="43.96816" lon="1.82083">
        <ele>239.8</ele>
        <time>2023-07-23T08:35:26Z</time>
      </trkpt>
      <trkpt lat="43.96816" lon="1.82082">
        <ele>240</ele>
        <time>2023-07-23T08:35:27Z</time>
      </trkpt>
      <trkpt lat="43.96815" lon="1.82081">
        <ele>240.2</ele>
        <time>2023-07-23T08:35:28Z</time>
      </trkpt>
      <trkpt lat="43.96814" lon="1.8208">
        <ele>240.4</ele>
        <time>2023-07-23T08:35:29Z</time>
      </trkpt>
      <trkpt lat="43.96814" lon="1.82079">
        <ele>240.6</ele>
        <time>2023-07-23T08:35:30Z</time>
      </trkpt>
      <trkpt lat="43.96813" lon="1.82078">
        <ele>240.6</ele>
        <time>2023-07-23T08:35:31Z</time>
      </trkpt>
      <trkpt lat="43.96813" lon="1.82077">
        <ele>240.8</ele>
        <time>2023-07-23T08:35:32Z</time>
      </trkpt>
      <trkpt lat="43.96812" lon="1.82075">
        <ele>241</ele>
        <time>2023-07-23T08:35:33Z</time>
      </trkpt>
      <trkpt lat="43.96811" lon="1.82074">
        <ele>241.2</ele>
        <time>2023-07-23T08:35:34Z</time>
      </trkpt>
      <trkpt lat="43.9681" lon="1.82073">
        <ele>241.4</ele>
        <time>2023-07-23T08:35:35Z</time>
      </trkpt>
      <trkpt lat="43.9681" lon="1.82072">
        <ele>241.4</ele>
        <time>2023-07-23T08:35:36Z</time>
      </trkpt>
      <trkpt lat="43.96809" lon="1.82071">
        <ele>241.6</ele>
        <time>2023-07-23T08:35:37Z</time>
      </trkpt>
      <trkpt lat="43.96808" lon="1.8207">
        <ele>241.8</ele>
        <time>2023-07-23T08:35:38Z</time>
      </trkpt>
      <trkpt lat="43.96808" lon="1.82069">
        <ele>242</ele>
        <time>2023-07-23T08:35:39Z</time>
      </trkpt>
      <trkpt lat="43.96807" lon="1.82068">
        <ele>242</ele>
        <time>2023-07-23T08:35:40Z</time>
      </trkpt>
      <trkpt lat="43.96807" lon="1.82067">
        <ele>242.2</ele>
        <time>2023-07-23T08:35:41Z</time>
      </trkpt>
      <trkpt lat="43.96806" lon="1.82066">
        <ele>242.4</ele>
        <time>2023-07-23T08:35:42Z</time>
      </trkpt>
      <trkpt lat="43.96805" lon="1.82065">
        <ele>242.4</ele>
        <time>2023-07-23T08:35:43Z</time>
      </trkpt>
      <trkpt lat="43.96805" lon="1.82064">
        <ele>242.8</ele>
        <time>2023-07-23T08:35:44Z</time>
      </trkpt>
      <trkpt lat="43.96804" lon="1.82063">
        <ele>243</ele>
        <time>2023-07-23T08:35:45Z</time>
      </trkpt>
      <trkpt lat="43.96804" lon="1.82062">
        <ele>243.4</ele>
        <time>2023-07-23T08:35:46Z</time>
      </trkpt>
      <trkpt lat="43.96803" lon="1.82061">
        <ele>243.4</ele>
        <time>2023-07-23T08:35:47Z</time>
      </trkpt>
      <trkpt lat="43.96802" lon="1.8206">
        <ele>243.6</ele>
        <time>2023-07-23T08:35:48Z</time>
      </trkpt>
      <trkpt lat="43.96802" lon="1.82059">
        <ele>243.8</ele>
        <time>2023-07-23T08:35:49Z</time>
      </trkpt>
      <trkpt lat="43.96801" lon="1.82058">
        <ele>244</ele>
        <time>2023-07-23T08:35:50Z</time>
      </trkpt>
      <trkpt lat="43.96801" lon="1.82057">
        <ele>244.2</ele>
        <time>2023-07-23T08:35:51Z</time>
      </trkpt>
      <trkpt lat="43.968" lon="1.82056">
        <ele>244.4</ele>
        <time>2023-07-23T08:35:52Z</time>
      </trkpt>
      <trkpt lat="43.96799" lon="1.82055">
        <ele>244.6</ele>
        <time>2023-07-23T08:35:53Z</time>
      </trkpt>
      <trkpt lat="43.96799" lon="1.82054">
        <ele>244.6</ele>
        <time>2023-07-23T08:35:54Z</time>
      </trkpt>
      <trkpt lat="43.96798" lon="1.82054">
        <ele>245</ele>
        <time>2023-07-23T08:35:55Z</time>
      </trkpt>
      <trkpt lat="43.96797" lon="1.82053">
        <ele>245.2</ele>
        <time>2023-07-23T08:35:56Z</time>
      </trkpt>
      <trkpt lat="43.96797" lon="1.82052">
        <ele>245.4</ele>
        <time>2023-07-23T08:35:57Z</time>
      </trkpt>
      <trkpt lat="43.96796" lon="1.82051">
        <ele>245.6</ele>
        <time>2023-07-23T08:35:58Z</time>
      </trkpt>
      <trkpt lat="43.96796" lon="1.8205">
        <ele>245.8</ele>
        <time>2023-07-23T08:35:59Z</time>
      </trkpt>
      <trkpt lat="43.96795" lon="1.82049">
        <ele>246</ele>
        <time>2023-07-23T08:36:00Z</time>
      </trkpt>
      <trkpt lat="43.96795" lon="1.82048">
        <ele>246</ele>
        <time>2023-07-23T08:36:01Z</time>
      </trkpt>
      <trkpt lat="43.96795" lon="1.82047">
        <ele>246.2</ele>
        <time>2023-07-23T08:36:02Z</time>
      </trkpt>
      <trkpt lat="43.96795" lon="1.82047">
        <ele>246.4</ele>
        <time>2023-07-23T08:36:03Z</time>
      </trkpt>
      <trkpt lat="43.96793" lon="1.82046">
        <ele>246.8</ele>
        <time>2023-07-23T08:36:04Z</time>
      </trkpt>
      <trkpt lat="43.96792" lon="1.82045">
        <ele>246.8</ele>
        <time>2023-07-23T08:36:05Z</time>
      </trkpt>
      <trkpt lat="43.96792" lon="1.82044">
        <ele>247.2</ele>
        <time>2023-07-23T08:36:06Z</time>
      </trkpt>
      <trkpt lat="43.96792" lon="1.82043">
        <ele>247.4</ele>
        <time>2023-07-23T08:36:07Z</time>
      </trkpt>
      <trkpt lat="43.96791" lon="1.82042">
        <ele>247.4</ele>
        <time>2023-07-23T08:36:08Z</time>
      </trkpt>
      <trkpt lat="43.9679" lon="1.82041">
        <ele>247.8</ele>
        <time>2023-07-23T08:36:09Z</time>
      </trkpt>
      <trkpt lat="43.9679" lon="1.8204">
        <ele>247.8</ele>
        <time>2023-07-23T08:36:10Z</time>
      </trkpt>
      <trkpt lat="43.96789" lon="1.82039">
        <ele>248.2</ele>
        <time>2023-07-23T08:36:11Z</time>
      </trkpt>
      <trkpt lat="43.96789" lon="1.82038">
        <ele>248.4</ele>
        <time>2023-07-23T08:36:12Z</time>
      </trkpt>
      <trkpt lat="43.96788" lon="1.82037">
        <ele>248.6</ele>
        <time>2023-07-23T08:36:13Z</time>
      </trkpt>
      <trkpt lat="43.96788" lon="1.82036">
        <ele>248.8</ele>
        <time>2023-07-23T08:36:14Z</time>
      </trkpt>
      <trkpt lat="43.96787" lon="1.82035">
        <ele>249.2</ele>
        <time>2023-07-23T08:36:15Z</time>
      </trkpt>
      <trkpt lat="43.96787" lon="1.82034">
        <ele>249.4</ele>
        <time>2023-07-23T08:36:16Z</time>
      </trkpt>
      <trkpt lat="43.96786" lon="1.82033">
        <ele>249.4</ele>
        <time>2023-07-23T08:36:17Z</time>
      </trkpt>
      <trkpt lat="43.96786" lon="1.82032">
        <ele>249.6</ele>
        <time>2023-07-23T08:36:18Z</time>
      </trkpt>
      <trkpt lat="43.96785" lon="1.8203">
        <ele>249.6</ele>
        <time>2023-07-23T08:36:19Z</time>
      </trkpt>
      <trkpt lat="43.96785" lon="1.82029">
        <ele>250</ele>
        <time>2023-07-23T08:36:20Z</time>
      </trkpt>
      <trkpt lat="43.96784" lon="1.82029">
        <ele>250.2</ele>
        <time>2023-07-23T08:36:21Z</time>
      </trkpt>
      <trkpt lat="43.96784" lon="1.82028">
        <ele>250.2</ele>
        <time>2023-07-23T08:36:22Z</time>
      </trkpt>
      <trkpt lat="43.96783" lon="1.82027">
        <ele>250.6</ele>
        <time>2023-07-23T08:36:23Z</time>
      </trkpt>
      <trkpt lat="43.96783" lon="1.82026">
        <ele>250.6</ele>
        <time>2023-07-23T08:36:24Z</time>
      </trkpt>
      <trkpt lat="43.96782" lon="1.82026">
        <ele>251</ele>
        <time>2023-07-23T08:36:25Z</time>
      </trkpt>
      <trkpt lat="43.96782" lon="1.82025">
        <ele>251.2</ele>
        <time>2023-07-23T08:36:26Z</time>
      </trkpt>
      <trkpt lat="43.96781" lon="1.82024">
        <ele>251.4</ele>
        <time>2023-07-23T08:36:27Z</time>
      </trkpt>
      <trkpt lat="43.96781" lon="1.82022">
        <ele>251.6</ele>
        <time>2023-07-23T08:36:28Z</time>
      </trkpt>
      <trkpt lat="43.9678" lon="1.82021">
        <ele>251.8</ele>
        <time>2023-07-23T08:36:29Z</time>
      </trkpt>
      <trkpt lat="43.9678" lon="1.8202">
        <ele>252</ele>
        <time>2023-07-23T08:36:30Z</time>
      </trkpt>
      <trkpt lat="43.96779" lon="1.8202">
        <ele>252.2</ele>
        <time>2023-07-23T08:36:31Z</time>
      </trkpt>
      <trkpt lat="43.96779" lon="1.8202">
        <ele>252.4</ele>
        <time>2023-07-23T08:36:32Z</time>
      </trkpt>
      <trkpt lat="43.96778" lon="1.82018">
        <ele>252.6</ele>
        <time>2023-07-23T08:36:33Z</time>
      </trkpt>
      <trkpt lat="43.96778" lon="1.82016">
        <ele>252.8</ele>
        <time>2023-07-23T08:36:34Z</time>
      </trkpt>
      <trkpt lat="43.96777" lon="1.82016">
        <ele>252.8</ele>
        <time>2023-07-23T08:36:35Z</time>
      </trkpt>
      <trkpt lat="43.96776" lon="1.82015">
        <ele>253.2</ele>
        <time>2023-07-23T08:36:36Z</time>
      </trkpt>
      <trkpt lat="43.96776" lon="1.82014">
        <ele>253.2</ele>
        <time>2023-07-23T08:36:37Z</time>
      </trkpt>
      <trkpt lat="43.96776" lon="1.82014">
        <ele>253.4</ele>
        <time>2023-07-23T08:36:38Z</time>
      </trkpt>
      <trkpt lat="43.96774" lon="1.82012">
        <ele>253.6</ele>
        <time>2023-07-23T08:36:39Z</time>
      </trkpt>
      <trkpt lat="43.96773" lon="1.82011">
        <ele>254</ele>
        <time>2023-07-23T08:36:40Z</time>
      </trkpt>
      <trkpt lat="43.96772" lon="1.82011">
        <ele>254.2</ele>
        <time>2023-07-23T08:36:41Z</time>
      </trkpt>
      <trkpt lat="43.96772" lon="1.82009">
        <ele>254.4</ele>
        <time>2023-07-23T08:36:42Z</time>
      </trkpt>
      <trkpt lat="43.96771" lon="1.82008">
        <ele>254.8</ele>
        <time>2023-07-23T08:36:43Z</time>
      </trkpt>
      <trkpt lat="43.96771" lon="1.82007">
        <ele>254.8</ele>
        <time>2023-07-23T08:36:44Z</time>
      </trkpt>
      <trkpt lat="43.9677" lon="1.82006">
        <ele>255.2</ele>
        <time>2023-07-23T08:36:45Z</time>
      </trkpt>
      <trkpt lat="43.96769" lon="1.82004">
        <ele>255.6</ele>
        <time>2023-07-23T08:36:46Z</time>
      </trkpt>
      <trkpt lat="43.96768" lon="1.82003">
        <ele>256</ele>
        <time>2023-07-23T08:36:47Z</time>
      </trkpt>
      <trkpt lat="43.96768" lon="1.82002">
        <ele>256.2</ele>
        <time>2023-07-23T08:36:48Z</time>
      </trkpt>
      <trkpt lat="43.96767" lon="1.82001">
        <ele>256.4</ele>
        <time>2023-07-23T08:36:49Z</time>
      </trkpt>
      <trkpt lat="43.96766" lon="1.82">
        <ele>256.6</ele>
        <time>2023-07-23T08:36:50Z</time>
      </trkpt>
      <trkpt lat="43.96764" lon="1.82">
        <ele>256.6</ele>
        <time>2023-07-23T08:36:51Z</time>
      </trkpt>
      <trkpt lat="43.96763" lon="1.82">
        <ele>256.8</ele>
        <time>2023-07-23T08:36:52Z</time>
      </trkpt>
      <trkpt lat="43.96762" lon="1.82">
        <ele>256.8</ele>
        <time>2023-07-23T08:36:53Z</time>
      </trkpt>
      <trkpt lat="43.96761" lon="1.81999">
        <ele>257.2</ele>
        <time>2023-07-23T08:36:54Z</time>
      </trkpt>
      <trkpt lat="43.96759" lon="1.81999">
        <ele>257.6</ele>
        <time>2023-07-23T08:36:55Z</time>
      </trkpt>
      <trkpt lat="43.96758" lon="1.81999">
        <ele>258.2</ele>
        <time>2023-07-23T08:36:56Z</time>
      </trkpt>
      <trkpt lat="43.96758" lon="1.81999">
        <ele>258.6</ele>
        <time>2023-07-23T08:36:57Z</time>
      </trkpt>
      <trkpt lat="43.96756" lon="1.81998">
        <ele>258.6</ele>
        <time>2023-07-23T08:36:58Z</time>
      </trkpt>
      <trkpt lat="43.96754" lon="1.81998">
        <ele>259</ele>
        <time>2023-07-23T08:36:59Z</time>
      </trkpt>
      <trkpt lat="43.96753" lon="1.81998">
        <ele>259.2</ele>
        <time>2023-07-23T08:37:00Z</time>
      </trkpt>
      <trkpt lat="43.96753" lon="1.81998">
        <ele>259.8</ele>
        <time>2023-07-23T08:37:01Z</time>
      </trkpt>
      <trkpt lat="43.96751" lon="1.81998">
        <ele>260</ele>
        <time>2023-07-23T08:37:02Z</time>
      </trkpt>
      <trkpt lat="43.96749" lon="1.81997">
        <ele>260.4</ele>
        <time>2023-07-23T08:37:03Z</time>
      </trkpt>
      <trkpt lat="43.96748" lon="1.81996">
        <ele>260.4</ele>
        <time>2023-07-23T08:37:04Z</time>
      </trkpt>
      <trkpt lat="43.96747" lon="1.81996">
        <ele>260.8</ele>
        <time>2023-07-23T08:37:05Z</time>
      </trkpt>
      <trkpt lat="43.96746" lon="1.81996">
        <ele>261.4</ele>
        <time>2023-07-23T08:37:06Z</time>
      </trkpt>
      <trkpt lat="43.96745" lon="1.81996">
        <ele>261.6</ele>
        <time>2023-07-23T08:37:07Z</time>
      </trkpt>
      <trkpt lat="43.96744" lon="1.81995">
        <ele>262</ele>
        <time>2023-07-23T08:37:08Z</time>
      </trkpt>
      <trkpt lat="43.96743" lon="1.81994">
        <ele>262.4</ele>
        <time>2023-07-23T08:37:09Z</time>
      </trkpt>
      <trkpt lat="43.96742" lon="1.81994">
        <ele>263</ele>
        <time>2023-07-23T08:37:10Z</time>
      </trkpt>
      <trkpt lat="43.96741" lon="1.81993">
        <ele>263</ele>
        <time>2023-07-23T08:37:11Z</time>
      </trkpt>
      <trkpt lat="43.9674" lon="1.81993">
        <ele>263.6</ele>
        <time>2023-07-23T08:37:12Z</time>
      </trkpt>
      <trkpt lat="43.96739" lon="1.81992">
        <ele>263.6</ele>
        <time>2023-07-23T08:37:13Z</time>
      </trkpt>
      <trkpt lat="43.96738" lon="1.81992">
        <ele>264</ele>
        <time>2023-07-23T08:37:14Z</time>
      </trkpt>
      <trkpt lat="43.96736" lon="1.81992">
        <ele>264.2</ele>
        <time>2023-07-23T08:37:15Z</time>
      </trkpt>
      <trkpt lat="43.96735" lon="1.81992">
        <ele>264.2</ele>
        <time>2023-07-23T08:37:16Z</time>
      </trkpt>
      <trkpt lat="43.96734" lon="1.81991">
        <ele>264.6</ele>
        <time>2023-07-23T08:37:17Z</time>
      </trkpt>
      <trkpt lat="43.96733" lon="1.81991">
        <ele>264.8</ele>
        <time>2023-07-23T08:37:18Z</time>
      </trkpt>
      <trkpt lat="43.96732" lon="1.81991">
        <ele>265.4</ele>
        <time>2023-07-23T08:37:19Z</time>
      </trkpt>
      <trkpt lat="43.96731" lon="1.8199">
        <ele>265.6</ele>
        <time>2023-07-23T08:37:20Z</time>
      </trkpt>
      <trkpt lat="43.9673" lon="1.8199">
        <ele>265.8</ele>
        <time>2023-07-23T08:37:21Z</time>
      </trkpt>
      <trkpt lat="43.9673" lon="1.81989">
        <ele>266.2</ele>
        <time>2023-07-23T08:37:22Z</time>
      </trkpt>
      <trkpt lat="43.96729" lon="1.81988">
        <ele>266.4</ele>
        <time>2023-07-23T08:37:23Z</time>
      </trkpt>
      <trkpt lat="43.96728" lon="1.81988">
        <ele>266.8</ele>
        <time>2023-07-23T08:37:24Z</time>
      </trkpt>
      <trkpt lat="43.96726" lon="1.81988">
        <ele>267</ele>
        <time>2023-07-23T08:37:25Z</time>
      </trkpt>
      <trkpt lat="43.96725" lon="1.81988">
        <ele>267.4</ele>
        <time>2023-07-23T08:37:26Z</time>
      </trkpt>
      <trkpt lat="43.96724" lon="1.81988">
        <ele>267.6</ele>
        <time>2023-07-23T08:37:27Z</time>
      </trkpt>
      <trkpt lat="43.96723" lon="1.81988">
        <ele>268</ele>
        <time>2023-07-23T08:37:28Z</time>
      </trkpt>
      <trkpt lat="43.96722" lon="1.81988">
        <ele>268.2</ele>
        <time>2023-07-23T08:37:29Z</time>
      </trkpt>
      <trkpt lat="43.96721" lon="1.81988">
        <ele>268.6</ele>
        <time>2023-07-23T08:37:30Z</time>
      </trkpt>
      <trkpt lat="43.9672" lon="1.81987">
        <ele>269</ele>
        <time>2023-07-23T08:37:31Z</time>
      </trkpt>
      <trkpt lat="43.96719" lon="1.81987">
        <ele>269</ele>
        <time>2023-07-23T08:37:32Z</time>
      </trkpt>
      <trkpt lat="43.96718" lon="1.81987">
        <ele>269.4</ele>
        <time>2023-07-23T08:37:33Z</time>
      </trkpt>
      <trkpt lat="43.96717" lon="1.81986">
        <ele>269.6</ele>
        <time>2023-07-23T08:37:34Z</time>
      </trkpt>
      <trkpt lat="43.96716" lon="1.81986">
        <ele>270.2</ele>
        <time>2023-07-23T08:37:35Z</time>
      </trkpt>
      <trkpt lat="43.96715" lon="1.81985">
        <ele>270.2</ele>
        <time>2023-07-23T08:37:36Z</time>
      </trkpt>
      <trkpt lat="43.96713" lon="1.81984">
        <ele>270.8</ele>
        <time>2023-07-23T08:37:37Z</time>
      </trkpt>
      <trkpt lat="43.96712" lon="1.81984">
        <ele>271</ele>
        <time>2023-07-23T08:37:38Z</time>
      </trkpt>
      <trkpt lat="43.96711" lon="1.81985">
        <ele>271.4</ele>
        <time>2023-07-23T08:37:39Z</time>
      </trkpt>
      <trkpt lat="43.9671" lon="1.81985">
        <ele>271.4</ele>
        <time>2023-07-23T08:37:40Z</time>
      </trkpt>
      <trkpt lat="43.96709" lon="1.81985">
        <ele>271.6</ele>
        <time>2023-07-23T08:37:41Z</time>
      </trkpt>
      <trkpt lat="43.96708" lon="1.81984">
        <ele>272.2</ele>
        <time>2023-07-23T08:37:42Z</time>
      </trkpt>
      <trkpt lat="43.96707" lon="1.81983">
        <ele>272.4</ele>
        <time>2023-07-23T08:37:43Z</time>
      </trkpt>
      <trkpt lat="43.96706" lon="1.81982">
        <ele>272.8</ele>
        <time>2023-07-23T08:37:44Z</time>
      </trkpt>
      <trkpt lat="43.96705" lon="1.81982">
        <ele>272.8</ele>
        <time>2023-07-23T08:37:45Z</time>
      </trkpt>
      <trkpt lat="43.96704" lon="1.81982">
        <ele>273</ele>
        <time>2023-07-23T08:37:46Z</time>
      </trkpt>
      <trkpt lat="43.96703" lon="1.81983">
        <ele>273.6</ele>
        <time>2023-07-23T08:37:47Z</time>
      </trkpt>
      <trkpt lat="43.96701" lon="1.81984">
        <ele>273.8</ele>
        <time>2023-07-23T08:37:48Z</time>
      </trkpt>
      <trkpt lat="43.96701" lon="1.81984">
        <ele>274</ele>
        <time>2023-07-23T08:37:49Z</time>
      </trkpt>
      <trkpt lat="43.967" lon="1.81984">
        <ele>274.2</ele>
        <time>2023-07-23T08:37:50Z</time>
      </trkpt>
      <trkpt lat="43.96699" lon="1.81985">
        <ele>274.6</ele>
        <time>2023-07-23T08:37:51Z</time>
      </trkpt>
      <trkpt lat="43.96699" lon="1.81985">
        <ele>274.6</ele>
        <time>2023-07-23T08:37:52Z</time>
      </trkpt>
      <trkpt lat="43.96698" lon="1.81986">
        <ele>275</ele>
        <time>2023-07-23T08:37:53Z</time>
      </trkpt>
      <trkpt lat="43.96697" lon="1.81987">
        <ele>275</ele>
        <time>2023-07-23T08:37:54Z</time>
      </trkpt>
      <trkpt lat="43.96696" lon="1.81988">
        <ele>275.4</ele>
        <time>2023-07-23T08:37:55Z</time>
      </trkpt>
      <trkpt lat="43.96696" lon="1.81988">
        <ele>275.6</ele>
        <time>2023-07-23T08:37:56Z</time>
      </trkpt>
      <trkpt lat="43.96696" lon="1.81989">
        <ele>275.6</ele>
        <time>2023-07-23T08:37:57Z</time>
      </trkpt>
      <trkpt lat="43.96695" lon="1.81989">
        <ele>276</ele>
        <time>2023-07-23T08:37:58Z</time>
      </trkpt>
      <trkpt lat="43.96695" lon="1.8199">
        <ele>276.2</ele>
        <time>2023-07-23T08:37:59Z</time>
      </trkpt>
      <trkpt lat="43.96694" lon="1.8199">
        <ele>276.4</ele>
        <time>2023-07-23T08:38:00Z</time>
      </trkpt>
      <trkpt lat="43.96693" lon="1.8199">
        <ele>276.4</ele>
        <time>2023-07-23T08:38:01Z</time>
      </trkpt>
      <trkpt lat="43.96692" lon="1.81989">
        <ele>276.6</ele>
        <time>2023-07-23T08:38:02Z</time>
      </trkpt>
      <trkpt lat="43.96692" lon="1.81989">
        <ele>276.6</ele>
        <time>2023-07-23T08:38:03Z</time>
      </trkpt>
      <trkpt lat="43.96691" lon="1.81988">
        <ele>276.8</ele>
        <time>2023-07-23T08:38:04Z</time>
      </trkpt>
      <trkpt lat="43.96691" lon="1.81987">
        <ele>276.8</ele>
        <time>2023-07-23T08:38:05Z</time>
      </trkpt>
      <trkpt lat="43.96691" lon="1.81987">
        <ele>277</ele>
        <time>2023-07-23T08:38:06Z</time>
      </trkpt>
      <trkpt lat="43.96691" lon="1.81985">
        <ele>277.2</ele>
        <time>2023-07-23T08:38:07Z</time>
      </trkpt>
      <trkpt lat="43.96692" lon="1.81983">
        <ele>277.4</ele>
        <time>2023-07-23T08:38:08Z</time>
      </trkpt>
      <trkpt lat="43.96692" lon="1.81982">
        <ele>277.6</ele>
        <time>2023-07-23T08:38:09Z</time>
      </trkpt>
      <trkpt lat="43.96693" lon="1.81981">
        <ele>277.6</ele>
        <time>2023-07-23T08:38:10Z</time>
      </trkpt>
      <trkpt lat="43.96693" lon="1.8198">
        <ele>277.8</ele>
        <time>2023-07-23T08:38:11Z</time>
      </trkpt>
      <trkpt lat="43.96694" lon="1.81979">
        <ele>277.8</ele>
        <time>2023-07-23T08:38:12Z</time>
      </trkpt>
      <trkpt lat="43.96695" lon="1.81979">
        <ele>277.8</ele>
        <time>2023-07-23T08:38:13Z</time>
      </trkpt>
      <trkpt lat="43.96695" lon="1.81978">
        <ele>278</ele>
        <time>2023-07-23T08:38:14Z</time>
      </trkpt>
      <trkpt lat="43.96695" lon="1.81977">
        <ele>278</ele>
        <time>2023-07-23T08:38:15Z</time>
      </trkpt>
      <trkpt lat="43.96695" lon="1.81977">
        <ele>278</ele>
        <time>2023-07-23T08:38:16Z</time>
      </trkpt>
      <trkpt lat="43.96693" lon="1.81977">
        <ele>278</ele>
        <time>2023-07-23T08:38:17Z</time>
      </trkpt>
      <trkpt lat="43.96693" lon="1.81977">
        <ele>278</ele>
        <time>2023-07-23T08:38:18Z</time>
      </trkpt>
      <trkpt lat="43.96693" lon="1.81979">
        <ele>278</ele>
        <time>2023-07-23T08:38:19Z</time>
      </trkpt>
      <trkpt lat="43.96693" lon="1.81979">
        <ele>278</ele>
        <time>2023-07-23T08:38:20Z</time>
      </trkpt>
      <trkpt lat="43.96694" lon="1.81979">
        <ele>278</ele>
        <time>2023-07-23T08:38:21Z</time>
      </trkpt>
      <trkpt lat="43.96695" lon="1.81979">
        <ele>278</ele>
        <time>2023-07-23T08:38:22Z</time>
      </trkpt>
      <trkpt lat="43.96695" lon="1.81979">
        <ele>278</ele>
        <time>2023-07-23T08:38:23Z</time>
      </trkpt>
      <trkpt lat="43.96697" lon="1.81977">
        <ele>278</ele>
        <time>2023-07-23T08:38:24Z</time>
      </trkpt>
      <trkpt lat="43.96698" lon="1.81976">
        <ele>278.2</ele>
        <time>2023-07-23T08:38:25Z</time>
      </trkpt>
      <trkpt lat="43.96698" lon="1.81974">
        <ele>278.2</ele>
        <time>2023-07-23T08:38:26Z</time>
      </trkpt>
      <trkpt lat="43.96698" lon="1.81974">
        <ele>278.2</ele>
        <time>2023-07-23T08:38:27Z</time>
      </trkpt>
      <trkpt lat="43.96698" lon="1.81973">
        <ele>278.2</ele>
        <time>2023-07-23T08:38:28Z</time>
      </trkpt>
      <trkpt lat="43.96699" lon="1.81972">
        <ele>278.4</ele>
        <time>2023-07-23T08:38:29Z</time>
      </trkpt>
      <trkpt lat="43.967" lon="1.81968">
        <ele>278.4</ele>
        <time>2023-07-23T08:38:32Z</time>
      </trkpt>
      <trkpt lat="43.96701" lon="1.81966">
        <ele>278.6</ele>
        <time>2023-07-23T08:38:33Z</time>
      </trkpt>
      <trkpt lat="43.96702" lon="1.81964">
        <ele>278.6</ele>
        <time>2023-07-23T08:38:35Z</time>
      </trkpt>
      <trkpt lat="43.96703" lon="1.81962">
        <ele>278.6</ele>
        <time>2023-07-23T08:38:36Z</time>
      </trkpt>
      <trkpt lat="43.96703" lon="1.81961">
        <ele>278.6</ele>
        <time>2023-07-23T08:38:37Z</time>
      </trkpt>
      <trkpt lat="43.96705" lon="1.81955">
        <ele>278.8</ele>
        <time>2023-07-23T08:38:41Z</time>
      </trkpt>
      <trkpt lat="43.96705" lon="1.81953">
        <ele>278.8</ele>
        <time>2023-07-23T08:38:42Z</time>
      </trkpt>
      <trkpt lat="43.96705" lon="1.81951">
        <ele>278.8</ele>
        <time>2023-07-23T08:38:44Z</time>
      </trkpt>
      <trkpt lat="43.96706" lon="1.81947">
        <ele>278.8</ele>
        <time>2023-07-23T08:38:45Z</time>
      </trkpt>
      <trkpt lat="43.96707" lon="1.81945">
        <ele>279</ele>
        <time>2023-07-23T08:38:46Z</time>
      </trkpt>
      <trkpt lat="43.96706" lon="1.81939">
        <ele>279</ele>
        <time>2023-07-23T08:38:49Z</time>
      </trkpt>
      <trkpt lat="43.96706" lon="1.81937">
        <ele>279.2</ele>
        <time>2023-07-23T08:38:50Z</time>
      </trkpt>
      <trkpt lat="43.96705" lon="1.81936">
        <ele>279.2</ele>
        <time>2023-07-23T08:38:51Z</time>
      </trkpt>
      <trkpt lat="43.96704" lon="1.81935">
        <ele>279.2</ele>
        <time>2023-07-23T08:38:52Z</time>
      </trkpt>
      <trkpt lat="43.96704" lon="1.81935">
        <ele>279.2</ele>
        <time>2023-07-23T08:38:53Z</time>
      </trkpt>
      <trkpt lat="43.96699" lon="1.81936">
        <ele>279.4</ele>
        <time>2023-07-23T08:38:56Z</time>
      </trkpt>
      <trkpt lat="43.96698" lon="1.81938">
        <ele>279.4</ele>
        <time>2023-07-23T08:38:58Z</time>
      </trkpt>
      <trkpt lat="43.96698" lon="1.81938">
        <ele>279.4</ele>
        <time>2023-07-23T08:38:59Z</time>
      </trkpt>
      <trkpt lat="43.96697" lon="1.81941">
        <ele>279.6</ele>
        <time>2023-07-23T08:39:00Z</time>
      </trkpt>
      <trkpt lat="43.96696" lon="1.81943">
        <ele>279.6</ele>
        <time>2023-07-23T08:39:01Z</time>
      </trkpt>
      <trkpt lat="43.96696" lon="1.81944">
        <ele>279.8</ele>
        <time>2023-07-23T08:39:02Z</time>
      </trkpt>
      <trkpt lat="43.96694" lon="1.81946">
        <ele>280.2</ele>
        <time>2023-07-23T08:39:04Z</time>
      </trkpt>
      <trkpt lat="43.96692" lon="1.81947">
        <ele>280.4</ele>
        <time>2023-07-23T08:39:05Z</time>
      </trkpt>
      <trkpt lat="43.96692" lon="1.81947">
        <ele>280.8</ele>
        <time>2023-07-23T08:39:06Z</time>
      </trkpt>
      <trkpt lat="43.96691" lon="1.81948">
        <ele>281</ele>
        <time>2023-07-23T08:39:07Z</time>
      </trkpt>
      <trkpt lat="43.96691" lon="1.81948">
        <ele>281.2</ele>
        <time>2023-07-23T08:39:08Z</time>
      </trkpt>
      <trkpt lat="43.96688" lon="1.81948">
        <ele>281.4</ele>
        <time>2023-07-23T08:39:09Z</time>
      </trkpt>
      <trkpt lat="43.96686" lon="1.81948">
        <ele>281.4</ele>
        <time>2023-07-23T08:39:10Z</time>
      </trkpt>
      <trkpt lat="43.96682" lon="1.81947">
        <ele>281.8</ele>
        <time>2023-07-23T08:39:14Z</time>
      </trkpt>
      <trkpt lat="43.9668" lon="1.81947">
        <ele>282</ele>
        <time>2023-07-23T08:39:15Z</time>
      </trkpt>
      <trkpt lat="43.96679" lon="1.81947">
        <ele>282.2</ele>
        <time>2023-07-23T08:39:16Z</time>
      </trkpt>
      <trkpt lat="43.96678" lon="1.81947">
        <ele>282.4</ele>
        <time>2023-07-23T08:39:17Z</time>
      </trkpt>
      <trkpt lat="43.96677" lon="1.81947">
        <ele>282.6</ele>
        <time>2023-07-23T08:39:18Z</time>
      </trkpt>
      <trkpt lat="43.96676" lon="1.81947">
        <ele>282.8</ele>
        <time>2023-07-23T08:39:19Z</time>
      </trkpt>
      <trkpt lat="43.96675" lon="1.81948">
        <ele>283.2</ele>
        <time>2023-07-23T08:39:20Z</time>
      </trkpt>
      <trkpt lat="43.96673" lon="1.81948">
        <ele>283.2</ele>
        <time>2023-07-23T08:39:21Z</time>
      </trkpt>
      <trkpt lat="43.96672" lon="1.81949">
        <ele>283.4</ele>
        <time>2023-07-23T08:39:22Z</time>
      </trkpt>
      <trkpt lat="43.9667" lon="1.81949">
        <ele>283.4</ele>
        <time>2023-07-23T08:39:23Z</time>
      </trkpt>
      <trkpt lat="43.96669" lon="1.8195">
        <ele>283.6</ele>
        <time>2023-07-23T08:39:24Z</time>
      </trkpt>
      <trkpt lat="43.96667" lon="1.8195">
        <ele>283.8</ele>
        <time>2023-07-23T08:39:25Z</time>
      </trkpt>
      <trkpt lat="43.96666" lon="1.81951">
        <ele>283.8</ele>
        <time>2023-07-23T08:39:26Z</time>
      </trkpt>
      <trkpt lat="43.96665" lon="1.81952">
        <ele>284</ele>
        <time>2023-07-23T08:39:27Z</time>
      </trkpt>
      <trkpt lat="43.96665" lon="1.81952">
        <ele>284.2</ele>
        <time>2023-07-23T08:39:28Z</time>
      </trkpt>
      <trkpt lat="43.96665" lon="1.81953">
        <ele>284.4</ele>
        <time>2023-07-23T08:39:29Z</time>
      </trkpt>
      <trkpt lat="43.96665" lon="1.81953">
        <ele>284.4</ele>
        <time>2023-07-23T08:39:30Z</time>
      </trkpt>
      <trkpt lat="43.96665" lon="1.81953">
        <ele>284.8</ele>
        <time>2023-07-23T08:39:31Z</time>
      </trkpt>
      <trkpt lat="43.96665" lon="1.81953">
        <ele>284.8</ele>
        <time>2023-07-23T08:39:32Z</time>
      </trkpt>
      <trkpt lat="43.96664" lon="1.81953">
        <ele>285</ele>
        <time>2023-07-23T08:39:33Z</time>
      </trkpt>
      <trkpt lat="43.96661" lon="1.81953">
        <ele>285</ele>
        <time>2023-07-23T08:39:34Z</time>
      </trkpt>
      <trkpt lat="43.96657" lon="1.81954">
        <ele>285.2</ele>
        <time>2023-07-23T08:39:35Z</time>
      </trkpt>
      <trkpt lat="43.96656" lon="1.81955">
        <ele>285.4</ele>
        <time>2023-07-23T08:39:36Z</time>
      </trkpt>
      <trkpt lat="43.96654" lon="1.81955">
        <ele>285.4</ele>
        <time>2023-07-23T08:39:37Z</time>
      </trkpt>
      <trkpt lat="43.96653" lon="1.81954">
        <ele>285.8</ele>
        <time>2023-07-23T08:39:38Z</time>
      </trkpt>
      <trkpt lat="43.96653" lon="1.81954">
        <ele>285.8</ele>
        <time>2023-07-23T08:39:39Z</time>
      </trkpt>
      <trkpt lat="43.96651" lon="1.81951">
        <ele>286</ele>
        <time>2023-07-23T08:39:40Z</time>
      </trkpt>
      <trkpt lat="43.9665" lon="1.81951">
        <ele>286</ele>
        <time>2023-07-23T08:39:41Z</time>
      </trkpt>
      <trkpt lat="43.96649" lon="1.8195">
        <ele>286.2</ele>
        <time>2023-07-23T08:39:42Z</time>
      </trkpt>
      <trkpt lat="43.96645" lon="1.81948">
        <ele>286.2</ele>
        <time>2023-07-23T08:39:43Z</time>
      </trkpt>
      <trkpt lat="43.96643" lon="1.81947">
        <ele>286.6</ele>
        <time>2023-07-23T08:39:44Z</time>
      </trkpt>
      <trkpt lat="43.96641" lon="1.81946">
        <ele>286.8</ele>
        <time>2023-07-23T08:39:45Z</time>
      </trkpt>
      <trkpt lat="43.96639" lon="1.81946">
        <ele>286.8</ele>
        <time>2023-07-23T08:39:46Z</time>
      </trkpt>
      <trkpt lat="43.96638" lon="1.81945">
        <ele>287</ele>
        <time>2023-07-23T08:39:47Z</time>
      </trkpt>
      <trkpt lat="43.96637" lon="1.81946">
        <ele>287.2</ele>
        <time>2023-07-23T08:39:48Z</time>
      </trkpt>
      <trkpt lat="43.96637" lon="1.81946">
        <ele>287.4</ele>
        <time>2023-07-23T08:39:49Z</time>
      </trkpt>
      <trkpt lat="43.96636" lon="1.81947">
        <ele>287.4</ele>
        <time>2023-07-23T08:39:50Z</time>
      </trkpt>
      <trkpt lat="43.96636" lon="1.81947">
        <ele>287.6</ele>
        <time>2023-07-23T08:39:51Z</time>
      </trkpt>
      <trkpt lat="43.96635" lon="1.81949">
        <ele>287.8</ele>
        <time>2023-07-23T08:39:52Z</time>
      </trkpt>
      <trkpt lat="43.96633" lon="1.8195">
        <ele>288</ele>
        <time>2023-07-23T08:39:53Z</time>
      </trkpt>
      <trkpt lat="43.96633" lon="1.8195">
        <ele>288.2</ele>
        <time>2023-07-23T08:39:54Z</time>
      </trkpt>
      <trkpt lat="43.96628" lon="1.81954">
        <ele>288.2</ele>
        <time>2023-07-23T08:39:55Z</time>
      </trkpt>
      <trkpt lat="43.96628" lon="1.81954">
        <ele>288.4</ele>
        <time>2023-07-23T08:39:56Z</time>
      </trkpt>
      <trkpt lat="43.96626" lon="1.81955">
        <ele>288.6</ele>
        <time>2023-07-23T08:39:57Z</time>
      </trkpt>
      <trkpt lat="43.96623" lon="1.81955">
        <ele>289</ele>
        <time>2023-07-23T08:39:58Z</time>
      </trkpt>
      <trkpt lat="43.9662" lon="1.81957">
        <ele>289</ele>
        <time>2023-07-23T08:39:59Z</time>
      </trkpt>
      <trkpt lat="43.96618" lon="1.81958">
        <ele>289.2</ele>
        <time>2023-07-23T08:40:00Z</time>
      </trkpt>
      <trkpt lat="43.96616" lon="1.81959">
        <ele>289.4</ele>
        <time>2023-07-23T08:40:01Z</time>
      </trkpt>
      <trkpt lat="43.96613" lon="1.8196">
        <ele>289.4</ele>
        <time>2023-07-23T08:40:02Z</time>
      </trkpt>
      <trkpt lat="43.96611" lon="1.81962">
        <ele>289.6</ele>
        <time>2023-07-23T08:40:03Z</time>
      </trkpt>
      <trkpt lat="43.96608" lon="1.81964">
        <ele>289.8</ele>
        <time>2023-07-23T08:40:04Z</time>
      </trkpt>
      <trkpt lat="43.96607" lon="1.81966">
        <ele>290</ele>
        <time>2023-07-23T08:40:05Z</time>
      </trkpt>
      <trkpt lat="43.96605" lon="1.81967">
        <ele>290</ele>
        <time>2023-07-23T08:40:06Z</time>
      </trkpt>
      <trkpt lat="43.96603" lon="1.81968">
        <ele>290.2</ele>
        <time>2023-07-23T08:40:07Z</time>
      </trkpt>
      <trkpt lat="43.96601" lon="1.8197">
        <ele>290.2</ele>
        <time>2023-07-23T08:40:08Z</time>
      </trkpt>
      <trkpt lat="43.96599" lon="1.81972">
        <ele>290.4</ele>
        <time>2023-07-23T08:40:09Z</time>
      </trkpt>
      <trkpt lat="43.96597" lon="1.81974">
        <ele>290.4</ele>
        <time>2023-07-23T08:40:10Z</time>
      </trkpt>
      <trkpt lat="43.96596" lon="1.81977">
        <ele>290.4</ele>
        <time>2023-07-23T08:40:11Z</time>
      </trkpt>
      <trkpt lat="43.96596" lon="1.81977">
        <ele>290.6</ele>
        <time>2023-07-23T08:40:12Z</time>
      </trkpt>
      <trkpt lat="43.96594" lon="1.81983">
        <ele>290.6</ele>
        <time>2023-07-23T08:40:13Z</time>
      </trkpt>
      <trkpt lat="43.96592" lon="1.81985">
        <ele>291</ele>
        <time>2023-07-23T08:40:14Z</time>
      </trkpt>
      <trkpt lat="43.9659" lon="1.81988">
        <ele>291</ele>
        <time>2023-07-23T08:40:15Z</time>
      </trkpt>
      <trkpt lat="43.96589" lon="1.81991">
        <ele>291.2</ele>
        <time>2023-07-23T08:40:16Z</time>
      </trkpt>
      <trkpt lat="43.96588" lon="1.81992">
        <ele>291.2</ele>
        <time>2023-07-23T08:40:17Z</time>
      </trkpt>
      <trkpt lat="43.96588" lon="1.81992">
        <ele>291.2</ele>
        <time>2023-07-23T08:40:18Z</time>
      </trkpt>
      <trkpt lat="43.96588" lon="1.81994">
        <ele>291.4</ele>
        <time>2023-07-23T08:40:19Z</time>
      </trkpt>
      <trkpt lat="43.96588" lon="1.81994">
        <ele>291.4</ele>
        <time>2023-07-23T08:40:20Z</time>
      </trkpt>
      <trkpt lat="43.96584" lon="1.81994">
        <ele>291.6</ele>
        <time>2023-07-23T08:40:22Z</time>
      </trkpt>
      <trkpt lat="43.96584" lon="1.81994">
        <ele>291.6</ele>
        <time>2023-07-23T08:40:23Z</time>
      </trkpt>
      <trkpt lat="43.96584" lon="1.81994">
        <ele>291.6</ele>
        <time>2023-07-23T08:40:24Z</time>
      </trkpt>
      <trkpt lat="43.96569" lon="1.82032">
        <ele>291.6</ele>
        <time>2023-07-23T08:41:03Z</time>
      </trkpt>
      <trkpt lat="43.96567" lon="1.82038">
        <ele>291.4</ele>
        <time>2023-07-23T08:41:04Z</time>
      </trkpt>
      <trkpt lat="43.96553" lon="1.82062">
        <ele>290.8</ele>
        <time>2023-07-23T08:41:08Z</time>
      </trkpt>
      <trkpt lat="43.96549" lon="1.82069">
        <ele>290.2</ele>
        <time>2023-07-23T08:41:10Z</time>
      </trkpt>
      <trkpt lat="43.96547" lon="1.82071">
        <ele>289.8</ele>
        <time>2023-07-23T08:41:11Z</time>
      </trkpt>
      <trkpt lat="43.96545" lon="1.82075">
        <ele>289.6</ele>
        <time>2023-07-23T08:41:12Z</time>
      </trkpt>
      <trkpt lat="43.96545" lon="1.82075">
        <ele>289.2</ele>
        <time>2023-07-23T08:41:13Z</time>
      </trkpt>
      <trkpt lat="43.96545" lon="1.82075">
        <ele>289</ele>
        <time>2023-07-23T08:41:14Z</time>
      </trkpt>
      <trkpt lat="43.96544" lon="1.82075">
        <ele>288.4</ele>
        <time>2023-07-23T08:41:15Z</time>
      </trkpt>
      <trkpt lat="43.96543" lon="1.82077">
        <ele>288</ele>
        <time>2023-07-23T08:41:16Z</time>
      </trkpt>
      <trkpt lat="43.96543" lon="1.82083">
        <ele>287.4</ele>
        <time>2023-07-23T08:41:18Z</time>
      </trkpt>
      <trkpt lat="43.96545" lon="1.82087">
        <ele>287.2</ele>
        <time>2023-07-23T08:41:19Z</time>
      </trkpt>
      <trkpt lat="43.96547" lon="1.82093">
        <ele>286.8</ele>
        <time>2023-07-23T08:41:20Z</time>
      </trkpt>
      <trkpt lat="43.96549" lon="1.82099">
        <ele>286.6</ele>
        <time>2023-07-23T08:41:21Z</time>
      </trkpt>
      <trkpt lat="43.96551" lon="1.82105">
        <ele>285.8</ele>
        <time>2023-07-23T08:41:22Z</time>
      </trkpt>
      <trkpt lat="43.96551" lon="1.82109">
        <ele>285.6</ele>
        <time>2023-07-23T08:41:23Z</time>
      </trkpt>
      <trkpt lat="43.96551" lon="1.82113">
        <ele>285</ele>
        <time>2023-07-23T08:41:24Z</time>
      </trkpt>
      <trkpt lat="43.96548" lon="1.82115">
        <ele>283.8</ele>
        <time>2023-07-23T08:41:25Z</time>
      </trkpt>
      <trkpt lat="43.96545" lon="1.82113">
        <ele>283.4</ele>
        <time>2023-07-23T08:41:26Z</time>
      </trkpt>
      <trkpt lat="43.96542" lon="1.82109">
        <ele>282</ele>
        <time>2023-07-23T08:41:27Z</time>
      </trkpt>
      <trkpt lat="43.96534" lon="1.82099">
        <ele>280.4</ele>
        <time>2023-07-23T08:41:29Z</time>
      </trkpt>
      <trkpt lat="43.9653" lon="1.82094">
        <ele>280.2</ele>
        <time>2023-07-23T08:41:30Z</time>
      </trkpt>
      <trkpt lat="43.96526" lon="1.82089">
        <ele>279.8</ele>
        <time>2023-07-23T08:41:31Z</time>
      </trkpt>
      <trkpt lat="43.96521" lon="1.82085">
        <ele>279.4</ele>
        <time>2023-07-23T08:41:32Z</time>
      </trkpt>
      <trkpt lat="43.96517" lon="1.82081">
        <ele>278.2</ele>
        <time>2023-07-23T08:41:33Z</time>
      </trkpt>
      <trkpt lat="43.96513" lon="1.82078">
        <ele>277.6</ele>
        <time>2023-07-23T08:41:34Z</time>
      </trkpt>
      <trkpt lat="43.9651" lon="1.82076">
        <ele>277.4</ele>
        <time>2023-07-23T08:41:35Z</time>
      </trkpt>
      <trkpt lat="43.96506" lon="1.82073">
        <ele>277</ele>
        <time>2023-07-23T08:41:36Z</time>
      </trkpt>
      <trkpt lat="43.96503" lon="1.82073">
        <ele>276.6</ele>
        <time>2023-07-23T08:41:37Z</time>
      </trkpt>
      <trkpt lat="43.96498" lon="1.82074">
        <ele>275.6</ele>
        <time>2023-07-23T08:41:38Z</time>
      </trkpt>
      <trkpt lat="43.96494" lon="1.82078">
        <ele>275.2</ele>
        <time>2023-07-23T08:41:39Z</time>
      </trkpt>
      <trkpt lat="43.96492" lon="1.82085">
        <ele>274.4</ele>
        <time>2023-07-23T08:41:40Z</time>
      </trkpt>
      <trkpt lat="43.96489" lon="1.82094">
        <ele>274</ele>
        <time>2023-07-23T08:41:41Z</time>
      </trkpt>
      <trkpt lat="43.96485" lon="1.82103">
        <ele>274</ele>
        <time>2023-07-23T08:41:42Z</time>
      </trkpt>
      <trkpt lat="43.96481" lon="1.82112">
        <ele>273.4</ele>
        <time>2023-07-23T08:41:43Z</time>
      </trkpt>
      <trkpt lat="43.96478" lon="1.82119">
        <ele>273.4</ele>
        <time>2023-07-23T08:41:44Z</time>
      </trkpt>
      <trkpt lat="43.96474" lon="1.82125">
        <ele>273</ele>
        <time>2023-07-23T08:41:45Z</time>
      </trkpt>
      <trkpt lat="43.96464" lon="1.82138">
        <ele>272.4</ele>
        <time>2023-07-23T08:41:47Z</time>
      </trkpt>
      <trkpt lat="43.96461" lon="1.82143">
        <ele>272</ele>
        <time>2023-07-23T08:41:48Z</time>
      </trkpt>
      <trkpt lat="43.96452" lon="1.82157">
        <ele>271</ele>
        <time>2023-07-23T08:41:50Z</time>
      </trkpt>
      <trkpt lat="43.96438" lon="1.82181">
        <ele>269.8</ele>
        <time>2023-07-23T08:41:54Z</time>
      </trkpt>
      <trkpt lat="43.9643" lon="1.82192">
        <ele>269.4</ele>
        <time>2023-07-23T08:41:56Z</time>
      </trkpt>
      <trkpt lat="43.9643" lon="1.82192">
        <ele>269.4</ele>
        <time>2023-07-23T08:41:57Z</time>
      </trkpt>
      <trkpt lat="43.96427" lon="1.82198">
        <ele>269.2</ele>
        <time>2023-07-23T08:41:58Z</time>
      </trkpt>
      <trkpt lat="43.9642" lon="1.82207">
        <ele>269.2</ele>
        <time>2023-07-23T08:41:59Z</time>
      </trkpt>
      <trkpt lat="43.96413" lon="1.82218">
        <ele>269</ele>
        <time>2023-07-23T08:42:01Z</time>
      </trkpt>
      <trkpt lat="43.9641" lon="1.82223">
        <ele>268.8</ele>
        <time>2023-07-23T08:42:02Z</time>
      </trkpt>
      <trkpt lat="43.96408" lon="1.82228">
        <ele>268.8</ele>
        <time>2023-07-23T08:42:03Z</time>
      </trkpt>
      <trkpt lat="43.96406" lon="1.82232">
        <ele>268.8</ele>
        <time>2023-07-23T08:42:04Z</time>
      </trkpt>
      <trkpt lat="43.96402" lon="1.82237">
        <ele>268.6</ele>
        <time>2023-07-23T08:42:05Z</time>
      </trkpt>
      <trkpt lat="43.96399" lon="1.82241">
        <ele>268.4</ele>
        <time>2023-07-23T08:42:06Z</time>
      </trkpt>
      <trkpt lat="43.96396" lon="1.82246">
        <ele>268.4</ele>
        <time>2023-07-23T08:42:07Z</time>
      </trkpt>
      <trkpt lat="43.96394" lon="1.82249">
        <ele>268.4</ele>
        <time>2023-07-23T08:42:08Z</time>
      </trkpt>
      <trkpt lat="43.9639" lon="1.82254">
        <ele>268.4</ele>
        <time>2023-07-23T08:42:09Z</time>
      </trkpt>
      <trkpt lat="43.96378" lon="1.82275">
        <ele>268.2</ele>
        <time>2023-07-23T08:42:13Z</time>
      </trkpt>
      <trkpt lat="43.96355" lon="1.82311">
        <ele>267.8</ele>
        <time>2023-07-23T08:42:19Z</time>
      </trkpt>
      <trkpt lat="43.96351" lon="1.82317">
        <ele>267.6</ele>
        <time>2023-07-23T08:42:20Z</time>
      </trkpt>
      <trkpt lat="43.96341" lon="1.8233">
        <ele>267.4</ele>
        <time>2023-07-23T08:42:22Z</time>
      </trkpt>
      <trkpt lat="43.9633" lon="1.82346">
        <ele>266.6</ele>
        <time>2023-07-23T08:42:25Z</time>
      </trkpt>
      <trkpt lat="43.96327" lon="1.82351">
        <ele>266.4</ele>
        <time>2023-07-23T08:42:26Z</time>
      </trkpt>
      <trkpt lat="43.96316" lon="1.82367">
        <ele>266</ele>
        <time>2023-07-23T08:42:29Z</time>
      </trkpt>
      <trkpt lat="43.96312" lon="1.82371">
        <ele>265.8</ele>
        <time>2023-07-23T08:42:30Z</time>
      </trkpt>
      <trkpt lat="43.96307" lon="1.82377">
        <ele>265.4</ele>
        <time>2023-07-23T08:42:31Z</time>
      </trkpt>
      <trkpt lat="43.96303" lon="1.8238">
        <ele>265.4</ele>
        <time>2023-07-23T08:42:32Z</time>
      </trkpt>
      <trkpt lat="43.96299" lon="1.82384">
        <ele>265.2</ele>
        <time>2023-07-23T08:42:33Z</time>
      </trkpt>
      <trkpt lat="43.96295" lon="1.82388">
        <ele>265</ele>
        <time>2023-07-23T08:42:34Z</time>
      </trkpt>
      <trkpt lat="43.96278" lon="1.824">
        <ele>264.6</ele>
        <time>2023-07-23T08:42:39Z</time>
      </trkpt>
      <trkpt lat="43.96274" lon="1.82403">
        <ele>264.6</ele>
        <time>2023-07-23T08:42:40Z</time>
      </trkpt>
      <trkpt lat="43.96265" lon="1.82409">
        <ele>264.6</ele>
        <time>2023-07-23T08:42:41Z</time>
      </trkpt>
      <trkpt lat="43.96261" lon="1.82411">
        <ele>264.4</ele>
        <time>2023-07-23T08:42:42Z</time>
      </trkpt>
      <trkpt lat="43.96255" lon="1.82414">
        <ele>264.4</ele>
        <time>2023-07-23T08:42:43Z</time>
      </trkpt>
      <trkpt lat="43.9625" lon="1.82416">
        <ele>264.4</ele>
        <time>2023-07-23T08:42:44Z</time>
      </trkpt>
      <trkpt lat="43.9624" lon="1.82421">
        <ele>264.4</ele>
        <time>2023-07-23T08:42:46Z</time>
      </trkpt>
      <trkpt lat="43.962" lon="1.82442">
        <ele>264.4</ele>
        <time>2023-07-23T08:42:55Z</time>
      </trkpt>
      <trkpt lat="43.96186" lon="1.82451">
        <ele>264.4</ele>
        <time>2023-07-23T08:42:57Z</time>
      </trkpt>
      <trkpt lat="43.96182" lon="1.82454">
        <ele>264.6</ele>
        <time>2023-07-23T08:42:58Z</time>
      </trkpt>
      <trkpt lat="43.96173" lon="1.82459">
        <ele>264.8</ele>
        <time>2023-07-23T08:43:00Z</time>
      </trkpt>
      <trkpt lat="43.96173" lon="1.82459">
        <ele>265</ele>
        <time>2023-07-23T08:43:01Z</time>
      </trkpt>
      <trkpt lat="43.96163" lon="1.82464">
        <ele>265</ele>
        <time>2023-07-23T08:43:02Z</time>
      </trkpt>
      <trkpt lat="43.96159" lon="1.82466">
        <ele>265.2</ele>
        <time>2023-07-23T08:43:03Z</time>
      </trkpt>
      <trkpt lat="43.96159" lon="1.82466">
        <ele>265.4</ele>
        <time>2023-07-23T08:43:04Z</time>
      </trkpt>
      <trkpt lat="43.96154" lon="1.8247">
        <ele>265.6</ele>
        <time>2023-07-23T08:43:05Z</time>
      </trkpt>
      <trkpt lat="43.96147" lon="1.82474">
        <ele>265.6</ele>
        <time>2023-07-23T08:43:06Z</time>
      </trkpt>
      <trkpt lat="43.96143" lon="1.82476">
        <ele>265.8</ele>
        <time>2023-07-23T08:43:07Z</time>
      </trkpt>
      <trkpt lat="43.96139" lon="1.82478">
        <ele>265.8</ele>
        <time>2023-07-23T08:43:08Z</time>
      </trkpt>
      <trkpt lat="43.96136" lon="1.8248">
        <ele>266</ele>
        <time>2023-07-23T08:43:09Z</time>
      </trkpt>
      <trkpt lat="43.96132" lon="1.82481">
        <ele>266.2</ele>
        <time>2023-07-23T08:43:10Z</time>
      </trkpt>
      <trkpt lat="43.96129" lon="1.82483">
        <ele>266.4</ele>
        <time>2023-07-23T08:43:11Z</time>
      </trkpt>
      <trkpt lat="43.96126" lon="1.82485">
        <ele>267</ele>
        <time>2023-07-23T08:43:12Z</time>
      </trkpt>
      <trkpt lat="43.96123" lon="1.82486">
        <ele>267.2</ele>
        <time>2023-07-23T08:43:13Z</time>
      </trkpt>
      <trkpt lat="43.96121" lon="1.82487">
        <ele>267.4</ele>
        <time>2023-07-23T08:43:14Z</time>
      </trkpt>
      <trkpt lat="43.96118" lon="1.82488">
        <ele>267.6</ele>
        <time>2023-07-23T08:43:15Z</time>
      </trkpt>
      <trkpt lat="43.96111" lon="1.82493">
        <ele>268</ele>
        <time>2023-07-23T08:43:18Z</time>
      </trkpt>
      <trkpt lat="43.96108" lon="1.82494">
        <ele>268</ele>
        <time>2023-07-23T08:43:19Z</time>
      </trkpt>
      <trkpt lat="43.96106" lon="1.82495">
        <ele>268.4</ele>
        <time>2023-07-23T08:43:20Z</time>
      </trkpt>
      <trkpt lat="43.96104" lon="1.82497">
        <ele>268.8</ele>
        <time>2023-07-23T08:43:21Z</time>
      </trkpt>
      <trkpt lat="43.96102" lon="1.82498">
        <ele>268.8</ele>
        <time>2023-07-23T08:43:22Z</time>
      </trkpt>
      <trkpt lat="43.96102" lon="1.82498">
        <ele>269.4</ele>
        <time>2023-07-23T08:43:23Z</time>
      </trkpt>
      <trkpt lat="43.96097" lon="1.82501">
        <ele>269.6</ele>
        <time>2023-07-23T08:43:24Z</time>
      </trkpt>
      <trkpt lat="43.96097" lon="1.82501">
        <ele>269.8</ele>
        <time>2023-07-23T08:43:25Z</time>
      </trkpt>
      <trkpt lat="43.96092" lon="1.82504">
        <ele>269.8</ele>
        <time>2023-07-23T08:43:26Z</time>
      </trkpt>
      <trkpt lat="43.9609" lon="1.82505">
        <ele>270</ele>
        <time>2023-07-23T08:43:27Z</time>
      </trkpt>
      <trkpt lat="43.96087" lon="1.82506">
        <ele>270.4</ele>
        <time>2023-07-23T08:43:28Z</time>
      </trkpt>
      <trkpt lat="43.96085" lon="1.82507">
        <ele>270.8</ele>
        <time>2023-07-23T08:43:29Z</time>
      </trkpt>
      <trkpt lat="43.96081" lon="1.82509">
        <ele>271</ele>
        <time>2023-07-23T08:43:30Z</time>
      </trkpt>
      <trkpt lat="43.96079" lon="1.8251">
        <ele>271</ele>
        <time>2023-07-23T08:43:31Z</time>
      </trkpt>
      <trkpt lat="43.96078" lon="1.82511">
        <ele>271.2</ele>
        <time>2023-07-23T08:43:32Z</time>
      </trkpt>
      <trkpt lat="43.96076" lon="1.82512">
        <ele>271.4</ele>
        <time>2023-07-23T08:43:33Z</time>
      </trkpt>
      <trkpt lat="43.96076" lon="1.82512">
        <ele>271.8</ele>
        <time>2023-07-23T08:43:34Z</time>
      </trkpt>
      <trkpt lat="43.96071" lon="1.82515">
        <ele>271.8</ele>
        <time>2023-07-23T08:43:35Z</time>
      </trkpt>
      <trkpt lat="43.96071" lon="1.82515">
        <ele>272</ele>
        <time>2023-07-23T08:43:36Z</time>
      </trkpt>
      <trkpt lat="43.96069" lon="1.82516">
        <ele>272.2</ele>
        <time>2023-07-23T08:43:37Z</time>
      </trkpt>
      <trkpt lat="43.96066" lon="1.82517">
        <ele>272.2</ele>
        <time>2023-07-23T08:43:38Z</time>
      </trkpt>
      <trkpt lat="43.96063" lon="1.82517">
        <ele>272.4</ele>
        <time>2023-07-23T08:43:39Z</time>
      </trkpt>
      <trkpt lat="43.96059" lon="1.8252">
        <ele>272.6</ele>
        <time>2023-07-23T08:43:40Z</time>
      </trkpt>
      <trkpt lat="43.96057" lon="1.8252">
        <ele>272.6</ele>
        <time>2023-07-23T08:43:41Z</time>
      </trkpt>
      <trkpt lat="43.96054" lon="1.82521">
        <ele>272.8</ele>
        <time>2023-07-23T08:43:42Z</time>
      </trkpt>
      <trkpt lat="43.96052" lon="1.82522">
        <ele>273.2</ele>
        <time>2023-07-23T08:43:43Z</time>
      </trkpt>
      <trkpt lat="43.9605" lon="1.82522">
        <ele>273.4</ele>
        <time>2023-07-23T08:43:44Z</time>
      </trkpt>
      <trkpt lat="43.96048" lon="1.82523">
        <ele>273.4</ele>
        <time>2023-07-23T08:43:45Z</time>
      </trkpt>
      <trkpt lat="43.96048" lon="1.82523">
        <ele>273.6</ele>
        <time>2023-07-23T08:43:46Z</time>
      </trkpt>
      <trkpt lat="43.96046" lon="1.82524">
        <ele>273.6</ele>
        <time>2023-07-23T08:43:47Z</time>
      </trkpt>
      <trkpt lat="43.96042" lon="1.82526">
        <ele>273.8</ele>
        <time>2023-07-23T08:43:48Z</time>
      </trkpt>
      <trkpt lat="43.96039" lon="1.82528">
        <ele>273.8</ele>
        <time>2023-07-23T08:43:49Z</time>
      </trkpt>
      <trkpt lat="43.96036" lon="1.82529">
        <ele>274</ele>
        <time>2023-07-23T08:43:50Z</time>
      </trkpt>
      <trkpt lat="43.96033" lon="1.8253">
        <ele>274.2</ele>
        <time>2023-07-23T08:43:51Z</time>
      </trkpt>
      <trkpt lat="43.96031" lon="1.8253">
        <ele>274.4</ele>
        <time>2023-07-23T08:43:52Z</time>
      </trkpt>
      <trkpt lat="43.96029" lon="1.82531">
        <ele>274.4</ele>
        <time>2023-07-23T08:43:53Z</time>
      </trkpt>
      <trkpt lat="43.96027" lon="1.82532">
        <ele>274.6</ele>
        <time>2023-07-23T08:43:54Z</time>
      </trkpt>
      <trkpt lat="43.96027" lon="1.82532">
        <ele>274.8</ele>
        <time>2023-07-23T08:43:55Z</time>
      </trkpt>
      <trkpt lat="43.96023" lon="1.82533">
        <ele>275</ele>
        <time>2023-07-23T08:43:56Z</time>
      </trkpt>
      <trkpt lat="43.96023" lon="1.82533">
        <ele>275.2</ele>
        <time>2023-07-23T08:43:57Z</time>
      </trkpt>
      <trkpt lat="43.96019" lon="1.82536">
        <ele>275.2</ele>
        <time>2023-07-23T08:43:58Z</time>
      </trkpt>
      <trkpt lat="43.96019" lon="1.82536">
        <ele>275.4</ele>
        <time>2023-07-23T08:43:59Z</time>
      </trkpt>
      <trkpt lat="43.96017" lon="1.82537">
        <ele>275.4</ele>
        <time>2023-07-23T08:44:00Z</time>
      </trkpt>
      <trkpt lat="43.96014" lon="1.82539">
        <ele>275.8</ele>
        <time>2023-07-23T08:44:01Z</time>
      </trkpt>
      <trkpt lat="43.96011" lon="1.8254">
        <ele>275.8</ele>
        <time>2023-07-23T08:44:02Z</time>
      </trkpt>
      <trkpt lat="43.96011" lon="1.8254">
        <ele>276</ele>
        <time>2023-07-23T08:44:03Z</time>
      </trkpt>
      <trkpt lat="43.96007" lon="1.82542">
        <ele>276.2</ele>
        <time>2023-07-23T08:44:04Z</time>
      </trkpt>
      <trkpt lat="43.96007" lon="1.82542">
        <ele>276.2</ele>
        <time>2023-07-23T08:44:05Z</time>
      </trkpt>
      <trkpt lat="43.96003" lon="1.82544">
        <ele>276.6</ele>
        <time>2023-07-23T08:44:06Z</time>
      </trkpt>
      <trkpt lat="43.96001" lon="1.82545">
        <ele>276.8</ele>
        <time>2023-07-23T08:44:07Z</time>
      </trkpt>
      <trkpt lat="43.96" lon="1.82546">
        <ele>276.8</ele>
        <time>2023-07-23T08:44:08Z</time>
      </trkpt>
      <trkpt lat="43.95997" lon="1.82548">
        <ele>277</ele>
        <time>2023-07-23T08:44:09Z</time>
      </trkpt>
      <trkpt lat="43.95996" lon="1.82549">
        <ele>277.2</ele>
        <time>2023-07-23T08:44:10Z</time>
      </trkpt>
      <trkpt lat="43.95994" lon="1.82551">
        <ele>277.6</ele>
        <time>2023-07-23T08:44:11Z</time>
      </trkpt>
      <trkpt lat="43.95994" lon="1.82551">
        <ele>277.6</ele>
        <time>2023-07-23T08:44:12Z</time>
      </trkpt>
      <trkpt lat="43.9599" lon="1.82555">
        <ele>277.8</ele>
        <time>2023-07-23T08:44:13Z</time>
      </trkpt>
      <trkpt lat="43.95989" lon="1.82557">
        <ele>278</ele>
        <time>2023-07-23T08:44:14Z</time>
      </trkpt>
      <trkpt lat="43.95987" lon="1.82559">
        <ele>278</ele>
        <time>2023-07-23T08:44:15Z</time>
      </trkpt>
      <trkpt lat="43.95985" lon="1.82562">
        <ele>278.2</ele>
        <time>2023-07-23T08:44:16Z</time>
      </trkpt>
      <trkpt lat="43.95985" lon="1.82562">
        <ele>278.4</ele>
        <time>2023-07-23T08:44:17Z</time>
      </trkpt>
      <trkpt lat="43.95983" lon="1.82564">
        <ele>278.4</ele>
        <time>2023-07-23T08:44:18Z</time>
      </trkpt>
      <trkpt lat="43.95982" lon="1.82566">
        <ele>278.6</ele>
        <time>2023-07-23T08:44:19Z</time>
      </trkpt>
      <trkpt lat="43.95979" lon="1.82571">
        <ele>278.8</ele>
        <time>2023-07-23T08:44:20Z</time>
      </trkpt>
      <trkpt lat="43.95978" lon="1.82574">
        <ele>279</ele>
        <time>2023-07-23T08:44:21Z</time>
      </trkpt>
      <trkpt lat="43.95976" lon="1.82576">
        <ele>279.2</ele>
        <time>2023-07-23T08:44:22Z</time>
      </trkpt>
      <trkpt lat="43.95976" lon="1.82576">
        <ele>279.2</ele>
        <time>2023-07-23T08:44:23Z</time>
      </trkpt>
      <trkpt lat="43.95974" lon="1.82581">
        <ele>279.4</ele>
        <time>2023-07-23T08:44:24Z</time>
      </trkpt>
      <trkpt lat="43.95972" lon="1.82583">
        <ele>279.6</ele>
        <time>2023-07-23T08:44:25Z</time>
      </trkpt>
      <trkpt lat="43.95972" lon="1.82583">
        <ele>279.6</ele>
        <time>2023-07-23T08:44:26Z</time>
      </trkpt>
      <trkpt lat="43.95969" lon="1.82589">
        <ele>279.8</ele>
        <time>2023-07-23T08:44:27Z</time>
      </trkpt>
      <trkpt lat="43.95967" lon="1.82591">
        <ele>280</ele>
        <time>2023-07-23T08:44:28Z</time>
      </trkpt>
      <trkpt lat="43.95966" lon="1.82593">
        <ele>280.2</ele>
        <time>2023-07-23T08:44:29Z</time>
      </trkpt>
      <trkpt lat="43.95966" lon="1.82593">
        <ele>280.2</ele>
        <time>2023-07-23T08:44:30Z</time>
      </trkpt>
      <trkpt lat="43.95964" lon="1.82598">
        <ele>280.4</ele>
        <time>2023-07-23T08:44:31Z</time>
      </trkpt>
      <trkpt lat="43.95962" lon="1.82601">
        <ele>280.6</ele>
        <time>2023-07-23T08:44:32Z</time>
      </trkpt>
      <trkpt lat="43.95961" lon="1.82604">
        <ele>280.6</ele>
        <time>2023-07-23T08:44:33Z</time>
      </trkpt>
      <trkpt lat="43.9596" lon="1.82606">
        <ele>280.8</ele>
        <time>2023-07-23T08:44:34Z</time>
      </trkpt>
      <trkpt lat="43.95959" lon="1.82609">
        <ele>281</ele>
        <time>2023-07-23T08:44:35Z</time>
      </trkpt>
      <trkpt lat="43.95958" lon="1.82611">
        <ele>281</ele>
        <time>2023-07-23T08:44:36Z</time>
      </trkpt>
      <trkpt lat="43.95956" lon="1.82614">
        <ele>281.2</ele>
        <time>2023-07-23T08:44:37Z</time>
      </trkpt>
      <trkpt lat="43.95955" lon="1.82616">
        <ele>281.4</ele>
        <time>2023-07-23T08:44:38Z</time>
      </trkpt>
      <trkpt lat="43.95954" lon="1.82619">
        <ele>281.4</ele>
        <time>2023-07-23T08:44:39Z</time>
      </trkpt>
      <trkpt lat="43.95954" lon="1.82619">
        <ele>281.8</ele>
        <time>2023-07-23T08:44:40Z</time>
      </trkpt>
      <trkpt lat="43.95952" lon="1.82624">
        <ele>281.8</ele>
        <time>2023-07-23T08:44:41Z</time>
      </trkpt>
      <trkpt lat="43.95952" lon="1.82624">
        <ele>282.2</ele>
        <time>2023-07-23T08:44:42Z</time>
      </trkpt>
      <trkpt lat="43.9595" lon="1.82629">
        <ele>282.2</ele>
        <time>2023-07-23T08:44:43Z</time>
      </trkpt>
      <trkpt lat="43.95949" lon="1.82632">
        <ele>282.4</ele>
        <time>2023-07-23T08:44:44Z</time>
      </trkpt>
      <trkpt lat="43.95947" lon="1.82634">
        <ele>282.4</ele>
        <time>2023-07-23T08:44:45Z</time>
      </trkpt>
      <trkpt lat="43.95946" lon="1.82637">
        <ele>282.6</ele>
        <time>2023-07-23T08:44:46Z</time>
      </trkpt>
      <trkpt lat="43.95946" lon="1.8264">
        <ele>282.8</ele>
        <time>2023-07-23T08:44:47Z</time>
      </trkpt>
      <trkpt lat="43.95945" lon="1.82642">
        <ele>283</ele>
        <time>2023-07-23T08:44:48Z</time>
      </trkpt>
      <trkpt lat="43.95945" lon="1.82642">
        <ele>283.2</ele>
        <time>2023-07-23T08:44:49Z</time>
      </trkpt>
      <trkpt lat="43.95943" lon="1.82647">
        <ele>283.2</ele>
        <time>2023-07-23T08:44:50Z</time>
      </trkpt>
      <trkpt lat="43.95942" lon="1.82649">
        <ele>283.2</ele>
        <time>2023-07-23T08:44:51Z</time>
      </trkpt>
      <trkpt lat="43.95941" lon="1.82651">
        <ele>283.6</ele>
        <time>2023-07-23T08:44:52Z</time>
      </trkpt>
      <trkpt lat="43.9594" lon="1.82654">
        <ele>283.6</ele>
        <time>2023-07-23T08:44:53Z</time>
      </trkpt>
      <trkpt lat="43.95939" lon="1.82657">
        <ele>283.6</ele>
        <time>2023-07-23T08:44:54Z</time>
      </trkpt>
      <trkpt lat="43.95939" lon="1.82657">
        <ele>283.8</ele>
        <time>2023-07-23T08:44:55Z</time>
      </trkpt>
      <trkpt lat="43.95937" lon="1.82661">
        <ele>284</ele>
        <time>2023-07-23T08:44:56Z</time>
      </trkpt>
      <trkpt lat="43.95937" lon="1.82664">
        <ele>284</ele>
        <time>2023-07-23T08:44:57Z</time>
      </trkpt>
      <trkpt lat="43.95936" lon="1.82666">
        <ele>284.2</ele>
        <time>2023-07-23T08:44:58Z</time>
      </trkpt>
      <trkpt lat="43.95935" lon="1.82669">
        <ele>284.2</ele>
        <time>2023-07-23T08:44:59Z</time>
      </trkpt>
      <trkpt lat="43.95934" lon="1.82671">
        <ele>284.4</ele>
        <time>2023-07-23T08:45:00Z</time>
      </trkpt>
      <trkpt lat="43.95934" lon="1.82671">
        <ele>284.6</ele>
        <time>2023-07-23T08:45:01Z</time>
      </trkpt>
      <trkpt lat="43.95932" lon="1.82676">
        <ele>284.8</ele>
        <time>2023-07-23T08:45:02Z</time>
      </trkpt>
      <trkpt lat="43.95931" lon="1.82678">
        <ele>284.8</ele>
        <time>2023-07-23T08:45:03Z</time>
      </trkpt>
      <trkpt lat="43.9593" lon="1.82681">
        <ele>284.8</ele>
        <time>2023-07-23T08:45:04Z</time>
      </trkpt>
      <trkpt lat="43.95929" lon="1.82683">
        <ele>285</ele>
        <time>2023-07-23T08:45:05Z</time>
      </trkpt>
      <trkpt lat="43.95928" lon="1.82686">
        <ele>285.2</ele>
        <time>2023-07-23T08:45:06Z</time>
      </trkpt>
      <trkpt lat="43.95928" lon="1.82686">
        <ele>285.4</ele>
        <time>2023-07-23T08:45:07Z</time>
      </trkpt>
      <trkpt lat="43.95926" lon="1.8269">
        <ele>285.4</ele>
        <time>2023-07-23T08:45:08Z</time>
      </trkpt>
      <trkpt lat="43.95925" lon="1.82693">
        <ele>285.6</ele>
        <time>2023-07-23T08:45:09Z</time>
      </trkpt>
      <trkpt lat="43.95924" lon="1.82695">
        <ele>285.8</ele>
        <time>2023-07-23T08:45:10Z</time>
      </trkpt>
      <trkpt lat="43.95924" lon="1.82697">
        <ele>285.8</ele>
        <time>2023-07-23T08:45:11Z</time>
      </trkpt>
      <trkpt lat="43.95923" lon="1.82699">
        <ele>285.8</ele>
        <time>2023-07-23T08:45:12Z</time>
      </trkpt>
      <trkpt lat="43.95922" lon="1.82702">
        <ele>285.8</ele>
        <time>2023-07-23T08:45:13Z</time>
      </trkpt>
      <trkpt lat="43.9592" lon="1.82705">
        <ele>286.2</ele>
        <time>2023-07-23T08:45:14Z</time>
      </trkpt>
      <trkpt lat="43.95919" lon="1.82707">
        <ele>286.2</ele>
        <time>2023-07-23T08:45:15Z</time>
      </trkpt>
      <trkpt lat="43.95919" lon="1.82709">
        <ele>286.4</ele>
        <time>2023-07-23T08:45:16Z</time>
      </trkpt>
      <trkpt lat="43.95917" lon="1.82711">
        <ele>286.8</ele>
        <time>2023-07-23T08:45:17Z</time>
      </trkpt>
      <trkpt lat="43.95916" lon="1.82714">
        <ele>286.8</ele>
        <time>2023-07-23T08:45:18Z</time>
      </trkpt>
      <trkpt lat="43.95915" lon="1.82716">
        <ele>287</ele>
        <time>2023-07-23T08:45:19Z</time>
      </trkpt>
      <trkpt lat="43.95914" lon="1.82719">
        <ele>287.2</ele>
        <time>2023-07-23T08:45:20Z</time>
      </trkpt>
      <trkpt lat="43.95913" lon="1.82721">
        <ele>287.2</ele>
        <time>2023-07-23T08:45:21Z</time>
      </trkpt>
      <trkpt lat="43.95912" lon="1.82723">
        <ele>287.4</ele>
        <time>2023-07-23T08:45:22Z</time>
      </trkpt>
      <trkpt lat="43.95911" lon="1.82726">
        <ele>287.4</ele>
        <time>2023-07-23T08:45:23Z</time>
      </trkpt>
      <trkpt lat="43.9591" lon="1.82729">
        <ele>287.6</ele>
        <time>2023-07-23T08:45:24Z</time>
      </trkpt>
      <trkpt lat="43.95909" lon="1.82732">
        <ele>287.8</ele>
        <time>2023-07-23T08:45:25Z</time>
      </trkpt>
      <trkpt lat="43.95908" lon="1.82734">
        <ele>288</ele>
        <time>2023-07-23T08:45:26Z</time>
      </trkpt>
      <trkpt lat="43.95907" lon="1.82737">
        <ele>288</ele>
        <time>2023-07-23T08:45:27Z</time>
      </trkpt>
      <trkpt lat="43.95906" lon="1.82739">
        <ele>288.2</ele>
        <time>2023-07-23T08:45:28Z</time>
      </trkpt>
      <trkpt lat="43.95905" lon="1.82743">
        <ele>288.2</ele>
        <time>2023-07-23T08:45:29Z</time>
      </trkpt>
      <trkpt lat="43.95904" lon="1.82745">
        <ele>288.6</ele>
        <time>2023-07-23T08:45:30Z</time>
      </trkpt>
      <trkpt lat="43.95904" lon="1.82748">
        <ele>288.6</ele>
        <time>2023-07-23T08:45:31Z</time>
      </trkpt>
      <trkpt lat="43.95902" lon="1.82751">
        <ele>289</ele>
        <time>2023-07-23T08:45:32Z</time>
      </trkpt>
      <trkpt lat="43.95902" lon="1.82754">
        <ele>289</ele>
        <time>2023-07-23T08:45:33Z</time>
      </trkpt>
      <trkpt lat="43.95901" lon="1.82757">
        <ele>289.2</ele>
        <time>2023-07-23T08:45:34Z</time>
      </trkpt>
      <trkpt lat="43.959" lon="1.82761">
        <ele>289.4</ele>
        <time>2023-07-23T08:45:35Z</time>
      </trkpt>
      <trkpt lat="43.95899" lon="1.82764">
        <ele>289.4</ele>
        <time>2023-07-23T08:45:36Z</time>
      </trkpt>
      <trkpt lat="43.95899" lon="1.82766">
        <ele>289.6</ele>
        <time>2023-07-23T08:45:37Z</time>
      </trkpt>
      <trkpt lat="43.95898" lon="1.82769">
        <ele>289.8</ele>
        <time>2023-07-23T08:45:38Z</time>
      </trkpt>
      <trkpt lat="43.95897" lon="1.82772">
        <ele>290</ele>
        <time>2023-07-23T08:45:39Z</time>
      </trkpt>
      <trkpt lat="43.95896" lon="1.82775">
        <ele>290</ele>
        <time>2023-07-23T08:45:40Z</time>
      </trkpt>
      <trkpt lat="43.95896" lon="1.82777">
        <ele>290.2</ele>
        <time>2023-07-23T08:45:41Z</time>
      </trkpt>
      <trkpt lat="43.95895" lon="1.8278">
        <ele>290.4</ele>
        <time>2023-07-23T08:45:42Z</time>
      </trkpt>
      <trkpt lat="43.95895" lon="1.82783">
        <ele>290.4</ele>
        <time>2023-07-23T08:45:43Z</time>
      </trkpt>
      <trkpt lat="43.95894" lon="1.82786">
        <ele>290.6</ele>
        <time>2023-07-23T08:45:44Z</time>
      </trkpt>
      <trkpt lat="43.95893" lon="1.8279">
        <ele>290.8</ele>
        <time>2023-07-23T08:45:45Z</time>
      </trkpt>
      <trkpt lat="43.95892" lon="1.82792">
        <ele>291</ele>
        <time>2023-07-23T08:45:46Z</time>
      </trkpt>
      <trkpt lat="43.95892" lon="1.82795">
        <ele>291.2</ele>
        <time>2023-07-23T08:45:47Z</time>
      </trkpt>
      <trkpt lat="43.95891" lon="1.82797">
        <ele>291.4</ele>
        <time>2023-07-23T08:45:48Z</time>
      </trkpt>
      <trkpt lat="43.9589" lon="1.828">
        <ele>291.4</ele>
        <time>2023-07-23T08:45:49Z</time>
      </trkpt>
      <trkpt lat="43.9589" lon="1.82803">
        <ele>291.8</ele>
        <time>2023-07-23T08:45:50Z</time>
      </trkpt>
      <trkpt lat="43.95889" lon="1.82806">
        <ele>292.2</ele>
        <time>2023-07-23T08:45:51Z</time>
      </trkpt>
      <trkpt lat="43.95889" lon="1.82809">
        <ele>292.2</ele>
        <time>2023-07-23T08:45:52Z</time>
      </trkpt>
      <trkpt lat="43.95888" lon="1.82812">
        <ele>292.4</ele>
        <time>2023-07-23T08:45:53Z</time>
      </trkpt>
      <trkpt lat="43.95888" lon="1.82812">
        <ele>292.6</ele>
        <time>2023-07-23T08:45:54Z</time>
      </trkpt>
      <trkpt lat="43.95887" lon="1.82817">
        <ele>292.6</ele>
        <time>2023-07-23T08:45:55Z</time>
      </trkpt>
      <trkpt lat="43.95886" lon="1.8282">
        <ele>292.8</ele>
        <time>2023-07-23T08:45:56Z</time>
      </trkpt>
      <trkpt lat="43.95885" lon="1.82824">
        <ele>293</ele>
        <time>2023-07-23T08:45:57Z</time>
      </trkpt>
      <trkpt lat="43.95885" lon="1.82826">
        <ele>293.2</ele>
        <time>2023-07-23T08:45:58Z</time>
      </trkpt>
      <trkpt lat="43.95884" lon="1.82829">
        <ele>293.2</ele>
        <time>2023-07-23T08:45:59Z</time>
      </trkpt>
      <trkpt lat="43.95883" lon="1.82832">
        <ele>293.4</ele>
        <time>2023-07-23T08:46:00Z</time>
      </trkpt>
      <trkpt lat="43.95882" lon="1.82835">
        <ele>293.6</ele>
        <time>2023-07-23T08:46:01Z</time>
      </trkpt>
      <trkpt lat="43.95882" lon="1.82837">
        <ele>293.8</ele>
        <time>2023-07-23T08:46:02Z</time>
      </trkpt>
      <trkpt lat="43.95881" lon="1.82841">
        <ele>294</ele>
        <time>2023-07-23T08:46:03Z</time>
      </trkpt>
      <trkpt lat="43.9588" lon="1.82843">
        <ele>294.4</ele>
        <time>2023-07-23T08:46:04Z</time>
      </trkpt>
      <trkpt lat="43.95879" lon="1.82846">
        <ele>294.6</ele>
        <time>2023-07-23T08:46:05Z</time>
      </trkpt>
      <trkpt lat="43.95878" lon="1.82849">
        <ele>294.8</ele>
        <time>2023-07-23T08:46:06Z</time>
      </trkpt>
      <trkpt lat="43.95878" lon="1.82849">
        <ele>295</ele>
        <time>2023-07-23T08:46:07Z</time>
      </trkpt>
      <trkpt lat="43.95877" lon="1.82855">
        <ele>295.4</ele>
        <time>2023-07-23T08:46:09Z</time>
      </trkpt>
      <trkpt lat="43.95876" lon="1.82859">
        <ele>295.4</ele>
        <time>2023-07-23T08:46:10Z</time>
      </trkpt>
      <trkpt lat="43.95875" lon="1.82863">
        <ele>295.6</ele>
        <time>2023-07-23T08:46:11Z</time>
      </trkpt>
      <trkpt lat="43.95875" lon="1.82866">
        <ele>295.8</ele>
        <time>2023-07-23T08:46:12Z</time>
      </trkpt>
      <trkpt lat="43.95874" lon="1.82869">
        <ele>296</ele>
        <time>2023-07-23T08:46:13Z</time>
      </trkpt>
      <trkpt lat="43.95873" lon="1.82871">
        <ele>296.2</ele>
        <time>2023-07-23T08:46:14Z</time>
      </trkpt>
      <trkpt lat="43.95873" lon="1.82871">
        <ele>296.4</ele>
        <time>2023-07-23T08:46:15Z</time>
      </trkpt>
      <trkpt lat="43.95871" lon="1.82877">
        <ele>296.6</ele>
        <time>2023-07-23T08:46:16Z</time>
      </trkpt>
      <trkpt lat="43.95871" lon="1.8288">
        <ele>296.8</ele>
        <time>2023-07-23T08:46:17Z</time>
      </trkpt>
      <trkpt lat="43.9587" lon="1.82882">
        <ele>297</ele>
        <time>2023-07-23T08:46:18Z</time>
      </trkpt>
      <trkpt lat="43.95869" lon="1.82885">
        <ele>297</ele>
        <time>2023-07-23T08:46:19Z</time>
      </trkpt>
      <trkpt lat="43.95869" lon="1.82888">
        <ele>297</ele>
        <time>2023-07-23T08:46:20Z</time>
      </trkpt>
      <trkpt lat="43.95868" lon="1.82892">
        <ele>297.2</ele>
        <time>2023-07-23T08:46:21Z</time>
      </trkpt>
      <trkpt lat="43.95867" lon="1.82895">
        <ele>297.2</ele>
        <time>2023-07-23T08:46:22Z</time>
      </trkpt>
      <trkpt lat="43.95867" lon="1.82898">
        <ele>297.4</ele>
        <time>2023-07-23T08:46:23Z</time>
      </trkpt>
      <trkpt lat="43.95866" lon="1.82901">
        <ele>297.4</ele>
        <time>2023-07-23T08:46:24Z</time>
      </trkpt>
      <trkpt lat="43.95866" lon="1.82904">
        <ele>297.4</ele>
        <time>2023-07-23T08:46:25Z</time>
      </trkpt>
      <trkpt lat="43.95865" lon="1.82907">
        <ele>297.6</ele>
        <time>2023-07-23T08:46:26Z</time>
      </trkpt>
      <trkpt lat="43.95864" lon="1.8291">
        <ele>297.8</ele>
        <time>2023-07-23T08:46:27Z</time>
      </trkpt>
      <trkpt lat="43.95864" lon="1.8291">
        <ele>298</ele>
        <time>2023-07-23T08:46:28Z</time>
      </trkpt>
      <trkpt lat="43.95863" lon="1.82916">
        <ele>298</ele>
        <time>2023-07-23T08:46:29Z</time>
      </trkpt>
      <trkpt lat="43.95862" lon="1.8292">
        <ele>298.2</ele>
        <time>2023-07-23T08:46:30Z</time>
      </trkpt>
      <trkpt lat="43.95861" lon="1.82924">
        <ele>298.2</ele>
        <time>2023-07-23T08:46:31Z</time>
      </trkpt>
      <trkpt lat="43.95861" lon="1.82927">
        <ele>298.4</ele>
        <time>2023-07-23T08:46:32Z</time>
      </trkpt>
      <trkpt lat="43.95859" lon="1.82931">
        <ele>298.6</ele>
        <time>2023-07-23T08:46:33Z</time>
      </trkpt>
      <trkpt lat="43.95859" lon="1.82934">
        <ele>298.8</ele>
        <time>2023-07-23T08:46:34Z</time>
      </trkpt>
      <trkpt lat="43.95858" lon="1.82938">
        <ele>298.8</ele>
        <time>2023-07-23T08:46:35Z</time>
      </trkpt>
      <trkpt lat="43.95857" lon="1.82941">
        <ele>298.8</ele>
        <time>2023-07-23T08:46:36Z</time>
      </trkpt>
      <trkpt lat="43.95857" lon="1.82945">
        <ele>298.8</ele>
        <time>2023-07-23T08:46:37Z</time>
      </trkpt>
      <trkpt lat="43.95856" lon="1.8295">
        <ele>299</ele>
        <time>2023-07-23T08:46:38Z</time>
      </trkpt>
      <trkpt lat="43.95855" lon="1.82955">
        <ele>299</ele>
        <time>2023-07-23T08:46:39Z</time>
      </trkpt>
      <trkpt lat="43.95854" lon="1.82958">
        <ele>299</ele>
        <time>2023-07-23T08:46:40Z</time>
      </trkpt>
      <trkpt lat="43.95853" lon="1.82963">
        <ele>299</ele>
        <time>2023-07-23T08:46:41Z</time>
      </trkpt>
      <trkpt lat="43.95852" lon="1.82967">
        <ele>299</ele>
        <time>2023-07-23T08:46:42Z</time>
      </trkpt>
      <trkpt lat="43.9585" lon="1.82973">
        <ele>299.2</ele>
        <time>2023-07-23T08:46:43Z</time>
      </trkpt>
      <trkpt lat="43.95849" lon="1.82978">
        <ele>299.2</ele>
        <time>2023-07-23T08:46:44Z</time>
      </trkpt>
      <trkpt lat="43.95849" lon="1.82978">
        <ele>299.2</ele>
        <time>2023-07-23T08:46:45Z</time>
      </trkpt>
      <trkpt lat="43.95847" lon="1.82988">
        <ele>299.2</ele>
        <time>2023-07-23T08:46:46Z</time>
      </trkpt>
      <trkpt lat="43.95842" lon="1.83015">
        <ele>299</ele>
        <time>2023-07-23T08:46:51Z</time>
      </trkpt>
      <trkpt lat="43.95828" lon="1.8307">
        <ele>298.8</ele>
        <time>2023-07-23T08:47:00Z</time>
      </trkpt>
      <trkpt lat="43.95816" lon="1.83118">
        <ele>298.8</ele>
        <time>2023-07-23T08:47:08Z</time>
      </trkpt>
      <trkpt lat="43.95803" lon="1.83162">
        <ele>298.6</ele>
        <time>2023-07-23T08:47:15Z</time>
      </trkpt>
      <trkpt lat="43.95799" lon="1.83173">
        <ele>298.6</ele>
        <time>2023-07-23T08:47:18Z</time>
      </trkpt>
      <trkpt lat="43.95785" lon="1.83201">
        <ele>298.6</ele>
        <time>2023-07-23T08:47:23Z</time>
      </trkpt>
      <trkpt lat="43.9578" lon="1.83212">
        <ele>298.6</ele>
        <time>2023-07-23T08:47:24Z</time>
      </trkpt>
      <trkpt lat="43.95777" lon="1.83217">
        <ele>298.6</ele>
        <time>2023-07-23T08:47:25Z</time>
      </trkpt>
      <trkpt lat="43.95777" lon="1.83217">
        <ele>298.6</ele>
        <time>2023-07-23T08:47:26Z</time>
      </trkpt>
      <trkpt lat="43.95745" lon="1.83276">
        <ele>299.2</ele>
        <time>2023-07-23T08:47:36Z</time>
      </trkpt>
      <trkpt lat="43.95717" lon="1.83327">
        <ele>299.8</ele>
        <time>2023-07-23T08:47:47Z</time>
      </trkpt>
      <trkpt lat="43.95707" lon="1.83348">
        <ele>299.8</ele>
        <time>2023-07-23T08:47:50Z</time>
      </trkpt>
      <trkpt lat="43.95707" lon="1.83348">
        <ele>299.8</ele>
        <time>2023-07-23T08:47:51Z</time>
      </trkpt>
      <trkpt lat="43.95702" lon="1.83359">
        <ele>299.8</ele>
        <time>2023-07-23T08:47:52Z</time>
      </trkpt>
      <trkpt lat="43.95702" lon="1.83359">
        <ele>299.8</ele>
        <time>2023-07-23T08:47:53Z</time>
      </trkpt>
      <trkpt lat="43.95699" lon="1.83365">
        <ele>299.8</ele>
        <time>2023-07-23T08:47:54Z</time>
      </trkpt>
      <trkpt lat="43.95697" lon="1.83371">
        <ele>299.8</ele>
        <time>2023-07-23T08:47:55Z</time>
      </trkpt>
      <trkpt lat="43.95686" lon="1.834">
        <ele>299.4</ele>
        <time>2023-07-23T08:47:59Z</time>
      </trkpt>
      <trkpt lat="43.95677" lon="1.83436">
        <ele>298.2</ele>
        <time>2023-07-23T08:48:03Z</time>
      </trkpt>
      <trkpt lat="43.95675" lon="1.83447">
        <ele>297.6</ele>
        <time>2023-07-23T08:48:04Z</time>
      </trkpt>
      <trkpt lat="43.95673" lon="1.83457">
        <ele>297</ele>
        <time>2023-07-23T08:48:05Z</time>
      </trkpt>
      <trkpt lat="43.95669" lon="1.83492">
        <ele>296.2</ele>
        <time>2023-07-23T08:48:07Z</time>
      </trkpt>
      <trkpt lat="43.95669" lon="1.83492">
        <ele>296</ele>
        <time>2023-07-23T08:48:08Z</time>
      </trkpt>
      <trkpt lat="43.95665" lon="1.83503">
        <ele>295.8</ele>
        <time>2023-07-23T08:48:09Z</time>
      </trkpt>
      <trkpt lat="43.95661" lon="1.83514">
        <ele>295.6</ele>
        <time>2023-07-23T08:48:10Z</time>
      </trkpt>
      <trkpt lat="43.95653" lon="1.83532">
        <ele>295.2</ele>
        <time>2023-07-23T08:48:11Z</time>
      </trkpt>
      <trkpt lat="43.95653" lon="1.83532">
        <ele>295</ele>
        <time>2023-07-23T08:48:12Z</time>
      </trkpt>
      <trkpt lat="43.95645" lon="1.83547">
        <ele>294.8</ele>
        <time>2023-07-23T08:48:13Z</time>
      </trkpt>
      <trkpt lat="43.95645" lon="1.83547">
        <ele>294.8</ele>
        <time>2023-07-23T08:48:14Z</time>
      </trkpt>
      <trkpt lat="43.95642" lon="1.83555">
        <ele>294.6</ele>
        <time>2023-07-23T08:48:15Z</time>
      </trkpt>
      <trkpt lat="43.95638" lon="1.83562">
        <ele>294.6</ele>
        <time>2023-07-23T08:48:16Z</time>
      </trkpt>
      <trkpt lat="43.95635" lon="1.83569">
        <ele>294.6</ele>
        <time>2023-07-23T08:48:17Z</time>
      </trkpt>
      <trkpt lat="43.95627" lon="1.83583">
        <ele>294.6</ele>
        <time>2023-07-23T08:48:18Z</time>
      </trkpt>
      <trkpt lat="43.95604" lon="1.83619">
        <ele>294.4</ele>
        <time>2023-07-23T08:48:24Z</time>
      </trkpt>
      <trkpt lat="43.95575" lon="1.83654">
        <ele>293.8</ele>
        <time>2023-07-23T08:48:29Z</time>
      </trkpt>
      <trkpt lat="43.95552" lon="1.83685">
        <ele>292.8</ele>
        <time>2023-07-23T08:48:33Z</time>
      </trkpt>
      <trkpt lat="43.9554" lon="1.83702">
        <ele>292</ele>
        <time>2023-07-23T08:48:35Z</time>
      </trkpt>
      <trkpt lat="43.95534" lon="1.83711">
        <ele>291.6</ele>
        <time>2023-07-23T08:48:36Z</time>
      </trkpt>
      <trkpt lat="43.9552" lon="1.83727">
        <ele>291.2</ele>
        <time>2023-07-23T08:48:37Z</time>
      </trkpt>
      <trkpt lat="43.95504" lon="1.83736">
        <ele>290.4</ele>
        <time>2023-07-23T08:48:39Z</time>
      </trkpt>
      <trkpt lat="43.95504" lon="1.83736">
        <ele>290.2</ele>
        <time>2023-07-23T08:48:40Z</time>
      </trkpt>
      <trkpt lat="43.95494" lon="1.83737">
        <ele>289.6</ele>
        <time>2023-07-23T08:48:41Z</time>
      </trkpt>
      <trkpt lat="43.95484" lon="1.83737">
        <ele>289.2</ele>
        <time>2023-07-23T08:48:42Z</time>
      </trkpt>
      <trkpt lat="43.95474" lon="1.83735">
        <ele>288.2</ele>
        <time>2023-07-23T08:48:43Z</time>
      </trkpt>
      <trkpt lat="43.95454" lon="1.83726">
        <ele>288</ele>
        <time>2023-07-23T08:48:44Z</time>
      </trkpt>
      <trkpt lat="43.95454" lon="1.83726">
        <ele>287.2</ele>
        <time>2023-07-23T08:48:45Z</time>
      </trkpt>
      <trkpt lat="43.95444" lon="1.83721">
        <ele>286.8</ele>
        <time>2023-07-23T08:48:46Z</time>
      </trkpt>
      <trkpt lat="43.95434" lon="1.83718">
        <ele>286.2</ele>
        <time>2023-07-23T08:48:47Z</time>
      </trkpt>
      <trkpt lat="43.95424" lon="1.83715">
        <ele>285</ele>
        <time>2023-07-23T08:48:48Z</time>
      </trkpt>
      <trkpt lat="43.95403" lon="1.83718">
        <ele>283.8</ele>
        <time>2023-07-23T08:48:50Z</time>
      </trkpt>
      <trkpt lat="43.95393" lon="1.83723">
        <ele>283.6</ele>
        <time>2023-07-23T08:48:51Z</time>
      </trkpt>
      <trkpt lat="43.95384" lon="1.8373">
        <ele>283.2</ele>
        <time>2023-07-23T08:48:52Z</time>
      </trkpt>
      <trkpt lat="43.95367" lon="1.83744">
        <ele>283</ele>
        <time>2023-07-23T08:48:53Z</time>
      </trkpt>
      <trkpt lat="43.95359" lon="1.83751">
        <ele>282.4</ele>
        <time>2023-07-23T08:48:54Z</time>
      </trkpt>
      <trkpt lat="43.9535" lon="1.83758">
        <ele>281.2</ele>
        <time>2023-07-23T08:48:56Z</time>
      </trkpt>
      <trkpt lat="43.9534" lon="1.83764">
        <ele>280.6</ele>
        <time>2023-07-23T08:48:57Z</time>
      </trkpt>
      <trkpt lat="43.95319" lon="1.8377">
        <ele>280.4</ele>
        <time>2023-07-23T08:48:58Z</time>
      </trkpt>
      <trkpt lat="43.95308" lon="1.8377">
        <ele>279.4</ele>
        <time>2023-07-23T08:48:59Z</time>
      </trkpt>
      <trkpt lat="43.95297" lon="1.83771">
        <ele>278</ele>
        <time>2023-07-23T08:49:01Z</time>
      </trkpt>
      <trkpt lat="43.95275" lon="1.83774">
        <ele>277.6</ele>
        <time>2023-07-23T08:49:02Z</time>
      </trkpt>
      <trkpt lat="43.95262" lon="1.83779">
        <ele>277</ele>
        <time>2023-07-23T08:49:03Z</time>
      </trkpt>
      <trkpt lat="43.95253" lon="1.83785">
        <ele>276.4</ele>
        <time>2023-07-23T08:49:04Z</time>
      </trkpt>
      <trkpt lat="43.95235" lon="1.83804">
        <ele>275.4</ele>
        <time>2023-07-23T08:49:06Z</time>
      </trkpt>
      <trkpt lat="43.95227" lon="1.83814">
        <ele>275</ele>
        <time>2023-07-23T08:49:07Z</time>
      </trkpt>
      <trkpt lat="43.95221" lon="1.83823">
        <ele>274.4</ele>
        <time>2023-07-23T08:49:08Z</time>
      </trkpt>
      <trkpt lat="43.95211" lon="1.83835">
        <ele>274</ele>
        <time>2023-07-23T08:49:09Z</time>
      </trkpt>
      <trkpt lat="43.95211" lon="1.83835">
        <ele>272.6</ele>
        <time>2023-07-23T08:49:10Z</time>
      </trkpt>
      <trkpt lat="43.95195" lon="1.83849">
        <ele>271.2</ele>
        <time>2023-07-23T08:49:12Z</time>
      </trkpt>
      <trkpt lat="43.95176" lon="1.83862">
        <ele>270.8</ele>
        <time>2023-07-23T08:49:13Z</time>
      </trkpt>
      <trkpt lat="43.95166" lon="1.83868">
        <ele>270.2</ele>
        <time>2023-07-23T08:49:15Z</time>
      </trkpt>
      <trkpt lat="43.95146" lon="1.83878">
        <ele>269.6</ele>
        <time>2023-07-23T08:49:16Z</time>
      </trkpt>
      <trkpt lat="43.95134" lon="1.83884">
        <ele>268.6</ele>
        <time>2023-07-23T08:49:17Z</time>
      </trkpt>
      <trkpt lat="43.95113" lon="1.83893">
        <ele>267.6</ele>
        <time>2023-07-23T08:49:19Z</time>
      </trkpt>
      <trkpt lat="43.95083" lon="1.83907">
        <ele>266.2</ele>
        <time>2023-07-23T08:49:22Z</time>
      </trkpt>
      <trkpt lat="43.9506" lon="1.83918">
        <ele>264.6</ele>
        <time>2023-07-23T08:49:24Z</time>
      </trkpt>
      <trkpt lat="43.9505" lon="1.83923">
        <ele>263.2</ele>
        <time>2023-07-23T08:49:26Z</time>
      </trkpt>
      <trkpt lat="43.9502" lon="1.83936">
        <ele>262</ele>
        <time>2023-07-23T08:49:28Z</time>
      </trkpt>
      <trkpt lat="43.95" lon="1.83945">
        <ele>260.4</ele>
        <time>2023-07-23T08:49:31Z</time>
      </trkpt>
      <trkpt lat="43.94969" lon="1.8396">
        <ele>259.4</ele>
        <time>2023-07-23T08:49:33Z</time>
      </trkpt>
      <trkpt lat="43.94959" lon="1.83966">
        <ele>258.2</ele>
        <time>2023-07-23T08:49:35Z</time>
      </trkpt>
      <trkpt lat="43.9495" lon="1.83972">
        <ele>257.6</ele>
        <time>2023-07-23T08:49:36Z</time>
      </trkpt>
      <trkpt lat="43.94941" lon="1.8398">
        <ele>256.8</ele>
        <time>2023-07-23T08:49:37Z</time>
      </trkpt>
      <trkpt lat="43.94925" lon="1.83998">
        <ele>256.4</ele>
        <time>2023-07-23T08:49:38Z</time>
      </trkpt>
      <trkpt lat="43.94925" lon="1.83998">
        <ele>256.2</ele>
        <time>2023-07-23T08:49:39Z</time>
      </trkpt>
      <trkpt lat="43.94918" lon="1.8401">
        <ele>255.6</ele>
        <time>2023-07-23T08:49:40Z</time>
      </trkpt>
      <trkpt lat="43.94913" lon="1.84022">
        <ele>255.2</ele>
        <time>2023-07-23T08:49:41Z</time>
      </trkpt>
      <trkpt lat="43.9491" lon="1.84036">
        <ele>254.6</ele>
        <time>2023-07-23T08:49:42Z</time>
      </trkpt>
      <trkpt lat="43.94908" lon="1.8405">
        <ele>254.2</ele>
        <time>2023-07-23T08:49:43Z</time>
      </trkpt>
      <trkpt lat="43.94907" lon="1.84065">
        <ele>253.4</ele>
        <time>2023-07-23T08:49:44Z</time>
      </trkpt>
      <trkpt lat="43.94907" lon="1.84079">
        <ele>253</ele>
        <time>2023-07-23T08:49:45Z</time>
      </trkpt>
      <trkpt lat="43.94909" lon="1.84109">
        <ele>251.4</ele>
        <time>2023-07-23T08:49:47Z</time>
      </trkpt>
      <trkpt lat="43.94912" lon="1.84123">
        <ele>251</ele>
        <time>2023-07-23T08:49:48Z</time>
      </trkpt>
      <trkpt lat="43.94915" lon="1.84138">
        <ele>250.2</ele>
        <time>2023-07-23T08:49:49Z</time>
      </trkpt>
      <trkpt lat="43.94924" lon="1.84181">
        <ele>248.8</ele>
        <time>2023-07-23T08:49:52Z</time>
      </trkpt>
      <trkpt lat="43.94927" lon="1.84196">
        <ele>247.8</ele>
        <time>2023-07-23T08:49:53Z</time>
      </trkpt>
      <trkpt lat="43.94929" lon="1.84211">
        <ele>246.8</ele>
        <time>2023-07-23T08:49:54Z</time>
      </trkpt>
      <trkpt lat="43.9493" lon="1.84226">
        <ele>246.4</ele>
        <time>2023-07-23T08:49:55Z</time>
      </trkpt>
      <trkpt lat="43.9493" lon="1.84242">
        <ele>245.6</ele>
        <time>2023-07-23T08:49:56Z</time>
      </trkpt>
      <trkpt lat="43.9493" lon="1.84256">
        <ele>245</ele>
        <time>2023-07-23T08:49:57Z</time>
      </trkpt>
      <trkpt lat="43.94928" lon="1.84271">
        <ele>244</ele>
        <time>2023-07-23T08:49:58Z</time>
      </trkpt>
      <trkpt lat="43.94921" lon="1.84299">
        <ele>243</ele>
        <time>2023-07-23T08:50:00Z</time>
      </trkpt>
      <trkpt lat="43.94917" lon="1.84312">
        <ele>242.8</ele>
        <time>2023-07-23T08:50:01Z</time>
      </trkpt>
      <trkpt lat="43.94912" lon="1.84324">
        <ele>242</ele>
        <time>2023-07-23T08:50:02Z</time>
      </trkpt>
      <trkpt lat="43.94908" lon="1.84334">
        <ele>241.2</ele>
        <time>2023-07-23T08:50:03Z</time>
      </trkpt>
      <trkpt lat="43.94903" lon="1.84345">
        <ele>241</ele>
        <time>2023-07-23T08:50:04Z</time>
      </trkpt>
      <trkpt lat="43.94898" lon="1.84356">
        <ele>240.6</ele>
        <time>2023-07-23T08:50:05Z</time>
      </trkpt>
      <trkpt lat="43.94894" lon="1.84367">
        <ele>240.4</ele>
        <time>2023-07-23T08:50:06Z</time>
      </trkpt>
      <trkpt lat="43.94891" lon="1.84378">
        <ele>240.2</ele>
        <time>2023-07-23T08:50:07Z</time>
      </trkpt>
      <trkpt lat="43.94888" lon="1.84389">
        <ele>240.2</ele>
        <time>2023-07-23T08:50:08Z</time>
      </trkpt>
      <trkpt lat="43.94887" lon="1.84399">
        <ele>239.8</ele>
        <time>2023-07-23T08:50:09Z</time>
      </trkpt>
      <trkpt lat="43.94886" lon="1.8441">
        <ele>239.6</ele>
        <time>2023-07-23T08:50:10Z</time>
      </trkpt>
      <trkpt lat="43.94886" lon="1.8442">
        <ele>239.4</ele>
        <time>2023-07-23T08:50:11Z</time>
      </trkpt>
      <trkpt lat="43.94886" lon="1.84431">
        <ele>239.2</ele>
        <time>2023-07-23T08:50:12Z</time>
      </trkpt>
      <trkpt lat="43.94886" lon="1.8444">
        <ele>239</ele>
        <time>2023-07-23T08:50:13Z</time>
      </trkpt>
      <trkpt lat="43.94887" lon="1.8445">
        <ele>238.8</ele>
        <time>2023-07-23T08:50:14Z</time>
      </trkpt>
      <trkpt lat="43.94888" lon="1.84459">
        <ele>238.8</ele>
        <time>2023-07-23T08:50:15Z</time>
      </trkpt>
      <trkpt lat="43.9489" lon="1.84468">
        <ele>238.6</ele>
        <time>2023-07-23T08:50:16Z</time>
      </trkpt>
      <trkpt lat="43.94891" lon="1.84477">
        <ele>238.6</ele>
        <time>2023-07-23T08:50:17Z</time>
      </trkpt>
      <trkpt lat="43.94892" lon="1.84485">
        <ele>238.4</ele>
        <time>2023-07-23T08:50:18Z</time>
      </trkpt>
      <trkpt lat="43.94893" lon="1.84493">
        <ele>238.4</ele>
        <time>2023-07-23T08:50:19Z</time>
      </trkpt>
      <trkpt lat="43.94894" lon="1.84501">
        <ele>238.4</ele>
        <time>2023-07-23T08:50:20Z</time>
      </trkpt>
      <trkpt lat="43.94895" lon="1.84509">
        <ele>238.4</ele>
        <time>2023-07-23T08:50:21Z</time>
      </trkpt>
      <trkpt lat="43.94896" lon="1.84516">
        <ele>238.2</ele>
        <time>2023-07-23T08:50:22Z</time>
      </trkpt>
      <trkpt lat="43.94897" lon="1.84524">
        <ele>238.2</ele>
        <time>2023-07-23T08:50:23Z</time>
      </trkpt>
      <trkpt lat="43.94898" lon="1.84538">
        <ele>238.4</ele>
        <time>2023-07-23T08:50:25Z</time>
      </trkpt>
      <trkpt lat="43.94899" lon="1.84545">
        <ele>238.4</ele>
        <time>2023-07-23T08:50:26Z</time>
      </trkpt>
      <trkpt lat="43.949" lon="1.8455">
        <ele>238.4</ele>
        <time>2023-07-23T08:50:27Z</time>
      </trkpt>
      <trkpt lat="43.949" lon="1.84556">
        <ele>238.4</ele>
        <time>2023-07-23T08:50:28Z</time>
      </trkpt>
      <trkpt lat="43.949" lon="1.84562">
        <ele>238.4</ele>
        <time>2023-07-23T08:50:29Z</time>
      </trkpt>
      <trkpt lat="43.94901" lon="1.84567">
        <ele>238.6</ele>
        <time>2023-07-23T08:50:30Z</time>
      </trkpt>
      <trkpt lat="43.94901" lon="1.84573">
        <ele>238.6</ele>
        <time>2023-07-23T08:50:31Z</time>
      </trkpt>
      <trkpt lat="43.94902" lon="1.84578">
        <ele>238.8</ele>
        <time>2023-07-23T08:50:32Z</time>
      </trkpt>
      <trkpt lat="43.94902" lon="1.84589">
        <ele>238.8</ele>
        <time>2023-07-23T08:50:34Z</time>
      </trkpt>
      <trkpt lat="43.94902" lon="1.84594">
        <ele>239</ele>
        <time>2023-07-23T08:50:35Z</time>
      </trkpt>
      <trkpt lat="43.94901" lon="1.84599">
        <ele>239.2</ele>
        <time>2023-07-23T08:50:36Z</time>
      </trkpt>
      <trkpt lat="43.94901" lon="1.84604">
        <ele>239.4</ele>
        <time>2023-07-23T08:50:37Z</time>
      </trkpt>
      <trkpt lat="43.949" lon="1.84609">
        <ele>239.6</ele>
        <time>2023-07-23T08:50:38Z</time>
      </trkpt>
      <trkpt lat="43.94899" lon="1.84613">
        <ele>239.8</ele>
        <time>2023-07-23T08:50:39Z</time>
      </trkpt>
      <trkpt lat="43.94898" lon="1.84617">
        <ele>240</ele>
        <time>2023-07-23T08:50:40Z</time>
      </trkpt>
      <trkpt lat="43.94897" lon="1.84621">
        <ele>240</ele>
        <time>2023-07-23T08:50:41Z</time>
      </trkpt>
      <trkpt lat="43.94895" lon="1.84625">
        <ele>240</ele>
        <time>2023-07-23T08:50:42Z</time>
      </trkpt>
      <trkpt lat="43.94893" lon="1.84629">
        <ele>240.2</ele>
        <time>2023-07-23T08:50:43Z</time>
      </trkpt>
      <trkpt lat="43.94891" lon="1.84633">
        <ele>240.4</ele>
        <time>2023-07-23T08:50:44Z</time>
      </trkpt>
      <trkpt lat="43.94889" lon="1.84636">
        <ele>240.4</ele>
        <time>2023-07-23T08:50:45Z</time>
      </trkpt>
      <trkpt lat="43.94887" lon="1.8464">
        <ele>240.6</ele>
        <time>2023-07-23T08:50:46Z</time>
      </trkpt>
      <trkpt lat="43.94884" lon="1.84642">
        <ele>240.8</ele>
        <time>2023-07-23T08:50:47Z</time>
      </trkpt>
      <trkpt lat="43.94881" lon="1.84645">
        <ele>241</ele>
        <time>2023-07-23T08:50:48Z</time>
      </trkpt>
      <trkpt lat="43.94879" lon="1.84648">
        <ele>241.2</ele>
        <time>2023-07-23T08:50:49Z</time>
      </trkpt>
      <trkpt lat="43.94876" lon="1.84651">
        <ele>241.4</ele>
        <time>2023-07-23T08:50:50Z</time>
      </trkpt>
      <trkpt lat="43.94865" lon="1.84661">
        <ele>241.8</ele>
        <time>2023-07-23T08:50:54Z</time>
      </trkpt>
      <trkpt lat="43.94859" lon="1.84666">
        <ele>242.2</ele>
        <time>2023-07-23T08:50:56Z</time>
      </trkpt>
      <trkpt lat="43.94857" lon="1.84669">
        <ele>242.2</ele>
        <time>2023-07-23T08:50:57Z</time>
      </trkpt>
      <trkpt lat="43.94853" lon="1.84672">
        <ele>242.4</ele>
        <time>2023-07-23T08:50:58Z</time>
      </trkpt>
      <trkpt lat="43.9485" lon="1.84675">
        <ele>242.4</ele>
        <time>2023-07-23T08:50:59Z</time>
      </trkpt>
      <trkpt lat="43.94847" lon="1.84677">
        <ele>242.4</ele>
        <time>2023-07-23T08:51:00Z</time>
      </trkpt>
      <trkpt lat="43.94845" lon="1.8468">
        <ele>242.6</ele>
        <time>2023-07-23T08:51:01Z</time>
      </trkpt>
      <trkpt lat="43.94842" lon="1.84682">
        <ele>242.8</ele>
        <time>2023-07-23T08:51:02Z</time>
      </trkpt>
      <trkpt lat="43.94839" lon="1.84684">
        <ele>242.8</ele>
        <time>2023-07-23T08:51:03Z</time>
      </trkpt>
      <trkpt lat="43.94835" lon="1.84687">
        <ele>243</ele>
        <time>2023-07-23T08:51:04Z</time>
      </trkpt>
      <trkpt lat="43.94832" lon="1.84689">
        <ele>243.2</ele>
        <time>2023-07-23T08:51:05Z</time>
      </trkpt>
      <trkpt lat="43.94829" lon="1.84692">
        <ele>243.2</ele>
        <time>2023-07-23T08:51:06Z</time>
      </trkpt>
      <trkpt lat="43.94826" lon="1.84695">
        <ele>243.2</ele>
        <time>2023-07-23T08:51:07Z</time>
      </trkpt>
      <trkpt lat="43.94823" lon="1.84697">
        <ele>243.4</ele>
        <time>2023-07-23T08:51:08Z</time>
      </trkpt>
      <trkpt lat="43.9482" lon="1.847">
        <ele>243.4</ele>
        <time>2023-07-23T08:51:09Z</time>
      </trkpt>
      <trkpt lat="43.94817" lon="1.84703">
        <ele>243.4</ele>
        <time>2023-07-23T08:51:10Z</time>
      </trkpt>
      <trkpt lat="43.94813" lon="1.84706">
        <ele>243.6</ele>
        <time>2023-07-23T08:51:11Z</time>
      </trkpt>
      <trkpt lat="43.94809" lon="1.84709">
        <ele>243.6</ele>
        <time>2023-07-23T08:51:12Z</time>
      </trkpt>
      <trkpt lat="43.94805" lon="1.84712">
        <ele>243.6</ele>
        <time>2023-07-23T08:51:13Z</time>
      </trkpt>
      <trkpt lat="43.94801" lon="1.84715">
        <ele>243.6</ele>
        <time>2023-07-23T08:51:14Z</time>
      </trkpt>
      <trkpt lat="43.94798" lon="1.84718">
        <ele>243.8</ele>
        <time>2023-07-23T08:51:15Z</time>
      </trkpt>
      <trkpt lat="43.94795" lon="1.84721">
        <ele>243.8</ele>
        <time>2023-07-23T08:51:16Z</time>
      </trkpt>
      <trkpt lat="43.94791" lon="1.84724">
        <ele>243.8</ele>
        <time>2023-07-23T08:51:17Z</time>
      </trkpt>
      <trkpt lat="43.94788" lon="1.84727">
        <ele>243.8</ele>
        <time>2023-07-23T08:51:18Z</time>
      </trkpt>
      <trkpt lat="43.94785" lon="1.84731">
        <ele>244</ele>
        <time>2023-07-23T08:51:19Z</time>
      </trkpt>
      <trkpt lat="43.94782" lon="1.84734">
        <ele>244</ele>
        <time>2023-07-23T08:51:20Z</time>
      </trkpt>
      <trkpt lat="43.94758" lon="1.84764">
        <ele>244.4</ele>
        <time>2023-07-23T08:51:28Z</time>
      </trkpt>
      <trkpt lat="43.9475" lon="1.84777">
        <ele>244.4</ele>
        <time>2023-07-23T08:51:31Z</time>
      </trkpt>
      <trkpt lat="43.94735" lon="1.84804">
        <ele>244.8</ele>
        <time>2023-07-23T08:51:37Z</time>
      </trkpt>
      <trkpt lat="43.94729" lon="1.84815">
        <ele>244.8</ele>
        <time>2023-07-23T08:51:39Z</time>
      </trkpt>
      <trkpt lat="43.94723" lon="1.84828">
        <ele>245</ele>
        <time>2023-07-23T08:51:41Z</time>
      </trkpt>
      <trkpt lat="43.94721" lon="1.84834">
        <ele>245</ele>
        <time>2023-07-23T08:51:42Z</time>
      </trkpt>
      <trkpt lat="43.94712" lon="1.8486">
        <ele>245.2</ele>
        <time>2023-07-23T08:51:46Z</time>
      </trkpt>
      <trkpt lat="43.94708" lon="1.84873">
        <ele>245.2</ele>
        <time>2023-07-23T08:51:48Z</time>
      </trkpt>
      <trkpt lat="43.94701" lon="1.84908">
        <ele>245.4</ele>
        <time>2023-07-23T08:51:53Z</time>
      </trkpt>
      <trkpt lat="43.947" lon="1.84915">
        <ele>245.4</ele>
        <time>2023-07-23T08:51:54Z</time>
      </trkpt>
      <trkpt lat="43.94692" lon="1.84966">
        <ele>246.2</ele>
        <time>2023-07-23T08:52:01Z</time>
      </trkpt>
      <trkpt lat="43.94692" lon="1.84981">
        <ele>246.6</ele>
        <time>2023-07-23T08:52:03Z</time>
      </trkpt>
      <trkpt lat="43.94691" lon="1.84994">
        <ele>246.8</ele>
        <time>2023-07-23T08:52:05Z</time>
      </trkpt>
      <trkpt lat="43.94687" lon="1.85029">
        <ele>247</ele>
        <time>2023-07-23T08:52:09Z</time>
      </trkpt>
      <trkpt lat="43.94676" lon="1.85094">
        <ele>247</ele>
        <time>2023-07-23T08:52:19Z</time>
      </trkpt>
      <trkpt lat="43.94674" lon="1.8511">
        <ele>247</ele>
        <time>2023-07-23T08:52:21Z</time>
      </trkpt>
      <trkpt lat="43.94677" lon="1.85134">
        <ele>246.8</ele>
        <time>2023-07-23T08:52:23Z</time>
      </trkpt>
      <trkpt lat="43.94678" lon="1.8514">
        <ele>246.8</ele>
        <time>2023-07-23T08:52:24Z</time>
      </trkpt>
      <trkpt lat="43.94678" lon="1.8514">
        <ele>246.6</ele>
        <time>2023-07-23T08:52:25Z</time>
      </trkpt>
      <trkpt lat="43.94686" lon="1.85156">
        <ele>246.6</ele>
        <time>2023-07-23T08:52:27Z</time>
      </trkpt>
      <trkpt lat="43.94688" lon="1.8516">
        <ele>246.6</ele>
        <time>2023-07-23T08:52:28Z</time>
      </trkpt>
      <trkpt lat="43.94691" lon="1.85164">
        <ele>246.6</ele>
        <time>2023-07-23T08:52:29Z</time>
      </trkpt>
      <trkpt lat="43.94693" lon="1.85169">
        <ele>246.6</ele>
        <time>2023-07-23T08:52:30Z</time>
      </trkpt>
      <trkpt lat="43.94697" lon="1.8518">
        <ele>246.6</ele>
        <time>2023-07-23T08:52:32Z</time>
      </trkpt>
      <trkpt lat="43.94699" lon="1.85185">
        <ele>246.6</ele>
        <time>2023-07-23T08:52:33Z</time>
      </trkpt>
      <trkpt lat="43.94701" lon="1.8519">
        <ele>246.8</ele>
        <time>2023-07-23T08:52:34Z</time>
      </trkpt>
      <trkpt lat="43.94703" lon="1.85195">
        <ele>247</ele>
        <time>2023-07-23T08:52:35Z</time>
      </trkpt>
      <trkpt lat="43.94705" lon="1.852">
        <ele>247</ele>
        <time>2023-07-23T08:52:36Z</time>
      </trkpt>
      <trkpt lat="43.94707" lon="1.85204">
        <ele>247.2</ele>
        <time>2023-07-23T08:52:37Z</time>
      </trkpt>
      <trkpt lat="43.94709" lon="1.85209">
        <ele>247.4</ele>
        <time>2023-07-23T08:52:38Z</time>
      </trkpt>
      <trkpt lat="43.94712" lon="1.85214">
        <ele>247.6</ele>
        <time>2023-07-23T08:52:39Z</time>
      </trkpt>
      <trkpt lat="43.94714" lon="1.85219">
        <ele>247.6</ele>
        <time>2023-07-23T08:52:40Z</time>
      </trkpt>
      <trkpt lat="43.9472" lon="1.85234">
        <ele>248</ele>
        <time>2023-07-23T08:52:43Z</time>
      </trkpt>
      <trkpt lat="43.94727" lon="1.85255">
        <ele>248.4</ele>
        <time>2023-07-23T08:52:47Z</time>
      </trkpt>
      <trkpt lat="43.9473" lon="1.85266">
        <ele>248.6</ele>
        <time>2023-07-23T08:52:50Z</time>
      </trkpt>
      <trkpt lat="43.94739" lon="1.85302">
        <ele>249.6</ele>
        <time>2023-07-23T08:52:55Z</time>
      </trkpt>
      <trkpt lat="43.94742" lon="1.85318">
        <ele>249.8</ele>
        <time>2023-07-23T08:52:58Z</time>
      </trkpt>
      <trkpt lat="43.94744" lon="1.85324">
        <ele>250.2</ele>
        <time>2023-07-23T08:52:59Z</time>
      </trkpt>
      <trkpt lat="43.94745" lon="1.85329">
        <ele>250</ele>
        <time>2023-07-23T08:53:00Z</time>
      </trkpt>
      <trkpt lat="43.94746" lon="1.85335">
        <ele>250</ele>
        <time>2023-07-23T08:53:01Z</time>
      </trkpt>
      <trkpt lat="43.94748" lon="1.8534">
        <ele>250.2</ele>
        <time>2023-07-23T08:53:02Z</time>
      </trkpt>
      <trkpt lat="43.94749" lon="1.85346">
        <ele>250.2</ele>
        <time>2023-07-23T08:53:03Z</time>
      </trkpt>
      <trkpt lat="43.94749" lon="1.85352">
        <ele>250.4</ele>
        <time>2023-07-23T08:53:04Z</time>
      </trkpt>
      <trkpt lat="43.9475" lon="1.85359">
        <ele>250.4</ele>
        <time>2023-07-23T08:53:05Z</time>
      </trkpt>
      <trkpt lat="43.9475" lon="1.85359">
        <ele>250.6</ele>
        <time>2023-07-23T08:53:06Z</time>
      </trkpt>
      <trkpt lat="43.94751" lon="1.85371">
        <ele>251</ele>
        <time>2023-07-23T08:53:07Z</time>
      </trkpt>
      <trkpt lat="43.94751" lon="1.85377">
        <ele>251</ele>
        <time>2023-07-23T08:53:08Z</time>
      </trkpt>
      <trkpt lat="43.94751" lon="1.85384">
        <ele>251</ele>
        <time>2023-07-23T08:53:09Z</time>
      </trkpt>
      <trkpt lat="43.94751" lon="1.8539">
        <ele>251.4</ele>
        <time>2023-07-23T08:53:10Z</time>
      </trkpt>
      <trkpt lat="43.94751" lon="1.85396">
        <ele>251.6</ele>
        <time>2023-07-23T08:53:11Z</time>
      </trkpt>
      <trkpt lat="43.9475" lon="1.85403">
        <ele>251.6</ele>
        <time>2023-07-23T08:53:12Z</time>
      </trkpt>
      <trkpt lat="43.9475" lon="1.85409">
        <ele>251.8</ele>
        <time>2023-07-23T08:53:13Z</time>
      </trkpt>
      <trkpt lat="43.94749" lon="1.85415">
        <ele>251.8</ele>
        <time>2023-07-23T08:53:14Z</time>
      </trkpt>
      <trkpt lat="43.94748" lon="1.85423">
        <ele>252</ele>
        <time>2023-07-23T08:53:15Z</time>
      </trkpt>
      <trkpt lat="43.94747" lon="1.85429">
        <ele>252</ele>
        <time>2023-07-23T08:53:16Z</time>
      </trkpt>
      <trkpt lat="43.94746" lon="1.85435">
        <ele>252.2</ele>
        <time>2023-07-23T08:53:17Z</time>
      </trkpt>
      <trkpt lat="43.94746" lon="1.85439">
        <ele>252.2</ele>
        <time>2023-07-23T08:53:18Z</time>
      </trkpt>
      <trkpt lat="43.94745" lon="1.85444">
        <ele>252.4</ele>
        <time>2023-07-23T08:53:19Z</time>
      </trkpt>
      <trkpt lat="43.94744" lon="1.85451">
        <ele>252.4</ele>
        <time>2023-07-23T08:53:20Z</time>
      </trkpt>
      <trkpt lat="43.94743" lon="1.85455">
        <ele>252.4</ele>
        <time>2023-07-23T08:53:21Z</time>
      </trkpt>
      <trkpt lat="43.94743" lon="1.85461">
        <ele>252.6</ele>
        <time>2023-07-23T08:53:22Z</time>
      </trkpt>
      <trkpt lat="43.94742" lon="1.85465">
        <ele>252.8</ele>
        <time>2023-07-23T08:53:23Z</time>
      </trkpt>
      <trkpt lat="43.94741" lon="1.8547">
        <ele>253</ele>
        <time>2023-07-23T08:53:24Z</time>
      </trkpt>
      <trkpt lat="43.9474" lon="1.85475">
        <ele>253.2</ele>
        <time>2023-07-23T08:53:25Z</time>
      </trkpt>
      <trkpt lat="43.9474" lon="1.8548">
        <ele>253.2</ele>
        <time>2023-07-23T08:53:26Z</time>
      </trkpt>
      <trkpt lat="43.94739" lon="1.85484">
        <ele>253.4</ele>
        <time>2023-07-23T08:53:27Z</time>
      </trkpt>
      <trkpt lat="43.94738" lon="1.85488">
        <ele>253.4</ele>
        <time>2023-07-23T08:53:28Z</time>
      </trkpt>
      <trkpt lat="43.94738" lon="1.85492">
        <ele>253.8</ele>
        <time>2023-07-23T08:53:29Z</time>
      </trkpt>
      <trkpt lat="43.94737" lon="1.85496">
        <ele>253.8</ele>
        <time>2023-07-23T08:53:30Z</time>
      </trkpt>
      <trkpt lat="43.94737" lon="1.85501">
        <ele>254</ele>
        <time>2023-07-23T08:53:31Z</time>
      </trkpt>
      <trkpt lat="43.94736" lon="1.85505">
        <ele>254</ele>
        <time>2023-07-23T08:53:32Z</time>
      </trkpt>
      <trkpt lat="43.94736" lon="1.85508">
        <ele>254.2</ele>
        <time>2023-07-23T08:53:33Z</time>
      </trkpt>
      <trkpt lat="43.94735" lon="1.85512">
        <ele>254.4</ele>
        <time>2023-07-23T08:53:34Z</time>
      </trkpt>
      <trkpt lat="43.94734" lon="1.85516">
        <ele>254.4</ele>
        <time>2023-07-23T08:53:35Z</time>
      </trkpt>
      <trkpt lat="43.94734" lon="1.8552">
        <ele>254.6</ele>
        <time>2023-07-23T08:53:36Z</time>
      </trkpt>
      <trkpt lat="43.94733" lon="1.85524">
        <ele>254.8</ele>
        <time>2023-07-23T08:53:37Z</time>
      </trkpt>
      <trkpt lat="43.94733" lon="1.85526">
        <ele>255.2</ele>
        <time>2023-07-23T08:53:38Z</time>
      </trkpt>
      <trkpt lat="43.94732" lon="1.8553">
        <ele>255.2</ele>
        <time>2023-07-23T08:53:39Z</time>
      </trkpt>
      <trkpt lat="43.94732" lon="1.85533">
        <ele>255.6</ele>
        <time>2023-07-23T08:53:40Z</time>
      </trkpt>
      <trkpt lat="43.94731" lon="1.85537">
        <ele>255.8</ele>
        <time>2023-07-23T08:53:41Z</time>
      </trkpt>
      <trkpt lat="43.9473" lon="1.8554">
        <ele>255.8</ele>
        <time>2023-07-23T08:53:42Z</time>
      </trkpt>
      <trkpt lat="43.9473" lon="1.85544">
        <ele>256</ele>
        <time>2023-07-23T08:53:43Z</time>
      </trkpt>
      <trkpt lat="43.94729" lon="1.85546">
        <ele>256.2</ele>
        <time>2023-07-23T08:53:44Z</time>
      </trkpt>
      <trkpt lat="43.94729" lon="1.8555">
        <ele>256.4</ele>
        <time>2023-07-23T08:53:45Z</time>
      </trkpt>
      <trkpt lat="43.94728" lon="1.85554">
        <ele>256.4</ele>
        <time>2023-07-23T08:53:46Z</time>
      </trkpt>
      <trkpt lat="43.94728" lon="1.85557">
        <ele>256.6</ele>
        <time>2023-07-23T08:53:47Z</time>
      </trkpt>
      <trkpt lat="43.94727" lon="1.8556">
        <ele>256.8</ele>
        <time>2023-07-23T08:53:48Z</time>
      </trkpt>
      <trkpt lat="43.94727" lon="1.85563">
        <ele>257.2</ele>
        <time>2023-07-23T08:53:49Z</time>
      </trkpt>
      <trkpt lat="43.94727" lon="1.85566">
        <ele>257.4</ele>
        <time>2023-07-23T08:53:50Z</time>
      </trkpt>
      <trkpt lat="43.94726" lon="1.85569">
        <ele>257.4</ele>
        <time>2023-07-23T08:53:51Z</time>
      </trkpt>
      <trkpt lat="43.94725" lon="1.85572">
        <ele>257.8</ele>
        <time>2023-07-23T08:53:52Z</time>
      </trkpt>
      <trkpt lat="43.94725" lon="1.85575">
        <ele>257.8</ele>
        <time>2023-07-23T08:53:53Z</time>
      </trkpt>
      <trkpt lat="43.94724" lon="1.85578">
        <ele>258</ele>
        <time>2023-07-23T08:53:54Z</time>
      </trkpt>
      <trkpt lat="43.94724" lon="1.85581">
        <ele>258.2</ele>
        <time>2023-07-23T08:53:55Z</time>
      </trkpt>
      <trkpt lat="43.94724" lon="1.85584">
        <ele>258.4</ele>
        <time>2023-07-23T08:53:56Z</time>
      </trkpt>
      <trkpt lat="43.94724" lon="1.85588">
        <ele>258.6</ele>
        <time>2023-07-23T08:53:57Z</time>
      </trkpt>
      <trkpt lat="43.94724" lon="1.85592">
        <ele>259</ele>
        <time>2023-07-23T08:53:58Z</time>
      </trkpt>
      <trkpt lat="43.94723" lon="1.85595">
        <ele>259.2</ele>
        <time>2023-07-23T08:53:59Z</time>
      </trkpt>
      <trkpt lat="43.94723" lon="1.85599">
        <ele>259.4</ele>
        <time>2023-07-23T08:54:00Z</time>
      </trkpt>
      <trkpt lat="43.94723" lon="1.85602">
        <ele>259.6</ele>
        <time>2023-07-23T08:54:01Z</time>
      </trkpt>
      <trkpt lat="43.94723" lon="1.85607">
        <ele>259.6</ele>
        <time>2023-07-23T08:54:02Z</time>
      </trkpt>
      <trkpt lat="43.94722" lon="1.8561">
        <ele>259.8</ele>
        <time>2023-07-23T08:54:03Z</time>
      </trkpt>
      <trkpt lat="43.94722" lon="1.85613">
        <ele>260</ele>
        <time>2023-07-23T08:54:04Z</time>
      </trkpt>
      <trkpt lat="43.94722" lon="1.85616">
        <ele>260.4</ele>
        <time>2023-07-23T08:54:05Z</time>
      </trkpt>
      <trkpt lat="43.94722" lon="1.8562">
        <ele>260.4</ele>
        <time>2023-07-23T08:54:06Z</time>
      </trkpt>
      <trkpt lat="43.94722" lon="1.85624">
        <ele>260.4</ele>
        <time>2023-07-23T08:54:07Z</time>
      </trkpt>
      <trkpt lat="43.94722" lon="1.85627">
        <ele>260.8</ele>
        <time>2023-07-23T08:54:08Z</time>
      </trkpt>
      <trkpt lat="43.94722" lon="1.85631">
        <ele>260.8</ele>
        <time>2023-07-23T08:54:09Z</time>
      </trkpt>
      <trkpt lat="43.94722" lon="1.85633">
        <ele>261</ele>
        <time>2023-07-23T08:54:10Z</time>
      </trkpt>
      <trkpt lat="43.94722" lon="1.85637">
        <ele>261.2</ele>
        <time>2023-07-23T08:54:11Z</time>
      </trkpt>
      <trkpt lat="43.94722" lon="1.85641">
        <ele>261.4</ele>
        <time>2023-07-23T08:54:12Z</time>
      </trkpt>
      <trkpt lat="43.94722" lon="1.85645">
        <ele>261.4</ele>
        <time>2023-07-23T08:54:13Z</time>
      </trkpt>
      <trkpt lat="43.94722" lon="1.85649">
        <ele>261.4</ele>
        <time>2023-07-23T08:54:14Z</time>
      </trkpt>
      <trkpt lat="43.94723" lon="1.85652">
        <ele>261.6</ele>
        <time>2023-07-23T08:54:15Z</time>
      </trkpt>
      <trkpt lat="43.94723" lon="1.85657">
        <ele>261.6</ele>
        <time>2023-07-23T08:54:16Z</time>
      </trkpt>
      <trkpt lat="43.94723" lon="1.85661">
        <ele>261.8</ele>
        <time>2023-07-23T08:54:17Z</time>
      </trkpt>
      <trkpt lat="43.94723" lon="1.85666">
        <ele>261.8</ele>
        <time>2023-07-23T08:54:18Z</time>
      </trkpt>
      <trkpt lat="43.94723" lon="1.85666">
        <ele>261.8</ele>
        <time>2023-07-23T08:54:19Z</time>
      </trkpt>
      <trkpt lat="43.94723" lon="1.85675">
        <ele>261.8</ele>
        <time>2023-07-23T08:54:20Z</time>
      </trkpt>
      <trkpt lat="43.94724" lon="1.8568">
        <ele>262</ele>
        <time>2023-07-23T08:54:21Z</time>
      </trkpt>
      <trkpt lat="43.94724" lon="1.85685">
        <ele>262</ele>
        <time>2023-07-23T08:54:22Z</time>
      </trkpt>
      <trkpt lat="43.94724" lon="1.85692">
        <ele>262</ele>
        <time>2023-07-23T08:54:23Z</time>
      </trkpt>
      <trkpt lat="43.94724" lon="1.85698">
        <ele>262</ele>
        <time>2023-07-23T08:54:24Z</time>
      </trkpt>
      <trkpt lat="43.94724" lon="1.85704">
        <ele>262</ele>
        <time>2023-07-23T08:54:25Z</time>
      </trkpt>
      <trkpt lat="43.94724" lon="1.85709">
        <ele>262</ele>
        <time>2023-07-23T08:54:26Z</time>
      </trkpt>
      <trkpt lat="43.94724" lon="1.85715">
        <ele>262</ele>
        <time>2023-07-23T08:54:27Z</time>
      </trkpt>
      <trkpt lat="43.94724" lon="1.85722">
        <ele>261.8</ele>
        <time>2023-07-23T08:54:28Z</time>
      </trkpt>
      <trkpt lat="43.94724" lon="1.85728">
        <ele>261.8</ele>
        <time>2023-07-23T08:54:29Z</time>
      </trkpt>
      <trkpt lat="43.94724" lon="1.85735">
        <ele>261.6</ele>
        <time>2023-07-23T08:54:30Z</time>
      </trkpt>
      <trkpt lat="43.94723" lon="1.8574">
        <ele>261.6</ele>
        <time>2023-07-23T08:54:31Z</time>
      </trkpt>
      <trkpt lat="43.94716" lon="1.85786">
        <ele>261.2</ele>
        <time>2023-07-23T08:54:38Z</time>
      </trkpt>
      <trkpt lat="43.94703" lon="1.85826">
        <ele>260.8</ele>
        <time>2023-07-23T08:54:44Z</time>
      </trkpt>
      <trkpt lat="43.947" lon="1.85831">
        <ele>260.8</ele>
        <time>2023-07-23T08:54:45Z</time>
      </trkpt>
      <trkpt lat="43.94688" lon="1.85843">
        <ele>260.4</ele>
        <time>2023-07-23T08:54:48Z</time>
      </trkpt>
      <trkpt lat="43.94682" lon="1.85848">
        <ele>260.4</ele>
        <time>2023-07-23T08:54:49Z</time>
      </trkpt>
      <trkpt lat="43.94674" lon="1.85854">
        <ele>260.4</ele>
        <time>2023-07-23T08:54:51Z</time>
      </trkpt>
      <trkpt lat="43.94659" lon="1.85864">
        <ele>260</ele>
        <time>2023-07-23T08:54:54Z</time>
      </trkpt>
      <trkpt lat="43.94655" lon="1.85867">
        <ele>259.8</ele>
        <time>2023-07-23T08:54:55Z</time>
      </trkpt>
      <trkpt lat="43.94644" lon="1.85876">
        <ele>259.4</ele>
        <time>2023-07-23T08:54:58Z</time>
      </trkpt>
      <trkpt lat="43.94638" lon="1.85881">
        <ele>259.4</ele>
        <time>2023-07-23T08:54:59Z</time>
      </trkpt>
      <trkpt lat="43.94608" lon="1.85906">
        <ele>259.2</ele>
        <time>2023-07-23T08:55:06Z</time>
      </trkpt>
      <trkpt lat="43.94588" lon="1.85922">
        <ele>259.2</ele>
        <time>2023-07-23T08:55:11Z</time>
      </trkpt>
      <trkpt lat="43.94585" lon="1.85925">
        <ele>259.2</ele>
        <time>2023-07-23T08:55:12Z</time>
      </trkpt>
      <trkpt lat="43.94582" lon="1.85927">
        <ele>259.4</ele>
        <time>2023-07-23T08:55:13Z</time>
      </trkpt>
      <trkpt lat="43.94579" lon="1.8593">
        <ele>259.6</ele>
        <time>2023-07-23T08:55:14Z</time>
      </trkpt>
      <trkpt lat="43.94574" lon="1.85934">
        <ele>259.8</ele>
        <time>2023-07-23T08:55:15Z</time>
      </trkpt>
      <trkpt lat="43.94571" lon="1.85937">
        <ele>259.8</ele>
        <time>2023-07-23T08:55:16Z</time>
      </trkpt>
      <trkpt lat="43.94567" lon="1.8594">
        <ele>260</ele>
        <time>2023-07-23T08:55:17Z</time>
      </trkpt>
      <trkpt lat="43.94564" lon="1.85944">
        <ele>260.2</ele>
        <time>2023-07-23T08:55:18Z</time>
      </trkpt>
      <trkpt lat="43.9456" lon="1.85948">
        <ele>260.2</ele>
        <time>2023-07-23T08:55:19Z</time>
      </trkpt>
      <trkpt lat="43.94556" lon="1.85951">
        <ele>260.4</ele>
        <time>2023-07-23T08:55:20Z</time>
      </trkpt>
      <trkpt lat="43.94552" lon="1.85956">
        <ele>260.4</ele>
        <time>2023-07-23T08:55:21Z</time>
      </trkpt>
      <trkpt lat="43.94548" lon="1.85961">
        <ele>260.4</ele>
        <time>2023-07-23T08:55:22Z</time>
      </trkpt>
      <trkpt lat="43.94533" lon="1.85978">
        <ele>261.6</ele>
        <time>2023-07-23T08:55:26Z</time>
      </trkpt>
      <trkpt lat="43.94523" lon="1.85992">
        <ele>262.6</ele>
        <time>2023-07-23T08:55:29Z</time>
      </trkpt>
      <trkpt lat="43.94523" lon="1.85998">
        <ele>263.2</ele>
        <time>2023-07-23T08:55:30Z</time>
      </trkpt>
      <trkpt lat="43.94524" lon="1.86003">
        <ele>263.4</ele>
        <time>2023-07-23T08:55:31Z</time>
      </trkpt>
      <trkpt lat="43.94527" lon="1.86007">
        <ele>263.6</ele>
        <time>2023-07-23T08:55:32Z</time>
      </trkpt>
      <trkpt lat="43.9453" lon="1.8601">
        <ele>263.8</ele>
        <time>2023-07-23T08:55:33Z</time>
      </trkpt>
      <trkpt lat="43.94533" lon="1.86012">
        <ele>264</ele>
        <time>2023-07-23T08:55:34Z</time>
      </trkpt>
      <trkpt lat="43.94537" lon="1.86014">
        <ele>264.2</ele>
        <time>2023-07-23T08:55:35Z</time>
      </trkpt>
      <trkpt lat="43.9454" lon="1.86017">
        <ele>264.4</ele>
        <time>2023-07-23T08:55:36Z</time>
      </trkpt>
      <trkpt lat="43.94543" lon="1.86019">
        <ele>265.2</ele>
        <time>2023-07-23T08:55:37Z</time>
      </trkpt>
      <trkpt lat="43.94546" lon="1.86021">
        <ele>265.4</ele>
        <time>2023-07-23T08:55:38Z</time>
      </trkpt>
      <trkpt lat="43.9455" lon="1.86022">
        <ele>265.8</ele>
        <time>2023-07-23T08:55:39Z</time>
      </trkpt>
      <trkpt lat="43.94553" lon="1.86024">
        <ele>265.8</ele>
        <time>2023-07-23T08:55:40Z</time>
      </trkpt>
      <trkpt lat="43.94556" lon="1.86026">
        <ele>266</ele>
        <time>2023-07-23T08:55:41Z</time>
      </trkpt>
      <trkpt lat="43.94559" lon="1.86028">
        <ele>266.2</ele>
        <time>2023-07-23T08:55:42Z</time>
      </trkpt>
      <trkpt lat="43.94563" lon="1.8603">
        <ele>266.4</ele>
        <time>2023-07-23T08:55:43Z</time>
      </trkpt>
      <trkpt lat="43.94566" lon="1.86032">
        <ele>266.4</ele>
        <time>2023-07-23T08:55:44Z</time>
      </trkpt>
      <trkpt lat="43.94569" lon="1.86034">
        <ele>266.8</ele>
        <time>2023-07-23T08:55:45Z</time>
      </trkpt>
      <trkpt lat="43.94572" lon="1.86036">
        <ele>267</ele>
        <time>2023-07-23T08:55:46Z</time>
      </trkpt>
      <trkpt lat="43.94575" lon="1.86037">
        <ele>267</ele>
        <time>2023-07-23T08:55:47Z</time>
      </trkpt>
      <trkpt lat="43.94579" lon="1.8604">
        <ele>267.4</ele>
        <time>2023-07-23T08:55:48Z</time>
      </trkpt>
      <trkpt lat="43.94582" lon="1.86042">
        <ele>267.4</ele>
        <time>2023-07-23T08:55:49Z</time>
      </trkpt>
      <trkpt lat="43.94586" lon="1.86044">
        <ele>267.6</ele>
        <time>2023-07-23T08:55:50Z</time>
      </trkpt>
      <trkpt lat="43.94589" lon="1.86046">
        <ele>267.8</ele>
        <time>2023-07-23T08:55:51Z</time>
      </trkpt>
      <trkpt lat="43.94593" lon="1.86048">
        <ele>268</ele>
        <time>2023-07-23T08:55:52Z</time>
      </trkpt>
      <trkpt lat="43.94596" lon="1.86049">
        <ele>268</ele>
        <time>2023-07-23T08:55:53Z</time>
      </trkpt>
      <trkpt lat="43.946" lon="1.86051">
        <ele>268.2</ele>
        <time>2023-07-23T08:55:54Z</time>
      </trkpt>
      <trkpt lat="43.94603" lon="1.86052">
        <ele>268.4</ele>
        <time>2023-07-23T08:55:55Z</time>
      </trkpt>
      <trkpt lat="43.94606" lon="1.86054">
        <ele>268.4</ele>
        <time>2023-07-23T08:55:56Z</time>
      </trkpt>
      <trkpt lat="43.94606" lon="1.86054">
        <ele>268.6</ele>
        <time>2023-07-23T08:55:57Z</time>
      </trkpt>
      <trkpt lat="43.94613" lon="1.86056">
        <ele>268.8</ele>
        <time>2023-07-23T08:55:58Z</time>
      </trkpt>
      <trkpt lat="43.94617" lon="1.86057">
        <ele>268.8</ele>
        <time>2023-07-23T08:55:59Z</time>
      </trkpt>
      <trkpt lat="43.9462" lon="1.86058">
        <ele>269</ele>
        <time>2023-07-23T08:56:00Z</time>
      </trkpt>
      <trkpt lat="43.94624" lon="1.86058">
        <ele>269.2</ele>
        <time>2023-07-23T08:56:01Z</time>
      </trkpt>
      <trkpt lat="43.94628" lon="1.86059">
        <ele>269.2</ele>
        <time>2023-07-23T08:56:02Z</time>
      </trkpt>
      <trkpt lat="43.94632" lon="1.8606">
        <ele>269.4</ele>
        <time>2023-07-23T08:56:03Z</time>
      </trkpt>
      <trkpt lat="43.94637" lon="1.8606">
        <ele>269.6</ele>
        <time>2023-07-23T08:56:04Z</time>
      </trkpt>
      <trkpt lat="43.94637" lon="1.8606">
        <ele>269.6</ele>
        <time>2023-07-23T08:56:05Z</time>
      </trkpt>
      <trkpt lat="43.94644" lon="1.86061">
        <ele>269.8</ele>
        <time>2023-07-23T08:56:06Z</time>
      </trkpt>
      <trkpt lat="43.94648" lon="1.86062">
        <ele>269.8</ele>
        <time>2023-07-23T08:56:07Z</time>
      </trkpt>
      <trkpt lat="43.94653" lon="1.86063">
        <ele>269.8</ele>
        <time>2023-07-23T08:56:08Z</time>
      </trkpt>
      <trkpt lat="43.94657" lon="1.86064">
        <ele>270</ele>
        <time>2023-07-23T08:56:09Z</time>
      </trkpt>
      <trkpt lat="43.94661" lon="1.86065">
        <ele>270.2</ele>
        <time>2023-07-23T08:56:10Z</time>
      </trkpt>
      <trkpt lat="43.94666" lon="1.86065">
        <ele>270.2</ele>
        <time>2023-07-23T08:56:11Z</time>
      </trkpt>
      <trkpt lat="43.9467" lon="1.86067">
        <ele>270.2</ele>
        <time>2023-07-23T08:56:12Z</time>
      </trkpt>
      <trkpt lat="43.94675" lon="1.86068">
        <ele>270.4</ele>
        <time>2023-07-23T08:56:13Z</time>
      </trkpt>
      <trkpt lat="43.9468" lon="1.86068">
        <ele>270.4</ele>
        <time>2023-07-23T08:56:14Z</time>
      </trkpt>
      <trkpt lat="43.94685" lon="1.86069">
        <ele>270.4</ele>
        <time>2023-07-23T08:56:15Z</time>
      </trkpt>
      <trkpt lat="43.94689" lon="1.8607">
        <ele>270.4</ele>
        <time>2023-07-23T08:56:16Z</time>
      </trkpt>
      <trkpt lat="43.94695" lon="1.86071">
        <ele>270.4</ele>
        <time>2023-07-23T08:56:17Z</time>
      </trkpt>
      <trkpt lat="43.94701" lon="1.86072">
        <ele>270.4</ele>
        <time>2023-07-23T08:56:18Z</time>
      </trkpt>
      <trkpt lat="43.94706" lon="1.86073">
        <ele>270.2</ele>
        <time>2023-07-23T08:56:19Z</time>
      </trkpt>
      <trkpt lat="43.94711" lon="1.86074">
        <ele>270.2</ele>
        <time>2023-07-23T08:56:20Z</time>
      </trkpt>
      <trkpt lat="43.94716" lon="1.86075">
        <ele>270</ele>
        <time>2023-07-23T08:56:21Z</time>
      </trkpt>
      <trkpt lat="43.94721" lon="1.86076">
        <ele>270</ele>
        <time>2023-07-23T08:56:22Z</time>
      </trkpt>
      <trkpt lat="43.94746" lon="1.86086">
        <ele>269.6</ele>
        <time>2023-07-23T08:56:27Z</time>
      </trkpt>
      <trkpt lat="43.9479" lon="1.86122">
        <ele>269.4</ele>
        <time>2023-07-23T08:56:36Z</time>
      </trkpt>
      <trkpt lat="43.94829" lon="1.86158">
        <ele>268.8</ele>
        <time>2023-07-23T08:56:44Z</time>
      </trkpt>
      <trkpt lat="43.94844" lon="1.86173">
        <ele>268.6</ele>
        <time>2023-07-23T08:56:47Z</time>
      </trkpt>
      <trkpt lat="43.94874" lon="1.86203">
        <ele>267.4</ele>
        <time>2023-07-23T08:56:53Z</time>
      </trkpt>
      <trkpt lat="43.94889" lon="1.86221">
        <ele>267.2</ele>
        <time>2023-07-23T08:56:56Z</time>
      </trkpt>
      <trkpt lat="43.94892" lon="1.86229">
        <ele>267</ele>
        <time>2023-07-23T08:56:57Z</time>
      </trkpt>
      <trkpt lat="43.949" lon="1.86245">
        <ele>266.8</ele>
        <time>2023-07-23T08:56:59Z</time>
      </trkpt>
      <trkpt lat="43.94903" lon="1.86254">
        <ele>266.6</ele>
        <time>2023-07-23T08:57:00Z</time>
      </trkpt>
      <trkpt lat="43.94924" lon="1.86307">
        <ele>265.6</ele>
        <time>2023-07-23T08:57:06Z</time>
      </trkpt>
      <trkpt lat="43.94927" lon="1.86316">
        <ele>265.4</ele>
        <time>2023-07-23T08:57:07Z</time>
      </trkpt>
      <trkpt lat="43.94944" lon="1.86361">
        <ele>264.6</ele>
        <time>2023-07-23T08:57:12Z</time>
      </trkpt>
      <trkpt lat="43.94953" lon="1.86386">
        <ele>264</ele>
        <time>2023-07-23T08:57:15Z</time>
      </trkpt>
      <trkpt lat="43.94959" lon="1.864">
        <ele>263.4</ele>
        <time>2023-07-23T08:57:17Z</time>
      </trkpt>
      <trkpt lat="43.94963" lon="1.8641">
        <ele>263.4</ele>
        <time>2023-07-23T08:57:18Z</time>
      </trkpt>
      <trkpt lat="43.94966" lon="1.86417">
        <ele>263.4</ele>
        <time>2023-07-23T08:57:19Z</time>
      </trkpt>
      <trkpt lat="43.94969" lon="1.86425">
        <ele>263.2</ele>
        <time>2023-07-23T08:57:20Z</time>
      </trkpt>
      <trkpt lat="43.94972" lon="1.86432">
        <ele>263.2</ele>
        <time>2023-07-23T08:57:21Z</time>
      </trkpt>
      <trkpt lat="43.94974" lon="1.86438">
        <ele>263</ele>
        <time>2023-07-23T08:57:22Z</time>
      </trkpt>
      <trkpt lat="43.94977" lon="1.86446">
        <ele>262.8</ele>
        <time>2023-07-23T08:57:23Z</time>
      </trkpt>
      <trkpt lat="43.94981" lon="1.86454">
        <ele>262.8</ele>
        <time>2023-07-23T08:57:24Z</time>
      </trkpt>
      <trkpt lat="43.94985" lon="1.8646">
        <ele>262.8</ele>
        <time>2023-07-23T08:57:25Z</time>
      </trkpt>
      <trkpt lat="43.94988" lon="1.86466">
        <ele>262.8</ele>
        <time>2023-07-23T08:57:26Z</time>
      </trkpt>
      <trkpt lat="43.94992" lon="1.86471">
        <ele>262.8</ele>
        <time>2023-07-23T08:57:27Z</time>
      </trkpt>
      <trkpt lat="43.94995" lon="1.86477">
        <ele>262.8</ele>
        <time>2023-07-23T08:57:28Z</time>
      </trkpt>
      <trkpt lat="43.94999" lon="1.86482">
        <ele>262.8</ele>
        <time>2023-07-23T08:57:29Z</time>
      </trkpt>
      <trkpt lat="43.95003" lon="1.86486">
        <ele>262.8</ele>
        <time>2023-07-23T08:57:30Z</time>
      </trkpt>
      <trkpt lat="43.95006" lon="1.86489">
        <ele>263</ele>
        <time>2023-07-23T08:57:31Z</time>
      </trkpt>
      <trkpt lat="43.95014" lon="1.86498">
        <ele>263</ele>
        <time>2023-07-23T08:57:33Z</time>
      </trkpt>
      <trkpt lat="43.95017" lon="1.86501">
        <ele>263</ele>
        <time>2023-07-23T08:57:34Z</time>
      </trkpt>
      <trkpt lat="43.95021" lon="1.86504">
        <ele>263.2</ele>
        <time>2023-07-23T08:57:35Z</time>
      </trkpt>
      <trkpt lat="43.95032" lon="1.86513">
        <ele>263.4</ele>
        <time>2023-07-23T08:57:38Z</time>
      </trkpt>
      <trkpt lat="43.95035" lon="1.86517">
        <ele>263.6</ele>
        <time>2023-07-23T08:57:39Z</time>
      </trkpt>
      <trkpt lat="43.95039" lon="1.8652">
        <ele>263.6</ele>
        <time>2023-07-23T08:57:40Z</time>
      </trkpt>
      <trkpt lat="43.95042" lon="1.86523">
        <ele>263.8</ele>
        <time>2023-07-23T08:57:41Z</time>
      </trkpt>
      <trkpt lat="43.95045" lon="1.86526">
        <ele>263.8</ele>
        <time>2023-07-23T08:57:42Z</time>
      </trkpt>
      <trkpt lat="43.95049" lon="1.8653">
        <ele>263.8</ele>
        <time>2023-07-23T08:57:43Z</time>
      </trkpt>
      <trkpt lat="43.95052" lon="1.86533">
        <ele>264</ele>
        <time>2023-07-23T08:57:44Z</time>
      </trkpt>
      <trkpt lat="43.95055" lon="1.86536">
        <ele>264.2</ele>
        <time>2023-07-23T08:57:45Z</time>
      </trkpt>
      <trkpt lat="43.95058" lon="1.86538">
        <ele>264.2</ele>
        <time>2023-07-23T08:57:46Z</time>
      </trkpt>
      <trkpt lat="43.95061" lon="1.8654">
        <ele>264.2</ele>
        <time>2023-07-23T08:57:47Z</time>
      </trkpt>
      <trkpt lat="43.95063" lon="1.86543">
        <ele>264.4</ele>
        <time>2023-07-23T08:57:48Z</time>
      </trkpt>
      <trkpt lat="43.95067" lon="1.86545">
        <ele>264.4</ele>
        <time>2023-07-23T08:57:49Z</time>
      </trkpt>
      <trkpt lat="43.95069" lon="1.86547">
        <ele>264.8</ele>
        <time>2023-07-23T08:57:50Z</time>
      </trkpt>
      <trkpt lat="43.95072" lon="1.86549">
        <ele>264.8</ele>
        <time>2023-07-23T08:57:51Z</time>
      </trkpt>
      <trkpt lat="43.95074" lon="1.86551">
        <ele>265</ele>
        <time>2023-07-23T08:57:52Z</time>
      </trkpt>
      <trkpt lat="43.95077" lon="1.86553">
        <ele>265.2</ele>
        <time>2023-07-23T08:57:53Z</time>
      </trkpt>
      <trkpt lat="43.95079" lon="1.86556">
        <ele>265.2</ele>
        <time>2023-07-23T08:57:54Z</time>
      </trkpt>
      <trkpt lat="43.95081" lon="1.86558">
        <ele>265.4</ele>
        <time>2023-07-23T08:57:55Z</time>
      </trkpt>
      <trkpt lat="43.95084" lon="1.86561">
        <ele>265.4</ele>
        <time>2023-07-23T08:57:56Z</time>
      </trkpt>
      <trkpt lat="43.95086" lon="1.86562">
        <ele>265.6</ele>
        <time>2023-07-23T08:57:57Z</time>
      </trkpt>
      <trkpt lat="43.95088" lon="1.86565">
        <ele>265.8</ele>
        <time>2023-07-23T08:57:58Z</time>
      </trkpt>
      <trkpt lat="43.9509" lon="1.86567">
        <ele>265.8</ele>
        <time>2023-07-23T08:57:59Z</time>
      </trkpt>
      <trkpt lat="43.95092" lon="1.86569">
        <ele>266</ele>
        <time>2023-07-23T08:58:00Z</time>
      </trkpt>
      <trkpt lat="43.95094" lon="1.86571">
        <ele>266</ele>
        <time>2023-07-23T08:58:01Z</time>
      </trkpt>
      <trkpt lat="43.95095" lon="1.86572">
        <ele>266</ele>
        <time>2023-07-23T08:58:02Z</time>
      </trkpt>
      <trkpt lat="43.95097" lon="1.86574">
        <ele>266.2</ele>
        <time>2023-07-23T08:58:03Z</time>
      </trkpt>
      <trkpt lat="43.95099" lon="1.86577">
        <ele>266.2</ele>
        <time>2023-07-23T08:58:04Z</time>
      </trkpt>
      <trkpt lat="43.95101" lon="1.86578">
        <ele>266.4</ele>
        <time>2023-07-23T08:58:05Z</time>
      </trkpt>
      <trkpt lat="43.95105" lon="1.86583">
        <ele>266.6</ele>
        <time>2023-07-23T08:58:08Z</time>
      </trkpt>
      <trkpt lat="43.95107" lon="1.86585">
        <ele>267</ele>
        <time>2023-07-23T08:58:09Z</time>
      </trkpt>
      <trkpt lat="43.95108" lon="1.86588">
        <ele>267.2</ele>
        <time>2023-07-23T08:58:10Z</time>
      </trkpt>
      <trkpt lat="43.95109" lon="1.86589">
        <ele>267.4</ele>
        <time>2023-07-23T08:58:11Z</time>
      </trkpt>
      <trkpt lat="43.9511" lon="1.86591">
        <ele>267.4</ele>
        <time>2023-07-23T08:58:12Z</time>
      </trkpt>
      <trkpt lat="43.95111" lon="1.86592">
        <ele>267.8</ele>
        <time>2023-07-23T08:58:13Z</time>
      </trkpt>
      <trkpt lat="43.95113" lon="1.86595">
        <ele>267.8</ele>
        <time>2023-07-23T08:58:14Z</time>
      </trkpt>
      <trkpt lat="43.95115" lon="1.86597">
        <ele>268</ele>
        <time>2023-07-23T08:58:15Z</time>
      </trkpt>
      <trkpt lat="43.95116" lon="1.86598">
        <ele>268.2</ele>
        <time>2023-07-23T08:58:16Z</time>
      </trkpt>
      <trkpt lat="43.95117" lon="1.86599">
        <ele>268.2</ele>
        <time>2023-07-23T08:58:17Z</time>
      </trkpt>
      <trkpt lat="43.95119" lon="1.866">
        <ele>268.4</ele>
        <time>2023-07-23T08:58:18Z</time>
      </trkpt>
      <trkpt lat="43.9512" lon="1.86602">
        <ele>268.6</ele>
        <time>2023-07-23T08:58:19Z</time>
      </trkpt>
      <trkpt lat="43.95121" lon="1.86603">
        <ele>268.8</ele>
        <time>2023-07-23T08:58:20Z</time>
      </trkpt>
      <trkpt lat="43.95122" lon="1.86604">
        <ele>269</ele>
        <time>2023-07-23T08:58:21Z</time>
      </trkpt>
      <trkpt lat="43.95123" lon="1.86606">
        <ele>269.2</ele>
        <time>2023-07-23T08:58:22Z</time>
      </trkpt>
      <trkpt lat="43.95124" lon="1.86608">
        <ele>269.2</ele>
        <time>2023-07-23T08:58:23Z</time>
      </trkpt>
      <trkpt lat="43.95125" lon="1.8661">
        <ele>269.4</ele>
        <time>2023-07-23T08:58:24Z</time>
      </trkpt>
      <trkpt lat="43.95126" lon="1.86611">
        <ele>269.4</ele>
        <time>2023-07-23T08:58:25Z</time>
      </trkpt>
      <trkpt lat="43.95127" lon="1.86613">
        <ele>269.6</ele>
        <time>2023-07-23T08:58:26Z</time>
      </trkpt>
      <trkpt lat="43.95128" lon="1.86614">
        <ele>269.8</ele>
        <time>2023-07-23T08:58:27Z</time>
      </trkpt>
      <trkpt lat="43.95129" lon="1.86616">
        <ele>269.8</ele>
        <time>2023-07-23T08:58:28Z</time>
      </trkpt>
      <trkpt lat="43.9513" lon="1.86618">
        <ele>270</ele>
        <time>2023-07-23T08:58:29Z</time>
      </trkpt>
      <trkpt lat="43.95131" lon="1.8662">
        <ele>270</ele>
        <time>2023-07-23T08:58:30Z</time>
      </trkpt>
      <trkpt lat="43.95132" lon="1.86621">
        <ele>270.2</ele>
        <time>2023-07-23T08:58:31Z</time>
      </trkpt>
      <trkpt lat="43.95133" lon="1.86623">
        <ele>270.4</ele>
        <time>2023-07-23T08:58:32Z</time>
      </trkpt>
      <trkpt lat="43.95134" lon="1.86624">
        <ele>270.6</ele>
        <time>2023-07-23T08:58:33Z</time>
      </trkpt>
      <trkpt lat="43.95135" lon="1.86626">
        <ele>270.8</ele>
        <time>2023-07-23T08:58:34Z</time>
      </trkpt>
      <trkpt lat="43.95136" lon="1.86627">
        <ele>270.8</ele>
        <time>2023-07-23T08:58:35Z</time>
      </trkpt>
      <trkpt lat="43.95137" lon="1.86629">
        <ele>271</ele>
        <time>2023-07-23T08:58:36Z</time>
      </trkpt>
      <trkpt lat="43.95139" lon="1.86631">
        <ele>271</ele>
        <time>2023-07-23T08:58:37Z</time>
      </trkpt>
      <trkpt lat="43.9514" lon="1.86634">
        <ele>271.4</ele>
        <time>2023-07-23T08:58:38Z</time>
      </trkpt>
      <trkpt lat="43.95141" lon="1.86636">
        <ele>271.6</ele>
        <time>2023-07-23T08:58:39Z</time>
      </trkpt>
      <trkpt lat="43.95142" lon="1.86637">
        <ele>271.6</ele>
        <time>2023-07-23T08:58:40Z</time>
      </trkpt>
      <trkpt lat="43.95143" lon="1.86638">
        <ele>271.8</ele>
        <time>2023-07-23T08:58:41Z</time>
      </trkpt>
      <trkpt lat="43.95145" lon="1.8664">
        <ele>271.8</ele>
        <time>2023-07-23T08:58:42Z</time>
      </trkpt>
      <trkpt lat="43.95145" lon="1.86642">
        <ele>272</ele>
        <time>2023-07-23T08:58:43Z</time>
      </trkpt>
      <trkpt lat="43.95146" lon="1.86644">
        <ele>272</ele>
        <time>2023-07-23T08:58:44Z</time>
      </trkpt>
      <trkpt lat="43.95148" lon="1.86646">
        <ele>272.2</ele>
        <time>2023-07-23T08:58:45Z</time>
      </trkpt>
      <trkpt lat="43.95149" lon="1.86648">
        <ele>272.4</ele>
        <time>2023-07-23T08:58:46Z</time>
      </trkpt>
      <trkpt lat="43.9515" lon="1.86649">
        <ele>272.6</ele>
        <time>2023-07-23T08:58:47Z</time>
      </trkpt>
      <trkpt lat="43.95152" lon="1.86651">
        <ele>272.8</ele>
        <time>2023-07-23T08:58:48Z</time>
      </trkpt>
      <trkpt lat="43.95154" lon="1.86653">
        <ele>273</ele>
        <time>2023-07-23T08:58:49Z</time>
      </trkpt>
      <trkpt lat="43.95155" lon="1.86654">
        <ele>273.2</ele>
        <time>2023-07-23T08:58:50Z</time>
      </trkpt>
      <trkpt lat="43.95157" lon="1.86655">
        <ele>273.2</ele>
        <time>2023-07-23T08:58:51Z</time>
      </trkpt>
      <trkpt lat="43.95159" lon="1.86658">
        <ele>273.4</ele>
        <time>2023-07-23T08:58:52Z</time>
      </trkpt>
      <trkpt lat="43.9516" lon="1.8666">
        <ele>273.6</ele>
        <time>2023-07-23T08:58:53Z</time>
      </trkpt>
      <trkpt lat="43.95161" lon="1.86663">
        <ele>273.8</ele>
        <time>2023-07-23T08:58:54Z</time>
      </trkpt>
      <trkpt lat="43.95161" lon="1.86663">
        <ele>274</ele>
        <time>2023-07-23T08:58:55Z</time>
      </trkpt>
      <trkpt lat="43.95164" lon="1.86667">
        <ele>274.2</ele>
        <time>2023-07-23T08:58:56Z</time>
      </trkpt>
      <trkpt lat="43.95166" lon="1.8667">
        <ele>274.4</ele>
        <time>2023-07-23T08:58:57Z</time>
      </trkpt>
      <trkpt lat="43.95167" lon="1.86672">
        <ele>274.4</ele>
        <time>2023-07-23T08:58:58Z</time>
      </trkpt>
      <trkpt lat="43.95169" lon="1.86675">
        <ele>274.6</ele>
        <time>2023-07-23T08:58:59Z</time>
      </trkpt>
      <trkpt lat="43.9517" lon="1.86677">
        <ele>274.8</ele>
        <time>2023-07-23T08:59:00Z</time>
      </trkpt>
      <trkpt lat="43.95171" lon="1.8668">
        <ele>275</ele>
        <time>2023-07-23T08:59:01Z</time>
      </trkpt>
      <trkpt lat="43.95173" lon="1.86684">
        <ele>275</ele>
        <time>2023-07-23T08:59:02Z</time>
      </trkpt>
      <trkpt lat="43.95174" lon="1.86687">
        <ele>275.2</ele>
        <time>2023-07-23T08:59:03Z</time>
      </trkpt>
      <trkpt lat="43.95176" lon="1.8669">
        <ele>275.2</ele>
        <time>2023-07-23T08:59:04Z</time>
      </trkpt>
      <trkpt lat="43.95177" lon="1.86692">
        <ele>275.4</ele>
        <time>2023-07-23T08:59:05Z</time>
      </trkpt>
      <trkpt lat="43.95179" lon="1.86695">
        <ele>275.4</ele>
        <time>2023-07-23T08:59:06Z</time>
      </trkpt>
      <trkpt lat="43.95181" lon="1.86698">
        <ele>275.6</ele>
        <time>2023-07-23T08:59:07Z</time>
      </trkpt>
      <trkpt lat="43.95181" lon="1.86698">
        <ele>275.6</ele>
        <time>2023-07-23T08:59:08Z</time>
      </trkpt>
      <trkpt lat="43.95185" lon="1.86704">
        <ele>275.8</ele>
        <time>2023-07-23T08:59:09Z</time>
      </trkpt>
      <trkpt lat="43.95187" lon="1.86708">
        <ele>275.8</ele>
        <time>2023-07-23T08:59:10Z</time>
      </trkpt>
      <trkpt lat="43.95189" lon="1.86711">
        <ele>275.8</ele>
        <time>2023-07-23T08:59:11Z</time>
      </trkpt>
      <trkpt lat="43.95191" lon="1.86715">
        <ele>275.8</ele>
        <time>2023-07-23T08:59:12Z</time>
      </trkpt>
      <trkpt lat="43.95193" lon="1.86718">
        <ele>275.8</ele>
        <time>2023-07-23T08:59:13Z</time>
      </trkpt>
      <trkpt lat="43.95195" lon="1.86721">
        <ele>276</ele>
        <time>2023-07-23T08:59:14Z</time>
      </trkpt>
      <trkpt lat="43.95197" lon="1.86724">
        <ele>276</ele>
        <time>2023-07-23T08:59:15Z</time>
      </trkpt>
      <trkpt lat="43.95197" lon="1.86724">
        <ele>276</ele>
        <time>2023-07-23T08:59:16Z</time>
      </trkpt>
      <trkpt lat="43.95202" lon="1.86732">
        <ele>276</ele>
        <time>2023-07-23T08:59:17Z</time>
      </trkpt>
      <trkpt lat="43.95205" lon="1.86736">
        <ele>276.2</ele>
        <time>2023-07-23T08:59:18Z</time>
      </trkpt>
      <trkpt lat="43.95206" lon="1.86739">
        <ele>276.2</ele>
        <time>2023-07-23T08:59:19Z</time>
      </trkpt>
      <trkpt lat="43.95209" lon="1.86743">
        <ele>276.4</ele>
        <time>2023-07-23T08:59:20Z</time>
      </trkpt>
      <trkpt lat="43.95211" lon="1.86747">
        <ele>276.6</ele>
        <time>2023-07-23T08:59:21Z</time>
      </trkpt>
      <trkpt lat="43.95214" lon="1.86752">
        <ele>276.6</ele>
        <time>2023-07-23T08:59:22Z</time>
      </trkpt>
      <trkpt lat="43.95216" lon="1.86756">
        <ele>276.8</ele>
        <time>2023-07-23T08:59:23Z</time>
      </trkpt>
      <trkpt lat="43.95218" lon="1.8676">
        <ele>276.8</ele>
        <time>2023-07-23T08:59:24Z</time>
      </trkpt>
      <trkpt lat="43.95231" lon="1.86787">
        <ele>277</ele>
        <time>2023-07-23T08:59:30Z</time>
      </trkpt>
      <trkpt lat="43.95236" lon="1.86798">
        <ele>277.2</ele>
        <time>2023-07-23T08:59:32Z</time>
      </trkpt>
      <trkpt lat="43.95253" lon="1.86832">
        <ele>277.4</ele>
        <time>2023-07-23T08:59:39Z</time>
      </trkpt>
      <trkpt lat="43.95259" lon="1.86845">
        <ele>277.6</ele>
        <time>2023-07-23T08:59:42Z</time>
      </trkpt>
      <trkpt lat="43.95261" lon="1.86849">
        <ele>277.6</ele>
        <time>2023-07-23T08:59:43Z</time>
      </trkpt>
      <trkpt lat="43.95264" lon="1.86854">
        <ele>277.8</ele>
        <time>2023-07-23T08:59:44Z</time>
      </trkpt>
      <trkpt lat="43.95269" lon="1.86863">
        <ele>278</ele>
        <time>2023-07-23T08:59:46Z</time>
      </trkpt>
      <trkpt lat="43.95272" lon="1.86868">
        <ele>278</ele>
        <time>2023-07-23T08:59:47Z</time>
      </trkpt>
      <trkpt lat="43.95274" lon="1.86872">
        <ele>278</ele>
        <time>2023-07-23T08:59:48Z</time>
      </trkpt>
      <trkpt lat="43.9528" lon="1.86882">
        <ele>278</ele>
        <time>2023-07-23T08:59:50Z</time>
      </trkpt>
      <trkpt lat="43.95282" lon="1.86886">
        <ele>278.2</ele>
        <time>2023-07-23T08:59:51Z</time>
      </trkpt>
      <trkpt lat="43.95285" lon="1.8689">
        <ele>278.2</ele>
        <time>2023-07-23T08:59:52Z</time>
      </trkpt>
      <trkpt lat="43.95285" lon="1.8689">
        <ele>278.2</ele>
        <time>2023-07-23T08:59:53Z</time>
      </trkpt>
      <trkpt lat="43.9529" lon="1.86897">
        <ele>278.4</ele>
        <time>2023-07-23T08:59:54Z</time>
      </trkpt>
      <trkpt lat="43.95295" lon="1.86906">
        <ele>278.6</ele>
        <time>2023-07-23T08:59:56Z</time>
      </trkpt>
      <trkpt lat="43.95298" lon="1.8691">
        <ele>278.8</ele>
        <time>2023-07-23T08:59:57Z</time>
      </trkpt>
      <trkpt lat="43.953" lon="1.86913">
        <ele>278.8</ele>
        <time>2023-07-23T08:59:58Z</time>
      </trkpt>
      <trkpt lat="43.95303" lon="1.86916">
        <ele>278.8</ele>
        <time>2023-07-23T08:59:59Z</time>
      </trkpt>
      <trkpt lat="43.95323" lon="1.86936">
        <ele>279.4</ele>
        <time>2023-07-23T09:00:05Z</time>
      </trkpt>
      <trkpt lat="43.95326" lon="1.86939">
        <ele>279.4</ele>
        <time>2023-07-23T09:00:06Z</time>
      </trkpt>
      <trkpt lat="43.95335" lon="1.86943">
        <ele>279.6</ele>
        <time>2023-07-23T09:00:09Z</time>
      </trkpt>
      <trkpt lat="43.95338" lon="1.86942">
        <ele>279.6</ele>
        <time>2023-07-23T09:00:10Z</time>
      </trkpt>
      <trkpt lat="43.95341" lon="1.8694">
        <ele>279.6</ele>
        <time>2023-07-23T09:00:11Z</time>
      </trkpt>
      <trkpt lat="43.95342" lon="1.86939">
        <ele>279.6</ele>
        <time>2023-07-23T09:00:12Z</time>
      </trkpt>
      <trkpt lat="43.95344" lon="1.86937">
        <ele>279.8</ele>
        <time>2023-07-23T09:00:13Z</time>
      </trkpt>
      <trkpt lat="43.95347" lon="1.86937">
        <ele>279.8</ele>
        <time>2023-07-23T09:00:14Z</time>
      </trkpt>
      <trkpt lat="43.95349" lon="1.86938">
        <ele>280</ele>
        <time>2023-07-23T09:00:15Z</time>
      </trkpt>
      <trkpt lat="43.95351" lon="1.8694">
        <ele>280</ele>
        <time>2023-07-23T09:00:16Z</time>
      </trkpt>
      <trkpt lat="43.95352" lon="1.86942">
        <ele>280</ele>
        <time>2023-07-23T09:00:17Z</time>
      </trkpt>
      <trkpt lat="43.95352" lon="1.86944">
        <ele>280</ele>
        <time>2023-07-23T09:00:18Z</time>
      </trkpt>
      <trkpt lat="43.95351" lon="1.86945">
        <ele>280</ele>
        <time>2023-07-23T09:00:19Z</time>
      </trkpt>
      <trkpt lat="43.9535" lon="1.86946">
        <ele>280.2</ele>
        <time>2023-07-23T09:00:20Z</time>
      </trkpt>
      <trkpt lat="43.9535" lon="1.86946">
        <ele>280.2</ele>
        <time>2023-07-23T09:00:21Z</time>
      </trkpt>
      <trkpt lat="43.9535" lon="1.86946">
        <ele>280.2</ele>
        <time>2023-07-23T09:00:22Z</time>
      </trkpt>
      <trkpt lat="43.95334" lon="1.86927">
        <ele>279.6</ele>
        <time>2023-07-23T09:03:45Z</time>
      </trkpt>
      <trkpt lat="43.95328" lon="1.86926">
        <ele>279.4</ele>
        <time>2023-07-23T09:03:48Z</time>
      </trkpt>
      <trkpt lat="43.95325" lon="1.86922">
        <ele>279.4</ele>
        <time>2023-07-23T09:03:50Z</time>
      </trkpt>
      <trkpt lat="43.95323" lon="1.8692">
        <ele>279.4</ele>
        <time>2023-07-23T09:03:51Z</time>
      </trkpt>
      <trkpt lat="43.95322" lon="1.86917">
        <ele>279.4</ele>
        <time>2023-07-23T09:03:52Z</time>
      </trkpt>
      <trkpt lat="43.9532" lon="1.86914">
        <ele>279.2</ele>
        <time>2023-07-23T09:03:53Z</time>
      </trkpt>
      <trkpt lat="43.9532" lon="1.86911">
        <ele>279.4</ele>
        <time>2023-07-23T09:03:54Z</time>
      </trkpt>
      <trkpt lat="43.95318" lon="1.86903">
        <ele>279.6</ele>
        <time>2023-07-23T09:03:58Z</time>
      </trkpt>
      <trkpt lat="43.95318" lon="1.86903">
        <ele>279.6</ele>
        <time>2023-07-23T09:03:59Z</time>
      </trkpt>
      <trkpt lat="43.95318" lon="1.86903">
        <ele>279.6</ele>
        <time>2023-07-23T09:04:00Z</time>
      </trkpt>
      <trkpt lat="43.95312" lon="1.86883">
        <ele>279.4</ele>
        <time>2023-07-23T09:04:30Z</time>
      </trkpt>
      <trkpt lat="43.95313" lon="1.86879">
        <ele>279.4</ele>
        <time>2023-07-23T09:04:31Z</time>
      </trkpt>
      <trkpt lat="43.95315" lon="1.86874">
        <ele>279.4</ele>
        <time>2023-07-23T09:04:32Z</time>
      </trkpt>
      <trkpt lat="43.95317" lon="1.8687">
        <ele>279.4</ele>
        <time>2023-07-23T09:04:33Z</time>
      </trkpt>
      <trkpt lat="43.95318" lon="1.86867">
        <ele>279.4</ele>
        <time>2023-07-23T09:04:34Z</time>
      </trkpt>
      <trkpt lat="43.9532" lon="1.86859">
        <ele>279.2</ele>
        <time>2023-07-23T09:04:36Z</time>
      </trkpt>
      <trkpt lat="43.95321" lon="1.86858">
        <ele>279.2</ele>
        <time>2023-07-23T09:04:37Z</time>
      </trkpt>
      <trkpt lat="43.95322" lon="1.86858">
        <ele>279.2</ele>
        <time>2023-07-23T09:04:38Z</time>
      </trkpt>
      <trkpt lat="43.95322" lon="1.86858">
        <ele>279</ele>
        <time>2023-07-23T09:04:39Z</time>
      </trkpt>
    </trkseg>
  </trk>
</gpx>